<?xml version="1.0" encoding="UTF-8" standalone="no" ?>
<gpx xmlns="http://www.topografix.com/GPX/1/1" xmlns:xsi="http://www.w3.org/2001/XMLSchema-instance" xsi:schemaLocation="http://www.topografix.com/GPX/1/1 http://www.topografix.com/GPX/1/1/gpx.xsd" version="1.1" creator="VisuGPX - https://www.visugpx.com">
  <metadata>
    <name>Marche de la Bièvres 2019</name>
  </metadata>
  <trk>
    <name><![CDATA[Marche de la Bièvres 2019_1]]></name>
    <trkseg>
      <trkpt lat="48.74586" lon="2.26831">
        <ele>85</ele>
        <time>2019-05-12T01:59:02.000Z</time>
      </trkpt>
      <trkpt lat="48.74564" lon="2.26838">
        <ele>84</ele>
        <time>2019-05-12T01:59:40.000Z</time>
      </trkpt>
      <trkpt lat="48.74554" lon="2.26839">
        <ele>83</ele>
        <time>2019-05-12T01:59:48.000Z</time>
      </trkpt>
      <trkpt lat="48.74554" lon="2.26839">
        <ele>83</ele>
        <time>2019-05-12T01:59:50.000Z</time>
      </trkpt>
      <trkpt lat="48.74554" lon="2.26839">
        <ele>83</ele>
        <time>2019-05-12T01:59:52.000Z</time>
      </trkpt>
      <trkpt lat="48.74554" lon="2.26839">
        <ele>83</ele>
        <time>2019-05-12T01:59:54.000Z</time>
      </trkpt>
      <trkpt lat="48.74551" lon="2.2687">
        <ele>83</ele>
        <time>2019-05-12T02:00:06.000Z</time>
      </trkpt>
      <trkpt lat="48.74551" lon="2.2687">
        <ele>83</ele>
        <time>2019-05-12T02:00:10.000Z</time>
      </trkpt>
      <trkpt lat="48.74554" lon="2.26878">
        <ele>83</ele>
        <time>2019-05-12T02:00:16.000Z</time>
      </trkpt>
      <trkpt lat="48.74557" lon="2.26884">
        <ele>83</ele>
        <time>2019-05-12T02:00:20.000Z</time>
      </trkpt>
      <trkpt lat="48.74557" lon="2.26884">
        <ele>83</ele>
        <time>2019-05-12T02:00:22.000Z</time>
      </trkpt>
      <trkpt lat="48.74563" lon="2.26894">
        <ele>84</ele>
        <time>2019-05-12T02:00:32.000Z</time>
      </trkpt>
      <trkpt lat="48.74567" lon="2.26899">
        <ele>84</ele>
        <time>2019-05-12T02:00:34.000Z</time>
      </trkpt>
      <trkpt lat="48.74567" lon="2.26899">
        <ele>84</ele>
        <time>2019-05-12T02:00:36.000Z</time>
      </trkpt>
      <trkpt lat="48.74567" lon="2.26899">
        <ele>84</ele>
        <time>2019-05-12T02:00:38.000Z</time>
      </trkpt>
      <trkpt lat="48.74567" lon="2.26899">
        <ele>84</ele>
        <time>2019-05-12T02:00:48.000Z</time>
      </trkpt>
      <trkpt lat="48.74567" lon="2.26899">
        <ele>84</ele>
        <time>2019-05-12T02:00:50.000Z</time>
      </trkpt>
      <trkpt lat="48.74574" lon="2.26912">
        <ele>84</ele>
        <time>2019-05-12T02:00:54.000Z</time>
      </trkpt>
      <trkpt lat="48.74579" lon="2.26919">
        <ele>85</ele>
        <time>2019-05-12T02:00:56.000Z</time>
      </trkpt>
      <trkpt lat="48.74582" lon="2.26923">
        <ele>85</ele>
        <time>2019-05-12T02:00:58.000Z</time>
      </trkpt>
      <trkpt lat="48.74582" lon="2.26923">
        <ele>85</ele>
        <time>2019-05-12T02:01:00.000Z</time>
      </trkpt>
      <trkpt lat="48.74582" lon="2.26923">
        <ele>85</ele>
        <time>2019-05-12T02:01:02.000Z</time>
      </trkpt>
      <trkpt lat="48.74582" lon="2.26923">
        <ele>85</ele>
        <time>2019-05-12T02:01:04.000Z</time>
      </trkpt>
      <trkpt lat="48.74582" lon="2.26923">
        <ele>85</ele>
        <time>2019-05-12T02:01:06.000Z</time>
      </trkpt>
      <trkpt lat="48.74582" lon="2.26923">
        <ele>85</ele>
        <time>2019-05-12T02:01:08.000Z</time>
      </trkpt>
      <trkpt lat="48.74593" lon="2.26932">
        <ele>86</ele>
        <time>2019-05-12T02:01:12.000Z</time>
      </trkpt>
      <trkpt lat="48.746" lon="2.26938">
        <ele>86</ele>
        <time>2019-05-12T02:01:14.000Z</time>
      </trkpt>
      <trkpt lat="48.74603" lon="2.26942">
        <ele>86</ele>
        <time>2019-05-12T02:01:16.000Z</time>
      </trkpt>
      <trkpt lat="48.74603" lon="2.26942">
        <ele>86</ele>
        <time>2019-05-12T02:01:18.000Z</time>
      </trkpt>
      <trkpt lat="48.74603" lon="2.26942">
        <ele>86</ele>
        <time>2019-05-12T02:01:20.000Z</time>
      </trkpt>
      <trkpt lat="48.74603" lon="2.26942">
        <ele>86</ele>
        <time>2019-05-12T02:01:22.000Z</time>
      </trkpt>
      <trkpt lat="48.74603" lon="2.26942">
        <ele>86</ele>
        <time>2019-05-12T02:01:28.000Z</time>
      </trkpt>
      <trkpt lat="48.74596" lon="2.26947">
        <ele>86</ele>
        <time>2019-05-12T02:01:32.000Z</time>
      </trkpt>
      <trkpt lat="48.74591" lon="2.26949">
        <ele>86</ele>
        <time>2019-05-12T02:01:34.000Z</time>
      </trkpt>
      <trkpt lat="48.74591" lon="2.26949">
        <ele>86</ele>
        <time>2019-05-12T02:01:36.000Z</time>
      </trkpt>
      <trkpt lat="48.74586" lon="2.26949">
        <ele>86</ele>
        <time>2019-05-12T02:01:38.000Z</time>
      </trkpt>
      <trkpt lat="48.7458" lon="2.26947">
        <ele>84</ele>
        <time>2019-05-12T02:01:42.000Z</time>
      </trkpt>
      <trkpt lat="48.74575" lon="2.26946">
        <ele>84</ele>
        <time>2019-05-12T02:01:44.000Z</time>
      </trkpt>
      <trkpt lat="48.7457" lon="2.26945">
        <ele>84</ele>
        <time>2019-05-12T02:01:48.000Z</time>
      </trkpt>
      <trkpt lat="48.7457" lon="2.26945">
        <ele>84</ele>
        <time>2019-05-12T02:01:50.000Z</time>
      </trkpt>
      <trkpt lat="48.7457" lon="2.26945">
        <ele>84</ele>
        <time>2019-05-12T02:01:52.000Z</time>
      </trkpt>
      <trkpt lat="48.7457" lon="2.26945">
        <ele>84</ele>
        <time>2019-05-12T02:01:54.000Z</time>
      </trkpt>
      <trkpt lat="48.74561" lon="2.26942">
        <ele>84</ele>
        <time>2019-05-12T02:01:58.000Z</time>
      </trkpt>
      <trkpt lat="48.74554" lon="2.26939">
        <ele>84</ele>
        <time>2019-05-12T02:02:00.000Z</time>
      </trkpt>
      <trkpt lat="48.74549" lon="2.26938">
        <ele>84</ele>
        <time>2019-05-12T02:02:02.000Z</time>
      </trkpt>
      <trkpt lat="48.74544" lon="2.26936">
        <ele>84</ele>
        <time>2019-05-12T02:02:06.000Z</time>
      </trkpt>
      <trkpt lat="48.74544" lon="2.26936">
        <ele>84</ele>
        <time>2019-05-12T02:02:10.000Z</time>
      </trkpt>
      <trkpt lat="48.74544" lon="2.26936">
        <ele>84</ele>
        <time>2019-05-12T02:02:12.000Z</time>
      </trkpt>
      <trkpt lat="48.74544" lon="2.26936">
        <ele>84</ele>
        <time>2019-05-12T02:02:14.000Z</time>
      </trkpt>
      <trkpt lat="48.74544" lon="2.26936">
        <ele>84</ele>
        <time>2019-05-12T02:02:16.000Z</time>
      </trkpt>
      <trkpt lat="48.74544" lon="2.26936">
        <ele>84</ele>
        <time>2019-05-12T02:02:18.000Z</time>
      </trkpt>
      <trkpt lat="48.74534" lon="2.26937">
        <ele>84</ele>
        <time>2019-05-12T02:02:22.000Z</time>
      </trkpt>
      <trkpt lat="48.74528" lon="2.26942">
        <ele>83</ele>
        <time>2019-05-12T02:02:26.000Z</time>
      </trkpt>
      <trkpt lat="48.74524" lon="2.26947">
        <ele>83</ele>
        <time>2019-05-12T02:02:28.000Z</time>
      </trkpt>
      <trkpt lat="48.74524" lon="2.26947">
        <ele>83</ele>
        <time>2019-05-12T02:02:30.000Z</time>
      </trkpt>
      <trkpt lat="48.7452" lon="2.26952">
        <ele>83</ele>
        <time>2019-05-12T02:02:32.000Z</time>
      </trkpt>
      <trkpt lat="48.7452" lon="2.26952">
        <ele>83</ele>
        <time>2019-05-12T02:02:34.000Z</time>
      </trkpt>
      <trkpt lat="48.74515" lon="2.26958">
        <ele>83</ele>
        <time>2019-05-12T02:02:38.000Z</time>
      </trkpt>
      <trkpt lat="48.7451" lon="2.26961">
        <ele>83</ele>
        <time>2019-05-12T02:02:40.000Z</time>
      </trkpt>
      <trkpt lat="48.74504" lon="2.26961">
        <ele>83</ele>
        <time>2019-05-12T02:02:44.000Z</time>
      </trkpt>
      <trkpt lat="48.74504" lon="2.26961">
        <ele>83</ele>
        <time>2019-05-12T02:02:48.000Z</time>
      </trkpt>
      <trkpt lat="48.74504" lon="2.26961">
        <ele>83</ele>
        <time>2019-05-12T02:02:50.000Z</time>
      </trkpt>
      <trkpt lat="48.74504" lon="2.26961">
        <ele>83</ele>
        <time>2019-05-12T02:02:52.000Z</time>
      </trkpt>
      <trkpt lat="48.74492" lon="2.26957">
        <ele>81</ele>
        <time>2019-05-12T02:02:58.000Z</time>
      </trkpt>
      <trkpt lat="48.74485" lon="2.26955">
        <ele>81</ele>
        <time>2019-05-12T02:03:00.000Z</time>
      </trkpt>
      <trkpt lat="48.7448" lon="2.26953">
        <ele>81</ele>
        <time>2019-05-12T02:03:02.000Z</time>
      </trkpt>
      <trkpt lat="48.7448" lon="2.26953">
        <ele>81</ele>
        <time>2019-05-12T02:03:04.000Z</time>
      </trkpt>
      <trkpt lat="48.7448" lon="2.26953">
        <ele>81</ele>
        <time>2019-05-12T02:03:06.000Z</time>
      </trkpt>
      <trkpt lat="48.7448" lon="2.26953">
        <ele>81</ele>
        <time>2019-05-12T02:03:08.000Z</time>
      </trkpt>
      <trkpt lat="48.74471" lon="2.2695">
        <ele>81</ele>
        <time>2019-05-12T02:03:12.000Z</time>
      </trkpt>
      <trkpt lat="48.74465" lon="2.26948">
        <ele>80</ele>
        <time>2019-05-12T02:03:14.000Z</time>
      </trkpt>
      <trkpt lat="48.7446" lon="2.26947">
        <ele>80</ele>
        <time>2019-05-12T02:03:16.000Z</time>
      </trkpt>
      <trkpt lat="48.74456" lon="2.26943">
        <ele>80</ele>
        <time>2019-05-12T02:03:20.000Z</time>
      </trkpt>
      <trkpt lat="48.74456" lon="2.26943">
        <ele>80</ele>
        <time>2019-05-12T02:03:22.000Z</time>
      </trkpt>
      <trkpt lat="48.74456" lon="2.26943">
        <ele>80</ele>
        <time>2019-05-12T02:03:24.000Z</time>
      </trkpt>
      <trkpt lat="48.74456" lon="2.26943">
        <ele>80</ele>
        <time>2019-05-12T02:03:26.000Z</time>
      </trkpt>
      <trkpt lat="48.74448" lon="2.26936">
        <ele>80</ele>
        <time>2019-05-12T02:03:30.000Z</time>
      </trkpt>
      <trkpt lat="48.74442" lon="2.26932">
        <ele>80</ele>
        <time>2019-05-12T02:03:32.000Z</time>
      </trkpt>
      <trkpt lat="48.74438" lon="2.26928">
        <ele>79</ele>
        <time>2019-05-12T02:03:34.000Z</time>
      </trkpt>
      <trkpt lat="48.74438" lon="2.26928">
        <ele>79</ele>
        <time>2019-05-12T02:03:36.000Z</time>
      </trkpt>
      <trkpt lat="48.74438" lon="2.26928">
        <ele>79</ele>
        <time>2019-05-12T02:03:38.000Z</time>
      </trkpt>
      <trkpt lat="48.74431" lon="2.26922">
        <ele>79</ele>
        <time>2019-05-12T02:03:42.000Z</time>
      </trkpt>
      <trkpt lat="48.74426" lon="2.26918">
        <ele>79</ele>
        <time>2019-05-12T02:03:44.000Z</time>
      </trkpt>
      <trkpt lat="48.74422" lon="2.26914">
        <ele>78</ele>
        <time>2019-05-12T02:03:46.000Z</time>
      </trkpt>
      <trkpt lat="48.74417" lon="2.2691">
        <ele>78</ele>
        <time>2019-05-12T02:03:50.000Z</time>
      </trkpt>
      <trkpt lat="48.74412" lon="2.26906">
        <ele>77</ele>
        <time>2019-05-12T02:03:52.000Z</time>
      </trkpt>
      <trkpt lat="48.74412" lon="2.26906">
        <ele>77</ele>
        <time>2019-05-12T02:03:54.000Z</time>
      </trkpt>
      <trkpt lat="48.74412" lon="2.26906">
        <ele>77</ele>
        <time>2019-05-12T02:03:56.000Z</time>
      </trkpt>
      <trkpt lat="48.74412" lon="2.26906">
        <ele>77</ele>
        <time>2019-05-12T02:03:58.000Z</time>
      </trkpt>
      <trkpt lat="48.74412" lon="2.26906">
        <ele>77</ele>
        <time>2019-05-12T02:04:00.000Z</time>
      </trkpt>
      <trkpt lat="48.74412" lon="2.26906">
        <ele>77</ele>
        <time>2019-05-12T02:04:02.000Z</time>
      </trkpt>
      <trkpt lat="48.74405" lon="2.26905">
        <ele>77</ele>
        <time>2019-05-12T02:04:06.000Z</time>
      </trkpt>
      <trkpt lat="48.74401" lon="2.26908">
        <ele>77</ele>
        <time>2019-05-12T02:04:10.000Z</time>
      </trkpt>
      <trkpt lat="48.74401" lon="2.26908">
        <ele>77</ele>
        <time>2019-05-12T02:04:14.000Z</time>
      </trkpt>
      <trkpt lat="48.74401" lon="2.26908">
        <ele>77</ele>
        <time>2019-05-12T02:04:16.000Z</time>
      </trkpt>
      <trkpt lat="48.74401" lon="2.26908">
        <ele>77</ele>
        <time>2019-05-12T02:04:18.000Z</time>
      </trkpt>
      <trkpt lat="48.74401" lon="2.26908">
        <ele>77</ele>
        <time>2019-05-12T02:04:20.000Z</time>
      </trkpt>
      <trkpt lat="48.74396" lon="2.26918">
        <ele>77</ele>
        <time>2019-05-12T02:04:24.000Z</time>
      </trkpt>
      <trkpt lat="48.74392" lon="2.26924">
        <ele>77</ele>
        <time>2019-05-12T02:04:26.000Z</time>
      </trkpt>
      <trkpt lat="48.74392" lon="2.26924">
        <ele>77</ele>
        <time>2019-05-12T02:04:28.000Z</time>
      </trkpt>
      <trkpt lat="48.74389" lon="2.26932">
        <ele>77</ele>
        <time>2019-05-12T02:04:30.000Z</time>
      </trkpt>
      <trkpt lat="48.74389" lon="2.26932">
        <ele>77</ele>
        <time>2019-05-12T02:04:32.000Z</time>
      </trkpt>
      <trkpt lat="48.74389" lon="2.26932">
        <ele>77</ele>
        <time>2019-05-12T02:04:34.000Z</time>
      </trkpt>
      <trkpt lat="48.74389" lon="2.26932">
        <ele>77</ele>
        <time>2019-05-12T02:04:36.000Z</time>
      </trkpt>
      <trkpt lat="48.74384" lon="2.26941">
        <ele>77</ele>
        <time>2019-05-12T02:04:40.000Z</time>
      </trkpt>
      <trkpt lat="48.74381" lon="2.26947">
        <ele>77</ele>
        <time>2019-05-12T02:04:42.000Z</time>
      </trkpt>
      <trkpt lat="48.74378" lon="2.26954">
        <ele>77</ele>
        <time>2019-05-12T02:04:46.000Z</time>
      </trkpt>
      <trkpt lat="48.74375" lon="2.2696">
        <ele>77</ele>
        <time>2019-05-12T02:04:48.000Z</time>
      </trkpt>
      <trkpt lat="48.74372" lon="2.26967">
        <ele>77</ele>
        <time>2019-05-12T02:04:52.000Z</time>
      </trkpt>
      <trkpt lat="48.74372" lon="2.26967">
        <ele>77</ele>
        <time>2019-05-12T02:04:56.000Z</time>
      </trkpt>
      <trkpt lat="48.74368" lon="2.26976">
        <ele>77</ele>
        <time>2019-05-12T02:05:00.000Z</time>
      </trkpt>
      <trkpt lat="48.74365" lon="2.26983">
        <ele>77</ele>
        <time>2019-05-12T02:05:02.000Z</time>
      </trkpt>
      <trkpt lat="48.74365" lon="2.26983">
        <ele>77</ele>
        <time>2019-05-12T02:05:04.000Z</time>
      </trkpt>
      <trkpt lat="48.74362" lon="2.26988">
        <ele>77</ele>
        <time>2019-05-12T02:05:06.000Z</time>
      </trkpt>
      <trkpt lat="48.74362" lon="2.26988">
        <ele>77</ele>
        <time>2019-05-12T02:05:08.000Z</time>
      </trkpt>
      <trkpt lat="48.74362" lon="2.26988">
        <ele>77</ele>
        <time>2019-05-12T02:05:10.000Z</time>
      </trkpt>
      <trkpt lat="48.74362" lon="2.26988">
        <ele>77</ele>
        <time>2019-05-12T02:05:12.000Z</time>
      </trkpt>
      <trkpt lat="48.74362" lon="2.26988">
        <ele>77</ele>
        <time>2019-05-12T02:05:20.000Z</time>
      </trkpt>
      <trkpt lat="48.74362" lon="2.26988">
        <ele>77</ele>
        <time>2019-05-12T02:05:22.000Z</time>
      </trkpt>
      <trkpt lat="48.74355" lon="2.27004">
        <ele>76</ele>
        <time>2019-05-12T02:05:24.000Z</time>
      </trkpt>
      <trkpt lat="48.7435" lon="2.27013">
        <ele>76</ele>
        <time>2019-05-12T02:05:26.000Z</time>
      </trkpt>
      <trkpt lat="48.74346" lon="2.27018">
        <ele>76</ele>
        <time>2019-05-12T02:05:28.000Z</time>
      </trkpt>
      <trkpt lat="48.74342" lon="2.27024">
        <ele>76</ele>
        <time>2019-05-12T02:05:32.000Z</time>
      </trkpt>
      <trkpt lat="48.74338" lon="2.27028">
        <ele>76</ele>
        <time>2019-05-12T02:05:34.000Z</time>
      </trkpt>
      <trkpt lat="48.74334" lon="2.27033">
        <ele>76</ele>
        <time>2019-05-12T02:05:38.000Z</time>
      </trkpt>
      <trkpt lat="48.74334" lon="2.27033">
        <ele>76</ele>
        <time>2019-05-12T02:05:40.000Z</time>
      </trkpt>
      <trkpt lat="48.74334" lon="2.27033">
        <ele>76</ele>
        <time>2019-05-12T02:05:42.000Z</time>
      </trkpt>
      <trkpt lat="48.74334" lon="2.27033">
        <ele>76</ele>
        <time>2019-05-12T02:05:44.000Z</time>
      </trkpt>
      <trkpt lat="48.74334" lon="2.27033">
        <ele>76</ele>
        <time>2019-05-12T02:05:46.000Z</time>
      </trkpt>
      <trkpt lat="48.74323" lon="2.27041">
        <ele>74</ele>
        <time>2019-05-12T02:05:50.000Z</time>
      </trkpt>
      <trkpt lat="48.74316" lon="2.27043">
        <ele>74</ele>
        <time>2019-05-12T02:05:52.000Z</time>
      </trkpt>
      <trkpt lat="48.74312" lon="2.27042">
        <ele>74</ele>
        <time>2019-05-12T02:05:54.000Z</time>
      </trkpt>
      <trkpt lat="48.74307" lon="2.27038">
        <ele>74</ele>
        <time>2019-05-12T02:05:58.000Z</time>
      </trkpt>
      <trkpt lat="48.74307" lon="2.27038">
        <ele>74</ele>
        <time>2019-05-12T02:06:00.000Z</time>
      </trkpt>
      <trkpt lat="48.74307" lon="2.27038">
        <ele>74</ele>
        <time>2019-05-12T02:06:02.000Z</time>
      </trkpt>
      <trkpt lat="48.74307" lon="2.27038">
        <ele>74</ele>
        <time>2019-05-12T02:06:04.000Z</time>
      </trkpt>
      <trkpt lat="48.74307" lon="2.27038">
        <ele>74</ele>
        <time>2019-05-12T02:06:06.000Z</time>
      </trkpt>
      <trkpt lat="48.74299" lon="2.27024">
        <ele>74</ele>
        <time>2019-05-12T02:06:14.000Z</time>
      </trkpt>
      <trkpt lat="48.74299" lon="2.27024">
        <ele>74</ele>
        <time>2019-05-12T02:06:16.000Z</time>
      </trkpt>
      <trkpt lat="48.74299" lon="2.27024">
        <ele>74</ele>
        <time>2019-05-12T02:06:18.000Z</time>
      </trkpt>
      <trkpt lat="48.74299" lon="2.27024">
        <ele>74</ele>
        <time>2019-05-12T02:06:20.000Z</time>
      </trkpt>
      <trkpt lat="48.74292" lon="2.27008">
        <ele>74</ele>
        <time>2019-05-12T02:06:24.000Z</time>
      </trkpt>
      <trkpt lat="48.74288" lon="2.26997">
        <ele>75</ele>
        <time>2019-05-12T02:06:26.000Z</time>
      </trkpt>
      <trkpt lat="48.74285" lon="2.2699">
        <ele>75</ele>
        <time>2019-05-12T02:06:28.000Z</time>
      </trkpt>
      <trkpt lat="48.74285" lon="2.2699">
        <ele>75</ele>
        <time>2019-05-12T02:06:30.000Z</time>
      </trkpt>
      <trkpt lat="48.74285" lon="2.2699">
        <ele>75</ele>
        <time>2019-05-12T02:06:32.000Z</time>
      </trkpt>
      <trkpt lat="48.74285" lon="2.2699">
        <ele>75</ele>
        <time>2019-05-12T02:06:34.000Z</time>
      </trkpt>
      <trkpt lat="48.7428" lon="2.26979">
        <ele>75</ele>
        <time>2019-05-12T02:06:36.000Z</time>
      </trkpt>
      <trkpt lat="48.7428" lon="2.26979">
        <ele>75</ele>
        <time>2019-05-12T02:06:38.000Z</time>
      </trkpt>
      <trkpt lat="48.74276" lon="2.26971">
        <ele>75</ele>
        <time>2019-05-12T02:06:40.000Z</time>
      </trkpt>
      <trkpt lat="48.74274" lon="2.26965">
        <ele>75</ele>
        <time>2019-05-12T02:06:42.000Z</time>
      </trkpt>
      <trkpt lat="48.74272" lon="2.26958">
        <ele>75</ele>
        <time>2019-05-12T02:06:44.000Z</time>
      </trkpt>
      <trkpt lat="48.74272" lon="2.26958">
        <ele>75</ele>
        <time>2019-05-12T02:06:46.000Z</time>
      </trkpt>
      <trkpt lat="48.74272" lon="2.26958">
        <ele>75</ele>
        <time>2019-05-12T02:06:48.000Z</time>
      </trkpt>
      <trkpt lat="48.74265" lon="2.26946">
        <ele>74</ele>
        <time>2019-05-12T02:06:58.000Z</time>
      </trkpt>
      <trkpt lat="48.74261" lon="2.26938">
        <ele>74</ele>
        <time>2019-05-12T02:07:00.000Z</time>
      </trkpt>
      <trkpt lat="48.74258" lon="2.26932">
        <ele>74</ele>
        <time>2019-05-12T02:07:02.000Z</time>
      </trkpt>
      <trkpt lat="48.74254" lon="2.26924">
        <ele>74</ele>
        <time>2019-05-12T02:07:06.000Z</time>
      </trkpt>
      <trkpt lat="48.74251" lon="2.26917">
        <ele>73</ele>
        <time>2019-05-12T02:07:08.000Z</time>
      </trkpt>
      <trkpt lat="48.74251" lon="2.26917">
        <ele>73</ele>
        <time>2019-05-12T02:07:10.000Z</time>
      </trkpt>
      <trkpt lat="48.74251" lon="2.26917">
        <ele>73</ele>
        <time>2019-05-12T02:07:12.000Z</time>
      </trkpt>
      <trkpt lat="48.74251" lon="2.26917">
        <ele>73</ele>
        <time>2019-05-12T02:07:14.000Z</time>
      </trkpt>
      <trkpt lat="48.74251" lon="2.26917">
        <ele>73</ele>
        <time>2019-05-12T02:07:16.000Z</time>
      </trkpt>
      <trkpt lat="48.74251" lon="2.26917">
        <ele>73</ele>
        <time>2019-05-12T02:07:18.000Z</time>
      </trkpt>
      <trkpt lat="48.74245" lon="2.26902">
        <ele>72</ele>
        <time>2019-05-12T02:07:22.000Z</time>
      </trkpt>
      <trkpt lat="48.74241" lon="2.26892">
        <ele>72</ele>
        <time>2019-05-12T02:07:24.000Z</time>
      </trkpt>
      <trkpt lat="48.74238" lon="2.26885">
        <ele>72</ele>
        <time>2019-05-12T02:07:26.000Z</time>
      </trkpt>
      <trkpt lat="48.74235" lon="2.26879">
        <ele>72</ele>
        <time>2019-05-12T02:07:28.000Z</time>
      </trkpt>
      <trkpt lat="48.74235" lon="2.26879">
        <ele>72</ele>
        <time>2019-05-12T02:07:30.000Z</time>
      </trkpt>
      <trkpt lat="48.74235" lon="2.26879">
        <ele>72</ele>
        <time>2019-05-12T02:07:32.000Z</time>
      </trkpt>
      <trkpt lat="48.74235" lon="2.26879">
        <ele>72</ele>
        <time>2019-05-12T02:07:34.000Z</time>
      </trkpt>
      <trkpt lat="48.74224" lon="2.2687">
        <ele>71</ele>
        <time>2019-05-12T02:07:38.000Z</time>
      </trkpt>
      <trkpt lat="48.74216" lon="2.26866">
        <ele>71</ele>
        <time>2019-05-12T02:07:40.000Z</time>
      </trkpt>
      <trkpt lat="48.7421" lon="2.26864">
        <ele>71</ele>
        <time>2019-05-12T02:07:42.000Z</time>
      </trkpt>
      <trkpt lat="48.74206" lon="2.26863">
        <ele>71</ele>
        <time>2019-05-12T02:07:44.000Z</time>
      </trkpt>
      <trkpt lat="48.74206" lon="2.26863">
        <ele>71</ele>
        <time>2019-05-12T02:07:46.000Z</time>
      </trkpt>
      <trkpt lat="48.74206" lon="2.26863">
        <ele>71</ele>
        <time>2019-05-12T02:07:48.000Z</time>
      </trkpt>
      <trkpt lat="48.74206" lon="2.26863">
        <ele>71</ele>
        <time>2019-05-12T02:07:50.000Z</time>
      </trkpt>
      <trkpt lat="48.74206" lon="2.26863">
        <ele>71</ele>
        <time>2019-05-12T02:07:52.000Z</time>
      </trkpt>
      <trkpt lat="48.74206" lon="2.26863">
        <ele>71</ele>
        <time>2019-05-12T02:07:54.000Z</time>
      </trkpt>
      <trkpt lat="48.74206" lon="2.26863">
        <ele>71</ele>
        <time>2019-05-12T02:07:56.000Z</time>
      </trkpt>
      <trkpt lat="48.74206" lon="2.26863">
        <ele>71</ele>
        <time>2019-05-12T02:07:58.000Z</time>
      </trkpt>
      <trkpt lat="48.74206" lon="2.26863">
        <ele>71</ele>
        <time>2019-05-12T02:08:00.000Z</time>
      </trkpt>
      <trkpt lat="48.74206" lon="2.26863">
        <ele>71</ele>
        <time>2019-05-12T02:08:02.000Z</time>
      </trkpt>
      <trkpt lat="48.74194" lon="2.26869">
        <ele>71</ele>
        <time>2019-05-12T02:08:06.000Z</time>
      </trkpt>
      <trkpt lat="48.74187" lon="2.26873">
        <ele>71</ele>
        <time>2019-05-12T02:08:08.000Z</time>
      </trkpt>
      <trkpt lat="48.74182" lon="2.26876">
        <ele>71</ele>
        <time>2019-05-12T02:08:10.000Z</time>
      </trkpt>
      <trkpt lat="48.74178" lon="2.26879">
        <ele>71</ele>
        <time>2019-05-12T02:08:12.000Z</time>
      </trkpt>
      <trkpt lat="48.74178" lon="2.26879">
        <ele>71</ele>
        <time>2019-05-12T02:08:14.000Z</time>
      </trkpt>
      <trkpt lat="48.74173" lon="2.26882">
        <ele>71</ele>
        <time>2019-05-12T02:08:16.000Z</time>
      </trkpt>
      <trkpt lat="48.74173" lon="2.26882">
        <ele>71</ele>
        <time>2019-05-12T02:08:18.000Z</time>
      </trkpt>
      <trkpt lat="48.74168" lon="2.26884">
        <ele>71</ele>
        <time>2019-05-12T02:08:20.000Z</time>
      </trkpt>
      <trkpt lat="48.74163" lon="2.26885">
        <ele>70</ele>
        <time>2019-05-12T02:08:22.000Z</time>
      </trkpt>
      <trkpt lat="48.74158" lon="2.26882">
        <ele>69</ele>
        <time>2019-05-12T02:08:26.000Z</time>
      </trkpt>
      <trkpt lat="48.74154" lon="2.26877">
        <ele>69</ele>
        <time>2019-05-12T02:08:30.000Z</time>
      </trkpt>
      <trkpt lat="48.74154" lon="2.26877">
        <ele>69</ele>
        <time>2019-05-12T02:08:32.000Z</time>
      </trkpt>
      <trkpt lat="48.74154" lon="2.26877">
        <ele>69</ele>
        <time>2019-05-12T02:08:34.000Z</time>
      </trkpt>
      <trkpt lat="48.74154" lon="2.26877">
        <ele>69</ele>
        <time>2019-05-12T02:08:38.000Z</time>
      </trkpt>
      <trkpt lat="48.74144" lon="2.26867">
        <ele>69</ele>
        <time>2019-05-12T02:08:42.000Z</time>
      </trkpt>
      <trkpt lat="48.74138" lon="2.2686">
        <ele>69</ele>
        <time>2019-05-12T02:08:44.000Z</time>
      </trkpt>
      <trkpt lat="48.74134" lon="2.26855">
        <ele>69</ele>
        <time>2019-05-12T02:08:46.000Z</time>
      </trkpt>
      <trkpt lat="48.74129" lon="2.2685">
        <ele>69</ele>
        <time>2019-05-12T02:08:50.000Z</time>
      </trkpt>
      <trkpt lat="48.74129" lon="2.2685">
        <ele>69</ele>
        <time>2019-05-12T02:08:52.000Z</time>
      </trkpt>
      <trkpt lat="48.74129" lon="2.2685">
        <ele>69</ele>
        <time>2019-05-12T02:08:54.000Z</time>
      </trkpt>
      <trkpt lat="48.74129" lon="2.2685">
        <ele>69</ele>
        <time>2019-05-12T02:08:56.000Z</time>
      </trkpt>
      <trkpt lat="48.74129" lon="2.2685">
        <ele>69</ele>
        <time>2019-05-12T02:08:58.000Z</time>
      </trkpt>
      <trkpt lat="48.7412" lon="2.26842">
        <ele>69</ele>
        <time>2019-05-12T02:09:02.000Z</time>
      </trkpt>
      <trkpt lat="48.74113" lon="2.26838">
        <ele>68</ele>
        <time>2019-05-12T02:09:04.000Z</time>
      </trkpt>
      <trkpt lat="48.74109" lon="2.26835">
        <ele>68</ele>
        <time>2019-05-12T02:09:06.000Z</time>
      </trkpt>
      <trkpt lat="48.74102" lon="2.26832">
        <ele>68</ele>
        <time>2019-05-12T02:09:10.000Z</time>
      </trkpt>
      <trkpt lat="48.74097" lon="2.2683">
        <ele>68</ele>
        <time>2019-05-12T02:09:12.000Z</time>
      </trkpt>
      <trkpt lat="48.74097" lon="2.2683">
        <ele>68</ele>
        <time>2019-05-12T02:09:14.000Z</time>
      </trkpt>
      <trkpt lat="48.74097" lon="2.2683">
        <ele>68</ele>
        <time>2019-05-12T02:09:16.000Z</time>
      </trkpt>
      <trkpt lat="48.74097" lon="2.2683">
        <ele>68</ele>
        <time>2019-05-12T02:09:18.000Z</time>
      </trkpt>
      <trkpt lat="48.74097" lon="2.2683">
        <ele>68</ele>
        <time>2019-05-12T02:09:20.000Z</time>
      </trkpt>
      <trkpt lat="48.74097" lon="2.2683">
        <ele>68</ele>
        <time>2019-05-12T02:09:22.000Z</time>
      </trkpt>
      <trkpt lat="48.74087" lon="2.26828">
        <ele>67</ele>
        <time>2019-05-12T02:09:26.000Z</time>
      </trkpt>
      <trkpt lat="48.7408" lon="2.26827">
        <ele>67</ele>
        <time>2019-05-12T02:09:28.000Z</time>
      </trkpt>
      <trkpt lat="48.74075" lon="2.26826">
        <ele>66</ele>
        <time>2019-05-12T02:09:30.000Z</time>
      </trkpt>
      <trkpt lat="48.74075" lon="2.26826">
        <ele>66</ele>
        <time>2019-05-12T02:09:32.000Z</time>
      </trkpt>
      <trkpt lat="48.74069" lon="2.26825">
        <ele>66</ele>
        <time>2019-05-12T02:09:34.000Z</time>
      </trkpt>
      <trkpt lat="48.74069" lon="2.26825">
        <ele>66</ele>
        <time>2019-05-12T02:09:38.000Z</time>
      </trkpt>
      <trkpt lat="48.74069" lon="2.26825">
        <ele>66</ele>
        <time>2019-05-12T02:09:40.000Z</time>
      </trkpt>
      <trkpt lat="48.74069" lon="2.26825">
        <ele>66</ele>
        <time>2019-05-12T02:09:42.000Z</time>
      </trkpt>
      <trkpt lat="48.74057" lon="2.26824">
        <ele>66</ele>
        <time>2019-05-12T02:09:46.000Z</time>
      </trkpt>
      <trkpt lat="48.7405" lon="2.26824">
        <ele>65</ele>
        <time>2019-05-12T02:09:48.000Z</time>
      </trkpt>
      <trkpt lat="48.74044" lon="2.26824">
        <ele>65</ele>
        <time>2019-05-12T02:09:50.000Z</time>
      </trkpt>
      <trkpt lat="48.74039" lon="2.26825">
        <ele>65</ele>
        <time>2019-05-12T02:09:52.000Z</time>
      </trkpt>
      <trkpt lat="48.74034" lon="2.26827">
        <ele>65</ele>
        <time>2019-05-12T02:09:56.000Z</time>
      </trkpt>
      <trkpt lat="48.74034" lon="2.26827">
        <ele>65</ele>
        <time>2019-05-12T02:09:58.000Z</time>
      </trkpt>
      <trkpt lat="48.74034" lon="2.26827">
        <ele>65</ele>
        <time>2019-05-12T02:10:00.000Z</time>
      </trkpt>
      <trkpt lat="48.74034" lon="2.26827">
        <ele>65</ele>
        <time>2019-05-12T02:10:02.000Z</time>
      </trkpt>
      <trkpt lat="48.74034" lon="2.26827">
        <ele>65</ele>
        <time>2019-05-12T02:10:04.000Z</time>
      </trkpt>
      <trkpt lat="48.74027" lon="2.26833">
        <ele>65</ele>
        <time>2019-05-12T02:10:08.000Z</time>
      </trkpt>
      <trkpt lat="48.74022" lon="2.26838">
        <ele>64</ele>
        <time>2019-05-12T02:10:10.000Z</time>
      </trkpt>
      <trkpt lat="48.74018" lon="2.26843">
        <ele>64</ele>
        <time>2019-05-12T02:10:12.000Z</time>
      </trkpt>
      <trkpt lat="48.74015" lon="2.26847">
        <ele>64</ele>
        <time>2019-05-12T02:10:14.000Z</time>
      </trkpt>
      <trkpt lat="48.74015" lon="2.26847">
        <ele>64</ele>
        <time>2019-05-12T02:10:16.000Z</time>
      </trkpt>
      <trkpt lat="48.74012" lon="2.26853">
        <ele>64</ele>
        <time>2019-05-12T02:10:18.000Z</time>
      </trkpt>
      <trkpt lat="48.74009" lon="2.26858">
        <ele>64</ele>
        <time>2019-05-12T02:10:20.000Z</time>
      </trkpt>
      <trkpt lat="48.74004" lon="2.26864">
        <ele>64</ele>
        <time>2019-05-12T02:10:24.000Z</time>
      </trkpt>
      <trkpt lat="48.74" lon="2.26869">
        <ele>64</ele>
        <time>2019-05-12T02:10:26.000Z</time>
      </trkpt>
      <trkpt lat="48.73997" lon="2.26874">
        <ele>62</ele>
        <time>2019-05-12T02:10:28.000Z</time>
      </trkpt>
      <trkpt lat="48.73997" lon="2.26874">
        <ele>62</ele>
        <time>2019-05-12T02:10:30.000Z</time>
      </trkpt>
      <trkpt lat="48.73997" lon="2.26874">
        <ele>62</ele>
        <time>2019-05-12T02:10:32.000Z</time>
      </trkpt>
      <trkpt lat="48.73997" lon="2.26874">
        <ele>62</ele>
        <time>2019-05-12T02:10:34.000Z</time>
      </trkpt>
      <trkpt lat="48.73997" lon="2.26874">
        <ele>62</ele>
        <time>2019-05-12T02:10:36.000Z</time>
      </trkpt>
      <trkpt lat="48.73997" lon="2.26874">
        <ele>62</ele>
        <time>2019-05-12T02:10:38.000Z</time>
      </trkpt>
      <trkpt lat="48.73991" lon="2.26887">
        <ele>62</ele>
        <time>2019-05-12T02:10:46.000Z</time>
      </trkpt>
      <trkpt lat="48.73987" lon="2.26897">
        <ele>62</ele>
        <time>2019-05-12T02:10:48.000Z</time>
      </trkpt>
      <trkpt lat="48.73985" lon="2.26906">
        <ele>62</ele>
        <time>2019-05-12T02:10:50.000Z</time>
      </trkpt>
      <trkpt lat="48.73983" lon="2.26914">
        <ele>62</ele>
        <time>2019-05-12T02:10:52.000Z</time>
      </trkpt>
      <trkpt lat="48.73985" lon="2.26923">
        <ele>61</ele>
        <time>2019-05-12T02:10:56.000Z</time>
      </trkpt>
      <trkpt lat="48.73988" lon="2.26929">
        <ele>61</ele>
        <time>2019-05-12T02:10:58.000Z</time>
      </trkpt>
      <trkpt lat="48.73988" lon="2.26929">
        <ele>61</ele>
        <time>2019-05-12T02:11:02.000Z</time>
      </trkpt>
      <trkpt lat="48.73988" lon="2.26929">
        <ele>61</ele>
        <time>2019-05-12T02:11:04.000Z</time>
      </trkpt>
      <trkpt lat="48.73988" lon="2.26929">
        <ele>61</ele>
        <time>2019-05-12T02:11:06.000Z</time>
      </trkpt>
      <trkpt lat="48.73988" lon="2.26929">
        <ele>61</ele>
        <time>2019-05-12T02:11:08.000Z</time>
      </trkpt>
      <trkpt lat="48.73988" lon="2.26929">
        <ele>61</ele>
        <time>2019-05-12T02:11:10.000Z</time>
      </trkpt>
      <trkpt lat="48.73988" lon="2.26929">
        <ele>61</ele>
        <time>2019-05-12T02:11:12.000Z</time>
      </trkpt>
      <trkpt lat="48.73988" lon="2.26929">
        <ele>61</ele>
        <time>2019-05-12T02:11:14.000Z</time>
      </trkpt>
      <trkpt lat="48.73988" lon="2.26929">
        <ele>61</ele>
        <time>2019-05-12T02:11:16.000Z</time>
      </trkpt>
      <trkpt lat="48.73993" lon="2.26944">
        <ele>61</ele>
        <time>2019-05-12T02:11:28.000Z</time>
      </trkpt>
      <trkpt lat="48.73994" lon="2.26953">
        <ele>61</ele>
        <time>2019-05-12T02:11:30.000Z</time>
      </trkpt>
      <trkpt lat="48.73992" lon="2.26961">
        <ele>61</ele>
        <time>2019-05-12T02:11:34.000Z</time>
      </trkpt>
      <trkpt lat="48.73992" lon="2.26961">
        <ele>61</ele>
        <time>2019-05-12T02:11:36.000Z</time>
      </trkpt>
      <trkpt lat="48.73989" lon="2.26969">
        <ele>61</ele>
        <time>2019-05-12T02:11:38.000Z</time>
      </trkpt>
      <trkpt lat="48.73989" lon="2.26969">
        <ele>61</ele>
        <time>2019-05-12T02:11:40.000Z</time>
      </trkpt>
      <trkpt lat="48.73989" lon="2.26969">
        <ele>61</ele>
        <time>2019-05-12T02:11:42.000Z</time>
      </trkpt>
      <trkpt lat="48.73989" lon="2.26969">
        <ele>61</ele>
        <time>2019-05-12T02:11:44.000Z</time>
      </trkpt>
      <trkpt lat="48.7398" lon="2.26977">
        <ele>61</ele>
        <time>2019-05-12T02:11:48.000Z</time>
      </trkpt>
      <trkpt lat="48.73975" lon="2.26982">
        <ele>61</ele>
        <time>2019-05-12T02:11:50.000Z</time>
      </trkpt>
      <trkpt lat="48.73975" lon="2.26982">
        <ele>61</ele>
        <time>2019-05-12T02:11:52.000Z</time>
      </trkpt>
      <trkpt lat="48.73971" lon="2.26986">
        <ele>61</ele>
        <time>2019-05-12T02:11:54.000Z</time>
      </trkpt>
      <trkpt lat="48.7397" lon="2.26994">
        <ele>61</ele>
        <time>2019-05-12T02:12:00.000Z</time>
      </trkpt>
      <trkpt lat="48.7397" lon="2.27001">
        <ele>60</ele>
        <time>2019-05-12T02:12:04.000Z</time>
      </trkpt>
      <trkpt lat="48.7397" lon="2.27001">
        <ele>60</ele>
        <time>2019-05-12T02:12:06.000Z</time>
      </trkpt>
      <trkpt lat="48.7397" lon="2.27001">
        <ele>60</ele>
        <time>2019-05-12T02:12:08.000Z</time>
      </trkpt>
      <trkpt lat="48.73972" lon="2.27011">
        <ele>60</ele>
        <time>2019-05-12T02:12:10.000Z</time>
      </trkpt>
      <trkpt lat="48.73972" lon="2.27011">
        <ele>60</ele>
        <time>2019-05-12T02:12:12.000Z</time>
      </trkpt>
      <trkpt lat="48.73972" lon="2.27011">
        <ele>60</ele>
        <time>2019-05-12T02:12:14.000Z</time>
      </trkpt>
      <trkpt lat="48.73972" lon="2.27011">
        <ele>60</ele>
        <time>2019-05-12T02:12:16.000Z</time>
      </trkpt>
      <trkpt lat="48.73972" lon="2.27011">
        <ele>60</ele>
        <time>2019-05-12T02:12:22.000Z</time>
      </trkpt>
      <trkpt lat="48.73972" lon="2.27011">
        <ele>60</ele>
        <time>2019-05-12T02:12:24.000Z</time>
      </trkpt>
      <trkpt lat="48.73978" lon="2.27031">
        <ele>59</ele>
        <time>2019-05-12T02:12:28.000Z</time>
      </trkpt>
      <trkpt lat="48.73981" lon="2.27042">
        <ele>59</ele>
        <time>2019-05-12T02:12:30.000Z</time>
      </trkpt>
      <trkpt lat="48.73981" lon="2.27042">
        <ele>59</ele>
        <time>2019-05-12T02:12:32.000Z</time>
      </trkpt>
      <trkpt lat="48.73981" lon="2.27042">
        <ele>59</ele>
        <time>2019-05-12T02:12:34.000Z</time>
      </trkpt>
      <trkpt lat="48.73981" lon="2.27042">
        <ele>59</ele>
        <time>2019-05-12T02:12:42.000Z</time>
      </trkpt>
      <trkpt lat="48.73981" lon="2.27042">
        <ele>59</ele>
        <time>2019-05-12T02:12:44.000Z</time>
      </trkpt>
      <trkpt lat="48.73989" lon="2.27061">
        <ele>59</ele>
        <time>2019-05-12T02:12:50.000Z</time>
      </trkpt>
      <trkpt lat="48.73994" lon="2.27072">
        <ele>60</ele>
        <time>2019-05-12T02:12:52.000Z</time>
      </trkpt>
      <trkpt lat="48.73998" lon="2.27079">
        <ele>60</ele>
        <time>2019-05-12T02:12:54.000Z</time>
      </trkpt>
      <trkpt lat="48.73998" lon="2.27079">
        <ele>60</ele>
        <time>2019-05-12T02:12:56.000Z</time>
      </trkpt>
      <trkpt lat="48.73998" lon="2.27079">
        <ele>60</ele>
        <time>2019-05-12T02:12:58.000Z</time>
      </trkpt>
      <trkpt lat="48.74002" lon="2.27089">
        <ele>60</ele>
        <time>2019-05-12T02:13:02.000Z</time>
      </trkpt>
      <trkpt lat="48.74005" lon="2.27095">
        <ele>61</ele>
        <time>2019-05-12T02:13:04.000Z</time>
      </trkpt>
      <trkpt lat="48.74007" lon="2.27103">
        <ele>61</ele>
        <time>2019-05-12T02:13:08.000Z</time>
      </trkpt>
      <trkpt lat="48.7401" lon="2.27111">
        <ele>61</ele>
        <time>2019-05-12T02:13:12.000Z</time>
      </trkpt>
      <trkpt lat="48.74012" lon="2.27117">
        <ele>61</ele>
        <time>2019-05-12T02:13:14.000Z</time>
      </trkpt>
      <trkpt lat="48.74015" lon="2.27123">
        <ele>61</ele>
        <time>2019-05-12T02:13:18.000Z</time>
      </trkpt>
      <trkpt lat="48.74015" lon="2.27123">
        <ele>61</ele>
        <time>2019-05-12T02:13:20.000Z</time>
      </trkpt>
      <trkpt lat="48.74018" lon="2.27134">
        <ele>61</ele>
        <time>2019-05-12T02:13:26.000Z</time>
      </trkpt>
      <trkpt lat="48.74019" lon="2.27142">
        <ele>61</ele>
        <time>2019-05-12T02:13:28.000Z</time>
      </trkpt>
      <trkpt lat="48.74019" lon="2.27142">
        <ele>61</ele>
        <time>2019-05-12T02:13:30.000Z</time>
      </trkpt>
      <trkpt lat="48.74019" lon="2.27142">
        <ele>61</ele>
        <time>2019-05-12T02:13:32.000Z</time>
      </trkpt>
      <trkpt lat="48.74019" lon="2.27142">
        <ele>61</ele>
        <time>2019-05-12T02:13:34.000Z</time>
      </trkpt>
      <trkpt lat="48.74019" lon="2.27142">
        <ele>61</ele>
        <time>2019-05-12T02:13:36.000Z</time>
      </trkpt>
      <trkpt lat="48.74019" lon="2.27142">
        <ele>61</ele>
        <time>2019-05-12T02:13:40.000Z</time>
      </trkpt>
      <trkpt lat="48.7402" lon="2.27161">
        <ele>61</ele>
        <time>2019-05-12T02:13:44.000Z</time>
      </trkpt>
      <trkpt lat="48.74021" lon="2.27173">
        <ele>60</ele>
        <time>2019-05-12T02:13:46.000Z</time>
      </trkpt>
      <trkpt lat="48.74022" lon="2.2718">
        <ele>61</ele>
        <time>2019-05-12T02:13:48.000Z</time>
      </trkpt>
      <trkpt lat="48.74022" lon="2.2718">
        <ele>61</ele>
        <time>2019-05-12T02:13:50.000Z</time>
      </trkpt>
      <trkpt lat="48.74022" lon="2.2718">
        <ele>61</ele>
        <time>2019-05-12T02:13:52.000Z</time>
      </trkpt>
      <trkpt lat="48.74022" lon="2.2718">
        <ele>61</ele>
        <time>2019-05-12T02:13:54.000Z</time>
      </trkpt>
      <trkpt lat="48.74025" lon="2.272">
        <ele>61</ele>
        <time>2019-05-12T02:14:00.000Z</time>
      </trkpt>
      <trkpt lat="48.74025" lon="2.272">
        <ele>61</ele>
        <time>2019-05-12T02:14:02.000Z</time>
      </trkpt>
      <trkpt lat="48.74025" lon="2.272">
        <ele>61</ele>
        <time>2019-05-12T02:14:04.000Z</time>
      </trkpt>
      <trkpt lat="48.74026" lon="2.27219">
        <ele>61</ele>
        <time>2019-05-12T02:14:08.000Z</time>
      </trkpt>
      <trkpt lat="48.74028" lon="2.27231">
        <ele>61</ele>
        <time>2019-05-12T02:14:10.000Z</time>
      </trkpt>
      <trkpt lat="48.74028" lon="2.27239">
        <ele>61</ele>
        <time>2019-05-12T02:14:12.000Z</time>
      </trkpt>
      <trkpt lat="48.74028" lon="2.27248">
        <ele>61</ele>
        <time>2019-05-12T02:14:16.000Z</time>
      </trkpt>
      <trkpt lat="48.74029" lon="2.27255">
        <ele>61</ele>
        <time>2019-05-12T02:14:18.000Z</time>
      </trkpt>
      <trkpt lat="48.7403" lon="2.27263">
        <ele>61</ele>
        <time>2019-05-12T02:14:22.000Z</time>
      </trkpt>
      <trkpt lat="48.7403" lon="2.27263">
        <ele>61</ele>
        <time>2019-05-12T02:14:24.000Z</time>
      </trkpt>
      <trkpt lat="48.7403" lon="2.27263">
        <ele>61</ele>
        <time>2019-05-12T02:14:26.000Z</time>
      </trkpt>
      <trkpt lat="48.74032" lon="2.27273">
        <ele>61</ele>
        <time>2019-05-12T02:14:32.000Z</time>
      </trkpt>
      <trkpt lat="48.74034" lon="2.2728">
        <ele>61</ele>
        <time>2019-05-12T02:14:34.000Z</time>
      </trkpt>
      <trkpt lat="48.74037" lon="2.27288">
        <ele>61</ele>
        <time>2019-05-12T02:14:38.000Z</time>
      </trkpt>
      <trkpt lat="48.74037" lon="2.27288">
        <ele>61</ele>
        <time>2019-05-12T02:14:40.000Z</time>
      </trkpt>
      <trkpt lat="48.74042" lon="2.27297">
        <ele>61</ele>
        <time>2019-05-12T02:14:44.000Z</time>
      </trkpt>
      <trkpt lat="48.74046" lon="2.27305">
        <ele>61</ele>
        <time>2019-05-12T02:14:46.000Z</time>
      </trkpt>
      <trkpt lat="48.74049" lon="2.27311">
        <ele>61</ele>
        <time>2019-05-12T02:14:48.000Z</time>
      </trkpt>
      <trkpt lat="48.74049" lon="2.27311">
        <ele>61</ele>
        <time>2019-05-12T02:14:50.000Z</time>
      </trkpt>
      <trkpt lat="48.74049" lon="2.27311">
        <ele>61</ele>
        <time>2019-05-12T02:14:52.000Z</time>
      </trkpt>
      <trkpt lat="48.74049" lon="2.27311">
        <ele>61</ele>
        <time>2019-05-12T02:14:54.000Z</time>
      </trkpt>
      <trkpt lat="48.74049" lon="2.27311">
        <ele>61</ele>
        <time>2019-05-12T02:14:56.000Z</time>
      </trkpt>
      <trkpt lat="48.74057" lon="2.27325">
        <ele>62</ele>
        <time>2019-05-12T02:15:00.000Z</time>
      </trkpt>
      <trkpt lat="48.74062" lon="2.27334">
        <ele>62</ele>
        <time>2019-05-12T02:15:02.000Z</time>
      </trkpt>
      <trkpt lat="48.74065" lon="2.27341">
        <ele>62</ele>
        <time>2019-05-12T02:15:04.000Z</time>
      </trkpt>
      <trkpt lat="48.74068" lon="2.27349">
        <ele>62</ele>
        <time>2019-05-12T02:15:08.000Z</time>
      </trkpt>
      <trkpt lat="48.74071" lon="2.27355">
        <ele>62</ele>
        <time>2019-05-12T02:15:10.000Z</time>
      </trkpt>
      <trkpt lat="48.74073" lon="2.27362">
        <ele>62</ele>
        <time>2019-05-12T02:15:14.000Z</time>
      </trkpt>
      <trkpt lat="48.74073" lon="2.27362">
        <ele>62</ele>
        <time>2019-05-12T02:15:16.000Z</time>
      </trkpt>
      <trkpt lat="48.74073" lon="2.27362">
        <ele>62</ele>
        <time>2019-05-12T02:15:18.000Z</time>
      </trkpt>
      <trkpt lat="48.74073" lon="2.27362">
        <ele>62</ele>
        <time>2019-05-12T02:15:20.000Z</time>
      </trkpt>
      <trkpt lat="48.74073" lon="2.27362">
        <ele>62</ele>
        <time>2019-05-12T02:15:22.000Z</time>
      </trkpt>
      <trkpt lat="48.74077" lon="2.27378">
        <ele>62</ele>
        <time>2019-05-12T02:15:28.000Z</time>
      </trkpt>
      <trkpt lat="48.7408" lon="2.27388">
        <ele>62</ele>
        <time>2019-05-12T02:15:30.000Z</time>
      </trkpt>
      <trkpt lat="48.74082" lon="2.27395">
        <ele>61</ele>
        <time>2019-05-12T02:15:32.000Z</time>
      </trkpt>
      <trkpt lat="48.74082" lon="2.27395">
        <ele>61</ele>
        <time>2019-05-12T02:15:34.000Z</time>
      </trkpt>
      <trkpt lat="48.74084" lon="2.27403">
        <ele>61</ele>
        <time>2019-05-12T02:15:36.000Z</time>
      </trkpt>
      <trkpt lat="48.74086" lon="2.27411">
        <ele>61</ele>
        <time>2019-05-12T02:15:40.000Z</time>
      </trkpt>
      <trkpt lat="48.74088" lon="2.27417">
        <ele>61</ele>
        <time>2019-05-12T02:15:42.000Z</time>
      </trkpt>
      <trkpt lat="48.7409" lon="2.27424">
        <ele>61</ele>
        <time>2019-05-12T02:15:46.000Z</time>
      </trkpt>
      <trkpt lat="48.7409" lon="2.27424">
        <ele>61</ele>
        <time>2019-05-12T02:15:48.000Z</time>
      </trkpt>
      <trkpt lat="48.7409" lon="2.27424">
        <ele>61</ele>
        <time>2019-05-12T02:15:50.000Z</time>
      </trkpt>
      <trkpt lat="48.74091" lon="2.27435">
        <ele>61</ele>
        <time>2019-05-12T02:15:54.000Z</time>
      </trkpt>
      <trkpt lat="48.74089" lon="2.27443">
        <ele>61</ele>
        <time>2019-05-12T02:15:58.000Z</time>
      </trkpt>
      <trkpt lat="48.74089" lon="2.27443">
        <ele>61</ele>
        <time>2019-05-12T02:16:00.000Z</time>
      </trkpt>
      <trkpt lat="48.74089" lon="2.27443">
        <ele>61</ele>
        <time>2019-05-12T02:16:02.000Z</time>
      </trkpt>
      <trkpt lat="48.74089" lon="2.27443">
        <ele>61</ele>
        <time>2019-05-12T02:16:04.000Z</time>
      </trkpt>
      <trkpt lat="48.7408" lon="2.2745">
        <ele>62</ele>
        <time>2019-05-12T02:16:08.000Z</time>
      </trkpt>
      <trkpt lat="48.74074" lon="2.27454">
        <ele>62</ele>
        <time>2019-05-12T02:16:10.000Z</time>
      </trkpt>
      <trkpt lat="48.74069" lon="2.27457">
        <ele>62</ele>
        <time>2019-05-12T02:16:12.000Z</time>
      </trkpt>
      <trkpt lat="48.74064" lon="2.27458">
        <ele>62</ele>
        <time>2019-05-12T02:16:14.000Z</time>
      </trkpt>
      <trkpt lat="48.74064" lon="2.27458">
        <ele>62</ele>
        <time>2019-05-12T02:16:16.000Z</time>
      </trkpt>
      <trkpt lat="48.74064" lon="2.27458">
        <ele>62</ele>
        <time>2019-05-12T02:16:18.000Z</time>
      </trkpt>
      <trkpt lat="48.74064" lon="2.27458">
        <ele>62</ele>
        <time>2019-05-12T02:16:20.000Z</time>
      </trkpt>
      <trkpt lat="48.74064" lon="2.27458">
        <ele>62</ele>
        <time>2019-05-12T02:16:22.000Z</time>
      </trkpt>
      <trkpt lat="48.74054" lon="2.27462">
        <ele>62</ele>
        <time>2019-05-12T02:16:26.000Z</time>
      </trkpt>
      <trkpt lat="48.74047" lon="2.27467">
        <ele>62</ele>
        <time>2019-05-12T02:16:28.000Z</time>
      </trkpt>
      <trkpt lat="48.74042" lon="2.27472">
        <ele>62</ele>
        <time>2019-05-12T02:16:30.000Z</time>
      </trkpt>
      <trkpt lat="48.74042" lon="2.27472">
        <ele>62</ele>
        <time>2019-05-12T02:16:32.000Z</time>
      </trkpt>
      <trkpt lat="48.74042" lon="2.27472">
        <ele>62</ele>
        <time>2019-05-12T02:16:34.000Z</time>
      </trkpt>
      <trkpt lat="48.74042" lon="2.27472">
        <ele>62</ele>
        <time>2019-05-12T02:16:36.000Z</time>
      </trkpt>
      <trkpt lat="48.74042" lon="2.27472">
        <ele>62</ele>
        <time>2019-05-12T02:16:38.000Z</time>
      </trkpt>
      <trkpt lat="48.74033" lon="2.27485">
        <ele>62</ele>
        <time>2019-05-12T02:16:44.000Z</time>
      </trkpt>
      <trkpt lat="48.74027" lon="2.27494">
        <ele>63</ele>
        <time>2019-05-12T02:16:46.000Z</time>
      </trkpt>
      <trkpt lat="48.74023" lon="2.27501">
        <ele>63</ele>
        <time>2019-05-12T02:16:48.000Z</time>
      </trkpt>
      <trkpt lat="48.74018" lon="2.27509">
        <ele>63</ele>
        <time>2019-05-12T02:16:52.000Z</time>
      </trkpt>
      <trkpt lat="48.74018" lon="2.27509">
        <ele>63</ele>
        <time>2019-05-12T02:16:54.000Z</time>
      </trkpt>
      <trkpt lat="48.74018" lon="2.27509">
        <ele>63</ele>
        <time>2019-05-12T02:16:57.000Z</time>
      </trkpt>
      <trkpt lat="48.74018" lon="2.27509">
        <ele>63</ele>
        <time>2019-05-12T02:16:59.000Z</time>
      </trkpt>
      <trkpt lat="48.74018" lon="2.27509">
        <ele>63</ele>
        <time>2019-05-12T02:17:01.000Z</time>
      </trkpt>
      <trkpt lat="48.74018" lon="2.27509">
        <ele>63</ele>
        <time>2019-05-12T02:17:03.000Z</time>
      </trkpt>
      <trkpt lat="48.74018" lon="2.27509">
        <ele>63</ele>
        <time>2019-05-12T02:17:05.000Z</time>
      </trkpt>
      <trkpt lat="48.74018" lon="2.27509">
        <ele>63</ele>
        <time>2019-05-12T02:17:07.000Z</time>
      </trkpt>
      <trkpt lat="48.74007" lon="2.27521">
        <ele>63</ele>
        <time>2019-05-12T02:17:13.000Z</time>
      </trkpt>
      <trkpt lat="48.74001" lon="2.27528">
        <ele>63</ele>
        <time>2019-05-12T02:17:15.000Z</time>
      </trkpt>
      <trkpt lat="48.73996" lon="2.27532">
        <ele>63</ele>
        <time>2019-05-12T02:17:17.000Z</time>
      </trkpt>
      <trkpt lat="48.73996" lon="2.27532">
        <ele>63</ele>
        <time>2019-05-12T02:17:21.000Z</time>
      </trkpt>
      <trkpt lat="48.73996" lon="2.27532">
        <ele>63</ele>
        <time>2019-05-12T02:17:23.000Z</time>
      </trkpt>
      <trkpt lat="48.73996" lon="2.27532">
        <ele>63</ele>
        <time>2019-05-12T02:17:25.000Z</time>
      </trkpt>
      <trkpt lat="48.73996" lon="2.27532">
        <ele>63</ele>
        <time>2019-05-12T02:17:27.000Z</time>
      </trkpt>
      <trkpt lat="48.73996" lon="2.27532">
        <ele>63</ele>
        <time>2019-05-12T02:17:29.000Z</time>
      </trkpt>
      <trkpt lat="48.73996" lon="2.27532">
        <ele>63</ele>
        <time>2019-05-12T02:17:31.000Z</time>
      </trkpt>
      <trkpt lat="48.73984" lon="2.27531">
        <ele>63</ele>
        <time>2019-05-12T02:17:49.000Z</time>
      </trkpt>
      <trkpt lat="48.73977" lon="2.27529">
        <ele>63</ele>
        <time>2019-05-12T02:17:51.000Z</time>
      </trkpt>
      <trkpt lat="48.73973" lon="2.27525">
        <ele>63</ele>
        <time>2019-05-12T02:17:55.000Z</time>
      </trkpt>
      <trkpt lat="48.73973" lon="2.27525">
        <ele>63</ele>
        <time>2019-05-12T02:17:57.000Z</time>
      </trkpt>
      <trkpt lat="48.73968" lon="2.27521">
        <ele>63</ele>
        <time>2019-05-12T02:17:59.000Z</time>
      </trkpt>
      <trkpt lat="48.73963" lon="2.27517">
        <ele>63</ele>
        <time>2019-05-12T02:18:03.000Z</time>
      </trkpt>
      <trkpt lat="48.73963" lon="2.27517">
        <ele>63</ele>
        <time>2019-05-12T02:18:05.000Z</time>
      </trkpt>
      <trkpt lat="48.73963" lon="2.27517">
        <ele>63</ele>
        <time>2019-05-12T02:18:07.000Z</time>
      </trkpt>
      <trkpt lat="48.73959" lon="2.27511">
        <ele>63</ele>
        <time>2019-05-12T02:18:11.000Z</time>
      </trkpt>
      <trkpt lat="48.73959" lon="2.27511">
        <ele>63</ele>
        <time>2019-05-12T02:18:13.000Z</time>
      </trkpt>
      <trkpt lat="48.73955" lon="2.27505">
        <ele>63</ele>
        <time>2019-05-12T02:18:15.000Z</time>
      </trkpt>
      <trkpt lat="48.73952" lon="2.27499">
        <ele>63</ele>
        <time>2019-05-12T02:18:17.000Z</time>
      </trkpt>
      <trkpt lat="48.73948" lon="2.27493">
        <ele>63</ele>
        <time>2019-05-12T02:18:21.000Z</time>
      </trkpt>
      <trkpt lat="48.73948" lon="2.27493">
        <ele>63</ele>
        <time>2019-05-12T02:18:23.000Z</time>
      </trkpt>
      <trkpt lat="48.73948" lon="2.27493">
        <ele>63</ele>
        <time>2019-05-12T02:18:25.000Z</time>
      </trkpt>
      <trkpt lat="48.73948" lon="2.27493">
        <ele>63</ele>
        <time>2019-05-12T02:18:27.000Z</time>
      </trkpt>
      <trkpt lat="48.73948" lon="2.27493">
        <ele>63</ele>
        <time>2019-05-12T02:18:29.000Z</time>
      </trkpt>
      <trkpt lat="48.73948" lon="2.27493">
        <ele>63</ele>
        <time>2019-05-12T02:18:31.000Z</time>
      </trkpt>
      <trkpt lat="48.73941" lon="2.27483">
        <ele>63</ele>
        <time>2019-05-12T02:18:35.000Z</time>
      </trkpt>
      <trkpt lat="48.73936" lon="2.27476">
        <ele>63</ele>
        <time>2019-05-12T02:18:37.000Z</time>
      </trkpt>
      <trkpt lat="48.73932" lon="2.27471">
        <ele>64</ele>
        <time>2019-05-12T02:18:39.000Z</time>
      </trkpt>
      <trkpt lat="48.73932" lon="2.27471">
        <ele>64</ele>
        <time>2019-05-12T02:18:41.000Z</time>
      </trkpt>
      <trkpt lat="48.73927" lon="2.27467">
        <ele>64</ele>
        <time>2019-05-12T02:18:43.000Z</time>
      </trkpt>
      <trkpt lat="48.73927" lon="2.27467">
        <ele>64</ele>
        <time>2019-05-12T02:18:45.000Z</time>
      </trkpt>
      <trkpt lat="48.73927" lon="2.27467">
        <ele>64</ele>
        <time>2019-05-12T02:18:47.000Z</time>
      </trkpt>
      <trkpt lat="48.73927" lon="2.27467">
        <ele>64</ele>
        <time>2019-05-12T02:18:49.000Z</time>
      </trkpt>
      <trkpt lat="48.73927" lon="2.27467">
        <ele>64</ele>
        <time>2019-05-12T02:18:51.000Z</time>
      </trkpt>
      <trkpt lat="48.73927" lon="2.27467">
        <ele>64</ele>
        <time>2019-05-12T02:18:55.000Z</time>
      </trkpt>
      <trkpt lat="48.73915" lon="2.2746">
        <ele>63</ele>
        <time>2019-05-12T02:18:59.000Z</time>
      </trkpt>
      <trkpt lat="48.73908" lon="2.27455">
        <ele>63</ele>
        <time>2019-05-12T02:19:01.000Z</time>
      </trkpt>
      <trkpt lat="48.73903" lon="2.27453">
        <ele>63</ele>
        <time>2019-05-12T02:19:03.000Z</time>
      </trkpt>
      <trkpt lat="48.73903" lon="2.27453">
        <ele>63</ele>
        <time>2019-05-12T02:19:05.000Z</time>
      </trkpt>
      <trkpt lat="48.73897" lon="2.27451">
        <ele>63</ele>
        <time>2019-05-12T02:19:09.000Z</time>
      </trkpt>
      <trkpt lat="48.73891" lon="2.27448">
        <ele>63</ele>
        <time>2019-05-12T02:19:13.000Z</time>
      </trkpt>
      <trkpt lat="48.73891" lon="2.27448">
        <ele>63</ele>
        <time>2019-05-12T02:19:15.000Z</time>
      </trkpt>
      <trkpt lat="48.73886" lon="2.27444">
        <ele>63</ele>
        <time>2019-05-12T02:19:17.000Z</time>
      </trkpt>
      <trkpt lat="48.73886" lon="2.27444">
        <ele>63</ele>
        <time>2019-05-12T02:19:19.000Z</time>
      </trkpt>
      <trkpt lat="48.73886" lon="2.27444">
        <ele>63</ele>
        <time>2019-05-12T02:19:21.000Z</time>
      </trkpt>
      <trkpt lat="48.73886" lon="2.27444">
        <ele>63</ele>
        <time>2019-05-12T02:19:23.000Z</time>
      </trkpt>
      <trkpt lat="48.73877" lon="2.27438">
        <ele>63</ele>
        <time>2019-05-12T02:19:27.000Z</time>
      </trkpt>
      <trkpt lat="48.73872" lon="2.27434">
        <ele>63</ele>
        <time>2019-05-12T02:19:29.000Z</time>
      </trkpt>
      <trkpt lat="48.73872" lon="2.27434">
        <ele>63</ele>
        <time>2019-05-12T02:19:31.000Z</time>
      </trkpt>
      <trkpt lat="48.73872" lon="2.27434">
        <ele>63</ele>
        <time>2019-05-12T02:19:33.000Z</time>
      </trkpt>
      <trkpt lat="48.73864" lon="2.27428">
        <ele>63</ele>
        <time>2019-05-12T02:19:37.000Z</time>
      </trkpt>
      <trkpt lat="48.7386" lon="2.27424">
        <ele>63</ele>
        <time>2019-05-12T02:19:39.000Z</time>
      </trkpt>
      <trkpt lat="48.73855" lon="2.27421">
        <ele>63</ele>
        <time>2019-05-12T02:19:43.000Z</time>
      </trkpt>
      <trkpt lat="48.73855" lon="2.27421">
        <ele>63</ele>
        <time>2019-05-12T02:19:45.000Z</time>
      </trkpt>
      <trkpt lat="48.73855" lon="2.27421">
        <ele>63</ele>
        <time>2019-05-12T02:19:47.000Z</time>
      </trkpt>
      <trkpt lat="48.73849" lon="2.27417">
        <ele>63</ele>
        <time>2019-05-12T02:19:49.000Z</time>
      </trkpt>
      <trkpt lat="48.73845" lon="2.27413">
        <ele>62</ele>
        <time>2019-05-12T02:19:53.000Z</time>
      </trkpt>
      <trkpt lat="48.73845" lon="2.27413">
        <ele>62</ele>
        <time>2019-05-12T02:19:55.000Z</time>
      </trkpt>
      <trkpt lat="48.73845" lon="2.27413">
        <ele>62</ele>
        <time>2019-05-12T02:19:57.000Z</time>
      </trkpt>
      <trkpt lat="48.73845" lon="2.27413">
        <ele>62</ele>
        <time>2019-05-12T02:19:59.000Z</time>
      </trkpt>
      <trkpt lat="48.73845" lon="2.27413">
        <ele>62</ele>
        <time>2019-05-12T02:20:01.000Z</time>
      </trkpt>
      <trkpt lat="48.73845" lon="2.27413">
        <ele>62</ele>
        <time>2019-05-12T02:20:03.000Z</time>
      </trkpt>
      <trkpt lat="48.73845" lon="2.27413">
        <ele>62</ele>
        <time>2019-05-12T02:20:05.000Z</time>
      </trkpt>
      <trkpt lat="48.73833" lon="2.27404">
        <ele>62</ele>
        <time>2019-05-12T02:20:09.000Z</time>
      </trkpt>
      <trkpt lat="48.73826" lon="2.274">
        <ele>62</ele>
        <time>2019-05-12T02:20:11.000Z</time>
      </trkpt>
      <trkpt lat="48.73821" lon="2.27397">
        <ele>62</ele>
        <time>2019-05-12T02:20:13.000Z</time>
      </trkpt>
      <trkpt lat="48.73821" lon="2.27397">
        <ele>62</ele>
        <time>2019-05-12T02:20:15.000Z</time>
      </trkpt>
      <trkpt lat="48.73821" lon="2.27397">
        <ele>62</ele>
        <time>2019-05-12T02:20:17.000Z</time>
      </trkpt>
      <trkpt lat="48.73821" lon="2.27397">
        <ele>62</ele>
        <time>2019-05-12T02:20:19.000Z</time>
      </trkpt>
      <trkpt lat="48.73821" lon="2.27397">
        <ele>62</ele>
        <time>2019-05-12T02:20:21.000Z</time>
      </trkpt>
      <trkpt lat="48.73821" lon="2.27397">
        <ele>62</ele>
        <time>2019-05-12T02:20:27.000Z</time>
      </trkpt>
      <trkpt lat="48.73821" lon="2.27397">
        <ele>62</ele>
        <time>2019-05-12T02:20:29.000Z</time>
      </trkpt>
      <trkpt lat="48.73808" lon="2.27389">
        <ele>62</ele>
        <time>2019-05-12T02:20:33.000Z</time>
      </trkpt>
      <trkpt lat="48.73799" lon="2.27384">
        <ele>62</ele>
        <time>2019-05-12T02:20:35.000Z</time>
      </trkpt>
      <trkpt lat="48.73794" lon="2.27381">
        <ele>62</ele>
        <time>2019-05-12T02:20:37.000Z</time>
      </trkpt>
      <trkpt lat="48.73794" lon="2.27381">
        <ele>62</ele>
        <time>2019-05-12T02:20:39.000Z</time>
      </trkpt>
      <trkpt lat="48.73794" lon="2.27381">
        <ele>62</ele>
        <time>2019-05-12T02:20:41.000Z</time>
      </trkpt>
      <trkpt lat="48.73794" lon="2.27381">
        <ele>62</ele>
        <time>2019-05-12T02:20:43.000Z</time>
      </trkpt>
      <trkpt lat="48.73794" lon="2.27381">
        <ele>62</ele>
        <time>2019-05-12T02:20:45.000Z</time>
      </trkpt>
      <trkpt lat="48.73794" lon="2.27381">
        <ele>62</ele>
        <time>2019-05-12T02:20:47.000Z</time>
      </trkpt>
      <trkpt lat="48.73794" lon="2.27381">
        <ele>62</ele>
        <time>2019-05-12T02:20:49.000Z</time>
      </trkpt>
      <trkpt lat="48.73782" lon="2.27374">
        <ele>62</ele>
        <time>2019-05-12T02:20:53.000Z</time>
      </trkpt>
      <trkpt lat="48.73775" lon="2.27369">
        <ele>62</ele>
        <time>2019-05-12T02:20:55.000Z</time>
      </trkpt>
      <trkpt lat="48.7377" lon="2.27365">
        <ele>62</ele>
        <time>2019-05-12T02:20:57.000Z</time>
      </trkpt>
      <trkpt lat="48.73764" lon="2.27362">
        <ele>62</ele>
        <time>2019-05-12T02:21:01.000Z</time>
      </trkpt>
      <trkpt lat="48.73764" lon="2.27362">
        <ele>62</ele>
        <time>2019-05-12T02:21:03.000Z</time>
      </trkpt>
      <trkpt lat="48.73764" lon="2.27362">
        <ele>62</ele>
        <time>2019-05-12T02:21:05.000Z</time>
      </trkpt>
      <trkpt lat="48.73764" lon="2.27362">
        <ele>62</ele>
        <time>2019-05-12T02:21:09.000Z</time>
      </trkpt>
      <trkpt lat="48.73756" lon="2.27356">
        <ele>62</ele>
        <time>2019-05-12T02:21:11.000Z</time>
      </trkpt>
      <trkpt lat="48.7375" lon="2.27352">
        <ele>62</ele>
        <time>2019-05-12T02:21:13.000Z</time>
      </trkpt>
      <trkpt lat="48.7375" lon="2.27352">
        <ele>62</ele>
        <time>2019-05-12T02:21:15.000Z</time>
      </trkpt>
      <trkpt lat="48.7375" lon="2.27352">
        <ele>62</ele>
        <time>2019-05-12T02:21:17.000Z</time>
      </trkpt>
      <trkpt lat="48.7375" lon="2.27352">
        <ele>62</ele>
        <time>2019-05-12T02:21:19.000Z</time>
      </trkpt>
      <trkpt lat="48.73742" lon="2.27346">
        <ele>63</ele>
        <time>2019-05-12T02:21:23.000Z</time>
      </trkpt>
      <trkpt lat="48.73735" lon="2.27342">
        <ele>63</ele>
        <time>2019-05-12T02:21:25.000Z</time>
      </trkpt>
      <trkpt lat="48.73731" lon="2.27339">
        <ele>64</ele>
        <time>2019-05-12T02:21:27.000Z</time>
      </trkpt>
      <trkpt lat="48.73731" lon="2.27339">
        <ele>64</ele>
        <time>2019-05-12T02:21:29.000Z</time>
      </trkpt>
      <trkpt lat="48.73731" lon="2.27339">
        <ele>64</ele>
        <time>2019-05-12T02:21:31.000Z</time>
      </trkpt>
      <trkpt lat="48.73723" lon="2.27336">
        <ele>64</ele>
        <time>2019-05-12T02:21:35.000Z</time>
      </trkpt>
      <trkpt lat="48.73717" lon="2.27333">
        <ele>64</ele>
        <time>2019-05-12T02:21:37.000Z</time>
      </trkpt>
      <trkpt lat="48.73717" lon="2.27333">
        <ele>64</ele>
        <time>2019-05-12T02:21:39.000Z</time>
      </trkpt>
      <trkpt lat="48.73717" lon="2.27333">
        <ele>64</ele>
        <time>2019-05-12T02:21:41.000Z</time>
      </trkpt>
      <trkpt lat="48.73717" lon="2.27333">
        <ele>64</ele>
        <time>2019-05-12T02:21:43.000Z</time>
      </trkpt>
      <trkpt lat="48.73707" lon="2.27328">
        <ele>65</ele>
        <time>2019-05-12T02:21:47.000Z</time>
      </trkpt>
      <trkpt lat="48.737" lon="2.27325">
        <ele>65</ele>
        <time>2019-05-12T02:21:49.000Z</time>
      </trkpt>
      <trkpt lat="48.737" lon="2.27325">
        <ele>65</ele>
        <time>2019-05-12T02:21:51.000Z</time>
      </trkpt>
      <trkpt lat="48.737" lon="2.27325">
        <ele>65</ele>
        <time>2019-05-12T02:21:53.000Z</time>
      </trkpt>
      <trkpt lat="48.73692" lon="2.27322">
        <ele>65</ele>
        <time>2019-05-12T02:21:57.000Z</time>
      </trkpt>
      <trkpt lat="48.73685" lon="2.2732">
        <ele>65</ele>
        <time>2019-05-12T02:21:59.000Z</time>
      </trkpt>
      <trkpt lat="48.73685" lon="2.2732">
        <ele>65</ele>
        <time>2019-05-12T02:22:01.000Z</time>
      </trkpt>
      <trkpt lat="48.7368" lon="2.27318">
        <ele>65</ele>
        <time>2019-05-12T02:22:03.000Z</time>
      </trkpt>
      <trkpt lat="48.73675" lon="2.27314">
        <ele>65</ele>
        <time>2019-05-12T02:22:07.000Z</time>
      </trkpt>
      <trkpt lat="48.73671" lon="2.27311">
        <ele>65</ele>
        <time>2019-05-12T02:22:09.000Z</time>
      </trkpt>
      <trkpt lat="48.73671" lon="2.27311">
        <ele>65</ele>
        <time>2019-05-12T02:22:11.000Z</time>
      </trkpt>
      <trkpt lat="48.73667" lon="2.27306">
        <ele>65</ele>
        <time>2019-05-12T02:22:13.000Z</time>
      </trkpt>
      <trkpt lat="48.73667" lon="2.27306">
        <ele>65</ele>
        <time>2019-05-12T02:22:15.000Z</time>
      </trkpt>
      <trkpt lat="48.73667" lon="2.27306">
        <ele>65</ele>
        <time>2019-05-12T02:22:17.000Z</time>
      </trkpt>
      <trkpt lat="48.73667" lon="2.27306">
        <ele>65</ele>
        <time>2019-05-12T02:22:19.000Z</time>
      </trkpt>
      <trkpt lat="48.73667" lon="2.27306">
        <ele>65</ele>
        <time>2019-05-12T02:22:21.000Z</time>
      </trkpt>
      <trkpt lat="48.73658" lon="2.27299">
        <ele>68</ele>
        <time>2019-05-12T02:22:25.000Z</time>
      </trkpt>
      <trkpt lat="48.73652" lon="2.27296">
        <ele>68</ele>
        <time>2019-05-12T02:22:27.000Z</time>
      </trkpt>
      <trkpt lat="48.73647" lon="2.27294">
        <ele>68</ele>
        <time>2019-05-12T02:22:29.000Z</time>
      </trkpt>
      <trkpt lat="48.73642" lon="2.27292">
        <ele>68</ele>
        <time>2019-05-12T02:22:33.000Z</time>
      </trkpt>
      <trkpt lat="48.73642" lon="2.27292">
        <ele>68</ele>
        <time>2019-05-12T02:22:37.000Z</time>
      </trkpt>
      <trkpt lat="48.73642" lon="2.27292">
        <ele>68</ele>
        <time>2019-05-12T02:22:39.000Z</time>
      </trkpt>
      <trkpt lat="48.73642" lon="2.27292">
        <ele>68</ele>
        <time>2019-05-12T02:22:41.000Z</time>
      </trkpt>
      <trkpt lat="48.73642" lon="2.27292">
        <ele>68</ele>
        <time>2019-05-12T02:22:43.000Z</time>
      </trkpt>
      <trkpt lat="48.73634" lon="2.27285">
        <ele>68</ele>
        <time>2019-05-12T02:22:45.000Z</time>
      </trkpt>
      <trkpt lat="48.73628" lon="2.27281">
        <ele>69</ele>
        <time>2019-05-12T02:22:47.000Z</time>
      </trkpt>
      <trkpt lat="48.73623" lon="2.27278">
        <ele>69</ele>
        <time>2019-05-12T02:22:51.000Z</time>
      </trkpt>
      <trkpt lat="48.73623" lon="2.27278">
        <ele>69</ele>
        <time>2019-05-12T02:22:53.000Z</time>
      </trkpt>
      <trkpt lat="48.73617" lon="2.27276">
        <ele>69</ele>
        <time>2019-05-12T02:22:55.000Z</time>
      </trkpt>
      <trkpt lat="48.73611" lon="2.27272">
        <ele>69</ele>
        <time>2019-05-12T02:22:59.000Z</time>
      </trkpt>
      <trkpt lat="48.73606" lon="2.2727">
        <ele>69</ele>
        <time>2019-05-12T02:23:01.000Z</time>
      </trkpt>
      <trkpt lat="48.73606" lon="2.2727">
        <ele>69</ele>
        <time>2019-05-12T02:23:03.000Z</time>
      </trkpt>
      <trkpt lat="48.73606" lon="2.2727">
        <ele>69</ele>
        <time>2019-05-12T02:23:05.000Z</time>
      </trkpt>
      <trkpt lat="48.73606" lon="2.2727">
        <ele>69</ele>
        <time>2019-05-12T02:23:07.000Z</time>
      </trkpt>
      <trkpt lat="48.73606" lon="2.2727">
        <ele>69</ele>
        <time>2019-05-12T02:23:09.000Z</time>
      </trkpt>
      <trkpt lat="48.73606" lon="2.2727">
        <ele>69</ele>
        <time>2019-05-12T02:23:11.000Z</time>
      </trkpt>
      <trkpt lat="48.73606" lon="2.2727">
        <ele>69</ele>
        <time>2019-05-12T02:23:13.000Z</time>
      </trkpt>
      <trkpt lat="48.73606" lon="2.2727">
        <ele>69</ele>
        <time>2019-05-12T02:23:15.000Z</time>
      </trkpt>
      <trkpt lat="48.73606" lon="2.2727">
        <ele>69</ele>
        <time>2019-05-12T02:23:17.000Z</time>
      </trkpt>
      <trkpt lat="48.73593" lon="2.27262">
        <ele>69</ele>
        <time>2019-05-12T02:23:21.000Z</time>
      </trkpt>
      <trkpt lat="48.73586" lon="2.27257">
        <ele>70</ele>
        <time>2019-05-12T02:23:23.000Z</time>
      </trkpt>
      <trkpt lat="48.73581" lon="2.27254">
        <ele>70</ele>
        <time>2019-05-12T02:23:25.000Z</time>
      </trkpt>
      <trkpt lat="48.73581" lon="2.27254">
        <ele>70</ele>
        <time>2019-05-12T02:23:27.000Z</time>
      </trkpt>
      <trkpt lat="48.73581" lon="2.27254">
        <ele>70</ele>
        <time>2019-05-12T02:23:29.000Z</time>
      </trkpt>
      <trkpt lat="48.73574" lon="2.2725">
        <ele>71</ele>
        <time>2019-05-12T02:23:33.000Z</time>
      </trkpt>
      <trkpt lat="48.73569" lon="2.27247">
        <ele>71</ele>
        <time>2019-05-12T02:23:35.000Z</time>
      </trkpt>
      <trkpt lat="48.73565" lon="2.27245">
        <ele>71</ele>
        <time>2019-05-12T02:23:39.000Z</time>
      </trkpt>
      <trkpt lat="48.7356" lon="2.27244">
        <ele>71</ele>
        <time>2019-05-12T02:23:43.000Z</time>
      </trkpt>
      <trkpt lat="48.73555" lon="2.27241">
        <ele>72</ele>
        <time>2019-05-12T02:23:47.000Z</time>
      </trkpt>
      <trkpt lat="48.73555" lon="2.27241">
        <ele>72</ele>
        <time>2019-05-12T02:23:49.000Z</time>
      </trkpt>
      <trkpt lat="48.73555" lon="2.27241">
        <ele>72</ele>
        <time>2019-05-12T02:23:51.000Z</time>
      </trkpt>
      <trkpt lat="48.73548" lon="2.27237">
        <ele>72</ele>
        <time>2019-05-12T02:23:55.000Z</time>
      </trkpt>
      <trkpt lat="48.73543" lon="2.27234">
        <ele>72</ele>
        <time>2019-05-12T02:23:57.000Z</time>
      </trkpt>
      <trkpt lat="48.73543" lon="2.27234">
        <ele>72</ele>
        <time>2019-05-12T02:23:59.000Z</time>
      </trkpt>
      <trkpt lat="48.73543" lon="2.27234">
        <ele>72</ele>
        <time>2019-05-12T02:24:01.000Z</time>
      </trkpt>
      <trkpt lat="48.73543" lon="2.27234">
        <ele>72</ele>
        <time>2019-05-12T02:24:03.000Z</time>
      </trkpt>
      <trkpt lat="48.73534" lon="2.2723">
        <ele>73</ele>
        <time>2019-05-12T02:24:07.000Z</time>
      </trkpt>
      <trkpt lat="48.73528" lon="2.27227">
        <ele>73</ele>
        <time>2019-05-12T02:24:09.000Z</time>
      </trkpt>
      <trkpt lat="48.73523" lon="2.27225">
        <ele>73</ele>
        <time>2019-05-12T02:24:11.000Z</time>
      </trkpt>
      <trkpt lat="48.73523" lon="2.27225">
        <ele>73</ele>
        <time>2019-05-12T02:24:13.000Z</time>
      </trkpt>
      <trkpt lat="48.73523" lon="2.27225">
        <ele>73</ele>
        <time>2019-05-12T02:24:15.000Z</time>
      </trkpt>
      <trkpt lat="48.73523" lon="2.27225">
        <ele>73</ele>
        <time>2019-05-12T02:24:17.000Z</time>
      </trkpt>
      <trkpt lat="48.73523" lon="2.27225">
        <ele>73</ele>
        <time>2019-05-12T02:24:19.000Z</time>
      </trkpt>
      <trkpt lat="48.73514" lon="2.27219">
        <ele>73</ele>
        <time>2019-05-12T02:24:23.000Z</time>
      </trkpt>
      <trkpt lat="48.73507" lon="2.27218">
        <ele>73</ele>
        <time>2019-05-12T02:24:25.000Z</time>
      </trkpt>
      <trkpt lat="48.73502" lon="2.2722">
        <ele>73</ele>
        <time>2019-05-12T02:24:27.000Z</time>
      </trkpt>
      <trkpt lat="48.73502" lon="2.2722">
        <ele>73</ele>
        <time>2019-05-12T02:24:29.000Z</time>
      </trkpt>
      <trkpt lat="48.73497" lon="2.27223">
        <ele>75</ele>
        <time>2019-05-12T02:24:31.000Z</time>
      </trkpt>
      <trkpt lat="48.73497" lon="2.27223">
        <ele>75</ele>
        <time>2019-05-12T02:24:33.000Z</time>
      </trkpt>
      <trkpt lat="48.73497" lon="2.27223">
        <ele>75</ele>
        <time>2019-05-12T02:24:35.000Z</time>
      </trkpt>
      <trkpt lat="48.73497" lon="2.27223">
        <ele>75</ele>
        <time>2019-05-12T02:24:37.000Z</time>
      </trkpt>
      <trkpt lat="48.73497" lon="2.27223">
        <ele>75</ele>
        <time>2019-05-12T02:24:39.000Z</time>
      </trkpt>
      <trkpt lat="48.73497" lon="2.27223">
        <ele>75</ele>
        <time>2019-05-12T02:24:47.000Z</time>
      </trkpt>
      <trkpt lat="48.73497" lon="2.27223">
        <ele>75</ele>
        <time>2019-05-12T02:24:49.000Z</time>
      </trkpt>
      <trkpt lat="48.73497" lon="2.27223">
        <ele>75</ele>
        <time>2019-05-12T02:24:51.000Z</time>
      </trkpt>
      <trkpt lat="48.7349" lon="2.27246">
        <ele>76</ele>
        <time>2019-05-12T02:24:53.000Z</time>
      </trkpt>
      <trkpt lat="48.73486" lon="2.27261">
        <ele>76</ele>
        <time>2019-05-12T02:24:55.000Z</time>
      </trkpt>
      <trkpt lat="48.73483" lon="2.27272">
        <ele>76</ele>
        <time>2019-05-12T02:24:57.000Z</time>
      </trkpt>
      <trkpt lat="48.73483" lon="2.27272">
        <ele>76</ele>
        <time>2019-05-12T02:24:59.000Z</time>
      </trkpt>
      <trkpt lat="48.73483" lon="2.27272">
        <ele>76</ele>
        <time>2019-05-12T02:25:01.000Z</time>
      </trkpt>
      <trkpt lat="48.73483" lon="2.27272">
        <ele>76</ele>
        <time>2019-05-12T02:25:03.000Z</time>
      </trkpt>
      <trkpt lat="48.73483" lon="2.27272">
        <ele>76</ele>
        <time>2019-05-12T02:25:05.000Z</time>
      </trkpt>
      <trkpt lat="48.73483" lon="2.27272">
        <ele>76</ele>
        <time>2019-05-12T02:25:07.000Z</time>
      </trkpt>
      <trkpt lat="48.73483" lon="2.27272">
        <ele>76</ele>
        <time>2019-05-12T02:25:09.000Z</time>
      </trkpt>
      <trkpt lat="48.73483" lon="2.27272">
        <ele>76</ele>
        <time>2019-05-12T02:25:11.000Z</time>
      </trkpt>
      <trkpt lat="48.73476" lon="2.27287">
        <ele>76</ele>
        <time>2019-05-12T02:25:15.000Z</time>
      </trkpt>
      <trkpt lat="48.73473" lon="2.27297">
        <ele>76</ele>
        <time>2019-05-12T02:25:17.000Z</time>
      </trkpt>
      <trkpt lat="48.73473" lon="2.27297">
        <ele>76</ele>
        <time>2019-05-12T02:25:19.000Z</time>
      </trkpt>
      <trkpt lat="48.73473" lon="2.27297">
        <ele>76</ele>
        <time>2019-05-12T02:25:24.000Z</time>
      </trkpt>
      <trkpt lat="48.7346" lon="2.27295">
        <ele>76</ele>
        <time>2019-05-12T02:25:28.000Z</time>
      </trkpt>
      <trkpt lat="48.73452" lon="2.27293">
        <ele>76</ele>
        <time>2019-05-12T02:25:30.000Z</time>
      </trkpt>
      <trkpt lat="48.73452" lon="2.27293">
        <ele>76</ele>
        <time>2019-05-12T02:25:32.000Z</time>
      </trkpt>
      <trkpt lat="48.73452" lon="2.27293">
        <ele>76</ele>
        <time>2019-05-12T02:25:34.000Z</time>
      </trkpt>
      <trkpt lat="48.73452" lon="2.27293">
        <ele>76</ele>
        <time>2019-05-12T02:25:36.000Z</time>
      </trkpt>
      <trkpt lat="48.73441" lon="2.27291">
        <ele>76</ele>
        <time>2019-05-12T02:25:40.000Z</time>
      </trkpt>
      <trkpt lat="48.73434" lon="2.2729">
        <ele>76</ele>
        <time>2019-05-12T02:25:42.000Z</time>
      </trkpt>
      <trkpt lat="48.73428" lon="2.27291">
        <ele>76</ele>
        <time>2019-05-12T02:25:44.000Z</time>
      </trkpt>
      <trkpt lat="48.73423" lon="2.27291">
        <ele>76</ele>
        <time>2019-05-12T02:25:47.000Z</time>
      </trkpt>
      <trkpt lat="48.73423" lon="2.27291">
        <ele>76</ele>
        <time>2019-05-12T02:25:48.000Z</time>
      </trkpt>
      <trkpt lat="48.73418" lon="2.27294">
        <ele>76</ele>
        <time>2019-05-12T02:25:50.000Z</time>
      </trkpt>
      <trkpt lat="48.73413" lon="2.27296">
        <ele>77</ele>
        <time>2019-05-12T02:25:52.000Z</time>
      </trkpt>
      <trkpt lat="48.73408" lon="2.27297">
        <ele>77</ele>
        <time>2019-05-12T02:25:58.000Z</time>
      </trkpt>
      <trkpt lat="48.73402" lon="2.27298">
        <ele>77</ele>
        <time>2019-05-12T02:26:02.000Z</time>
      </trkpt>
      <trkpt lat="48.73396" lon="2.273">
        <ele>77</ele>
        <time>2019-05-12T02:26:06.000Z</time>
      </trkpt>
      <trkpt lat="48.73392" lon="2.27302">
        <ele>77</ele>
        <time>2019-05-12T02:26:08.000Z</time>
      </trkpt>
      <trkpt lat="48.73386" lon="2.27303">
        <ele>78</ele>
        <time>2019-05-12T02:26:12.000Z</time>
      </trkpt>
      <trkpt lat="48.73381" lon="2.27304">
        <ele>78</ele>
        <time>2019-05-12T02:26:16.000Z</time>
      </trkpt>
      <trkpt lat="48.73381" lon="2.27304">
        <ele>78</ele>
        <time>2019-05-12T02:26:20.000Z</time>
      </trkpt>
      <trkpt lat="48.73381" lon="2.27304">
        <ele>78</ele>
        <time>2019-05-12T02:26:22.000Z</time>
      </trkpt>
      <trkpt lat="48.73373" lon="2.27306">
        <ele>78</ele>
        <time>2019-05-12T02:26:24.000Z</time>
      </trkpt>
      <trkpt lat="48.73367" lon="2.27308">
        <ele>78</ele>
        <time>2019-05-12T02:26:26.000Z</time>
      </trkpt>
      <trkpt lat="48.73362" lon="2.2731">
        <ele>78</ele>
        <time>2019-05-12T02:26:28.000Z</time>
      </trkpt>
      <trkpt lat="48.73357" lon="2.27313">
        <ele>78</ele>
        <time>2019-05-12T02:26:32.000Z</time>
      </trkpt>
      <trkpt lat="48.73357" lon="2.27313">
        <ele>78</ele>
        <time>2019-05-12T02:26:34.000Z</time>
      </trkpt>
      <trkpt lat="48.73357" lon="2.27313">
        <ele>78</ele>
        <time>2019-05-12T02:26:36.000Z</time>
      </trkpt>
      <trkpt lat="48.73348" lon="2.27316">
        <ele>79</ele>
        <time>2019-05-12T02:26:40.000Z</time>
      </trkpt>
      <trkpt lat="48.73342" lon="2.27318">
        <ele>79</ele>
        <time>2019-05-12T02:26:42.000Z</time>
      </trkpt>
      <trkpt lat="48.73337" lon="2.27319">
        <ele>79</ele>
        <time>2019-05-12T02:26:44.000Z</time>
      </trkpt>
      <trkpt lat="48.73337" lon="2.27319">
        <ele>79</ele>
        <time>2019-05-12T02:26:46.000Z</time>
      </trkpt>
      <trkpt lat="48.73337" lon="2.27319">
        <ele>79</ele>
        <time>2019-05-12T02:26:48.000Z</time>
      </trkpt>
      <trkpt lat="48.73337" lon="2.27319">
        <ele>79</ele>
        <time>2019-05-12T02:26:50.000Z</time>
      </trkpt>
      <trkpt lat="48.73326" lon="2.27321">
        <ele>81</ele>
        <time>2019-05-12T02:26:56.000Z</time>
      </trkpt>
      <trkpt lat="48.7332" lon="2.27321">
        <ele>81</ele>
        <time>2019-05-12T02:26:58.000Z</time>
      </trkpt>
      <trkpt lat="48.73315" lon="2.27321">
        <ele>81</ele>
        <time>2019-05-12T02:27:00.000Z</time>
      </trkpt>
      <trkpt lat="48.73315" lon="2.27321">
        <ele>81</ele>
        <time>2019-05-12T02:27:02.000Z</time>
      </trkpt>
      <trkpt lat="48.73315" lon="2.27321">
        <ele>81</ele>
        <time>2019-05-12T02:27:04.000Z</time>
      </trkpt>
      <trkpt lat="48.73315" lon="2.27321">
        <ele>81</ele>
        <time>2019-05-12T02:27:06.000Z</time>
      </trkpt>
      <trkpt lat="48.73315" lon="2.27321">
        <ele>81</ele>
        <time>2019-05-12T02:27:10.000Z</time>
      </trkpt>
      <trkpt lat="48.73315" lon="2.27321">
        <ele>81</ele>
        <time>2019-05-12T02:27:14.000Z</time>
      </trkpt>
      <trkpt lat="48.73315" lon="2.27321">
        <ele>81</ele>
        <time>2019-05-12T02:27:16.000Z</time>
      </trkpt>
      <trkpt lat="48.73315" lon="2.27321">
        <ele>81</ele>
        <time>2019-05-12T02:27:18.000Z</time>
      </trkpt>
      <trkpt lat="48.73301" lon="2.27319">
        <ele>81</ele>
        <time>2019-05-12T02:27:22.000Z</time>
      </trkpt>
      <trkpt lat="48.73292" lon="2.27317">
        <ele>81</ele>
        <time>2019-05-12T02:27:24.000Z</time>
      </trkpt>
      <trkpt lat="48.73286" lon="2.27316">
        <ele>81</ele>
        <time>2019-05-12T02:27:26.000Z</time>
      </trkpt>
      <trkpt lat="48.73281" lon="2.27315">
        <ele>81</ele>
        <time>2019-05-12T02:27:30.000Z</time>
      </trkpt>
      <trkpt lat="48.73281" lon="2.27315">
        <ele>81</ele>
        <time>2019-05-12T02:27:32.000Z</time>
      </trkpt>
      <trkpt lat="48.73281" lon="2.27315">
        <ele>81</ele>
        <time>2019-05-12T02:27:34.000Z</time>
      </trkpt>
      <trkpt lat="48.73281" lon="2.27315">
        <ele>81</ele>
        <time>2019-05-12T02:27:36.000Z</time>
      </trkpt>
      <trkpt lat="48.73271" lon="2.27314">
        <ele>82</ele>
        <time>2019-05-12T02:27:40.000Z</time>
      </trkpt>
      <trkpt lat="48.73265" lon="2.27313">
        <ele>82</ele>
        <time>2019-05-12T02:27:42.000Z</time>
      </trkpt>
      <trkpt lat="48.73259" lon="2.27312">
        <ele>82</ele>
        <time>2019-05-12T02:27:44.000Z</time>
      </trkpt>
      <trkpt lat="48.73259" lon="2.27312">
        <ele>82</ele>
        <time>2019-05-12T02:27:46.000Z</time>
      </trkpt>
      <trkpt lat="48.73254" lon="2.2731">
        <ele>82</ele>
        <time>2019-05-12T02:27:48.000Z</time>
      </trkpt>
      <trkpt lat="48.73254" lon="2.2731">
        <ele>82</ele>
        <time>2019-05-12T02:27:50.000Z</time>
      </trkpt>
      <trkpt lat="48.73254" lon="2.2731">
        <ele>82</ele>
        <time>2019-05-12T02:27:52.000Z</time>
      </trkpt>
      <trkpt lat="48.73254" lon="2.2731">
        <ele>82</ele>
        <time>2019-05-12T02:27:54.000Z</time>
      </trkpt>
      <trkpt lat="48.73254" lon="2.2731">
        <ele>82</ele>
        <time>2019-05-12T02:27:56.000Z</time>
      </trkpt>
      <trkpt lat="48.73241" lon="2.27304">
        <ele>82</ele>
        <time>2019-05-12T02:28:02.000Z</time>
      </trkpt>
      <trkpt lat="48.73233" lon="2.273">
        <ele>81</ele>
        <time>2019-05-12T02:28:04.000Z</time>
      </trkpt>
      <trkpt lat="48.73228" lon="2.27296">
        <ele>81</ele>
        <time>2019-05-12T02:28:06.000Z</time>
      </trkpt>
      <trkpt lat="48.73223" lon="2.27293">
        <ele>81</ele>
        <time>2019-05-12T02:28:08.000Z</time>
      </trkpt>
      <trkpt lat="48.73219" lon="2.27288">
        <ele>81</ele>
        <time>2019-05-12T02:28:12.000Z</time>
      </trkpt>
      <trkpt lat="48.73219" lon="2.27288">
        <ele>81</ele>
        <time>2019-05-12T02:28:14.000Z</time>
      </trkpt>
      <trkpt lat="48.73219" lon="2.27288">
        <ele>81</ele>
        <time>2019-05-12T02:28:16.000Z</time>
      </trkpt>
      <trkpt lat="48.73219" lon="2.27288">
        <ele>81</ele>
        <time>2019-05-12T02:28:18.000Z</time>
      </trkpt>
      <trkpt lat="48.73219" lon="2.27288">
        <ele>81</ele>
        <time>2019-05-12T02:28:20.000Z</time>
      </trkpt>
      <trkpt lat="48.73219" lon="2.27288">
        <ele>81</ele>
        <time>2019-05-12T02:28:22.000Z</time>
      </trkpt>
      <trkpt lat="48.73219" lon="2.27288">
        <ele>81</ele>
        <time>2019-05-12T02:28:28.000Z</time>
      </trkpt>
      <trkpt lat="48.73219" lon="2.27288">
        <ele>81</ele>
        <time>2019-05-12T02:28:30.000Z</time>
      </trkpt>
      <trkpt lat="48.73219" lon="2.27288">
        <ele>81</ele>
        <time>2019-05-12T02:28:32.000Z</time>
      </trkpt>
      <trkpt lat="48.73206" lon="2.27286">
        <ele>80</ele>
        <time>2019-05-12T02:28:34.000Z</time>
      </trkpt>
      <trkpt lat="48.73198" lon="2.27284">
        <ele>80</ele>
        <time>2019-05-12T02:28:36.000Z</time>
      </trkpt>
      <trkpt lat="48.73193" lon="2.27284">
        <ele>80</ele>
        <time>2019-05-12T02:28:38.000Z</time>
      </trkpt>
      <trkpt lat="48.7319" lon="2.2729">
        <ele>80</ele>
        <time>2019-05-12T02:28:44.000Z</time>
      </trkpt>
      <trkpt lat="48.7319" lon="2.2729">
        <ele>80</ele>
        <time>2019-05-12T02:28:46.000Z</time>
      </trkpt>
      <trkpt lat="48.7319" lon="2.2729">
        <ele>80</ele>
        <time>2019-05-12T02:28:48.000Z</time>
      </trkpt>
      <trkpt lat="48.73188" lon="2.27298">
        <ele>80</ele>
        <time>2019-05-12T02:28:50.000Z</time>
      </trkpt>
      <trkpt lat="48.73187" lon="2.27307">
        <ele>81</ele>
        <time>2019-05-12T02:28:54.000Z</time>
      </trkpt>
      <trkpt lat="48.73187" lon="2.27307">
        <ele>81</ele>
        <time>2019-05-12T02:28:56.000Z</time>
      </trkpt>
      <trkpt lat="48.73187" lon="2.27307">
        <ele>81</ele>
        <time>2019-05-12T02:28:58.000Z</time>
      </trkpt>
      <trkpt lat="48.73187" lon="2.27307">
        <ele>81</ele>
        <time>2019-05-12T02:29:00.000Z</time>
      </trkpt>
      <trkpt lat="48.73187" lon="2.27307">
        <ele>81</ele>
        <time>2019-05-12T02:29:02.000Z</time>
      </trkpt>
      <trkpt lat="48.73187" lon="2.27307">
        <ele>81</ele>
        <time>2019-05-12T02:29:08.000Z</time>
      </trkpt>
      <trkpt lat="48.73187" lon="2.27307">
        <ele>81</ele>
        <time>2019-05-12T02:29:10.000Z</time>
      </trkpt>
      <trkpt lat="48.73187" lon="2.27307">
        <ele>81</ele>
        <time>2019-05-12T02:29:12.000Z</time>
      </trkpt>
      <trkpt lat="48.73187" lon="2.27307">
        <ele>81</ele>
        <time>2019-05-12T02:29:14.000Z</time>
      </trkpt>
      <trkpt lat="48.73177" lon="2.27323">
        <ele>81</ele>
        <time>2019-05-12T02:29:18.000Z</time>
      </trkpt>
      <trkpt lat="48.7317" lon="2.27332">
        <ele>81</ele>
        <time>2019-05-12T02:29:20.000Z</time>
      </trkpt>
      <trkpt lat="48.73165" lon="2.27337">
        <ele>81</ele>
        <time>2019-05-12T02:29:22.000Z</time>
      </trkpt>
      <trkpt lat="48.73161" lon="2.27339">
        <ele>81</ele>
        <time>2019-05-12T02:29:24.000Z</time>
      </trkpt>
      <trkpt lat="48.73155" lon="2.2734">
        <ele>81</ele>
        <time>2019-05-12T02:29:28.000Z</time>
      </trkpt>
      <trkpt lat="48.73155" lon="2.2734">
        <ele>81</ele>
        <time>2019-05-12T02:29:30.000Z</time>
      </trkpt>
      <trkpt lat="48.73155" lon="2.2734">
        <ele>81</ele>
        <time>2019-05-12T02:29:38.000Z</time>
      </trkpt>
      <trkpt lat="48.73155" lon="2.2734">
        <ele>81</ele>
        <time>2019-05-12T02:29:40.000Z</time>
      </trkpt>
      <trkpt lat="48.73155" lon="2.2734">
        <ele>81</ele>
        <time>2019-05-12T02:29:42.000Z</time>
      </trkpt>
      <trkpt lat="48.73141" lon="2.27339">
        <ele>81</ele>
        <time>2019-05-12T02:29:46.000Z</time>
      </trkpt>
      <trkpt lat="48.73132" lon="2.27337">
        <ele>81</ele>
        <time>2019-05-12T02:29:48.000Z</time>
      </trkpt>
      <trkpt lat="48.73126" lon="2.27336">
        <ele>81</ele>
        <time>2019-05-12T02:29:50.000Z</time>
      </trkpt>
      <trkpt lat="48.73126" lon="2.27336">
        <ele>81</ele>
        <time>2019-05-12T02:29:52.000Z</time>
      </trkpt>
      <trkpt lat="48.73122" lon="2.27333">
        <ele>79</ele>
        <time>2019-05-12T02:29:54.000Z</time>
      </trkpt>
      <trkpt lat="48.73116" lon="2.27331">
        <ele>79</ele>
        <time>2019-05-12T02:29:58.000Z</time>
      </trkpt>
      <trkpt lat="48.73116" lon="2.27331">
        <ele>79</ele>
        <time>2019-05-12T02:30:00.000Z</time>
      </trkpt>
      <trkpt lat="48.73111" lon="2.27328">
        <ele>79</ele>
        <time>2019-05-12T02:30:04.000Z</time>
      </trkpt>
      <trkpt lat="48.73106" lon="2.2733">
        <ele>79</ele>
        <time>2019-05-12T02:30:06.000Z</time>
      </trkpt>
      <trkpt lat="48.73101" lon="2.27334">
        <ele>80</ele>
        <time>2019-05-12T02:30:10.000Z</time>
      </trkpt>
      <trkpt lat="48.73096" lon="2.27336">
        <ele>80</ele>
        <time>2019-05-12T02:30:12.000Z</time>
      </trkpt>
      <trkpt lat="48.73092" lon="2.27338">
        <ele>80</ele>
        <time>2019-05-12T02:30:14.000Z</time>
      </trkpt>
      <trkpt lat="48.73092" lon="2.27338">
        <ele>80</ele>
        <time>2019-05-12T02:30:16.000Z</time>
      </trkpt>
      <trkpt lat="48.73092" lon="2.27338">
        <ele>80</ele>
        <time>2019-05-12T02:30:18.000Z</time>
      </trkpt>
      <trkpt lat="48.73092" lon="2.27338">
        <ele>80</ele>
        <time>2019-05-12T02:30:20.000Z</time>
      </trkpt>
      <trkpt lat="48.73092" lon="2.27338">
        <ele>80</ele>
        <time>2019-05-12T02:30:22.000Z</time>
      </trkpt>
      <trkpt lat="48.73078" lon="2.27341">
        <ele>79</ele>
        <time>2019-05-12T02:30:28.000Z</time>
      </trkpt>
      <trkpt lat="48.7307" lon="2.27342">
        <ele>80</ele>
        <time>2019-05-12T02:30:30.000Z</time>
      </trkpt>
      <trkpt lat="48.73064" lon="2.27343">
        <ele>80</ele>
        <time>2019-05-12T02:30:32.000Z</time>
      </trkpt>
      <trkpt lat="48.73064" lon="2.27343">
        <ele>80</ele>
        <time>2019-05-12T02:30:34.000Z</time>
      </trkpt>
      <trkpt lat="48.73064" lon="2.27343">
        <ele>80</ele>
        <time>2019-05-12T02:30:36.000Z</time>
      </trkpt>
      <trkpt lat="48.73064" lon="2.27343">
        <ele>80</ele>
        <time>2019-05-12T02:30:38.000Z</time>
      </trkpt>
      <trkpt lat="48.73064" lon="2.27343">
        <ele>80</ele>
        <time>2019-05-12T02:30:44.000Z</time>
      </trkpt>
      <trkpt lat="48.73064" lon="2.27343">
        <ele>80</ele>
        <time>2019-05-12T02:30:46.000Z</time>
      </trkpt>
      <trkpt lat="48.73064" lon="2.27343">
        <ele>80</ele>
        <time>2019-05-12T02:30:48.000Z</time>
      </trkpt>
      <trkpt lat="48.73051" lon="2.27341">
        <ele>80</ele>
        <time>2019-05-12T02:30:50.000Z</time>
      </trkpt>
      <trkpt lat="48.73045" lon="2.27338">
        <ele>80</ele>
        <time>2019-05-12T02:30:52.000Z</time>
      </trkpt>
      <trkpt lat="48.73042" lon="2.2733">
        <ele>78</ele>
        <time>2019-05-12T02:30:56.000Z</time>
      </trkpt>
      <trkpt lat="48.73042" lon="2.2733">
        <ele>78</ele>
        <time>2019-05-12T02:30:58.000Z</time>
      </trkpt>
      <trkpt lat="48.73042" lon="2.2733">
        <ele>78</ele>
        <time>2019-05-12T02:31:00.000Z</time>
      </trkpt>
      <trkpt lat="48.73042" lon="2.2733">
        <ele>78</ele>
        <time>2019-05-12T02:31:02.000Z</time>
      </trkpt>
      <trkpt lat="48.73042" lon="2.2733">
        <ele>78</ele>
        <time>2019-05-12T02:31:04.000Z</time>
      </trkpt>
      <trkpt lat="48.73042" lon="2.2733">
        <ele>78</ele>
        <time>2019-05-12T02:31:10.000Z</time>
      </trkpt>
      <trkpt lat="48.73042" lon="2.2733">
        <ele>78</ele>
        <time>2019-05-12T02:31:12.000Z</time>
      </trkpt>
      <trkpt lat="48.73042" lon="2.2733">
        <ele>78</ele>
        <time>2019-05-12T02:31:14.000Z</time>
      </trkpt>
      <trkpt lat="48.7304" lon="2.27305">
        <ele>78</ele>
        <time>2019-05-12T02:31:18.000Z</time>
      </trkpt>
      <trkpt lat="48.73039" lon="2.2729">
        <ele>78</ele>
        <time>2019-05-12T02:31:20.000Z</time>
      </trkpt>
      <trkpt lat="48.73038" lon="2.27279">
        <ele>78</ele>
        <time>2019-05-12T02:31:22.000Z</time>
      </trkpt>
      <trkpt lat="48.73038" lon="2.27272">
        <ele>78</ele>
        <time>2019-05-12T02:31:24.000Z</time>
      </trkpt>
      <trkpt lat="48.73038" lon="2.27272">
        <ele>78</ele>
        <time>2019-05-12T02:31:26.000Z</time>
      </trkpt>
      <trkpt lat="48.73038" lon="2.27272">
        <ele>78</ele>
        <time>2019-05-12T02:31:28.000Z</time>
      </trkpt>
      <trkpt lat="48.73038" lon="2.27272">
        <ele>78</ele>
        <time>2019-05-12T02:31:30.000Z</time>
      </trkpt>
      <trkpt lat="48.73038" lon="2.27272">
        <ele>78</ele>
        <time>2019-05-12T02:31:32.000Z</time>
      </trkpt>
      <trkpt lat="48.73038" lon="2.27272">
        <ele>78</ele>
        <time>2019-05-12T02:31:34.000Z</time>
      </trkpt>
      <trkpt lat="48.73038" lon="2.27272">
        <ele>78</ele>
        <time>2019-05-12T02:31:36.000Z</time>
      </trkpt>
      <trkpt lat="48.73039" lon="2.27256">
        <ele>78</ele>
        <time>2019-05-12T02:31:38.000Z</time>
      </trkpt>
      <trkpt lat="48.7304" lon="2.27245">
        <ele>76</ele>
        <time>2019-05-12T02:31:40.000Z</time>
      </trkpt>
      <trkpt lat="48.73041" lon="2.27237">
        <ele>76</ele>
        <time>2019-05-12T02:31:42.000Z</time>
      </trkpt>
      <trkpt lat="48.73042" lon="2.2723">
        <ele>76</ele>
        <time>2019-05-12T02:31:44.000Z</time>
      </trkpt>
      <trkpt lat="48.73045" lon="2.27223">
        <ele>76</ele>
        <time>2019-05-12T02:31:48.000Z</time>
      </trkpt>
      <trkpt lat="48.73047" lon="2.27215">
        <ele>75</ele>
        <time>2019-05-12T02:31:52.000Z</time>
      </trkpt>
      <trkpt lat="48.7305" lon="2.27208">
        <ele>75</ele>
        <time>2019-05-12T02:31:56.000Z</time>
      </trkpt>
      <trkpt lat="48.7305" lon="2.27208">
        <ele>75</ele>
        <time>2019-05-12T02:31:58.000Z</time>
      </trkpt>
      <trkpt lat="48.7305" lon="2.27208">
        <ele>75</ele>
        <time>2019-05-12T02:32:00.000Z</time>
      </trkpt>
      <trkpt lat="48.7305" lon="2.27208">
        <ele>75</ele>
        <time>2019-05-12T02:32:02.000Z</time>
      </trkpt>
      <trkpt lat="48.73052" lon="2.27197">
        <ele>75</ele>
        <time>2019-05-12T02:32:04.000Z</time>
      </trkpt>
      <trkpt lat="48.73053" lon="2.27189">
        <ele>75</ele>
        <time>2019-05-12T02:32:06.000Z</time>
      </trkpt>
      <trkpt lat="48.73053" lon="2.27189">
        <ele>75</ele>
        <time>2019-05-12T02:32:08.000Z</time>
      </trkpt>
      <trkpt lat="48.73053" lon="2.27181">
        <ele>75</ele>
        <time>2019-05-12T02:32:10.000Z</time>
      </trkpt>
      <trkpt lat="48.73053" lon="2.27174">
        <ele>74</ele>
        <time>2019-05-12T02:32:12.000Z</time>
      </trkpt>
      <trkpt lat="48.73053" lon="2.27174">
        <ele>74</ele>
        <time>2019-05-12T02:32:14.000Z</time>
      </trkpt>
      <trkpt lat="48.73053" lon="2.27174">
        <ele>74</ele>
        <time>2019-05-12T02:32:16.000Z</time>
      </trkpt>
      <trkpt lat="48.73053" lon="2.27174">
        <ele>74</ele>
        <time>2019-05-12T02:32:18.000Z</time>
      </trkpt>
      <trkpt lat="48.73053" lon="2.27174">
        <ele>74</ele>
        <time>2019-05-12T02:32:20.000Z</time>
      </trkpt>
      <trkpt lat="48.73053" lon="2.27174">
        <ele>74</ele>
        <time>2019-05-12T02:32:22.000Z</time>
      </trkpt>
      <trkpt lat="48.73054" lon="2.27157">
        <ele>72</ele>
        <time>2019-05-12T02:32:26.000Z</time>
      </trkpt>
      <trkpt lat="48.73053" lon="2.27146">
        <ele>72</ele>
        <time>2019-05-12T02:32:28.000Z</time>
      </trkpt>
      <trkpt lat="48.73054" lon="2.27138">
        <ele>72</ele>
        <time>2019-05-12T02:32:30.000Z</time>
      </trkpt>
      <trkpt lat="48.73056" lon="2.27131">
        <ele>72</ele>
        <time>2019-05-12T02:32:32.000Z</time>
      </trkpt>
      <trkpt lat="48.73056" lon="2.27131">
        <ele>72</ele>
        <time>2019-05-12T02:32:36.000Z</time>
      </trkpt>
      <trkpt lat="48.73056" lon="2.27131">
        <ele>72</ele>
        <time>2019-05-12T02:32:38.000Z</time>
      </trkpt>
      <trkpt lat="48.73056" lon="2.27131">
        <ele>72</ele>
        <time>2019-05-12T02:32:40.000Z</time>
      </trkpt>
      <trkpt lat="48.73061" lon="2.27118">
        <ele>72</ele>
        <time>2019-05-12T02:32:44.000Z</time>
      </trkpt>
      <trkpt lat="48.73063" lon="2.27107">
        <ele>72</ele>
        <time>2019-05-12T02:32:46.000Z</time>
      </trkpt>
      <trkpt lat="48.73065" lon="2.27099">
        <ele>72</ele>
        <time>2019-05-12T02:32:48.000Z</time>
      </trkpt>
      <trkpt lat="48.73065" lon="2.27099">
        <ele>72</ele>
        <time>2019-05-12T02:32:50.000Z</time>
      </trkpt>
      <trkpt lat="48.73065" lon="2.27099">
        <ele>72</ele>
        <time>2019-05-12T02:32:52.000Z</time>
      </trkpt>
      <trkpt lat="48.73065" lon="2.27099">
        <ele>72</ele>
        <time>2019-05-12T02:32:54.000Z</time>
      </trkpt>
      <trkpt lat="48.73071" lon="2.27088">
        <ele>71</ele>
        <time>2019-05-12T02:33:02.000Z</time>
      </trkpt>
      <trkpt lat="48.73075" lon="2.27081">
        <ele>71</ele>
        <time>2019-05-12T02:33:04.000Z</time>
      </trkpt>
      <trkpt lat="48.73079" lon="2.27076">
        <ele>71</ele>
        <time>2019-05-12T02:33:06.000Z</time>
      </trkpt>
      <trkpt lat="48.73084" lon="2.27072">
        <ele>70</ele>
        <time>2019-05-12T02:33:10.000Z</time>
      </trkpt>
      <trkpt lat="48.73084" lon="2.27072">
        <ele>70</ele>
        <time>2019-05-12T02:33:12.000Z</time>
      </trkpt>
      <trkpt lat="48.73084" lon="2.27072">
        <ele>70</ele>
        <time>2019-05-12T02:33:14.000Z</time>
      </trkpt>
      <trkpt lat="48.73084" lon="2.27072">
        <ele>70</ele>
        <time>2019-05-12T02:33:16.000Z</time>
      </trkpt>
      <trkpt lat="48.73084" lon="2.27072">
        <ele>70</ele>
        <time>2019-05-12T02:33:18.000Z</time>
      </trkpt>
      <trkpt lat="48.73084" lon="2.27072">
        <ele>70</ele>
        <time>2019-05-12T02:33:20.000Z</time>
      </trkpt>
      <trkpt lat="48.73094" lon="2.27054">
        <ele>70</ele>
        <time>2019-05-12T02:33:26.000Z</time>
      </trkpt>
      <trkpt lat="48.731" lon="2.27043">
        <ele>70</ele>
        <time>2019-05-12T02:33:28.000Z</time>
      </trkpt>
      <trkpt lat="48.73104" lon="2.27037">
        <ele>70</ele>
        <time>2019-05-12T02:33:30.000Z</time>
      </trkpt>
      <trkpt lat="48.73108" lon="2.27032">
        <ele>70</ele>
        <time>2019-05-12T02:33:32.000Z</time>
      </trkpt>
      <trkpt lat="48.73108" lon="2.27032">
        <ele>70</ele>
        <time>2019-05-12T02:33:34.000Z</time>
      </trkpt>
      <trkpt lat="48.73108" lon="2.27032">
        <ele>70</ele>
        <time>2019-05-12T02:33:36.000Z</time>
      </trkpt>
      <trkpt lat="48.73108" lon="2.27032">
        <ele>70</ele>
        <time>2019-05-12T02:33:38.000Z</time>
      </trkpt>
      <trkpt lat="48.73108" lon="2.27032">
        <ele>70</ele>
        <time>2019-05-12T02:33:42.000Z</time>
      </trkpt>
      <trkpt lat="48.73108" lon="2.27032">
        <ele>70</ele>
        <time>2019-05-12T02:33:44.000Z</time>
      </trkpt>
      <trkpt lat="48.73119" lon="2.27022">
        <ele>70</ele>
        <time>2019-05-12T02:33:46.000Z</time>
      </trkpt>
      <trkpt lat="48.73126" lon="2.27016">
        <ele>70</ele>
        <time>2019-05-12T02:33:48.000Z</time>
      </trkpt>
      <trkpt lat="48.73132" lon="2.27013">
        <ele>69</ele>
        <time>2019-05-12T02:33:50.000Z</time>
      </trkpt>
      <trkpt lat="48.73136" lon="2.27012">
        <ele>69</ele>
        <time>2019-05-12T02:33:52.000Z</time>
      </trkpt>
      <trkpt lat="48.73136" lon="2.27012">
        <ele>69</ele>
        <time>2019-05-12T02:33:54.000Z</time>
      </trkpt>
      <trkpt lat="48.73136" lon="2.27012">
        <ele>69</ele>
        <time>2019-05-12T02:33:56.000Z</time>
      </trkpt>
      <trkpt lat="48.73136" lon="2.27012">
        <ele>69</ele>
        <time>2019-05-12T02:33:58.000Z</time>
      </trkpt>
      <trkpt lat="48.73136" lon="2.27012">
        <ele>69</ele>
        <time>2019-05-12T02:34:00.000Z</time>
      </trkpt>
      <trkpt lat="48.73146" lon="2.27012">
        <ele>69</ele>
        <time>2019-05-12T02:34:04.000Z</time>
      </trkpt>
      <trkpt lat="48.73153" lon="2.27012">
        <ele>69</ele>
        <time>2019-05-12T02:34:06.000Z</time>
      </trkpt>
      <trkpt lat="48.73158" lon="2.2701">
        <ele>69</ele>
        <time>2019-05-12T02:34:08.000Z</time>
      </trkpt>
      <trkpt lat="48.73162" lon="2.27005">
        <ele>68</ele>
        <time>2019-05-12T02:34:12.000Z</time>
      </trkpt>
      <trkpt lat="48.73162" lon="2.27005">
        <ele>68</ele>
        <time>2019-05-12T02:34:14.000Z</time>
      </trkpt>
      <trkpt lat="48.73162" lon="2.27005">
        <ele>68</ele>
        <time>2019-05-12T02:34:16.000Z</time>
      </trkpt>
      <trkpt lat="48.73162" lon="2.27005">
        <ele>68</ele>
        <time>2019-05-12T02:34:18.000Z</time>
      </trkpt>
      <trkpt lat="48.73162" lon="2.27005">
        <ele>68</ele>
        <time>2019-05-12T02:34:20.000Z</time>
      </trkpt>
      <trkpt lat="48.73162" lon="2.27005">
        <ele>68</ele>
        <time>2019-05-12T02:34:22.000Z</time>
      </trkpt>
      <trkpt lat="48.73162" lon="2.27005">
        <ele>68</ele>
        <time>2019-05-12T02:34:24.000Z</time>
      </trkpt>
      <trkpt lat="48.73162" lon="2.27005">
        <ele>68</ele>
        <time>2019-05-12T02:34:26.000Z</time>
      </trkpt>
      <trkpt lat="48.73172" lon="2.27007">
        <ele>68</ele>
        <time>2019-05-12T02:34:28.000Z</time>
      </trkpt>
      <trkpt lat="48.73178" lon="2.27008">
        <ele>68</ele>
        <time>2019-05-12T02:34:30.000Z</time>
      </trkpt>
      <trkpt lat="48.73183" lon="2.27009">
        <ele>68</ele>
        <time>2019-05-12T02:34:32.000Z</time>
      </trkpt>
      <trkpt lat="48.73188" lon="2.27011">
        <ele>68</ele>
        <time>2019-05-12T02:34:36.000Z</time>
      </trkpt>
      <trkpt lat="48.73194" lon="2.27012">
        <ele>69</ele>
        <time>2019-05-12T02:34:38.000Z</time>
      </trkpt>
      <trkpt lat="48.73198" lon="2.27012">
        <ele>69</ele>
        <time>2019-05-12T02:34:40.000Z</time>
      </trkpt>
      <trkpt lat="48.73203" lon="2.27012">
        <ele>69</ele>
        <time>2019-05-12T02:34:44.000Z</time>
      </trkpt>
      <trkpt lat="48.73203" lon="2.27012">
        <ele>69</ele>
        <time>2019-05-12T02:34:46.000Z</time>
      </trkpt>
      <trkpt lat="48.7321" lon="2.27013">
        <ele>69</ele>
        <time>2019-05-12T02:34:50.000Z</time>
      </trkpt>
      <trkpt lat="48.73215" lon="2.27014">
        <ele>69</ele>
        <time>2019-05-12T02:34:52.000Z</time>
      </trkpt>
      <trkpt lat="48.73221" lon="2.27018">
        <ele>69</ele>
        <time>2019-05-12T02:34:56.000Z</time>
      </trkpt>
      <trkpt lat="48.73221" lon="2.27018">
        <ele>69</ele>
        <time>2019-05-12T02:34:58.000Z</time>
      </trkpt>
      <trkpt lat="48.73226" lon="2.27022">
        <ele>69</ele>
        <time>2019-05-12T02:35:00.000Z</time>
      </trkpt>
      <trkpt lat="48.73226" lon="2.27022">
        <ele>69</ele>
        <time>2019-05-12T02:35:02.000Z</time>
      </trkpt>
      <trkpt lat="48.73226" lon="2.27022">
        <ele>69</ele>
        <time>2019-05-12T02:35:04.000Z</time>
      </trkpt>
      <trkpt lat="48.73233" lon="2.27029">
        <ele>69</ele>
        <time>2019-05-12T02:35:08.000Z</time>
      </trkpt>
      <trkpt lat="48.73239" lon="2.27034">
        <ele>69</ele>
        <time>2019-05-12T02:35:10.000Z</time>
      </trkpt>
      <trkpt lat="48.73243" lon="2.27039">
        <ele>69</ele>
        <time>2019-05-12T02:35:12.000Z</time>
      </trkpt>
      <trkpt lat="48.73243" lon="2.27039">
        <ele>69</ele>
        <time>2019-05-12T02:35:14.000Z</time>
      </trkpt>
      <trkpt lat="48.73243" lon="2.27039">
        <ele>69</ele>
        <time>2019-05-12T02:35:16.000Z</time>
      </trkpt>
      <trkpt lat="48.73243" lon="2.27039">
        <ele>69</ele>
        <time>2019-05-12T02:35:18.000Z</time>
      </trkpt>
      <trkpt lat="48.73243" lon="2.27039">
        <ele>69</ele>
        <time>2019-05-12T02:35:20.000Z</time>
      </trkpt>
      <trkpt lat="48.73251" lon="2.27047">
        <ele>71</ele>
        <time>2019-05-12T02:35:24.000Z</time>
      </trkpt>
      <trkpt lat="48.73256" lon="2.27052">
        <ele>70</ele>
        <time>2019-05-12T02:35:26.000Z</time>
      </trkpt>
      <trkpt lat="48.73259" lon="2.27057">
        <ele>70</ele>
        <time>2019-05-12T02:35:28.000Z</time>
      </trkpt>
      <trkpt lat="48.73264" lon="2.27062">
        <ele>70</ele>
        <time>2019-05-12T02:35:32.000Z</time>
      </trkpt>
      <trkpt lat="48.73264" lon="2.27062">
        <ele>70</ele>
        <time>2019-05-12T02:35:34.000Z</time>
      </trkpt>
      <trkpt lat="48.73264" lon="2.27062">
        <ele>70</ele>
        <time>2019-05-12T02:35:36.000Z</time>
      </trkpt>
      <trkpt lat="48.73264" lon="2.27062">
        <ele>70</ele>
        <time>2019-05-12T02:35:38.000Z</time>
      </trkpt>
      <trkpt lat="48.73264" lon="2.27062">
        <ele>70</ele>
        <time>2019-05-12T02:35:40.000Z</time>
      </trkpt>
      <trkpt lat="48.73274" lon="2.27071">
        <ele>70</ele>
        <time>2019-05-12T02:35:44.000Z</time>
      </trkpt>
      <trkpt lat="48.73281" lon="2.27077">
        <ele>71</ele>
        <time>2019-05-12T02:35:46.000Z</time>
      </trkpt>
      <trkpt lat="48.73285" lon="2.27082">
        <ele>71</ele>
        <time>2019-05-12T02:35:48.000Z</time>
      </trkpt>
      <trkpt lat="48.73285" lon="2.27082">
        <ele>71</ele>
        <time>2019-05-12T02:35:50.000Z</time>
      </trkpt>
      <trkpt lat="48.73285" lon="2.27082">
        <ele>71</ele>
        <time>2019-05-12T02:35:52.000Z</time>
      </trkpt>
      <trkpt lat="48.73285" lon="2.27082">
        <ele>71</ele>
        <time>2019-05-12T02:35:54.000Z</time>
      </trkpt>
      <trkpt lat="48.73285" lon="2.27082">
        <ele>71</ele>
        <time>2019-05-12T02:35:56.000Z</time>
      </trkpt>
      <trkpt lat="48.73285" lon="2.27082">
        <ele>71</ele>
        <time>2019-05-12T02:35:58.000Z</time>
      </trkpt>
      <trkpt lat="48.73285" lon="2.27082">
        <ele>71</ele>
        <time>2019-05-12T02:36:00.000Z</time>
      </trkpt>
      <trkpt lat="48.73296" lon="2.27097">
        <ele>71</ele>
        <time>2019-05-12T02:36:06.000Z</time>
      </trkpt>
      <trkpt lat="48.73302" lon="2.27107">
        <ele>71</ele>
        <time>2019-05-12T02:36:08.000Z</time>
      </trkpt>
      <trkpt lat="48.73307" lon="2.27115">
        <ele>71</ele>
        <time>2019-05-12T02:36:10.000Z</time>
      </trkpt>
      <trkpt lat="48.7331" lon="2.27121">
        <ele>71</ele>
        <time>2019-05-12T02:36:12.000Z</time>
      </trkpt>
      <trkpt lat="48.7331" lon="2.27121">
        <ele>71</ele>
        <time>2019-05-12T02:36:14.000Z</time>
      </trkpt>
      <trkpt lat="48.7331" lon="2.27121">
        <ele>71</ele>
        <time>2019-05-12T02:36:16.000Z</time>
      </trkpt>
      <trkpt lat="48.7331" lon="2.27121">
        <ele>71</ele>
        <time>2019-05-12T02:36:18.000Z</time>
      </trkpt>
      <trkpt lat="48.7331" lon="2.27121">
        <ele>71</ele>
        <time>2019-05-12T02:36:20.000Z</time>
      </trkpt>
      <trkpt lat="48.7332" lon="2.27126">
        <ele>71</ele>
        <time>2019-05-12T02:36:26.000Z</time>
      </trkpt>
      <trkpt lat="48.73326" lon="2.27129">
        <ele>71</ele>
        <time>2019-05-12T02:36:28.000Z</time>
      </trkpt>
      <trkpt lat="48.73326" lon="2.27129">
        <ele>71</ele>
        <time>2019-05-12T02:36:32.000Z</time>
      </trkpt>
      <trkpt lat="48.73326" lon="2.27129">
        <ele>71</ele>
        <time>2019-05-12T02:36:34.000Z</time>
      </trkpt>
      <trkpt lat="48.73326" lon="2.27129">
        <ele>71</ele>
        <time>2019-05-12T02:36:36.000Z</time>
      </trkpt>
      <trkpt lat="48.7334" lon="2.27129">
        <ele>73</ele>
        <time>2019-05-12T02:36:42.000Z</time>
      </trkpt>
      <trkpt lat="48.73349" lon="2.27128">
        <ele>73</ele>
        <time>2019-05-12T02:36:44.000Z</time>
      </trkpt>
      <trkpt lat="48.73354" lon="2.27126">
        <ele>73</ele>
        <time>2019-05-12T02:36:46.000Z</time>
      </trkpt>
      <trkpt lat="48.73354" lon="2.27126">
        <ele>73</ele>
        <time>2019-05-12T02:36:48.000Z</time>
      </trkpt>
      <trkpt lat="48.73362" lon="2.27123">
        <ele>73</ele>
        <time>2019-05-12T02:36:54.000Z</time>
      </trkpt>
      <trkpt lat="48.73367" lon="2.27122">
        <ele>73</ele>
        <time>2019-05-12T02:36:56.000Z</time>
      </trkpt>
      <trkpt lat="48.73367" lon="2.27122">
        <ele>73</ele>
        <time>2019-05-12T02:36:58.000Z</time>
      </trkpt>
      <trkpt lat="48.73367" lon="2.27122">
        <ele>73</ele>
        <time>2019-05-12T02:37:00.000Z</time>
      </trkpt>
      <trkpt lat="48.73367" lon="2.27122">
        <ele>73</ele>
        <time>2019-05-12T02:37:02.000Z</time>
      </trkpt>
      <trkpt lat="48.73376" lon="2.27123">
        <ele>73</ele>
        <time>2019-05-12T02:37:06.000Z</time>
      </trkpt>
      <trkpt lat="48.73376" lon="2.27123">
        <ele>73</ele>
        <time>2019-05-12T02:37:12.000Z</time>
      </trkpt>
      <trkpt lat="48.73376" lon="2.27123">
        <ele>73</ele>
        <time>2019-05-12T02:37:14.000Z</time>
      </trkpt>
      <trkpt lat="48.73376" lon="2.27123">
        <ele>73</ele>
        <time>2019-05-12T02:37:16.000Z</time>
      </trkpt>
      <trkpt lat="48.73376" lon="2.27123">
        <ele>73</ele>
        <time>2019-05-12T02:37:18.000Z</time>
      </trkpt>
      <trkpt lat="48.73376" lon="2.27123">
        <ele>73</ele>
        <time>2019-05-12T02:37:20.000Z</time>
      </trkpt>
      <trkpt lat="48.73376" lon="2.27123">
        <ele>73</ele>
        <time>2019-05-12T02:37:22.000Z</time>
      </trkpt>
      <trkpt lat="48.73396" lon="2.27116">
        <ele>73</ele>
        <time>2019-05-12T02:37:24.000Z</time>
      </trkpt>
      <trkpt lat="48.73409" lon="2.27112">
        <ele>72</ele>
        <time>2019-05-12T02:37:26.000Z</time>
      </trkpt>
      <trkpt lat="48.73417" lon="2.2711">
        <ele>71</ele>
        <time>2019-05-12T02:37:28.000Z</time>
      </trkpt>
      <trkpt lat="48.73423" lon="2.27108">
        <ele>71</ele>
        <time>2019-05-12T02:37:30.000Z</time>
      </trkpt>
      <trkpt lat="48.73423" lon="2.27108">
        <ele>71</ele>
        <time>2019-05-12T02:37:32.000Z</time>
      </trkpt>
      <trkpt lat="48.73423" lon="2.27108">
        <ele>71</ele>
        <time>2019-05-12T02:37:34.000Z</time>
      </trkpt>
      <trkpt lat="48.73423" lon="2.27108">
        <ele>71</ele>
        <time>2019-05-12T02:37:36.000Z</time>
      </trkpt>
      <trkpt lat="48.73428" lon="2.27097">
        <ele>71</ele>
        <time>2019-05-12T02:37:40.000Z</time>
      </trkpt>
      <trkpt lat="48.73431" lon="2.27089">
        <ele>71</ele>
        <time>2019-05-12T02:37:42.000Z</time>
      </trkpt>
      <trkpt lat="48.73433" lon="2.27083">
        <ele>68</ele>
        <time>2019-05-12T02:37:44.000Z</time>
      </trkpt>
      <trkpt lat="48.73433" lon="2.27083">
        <ele>68</ele>
        <time>2019-05-12T02:37:46.000Z</time>
      </trkpt>
      <trkpt lat="48.73436" lon="2.27075">
        <ele>68</ele>
        <time>2019-05-12T02:37:48.000Z</time>
      </trkpt>
      <trkpt lat="48.73437" lon="2.27068">
        <ele>67</ele>
        <time>2019-05-12T02:37:52.000Z</time>
      </trkpt>
      <trkpt lat="48.73437" lon="2.27068">
        <ele>67</ele>
        <time>2019-05-12T02:37:54.000Z</time>
      </trkpt>
      <trkpt lat="48.73439" lon="2.2706">
        <ele>67</ele>
        <time>2019-05-12T02:37:56.000Z</time>
      </trkpt>
      <trkpt lat="48.73442" lon="2.27053">
        <ele>66</ele>
        <time>2019-05-12T02:37:58.000Z</time>
      </trkpt>
      <trkpt lat="48.73442" lon="2.27053">
        <ele>66</ele>
        <time>2019-05-12T02:38:00.000Z</time>
      </trkpt>
      <trkpt lat="48.73442" lon="2.27053">
        <ele>66</ele>
        <time>2019-05-12T02:38:02.000Z</time>
      </trkpt>
      <trkpt lat="48.73442" lon="2.27053">
        <ele>66</ele>
        <time>2019-05-12T02:38:04.000Z</time>
      </trkpt>
      <trkpt lat="48.73442" lon="2.27053">
        <ele>66</ele>
        <time>2019-05-12T02:38:06.000Z</time>
      </trkpt>
      <trkpt lat="48.7345" lon="2.2704">
        <ele>65</ele>
        <time>2019-05-12T02:38:12.000Z</time>
      </trkpt>
      <trkpt lat="48.73455" lon="2.27032">
        <ele>65</ele>
        <time>2019-05-12T02:38:14.000Z</time>
      </trkpt>
      <trkpt lat="48.73459" lon="2.27028">
        <ele>65</ele>
        <time>2019-05-12T02:38:16.000Z</time>
      </trkpt>
      <trkpt lat="48.73459" lon="2.27028">
        <ele>65</ele>
        <time>2019-05-12T02:38:18.000Z</time>
      </trkpt>
      <trkpt lat="48.73464" lon="2.27021">
        <ele>64</ele>
        <time>2019-05-12T02:38:24.000Z</time>
      </trkpt>
      <trkpt lat="48.73467" lon="2.27016">
        <ele>64</ele>
        <time>2019-05-12T02:38:26.000Z</time>
      </trkpt>
      <trkpt lat="48.73469" lon="2.27008">
        <ele>64</ele>
        <time>2019-05-12T02:38:30.000Z</time>
      </trkpt>
      <trkpt lat="48.73471" lon="2.27">
        <ele>63</ele>
        <time>2019-05-12T02:38:34.000Z</time>
      </trkpt>
      <trkpt lat="48.73471" lon="2.27">
        <ele>63</ele>
        <time>2019-05-12T02:38:38.000Z</time>
      </trkpt>
      <trkpt lat="48.73471" lon="2.27">
        <ele>63</ele>
        <time>2019-05-12T02:38:40.000Z</time>
      </trkpt>
      <trkpt lat="48.73471" lon="2.27">
        <ele>63</ele>
        <time>2019-05-12T02:38:42.000Z</time>
      </trkpt>
      <trkpt lat="48.7348" lon="2.26989">
        <ele>61</ele>
        <time>2019-05-12T02:38:46.000Z</time>
      </trkpt>
      <trkpt lat="48.73485" lon="2.26984">
        <ele>61</ele>
        <time>2019-05-12T02:38:48.000Z</time>
      </trkpt>
      <trkpt lat="48.7349" lon="2.26981">
        <ele>61</ele>
        <time>2019-05-12T02:38:50.000Z</time>
      </trkpt>
      <trkpt lat="48.73496" lon="2.2698">
        <ele>61</ele>
        <time>2019-05-12T02:38:54.000Z</time>
      </trkpt>
      <trkpt lat="48.73496" lon="2.2698">
        <ele>61</ele>
        <time>2019-05-12T02:38:56.000Z</time>
      </trkpt>
      <trkpt lat="48.73496" lon="2.2698">
        <ele>61</ele>
        <time>2019-05-12T02:38:58.000Z</time>
      </trkpt>
      <trkpt lat="48.73496" lon="2.2698">
        <ele>61</ele>
        <time>2019-05-12T02:39:00.000Z</time>
      </trkpt>
      <trkpt lat="48.73505" lon="2.26983">
        <ele>60</ele>
        <time>2019-05-12T02:39:04.000Z</time>
      </trkpt>
      <trkpt lat="48.73511" lon="2.26986">
        <ele>60</ele>
        <time>2019-05-12T02:39:06.000Z</time>
      </trkpt>
      <trkpt lat="48.73515" lon="2.26988">
        <ele>60</ele>
        <time>2019-05-12T02:39:08.000Z</time>
      </trkpt>
      <trkpt lat="48.73515" lon="2.26988">
        <ele>60</ele>
        <time>2019-05-12T02:39:12.000Z</time>
      </trkpt>
      <trkpt lat="48.73524" lon="2.26997">
        <ele>60</ele>
        <time>2019-05-12T02:39:20.000Z</time>
      </trkpt>
      <trkpt lat="48.7353" lon="2.27003">
        <ele>61</ele>
        <time>2019-05-12T02:39:22.000Z</time>
      </trkpt>
      <trkpt lat="48.73534" lon="2.27008">
        <ele>61</ele>
        <time>2019-05-12T02:39:24.000Z</time>
      </trkpt>
      <trkpt lat="48.73539" lon="2.27012">
        <ele>61</ele>
        <time>2019-05-12T02:39:28.000Z</time>
      </trkpt>
      <trkpt lat="48.73539" lon="2.27012">
        <ele>61</ele>
        <time>2019-05-12T02:39:30.000Z</time>
      </trkpt>
      <trkpt lat="48.73539" lon="2.27012">
        <ele>61</ele>
        <time>2019-05-12T02:39:32.000Z</time>
      </trkpt>
      <trkpt lat="48.73539" lon="2.27012">
        <ele>61</ele>
        <time>2019-05-12T02:39:34.000Z</time>
      </trkpt>
      <trkpt lat="48.73539" lon="2.27012">
        <ele>61</ele>
        <time>2019-05-12T02:39:38.000Z</time>
      </trkpt>
      <trkpt lat="48.73553" lon="2.27017">
        <ele>61</ele>
        <time>2019-05-12T02:39:44.000Z</time>
      </trkpt>
      <trkpt lat="48.73561" lon="2.2702">
        <ele>61</ele>
        <time>2019-05-12T02:39:46.000Z</time>
      </trkpt>
      <trkpt lat="48.73565" lon="2.27021">
        <ele>61</ele>
        <time>2019-05-12T02:39:48.000Z</time>
      </trkpt>
      <trkpt lat="48.73565" lon="2.27021">
        <ele>61</ele>
        <time>2019-05-12T02:39:50.000Z</time>
      </trkpt>
      <trkpt lat="48.73565" lon="2.27021">
        <ele>61</ele>
        <time>2019-05-12T02:39:52.000Z</time>
      </trkpt>
      <trkpt lat="48.73565" lon="2.27021">
        <ele>61</ele>
        <time>2019-05-12T02:39:56.000Z</time>
      </trkpt>
      <trkpt lat="48.73574" lon="2.27023">
        <ele>61</ele>
        <time>2019-05-12T02:39:58.000Z</time>
      </trkpt>
      <trkpt lat="48.7358" lon="2.27025">
        <ele>61</ele>
        <time>2019-05-12T02:40:00.000Z</time>
      </trkpt>
      <trkpt lat="48.7358" lon="2.27025">
        <ele>61</ele>
        <time>2019-05-12T02:40:02.000Z</time>
      </trkpt>
      <trkpt lat="48.7358" lon="2.27025">
        <ele>61</ele>
        <time>2019-05-12T02:40:04.000Z</time>
      </trkpt>
      <trkpt lat="48.7358" lon="2.27025">
        <ele>61</ele>
        <time>2019-05-12T02:40:06.000Z</time>
      </trkpt>
      <trkpt lat="48.7358" lon="2.27025">
        <ele>61</ele>
        <time>2019-05-12T02:40:08.000Z</time>
      </trkpt>
      <trkpt lat="48.73588" lon="2.27029">
        <ele>61</ele>
        <time>2019-05-12T02:40:10.000Z</time>
      </trkpt>
      <trkpt lat="48.73594" lon="2.27032">
        <ele>61</ele>
        <time>2019-05-12T02:40:12.000Z</time>
      </trkpt>
      <trkpt lat="48.73598" lon="2.27034">
        <ele>61</ele>
        <time>2019-05-12T02:40:14.000Z</time>
      </trkpt>
      <trkpt lat="48.73603" lon="2.27037">
        <ele>61</ele>
        <time>2019-05-12T02:40:16.000Z</time>
      </trkpt>
      <trkpt lat="48.73609" lon="2.2704">
        <ele>61</ele>
        <time>2019-05-12T02:40:20.000Z</time>
      </trkpt>
      <trkpt lat="48.73609" lon="2.2704">
        <ele>61</ele>
        <time>2019-05-12T02:40:22.000Z</time>
      </trkpt>
      <trkpt lat="48.73609" lon="2.2704">
        <ele>61</ele>
        <time>2019-05-12T02:40:24.000Z</time>
      </trkpt>
      <trkpt lat="48.73609" lon="2.2704">
        <ele>61</ele>
        <time>2019-05-12T02:40:26.000Z</time>
      </trkpt>
      <trkpt lat="48.73609" lon="2.2704">
        <ele>61</ele>
        <time>2019-05-12T02:40:28.000Z</time>
      </trkpt>
      <trkpt lat="48.73621" lon="2.27045">
        <ele>61</ele>
        <time>2019-05-12T02:40:32.000Z</time>
      </trkpt>
      <trkpt lat="48.73628" lon="2.27047">
        <ele>61</ele>
        <time>2019-05-12T02:40:34.000Z</time>
      </trkpt>
      <trkpt lat="48.73633" lon="2.27048">
        <ele>61</ele>
        <time>2019-05-12T02:40:36.000Z</time>
      </trkpt>
      <trkpt lat="48.73633" lon="2.27048">
        <ele>61</ele>
        <time>2019-05-12T02:40:38.000Z</time>
      </trkpt>
      <trkpt lat="48.73633" lon="2.27048">
        <ele>61</ele>
        <time>2019-05-12T02:40:46.000Z</time>
      </trkpt>
      <trkpt lat="48.73633" lon="2.27048">
        <ele>61</ele>
        <time>2019-05-12T02:40:48.000Z</time>
      </trkpt>
      <trkpt lat="48.73633" lon="2.27048">
        <ele>61</ele>
        <time>2019-05-12T02:40:50.000Z</time>
      </trkpt>
      <trkpt lat="48.73633" lon="2.27048">
        <ele>61</ele>
        <time>2019-05-12T02:40:52.000Z</time>
      </trkpt>
      <trkpt lat="48.73652" lon="2.27046">
        <ele>62</ele>
        <time>2019-05-12T02:41:00.000Z</time>
      </trkpt>
      <trkpt lat="48.73662" lon="2.27043">
        <ele>62</ele>
        <time>2019-05-12T02:41:02.000Z</time>
      </trkpt>
      <trkpt lat="48.73669" lon="2.2704">
        <ele>61</ele>
        <time>2019-05-12T02:41:04.000Z</time>
      </trkpt>
      <trkpt lat="48.73669" lon="2.2704">
        <ele>61</ele>
        <time>2019-05-12T02:41:06.000Z</time>
      </trkpt>
      <trkpt lat="48.73673" lon="2.27035">
        <ele>61</ele>
        <time>2019-05-12T02:41:08.000Z</time>
      </trkpt>
      <trkpt lat="48.73678" lon="2.2703">
        <ele>60</ele>
        <time>2019-05-12T02:41:12.000Z</time>
      </trkpt>
      <trkpt lat="48.73682" lon="2.27025">
        <ele>60</ele>
        <time>2019-05-12T02:41:16.000Z</time>
      </trkpt>
      <trkpt lat="48.73682" lon="2.27025">
        <ele>60</ele>
        <time>2019-05-12T02:41:18.000Z</time>
      </trkpt>
      <trkpt lat="48.73682" lon="2.27025">
        <ele>60</ele>
        <time>2019-05-12T02:41:20.000Z</time>
      </trkpt>
      <trkpt lat="48.73682" lon="2.27025">
        <ele>60</ele>
        <time>2019-05-12T02:41:22.000Z</time>
      </trkpt>
      <trkpt lat="48.73682" lon="2.27025">
        <ele>60</ele>
        <time>2019-05-12T02:41:24.000Z</time>
      </trkpt>
      <trkpt lat="48.7369" lon="2.27017">
        <ele>60</ele>
        <time>2019-05-12T02:41:28.000Z</time>
      </trkpt>
      <trkpt lat="48.73694" lon="2.27011">
        <ele>60</ele>
        <time>2019-05-12T02:41:30.000Z</time>
      </trkpt>
      <trkpt lat="48.73694" lon="2.27011">
        <ele>60</ele>
        <time>2019-05-12T02:41:32.000Z</time>
      </trkpt>
      <trkpt lat="48.73694" lon="2.27011">
        <ele>60</ele>
        <time>2019-05-12T02:41:34.000Z</time>
      </trkpt>
      <trkpt lat="48.737" lon="2.27003">
        <ele>60</ele>
        <time>2019-05-12T02:41:38.000Z</time>
      </trkpt>
      <trkpt lat="48.73703" lon="2.26996">
        <ele>58</ele>
        <time>2019-05-12T02:41:40.000Z</time>
      </trkpt>
      <trkpt lat="48.73708" lon="2.2699">
        <ele>58</ele>
        <time>2019-05-12T02:41:44.000Z</time>
      </trkpt>
      <trkpt lat="48.7371" lon="2.26985">
        <ele>58</ele>
        <time>2019-05-12T02:41:46.000Z</time>
      </trkpt>
      <trkpt lat="48.73714" lon="2.26978">
        <ele>57</ele>
        <time>2019-05-12T02:41:50.000Z</time>
      </trkpt>
      <trkpt lat="48.73714" lon="2.26978">
        <ele>57</ele>
        <time>2019-05-12T02:41:52.000Z</time>
      </trkpt>
      <trkpt lat="48.73718" lon="2.26968">
        <ele>57</ele>
        <time>2019-05-12T02:41:56.000Z</time>
      </trkpt>
      <trkpt lat="48.73721" lon="2.26962">
        <ele>57</ele>
        <time>2019-05-12T02:41:58.000Z</time>
      </trkpt>
      <trkpt lat="48.73721" lon="2.26962">
        <ele>57</ele>
        <time>2019-05-12T02:42:00.000Z</time>
      </trkpt>
      <trkpt lat="48.73721" lon="2.26962">
        <ele>57</ele>
        <time>2019-05-12T02:42:02.000Z</time>
      </trkpt>
      <trkpt lat="48.73721" lon="2.26962">
        <ele>57</ele>
        <time>2019-05-12T02:42:04.000Z</time>
      </trkpt>
      <trkpt lat="48.73721" lon="2.26962">
        <ele>57</ele>
        <time>2019-05-12T02:42:06.000Z</time>
      </trkpt>
      <trkpt lat="48.73721" lon="2.26962">
        <ele>57</ele>
        <time>2019-05-12T02:42:08.000Z</time>
      </trkpt>
      <trkpt lat="48.73729" lon="2.26951">
        <ele>57</ele>
        <time>2019-05-12T02:42:10.000Z</time>
      </trkpt>
      <trkpt lat="48.73736" lon="2.26944">
        <ele>57</ele>
        <time>2019-05-12T02:42:12.000Z</time>
      </trkpt>
      <trkpt lat="48.7374" lon="2.2694">
        <ele>56</ele>
        <time>2019-05-12T02:42:14.000Z</time>
      </trkpt>
      <trkpt lat="48.7374" lon="2.2694">
        <ele>56</ele>
        <time>2019-05-12T02:42:16.000Z</time>
      </trkpt>
      <trkpt lat="48.7374" lon="2.2694">
        <ele>56</ele>
        <time>2019-05-12T02:42:18.000Z</time>
      </trkpt>
      <trkpt lat="48.7374" lon="2.2694">
        <ele>56</ele>
        <time>2019-05-12T02:42:20.000Z</time>
      </trkpt>
      <trkpt lat="48.7374" lon="2.2694">
        <ele>56</ele>
        <time>2019-05-12T02:42:22.000Z</time>
      </trkpt>
      <trkpt lat="48.7374" lon="2.2694">
        <ele>56</ele>
        <time>2019-05-12T02:42:26.000Z</time>
      </trkpt>
      <trkpt lat="48.7374" lon="2.2694">
        <ele>56</ele>
        <time>2019-05-12T02:42:28.000Z</time>
      </trkpt>
      <trkpt lat="48.73752" lon="2.26936">
        <ele>56</ele>
        <time>2019-05-12T02:42:32.000Z</time>
      </trkpt>
      <trkpt lat="48.73759" lon="2.26933">
        <ele>56</ele>
        <time>2019-05-12T02:42:34.000Z</time>
      </trkpt>
      <trkpt lat="48.73759" lon="2.26933">
        <ele>56</ele>
        <time>2019-05-12T02:42:36.000Z</time>
      </trkpt>
      <trkpt lat="48.73759" lon="2.26933">
        <ele>56</ele>
        <time>2019-05-12T02:42:38.000Z</time>
      </trkpt>
      <trkpt lat="48.73759" lon="2.26933">
        <ele>56</ele>
        <time>2019-05-12T02:42:40.000Z</time>
      </trkpt>
      <trkpt lat="48.73762" lon="2.26923">
        <ele>55</ele>
        <time>2019-05-12T02:42:46.000Z</time>
      </trkpt>
      <trkpt lat="48.73762" lon="2.26923">
        <ele>55</ele>
        <time>2019-05-12T02:42:48.000Z</time>
      </trkpt>
      <trkpt lat="48.73762" lon="2.26923">
        <ele>55</ele>
        <time>2019-05-12T02:42:50.000Z</time>
      </trkpt>
      <trkpt lat="48.73762" lon="2.26923">
        <ele>55</ele>
        <time>2019-05-12T02:42:52.000Z</time>
      </trkpt>
      <trkpt lat="48.73761" lon="2.26911">
        <ele>55</ele>
        <time>2019-05-12T02:42:56.000Z</time>
      </trkpt>
      <trkpt lat="48.73761" lon="2.26903">
        <ele>56</ele>
        <time>2019-05-12T02:42:58.000Z</time>
      </trkpt>
      <trkpt lat="48.73761" lon="2.26903">
        <ele>56</ele>
        <time>2019-05-12T02:43:00.000Z</time>
      </trkpt>
      <trkpt lat="48.73761" lon="2.26903">
        <ele>56</ele>
        <time>2019-05-12T02:43:02.000Z</time>
      </trkpt>
      <trkpt lat="48.7376" lon="2.2689">
        <ele>56</ele>
        <time>2019-05-12T02:43:08.000Z</time>
      </trkpt>
      <trkpt lat="48.73759" lon="2.26882">
        <ele>56</ele>
        <time>2019-05-12T02:43:10.000Z</time>
      </trkpt>
      <trkpt lat="48.73759" lon="2.26882">
        <ele>56</ele>
        <time>2019-05-12T02:43:12.000Z</time>
      </trkpt>
      <trkpt lat="48.73758" lon="2.26874">
        <ele>56</ele>
        <time>2019-05-12T02:43:14.000Z</time>
      </trkpt>
      <trkpt lat="48.73756" lon="2.26867">
        <ele>56</ele>
        <time>2019-05-12T02:43:16.000Z</time>
      </trkpt>
      <trkpt lat="48.73755" lon="2.2686">
        <ele>56</ele>
        <time>2019-05-12T02:43:20.000Z</time>
      </trkpt>
      <trkpt lat="48.73755" lon="2.2686">
        <ele>56</ele>
        <time>2019-05-12T02:43:22.000Z</time>
      </trkpt>
      <trkpt lat="48.73755" lon="2.2686">
        <ele>56</ele>
        <time>2019-05-12T02:43:24.000Z</time>
      </trkpt>
      <trkpt lat="48.73753" lon="2.26848">
        <ele>56</ele>
        <time>2019-05-12T02:43:28.000Z</time>
      </trkpt>
      <trkpt lat="48.73752" lon="2.26839">
        <ele>56</ele>
        <time>2019-05-12T02:43:30.000Z</time>
      </trkpt>
      <trkpt lat="48.73751" lon="2.26831">
        <ele>56</ele>
        <time>2019-05-12T02:43:32.000Z</time>
      </trkpt>
      <trkpt lat="48.73753" lon="2.26823">
        <ele>56</ele>
        <time>2019-05-12T02:43:36.000Z</time>
      </trkpt>
      <trkpt lat="48.73753" lon="2.26816">
        <ele>56</ele>
        <time>2019-05-12T02:43:38.000Z</time>
      </trkpt>
      <trkpt lat="48.73753" lon="2.26816">
        <ele>56</ele>
        <time>2019-05-12T02:43:42.000Z</time>
      </trkpt>
      <trkpt lat="48.73753" lon="2.26816">
        <ele>56</ele>
        <time>2019-05-12T02:43:44.000Z</time>
      </trkpt>
      <trkpt lat="48.73753" lon="2.26816">
        <ele>56</ele>
        <time>2019-05-12T02:43:46.000Z</time>
      </trkpt>
      <trkpt lat="48.73753" lon="2.26816">
        <ele>56</ele>
        <time>2019-05-12T02:43:48.000Z</time>
      </trkpt>
      <trkpt lat="48.73754" lon="2.26797">
        <ele>56</ele>
        <time>2019-05-12T02:43:52.000Z</time>
      </trkpt>
      <trkpt lat="48.73754" lon="2.26785">
        <ele>56</ele>
        <time>2019-05-12T02:43:54.000Z</time>
      </trkpt>
      <trkpt lat="48.73755" lon="2.26775">
        <ele>56</ele>
        <time>2019-05-12T02:43:56.000Z</time>
      </trkpt>
      <trkpt lat="48.73756" lon="2.26768">
        <ele>56</ele>
        <time>2019-05-12T02:43:58.000Z</time>
      </trkpt>
      <trkpt lat="48.73756" lon="2.26768">
        <ele>56</ele>
        <time>2019-05-12T02:44:00.000Z</time>
      </trkpt>
      <trkpt lat="48.73756" lon="2.26768">
        <ele>56</ele>
        <time>2019-05-12T02:44:02.000Z</time>
      </trkpt>
      <trkpt lat="48.73756" lon="2.26768">
        <ele>56</ele>
        <time>2019-05-12T02:44:04.000Z</time>
      </trkpt>
      <trkpt lat="48.73756" lon="2.26768">
        <ele>56</ele>
        <time>2019-05-12T02:44:06.000Z</time>
      </trkpt>
      <trkpt lat="48.73756" lon="2.26768">
        <ele>56</ele>
        <time>2019-05-12T02:44:08.000Z</time>
      </trkpt>
      <trkpt lat="48.73757" lon="2.2675">
        <ele>55</ele>
        <time>2019-05-12T02:44:12.000Z</time>
      </trkpt>
      <trkpt lat="48.73758" lon="2.26738">
        <ele>56</ele>
        <time>2019-05-12T02:44:14.000Z</time>
      </trkpt>
      <trkpt lat="48.73759" lon="2.26729">
        <ele>56</ele>
        <time>2019-05-12T02:44:16.000Z</time>
      </trkpt>
      <trkpt lat="48.7376" lon="2.26722">
        <ele>56</ele>
        <time>2019-05-12T02:44:18.000Z</time>
      </trkpt>
      <trkpt lat="48.7376" lon="2.26722">
        <ele>56</ele>
        <time>2019-05-12T02:44:20.000Z</time>
      </trkpt>
      <trkpt lat="48.7376" lon="2.26722">
        <ele>56</ele>
        <time>2019-05-12T02:44:22.000Z</time>
      </trkpt>
      <trkpt lat="48.7376" lon="2.26722">
        <ele>56</ele>
        <time>2019-05-12T02:44:24.000Z</time>
      </trkpt>
      <trkpt lat="48.73762" lon="2.26709">
        <ele>56</ele>
        <time>2019-05-12T02:44:30.000Z</time>
      </trkpt>
      <trkpt lat="48.73764" lon="2.26699">
        <ele>56</ele>
        <time>2019-05-12T02:44:32.000Z</time>
      </trkpt>
      <trkpt lat="48.73766" lon="2.26693">
        <ele>56</ele>
        <time>2019-05-12T02:44:34.000Z</time>
      </trkpt>
      <trkpt lat="48.73768" lon="2.26684">
        <ele>56</ele>
        <time>2019-05-12T02:44:38.000Z</time>
      </trkpt>
      <trkpt lat="48.7377" lon="2.26677">
        <ele>56</ele>
        <time>2019-05-12T02:44:40.000Z</time>
      </trkpt>
      <trkpt lat="48.7377" lon="2.26677">
        <ele>56</ele>
        <time>2019-05-12T02:44:42.000Z</time>
      </trkpt>
      <trkpt lat="48.7377" lon="2.26677">
        <ele>56</ele>
        <time>2019-05-12T02:44:44.000Z</time>
      </trkpt>
      <trkpt lat="48.7377" lon="2.26677">
        <ele>56</ele>
        <time>2019-05-12T02:44:46.000Z</time>
      </trkpt>
      <trkpt lat="48.73771" lon="2.26668">
        <ele>56</ele>
        <time>2019-05-12T02:44:50.000Z</time>
      </trkpt>
      <trkpt lat="48.73772" lon="2.2666">
        <ele>56</ele>
        <time>2019-05-12T02:44:52.000Z</time>
      </trkpt>
      <trkpt lat="48.73774" lon="2.26651">
        <ele>56</ele>
        <time>2019-05-12T02:44:56.000Z</time>
      </trkpt>
      <trkpt lat="48.73776" lon="2.26642">
        <ele>56</ele>
        <time>2019-05-12T02:44:58.000Z</time>
      </trkpt>
      <trkpt lat="48.73777" lon="2.26635">
        <ele>56</ele>
        <time>2019-05-12T02:45:00.000Z</time>
      </trkpt>
      <trkpt lat="48.73777" lon="2.26635">
        <ele>56</ele>
        <time>2019-05-12T02:45:02.000Z</time>
      </trkpt>
      <trkpt lat="48.73777" lon="2.26635">
        <ele>56</ele>
        <time>2019-05-12T02:45:04.000Z</time>
      </trkpt>
      <trkpt lat="48.73777" lon="2.26635">
        <ele>56</ele>
        <time>2019-05-12T02:45:06.000Z</time>
      </trkpt>
      <trkpt lat="48.7378" lon="2.26619">
        <ele>57</ele>
        <time>2019-05-12T02:45:12.000Z</time>
      </trkpt>
      <trkpt lat="48.73782" lon="2.26609">
        <ele>57</ele>
        <time>2019-05-12T02:45:14.000Z</time>
      </trkpt>
      <trkpt lat="48.73783" lon="2.26602">
        <ele>57</ele>
        <time>2019-05-12T02:45:16.000Z</time>
      </trkpt>
      <trkpt lat="48.73786" lon="2.26593">
        <ele>57</ele>
        <time>2019-05-12T02:45:20.000Z</time>
      </trkpt>
      <trkpt lat="48.73788" lon="2.26585">
        <ele>57</ele>
        <time>2019-05-12T02:45:22.000Z</time>
      </trkpt>
      <trkpt lat="48.73788" lon="2.26585">
        <ele>57</ele>
        <time>2019-05-12T02:45:24.000Z</time>
      </trkpt>
      <trkpt lat="48.73788" lon="2.26585">
        <ele>57</ele>
        <time>2019-05-12T02:45:26.000Z</time>
      </trkpt>
      <trkpt lat="48.73788" lon="2.26585">
        <ele>57</ele>
        <time>2019-05-12T02:45:28.000Z</time>
      </trkpt>
      <trkpt lat="48.73788" lon="2.26585">
        <ele>57</ele>
        <time>2019-05-12T02:45:30.000Z</time>
      </trkpt>
      <trkpt lat="48.73794" lon="2.26569">
        <ele>58</ele>
        <time>2019-05-12T02:45:36.000Z</time>
      </trkpt>
      <trkpt lat="48.73798" lon="2.26559">
        <ele>58</ele>
        <time>2019-05-12T02:45:38.000Z</time>
      </trkpt>
      <trkpt lat="48.738" lon="2.26552">
        <ele>58</ele>
        <time>2019-05-12T02:45:40.000Z</time>
      </trkpt>
      <trkpt lat="48.73802" lon="2.26543">
        <ele>58</ele>
        <time>2019-05-12T02:45:44.000Z</time>
      </trkpt>
      <trkpt lat="48.73803" lon="2.26536">
        <ele>58</ele>
        <time>2019-05-12T02:45:46.000Z</time>
      </trkpt>
      <trkpt lat="48.73803" lon="2.26536">
        <ele>58</ele>
        <time>2019-05-12T02:45:48.000Z</time>
      </trkpt>
      <trkpt lat="48.73803" lon="2.26536">
        <ele>58</ele>
        <time>2019-05-12T02:45:50.000Z</time>
      </trkpt>
      <trkpt lat="48.73803" lon="2.26536">
        <ele>58</ele>
        <time>2019-05-12T02:45:52.000Z</time>
      </trkpt>
      <trkpt lat="48.73806" lon="2.26522">
        <ele>58</ele>
        <time>2019-05-12T02:45:56.000Z</time>
      </trkpt>
      <trkpt lat="48.73808" lon="2.26513">
        <ele>58</ele>
        <time>2019-05-12T02:45:58.000Z</time>
      </trkpt>
      <trkpt lat="48.73809" lon="2.26507">
        <ele>59</ele>
        <time>2019-05-12T02:46:00.000Z</time>
      </trkpt>
      <trkpt lat="48.73809" lon="2.26507">
        <ele>59</ele>
        <time>2019-05-12T02:46:02.000Z</time>
      </trkpt>
      <trkpt lat="48.73811" lon="2.26499">
        <ele>59</ele>
        <time>2019-05-12T02:46:04.000Z</time>
      </trkpt>
      <trkpt lat="48.73812" lon="2.26492">
        <ele>59</ele>
        <time>2019-05-12T02:46:06.000Z</time>
      </trkpt>
      <trkpt lat="48.73812" lon="2.26492">
        <ele>59</ele>
        <time>2019-05-12T02:46:10.000Z</time>
      </trkpt>
      <trkpt lat="48.73812" lon="2.26492">
        <ele>59</ele>
        <time>2019-05-12T02:46:12.000Z</time>
      </trkpt>
      <trkpt lat="48.73812" lon="2.26492">
        <ele>59</ele>
        <time>2019-05-12T02:46:14.000Z</time>
      </trkpt>
      <trkpt lat="48.73812" lon="2.26492">
        <ele>59</ele>
        <time>2019-05-12T02:46:16.000Z</time>
      </trkpt>
      <trkpt lat="48.73812" lon="2.26475">
        <ele>59</ele>
        <time>2019-05-12T02:46:20.000Z</time>
      </trkpt>
      <trkpt lat="48.73812" lon="2.26464">
        <ele>59</ele>
        <time>2019-05-12T02:46:22.000Z</time>
      </trkpt>
      <trkpt lat="48.73812" lon="2.26456">
        <ele>59</ele>
        <time>2019-05-12T02:46:24.000Z</time>
      </trkpt>
      <trkpt lat="48.73812" lon="2.26456">
        <ele>59</ele>
        <time>2019-05-12T02:46:26.000Z</time>
      </trkpt>
      <trkpt lat="48.73813" lon="2.26448">
        <ele>59</ele>
        <time>2019-05-12T02:46:28.000Z</time>
      </trkpt>
      <trkpt lat="48.73814" lon="2.26441">
        <ele>59</ele>
        <time>2019-05-12T02:46:30.000Z</time>
      </trkpt>
      <trkpt lat="48.73815" lon="2.26433">
        <ele>59</ele>
        <time>2019-05-12T02:46:34.000Z</time>
      </trkpt>
      <trkpt lat="48.73815" lon="2.26433">
        <ele>59</ele>
        <time>2019-05-12T02:46:36.000Z</time>
      </trkpt>
      <trkpt lat="48.73815" lon="2.26433">
        <ele>59</ele>
        <time>2019-05-12T02:46:38.000Z</time>
      </trkpt>
      <trkpt lat="48.73815" lon="2.26433">
        <ele>59</ele>
        <time>2019-05-12T02:46:40.000Z</time>
      </trkpt>
      <trkpt lat="48.73815" lon="2.26433">
        <ele>59</ele>
        <time>2019-05-12T02:46:42.000Z</time>
      </trkpt>
      <trkpt lat="48.73815" lon="2.26433">
        <ele>59</ele>
        <time>2019-05-12T02:46:44.000Z</time>
      </trkpt>
      <trkpt lat="48.73815" lon="2.26417">
        <ele>59</ele>
        <time>2019-05-12T02:46:48.000Z</time>
      </trkpt>
      <trkpt lat="48.73816" lon="2.26407">
        <ele>59</ele>
        <time>2019-05-12T02:46:50.000Z</time>
      </trkpt>
      <trkpt lat="48.73816" lon="2.264">
        <ele>59</ele>
        <time>2019-05-12T02:46:52.000Z</time>
      </trkpt>
      <trkpt lat="48.73816" lon="2.26391">
        <ele>59</ele>
        <time>2019-05-12T02:46:56.000Z</time>
      </trkpt>
      <trkpt lat="48.73816" lon="2.26383">
        <ele>59</ele>
        <time>2019-05-12T02:46:58.000Z</time>
      </trkpt>
      <trkpt lat="48.73816" lon="2.26383">
        <ele>59</ele>
        <time>2019-05-12T02:47:02.000Z</time>
      </trkpt>
      <trkpt lat="48.73816" lon="2.26383">
        <ele>59</ele>
        <time>2019-05-12T02:47:04.000Z</time>
      </trkpt>
      <trkpt lat="48.73816" lon="2.26383">
        <ele>59</ele>
        <time>2019-05-12T02:47:06.000Z</time>
      </trkpt>
      <trkpt lat="48.73816" lon="2.26367">
        <ele>59</ele>
        <time>2019-05-12T02:47:10.000Z</time>
      </trkpt>
      <trkpt lat="48.73816" lon="2.26356">
        <ele>59</ele>
        <time>2019-05-12T02:47:12.000Z</time>
      </trkpt>
      <trkpt lat="48.73816" lon="2.26349">
        <ele>59</ele>
        <time>2019-05-12T02:47:14.000Z</time>
      </trkpt>
      <trkpt lat="48.73816" lon="2.26349">
        <ele>59</ele>
        <time>2019-05-12T02:47:16.000Z</time>
      </trkpt>
      <trkpt lat="48.73816" lon="2.26349">
        <ele>59</ele>
        <time>2019-05-12T02:47:18.000Z</time>
      </trkpt>
      <trkpt lat="48.73816" lon="2.26349">
        <ele>59</ele>
        <time>2019-05-12T02:47:20.000Z</time>
      </trkpt>
      <trkpt lat="48.73816" lon="2.26349">
        <ele>59</ele>
        <time>2019-05-12T02:47:22.000Z</time>
      </trkpt>
      <trkpt lat="48.73816" lon="2.26349">
        <ele>59</ele>
        <time>2019-05-12T02:47:24.000Z</time>
      </trkpt>
      <trkpt lat="48.73816" lon="2.26349">
        <ele>59</ele>
        <time>2019-05-12T02:47:26.000Z</time>
      </trkpt>
      <trkpt lat="48.73813" lon="2.26324">
        <ele>60</ele>
        <time>2019-05-12T02:47:32.000Z</time>
      </trkpt>
      <trkpt lat="48.73812" lon="2.2631">
        <ele>60</ele>
        <time>2019-05-12T02:47:34.000Z</time>
      </trkpt>
      <trkpt lat="48.73812" lon="2.26299">
        <ele>60</ele>
        <time>2019-05-12T02:47:36.000Z</time>
      </trkpt>
      <trkpt lat="48.73812" lon="2.26291">
        <ele>60</ele>
        <time>2019-05-12T02:47:38.000Z</time>
      </trkpt>
      <trkpt lat="48.73812" lon="2.26291">
        <ele>60</ele>
        <time>2019-05-12T02:47:40.000Z</time>
      </trkpt>
      <trkpt lat="48.73812" lon="2.26291">
        <ele>60</ele>
        <time>2019-05-12T02:47:42.000Z</time>
      </trkpt>
      <trkpt lat="48.73812" lon="2.26291">
        <ele>60</ele>
        <time>2019-05-12T02:47:44.000Z</time>
      </trkpt>
      <trkpt lat="48.73812" lon="2.26291">
        <ele>60</ele>
        <time>2019-05-12T02:47:46.000Z</time>
      </trkpt>
      <trkpt lat="48.73812" lon="2.26291">
        <ele>60</ele>
        <time>2019-05-12T02:47:48.000Z</time>
      </trkpt>
      <trkpt lat="48.7381" lon="2.26273">
        <ele>60</ele>
        <time>2019-05-12T02:47:52.000Z</time>
      </trkpt>
      <trkpt lat="48.73808" lon="2.26262">
        <ele>60</ele>
        <time>2019-05-12T02:47:54.000Z</time>
      </trkpt>
      <trkpt lat="48.73808" lon="2.26255">
        <ele>60</ele>
        <time>2019-05-12T02:47:56.000Z</time>
      </trkpt>
      <trkpt lat="48.73807" lon="2.26246">
        <ele>62</ele>
        <time>2019-05-12T02:48:00.000Z</time>
      </trkpt>
      <trkpt lat="48.73806" lon="2.26239">
        <ele>62</ele>
        <time>2019-05-12T02:48:02.000Z</time>
      </trkpt>
      <trkpt lat="48.73806" lon="2.26239">
        <ele>62</ele>
        <time>2019-05-12T02:48:04.000Z</time>
      </trkpt>
      <trkpt lat="48.73806" lon="2.26239">
        <ele>62</ele>
        <time>2019-05-12T02:48:06.000Z</time>
      </trkpt>
      <trkpt lat="48.73806" lon="2.26239">
        <ele>62</ele>
        <time>2019-05-12T02:48:08.000Z</time>
      </trkpt>
      <trkpt lat="48.73802" lon="2.26226">
        <ele>62</ele>
        <time>2019-05-12T02:48:12.000Z</time>
      </trkpt>
      <trkpt lat="48.738" lon="2.26217">
        <ele>62</ele>
        <time>2019-05-12T02:48:14.000Z</time>
      </trkpt>
      <trkpt lat="48.73798" lon="2.2621">
        <ele>62</ele>
        <time>2019-05-12T02:48:18.000Z</time>
      </trkpt>
      <trkpt lat="48.73795" lon="2.26204">
        <ele>62</ele>
        <time>2019-05-12T02:48:20.000Z</time>
      </trkpt>
      <trkpt lat="48.73793" lon="2.26196">
        <ele>62</ele>
        <time>2019-05-12T02:48:24.000Z</time>
      </trkpt>
      <trkpt lat="48.73793" lon="2.26196">
        <ele>62</ele>
        <time>2019-05-12T02:48:26.000Z</time>
      </trkpt>
      <trkpt lat="48.73793" lon="2.26196">
        <ele>62</ele>
        <time>2019-05-12T02:48:28.000Z</time>
      </trkpt>
      <trkpt lat="48.73793" lon="2.26196">
        <ele>62</ele>
        <time>2019-05-12T02:48:30.000Z</time>
      </trkpt>
      <trkpt lat="48.73788" lon="2.2618">
        <ele>62</ele>
        <time>2019-05-12T02:48:36.000Z</time>
      </trkpt>
      <trkpt lat="48.73786" lon="2.2617">
        <ele>62</ele>
        <time>2019-05-12T02:48:38.000Z</time>
      </trkpt>
      <trkpt lat="48.73783" lon="2.26161">
        <ele>63</ele>
        <time>2019-05-12T02:48:40.000Z</time>
      </trkpt>
      <trkpt lat="48.73782" lon="2.26154">
        <ele>63</ele>
        <time>2019-05-12T02:48:42.000Z</time>
      </trkpt>
      <trkpt lat="48.7378" lon="2.26147">
        <ele>63</ele>
        <time>2019-05-12T02:48:44.000Z</time>
      </trkpt>
      <trkpt lat="48.7378" lon="2.26147">
        <ele>63</ele>
        <time>2019-05-12T02:48:46.000Z</time>
      </trkpt>
      <trkpt lat="48.7378" lon="2.26147">
        <ele>63</ele>
        <time>2019-05-12T02:48:48.000Z</time>
      </trkpt>
      <trkpt lat="48.7378" lon="2.26147">
        <ele>63</ele>
        <time>2019-05-12T02:48:50.000Z</time>
      </trkpt>
      <trkpt lat="48.7378" lon="2.26147">
        <ele>63</ele>
        <time>2019-05-12T02:48:52.000Z</time>
      </trkpt>
      <trkpt lat="48.73776" lon="2.26114">
        <ele>64</ele>
        <time>2019-05-12T02:48:58.000Z</time>
      </trkpt>
      <trkpt lat="48.73775" lon="2.26099">
        <ele>64</ele>
        <time>2019-05-12T02:49:04.000Z</time>
      </trkpt>
      <trkpt lat="48.73775" lon="2.26099">
        <ele>64</ele>
        <time>2019-05-12T02:49:06.000Z</time>
      </trkpt>
      <trkpt lat="48.73775" lon="2.26099">
        <ele>64</ele>
        <time>2019-05-12T02:49:08.000Z</time>
      </trkpt>
      <trkpt lat="48.73775" lon="2.26099">
        <ele>64</ele>
        <time>2019-05-12T02:49:10.000Z</time>
      </trkpt>
      <trkpt lat="48.73771" lon="2.2608">
        <ele>65</ele>
        <time>2019-05-12T02:49:16.000Z</time>
      </trkpt>
      <trkpt lat="48.73769" lon="2.26064">
        <ele>65</ele>
        <time>2019-05-12T02:49:22.000Z</time>
      </trkpt>
      <trkpt lat="48.73769" lon="2.26064">
        <ele>65</ele>
        <time>2019-05-12T02:49:24.000Z</time>
      </trkpt>
      <trkpt lat="48.73769" lon="2.26064">
        <ele>65</ele>
        <time>2019-05-12T02:49:26.000Z</time>
      </trkpt>
      <trkpt lat="48.73769" lon="2.26064">
        <ele>65</ele>
        <time>2019-05-12T02:49:28.000Z</time>
      </trkpt>
      <trkpt lat="48.73764" lon="2.26044">
        <ele>65</ele>
        <time>2019-05-12T02:49:34.000Z</time>
      </trkpt>
      <trkpt lat="48.73764" lon="2.26044">
        <ele>65</ele>
        <time>2019-05-12T02:49:38.000Z</time>
      </trkpt>
      <trkpt lat="48.73762" lon="2.26027">
        <ele>65</ele>
        <time>2019-05-12T02:49:42.000Z</time>
      </trkpt>
      <trkpt lat="48.73762" lon="2.26027">
        <ele>65</ele>
        <time>2019-05-12T02:49:44.000Z</time>
      </trkpt>
      <trkpt lat="48.73762" lon="2.26027">
        <ele>65</ele>
        <time>2019-05-12T02:49:46.000Z</time>
      </trkpt>
      <trkpt lat="48.73762" lon="2.26027">
        <ele>65</ele>
        <time>2019-05-12T02:49:48.000Z</time>
      </trkpt>
      <trkpt lat="48.73759" lon="2.2601">
        <ele>65</ele>
        <time>2019-05-12T02:49:52.000Z</time>
      </trkpt>
      <trkpt lat="48.73755" lon="2.25996">
        <ele>64</ele>
        <time>2019-05-12T02:49:58.000Z</time>
      </trkpt>
      <trkpt lat="48.73755" lon="2.25996">
        <ele>64</ele>
        <time>2019-05-12T02:50:00.000Z</time>
      </trkpt>
      <trkpt lat="48.73755" lon="2.25996">
        <ele>64</ele>
        <time>2019-05-12T02:50:02.000Z</time>
      </trkpt>
      <trkpt lat="48.73755" lon="2.25996">
        <ele>64</ele>
        <time>2019-05-12T02:50:04.000Z</time>
      </trkpt>
      <trkpt lat="48.73755" lon="2.25996">
        <ele>64</ele>
        <time>2019-05-12T02:50:06.000Z</time>
      </trkpt>
      <trkpt lat="48.73752" lon="2.25984">
        <ele>64</ele>
        <time>2019-05-12T02:50:10.000Z</time>
      </trkpt>
      <trkpt lat="48.7375" lon="2.25976">
        <ele>63</ele>
        <time>2019-05-12T02:50:12.000Z</time>
      </trkpt>
      <trkpt lat="48.73749" lon="2.25968">
        <ele>63</ele>
        <time>2019-05-12T02:50:14.000Z</time>
      </trkpt>
      <trkpt lat="48.73749" lon="2.25968">
        <ele>63</ele>
        <time>2019-05-12T02:50:18.000Z</time>
      </trkpt>
      <trkpt lat="48.73749" lon="2.25968">
        <ele>63</ele>
        <time>2019-05-12T02:50:20.000Z</time>
      </trkpt>
      <trkpt lat="48.73749" lon="2.25968">
        <ele>63</ele>
        <time>2019-05-12T02:50:22.000Z</time>
      </trkpt>
      <trkpt lat="48.73747" lon="2.25954">
        <ele>63</ele>
        <time>2019-05-12T02:50:26.000Z</time>
      </trkpt>
      <trkpt lat="48.73746" lon="2.25943">
        <ele>63</ele>
        <time>2019-05-12T02:50:28.000Z</time>
      </trkpt>
      <trkpt lat="48.73745" lon="2.25936">
        <ele>62</ele>
        <time>2019-05-12T02:50:30.000Z</time>
      </trkpt>
      <trkpt lat="48.73745" lon="2.25936">
        <ele>62</ele>
        <time>2019-05-12T02:50:32.000Z</time>
      </trkpt>
      <trkpt lat="48.73745" lon="2.25936">
        <ele>62</ele>
        <time>2019-05-12T02:50:34.000Z</time>
      </trkpt>
      <trkpt lat="48.73745" lon="2.25936">
        <ele>62</ele>
        <time>2019-05-12T02:50:36.000Z</time>
      </trkpt>
      <trkpt lat="48.73744" lon="2.25924">
        <ele>62</ele>
        <time>2019-05-12T02:50:40.000Z</time>
      </trkpt>
      <trkpt lat="48.73744" lon="2.25916">
        <ele>62</ele>
        <time>2019-05-12T02:50:42.000Z</time>
      </trkpt>
      <trkpt lat="48.73745" lon="2.25907">
        <ele>62</ele>
        <time>2019-05-12T02:50:46.000Z</time>
      </trkpt>
      <trkpt lat="48.73745" lon="2.25907">
        <ele>62</ele>
        <time>2019-05-12T02:50:48.000Z</time>
      </trkpt>
      <trkpt lat="48.73745" lon="2.25907">
        <ele>62</ele>
        <time>2019-05-12T02:50:50.000Z</time>
      </trkpt>
      <trkpt lat="48.73745" lon="2.25907">
        <ele>62</ele>
        <time>2019-05-12T02:50:52.000Z</time>
      </trkpt>
      <trkpt lat="48.73745" lon="2.25907">
        <ele>62</ele>
        <time>2019-05-12T02:50:54.000Z</time>
      </trkpt>
      <trkpt lat="48.73746" lon="2.25892">
        <ele>63</ele>
        <time>2019-05-12T02:50:58.000Z</time>
      </trkpt>
      <trkpt lat="48.73746" lon="2.25883">
        <ele>63</ele>
        <time>2019-05-12T02:51:00.000Z</time>
      </trkpt>
      <trkpt lat="48.73747" lon="2.25876">
        <ele>63</ele>
        <time>2019-05-12T02:51:02.000Z</time>
      </trkpt>
      <trkpt lat="48.73747" lon="2.25867">
        <ele>63</ele>
        <time>2019-05-12T02:51:06.000Z</time>
      </trkpt>
      <trkpt lat="48.73748" lon="2.25858">
        <ele>63</ele>
        <time>2019-05-12T02:51:10.000Z</time>
      </trkpt>
      <trkpt lat="48.73748" lon="2.25852">
        <ele>63</ele>
        <time>2019-05-12T02:51:12.000Z</time>
      </trkpt>
      <trkpt lat="48.73748" lon="2.25843">
        <ele>63</ele>
        <time>2019-05-12T02:51:16.000Z</time>
      </trkpt>
      <trkpt lat="48.73749" lon="2.25836">
        <ele>62</ele>
        <time>2019-05-12T02:51:18.000Z</time>
      </trkpt>
      <trkpt lat="48.73749" lon="2.25827">
        <ele>63</ele>
        <time>2019-05-12T02:51:22.000Z</time>
      </trkpt>
      <trkpt lat="48.73749" lon="2.25827">
        <ele>63</ele>
        <time>2019-05-12T02:51:24.000Z</time>
      </trkpt>
      <trkpt lat="48.73749" lon="2.25827">
        <ele>63</ele>
        <time>2019-05-12T02:51:26.000Z</time>
      </trkpt>
      <trkpt lat="48.73749" lon="2.25827">
        <ele>63</ele>
        <time>2019-05-12T02:51:28.000Z</time>
      </trkpt>
      <trkpt lat="48.73749" lon="2.25827">
        <ele>63</ele>
        <time>2019-05-12T02:51:30.000Z</time>
      </trkpt>
      <trkpt lat="48.73749" lon="2.25827">
        <ele>63</ele>
        <time>2019-05-12T02:51:32.000Z</time>
      </trkpt>
      <trkpt lat="48.73749" lon="2.25827">
        <ele>63</ele>
        <time>2019-05-12T02:51:34.000Z</time>
      </trkpt>
      <trkpt lat="48.73749" lon="2.25827">
        <ele>63</ele>
        <time>2019-05-12T02:51:36.000Z</time>
      </trkpt>
      <trkpt lat="48.73751" lon="2.25806">
        <ele>64</ele>
        <time>2019-05-12T02:51:38.000Z</time>
      </trkpt>
      <trkpt lat="48.73751" lon="2.25793">
        <ele>65</ele>
        <time>2019-05-12T02:51:40.000Z</time>
      </trkpt>
      <trkpt lat="48.73753" lon="2.25784">
        <ele>65</ele>
        <time>2019-05-12T02:51:42.000Z</time>
      </trkpt>
      <trkpt lat="48.73754" lon="2.25777">
        <ele>65</ele>
        <time>2019-05-12T02:51:44.000Z</time>
      </trkpt>
      <trkpt lat="48.73756" lon="2.25768">
        <ele>65</ele>
        <time>2019-05-12T02:51:48.000Z</time>
      </trkpt>
      <trkpt lat="48.73759" lon="2.25761">
        <ele>65</ele>
        <time>2019-05-12T02:51:50.000Z</time>
      </trkpt>
      <trkpt lat="48.73759" lon="2.25761">
        <ele>65</ele>
        <time>2019-05-12T02:51:52.000Z</time>
      </trkpt>
      <trkpt lat="48.73759" lon="2.25761">
        <ele>65</ele>
        <time>2019-05-12T02:51:54.000Z</time>
      </trkpt>
      <trkpt lat="48.73759" lon="2.25761">
        <ele>65</ele>
        <time>2019-05-12T02:51:56.000Z</time>
      </trkpt>
      <trkpt lat="48.73759" lon="2.25761">
        <ele>65</ele>
        <time>2019-05-12T02:51:58.000Z</time>
      </trkpt>
      <trkpt lat="48.73759" lon="2.25761">
        <ele>65</ele>
        <time>2019-05-12T02:52:00.000Z</time>
      </trkpt>
      <trkpt lat="48.73763" lon="2.25745">
        <ele>66</ele>
        <time>2019-05-12T02:52:04.000Z</time>
      </trkpt>
      <trkpt lat="48.73766" lon="2.25735">
        <ele>66</ele>
        <time>2019-05-12T02:52:06.000Z</time>
      </trkpt>
      <trkpt lat="48.73767" lon="2.25728">
        <ele>66</ele>
        <time>2019-05-12T02:52:08.000Z</time>
      </trkpt>
      <trkpt lat="48.73769" lon="2.25721">
        <ele>66</ele>
        <time>2019-05-12T02:52:10.000Z</time>
      </trkpt>
      <trkpt lat="48.73771" lon="2.25713">
        <ele>66</ele>
        <time>2019-05-12T02:52:14.000Z</time>
      </trkpt>
      <trkpt lat="48.73771" lon="2.25713">
        <ele>66</ele>
        <time>2019-05-12T02:52:16.000Z</time>
      </trkpt>
      <trkpt lat="48.73771" lon="2.25713">
        <ele>66</ele>
        <time>2019-05-12T02:52:18.000Z</time>
      </trkpt>
      <trkpt lat="48.73771" lon="2.25713">
        <ele>66</ele>
        <time>2019-05-12T02:52:20.000Z</time>
      </trkpt>
      <trkpt lat="48.73771" lon="2.25713">
        <ele>66</ele>
        <time>2019-05-12T02:52:22.000Z</time>
      </trkpt>
      <trkpt lat="48.73774" lon="2.25696">
        <ele>66</ele>
        <time>2019-05-12T02:52:26.000Z</time>
      </trkpt>
      <trkpt lat="48.73776" lon="2.25685">
        <ele>66</ele>
        <time>2019-05-12T02:52:28.000Z</time>
      </trkpt>
      <trkpt lat="48.73778" lon="2.25677">
        <ele>66</ele>
        <time>2019-05-12T02:52:30.000Z</time>
      </trkpt>
      <trkpt lat="48.73779" lon="2.25671">
        <ele>66</ele>
        <time>2019-05-12T02:52:32.000Z</time>
      </trkpt>
      <trkpt lat="48.73781" lon="2.25663">
        <ele>66</ele>
        <time>2019-05-12T02:52:36.000Z</time>
      </trkpt>
      <trkpt lat="48.73781" lon="2.25663">
        <ele>66</ele>
        <time>2019-05-12T02:52:38.000Z</time>
      </trkpt>
      <trkpt lat="48.73781" lon="2.25663">
        <ele>66</ele>
        <time>2019-05-12T02:52:40.000Z</time>
      </trkpt>
      <trkpt lat="48.73781" lon="2.25663">
        <ele>66</ele>
        <time>2019-05-12T02:52:42.000Z</time>
      </trkpt>
      <trkpt lat="48.73781" lon="2.25663">
        <ele>66</ele>
        <time>2019-05-12T02:52:44.000Z</time>
      </trkpt>
      <trkpt lat="48.73784" lon="2.25649">
        <ele>66</ele>
        <time>2019-05-12T02:52:48.000Z</time>
      </trkpt>
      <trkpt lat="48.73786" lon="2.25639">
        <ele>66</ele>
        <time>2019-05-12T02:52:50.000Z</time>
      </trkpt>
      <trkpt lat="48.73788" lon="2.25632">
        <ele>66</ele>
        <time>2019-05-12T02:52:52.000Z</time>
      </trkpt>
      <trkpt lat="48.7379" lon="2.25624">
        <ele>65</ele>
        <time>2019-05-12T02:52:56.000Z</time>
      </trkpt>
      <trkpt lat="48.73792" lon="2.25617">
        <ele>65</ele>
        <time>2019-05-12T02:52:58.000Z</time>
      </trkpt>
      <trkpt lat="48.73793" lon="2.2561">
        <ele>65</ele>
        <time>2019-05-12T02:53:00.000Z</time>
      </trkpt>
      <trkpt lat="48.73793" lon="2.2561">
        <ele>65</ele>
        <time>2019-05-12T02:53:02.000Z</time>
      </trkpt>
      <trkpt lat="48.73793" lon="2.2561">
        <ele>65</ele>
        <time>2019-05-12T02:53:04.000Z</time>
      </trkpt>
      <trkpt lat="48.73793" lon="2.2561">
        <ele>65</ele>
        <time>2019-05-12T02:53:06.000Z</time>
      </trkpt>
      <trkpt lat="48.73793" lon="2.2561">
        <ele>65</ele>
        <time>2019-05-12T02:53:08.000Z</time>
      </trkpt>
      <trkpt lat="48.73797" lon="2.25596">
        <ele>65</ele>
        <time>2019-05-12T02:53:12.000Z</time>
      </trkpt>
      <trkpt lat="48.738" lon="2.25587">
        <ele>65</ele>
        <time>2019-05-12T02:53:14.000Z</time>
      </trkpt>
      <trkpt lat="48.73802" lon="2.25581">
        <ele>64</ele>
        <time>2019-05-12T02:53:16.000Z</time>
      </trkpt>
      <trkpt lat="48.73802" lon="2.25581">
        <ele>64</ele>
        <time>2019-05-12T02:53:18.000Z</time>
      </trkpt>
      <trkpt lat="48.73804" lon="2.25573">
        <ele>64</ele>
        <time>2019-05-12T02:53:20.000Z</time>
      </trkpt>
      <trkpt lat="48.73806" lon="2.25566">
        <ele>64</ele>
        <time>2019-05-12T02:53:22.000Z</time>
      </trkpt>
      <trkpt lat="48.73806" lon="2.25566">
        <ele>64</ele>
        <time>2019-05-12T02:53:24.000Z</time>
      </trkpt>
      <trkpt lat="48.73806" lon="2.25566">
        <ele>64</ele>
        <time>2019-05-12T02:53:26.000Z</time>
      </trkpt>
      <trkpt lat="48.73806" lon="2.25566">
        <ele>64</ele>
        <time>2019-05-12T02:53:28.000Z</time>
      </trkpt>
      <trkpt lat="48.73806" lon="2.25566">
        <ele>64</ele>
        <time>2019-05-12T02:53:30.000Z</time>
      </trkpt>
      <trkpt lat="48.73811" lon="2.25549">
        <ele>63</ele>
        <time>2019-05-12T02:53:36.000Z</time>
      </trkpt>
      <trkpt lat="48.73814" lon="2.25538">
        <ele>63</ele>
        <time>2019-05-12T02:53:38.000Z</time>
      </trkpt>
      <trkpt lat="48.73816" lon="2.25531">
        <ele>63</ele>
        <time>2019-05-12T02:53:40.000Z</time>
      </trkpt>
      <trkpt lat="48.73819" lon="2.25523">
        <ele>63</ele>
        <time>2019-05-12T02:53:44.000Z</time>
      </trkpt>
      <trkpt lat="48.73821" lon="2.25516">
        <ele>63</ele>
        <time>2019-05-12T02:53:46.000Z</time>
      </trkpt>
      <trkpt lat="48.73823" lon="2.25509">
        <ele>63</ele>
        <time>2019-05-12T02:53:50.000Z</time>
      </trkpt>
      <trkpt lat="48.73823" lon="2.25509">
        <ele>63</ele>
        <time>2019-05-12T02:53:52.000Z</time>
      </trkpt>
      <trkpt lat="48.73823" lon="2.25509">
        <ele>63</ele>
        <time>2019-05-12T02:53:54.000Z</time>
      </trkpt>
      <trkpt lat="48.73823" lon="2.25509">
        <ele>63</ele>
        <time>2019-05-12T02:53:56.000Z</time>
      </trkpt>
      <trkpt lat="48.73823" lon="2.25509">
        <ele>63</ele>
        <time>2019-05-12T02:53:58.000Z</time>
      </trkpt>
      <trkpt lat="48.73827" lon="2.25496">
        <ele>62</ele>
        <time>2019-05-12T02:54:02.000Z</time>
      </trkpt>
      <trkpt lat="48.73829" lon="2.25486">
        <ele>62</ele>
        <time>2019-05-12T02:54:04.000Z</time>
      </trkpt>
      <trkpt lat="48.7383" lon="2.25479">
        <ele>61</ele>
        <time>2019-05-12T02:54:06.000Z</time>
      </trkpt>
      <trkpt lat="48.73832" lon="2.25473">
        <ele>61</ele>
        <time>2019-05-12T02:54:08.000Z</time>
      </trkpt>
      <trkpt lat="48.73834" lon="2.25465">
        <ele>63</ele>
        <time>2019-05-12T02:54:12.000Z</time>
      </trkpt>
      <trkpt lat="48.73834" lon="2.25465">
        <ele>63</ele>
        <time>2019-05-12T02:54:14.000Z</time>
      </trkpt>
      <trkpt lat="48.73834" lon="2.25465">
        <ele>63</ele>
        <time>2019-05-12T02:54:16.000Z</time>
      </trkpt>
      <trkpt lat="48.73834" lon="2.25465">
        <ele>63</ele>
        <time>2019-05-12T02:54:18.000Z</time>
      </trkpt>
      <trkpt lat="48.73834" lon="2.25465">
        <ele>63</ele>
        <time>2019-05-12T02:54:20.000Z</time>
      </trkpt>
      <trkpt lat="48.73834" lon="2.25465">
        <ele>63</ele>
        <time>2019-05-12T02:54:22.000Z</time>
      </trkpt>
      <trkpt lat="48.73834" lon="2.25465">
        <ele>63</ele>
        <time>2019-05-12T02:54:24.000Z</time>
      </trkpt>
      <trkpt lat="48.73834" lon="2.25465">
        <ele>63</ele>
        <time>2019-05-12T02:54:26.000Z</time>
      </trkpt>
      <trkpt lat="48.73834" lon="2.25465">
        <ele>63</ele>
        <time>2019-05-12T02:54:28.000Z</time>
      </trkpt>
      <trkpt lat="48.73834" lon="2.25465">
        <ele>63</ele>
        <time>2019-05-12T02:54:30.000Z</time>
      </trkpt>
      <trkpt lat="48.73831" lon="2.25447">
        <ele>61</ele>
        <time>2019-05-12T02:54:34.000Z</time>
      </trkpt>
      <trkpt lat="48.73831" lon="2.25437">
        <ele>61</ele>
        <time>2019-05-12T02:54:36.000Z</time>
      </trkpt>
      <trkpt lat="48.73832" lon="2.2543">
        <ele>60</ele>
        <time>2019-05-12T02:54:38.000Z</time>
      </trkpt>
      <trkpt lat="48.73832" lon="2.2543">
        <ele>60</ele>
        <time>2019-05-12T02:54:40.000Z</time>
      </trkpt>
      <trkpt lat="48.73832" lon="2.2543">
        <ele>60</ele>
        <time>2019-05-12T02:54:42.000Z</time>
      </trkpt>
      <trkpt lat="48.73832" lon="2.2543">
        <ele>60</ele>
        <time>2019-05-12T02:54:44.000Z</time>
      </trkpt>
      <trkpt lat="48.73832" lon="2.2543">
        <ele>60</ele>
        <time>2019-05-12T02:54:46.000Z</time>
      </trkpt>
      <trkpt lat="48.73832" lon="2.2543">
        <ele>60</ele>
        <time>2019-05-12T02:54:48.000Z</time>
      </trkpt>
      <trkpt lat="48.73832" lon="2.25411">
        <ele>60</ele>
        <time>2019-05-12T02:54:52.000Z</time>
      </trkpt>
      <trkpt lat="48.73833" lon="2.254">
        <ele>60</ele>
        <time>2019-05-12T02:54:54.000Z</time>
      </trkpt>
      <trkpt lat="48.73833" lon="2.25393">
        <ele>60</ele>
        <time>2019-05-12T02:54:56.000Z</time>
      </trkpt>
      <trkpt lat="48.73833" lon="2.25393">
        <ele>60</ele>
        <time>2019-05-12T02:54:58.000Z</time>
      </trkpt>
      <trkpt lat="48.73834" lon="2.25386">
        <ele>62</ele>
        <time>2019-05-12T02:55:00.000Z</time>
      </trkpt>
      <trkpt lat="48.73834" lon="2.25378">
        <ele>62</ele>
        <time>2019-05-12T02:55:04.000Z</time>
      </trkpt>
      <trkpt lat="48.73834" lon="2.25378">
        <ele>62</ele>
        <time>2019-05-12T02:55:06.000Z</time>
      </trkpt>
      <trkpt lat="48.73834" lon="2.25378">
        <ele>62</ele>
        <time>2019-05-12T02:55:08.000Z</time>
      </trkpt>
      <trkpt lat="48.73834" lon="2.25365">
        <ele>62</ele>
        <time>2019-05-12T02:55:14.000Z</time>
      </trkpt>
      <trkpt lat="48.73834" lon="2.25355">
        <ele>62</ele>
        <time>2019-05-12T02:55:16.000Z</time>
      </trkpt>
      <trkpt lat="48.73834" lon="2.25348">
        <ele>62</ele>
        <time>2019-05-12T02:55:18.000Z</time>
      </trkpt>
      <trkpt lat="48.73834" lon="2.25348">
        <ele>62</ele>
        <time>2019-05-12T02:55:20.000Z</time>
      </trkpt>
      <trkpt lat="48.73834" lon="2.25339">
        <ele>61</ele>
        <time>2019-05-12T02:55:22.000Z</time>
      </trkpt>
      <trkpt lat="48.73833" lon="2.25332">
        <ele>61</ele>
        <time>2019-05-12T02:55:24.000Z</time>
      </trkpt>
      <trkpt lat="48.73833" lon="2.25332">
        <ele>61</ele>
        <time>2019-05-12T02:55:26.000Z</time>
      </trkpt>
      <trkpt lat="48.73833" lon="2.25332">
        <ele>61</ele>
        <time>2019-05-12T02:55:28.000Z</time>
      </trkpt>
      <trkpt lat="48.73833" lon="2.25332">
        <ele>61</ele>
        <time>2019-05-12T02:55:30.000Z</time>
      </trkpt>
      <trkpt lat="48.73833" lon="2.25332">
        <ele>61</ele>
        <time>2019-05-12T02:55:32.000Z</time>
      </trkpt>
      <trkpt lat="48.73833" lon="2.25332">
        <ele>61</ele>
        <time>2019-05-12T02:55:34.000Z</time>
      </trkpt>
      <trkpt lat="48.73833" lon="2.25332">
        <ele>61</ele>
        <time>2019-05-12T02:55:36.000Z</time>
      </trkpt>
      <trkpt lat="48.73824" lon="2.25322">
        <ele>61</ele>
        <time>2019-05-12T02:55:46.000Z</time>
      </trkpt>
      <trkpt lat="48.73817" lon="2.25317">
        <ele>61</ele>
        <time>2019-05-12T02:55:48.000Z</time>
      </trkpt>
      <trkpt lat="48.73812" lon="2.25315">
        <ele>61</ele>
        <time>2019-05-12T02:55:50.000Z</time>
      </trkpt>
      <trkpt lat="48.73812" lon="2.25315">
        <ele>61</ele>
        <time>2019-05-12T02:55:52.000Z</time>
      </trkpt>
      <trkpt lat="48.73806" lon="2.25314">
        <ele>61</ele>
        <time>2019-05-12T02:55:54.000Z</time>
      </trkpt>
      <trkpt lat="48.73801" lon="2.25314">
        <ele>61</ele>
        <time>2019-05-12T02:55:56.000Z</time>
      </trkpt>
      <trkpt lat="48.73796" lon="2.25314">
        <ele>61</ele>
        <time>2019-05-12T02:55:58.000Z</time>
      </trkpt>
      <trkpt lat="48.73796" lon="2.25314">
        <ele>61</ele>
        <time>2019-05-12T02:56:02.000Z</time>
      </trkpt>
      <trkpt lat="48.73796" lon="2.25314">
        <ele>61</ele>
        <time>2019-05-12T02:56:04.000Z</time>
      </trkpt>
      <trkpt lat="48.73796" lon="2.25314">
        <ele>61</ele>
        <time>2019-05-12T02:56:06.000Z</time>
      </trkpt>
      <trkpt lat="48.73796" lon="2.25314">
        <ele>61</ele>
        <time>2019-05-12T02:56:08.000Z</time>
      </trkpt>
      <trkpt lat="48.73782" lon="2.25313">
        <ele>61</ele>
        <time>2019-05-12T02:56:14.000Z</time>
      </trkpt>
      <trkpt lat="48.73774" lon="2.25311">
        <ele>61</ele>
        <time>2019-05-12T02:56:16.000Z</time>
      </trkpt>
      <trkpt lat="48.73769" lon="2.25308">
        <ele>61</ele>
        <time>2019-05-12T02:56:18.000Z</time>
      </trkpt>
      <trkpt lat="48.73765" lon="2.25302">
        <ele>61</ele>
        <time>2019-05-12T02:56:22.000Z</time>
      </trkpt>
      <trkpt lat="48.73765" lon="2.25302">
        <ele>61</ele>
        <time>2019-05-12T02:56:24.000Z</time>
      </trkpt>
      <trkpt lat="48.73765" lon="2.25302">
        <ele>61</ele>
        <time>2019-05-12T02:56:26.000Z</time>
      </trkpt>
      <trkpt lat="48.73765" lon="2.25302">
        <ele>61</ele>
        <time>2019-05-12T02:56:28.000Z</time>
      </trkpt>
      <trkpt lat="48.7376" lon="2.25289">
        <ele>61</ele>
        <time>2019-05-12T02:56:34.000Z</time>
      </trkpt>
      <trkpt lat="48.73758" lon="2.25281">
        <ele>61</ele>
        <time>2019-05-12T02:56:36.000Z</time>
      </trkpt>
      <trkpt lat="48.73758" lon="2.25281">
        <ele>61</ele>
        <time>2019-05-12T02:56:38.000Z</time>
      </trkpt>
      <trkpt lat="48.73755" lon="2.25274">
        <ele>61</ele>
        <time>2019-05-12T02:56:40.000Z</time>
      </trkpt>
      <trkpt lat="48.7375" lon="2.25269">
        <ele>61</ele>
        <time>2019-05-12T02:56:44.000Z</time>
      </trkpt>
      <trkpt lat="48.73746" lon="2.25264">
        <ele>61</ele>
        <time>2019-05-12T02:56:46.000Z</time>
      </trkpt>
      <trkpt lat="48.73746" lon="2.25264">
        <ele>61</ele>
        <time>2019-05-12T02:56:48.000Z</time>
      </trkpt>
      <trkpt lat="48.73746" lon="2.25264">
        <ele>61</ele>
        <time>2019-05-12T02:56:50.000Z</time>
      </trkpt>
      <trkpt lat="48.73746" lon="2.25264">
        <ele>61</ele>
        <time>2019-05-12T02:56:52.000Z</time>
      </trkpt>
      <trkpt lat="48.73737" lon="2.25258">
        <ele>61</ele>
        <time>2019-05-12T02:56:56.000Z</time>
      </trkpt>
      <trkpt lat="48.73731" lon="2.25253">
        <ele>61</ele>
        <time>2019-05-12T02:56:58.000Z</time>
      </trkpt>
      <trkpt lat="48.73731" lon="2.25253">
        <ele>61</ele>
        <time>2019-05-12T02:57:00.000Z</time>
      </trkpt>
      <trkpt lat="48.73731" lon="2.25253">
        <ele>61</ele>
        <time>2019-05-12T02:57:02.000Z</time>
      </trkpt>
      <trkpt lat="48.73723" lon="2.25245">
        <ele>62</ele>
        <time>2019-05-12T02:57:10.000Z</time>
      </trkpt>
      <trkpt lat="48.73719" lon="2.25238">
        <ele>62</ele>
        <time>2019-05-12T02:57:12.000Z</time>
      </trkpt>
      <trkpt lat="48.73719" lon="2.25238">
        <ele>62</ele>
        <time>2019-05-12T02:57:14.000Z</time>
      </trkpt>
      <trkpt lat="48.73719" lon="2.25238">
        <ele>62</ele>
        <time>2019-05-12T02:57:16.000Z</time>
      </trkpt>
      <trkpt lat="48.73713" lon="2.25229">
        <ele>63</ele>
        <time>2019-05-12T02:57:20.000Z</time>
      </trkpt>
      <trkpt lat="48.73713" lon="2.25229">
        <ele>63</ele>
        <time>2019-05-12T02:57:22.000Z</time>
      </trkpt>
      <trkpt lat="48.73713" lon="2.25229">
        <ele>63</ele>
        <time>2019-05-12T02:57:24.000Z</time>
      </trkpt>
      <trkpt lat="48.73713" lon="2.25229">
        <ele>63</ele>
        <time>2019-05-12T02:57:26.000Z</time>
      </trkpt>
      <trkpt lat="48.73706" lon="2.2522">
        <ele>63</ele>
        <time>2019-05-12T02:57:28.000Z</time>
      </trkpt>
      <trkpt lat="48.737" lon="2.25214">
        <ele>63</ele>
        <time>2019-05-12T02:57:30.000Z</time>
      </trkpt>
      <trkpt lat="48.73697" lon="2.25209">
        <ele>63</ele>
        <time>2019-05-12T02:57:32.000Z</time>
      </trkpt>
      <trkpt lat="48.73697" lon="2.25209">
        <ele>63</ele>
        <time>2019-05-12T02:57:34.000Z</time>
      </trkpt>
      <trkpt lat="48.73693" lon="2.25204">
        <ele>63</ele>
        <time>2019-05-12T02:57:36.000Z</time>
      </trkpt>
      <trkpt lat="48.7369" lon="2.25197">
        <ele>63</ele>
        <time>2019-05-12T02:57:40.000Z</time>
      </trkpt>
      <trkpt lat="48.7369" lon="2.25197">
        <ele>63</ele>
        <time>2019-05-12T02:57:46.000Z</time>
      </trkpt>
      <trkpt lat="48.7369" lon="2.25197">
        <ele>63</ele>
        <time>2019-05-12T02:57:48.000Z</time>
      </trkpt>
      <trkpt lat="48.7369" lon="2.25197">
        <ele>63</ele>
        <time>2019-05-12T02:57:50.000Z</time>
      </trkpt>
      <trkpt lat="48.7369" lon="2.25197">
        <ele>63</ele>
        <time>2019-05-12T02:57:52.000Z</time>
      </trkpt>
      <trkpt lat="48.73687" lon="2.25175">
        <ele>63</ele>
        <time>2019-05-12T02:57:56.000Z</time>
      </trkpt>
      <trkpt lat="48.73685" lon="2.25162">
        <ele>63</ele>
        <time>2019-05-12T02:57:58.000Z</time>
      </trkpt>
      <trkpt lat="48.73684" lon="2.25153">
        <ele>63</ele>
        <time>2019-05-12T02:58:00.000Z</time>
      </trkpt>
      <trkpt lat="48.73684" lon="2.25145">
        <ele>63</ele>
        <time>2019-05-12T02:58:02.000Z</time>
      </trkpt>
      <trkpt lat="48.73685" lon="2.25137">
        <ele>62</ele>
        <time>2019-05-12T02:58:06.000Z</time>
      </trkpt>
      <trkpt lat="48.73685" lon="2.25137">
        <ele>62</ele>
        <time>2019-05-12T02:58:10.000Z</time>
      </trkpt>
      <trkpt lat="48.73686" lon="2.25126">
        <ele>62</ele>
        <time>2019-05-12T02:58:12.000Z</time>
      </trkpt>
      <trkpt lat="48.73688" lon="2.25118">
        <ele>62</ele>
        <time>2019-05-12T02:58:14.000Z</time>
      </trkpt>
      <trkpt lat="48.73688" lon="2.25118">
        <ele>62</ele>
        <time>2019-05-12T02:58:16.000Z</time>
      </trkpt>
      <trkpt lat="48.73688" lon="2.25118">
        <ele>62</ele>
        <time>2019-05-12T02:58:18.000Z</time>
      </trkpt>
      <trkpt lat="48.7369" lon="2.25106">
        <ele>62</ele>
        <time>2019-05-12T02:58:24.000Z</time>
      </trkpt>
      <trkpt lat="48.73691" lon="2.25097">
        <ele>62</ele>
        <time>2019-05-12T02:58:26.000Z</time>
      </trkpt>
      <trkpt lat="48.73691" lon="2.2509">
        <ele>62</ele>
        <time>2019-05-12T02:58:28.000Z</time>
      </trkpt>
      <trkpt lat="48.73691" lon="2.2509">
        <ele>62</ele>
        <time>2019-05-12T02:58:30.000Z</time>
      </trkpt>
      <trkpt lat="48.73691" lon="2.25081">
        <ele>62</ele>
        <time>2019-05-12T02:58:32.000Z</time>
      </trkpt>
      <trkpt lat="48.7369" lon="2.25073">
        <ele>62</ele>
        <time>2019-05-12T02:58:34.000Z</time>
      </trkpt>
      <trkpt lat="48.7369" lon="2.25073">
        <ele>62</ele>
        <time>2019-05-12T02:58:36.000Z</time>
      </trkpt>
      <trkpt lat="48.7369" lon="2.25073">
        <ele>62</ele>
        <time>2019-05-12T02:58:38.000Z</time>
      </trkpt>
      <trkpt lat="48.7369" lon="2.25073">
        <ele>62</ele>
        <time>2019-05-12T02:58:40.000Z</time>
      </trkpt>
      <trkpt lat="48.73689" lon="2.25065">
        <ele>62</ele>
        <time>2019-05-12T02:58:42.000Z</time>
      </trkpt>
      <trkpt lat="48.73684" lon="2.25058">
        <ele>62</ele>
        <time>2019-05-12T02:58:46.000Z</time>
      </trkpt>
      <trkpt lat="48.73681" lon="2.25052">
        <ele>62</ele>
        <time>2019-05-12T02:58:48.000Z</time>
      </trkpt>
      <trkpt lat="48.73676" lon="2.25046">
        <ele>62</ele>
        <time>2019-05-12T02:58:52.000Z</time>
      </trkpt>
      <trkpt lat="48.73676" lon="2.25046">
        <ele>62</ele>
        <time>2019-05-12T02:58:54.000Z</time>
      </trkpt>
      <trkpt lat="48.73676" lon="2.25046">
        <ele>62</ele>
        <time>2019-05-12T02:58:56.000Z</time>
      </trkpt>
      <trkpt lat="48.73676" lon="2.25046">
        <ele>62</ele>
        <time>2019-05-12T02:59:04.000Z</time>
      </trkpt>
      <trkpt lat="48.73676" lon="2.25046">
        <ele>62</ele>
        <time>2019-05-12T02:59:06.000Z</time>
      </trkpt>
      <trkpt lat="48.73676" lon="2.25046">
        <ele>62</ele>
        <time>2019-05-12T02:59:08.000Z</time>
      </trkpt>
      <trkpt lat="48.73662" lon="2.25031">
        <ele>62</ele>
        <time>2019-05-12T02:59:18.000Z</time>
      </trkpt>
      <trkpt lat="48.73653" lon="2.25022">
        <ele>62</ele>
        <time>2019-05-12T02:59:20.000Z</time>
      </trkpt>
      <trkpt lat="48.73647" lon="2.25016">
        <ele>62</ele>
        <time>2019-05-12T02:59:22.000Z</time>
      </trkpt>
      <trkpt lat="48.73642" lon="2.25011">
        <ele>62</ele>
        <time>2019-05-12T02:59:24.000Z</time>
      </trkpt>
      <trkpt lat="48.73638" lon="2.25007">
        <ele>62</ele>
        <time>2019-05-12T02:59:26.000Z</time>
      </trkpt>
      <trkpt lat="48.73638" lon="2.25007">
        <ele>62</ele>
        <time>2019-05-12T02:59:28.000Z</time>
      </trkpt>
      <trkpt lat="48.7363" lon="2.24996">
        <ele>63</ele>
        <time>2019-05-12T02:59:30.000Z</time>
      </trkpt>
      <trkpt lat="48.7363" lon="2.24996">
        <ele>63</ele>
        <time>2019-05-12T02:59:32.000Z</time>
      </trkpt>
      <trkpt lat="48.7363" lon="2.24996">
        <ele>63</ele>
        <time>2019-05-12T02:59:34.000Z</time>
      </trkpt>
      <trkpt lat="48.7363" lon="2.24996">
        <ele>63</ele>
        <time>2019-05-12T02:59:36.000Z</time>
      </trkpt>
      <trkpt lat="48.7363" lon="2.24996">
        <ele>63</ele>
        <time>2019-05-12T02:59:38.000Z</time>
      </trkpt>
      <trkpt lat="48.7363" lon="2.24996">
        <ele>63</ele>
        <time>2019-05-12T02:59:40.000Z</time>
      </trkpt>
      <trkpt lat="48.7363" lon="2.24996">
        <ele>63</ele>
        <time>2019-05-12T02:59:42.000Z</time>
      </trkpt>
      <trkpt lat="48.7363" lon="2.24996">
        <ele>63</ele>
        <time>2019-05-12T02:59:44.000Z</time>
      </trkpt>
      <trkpt lat="48.7363" lon="2.24996">
        <ele>63</ele>
        <time>2019-05-12T02:59:46.000Z</time>
      </trkpt>
      <trkpt lat="48.7362" lon="2.24963">
        <ele>63</ele>
        <time>2019-05-12T02:59:50.000Z</time>
      </trkpt>
      <trkpt lat="48.73624" lon="2.2495">
        <ele>63</ele>
        <time>2019-05-12T02:59:56.000Z</time>
      </trkpt>
      <trkpt lat="48.73624" lon="2.2495">
        <ele>63</ele>
        <time>2019-05-12T02:59:58.000Z</time>
      </trkpt>
      <trkpt lat="48.73624" lon="2.2495">
        <ele>63</ele>
        <time>2019-05-12T03:00:00.000Z</time>
      </trkpt>
      <trkpt lat="48.73624" lon="2.24933">
        <ele>63</ele>
        <time>2019-05-12T03:00:08.000Z</time>
      </trkpt>
      <trkpt lat="48.73619" lon="2.2492">
        <ele>63</ele>
        <time>2019-05-12T03:00:14.000Z</time>
      </trkpt>
      <trkpt lat="48.73619" lon="2.2492">
        <ele>63</ele>
        <time>2019-05-12T03:00:16.000Z</time>
      </trkpt>
      <trkpt lat="48.73619" lon="2.2492">
        <ele>63</ele>
        <time>2019-05-12T03:00:18.000Z</time>
      </trkpt>
      <trkpt lat="48.73619" lon="2.2492">
        <ele>63</ele>
        <time>2019-05-12T03:00:20.000Z</time>
      </trkpt>
      <trkpt lat="48.73619" lon="2.2492">
        <ele>63</ele>
        <time>2019-05-12T03:00:22.000Z</time>
      </trkpt>
      <trkpt lat="48.7361" lon="2.24906">
        <ele>64</ele>
        <time>2019-05-12T03:00:24.000Z</time>
      </trkpt>
      <trkpt lat="48.73598" lon="2.24909">
        <ele>64</ele>
        <time>2019-05-12T03:00:30.000Z</time>
      </trkpt>
      <trkpt lat="48.73598" lon="2.24909">
        <ele>64</ele>
        <time>2019-05-12T03:00:38.000Z</time>
      </trkpt>
      <trkpt lat="48.73598" lon="2.24909">
        <ele>64</ele>
        <time>2019-05-12T03:00:40.000Z</time>
      </trkpt>
      <trkpt lat="48.73598" lon="2.24909">
        <ele>64</ele>
        <time>2019-05-12T03:00:42.000Z</time>
      </trkpt>
      <trkpt lat="48.73598" lon="2.24909">
        <ele>64</ele>
        <time>2019-05-12T03:00:44.000Z</time>
      </trkpt>
      <trkpt lat="48.73598" lon="2.24909">
        <ele>64</ele>
        <time>2019-05-12T03:00:46.000Z</time>
      </trkpt>
      <trkpt lat="48.73598" lon="2.24909">
        <ele>64</ele>
        <time>2019-05-12T03:00:48.000Z</time>
      </trkpt>
      <trkpt lat="48.73598" lon="2.24909">
        <ele>64</ele>
        <time>2019-05-12T03:00:50.000Z</time>
      </trkpt>
      <trkpt lat="48.73592" lon="2.24883">
        <ele>64</ele>
        <time>2019-05-12T03:00:56.000Z</time>
      </trkpt>
      <trkpt lat="48.73588" lon="2.24868">
        <ele>64</ele>
        <time>2019-05-12T03:00:58.000Z</time>
      </trkpt>
      <trkpt lat="48.73586" lon="2.24858">
        <ele>64</ele>
        <time>2019-05-12T03:01:00.000Z</time>
      </trkpt>
      <trkpt lat="48.73584" lon="2.24851">
        <ele>64</ele>
        <time>2019-05-12T03:01:02.000Z</time>
      </trkpt>
      <trkpt lat="48.73584" lon="2.24851">
        <ele>64</ele>
        <time>2019-05-12T03:01:06.000Z</time>
      </trkpt>
      <trkpt lat="48.73584" lon="2.24851">
        <ele>64</ele>
        <time>2019-05-12T03:01:08.000Z</time>
      </trkpt>
      <trkpt lat="48.73584" lon="2.24851">
        <ele>64</ele>
        <time>2019-05-12T03:01:10.000Z</time>
      </trkpt>
      <trkpt lat="48.73581" lon="2.24835">
        <ele>63</ele>
        <time>2019-05-12T03:01:14.000Z</time>
      </trkpt>
      <trkpt lat="48.73578" lon="2.24826">
        <ele>64</ele>
        <time>2019-05-12T03:01:16.000Z</time>
      </trkpt>
      <trkpt lat="48.73577" lon="2.24819">
        <ele>64</ele>
        <time>2019-05-12T03:01:18.000Z</time>
      </trkpt>
      <trkpt lat="48.73577" lon="2.24819">
        <ele>64</ele>
        <time>2019-05-12T03:01:20.000Z</time>
      </trkpt>
      <trkpt lat="48.73577" lon="2.24819">
        <ele>64</ele>
        <time>2019-05-12T03:01:22.000Z</time>
      </trkpt>
      <trkpt lat="48.73577" lon="2.24819">
        <ele>64</ele>
        <time>2019-05-12T03:01:24.000Z</time>
      </trkpt>
      <trkpt lat="48.73573" lon="2.24806">
        <ele>65</ele>
        <time>2019-05-12T03:01:28.000Z</time>
      </trkpt>
      <trkpt lat="48.73571" lon="2.24798">
        <ele>65</ele>
        <time>2019-05-12T03:01:30.000Z</time>
      </trkpt>
      <trkpt lat="48.73571" lon="2.24798">
        <ele>65</ele>
        <time>2019-05-12T03:01:32.000Z</time>
      </trkpt>
      <trkpt lat="48.73571" lon="2.24798">
        <ele>65</ele>
        <time>2019-05-12T03:01:34.000Z</time>
      </trkpt>
      <trkpt lat="48.73571" lon="2.24798">
        <ele>65</ele>
        <time>2019-05-12T03:01:36.000Z</time>
      </trkpt>
      <trkpt lat="48.73566" lon="2.24786">
        <ele>65</ele>
        <time>2019-05-12T03:01:40.000Z</time>
      </trkpt>
      <trkpt lat="48.73563" lon="2.24776">
        <ele>65</ele>
        <time>2019-05-12T03:01:42.000Z</time>
      </trkpt>
      <trkpt lat="48.7356" lon="2.24769">
        <ele>65</ele>
        <time>2019-05-12T03:01:44.000Z</time>
      </trkpt>
      <trkpt lat="48.7356" lon="2.24769">
        <ele>65</ele>
        <time>2019-05-12T03:01:46.000Z</time>
      </trkpt>
      <trkpt lat="48.73558" lon="2.24761">
        <ele>65</ele>
        <time>2019-05-12T03:01:48.000Z</time>
      </trkpt>
      <trkpt lat="48.73558" lon="2.24761">
        <ele>65</ele>
        <time>2019-05-12T03:01:54.000Z</time>
      </trkpt>
      <trkpt lat="48.73558" lon="2.24761">
        <ele>65</ele>
        <time>2019-05-12T03:01:56.000Z</time>
      </trkpt>
      <trkpt lat="48.73558" lon="2.24761">
        <ele>65</ele>
        <time>2019-05-12T03:01:58.000Z</time>
      </trkpt>
      <trkpt lat="48.73555" lon="2.24743">
        <ele>65</ele>
        <time>2019-05-12T03:02:02.000Z</time>
      </trkpt>
      <trkpt lat="48.73554" lon="2.24731">
        <ele>65</ele>
        <time>2019-05-12T03:02:04.000Z</time>
      </trkpt>
      <trkpt lat="48.73554" lon="2.24724">
        <ele>65</ele>
        <time>2019-05-12T03:02:06.000Z</time>
      </trkpt>
      <trkpt lat="48.73554" lon="2.24724">
        <ele>65</ele>
        <time>2019-05-12T03:02:08.000Z</time>
      </trkpt>
      <trkpt lat="48.73555" lon="2.24709">
        <ele>65</ele>
        <time>2019-05-12T03:02:14.000Z</time>
      </trkpt>
      <trkpt lat="48.73556" lon="2.24699">
        <ele>65</ele>
        <time>2019-05-12T03:02:16.000Z</time>
      </trkpt>
      <trkpt lat="48.73556" lon="2.24691">
        <ele>65</ele>
        <time>2019-05-12T03:02:18.000Z</time>
      </trkpt>
      <trkpt lat="48.73556" lon="2.24691">
        <ele>65</ele>
        <time>2019-05-12T03:02:20.000Z</time>
      </trkpt>
      <trkpt lat="48.73556" lon="2.24691">
        <ele>65</ele>
        <time>2019-05-12T03:02:22.000Z</time>
      </trkpt>
      <trkpt lat="48.73556" lon="2.24691">
        <ele>65</ele>
        <time>2019-05-12T03:02:24.000Z</time>
      </trkpt>
      <trkpt lat="48.73556" lon="2.24691">
        <ele>65</ele>
        <time>2019-05-12T03:02:26.000Z</time>
      </trkpt>
      <trkpt lat="48.73558" lon="2.24675">
        <ele>65</ele>
        <time>2019-05-12T03:02:30.000Z</time>
      </trkpt>
      <trkpt lat="48.73559" lon="2.24664">
        <ele>65</ele>
        <time>2019-05-12T03:02:32.000Z</time>
      </trkpt>
      <trkpt lat="48.7356" lon="2.24653">
        <ele>65</ele>
        <time>2019-05-12T03:02:36.000Z</time>
      </trkpt>
      <trkpt lat="48.73562" lon="2.24642">
        <ele>66</ele>
        <time>2019-05-12T03:02:40.000Z</time>
      </trkpt>
      <trkpt lat="48.73564" lon="2.24632">
        <ele>66</ele>
        <time>2019-05-12T03:02:44.000Z</time>
      </trkpt>
      <trkpt lat="48.73566" lon="2.24625">
        <ele>66</ele>
        <time>2019-05-12T03:02:46.000Z</time>
      </trkpt>
      <trkpt lat="48.73566" lon="2.24625">
        <ele>66</ele>
        <time>2019-05-12T03:02:48.000Z</time>
      </trkpt>
      <trkpt lat="48.73566" lon="2.24625">
        <ele>66</ele>
        <time>2019-05-12T03:02:50.000Z</time>
      </trkpt>
      <trkpt lat="48.73566" lon="2.24625">
        <ele>66</ele>
        <time>2019-05-12T03:02:52.000Z</time>
      </trkpt>
      <trkpt lat="48.73572" lon="2.24611">
        <ele>66</ele>
        <time>2019-05-12T03:02:58.000Z</time>
      </trkpt>
      <trkpt lat="48.73572" lon="2.24611">
        <ele>66</ele>
        <time>2019-05-12T03:03:00.000Z</time>
      </trkpt>
      <trkpt lat="48.73572" lon="2.24611">
        <ele>66</ele>
        <time>2019-05-12T03:03:02.000Z</time>
      </trkpt>
      <trkpt lat="48.73579" lon="2.24599">
        <ele>66</ele>
        <time>2019-05-12T03:03:06.000Z</time>
      </trkpt>
      <trkpt lat="48.73583" lon="2.24592">
        <ele>66</ele>
        <time>2019-05-12T03:03:08.000Z</time>
      </trkpt>
      <trkpt lat="48.73583" lon="2.24592">
        <ele>66</ele>
        <time>2019-05-12T03:03:10.000Z</time>
      </trkpt>
      <trkpt lat="48.73583" lon="2.24592">
        <ele>66</ele>
        <time>2019-05-12T03:03:12.000Z</time>
      </trkpt>
      <trkpt lat="48.73588" lon="2.24583">
        <ele>65</ele>
        <time>2019-05-12T03:03:14.000Z</time>
      </trkpt>
      <trkpt lat="48.73592" lon="2.24578">
        <ele>66</ele>
        <time>2019-05-12T03:03:16.000Z</time>
      </trkpt>
      <trkpt lat="48.73596" lon="2.24573">
        <ele>65</ele>
        <time>2019-05-12T03:03:20.000Z</time>
      </trkpt>
      <trkpt lat="48.73596" lon="2.24573">
        <ele>65</ele>
        <time>2019-05-12T03:03:22.000Z</time>
      </trkpt>
      <trkpt lat="48.73596" lon="2.24573">
        <ele>65</ele>
        <time>2019-05-12T03:03:24.000Z</time>
      </trkpt>
      <trkpt lat="48.73596" lon="2.24573">
        <ele>65</ele>
        <time>2019-05-12T03:03:26.000Z</time>
      </trkpt>
      <trkpt lat="48.73603" lon="2.24565">
        <ele>65</ele>
        <time>2019-05-12T03:03:32.000Z</time>
      </trkpt>
      <trkpt lat="48.73607" lon="2.24559">
        <ele>65</ele>
        <time>2019-05-12T03:03:34.000Z</time>
      </trkpt>
      <trkpt lat="48.73607" lon="2.24559">
        <ele>65</ele>
        <time>2019-05-12T03:03:36.000Z</time>
      </trkpt>
      <trkpt lat="48.73607" lon="2.24559">
        <ele>65</ele>
        <time>2019-05-12T03:03:38.000Z</time>
      </trkpt>
      <trkpt lat="48.73613" lon="2.24553">
        <ele>65</ele>
        <time>2019-05-12T03:03:40.000Z</time>
      </trkpt>
      <trkpt lat="48.73618" lon="2.24548">
        <ele>65</ele>
        <time>2019-05-12T03:03:42.000Z</time>
      </trkpt>
      <trkpt lat="48.73623" lon="2.24544">
        <ele>65</ele>
        <time>2019-05-12T03:03:46.000Z</time>
      </trkpt>
      <trkpt lat="48.73627" lon="2.2454">
        <ele>65</ele>
        <time>2019-05-12T03:03:48.000Z</time>
      </trkpt>
      <trkpt lat="48.73627" lon="2.2454">
        <ele>65</ele>
        <time>2019-05-12T03:03:50.000Z</time>
      </trkpt>
      <trkpt lat="48.73632" lon="2.24537">
        <ele>65</ele>
        <time>2019-05-12T03:03:52.000Z</time>
      </trkpt>
      <trkpt lat="48.73632" lon="2.24537">
        <ele>65</ele>
        <time>2019-05-12T03:03:54.000Z</time>
      </trkpt>
      <trkpt lat="48.73632" lon="2.24537">
        <ele>65</ele>
        <time>2019-05-12T03:03:56.000Z</time>
      </trkpt>
      <trkpt lat="48.73632" lon="2.24537">
        <ele>65</ele>
        <time>2019-05-12T03:03:58.000Z</time>
      </trkpt>
      <trkpt lat="48.73632" lon="2.24537">
        <ele>65</ele>
        <time>2019-05-12T03:04:00.000Z</time>
      </trkpt>
      <trkpt lat="48.73632" lon="2.24537">
        <ele>65</ele>
        <time>2019-05-12T03:04:02.000Z</time>
      </trkpt>
      <trkpt lat="48.73632" lon="2.24537">
        <ele>65</ele>
        <time>2019-05-12T03:04:04.000Z</time>
      </trkpt>
      <trkpt lat="48.73642" lon="2.24522">
        <ele>65</ele>
        <time>2019-05-12T03:04:08.000Z</time>
      </trkpt>
      <trkpt lat="48.73647" lon="2.24511">
        <ele>65</ele>
        <time>2019-05-12T03:04:10.000Z</time>
      </trkpt>
      <trkpt lat="48.7365" lon="2.24504">
        <ele>65</ele>
        <time>2019-05-12T03:04:12.000Z</time>
      </trkpt>
      <trkpt lat="48.7365" lon="2.24504">
        <ele>65</ele>
        <time>2019-05-12T03:04:14.000Z</time>
      </trkpt>
      <trkpt lat="48.7365" lon="2.24504">
        <ele>65</ele>
        <time>2019-05-12T03:04:16.000Z</time>
      </trkpt>
      <trkpt lat="48.7365" lon="2.24504">
        <ele>65</ele>
        <time>2019-05-12T03:04:18.000Z</time>
      </trkpt>
      <trkpt lat="48.7365" lon="2.24504">
        <ele>65</ele>
        <time>2019-05-12T03:04:20.000Z</time>
      </trkpt>
      <trkpt lat="48.73656" lon="2.24493">
        <ele>65</ele>
        <time>2019-05-12T03:04:22.000Z</time>
      </trkpt>
      <trkpt lat="48.7366" lon="2.24486">
        <ele>65</ele>
        <time>2019-05-12T03:04:24.000Z</time>
      </trkpt>
      <trkpt lat="48.73663" lon="2.2448">
        <ele>65</ele>
        <time>2019-05-12T03:04:26.000Z</time>
      </trkpt>
      <trkpt lat="48.73668" lon="2.24474">
        <ele>65</ele>
        <time>2019-05-12T03:04:30.000Z</time>
      </trkpt>
      <trkpt lat="48.7367" lon="2.24468">
        <ele>65</ele>
        <time>2019-05-12T03:04:32.000Z</time>
      </trkpt>
      <trkpt lat="48.7367" lon="2.24468">
        <ele>65</ele>
        <time>2019-05-12T03:04:34.000Z</time>
      </trkpt>
      <trkpt lat="48.7367" lon="2.24468">
        <ele>65</ele>
        <time>2019-05-12T03:04:36.000Z</time>
      </trkpt>
      <trkpt lat="48.7367" lon="2.24468">
        <ele>65</ele>
        <time>2019-05-12T03:04:38.000Z</time>
      </trkpt>
      <trkpt lat="48.73672" lon="2.24458">
        <ele>65</ele>
        <time>2019-05-12T03:04:42.000Z</time>
      </trkpt>
      <trkpt lat="48.73674" lon="2.2445">
        <ele>65</ele>
        <time>2019-05-12T03:04:44.000Z</time>
      </trkpt>
      <trkpt lat="48.73674" lon="2.2445">
        <ele>65</ele>
        <time>2019-05-12T03:04:46.000Z</time>
      </trkpt>
      <trkpt lat="48.73674" lon="2.2445">
        <ele>65</ele>
        <time>2019-05-12T03:04:48.000Z</time>
      </trkpt>
      <trkpt lat="48.73674" lon="2.2445">
        <ele>65</ele>
        <time>2019-05-12T03:04:50.000Z</time>
      </trkpt>
      <trkpt lat="48.73674" lon="2.2445">
        <ele>65</ele>
        <time>2019-05-12T03:04:52.000Z</time>
      </trkpt>
      <trkpt lat="48.73674" lon="2.2445">
        <ele>65</ele>
        <time>2019-05-12T03:04:54.000Z</time>
      </trkpt>
      <trkpt lat="48.73674" lon="2.2445">
        <ele>65</ele>
        <time>2019-05-12T03:04:56.000Z</time>
      </trkpt>
      <trkpt lat="48.73679" lon="2.24438">
        <ele>65</ele>
        <time>2019-05-12T03:05:00.000Z</time>
      </trkpt>
      <trkpt lat="48.73679" lon="2.24438">
        <ele>65</ele>
        <time>2019-05-12T03:05:02.000Z</time>
      </trkpt>
      <trkpt lat="48.73679" lon="2.24438">
        <ele>65</ele>
        <time>2019-05-12T03:05:04.000Z</time>
      </trkpt>
      <trkpt lat="48.73679" lon="2.24438">
        <ele>65</ele>
        <time>2019-05-12T03:05:06.000Z</time>
      </trkpt>
      <trkpt lat="48.73685" lon="2.24431">
        <ele>65</ele>
        <time>2019-05-12T03:05:08.000Z</time>
      </trkpt>
      <trkpt lat="48.73689" lon="2.24427">
        <ele>65</ele>
        <time>2019-05-12T03:05:10.000Z</time>
      </trkpt>
      <trkpt lat="48.73689" lon="2.24427">
        <ele>65</ele>
        <time>2019-05-12T03:05:12.000Z</time>
      </trkpt>
      <trkpt lat="48.73693" lon="2.2442">
        <ele>65</ele>
        <time>2019-05-12T03:05:16.000Z</time>
      </trkpt>
      <trkpt lat="48.73693" lon="2.2442">
        <ele>65</ele>
        <time>2019-05-12T03:05:18.000Z</time>
      </trkpt>
      <trkpt lat="48.73693" lon="2.2442">
        <ele>65</ele>
        <time>2019-05-12T03:05:20.000Z</time>
      </trkpt>
      <trkpt lat="48.73693" lon="2.24407">
        <ele>65</ele>
        <time>2019-05-12T03:05:24.000Z</time>
      </trkpt>
      <trkpt lat="48.73692" lon="2.24398">
        <ele>65</ele>
        <time>2019-05-12T03:05:26.000Z</time>
      </trkpt>
      <trkpt lat="48.73691" lon="2.24391">
        <ele>65</ele>
        <time>2019-05-12T03:05:28.000Z</time>
      </trkpt>
      <trkpt lat="48.73691" lon="2.24391">
        <ele>65</ele>
        <time>2019-05-12T03:05:30.000Z</time>
      </trkpt>
      <trkpt lat="48.73691" lon="2.24391">
        <ele>65</ele>
        <time>2019-05-12T03:05:32.000Z</time>
      </trkpt>
      <trkpt lat="48.73691" lon="2.24391">
        <ele>65</ele>
        <time>2019-05-12T03:05:40.000Z</time>
      </trkpt>
      <trkpt lat="48.73689" lon="2.24372">
        <ele>66</ele>
        <time>2019-05-12T03:05:42.000Z</time>
      </trkpt>
      <trkpt lat="48.73689" lon="2.24361">
        <ele>66</ele>
        <time>2019-05-12T03:05:44.000Z</time>
      </trkpt>
      <trkpt lat="48.73692" lon="2.24355">
        <ele>66</ele>
        <time>2019-05-12T03:05:46.000Z</time>
      </trkpt>
      <trkpt lat="48.73696" lon="2.24351">
        <ele>66</ele>
        <time>2019-05-12T03:05:48.000Z</time>
      </trkpt>
      <trkpt lat="48.737" lon="2.24349">
        <ele>66</ele>
        <time>2019-05-12T03:05:50.000Z</time>
      </trkpt>
      <trkpt lat="48.737" lon="2.24349">
        <ele>66</ele>
        <time>2019-05-12T03:05:52.000Z</time>
      </trkpt>
      <trkpt lat="48.737" lon="2.24349">
        <ele>66</ele>
        <time>2019-05-12T03:05:54.000Z</time>
      </trkpt>
      <trkpt lat="48.73721" lon="2.2434">
        <ele>65</ele>
        <time>2019-05-12T03:05:58.000Z</time>
      </trkpt>
      <trkpt lat="48.73721" lon="2.2434">
        <ele>65</ele>
        <time>2019-05-12T03:06:02.000Z</time>
      </trkpt>
      <trkpt lat="48.73721" lon="2.2434">
        <ele>65</ele>
        <time>2019-05-12T03:06:04.000Z</time>
      </trkpt>
      <trkpt lat="48.73721" lon="2.2434">
        <ele>65</ele>
        <time>2019-05-12T03:06:08.000Z</time>
      </trkpt>
      <trkpt lat="48.73723" lon="2.24321">
        <ele>66</ele>
        <time>2019-05-12T03:06:16.000Z</time>
      </trkpt>
      <trkpt lat="48.73723" lon="2.24321">
        <ele>66</ele>
        <time>2019-05-12T03:06:18.000Z</time>
      </trkpt>
      <trkpt lat="48.73723" lon="2.24321">
        <ele>66</ele>
        <time>2019-05-12T03:06:20.000Z</time>
      </trkpt>
      <trkpt lat="48.73723" lon="2.24321">
        <ele>66</ele>
        <time>2019-05-12T03:06:22.000Z</time>
      </trkpt>
      <trkpt lat="48.73721" lon="2.24301">
        <ele>66</ele>
        <time>2019-05-12T03:06:26.000Z</time>
      </trkpt>
      <trkpt lat="48.73721" lon="2.24301">
        <ele>66</ele>
        <time>2019-05-12T03:06:32.000Z</time>
      </trkpt>
      <trkpt lat="48.73721" lon="2.24301">
        <ele>66</ele>
        <time>2019-05-12T03:06:34.000Z</time>
      </trkpt>
      <trkpt lat="48.73721" lon="2.24301">
        <ele>66</ele>
        <time>2019-05-12T03:06:36.000Z</time>
      </trkpt>
      <trkpt lat="48.73727" lon="2.24289">
        <ele>66</ele>
        <time>2019-05-12T03:06:40.000Z</time>
      </trkpt>
      <trkpt lat="48.73727" lon="2.24289">
        <ele>66</ele>
        <time>2019-05-12T03:06:42.000Z</time>
      </trkpt>
      <trkpt lat="48.7374" lon="2.24291">
        <ele>66</ele>
        <time>2019-05-12T03:06:48.000Z</time>
      </trkpt>
      <trkpt lat="48.7374" lon="2.24291">
        <ele>66</ele>
        <time>2019-05-12T03:06:54.000Z</time>
      </trkpt>
      <trkpt lat="48.7374" lon="2.24291">
        <ele>66</ele>
        <time>2019-05-12T03:06:56.000Z</time>
      </trkpt>
      <trkpt lat="48.73751" lon="2.24288">
        <ele>65</ele>
        <time>2019-05-12T03:07:02.000Z</time>
      </trkpt>
      <trkpt lat="48.73758" lon="2.24286">
        <ele>65</ele>
        <time>2019-05-12T03:07:04.000Z</time>
      </trkpt>
      <trkpt lat="48.73764" lon="2.24284">
        <ele>65</ele>
        <time>2019-05-12T03:07:08.000Z</time>
      </trkpt>
      <trkpt lat="48.73764" lon="2.24284">
        <ele>65</ele>
        <time>2019-05-12T03:07:10.000Z</time>
      </trkpt>
      <trkpt lat="48.73764" lon="2.24284">
        <ele>65</ele>
        <time>2019-05-12T03:07:12.000Z</time>
      </trkpt>
      <trkpt lat="48.73771" lon="2.2428">
        <ele>65</ele>
        <time>2019-05-12T03:07:14.000Z</time>
      </trkpt>
      <trkpt lat="48.73776" lon="2.24276">
        <ele>65</ele>
        <time>2019-05-12T03:07:16.000Z</time>
      </trkpt>
      <trkpt lat="48.73776" lon="2.24276">
        <ele>65</ele>
        <time>2019-05-12T03:07:18.000Z</time>
      </trkpt>
      <trkpt lat="48.73781" lon="2.24273">
        <ele>65</ele>
        <time>2019-05-12T03:07:20.000Z</time>
      </trkpt>
      <trkpt lat="48.73787" lon="2.2427">
        <ele>65</ele>
        <time>2019-05-12T03:07:24.000Z</time>
      </trkpt>
      <trkpt lat="48.73792" lon="2.24267">
        <ele>65</ele>
        <time>2019-05-12T03:07:26.000Z</time>
      </trkpt>
      <trkpt lat="48.73796" lon="2.24264">
        <ele>65</ele>
        <time>2019-05-12T03:07:28.000Z</time>
      </trkpt>
      <trkpt lat="48.73796" lon="2.24264">
        <ele>65</ele>
        <time>2019-05-12T03:07:30.000Z</time>
      </trkpt>
      <trkpt lat="48.73796" lon="2.24264">
        <ele>65</ele>
        <time>2019-05-12T03:07:32.000Z</time>
      </trkpt>
      <trkpt lat="48.73796" lon="2.24264">
        <ele>65</ele>
        <time>2019-05-12T03:07:34.000Z</time>
      </trkpt>
      <trkpt lat="48.73797" lon="2.24252">
        <ele>65</ele>
        <time>2019-05-12T03:07:38.000Z</time>
      </trkpt>
      <trkpt lat="48.73797" lon="2.24243">
        <ele>65</ele>
        <time>2019-05-12T03:07:40.000Z</time>
      </trkpt>
      <trkpt lat="48.73797" lon="2.24243">
        <ele>65</ele>
        <time>2019-05-12T03:07:42.000Z</time>
      </trkpt>
      <trkpt lat="48.73796" lon="2.24235">
        <ele>65</ele>
        <time>2019-05-12T03:07:44.000Z</time>
      </trkpt>
      <trkpt lat="48.73796" lon="2.24235">
        <ele>65</ele>
        <time>2019-05-12T03:07:46.000Z</time>
      </trkpt>
      <trkpt lat="48.73796" lon="2.24235">
        <ele>65</ele>
        <time>2019-05-12T03:07:48.000Z</time>
      </trkpt>
      <trkpt lat="48.73796" lon="2.24235">
        <ele>65</ele>
        <time>2019-05-12T03:07:50.000Z</time>
      </trkpt>
      <trkpt lat="48.73796" lon="2.24235">
        <ele>65</ele>
        <time>2019-05-12T03:07:52.000Z</time>
      </trkpt>
      <trkpt lat="48.73796" lon="2.24235">
        <ele>65</ele>
        <time>2019-05-12T03:07:54.000Z</time>
      </trkpt>
      <trkpt lat="48.73794" lon="2.24217">
        <ele>65</ele>
        <time>2019-05-12T03:07:58.000Z</time>
      </trkpt>
      <trkpt lat="48.73792" lon="2.24206">
        <ele>65</ele>
        <time>2019-05-12T03:08:00.000Z</time>
      </trkpt>
      <trkpt lat="48.73792" lon="2.24198">
        <ele>65</ele>
        <time>2019-05-12T03:08:02.000Z</time>
      </trkpt>
      <trkpt lat="48.73792" lon="2.24198">
        <ele>65</ele>
        <time>2019-05-12T03:08:04.000Z</time>
      </trkpt>
      <trkpt lat="48.73792" lon="2.24198">
        <ele>65</ele>
        <time>2019-05-12T03:08:06.000Z</time>
      </trkpt>
      <trkpt lat="48.73792" lon="2.24198">
        <ele>65</ele>
        <time>2019-05-12T03:08:08.000Z</time>
      </trkpt>
      <trkpt lat="48.73792" lon="2.24198">
        <ele>65</ele>
        <time>2019-05-12T03:08:10.000Z</time>
      </trkpt>
      <trkpt lat="48.73796" lon="2.2419">
        <ele>65</ele>
        <time>2019-05-12T03:08:14.000Z</time>
      </trkpt>
      <trkpt lat="48.738" lon="2.24185">
        <ele>65</ele>
        <time>2019-05-12T03:08:16.000Z</time>
      </trkpt>
      <trkpt lat="48.73805" lon="2.24181">
        <ele>65</ele>
        <time>2019-05-12T03:08:20.000Z</time>
      </trkpt>
      <trkpt lat="48.73805" lon="2.24181">
        <ele>65</ele>
        <time>2019-05-12T03:08:22.000Z</time>
      </trkpt>
      <trkpt lat="48.73805" lon="2.24181">
        <ele>65</ele>
        <time>2019-05-12T03:08:24.000Z</time>
      </trkpt>
      <trkpt lat="48.73805" lon="2.24181">
        <ele>65</ele>
        <time>2019-05-12T03:08:26.000Z</time>
      </trkpt>
      <trkpt lat="48.73805" lon="2.24181">
        <ele>65</ele>
        <time>2019-05-12T03:08:28.000Z</time>
      </trkpt>
      <trkpt lat="48.73812" lon="2.24178">
        <ele>65</ele>
        <time>2019-05-12T03:08:30.000Z</time>
      </trkpt>
      <trkpt lat="48.73818" lon="2.24176">
        <ele>65</ele>
        <time>2019-05-12T03:08:32.000Z</time>
      </trkpt>
      <trkpt lat="48.73823" lon="2.24174">
        <ele>66</ele>
        <time>2019-05-12T03:08:34.000Z</time>
      </trkpt>
      <trkpt lat="48.73828" lon="2.24173">
        <ele>66</ele>
        <time>2019-05-12T03:08:38.000Z</time>
      </trkpt>
      <trkpt lat="48.73828" lon="2.24173">
        <ele>66</ele>
        <time>2019-05-12T03:08:40.000Z</time>
      </trkpt>
      <trkpt lat="48.73828" lon="2.24173">
        <ele>66</ele>
        <time>2019-05-12T03:08:42.000Z</time>
      </trkpt>
      <trkpt lat="48.73828" lon="2.24173">
        <ele>66</ele>
        <time>2019-05-12T03:08:44.000Z</time>
      </trkpt>
      <trkpt lat="48.73828" lon="2.24173">
        <ele>66</ele>
        <time>2019-05-12T03:08:46.000Z</time>
      </trkpt>
      <trkpt lat="48.73828" lon="2.24173">
        <ele>66</ele>
        <time>2019-05-12T03:08:48.000Z</time>
      </trkpt>
      <trkpt lat="48.73828" lon="2.24173">
        <ele>66</ele>
        <time>2019-05-12T03:08:50.000Z</time>
      </trkpt>
      <trkpt lat="48.73828" lon="2.24173">
        <ele>66</ele>
        <time>2019-05-12T03:08:52.000Z</time>
      </trkpt>
      <trkpt lat="48.73841" lon="2.2417">
        <ele>67</ele>
        <time>2019-05-12T03:08:56.000Z</time>
      </trkpt>
      <trkpt lat="48.73848" lon="2.24168">
        <ele>67</ele>
        <time>2019-05-12T03:08:58.000Z</time>
      </trkpt>
      <trkpt lat="48.73853" lon="2.24167">
        <ele>68</ele>
        <time>2019-05-12T03:09:00.000Z</time>
      </trkpt>
      <trkpt lat="48.73858" lon="2.24165">
        <ele>68</ele>
        <time>2019-05-12T03:09:02.000Z</time>
      </trkpt>
      <trkpt lat="48.73858" lon="2.24165">
        <ele>68</ele>
        <time>2019-05-12T03:09:06.000Z</time>
      </trkpt>
      <trkpt lat="48.73861" lon="2.2416">
        <ele>68</ele>
        <time>2019-05-12T03:09:08.000Z</time>
      </trkpt>
      <trkpt lat="48.73862" lon="2.24153">
        <ele>68</ele>
        <time>2019-05-12T03:09:12.000Z</time>
      </trkpt>
      <trkpt lat="48.73862" lon="2.24145">
        <ele>68</ele>
        <time>2019-05-12T03:09:16.000Z</time>
      </trkpt>
      <trkpt lat="48.7386" lon="2.24138">
        <ele>68</ele>
        <time>2019-05-12T03:09:18.000Z</time>
      </trkpt>
      <trkpt lat="48.7386" lon="2.24138">
        <ele>68</ele>
        <time>2019-05-12T03:09:20.000Z</time>
      </trkpt>
      <trkpt lat="48.7386" lon="2.24138">
        <ele>68</ele>
        <time>2019-05-12T03:09:22.000Z</time>
      </trkpt>
      <trkpt lat="48.7386" lon="2.24138">
        <ele>68</ele>
        <time>2019-05-12T03:09:24.000Z</time>
      </trkpt>
      <trkpt lat="48.7386" lon="2.24138">
        <ele>68</ele>
        <time>2019-05-12T03:09:26.000Z</time>
      </trkpt>
      <trkpt lat="48.73857" lon="2.24122">
        <ele>68</ele>
        <time>2019-05-12T03:09:30.000Z</time>
      </trkpt>
      <trkpt lat="48.73856" lon="2.24112">
        <ele>67</ele>
        <time>2019-05-12T03:09:32.000Z</time>
      </trkpt>
      <trkpt lat="48.73855" lon="2.24104">
        <ele>67</ele>
        <time>2019-05-12T03:09:34.000Z</time>
      </trkpt>
      <trkpt lat="48.73854" lon="2.24096">
        <ele>67</ele>
        <time>2019-05-12T03:09:38.000Z</time>
      </trkpt>
      <trkpt lat="48.73854" lon="2.24096">
        <ele>67</ele>
        <time>2019-05-12T03:09:40.000Z</time>
      </trkpt>
      <trkpt lat="48.73854" lon="2.24096">
        <ele>67</ele>
        <time>2019-05-12T03:09:42.000Z</time>
      </trkpt>
      <trkpt lat="48.73852" lon="2.24083">
        <ele>67</ele>
        <time>2019-05-12T03:09:48.000Z</time>
      </trkpt>
      <trkpt lat="48.7385" lon="2.24074">
        <ele>67</ele>
        <time>2019-05-12T03:09:50.000Z</time>
      </trkpt>
      <trkpt lat="48.73849" lon="2.24067">
        <ele>67</ele>
        <time>2019-05-12T03:09:54.000Z</time>
      </trkpt>
      <trkpt lat="48.73849" lon="2.24067">
        <ele>67</ele>
        <time>2019-05-12T03:09:56.000Z</time>
      </trkpt>
      <trkpt lat="48.73849" lon="2.24067">
        <ele>67</ele>
        <time>2019-05-12T03:09:58.000Z</time>
      </trkpt>
      <trkpt lat="48.73849" lon="2.24067">
        <ele>67</ele>
        <time>2019-05-12T03:10:00.000Z</time>
      </trkpt>
      <trkpt lat="48.73848" lon="2.24051">
        <ele>67</ele>
        <time>2019-05-12T03:10:06.000Z</time>
      </trkpt>
      <trkpt lat="48.73848" lon="2.24041">
        <ele>67</ele>
        <time>2019-05-12T03:10:08.000Z</time>
      </trkpt>
      <trkpt lat="48.73847" lon="2.24034">
        <ele>67</ele>
        <time>2019-05-12T03:10:10.000Z</time>
      </trkpt>
      <trkpt lat="48.73847" lon="2.24034">
        <ele>67</ele>
        <time>2019-05-12T03:10:12.000Z</time>
      </trkpt>
      <trkpt lat="48.73847" lon="2.24034">
        <ele>67</ele>
        <time>2019-05-12T03:10:14.000Z</time>
      </trkpt>
      <trkpt lat="48.73847" lon="2.24034">
        <ele>67</ele>
        <time>2019-05-12T03:10:16.000Z</time>
      </trkpt>
      <trkpt lat="48.73847" lon="2.24034">
        <ele>67</ele>
        <time>2019-05-12T03:10:18.000Z</time>
      </trkpt>
      <trkpt lat="48.73846" lon="2.2402">
        <ele>67</ele>
        <time>2019-05-12T03:10:22.000Z</time>
      </trkpt>
      <trkpt lat="48.73845" lon="2.2401">
        <ele>67</ele>
        <time>2019-05-12T03:10:24.000Z</time>
      </trkpt>
      <trkpt lat="48.73843" lon="2.24002">
        <ele>67</ele>
        <time>2019-05-12T03:10:26.000Z</time>
      </trkpt>
      <trkpt lat="48.73843" lon="2.24002">
        <ele>67</ele>
        <time>2019-05-12T03:10:28.000Z</time>
      </trkpt>
      <trkpt lat="48.73842" lon="2.23994">
        <ele>67</ele>
        <time>2019-05-12T03:10:30.000Z</time>
      </trkpt>
      <trkpt lat="48.7384" lon="2.23985">
        <ele>67</ele>
        <time>2019-05-12T03:10:34.000Z</time>
      </trkpt>
      <trkpt lat="48.7384" lon="2.23976">
        <ele>67</ele>
        <time>2019-05-12T03:10:38.000Z</time>
      </trkpt>
      <trkpt lat="48.7384" lon="2.23969">
        <ele>67</ele>
        <time>2019-05-12T03:10:40.000Z</time>
      </trkpt>
      <trkpt lat="48.7384" lon="2.23969">
        <ele>67</ele>
        <time>2019-05-12T03:10:42.000Z</time>
      </trkpt>
      <trkpt lat="48.7384" lon="2.23969">
        <ele>67</ele>
        <time>2019-05-12T03:10:44.000Z</time>
      </trkpt>
      <trkpt lat="48.7384" lon="2.23969">
        <ele>67</ele>
        <time>2019-05-12T03:10:46.000Z</time>
      </trkpt>
      <trkpt lat="48.73841" lon="2.23953">
        <ele>67</ele>
        <time>2019-05-12T03:10:54.000Z</time>
      </trkpt>
      <trkpt lat="48.73841" lon="2.23943">
        <ele>67</ele>
        <time>2019-05-12T03:10:56.000Z</time>
      </trkpt>
      <trkpt lat="48.73841" lon="2.23936">
        <ele>67</ele>
        <time>2019-05-12T03:10:58.000Z</time>
      </trkpt>
      <trkpt lat="48.73843" lon="2.23928">
        <ele>66</ele>
        <time>2019-05-12T03:11:02.000Z</time>
      </trkpt>
      <trkpt lat="48.73845" lon="2.23921">
        <ele>66</ele>
        <time>2019-05-12T03:11:06.000Z</time>
      </trkpt>
      <trkpt lat="48.73845" lon="2.23921">
        <ele>66</ele>
        <time>2019-05-12T03:11:08.000Z</time>
      </trkpt>
      <trkpt lat="48.73848" lon="2.23913">
        <ele>66</ele>
        <time>2019-05-12T03:11:12.000Z</time>
      </trkpt>
      <trkpt lat="48.7385" lon="2.23908">
        <ele>66</ele>
        <time>2019-05-12T03:11:14.000Z</time>
      </trkpt>
      <trkpt lat="48.73853" lon="2.23901">
        <ele>67</ele>
        <time>2019-05-12T03:11:18.000Z</time>
      </trkpt>
      <trkpt lat="48.73854" lon="2.23894">
        <ele>67</ele>
        <time>2019-05-12T03:11:22.000Z</time>
      </trkpt>
      <trkpt lat="48.73854" lon="2.23894">
        <ele>67</ele>
        <time>2019-05-12T03:11:24.000Z</time>
      </trkpt>
      <trkpt lat="48.73854" lon="2.23894">
        <ele>67</ele>
        <time>2019-05-12T03:11:26.000Z</time>
      </trkpt>
      <trkpt lat="48.73854" lon="2.23894">
        <ele>67</ele>
        <time>2019-05-12T03:11:28.000Z</time>
      </trkpt>
      <trkpt lat="48.73856" lon="2.23882">
        <ele>67</ele>
        <time>2019-05-12T03:11:30.000Z</time>
      </trkpt>
      <trkpt lat="48.73856" lon="2.23874">
        <ele>67</ele>
        <time>2019-05-12T03:11:32.000Z</time>
      </trkpt>
      <trkpt lat="48.73856" lon="2.23874">
        <ele>67</ele>
        <time>2019-05-12T03:11:36.000Z</time>
      </trkpt>
      <trkpt lat="48.73856" lon="2.23874">
        <ele>67</ele>
        <time>2019-05-12T03:11:38.000Z</time>
      </trkpt>
      <trkpt lat="48.73859" lon="2.2386">
        <ele>67</ele>
        <time>2019-05-12T03:11:42.000Z</time>
      </trkpt>
      <trkpt lat="48.73861" lon="2.23851">
        <ele>67</ele>
        <time>2019-05-12T03:11:44.000Z</time>
      </trkpt>
      <trkpt lat="48.73861" lon="2.23851">
        <ele>67</ele>
        <time>2019-05-12T03:11:46.000Z</time>
      </trkpt>
      <trkpt lat="48.73861" lon="2.23851">
        <ele>67</ele>
        <time>2019-05-12T03:11:48.000Z</time>
      </trkpt>
      <trkpt lat="48.73861" lon="2.23851">
        <ele>67</ele>
        <time>2019-05-12T03:11:50.000Z</time>
      </trkpt>
      <trkpt lat="48.73864" lon="2.23837">
        <ele>67</ele>
        <time>2019-05-12T03:11:54.000Z</time>
      </trkpt>
      <trkpt lat="48.73865" lon="2.23828">
        <ele>66</ele>
        <time>2019-05-12T03:11:56.000Z</time>
      </trkpt>
      <trkpt lat="48.73865" lon="2.23828">
        <ele>66</ele>
        <time>2019-05-12T03:11:58.000Z</time>
      </trkpt>
      <trkpt lat="48.73865" lon="2.23828">
        <ele>66</ele>
        <time>2019-05-12T03:12:00.000Z</time>
      </trkpt>
      <trkpt lat="48.73865" lon="2.23828">
        <ele>66</ele>
        <time>2019-05-12T03:12:02.000Z</time>
      </trkpt>
      <trkpt lat="48.73865" lon="2.23828">
        <ele>66</ele>
        <time>2019-05-12T03:12:04.000Z</time>
      </trkpt>
      <trkpt lat="48.73865" lon="2.23828">
        <ele>66</ele>
        <time>2019-05-12T03:12:06.000Z</time>
      </trkpt>
      <trkpt lat="48.73865" lon="2.23828">
        <ele>66</ele>
        <time>2019-05-12T03:12:08.000Z</time>
      </trkpt>
      <trkpt lat="48.73865" lon="2.23828">
        <ele>66</ele>
        <time>2019-05-12T03:12:10.000Z</time>
      </trkpt>
      <trkpt lat="48.73865" lon="2.23828">
        <ele>66</ele>
        <time>2019-05-12T03:12:12.000Z</time>
      </trkpt>
      <trkpt lat="48.73873" lon="2.23807">
        <ele>66</ele>
        <time>2019-05-12T03:12:16.000Z</time>
      </trkpt>
      <trkpt lat="48.73878" lon="2.23795">
        <ele>66</ele>
        <time>2019-05-12T03:12:18.000Z</time>
      </trkpt>
      <trkpt lat="48.73882" lon="2.23788">
        <ele>66</ele>
        <time>2019-05-12T03:12:20.000Z</time>
      </trkpt>
      <trkpt lat="48.73882" lon="2.23788">
        <ele>66</ele>
        <time>2019-05-12T03:12:22.000Z</time>
      </trkpt>
      <trkpt lat="48.73882" lon="2.23788">
        <ele>66</ele>
        <time>2019-05-12T03:12:24.000Z</time>
      </trkpt>
      <trkpt lat="48.73882" lon="2.23788">
        <ele>66</ele>
        <time>2019-05-12T03:12:26.000Z</time>
      </trkpt>
      <trkpt lat="48.73882" lon="2.23788">
        <ele>66</ele>
        <time>2019-05-12T03:12:30.000Z</time>
      </trkpt>
      <trkpt lat="48.73889" lon="2.23777">
        <ele>66</ele>
        <time>2019-05-12T03:12:36.000Z</time>
      </trkpt>
      <trkpt lat="48.73894" lon="2.23771">
        <ele>66</ele>
        <time>2019-05-12T03:12:38.000Z</time>
      </trkpt>
      <trkpt lat="48.73894" lon="2.23771">
        <ele>66</ele>
        <time>2019-05-12T03:12:44.000Z</time>
      </trkpt>
      <trkpt lat="48.73894" lon="2.23771">
        <ele>66</ele>
        <time>2019-05-12T03:12:46.000Z</time>
      </trkpt>
      <trkpt lat="48.739" lon="2.23768">
        <ele>66</ele>
        <time>2019-05-12T03:12:50.000Z</time>
      </trkpt>
      <trkpt lat="48.73906" lon="2.23766">
        <ele>67</ele>
        <time>2019-05-12T03:12:52.000Z</time>
      </trkpt>
      <trkpt lat="48.73911" lon="2.23764">
        <ele>67</ele>
        <time>2019-05-12T03:12:54.000Z</time>
      </trkpt>
      <trkpt lat="48.73916" lon="2.23762">
        <ele>67</ele>
        <time>2019-05-12T03:12:56.000Z</time>
      </trkpt>
      <trkpt lat="48.73916" lon="2.23762">
        <ele>67</ele>
        <time>2019-05-12T03:12:58.000Z</time>
      </trkpt>
      <trkpt lat="48.73916" lon="2.23762">
        <ele>67</ele>
        <time>2019-05-12T03:13:00.000Z</time>
      </trkpt>
      <trkpt lat="48.73916" lon="2.23762">
        <ele>67</ele>
        <time>2019-05-12T03:13:02.000Z</time>
      </trkpt>
      <trkpt lat="48.73924" lon="2.23758">
        <ele>68</ele>
        <time>2019-05-12T03:13:04.000Z</time>
      </trkpt>
      <trkpt lat="48.7393" lon="2.23756">
        <ele>68</ele>
        <time>2019-05-12T03:13:06.000Z</time>
      </trkpt>
      <trkpt lat="48.7393" lon="2.23756">
        <ele>68</ele>
        <time>2019-05-12T03:13:08.000Z</time>
      </trkpt>
      <trkpt lat="48.73935" lon="2.23753">
        <ele>68</ele>
        <time>2019-05-12T03:13:10.000Z</time>
      </trkpt>
      <trkpt lat="48.73935" lon="2.23753">
        <ele>68</ele>
        <time>2019-05-12T03:13:12.000Z</time>
      </trkpt>
      <trkpt lat="48.73942" lon="2.23748">
        <ele>67</ele>
        <time>2019-05-12T03:13:16.000Z</time>
      </trkpt>
      <trkpt lat="48.73948" lon="2.23744">
        <ele>67</ele>
        <time>2019-05-12T03:13:18.000Z</time>
      </trkpt>
      <trkpt lat="48.73952" lon="2.23741">
        <ele>67</ele>
        <time>2019-05-12T03:13:20.000Z</time>
      </trkpt>
      <trkpt lat="48.73952" lon="2.23741">
        <ele>67</ele>
        <time>2019-05-12T03:13:22.000Z</time>
      </trkpt>
      <trkpt lat="48.73952" lon="2.23741">
        <ele>67</ele>
        <time>2019-05-12T03:13:24.000Z</time>
      </trkpt>
      <trkpt lat="48.73952" lon="2.23741">
        <ele>67</ele>
        <time>2019-05-12T03:13:26.000Z</time>
      </trkpt>
      <trkpt lat="48.73952" lon="2.23741">
        <ele>67</ele>
        <time>2019-05-12T03:13:28.000Z</time>
      </trkpt>
      <trkpt lat="48.73958" lon="2.23733">
        <ele>67</ele>
        <time>2019-05-12T03:13:30.000Z</time>
      </trkpt>
      <trkpt lat="48.73962" lon="2.23728">
        <ele>67</ele>
        <time>2019-05-12T03:13:32.000Z</time>
      </trkpt>
      <trkpt lat="48.73965" lon="2.23723">
        <ele>67</ele>
        <time>2019-05-12T03:13:36.000Z</time>
      </trkpt>
      <trkpt lat="48.73965" lon="2.23723">
        <ele>67</ele>
        <time>2019-05-12T03:13:38.000Z</time>
      </trkpt>
      <trkpt lat="48.73965" lon="2.23723">
        <ele>67</ele>
        <time>2019-05-12T03:13:40.000Z</time>
      </trkpt>
      <trkpt lat="48.73965" lon="2.23723">
        <ele>67</ele>
        <time>2019-05-12T03:13:42.000Z</time>
      </trkpt>
      <trkpt lat="48.73972" lon="2.23716">
        <ele>67</ele>
        <time>2019-05-12T03:13:44.000Z</time>
      </trkpt>
      <trkpt lat="48.73977" lon="2.23711">
        <ele>67</ele>
        <time>2019-05-12T03:13:46.000Z</time>
      </trkpt>
      <trkpt lat="48.73981" lon="2.23708">
        <ele>67</ele>
        <time>2019-05-12T03:13:48.000Z</time>
      </trkpt>
      <trkpt lat="48.73985" lon="2.23705">
        <ele>67</ele>
        <time>2019-05-12T03:13:50.000Z</time>
      </trkpt>
      <trkpt lat="48.73985" lon="2.23705">
        <ele>67</ele>
        <time>2019-05-12T03:13:52.000Z</time>
      </trkpt>
      <trkpt lat="48.73991" lon="2.23702">
        <ele>67</ele>
        <time>2019-05-12T03:13:54.000Z</time>
      </trkpt>
      <trkpt lat="48.73996" lon="2.23698">
        <ele>67</ele>
        <time>2019-05-12T03:13:56.000Z</time>
      </trkpt>
      <trkpt lat="48.73996" lon="2.23698">
        <ele>67</ele>
        <time>2019-05-12T03:13:58.000Z</time>
      </trkpt>
      <trkpt lat="48.73996" lon="2.23698">
        <ele>67</ele>
        <time>2019-05-12T03:14:00.000Z</time>
      </trkpt>
      <trkpt lat="48.73996" lon="2.23698">
        <ele>67</ele>
        <time>2019-05-12T03:14:02.000Z</time>
      </trkpt>
      <trkpt lat="48.73996" lon="2.23698">
        <ele>67</ele>
        <time>2019-05-12T03:14:06.000Z</time>
      </trkpt>
      <trkpt lat="48.73996" lon="2.23698">
        <ele>67</ele>
        <time>2019-05-12T03:14:08.000Z</time>
      </trkpt>
      <trkpt lat="48.74006" lon="2.2369">
        <ele>69</ele>
        <time>2019-05-12T03:14:12.000Z</time>
      </trkpt>
      <trkpt lat="48.74012" lon="2.23686">
        <ele>69</ele>
        <time>2019-05-12T03:14:14.000Z</time>
      </trkpt>
      <trkpt lat="48.74017" lon="2.23683">
        <ele>69</ele>
        <time>2019-05-12T03:14:16.000Z</time>
      </trkpt>
      <trkpt lat="48.74017" lon="2.23683">
        <ele>69</ele>
        <time>2019-05-12T03:14:18.000Z</time>
      </trkpt>
      <trkpt lat="48.74017" lon="2.23683">
        <ele>69</ele>
        <time>2019-05-12T03:14:20.000Z</time>
      </trkpt>
      <trkpt lat="48.74017" lon="2.23683">
        <ele>69</ele>
        <time>2019-05-12T03:14:22.000Z</time>
      </trkpt>
      <trkpt lat="48.74026" lon="2.23678">
        <ele>69</ele>
        <time>2019-05-12T03:14:26.000Z</time>
      </trkpt>
      <trkpt lat="48.74034" lon="2.23674">
        <ele>69</ele>
        <time>2019-05-12T03:14:28.000Z</time>
      </trkpt>
      <trkpt lat="48.74039" lon="2.23672">
        <ele>69</ele>
        <time>2019-05-12T03:14:30.000Z</time>
      </trkpt>
      <trkpt lat="48.74044" lon="2.2367">
        <ele>69</ele>
        <time>2019-05-12T03:14:32.000Z</time>
      </trkpt>
      <trkpt lat="48.74044" lon="2.2367">
        <ele>69</ele>
        <time>2019-05-12T03:14:34.000Z</time>
      </trkpt>
      <trkpt lat="48.74044" lon="2.2367">
        <ele>69</ele>
        <time>2019-05-12T03:14:36.000Z</time>
      </trkpt>
      <trkpt lat="48.74044" lon="2.2367">
        <ele>69</ele>
        <time>2019-05-12T03:14:38.000Z</time>
      </trkpt>
      <trkpt lat="48.74044" lon="2.2367">
        <ele>69</ele>
        <time>2019-05-12T03:14:40.000Z</time>
      </trkpt>
      <trkpt lat="48.74055" lon="2.23667">
        <ele>67</ele>
        <time>2019-05-12T03:14:44.000Z</time>
      </trkpt>
      <trkpt lat="48.74061" lon="2.23665">
        <ele>67</ele>
        <time>2019-05-12T03:14:46.000Z</time>
      </trkpt>
      <trkpt lat="48.74065" lon="2.23663">
        <ele>67</ele>
        <time>2019-05-12T03:14:48.000Z</time>
      </trkpt>
      <trkpt lat="48.74065" lon="2.23663">
        <ele>67</ele>
        <time>2019-05-12T03:14:50.000Z</time>
      </trkpt>
      <trkpt lat="48.74071" lon="2.23662">
        <ele>67</ele>
        <time>2019-05-12T03:14:52.000Z</time>
      </trkpt>
      <trkpt lat="48.74071" lon="2.23662">
        <ele>67</ele>
        <time>2019-05-12T03:14:56.000Z</time>
      </trkpt>
      <trkpt lat="48.74071" lon="2.23662">
        <ele>67</ele>
        <time>2019-05-12T03:14:58.000Z</time>
      </trkpt>
      <trkpt lat="48.74081" lon="2.23659">
        <ele>68</ele>
        <time>2019-05-12T03:15:02.000Z</time>
      </trkpt>
      <trkpt lat="48.74081" lon="2.23659">
        <ele>68</ele>
        <time>2019-05-12T03:15:04.000Z</time>
      </trkpt>
      <trkpt lat="48.74081" lon="2.23659">
        <ele>68</ele>
        <time>2019-05-12T03:15:06.000Z</time>
      </trkpt>
      <trkpt lat="48.74081" lon="2.23659">
        <ele>68</ele>
        <time>2019-05-12T03:15:08.000Z</time>
      </trkpt>
      <trkpt lat="48.74081" lon="2.23659">
        <ele>68</ele>
        <time>2019-05-12T03:15:10.000Z</time>
      </trkpt>
      <trkpt lat="48.74081" lon="2.23659">
        <ele>68</ele>
        <time>2019-05-12T03:15:16.000Z</time>
      </trkpt>
      <trkpt lat="48.74081" lon="2.23659">
        <ele>68</ele>
        <time>2019-05-12T03:15:18.000Z</time>
      </trkpt>
      <trkpt lat="48.74081" lon="2.23659">
        <ele>68</ele>
        <time>2019-05-12T03:15:30.000Z</time>
      </trkpt>
      <trkpt lat="48.74094" lon="2.23649">
        <ele>69</ele>
        <time>2019-05-12T03:15:34.000Z</time>
      </trkpt>
      <trkpt lat="48.74102" lon="2.23641">
        <ele>70</ele>
        <time>2019-05-12T03:15:36.000Z</time>
      </trkpt>
      <trkpt lat="48.74107" lon="2.23636">
        <ele>70</ele>
        <time>2019-05-12T03:15:38.000Z</time>
      </trkpt>
      <trkpt lat="48.7411" lon="2.2363">
        <ele>70</ele>
        <time>2019-05-12T03:15:40.000Z</time>
      </trkpt>
      <trkpt lat="48.7411" lon="2.2363">
        <ele>70</ele>
        <time>2019-05-12T03:15:42.000Z</time>
      </trkpt>
      <trkpt lat="48.7411" lon="2.2363">
        <ele>70</ele>
        <time>2019-05-12T03:15:44.000Z</time>
      </trkpt>
      <trkpt lat="48.7411" lon="2.2363">
        <ele>70</ele>
        <time>2019-05-12T03:15:46.000Z</time>
      </trkpt>
      <trkpt lat="48.74117" lon="2.23617">
        <ele>70</ele>
        <time>2019-05-12T03:15:50.000Z</time>
      </trkpt>
      <trkpt lat="48.74121" lon="2.23608">
        <ele>70</ele>
        <time>2019-05-12T03:15:52.000Z</time>
      </trkpt>
      <trkpt lat="48.74125" lon="2.23603">
        <ele>70</ele>
        <time>2019-05-12T03:15:54.000Z</time>
      </trkpt>
      <trkpt lat="48.74125" lon="2.23603">
        <ele>70</ele>
        <time>2019-05-12T03:15:56.000Z</time>
      </trkpt>
      <trkpt lat="48.74125" lon="2.23603">
        <ele>70</ele>
        <time>2019-05-12T03:15:58.000Z</time>
      </trkpt>
      <trkpt lat="48.74125" lon="2.23603">
        <ele>70</ele>
        <time>2019-05-12T03:16:02.000Z</time>
      </trkpt>
      <trkpt lat="48.74131" lon="2.23595">
        <ele>70</ele>
        <time>2019-05-12T03:16:04.000Z</time>
      </trkpt>
      <trkpt lat="48.74135" lon="2.23588">
        <ele>70</ele>
        <time>2019-05-12T03:16:06.000Z</time>
      </trkpt>
      <trkpt lat="48.74138" lon="2.23583">
        <ele>68</ele>
        <time>2019-05-12T03:16:08.000Z</time>
      </trkpt>
      <trkpt lat="48.74138" lon="2.23583">
        <ele>68</ele>
        <time>2019-05-12T03:16:10.000Z</time>
      </trkpt>
      <trkpt lat="48.74138" lon="2.23583">
        <ele>68</ele>
        <time>2019-05-12T03:16:12.000Z</time>
      </trkpt>
      <trkpt lat="48.74138" lon="2.23583">
        <ele>68</ele>
        <time>2019-05-12T03:16:19.000Z</time>
      </trkpt>
      <trkpt lat="48.74143" lon="2.23563">
        <ele>68</ele>
        <time>2019-05-12T03:16:25.000Z</time>
      </trkpt>
      <trkpt lat="48.74146" lon="2.23552">
        <ele>68</ele>
        <time>2019-05-12T03:16:27.000Z</time>
      </trkpt>
      <trkpt lat="48.74146" lon="2.23552">
        <ele>68</ele>
        <time>2019-05-12T03:16:29.000Z</time>
      </trkpt>
      <trkpt lat="48.74146" lon="2.23552">
        <ele>68</ele>
        <time>2019-05-12T03:16:31.000Z</time>
      </trkpt>
      <trkpt lat="48.7415" lon="2.23538">
        <ele>68</ele>
        <time>2019-05-12T03:16:35.000Z</time>
      </trkpt>
      <trkpt lat="48.74154" lon="2.2353">
        <ele>68</ele>
        <time>2019-05-12T03:16:37.000Z</time>
      </trkpt>
      <trkpt lat="48.74154" lon="2.2353">
        <ele>68</ele>
        <time>2019-05-12T03:16:39.000Z</time>
      </trkpt>
      <trkpt lat="48.74156" lon="2.23523">
        <ele>68</ele>
        <time>2019-05-12T03:16:41.000Z</time>
      </trkpt>
      <trkpt lat="48.74158" lon="2.23517">
        <ele>68</ele>
        <time>2019-05-12T03:16:43.000Z</time>
      </trkpt>
      <trkpt lat="48.74161" lon="2.2351">
        <ele>69</ele>
        <time>2019-05-12T03:16:47.000Z</time>
      </trkpt>
      <trkpt lat="48.74161" lon="2.2351">
        <ele>69</ele>
        <time>2019-05-12T03:16:49.000Z</time>
      </trkpt>
      <trkpt lat="48.74161" lon="2.2351">
        <ele>69</ele>
        <time>2019-05-12T03:16:51.000Z</time>
      </trkpt>
      <trkpt lat="48.74161" lon="2.2351">
        <ele>69</ele>
        <time>2019-05-12T03:16:53.000Z</time>
      </trkpt>
      <trkpt lat="48.74166" lon="2.23493">
        <ele>68</ele>
        <time>2019-05-12T03:16:59.000Z</time>
      </trkpt>
      <trkpt lat="48.74169" lon="2.23483">
        <ele>72</ele>
        <time>2019-05-12T03:17:01.000Z</time>
      </trkpt>
      <trkpt lat="48.7417" lon="2.23475">
        <ele>72</ele>
        <time>2019-05-12T03:17:03.000Z</time>
      </trkpt>
      <trkpt lat="48.7417" lon="2.23475">
        <ele>72</ele>
        <time>2019-05-12T03:17:05.000Z</time>
      </trkpt>
      <trkpt lat="48.7417" lon="2.23475">
        <ele>72</ele>
        <time>2019-05-12T03:17:07.000Z</time>
      </trkpt>
      <trkpt lat="48.7417" lon="2.23475">
        <ele>72</ele>
        <time>2019-05-12T03:17:09.000Z</time>
      </trkpt>
      <trkpt lat="48.74171" lon="2.23464">
        <ele>73</ele>
        <time>2019-05-12T03:17:11.000Z</time>
      </trkpt>
      <trkpt lat="48.74171" lon="2.23456">
        <ele>72</ele>
        <time>2019-05-12T03:17:13.000Z</time>
      </trkpt>
      <trkpt lat="48.74171" lon="2.23448">
        <ele>72</ele>
        <time>2019-05-12T03:17:17.000Z</time>
      </trkpt>
      <trkpt lat="48.74171" lon="2.23448">
        <ele>72</ele>
        <time>2019-05-12T03:17:19.000Z</time>
      </trkpt>
      <trkpt lat="48.74171" lon="2.23448">
        <ele>72</ele>
        <time>2019-05-12T03:17:21.000Z</time>
      </trkpt>
      <trkpt lat="48.7417" lon="2.23435">
        <ele>71</ele>
        <time>2019-05-12T03:17:27.000Z</time>
      </trkpt>
      <trkpt lat="48.74168" lon="2.23426">
        <ele>70</ele>
        <time>2019-05-12T03:17:29.000Z</time>
      </trkpt>
      <trkpt lat="48.74166" lon="2.23419">
        <ele>68</ele>
        <time>2019-05-12T03:17:31.000Z</time>
      </trkpt>
      <trkpt lat="48.74166" lon="2.23419">
        <ele>68</ele>
        <time>2019-05-12T03:17:33.000Z</time>
      </trkpt>
      <trkpt lat="48.74166" lon="2.23419">
        <ele>68</ele>
        <time>2019-05-12T03:17:35.000Z</time>
      </trkpt>
      <trkpt lat="48.74166" lon="2.23419">
        <ele>68</ele>
        <time>2019-05-12T03:17:37.000Z</time>
      </trkpt>
      <trkpt lat="48.74166" lon="2.23406">
        <ele>68</ele>
        <time>2019-05-12T03:17:41.000Z</time>
      </trkpt>
      <trkpt lat="48.74167" lon="2.23397">
        <ele>70</ele>
        <time>2019-05-12T03:17:43.000Z</time>
      </trkpt>
      <trkpt lat="48.74167" lon="2.23397">
        <ele>70</ele>
        <time>2019-05-12T03:17:45.000Z</time>
      </trkpt>
      <trkpt lat="48.74167" lon="2.23397">
        <ele>70</ele>
        <time>2019-05-12T03:17:47.000Z</time>
      </trkpt>
      <trkpt lat="48.7417" lon="2.23382">
        <ele>71</ele>
        <time>2019-05-12T03:17:53.000Z</time>
      </trkpt>
      <trkpt lat="48.74171" lon="2.23373">
        <ele>71</ele>
        <time>2019-05-12T03:17:55.000Z</time>
      </trkpt>
      <trkpt lat="48.74173" lon="2.23366">
        <ele>71</ele>
        <time>2019-05-12T03:17:57.000Z</time>
      </trkpt>
      <trkpt lat="48.74173" lon="2.23366">
        <ele>71</ele>
        <time>2019-05-12T03:17:59.000Z</time>
      </trkpt>
      <trkpt lat="48.74173" lon="2.23366">
        <ele>71</ele>
        <time>2019-05-12T03:18:01.000Z</time>
      </trkpt>
      <trkpt lat="48.74173" lon="2.23356">
        <ele>71</ele>
        <time>2019-05-12T03:18:05.000Z</time>
      </trkpt>
      <trkpt lat="48.74173" lon="2.23348">
        <ele>70</ele>
        <time>2019-05-12T03:18:07.000Z</time>
      </trkpt>
      <trkpt lat="48.74173" lon="2.23348">
        <ele>70</ele>
        <time>2019-05-12T03:18:09.000Z</time>
      </trkpt>
      <trkpt lat="48.74173" lon="2.23341">
        <ele>70</ele>
        <time>2019-05-12T03:18:11.000Z</time>
      </trkpt>
      <trkpt lat="48.74173" lon="2.23341">
        <ele>70</ele>
        <time>2019-05-12T03:18:13.000Z</time>
      </trkpt>
      <trkpt lat="48.74173" lon="2.23331">
        <ele>70</ele>
        <time>2019-05-12T03:18:17.000Z</time>
      </trkpt>
      <trkpt lat="48.74173" lon="2.23324">
        <ele>70</ele>
        <time>2019-05-12T03:18:19.000Z</time>
      </trkpt>
      <trkpt lat="48.74173" lon="2.23317">
        <ele>70</ele>
        <time>2019-05-12T03:18:21.000Z</time>
      </trkpt>
      <trkpt lat="48.74173" lon="2.23317">
        <ele>70</ele>
        <time>2019-05-12T03:18:23.000Z</time>
      </trkpt>
      <trkpt lat="48.74174" lon="2.23309">
        <ele>71</ele>
        <time>2019-05-12T03:18:25.000Z</time>
      </trkpt>
      <trkpt lat="48.74174" lon="2.23309">
        <ele>71</ele>
        <time>2019-05-12T03:18:27.000Z</time>
      </trkpt>
      <trkpt lat="48.74174" lon="2.23309">
        <ele>71</ele>
        <time>2019-05-12T03:18:29.000Z</time>
      </trkpt>
      <trkpt lat="48.74174" lon="2.23309">
        <ele>71</ele>
        <time>2019-05-12T03:18:31.000Z</time>
      </trkpt>
      <trkpt lat="48.74176" lon="2.23296">
        <ele>71</ele>
        <time>2019-05-12T03:18:35.000Z</time>
      </trkpt>
      <trkpt lat="48.74176" lon="2.23287">
        <ele>71</ele>
        <time>2019-05-12T03:18:37.000Z</time>
      </trkpt>
      <trkpt lat="48.74176" lon="2.23287">
        <ele>71</ele>
        <time>2019-05-12T03:18:39.000Z</time>
      </trkpt>
      <trkpt lat="48.74176" lon="2.23279">
        <ele>71</ele>
        <time>2019-05-12T03:18:41.000Z</time>
      </trkpt>
      <trkpt lat="48.74174" lon="2.2327">
        <ele>70</ele>
        <time>2019-05-12T03:18:45.000Z</time>
      </trkpt>
      <trkpt lat="48.74174" lon="2.2327">
        <ele>70</ele>
        <time>2019-05-12T03:18:47.000Z</time>
      </trkpt>
      <trkpt lat="48.74174" lon="2.2327">
        <ele>70</ele>
        <time>2019-05-12T03:18:49.000Z</time>
      </trkpt>
      <trkpt lat="48.74174" lon="2.2327">
        <ele>70</ele>
        <time>2019-05-12T03:18:51.000Z</time>
      </trkpt>
      <trkpt lat="48.74174" lon="2.2327">
        <ele>70</ele>
        <time>2019-05-12T03:18:53.000Z</time>
      </trkpt>
      <trkpt lat="48.74174" lon="2.2327">
        <ele>70</ele>
        <time>2019-05-12T03:18:55.000Z</time>
      </trkpt>
      <trkpt lat="48.74174" lon="2.2327">
        <ele>70</ele>
        <time>2019-05-12T03:18:59.000Z</time>
      </trkpt>
      <trkpt lat="48.74174" lon="2.2327">
        <ele>70</ele>
        <time>2019-05-12T03:19:01.000Z</time>
      </trkpt>
      <trkpt lat="48.74174" lon="2.2327">
        <ele>70</ele>
        <time>2019-05-12T03:19:03.000Z</time>
      </trkpt>
      <trkpt lat="48.74166" lon="2.2326">
        <ele>69</ele>
        <time>2019-05-12T03:19:05.000Z</time>
      </trkpt>
      <trkpt lat="48.7416" lon="2.23255">
        <ele>69</ele>
        <time>2019-05-12T03:19:07.000Z</time>
      </trkpt>
      <trkpt lat="48.74155" lon="2.23252">
        <ele>68</ele>
        <time>2019-05-12T03:19:09.000Z</time>
      </trkpt>
      <trkpt lat="48.74149" lon="2.23251">
        <ele>68</ele>
        <time>2019-05-12T03:19:13.000Z</time>
      </trkpt>
      <trkpt lat="48.74145" lon="2.23247">
        <ele>69</ele>
        <time>2019-05-12T03:19:17.000Z</time>
      </trkpt>
      <trkpt lat="48.74145" lon="2.23247">
        <ele>69</ele>
        <time>2019-05-12T03:19:19.000Z</time>
      </trkpt>
      <trkpt lat="48.74141" lon="2.23243">
        <ele>69</ele>
        <time>2019-05-12T03:19:21.000Z</time>
      </trkpt>
      <trkpt lat="48.74136" lon="2.23239">
        <ele>69</ele>
        <time>2019-05-12T03:19:25.000Z</time>
      </trkpt>
      <trkpt lat="48.74136" lon="2.23239">
        <ele>69</ele>
        <time>2019-05-12T03:19:27.000Z</time>
      </trkpt>
      <trkpt lat="48.74136" lon="2.23239">
        <ele>69</ele>
        <time>2019-05-12T03:19:29.000Z</time>
      </trkpt>
      <trkpt lat="48.74136" lon="2.23239">
        <ele>69</ele>
        <time>2019-05-12T03:19:31.000Z</time>
      </trkpt>
      <trkpt lat="48.74136" lon="2.23239">
        <ele>69</ele>
        <time>2019-05-12T03:19:33.000Z</time>
      </trkpt>
      <trkpt lat="48.74136" lon="2.23239">
        <ele>69</ele>
        <time>2019-05-12T03:19:35.000Z</time>
      </trkpt>
      <trkpt lat="48.74136" lon="2.23239">
        <ele>69</ele>
        <time>2019-05-12T03:19:37.000Z</time>
      </trkpt>
      <trkpt lat="48.74136" lon="2.23239">
        <ele>69</ele>
        <time>2019-05-12T03:19:39.000Z</time>
      </trkpt>
      <trkpt lat="48.74136" lon="2.23239">
        <ele>69</ele>
        <time>2019-05-12T03:19:41.000Z</time>
      </trkpt>
      <trkpt lat="48.74122" lon="2.23229">
        <ele>69</ele>
        <time>2019-05-12T03:19:45.000Z</time>
      </trkpt>
      <trkpt lat="48.74114" lon="2.23222">
        <ele>69</ele>
        <time>2019-05-12T03:19:47.000Z</time>
      </trkpt>
      <trkpt lat="48.74114" lon="2.23222">
        <ele>69</ele>
        <time>2019-05-12T03:19:49.000Z</time>
      </trkpt>
      <trkpt lat="48.74107" lon="2.23217">
        <ele>69</ele>
        <time>2019-05-12T03:19:51.000Z</time>
      </trkpt>
      <trkpt lat="48.74107" lon="2.23217">
        <ele>69</ele>
        <time>2019-05-12T03:19:55.000Z</time>
      </trkpt>
      <trkpt lat="48.74107" lon="2.23217">
        <ele>69</ele>
        <time>2019-05-12T03:19:57.000Z</time>
      </trkpt>
      <trkpt lat="48.74107" lon="2.23217">
        <ele>69</ele>
        <time>2019-05-12T03:19:59.000Z</time>
      </trkpt>
      <trkpt lat="48.74097" lon="2.23205">
        <ele>69</ele>
        <time>2019-05-12T03:20:05.000Z</time>
      </trkpt>
      <trkpt lat="48.74097" lon="2.23205">
        <ele>69</ele>
        <time>2019-05-12T03:20:07.000Z</time>
      </trkpt>
      <trkpt lat="48.74089" lon="2.23195">
        <ele>70</ele>
        <time>2019-05-12T03:20:11.000Z</time>
      </trkpt>
      <trkpt lat="48.74083" lon="2.2319">
        <ele>70</ele>
        <time>2019-05-12T03:20:13.000Z</time>
      </trkpt>
      <trkpt lat="48.74079" lon="2.23185">
        <ele>70</ele>
        <time>2019-05-12T03:20:15.000Z</time>
      </trkpt>
      <trkpt lat="48.74079" lon="2.23185">
        <ele>70</ele>
        <time>2019-05-12T03:20:17.000Z</time>
      </trkpt>
      <trkpt lat="48.74079" lon="2.23185">
        <ele>70</ele>
        <time>2019-05-12T03:20:19.000Z</time>
      </trkpt>
      <trkpt lat="48.74079" lon="2.23185">
        <ele>70</ele>
        <time>2019-05-12T03:20:21.000Z</time>
      </trkpt>
      <trkpt lat="48.74072" lon="2.23176">
        <ele>71</ele>
        <time>2019-05-12T03:20:27.000Z</time>
      </trkpt>
      <trkpt lat="48.74072" lon="2.23176">
        <ele>71</ele>
        <time>2019-05-12T03:20:29.000Z</time>
      </trkpt>
      <trkpt lat="48.74072" lon="2.23176">
        <ele>71</ele>
        <time>2019-05-12T03:20:31.000Z</time>
      </trkpt>
      <trkpt lat="48.74064" lon="2.23166">
        <ele>72</ele>
        <time>2019-05-12T03:20:35.000Z</time>
      </trkpt>
      <trkpt lat="48.74059" lon="2.2316">
        <ele>72</ele>
        <time>2019-05-12T03:20:37.000Z</time>
      </trkpt>
      <trkpt lat="48.74059" lon="2.2316">
        <ele>72</ele>
        <time>2019-05-12T03:20:39.000Z</time>
      </trkpt>
      <trkpt lat="48.74059" lon="2.2316">
        <ele>72</ele>
        <time>2019-05-12T03:20:41.000Z</time>
      </trkpt>
      <trkpt lat="48.74059" lon="2.2316">
        <ele>72</ele>
        <time>2019-05-12T03:20:43.000Z</time>
      </trkpt>
      <trkpt lat="48.74059" lon="2.2316">
        <ele>72</ele>
        <time>2019-05-12T03:20:47.000Z</time>
      </trkpt>
      <trkpt lat="48.74052" lon="2.23151">
        <ele>72</ele>
        <time>2019-05-12T03:20:49.000Z</time>
      </trkpt>
      <trkpt lat="48.74047" lon="2.23146">
        <ele>72</ele>
        <time>2019-05-12T03:20:51.000Z</time>
      </trkpt>
      <trkpt lat="48.74043" lon="2.23142">
        <ele>72</ele>
        <time>2019-05-12T03:20:55.000Z</time>
      </trkpt>
      <trkpt lat="48.74043" lon="2.23142">
        <ele>72</ele>
        <time>2019-05-12T03:20:57.000Z</time>
      </trkpt>
      <trkpt lat="48.74043" lon="2.23142">
        <ele>72</ele>
        <time>2019-05-12T03:20:59.000Z</time>
      </trkpt>
      <trkpt lat="48.74036" lon="2.23138">
        <ele>73</ele>
        <time>2019-05-12T03:21:03.000Z</time>
      </trkpt>
      <trkpt lat="48.74031" lon="2.23135">
        <ele>73</ele>
        <time>2019-05-12T03:21:05.000Z</time>
      </trkpt>
      <trkpt lat="48.74025" lon="2.23133">
        <ele>73</ele>
        <time>2019-05-12T03:21:09.000Z</time>
      </trkpt>
      <trkpt lat="48.7402" lon="2.23133">
        <ele>73</ele>
        <time>2019-05-12T03:21:11.000Z</time>
      </trkpt>
      <trkpt lat="48.74014" lon="2.23134">
        <ele>73</ele>
        <time>2019-05-12T03:21:15.000Z</time>
      </trkpt>
      <trkpt lat="48.74014" lon="2.23134">
        <ele>73</ele>
        <time>2019-05-12T03:21:17.000Z</time>
      </trkpt>
      <trkpt lat="48.74014" lon="2.23134">
        <ele>73</ele>
        <time>2019-05-12T03:21:19.000Z</time>
      </trkpt>
      <trkpt lat="48.74014" lon="2.23134">
        <ele>73</ele>
        <time>2019-05-12T03:21:21.000Z</time>
      </trkpt>
      <trkpt lat="48.74014" lon="2.23134">
        <ele>73</ele>
        <time>2019-05-12T03:21:23.000Z</time>
      </trkpt>
      <trkpt lat="48.74014" lon="2.23134">
        <ele>73</ele>
        <time>2019-05-12T03:21:25.000Z</time>
      </trkpt>
      <trkpt lat="48.74014" lon="2.23134">
        <ele>73</ele>
        <time>2019-05-12T03:21:27.000Z</time>
      </trkpt>
      <trkpt lat="48.74018" lon="2.23129">
        <ele>73</ele>
        <time>2019-05-12T03:21:31.000Z</time>
      </trkpt>
      <trkpt lat="48.74023" lon="2.23126">
        <ele>73</ele>
        <time>2019-05-12T03:21:35.000Z</time>
      </trkpt>
      <trkpt lat="48.74023" lon="2.23126">
        <ele>73</ele>
        <time>2019-05-12T03:21:37.000Z</time>
      </trkpt>
      <trkpt lat="48.7403" lon="2.23123">
        <ele>73</ele>
        <time>2019-05-12T03:21:41.000Z</time>
      </trkpt>
      <trkpt lat="48.7403" lon="2.23123">
        <ele>73</ele>
        <time>2019-05-12T03:21:43.000Z</time>
      </trkpt>
      <trkpt lat="48.7401" lon="2.23108">
        <ele>73</ele>
        <time>2019-05-12T03:22:11.000Z</time>
      </trkpt>
      <trkpt lat="48.74002" lon="2.231">
        <ele>73</ele>
        <time>2019-05-12T03:22:13.000Z</time>
      </trkpt>
      <trkpt lat="48.74002" lon="2.231">
        <ele>73</ele>
        <time>2019-05-12T03:22:15.000Z</time>
      </trkpt>
      <trkpt lat="48.74002" lon="2.231">
        <ele>73</ele>
        <time>2019-05-12T03:22:17.000Z</time>
      </trkpt>
      <trkpt lat="48.74002" lon="2.231">
        <ele>73</ele>
        <time>2019-05-12T03:22:19.000Z</time>
      </trkpt>
      <trkpt lat="48.74002" lon="2.231">
        <ele>73</ele>
        <time>2019-05-12T03:22:23.000Z</time>
      </trkpt>
      <trkpt lat="48.74001" lon="2.2309">
        <ele>74</ele>
        <time>2019-05-12T03:22:31.000Z</time>
      </trkpt>
      <trkpt lat="48.74003" lon="2.23082">
        <ele>74</ele>
        <time>2019-05-12T03:22:35.000Z</time>
      </trkpt>
      <trkpt lat="48.74006" lon="2.23076">
        <ele>74</ele>
        <time>2019-05-12T03:22:39.000Z</time>
      </trkpt>
      <trkpt lat="48.74006" lon="2.23076">
        <ele>74</ele>
        <time>2019-05-12T03:22:41.000Z</time>
      </trkpt>
      <trkpt lat="48.74009" lon="2.23068">
        <ele>74</ele>
        <time>2019-05-12T03:22:43.000Z</time>
      </trkpt>
      <trkpt lat="48.74011" lon="2.23061">
        <ele>74</ele>
        <time>2019-05-12T03:22:45.000Z</time>
      </trkpt>
      <trkpt lat="48.74011" lon="2.23061">
        <ele>74</ele>
        <time>2019-05-12T03:22:49.000Z</time>
      </trkpt>
      <trkpt lat="48.74011" lon="2.23061">
        <ele>74</ele>
        <time>2019-05-12T03:22:51.000Z</time>
      </trkpt>
      <trkpt lat="48.74018" lon="2.2305">
        <ele>74</ele>
        <time>2019-05-12T03:22:53.000Z</time>
      </trkpt>
      <trkpt lat="48.74022" lon="2.23044">
        <ele>74</ele>
        <time>2019-05-12T03:22:55.000Z</time>
      </trkpt>
      <trkpt lat="48.74022" lon="2.23044">
        <ele>74</ele>
        <time>2019-05-12T03:22:57.000Z</time>
      </trkpt>
      <trkpt lat="48.74022" lon="2.23044">
        <ele>74</ele>
        <time>2019-05-12T03:22:59.000Z</time>
      </trkpt>
      <trkpt lat="48.74022" lon="2.23044">
        <ele>74</ele>
        <time>2019-05-12T03:23:01.000Z</time>
      </trkpt>
      <trkpt lat="48.74028" lon="2.23032">
        <ele>75</ele>
        <time>2019-05-12T03:23:05.000Z</time>
      </trkpt>
      <trkpt lat="48.74031" lon="2.23025">
        <ele>75</ele>
        <time>2019-05-12T03:23:07.000Z</time>
      </trkpt>
      <trkpt lat="48.74035" lon="2.23019">
        <ele>75</ele>
        <time>2019-05-12T03:23:11.000Z</time>
      </trkpt>
      <trkpt lat="48.74035" lon="2.23019">
        <ele>75</ele>
        <time>2019-05-12T03:23:13.000Z</time>
      </trkpt>
      <trkpt lat="48.74035" lon="2.23019">
        <ele>75</ele>
        <time>2019-05-12T03:23:15.000Z</time>
      </trkpt>
      <trkpt lat="48.74038" lon="2.23008">
        <ele>75</ele>
        <time>2019-05-12T03:23:19.000Z</time>
      </trkpt>
      <trkpt lat="48.74041" lon="2.23">
        <ele>75</ele>
        <time>2019-05-12T03:23:21.000Z</time>
      </trkpt>
      <trkpt lat="48.74043" lon="2.22994">
        <ele>76</ele>
        <time>2019-05-12T03:23:23.000Z</time>
      </trkpt>
      <trkpt lat="48.74043" lon="2.22994">
        <ele>76</ele>
        <time>2019-05-12T03:23:25.000Z</time>
      </trkpt>
      <trkpt lat="48.74046" lon="2.22987">
        <ele>76</ele>
        <time>2019-05-12T03:23:27.000Z</time>
      </trkpt>
      <trkpt lat="48.74046" lon="2.22987">
        <ele>76</ele>
        <time>2019-05-12T03:23:29.000Z</time>
      </trkpt>
      <trkpt lat="48.74046" lon="2.22987">
        <ele>76</ele>
        <time>2019-05-12T03:23:31.000Z</time>
      </trkpt>
      <trkpt lat="48.74046" lon="2.22987">
        <ele>76</ele>
        <time>2019-05-12T03:23:33.000Z</time>
      </trkpt>
      <trkpt lat="48.74046" lon="2.22987">
        <ele>76</ele>
        <time>2019-05-12T03:23:35.000Z</time>
      </trkpt>
      <trkpt lat="48.74046" lon="2.22987">
        <ele>76</ele>
        <time>2019-05-12T03:23:37.000Z</time>
      </trkpt>
      <trkpt lat="48.74046" lon="2.22987">
        <ele>76</ele>
        <time>2019-05-12T03:23:39.000Z</time>
      </trkpt>
      <trkpt lat="48.74055" lon="2.22971">
        <ele>76</ele>
        <time>2019-05-12T03:23:43.000Z</time>
      </trkpt>
      <trkpt lat="48.7406" lon="2.22962">
        <ele>77</ele>
        <time>2019-05-12T03:23:45.000Z</time>
      </trkpt>
      <trkpt lat="48.74064" lon="2.22956">
        <ele>77</ele>
        <time>2019-05-12T03:23:47.000Z</time>
      </trkpt>
      <trkpt lat="48.74064" lon="2.22956">
        <ele>77</ele>
        <time>2019-05-12T03:23:49.000Z</time>
      </trkpt>
      <trkpt lat="48.74064" lon="2.22956">
        <ele>77</ele>
        <time>2019-05-12T03:23:51.000Z</time>
      </trkpt>
      <trkpt lat="48.74064" lon="2.22956">
        <ele>77</ele>
        <time>2019-05-12T03:23:53.000Z</time>
      </trkpt>
      <trkpt lat="48.74064" lon="2.22956">
        <ele>77</ele>
        <time>2019-05-12T03:23:55.000Z</time>
      </trkpt>
      <trkpt lat="48.74071" lon="2.22944">
        <ele>77</ele>
        <time>2019-05-12T03:24:01.000Z</time>
      </trkpt>
      <trkpt lat="48.74076" lon="2.22936">
        <ele>77</ele>
        <time>2019-05-12T03:24:03.000Z</time>
      </trkpt>
      <trkpt lat="48.7408" lon="2.2293">
        <ele>77</ele>
        <time>2019-05-12T03:24:05.000Z</time>
      </trkpt>
      <trkpt lat="48.74083" lon="2.22924">
        <ele>77</ele>
        <time>2019-05-12T03:24:07.000Z</time>
      </trkpt>
      <trkpt lat="48.74083" lon="2.22924">
        <ele>77</ele>
        <time>2019-05-12T03:24:09.000Z</time>
      </trkpt>
      <trkpt lat="48.74083" lon="2.22924">
        <ele>77</ele>
        <time>2019-05-12T03:24:11.000Z</time>
      </trkpt>
      <trkpt lat="48.74083" lon="2.22924">
        <ele>77</ele>
        <time>2019-05-12T03:24:13.000Z</time>
      </trkpt>
      <trkpt lat="48.74083" lon="2.22924">
        <ele>77</ele>
        <time>2019-05-12T03:24:15.000Z</time>
      </trkpt>
      <trkpt lat="48.74089" lon="2.22912">
        <ele>77</ele>
        <time>2019-05-12T03:24:19.000Z</time>
      </trkpt>
      <trkpt lat="48.74093" lon="2.22904">
        <ele>77</ele>
        <time>2019-05-12T03:24:21.000Z</time>
      </trkpt>
      <trkpt lat="48.74096" lon="2.22898">
        <ele>77</ele>
        <time>2019-05-12T03:24:23.000Z</time>
      </trkpt>
      <trkpt lat="48.74096" lon="2.22898">
        <ele>77</ele>
        <time>2019-05-12T03:24:25.000Z</time>
      </trkpt>
      <trkpt lat="48.74096" lon="2.22898">
        <ele>77</ele>
        <time>2019-05-12T03:24:27.000Z</time>
      </trkpt>
      <trkpt lat="48.74104" lon="2.22886">
        <ele>77</ele>
        <time>2019-05-12T03:24:33.000Z</time>
      </trkpt>
      <trkpt lat="48.74109" lon="2.22879">
        <ele>77</ele>
        <time>2019-05-12T03:24:35.000Z</time>
      </trkpt>
      <trkpt lat="48.74109" lon="2.22879">
        <ele>77</ele>
        <time>2019-05-12T03:24:37.000Z</time>
      </trkpt>
      <trkpt lat="48.74109" lon="2.22879">
        <ele>77</ele>
        <time>2019-05-12T03:24:39.000Z</time>
      </trkpt>
      <trkpt lat="48.74109" lon="2.22879">
        <ele>77</ele>
        <time>2019-05-12T03:24:45.000Z</time>
      </trkpt>
      <trkpt lat="48.74109" lon="2.22879">
        <ele>77</ele>
        <time>2019-05-12T03:24:47.000Z</time>
      </trkpt>
      <trkpt lat="48.74109" lon="2.22879">
        <ele>77</ele>
        <time>2019-05-12T03:24:49.000Z</time>
      </trkpt>
      <trkpt lat="48.74118" lon="2.22857">
        <ele>77</ele>
        <time>2019-05-12T03:24:55.000Z</time>
      </trkpt>
      <trkpt lat="48.74124" lon="2.22844">
        <ele>77</ele>
        <time>2019-05-12T03:24:57.000Z</time>
      </trkpt>
      <trkpt lat="48.74126" lon="2.22835">
        <ele>77</ele>
        <time>2019-05-12T03:24:59.000Z</time>
      </trkpt>
      <trkpt lat="48.74129" lon="2.22828">
        <ele>79</ele>
        <time>2019-05-12T03:25:01.000Z</time>
      </trkpt>
      <trkpt lat="48.74129" lon="2.22828">
        <ele>79</ele>
        <time>2019-05-12T03:25:05.000Z</time>
      </trkpt>
      <trkpt lat="48.74129" lon="2.22828">
        <ele>79</ele>
        <time>2019-05-12T03:25:07.000Z</time>
      </trkpt>
      <trkpt lat="48.74133" lon="2.22818">
        <ele>79</ele>
        <time>2019-05-12T03:25:11.000Z</time>
      </trkpt>
      <trkpt lat="48.74135" lon="2.22811">
        <ele>79</ele>
        <time>2019-05-12T03:25:13.000Z</time>
      </trkpt>
      <trkpt lat="48.74135" lon="2.22811">
        <ele>79</ele>
        <time>2019-05-12T03:25:15.000Z</time>
      </trkpt>
      <trkpt lat="48.74135" lon="2.22811">
        <ele>79</ele>
        <time>2019-05-12T03:25:17.000Z</time>
      </trkpt>
      <trkpt lat="48.74135" lon="2.22811">
        <ele>79</ele>
        <time>2019-05-12T03:25:19.000Z</time>
      </trkpt>
      <trkpt lat="48.74135" lon="2.22811">
        <ele>79</ele>
        <time>2019-05-12T03:25:21.000Z</time>
      </trkpt>
      <trkpt lat="48.74135" lon="2.22811">
        <ele>79</ele>
        <time>2019-05-12T03:25:23.000Z</time>
      </trkpt>
      <trkpt lat="48.74135" lon="2.22811">
        <ele>79</ele>
        <time>2019-05-12T03:25:25.000Z</time>
      </trkpt>
      <trkpt lat="48.74135" lon="2.22811">
        <ele>79</ele>
        <time>2019-05-12T03:25:29.000Z</time>
      </trkpt>
      <trkpt lat="48.74135" lon="2.22811">
        <ele>79</ele>
        <time>2019-05-12T03:25:31.000Z</time>
      </trkpt>
      <trkpt lat="48.74135" lon="2.22811">
        <ele>79</ele>
        <time>2019-05-12T03:25:33.000Z</time>
      </trkpt>
      <trkpt lat="48.74135" lon="2.22811">
        <ele>79</ele>
        <time>2019-05-12T03:25:35.000Z</time>
      </trkpt>
      <trkpt lat="48.74139" lon="2.22789">
        <ele>79</ele>
        <time>2019-05-12T03:25:37.000Z</time>
      </trkpt>
      <trkpt lat="48.74142" lon="2.22775">
        <ele>79</ele>
        <time>2019-05-12T03:25:39.000Z</time>
      </trkpt>
      <trkpt lat="48.74144" lon="2.22766">
        <ele>79</ele>
        <time>2019-05-12T03:25:41.000Z</time>
      </trkpt>
      <trkpt lat="48.74145" lon="2.22759">
        <ele>79</ele>
        <time>2019-05-12T03:25:43.000Z</time>
      </trkpt>
      <trkpt lat="48.74147" lon="2.22751">
        <ele>79</ele>
        <time>2019-05-12T03:25:47.000Z</time>
      </trkpt>
      <trkpt lat="48.74147" lon="2.22751">
        <ele>79</ele>
        <time>2019-05-12T03:25:49.000Z</time>
      </trkpt>
      <trkpt lat="48.74147" lon="2.22751">
        <ele>79</ele>
        <time>2019-05-12T03:25:51.000Z</time>
      </trkpt>
      <trkpt lat="48.74147" lon="2.22751">
        <ele>79</ele>
        <time>2019-05-12T03:25:53.000Z</time>
      </trkpt>
      <trkpt lat="48.74147" lon="2.22751">
        <ele>79</ele>
        <time>2019-05-12T03:25:57.000Z</time>
      </trkpt>
      <trkpt lat="48.74147" lon="2.22751">
        <ele>79</ele>
        <time>2019-05-12T03:25:59.000Z</time>
      </trkpt>
      <trkpt lat="48.74147" lon="2.22751">
        <ele>79</ele>
        <time>2019-05-12T03:26:01.000Z</time>
      </trkpt>
      <trkpt lat="48.74147" lon="2.22751">
        <ele>79</ele>
        <time>2019-05-12T03:26:03.000Z</time>
      </trkpt>
      <trkpt lat="48.74147" lon="2.22751">
        <ele>79</ele>
        <time>2019-05-12T03:26:05.000Z</time>
      </trkpt>
      <trkpt lat="48.74147" lon="2.22751">
        <ele>79</ele>
        <time>2019-05-12T03:26:07.000Z</time>
      </trkpt>
      <trkpt lat="48.74152" lon="2.2272">
        <ele>82</ele>
        <time>2019-05-12T03:26:13.000Z</time>
      </trkpt>
      <trkpt lat="48.74155" lon="2.22703">
        <ele>82</ele>
        <time>2019-05-12T03:26:15.000Z</time>
      </trkpt>
      <trkpt lat="48.74158" lon="2.22693">
        <ele>83</ele>
        <time>2019-05-12T03:26:17.000Z</time>
      </trkpt>
      <trkpt lat="48.74162" lon="2.22684">
        <ele>82</ele>
        <time>2019-05-12T03:26:21.000Z</time>
      </trkpt>
      <trkpt lat="48.74166" lon="2.22676">
        <ele>82</ele>
        <time>2019-05-12T03:26:25.000Z</time>
      </trkpt>
      <trkpt lat="48.74171" lon="2.22668">
        <ele>81</ele>
        <time>2019-05-12T03:26:29.000Z</time>
      </trkpt>
      <trkpt lat="48.74176" lon="2.22661">
        <ele>82</ele>
        <time>2019-05-12T03:26:33.000Z</time>
      </trkpt>
      <trkpt lat="48.74176" lon="2.22661">
        <ele>82</ele>
        <time>2019-05-12T03:26:35.000Z</time>
      </trkpt>
      <trkpt lat="48.74176" lon="2.22661">
        <ele>82</ele>
        <time>2019-05-12T03:26:37.000Z</time>
      </trkpt>
      <trkpt lat="48.74186" lon="2.22654">
        <ele>83</ele>
        <time>2019-05-12T03:26:45.000Z</time>
      </trkpt>
      <trkpt lat="48.74192" lon="2.2265">
        <ele>83</ele>
        <time>2019-05-12T03:26:47.000Z</time>
      </trkpt>
      <trkpt lat="48.74192" lon="2.2265">
        <ele>83</ele>
        <time>2019-05-12T03:26:49.000Z</time>
      </trkpt>
      <trkpt lat="48.74192" lon="2.2265">
        <ele>83</ele>
        <time>2019-05-12T03:26:53.000Z</time>
      </trkpt>
      <trkpt lat="48.74192" lon="2.2265">
        <ele>83</ele>
        <time>2019-05-12T03:26:57.000Z</time>
      </trkpt>
      <trkpt lat="48.74192" lon="2.2265">
        <ele>83</ele>
        <time>2019-05-12T03:26:59.000Z</time>
      </trkpt>
      <trkpt lat="48.74192" lon="2.2265">
        <ele>83</ele>
        <time>2019-05-12T03:27:01.000Z</time>
      </trkpt>
      <trkpt lat="48.74192" lon="2.2265">
        <ele>83</ele>
        <time>2019-05-12T03:27:03.000Z</time>
      </trkpt>
      <trkpt lat="48.74192" lon="2.2265">
        <ele>83</ele>
        <time>2019-05-12T03:27:05.000Z</time>
      </trkpt>
      <trkpt lat="48.74209" lon="2.22636">
        <ele>83</ele>
        <time>2019-05-12T03:27:09.000Z</time>
      </trkpt>
      <trkpt lat="48.74219" lon="2.22627">
        <ele>83</ele>
        <time>2019-05-12T03:27:11.000Z</time>
      </trkpt>
      <trkpt lat="48.74225" lon="2.22621">
        <ele>83</ele>
        <time>2019-05-12T03:27:13.000Z</time>
      </trkpt>
      <trkpt lat="48.74225" lon="2.22621">
        <ele>83</ele>
        <time>2019-05-12T03:27:15.000Z</time>
      </trkpt>
      <trkpt lat="48.74231" lon="2.22616">
        <ele>83</ele>
        <time>2019-05-12T03:27:17.000Z</time>
      </trkpt>
      <trkpt lat="48.74231" lon="2.22616">
        <ele>83</ele>
        <time>2019-05-12T03:27:19.000Z</time>
      </trkpt>
      <trkpt lat="48.74231" lon="2.22616">
        <ele>83</ele>
        <time>2019-05-12T03:27:21.000Z</time>
      </trkpt>
      <trkpt lat="48.74231" lon="2.22616">
        <ele>83</ele>
        <time>2019-05-12T03:27:23.000Z</time>
      </trkpt>
      <trkpt lat="48.74231" lon="2.22616">
        <ele>83</ele>
        <time>2019-05-12T03:27:25.000Z</time>
      </trkpt>
      <trkpt lat="48.74241" lon="2.22607">
        <ele>83</ele>
        <time>2019-05-12T03:27:29.000Z</time>
      </trkpt>
      <trkpt lat="48.74248" lon="2.22604">
        <ele>82</ele>
        <time>2019-05-12T03:27:31.000Z</time>
      </trkpt>
      <trkpt lat="48.74248" lon="2.22604">
        <ele>82</ele>
        <time>2019-05-12T03:27:33.000Z</time>
      </trkpt>
      <trkpt lat="48.74254" lon="2.22601">
        <ele>81</ele>
        <time>2019-05-12T03:27:37.000Z</time>
      </trkpt>
      <trkpt lat="48.74262" lon="2.22603">
        <ele>81</ele>
        <time>2019-05-12T03:27:43.000Z</time>
      </trkpt>
      <trkpt lat="48.74262" lon="2.22603">
        <ele>81</ele>
        <time>2019-05-12T03:27:49.000Z</time>
      </trkpt>
      <trkpt lat="48.74262" lon="2.22603">
        <ele>81</ele>
        <time>2019-05-12T03:27:51.000Z</time>
      </trkpt>
      <trkpt lat="48.74262" lon="2.22603">
        <ele>81</ele>
        <time>2019-05-12T03:27:53.000Z</time>
      </trkpt>
      <trkpt lat="48.74262" lon="2.22603">
        <ele>81</ele>
        <time>2019-05-12T03:27:55.000Z</time>
      </trkpt>
      <trkpt lat="48.74262" lon="2.22603">
        <ele>81</ele>
        <time>2019-05-12T03:27:57.000Z</time>
      </trkpt>
      <trkpt lat="48.74284" lon="2.22594">
        <ele>81</ele>
        <time>2019-05-12T03:28:16.000Z</time>
      </trkpt>
      <trkpt lat="48.74301" lon="2.22586">
        <ele>81</ele>
        <time>2019-05-12T03:28:18.000Z</time>
      </trkpt>
      <trkpt lat="48.74315" lon="2.22579">
        <ele>83</ele>
        <time>2019-05-12T03:28:20.000Z</time>
      </trkpt>
      <trkpt lat="48.74315" lon="2.22579">
        <ele>83</ele>
        <time>2019-05-12T03:28:22.000Z</time>
      </trkpt>
      <trkpt lat="48.74315" lon="2.22579">
        <ele>83</ele>
        <time>2019-05-12T03:28:25.000Z</time>
      </trkpt>
      <trkpt lat="48.74315" lon="2.22579">
        <ele>83</ele>
        <time>2019-05-12T03:28:27.000Z</time>
      </trkpt>
      <trkpt lat="48.74315" lon="2.22579">
        <ele>83</ele>
        <time>2019-05-12T03:28:29.000Z</time>
      </trkpt>
      <trkpt lat="48.74315" lon="2.22579">
        <ele>83</ele>
        <time>2019-05-12T03:28:31.000Z</time>
      </trkpt>
      <trkpt lat="48.74315" lon="2.22579">
        <ele>83</ele>
        <time>2019-05-12T03:28:33.000Z</time>
      </trkpt>
      <trkpt lat="48.74335" lon="2.22572">
        <ele>83</ele>
        <time>2019-05-12T03:28:47.000Z</time>
      </trkpt>
      <trkpt lat="48.74345" lon="2.22571">
        <ele>83</ele>
        <time>2019-05-12T03:28:49.000Z</time>
      </trkpt>
      <trkpt lat="48.74345" lon="2.22571">
        <ele>83</ele>
        <time>2019-05-12T03:28:51.000Z</time>
      </trkpt>
      <trkpt lat="48.74345" lon="2.22571">
        <ele>83</ele>
        <time>2019-05-12T03:28:53.000Z</time>
      </trkpt>
      <trkpt lat="48.74345" lon="2.22571">
        <ele>83</ele>
        <time>2019-05-12T03:28:55.000Z</time>
      </trkpt>
      <trkpt lat="48.74355" lon="2.22579">
        <ele>83</ele>
        <time>2019-05-12T03:28:59.000Z</time>
      </trkpt>
      <trkpt lat="48.74361" lon="2.22584">
        <ele>81</ele>
        <time>2019-05-12T03:29:01.000Z</time>
      </trkpt>
      <trkpt lat="48.74361" lon="2.22584">
        <ele>81</ele>
        <time>2019-05-12T03:29:03.000Z</time>
      </trkpt>
      <trkpt lat="48.74361" lon="2.22584">
        <ele>81</ele>
        <time>2019-05-12T03:29:07.000Z</time>
      </trkpt>
      <trkpt lat="48.74361" lon="2.22584">
        <ele>81</ele>
        <time>2019-05-12T03:29:09.000Z</time>
      </trkpt>
      <trkpt lat="48.74369" lon="2.22595">
        <ele>80</ele>
        <time>2019-05-12T03:29:13.000Z</time>
      </trkpt>
      <trkpt lat="48.74376" lon="2.22603">
        <ele>80</ele>
        <time>2019-05-12T03:29:15.000Z</time>
      </trkpt>
      <trkpt lat="48.74381" lon="2.22609">
        <ele>80</ele>
        <time>2019-05-12T03:29:19.000Z</time>
      </trkpt>
      <trkpt lat="48.74381" lon="2.22609">
        <ele>80</ele>
        <time>2019-05-12T03:29:21.000Z</time>
      </trkpt>
      <trkpt lat="48.74381" lon="2.22609">
        <ele>80</ele>
        <time>2019-05-12T03:29:23.000Z</time>
      </trkpt>
      <trkpt lat="48.74381" lon="2.22609">
        <ele>80</ele>
        <time>2019-05-12T03:29:25.000Z</time>
      </trkpt>
      <trkpt lat="48.74381" lon="2.22609">
        <ele>80</ele>
        <time>2019-05-12T03:29:27.000Z</time>
      </trkpt>
      <trkpt lat="48.7439" lon="2.22617">
        <ele>80</ele>
        <time>2019-05-12T03:29:29.000Z</time>
      </trkpt>
      <trkpt lat="48.74398" lon="2.2262">
        <ele>80</ele>
        <time>2019-05-12T03:29:31.000Z</time>
      </trkpt>
      <trkpt lat="48.74406" lon="2.22622">
        <ele>80</ele>
        <time>2019-05-12T03:29:33.000Z</time>
      </trkpt>
      <trkpt lat="48.74411" lon="2.22627">
        <ele>80</ele>
        <time>2019-05-12T03:29:37.000Z</time>
      </trkpt>
      <trkpt lat="48.74411" lon="2.22627">
        <ele>80</ele>
        <time>2019-05-12T03:29:39.000Z</time>
      </trkpt>
      <trkpt lat="48.74411" lon="2.22627">
        <ele>80</ele>
        <time>2019-05-12T03:29:41.000Z</time>
      </trkpt>
      <trkpt lat="48.74411" lon="2.22627">
        <ele>80</ele>
        <time>2019-05-12T03:29:43.000Z</time>
      </trkpt>
      <trkpt lat="48.74411" lon="2.22627">
        <ele>80</ele>
        <time>2019-05-12T03:29:45.000Z</time>
      </trkpt>
      <trkpt lat="48.74419" lon="2.22643">
        <ele>79</ele>
        <time>2019-05-12T03:29:51.000Z</time>
      </trkpt>
      <trkpt lat="48.74419" lon="2.22643">
        <ele>79</ele>
        <time>2019-05-12T03:29:53.000Z</time>
      </trkpt>
      <trkpt lat="48.74419" lon="2.22643">
        <ele>79</ele>
        <time>2019-05-12T03:29:55.000Z</time>
      </trkpt>
      <trkpt lat="48.74423" lon="2.22656">
        <ele>78</ele>
        <time>2019-05-12T03:29:59.000Z</time>
      </trkpt>
      <trkpt lat="48.74424" lon="2.22665">
        <ele>78</ele>
        <time>2019-05-12T03:30:01.000Z</time>
      </trkpt>
      <trkpt lat="48.74422" lon="2.22675">
        <ele>77</ele>
        <time>2019-05-12T03:30:05.000Z</time>
      </trkpt>
      <trkpt lat="48.7442" lon="2.22684">
        <ele>77</ele>
        <time>2019-05-12T03:30:09.000Z</time>
      </trkpt>
      <trkpt lat="48.7442" lon="2.22684">
        <ele>77</ele>
        <time>2019-05-12T03:30:11.000Z</time>
      </trkpt>
      <trkpt lat="48.74418" lon="2.22696">
        <ele>77</ele>
        <time>2019-05-12T03:30:15.000Z</time>
      </trkpt>
      <trkpt lat="48.74418" lon="2.22705">
        <ele>76</ele>
        <time>2019-05-12T03:30:17.000Z</time>
      </trkpt>
      <trkpt lat="48.74419" lon="2.22712">
        <ele>76</ele>
        <time>2019-05-12T03:30:19.000Z</time>
      </trkpt>
      <trkpt lat="48.7442" lon="2.2272">
        <ele>76</ele>
        <time>2019-05-12T03:30:23.000Z</time>
      </trkpt>
      <trkpt lat="48.7442" lon="2.2272">
        <ele>76</ele>
        <time>2019-05-12T03:30:25.000Z</time>
      </trkpt>
      <trkpt lat="48.7442" lon="2.2272">
        <ele>76</ele>
        <time>2019-05-12T03:30:27.000Z</time>
      </trkpt>
      <trkpt lat="48.7442" lon="2.2272">
        <ele>76</ele>
        <time>2019-05-12T03:30:29.000Z</time>
      </trkpt>
      <trkpt lat="48.74424" lon="2.22733">
        <ele>76</ele>
        <time>2019-05-12T03:30:33.000Z</time>
      </trkpt>
      <trkpt lat="48.74427" lon="2.22741">
        <ele>76</ele>
        <time>2019-05-12T03:30:35.000Z</time>
      </trkpt>
      <trkpt lat="48.7443" lon="2.22746">
        <ele>76</ele>
        <time>2019-05-12T03:30:37.000Z</time>
      </trkpt>
      <trkpt lat="48.7443" lon="2.22746">
        <ele>76</ele>
        <time>2019-05-12T03:30:39.000Z</time>
      </trkpt>
      <trkpt lat="48.7443" lon="2.22746">
        <ele>76</ele>
        <time>2019-05-12T03:30:41.000Z</time>
      </trkpt>
      <trkpt lat="48.74435" lon="2.22757">
        <ele>75</ele>
        <time>2019-05-12T03:30:45.000Z</time>
      </trkpt>
      <trkpt lat="48.74438" lon="2.22763">
        <ele>74</ele>
        <time>2019-05-12T03:30:47.000Z</time>
      </trkpt>
      <trkpt lat="48.74444" lon="2.2277">
        <ele>74</ele>
        <time>2019-05-12T03:30:53.000Z</time>
      </trkpt>
      <trkpt lat="48.74444" lon="2.2277">
        <ele>74</ele>
        <time>2019-05-12T03:30:55.000Z</time>
      </trkpt>
      <trkpt lat="48.74444" lon="2.2277">
        <ele>74</ele>
        <time>2019-05-12T03:30:57.000Z</time>
      </trkpt>
      <trkpt lat="48.74444" lon="2.2277">
        <ele>74</ele>
        <time>2019-05-12T03:30:59.000Z</time>
      </trkpt>
      <trkpt lat="48.74444" lon="2.2277">
        <ele>74</ele>
        <time>2019-05-12T03:31:01.000Z</time>
      </trkpt>
      <trkpt lat="48.74454" lon="2.22781">
        <ele>74</ele>
        <time>2019-05-12T03:31:05.000Z</time>
      </trkpt>
      <trkpt lat="48.74461" lon="2.22788">
        <ele>73</ele>
        <time>2019-05-12T03:31:07.000Z</time>
      </trkpt>
      <trkpt lat="48.74461" lon="2.22788">
        <ele>73</ele>
        <time>2019-05-12T03:31:09.000Z</time>
      </trkpt>
      <trkpt lat="48.74467" lon="2.22794">
        <ele>73</ele>
        <time>2019-05-12T03:31:11.000Z</time>
      </trkpt>
      <trkpt lat="48.74467" lon="2.22794">
        <ele>73</ele>
        <time>2019-05-12T03:31:13.000Z</time>
      </trkpt>
      <trkpt lat="48.74467" lon="2.22794">
        <ele>73</ele>
        <time>2019-05-12T03:31:15.000Z</time>
      </trkpt>
      <trkpt lat="48.74467" lon="2.22794">
        <ele>73</ele>
        <time>2019-05-12T03:31:17.000Z</time>
      </trkpt>
      <trkpt lat="48.74467" lon="2.22794">
        <ele>73</ele>
        <time>2019-05-12T03:31:19.000Z</time>
      </trkpt>
      <trkpt lat="48.74477" lon="2.22804">
        <ele>73</ele>
        <time>2019-05-12T03:31:23.000Z</time>
      </trkpt>
      <trkpt lat="48.74482" lon="2.2281">
        <ele>73</ele>
        <time>2019-05-12T03:31:25.000Z</time>
      </trkpt>
      <trkpt lat="48.74485" lon="2.22815">
        <ele>73</ele>
        <time>2019-05-12T03:31:27.000Z</time>
      </trkpt>
      <trkpt lat="48.74485" lon="2.22815">
        <ele>73</ele>
        <time>2019-05-12T03:31:29.000Z</time>
      </trkpt>
      <trkpt lat="48.74488" lon="2.2282">
        <ele>72</ele>
        <time>2019-05-12T03:31:31.000Z</time>
      </trkpt>
      <trkpt lat="48.74488" lon="2.2282">
        <ele>72</ele>
        <time>2019-05-12T03:31:33.000Z</time>
      </trkpt>
      <trkpt lat="48.74493" lon="2.22825">
        <ele>72</ele>
        <time>2019-05-12T03:31:35.000Z</time>
      </trkpt>
      <trkpt lat="48.74493" lon="2.22825">
        <ele>72</ele>
        <time>2019-05-12T03:31:37.000Z</time>
      </trkpt>
      <trkpt lat="48.74493" lon="2.22825">
        <ele>72</ele>
        <time>2019-05-12T03:31:39.000Z</time>
      </trkpt>
      <trkpt lat="48.74493" lon="2.22825">
        <ele>72</ele>
        <time>2019-05-12T03:31:41.000Z</time>
      </trkpt>
      <trkpt lat="48.74493" lon="2.22825">
        <ele>72</ele>
        <time>2019-05-12T03:31:43.000Z</time>
      </trkpt>
      <trkpt lat="48.74504" lon="2.22836">
        <ele>71</ele>
        <time>2019-05-12T03:31:49.000Z</time>
      </trkpt>
      <trkpt lat="48.74512" lon="2.22842">
        <ele>71</ele>
        <time>2019-05-12T03:31:51.000Z</time>
      </trkpt>
      <trkpt lat="48.74517" lon="2.22846">
        <ele>71</ele>
        <time>2019-05-12T03:31:53.000Z</time>
      </trkpt>
      <trkpt lat="48.74517" lon="2.22846">
        <ele>71</ele>
        <time>2019-05-12T03:31:55.000Z</time>
      </trkpt>
      <trkpt lat="48.74517" lon="2.22846">
        <ele>71</ele>
        <time>2019-05-12T03:31:57.000Z</time>
      </trkpt>
      <trkpt lat="48.74517" lon="2.22846">
        <ele>71</ele>
        <time>2019-05-12T03:31:59.000Z</time>
      </trkpt>
      <trkpt lat="48.74517" lon="2.22846">
        <ele>71</ele>
        <time>2019-05-12T03:32:01.000Z</time>
      </trkpt>
      <trkpt lat="48.74525" lon="2.22854">
        <ele>71</ele>
        <time>2019-05-12T03:32:03.000Z</time>
      </trkpt>
      <trkpt lat="48.74531" lon="2.22859">
        <ele>71</ele>
        <time>2019-05-12T03:32:05.000Z</time>
      </trkpt>
      <trkpt lat="48.74536" lon="2.22862">
        <ele>71</ele>
        <time>2019-05-12T03:32:07.000Z</time>
      </trkpt>
      <trkpt lat="48.74536" lon="2.22862">
        <ele>71</ele>
        <time>2019-05-12T03:32:09.000Z</time>
      </trkpt>
      <trkpt lat="48.74541" lon="2.22866">
        <ele>71</ele>
        <time>2019-05-12T03:32:11.000Z</time>
      </trkpt>
      <trkpt lat="48.74541" lon="2.22866">
        <ele>71</ele>
        <time>2019-05-12T03:32:13.000Z</time>
      </trkpt>
      <trkpt lat="48.74541" lon="2.22866">
        <ele>71</ele>
        <time>2019-05-12T03:32:15.000Z</time>
      </trkpt>
      <trkpt lat="48.74541" lon="2.22866">
        <ele>71</ele>
        <time>2019-05-12T03:32:17.000Z</time>
      </trkpt>
      <trkpt lat="48.74541" lon="2.22866">
        <ele>71</ele>
        <time>2019-05-12T03:32:19.000Z</time>
      </trkpt>
      <trkpt lat="48.74548" lon="2.22875">
        <ele>71</ele>
        <time>2019-05-12T03:32:21.000Z</time>
      </trkpt>
      <trkpt lat="48.74554" lon="2.22882">
        <ele>71</ele>
        <time>2019-05-12T03:32:25.000Z</time>
      </trkpt>
      <trkpt lat="48.74554" lon="2.22882">
        <ele>71</ele>
        <time>2019-05-12T03:32:27.000Z</time>
      </trkpt>
      <trkpt lat="48.74554" lon="2.22882">
        <ele>71</ele>
        <time>2019-05-12T03:32:29.000Z</time>
      </trkpt>
      <trkpt lat="48.74559" lon="2.22892">
        <ele>71</ele>
        <time>2019-05-12T03:32:33.000Z</time>
      </trkpt>
      <trkpt lat="48.74563" lon="2.22898">
        <ele>71</ele>
        <time>2019-05-12T03:32:35.000Z</time>
      </trkpt>
      <trkpt lat="48.74563" lon="2.22898">
        <ele>71</ele>
        <time>2019-05-12T03:32:37.000Z</time>
      </trkpt>
      <trkpt lat="48.74563" lon="2.22898">
        <ele>71</ele>
        <time>2019-05-12T03:32:39.000Z</time>
      </trkpt>
      <trkpt lat="48.74563" lon="2.22898">
        <ele>71</ele>
        <time>2019-05-12T03:32:41.000Z</time>
      </trkpt>
      <trkpt lat="48.74563" lon="2.22898">
        <ele>71</ele>
        <time>2019-05-12T03:32:43.000Z</time>
      </trkpt>
      <trkpt lat="48.74571" lon="2.22909">
        <ele>71</ele>
        <time>2019-05-12T03:32:47.000Z</time>
      </trkpt>
      <trkpt lat="48.74577" lon="2.22916">
        <ele>71</ele>
        <time>2019-05-12T03:32:49.000Z</time>
      </trkpt>
      <trkpt lat="48.74581" lon="2.22921">
        <ele>71</ele>
        <time>2019-05-12T03:32:51.000Z</time>
      </trkpt>
      <trkpt lat="48.74581" lon="2.22921">
        <ele>71</ele>
        <time>2019-05-12T03:32:53.000Z</time>
      </trkpt>
      <trkpt lat="48.74581" lon="2.22921">
        <ele>71</ele>
        <time>2019-05-12T03:32:55.000Z</time>
      </trkpt>
      <trkpt lat="48.74581" lon="2.22921">
        <ele>71</ele>
        <time>2019-05-12T03:32:57.000Z</time>
      </trkpt>
      <trkpt lat="48.74581" lon="2.22921">
        <ele>71</ele>
        <time>2019-05-12T03:32:59.000Z</time>
      </trkpt>
      <trkpt lat="48.74581" lon="2.22921">
        <ele>71</ele>
        <time>2019-05-12T03:33:01.000Z</time>
      </trkpt>
      <trkpt lat="48.74581" lon="2.22921">
        <ele>71</ele>
        <time>2019-05-12T03:33:09.000Z</time>
      </trkpt>
      <trkpt lat="48.74581" lon="2.22921">
        <ele>71</ele>
        <time>2019-05-12T03:33:11.000Z</time>
      </trkpt>
      <trkpt lat="48.74599" lon="2.22921">
        <ele>71</ele>
        <time>2019-05-12T03:33:15.000Z</time>
      </trkpt>
      <trkpt lat="48.74609" lon="2.22921">
        <ele>71</ele>
        <time>2019-05-12T03:33:17.000Z</time>
      </trkpt>
      <trkpt lat="48.74616" lon="2.2292">
        <ele>71</ele>
        <time>2019-05-12T03:33:19.000Z</time>
      </trkpt>
      <trkpt lat="48.74616" lon="2.2292">
        <ele>71</ele>
        <time>2019-05-12T03:33:21.000Z</time>
      </trkpt>
      <trkpt lat="48.74616" lon="2.2292">
        <ele>71</ele>
        <time>2019-05-12T03:33:23.000Z</time>
      </trkpt>
      <trkpt lat="48.74616" lon="2.2292">
        <ele>71</ele>
        <time>2019-05-12T03:33:25.000Z</time>
      </trkpt>
      <trkpt lat="48.74625" lon="2.22915">
        <ele>72</ele>
        <time>2019-05-12T03:33:41.000Z</time>
      </trkpt>
      <trkpt lat="48.74632" lon="2.22912">
        <ele>72</ele>
        <time>2019-05-12T03:33:43.000Z</time>
      </trkpt>
      <trkpt lat="48.74632" lon="2.22912">
        <ele>72</ele>
        <time>2019-05-12T03:33:45.000Z</time>
      </trkpt>
      <trkpt lat="48.74632" lon="2.22912">
        <ele>72</ele>
        <time>2019-05-12T03:33:47.000Z</time>
      </trkpt>
      <trkpt lat="48.74632" lon="2.22912">
        <ele>72</ele>
        <time>2019-05-12T03:33:49.000Z</time>
      </trkpt>
      <trkpt lat="48.74632" lon="2.22912">
        <ele>72</ele>
        <time>2019-05-12T03:33:51.000Z</time>
      </trkpt>
      <trkpt lat="48.74643" lon="2.229">
        <ele>72</ele>
        <time>2019-05-12T03:33:55.000Z</time>
      </trkpt>
      <trkpt lat="48.74643" lon="2.229">
        <ele>72</ele>
        <time>2019-05-12T03:33:57.000Z</time>
      </trkpt>
      <trkpt lat="48.74643" lon="2.229">
        <ele>72</ele>
        <time>2019-05-12T03:33:59.000Z</time>
      </trkpt>
      <trkpt lat="48.74652" lon="2.22888">
        <ele>72</ele>
        <time>2019-05-12T03:34:01.000Z</time>
      </trkpt>
      <trkpt lat="48.74657" lon="2.22879">
        <ele>72</ele>
        <time>2019-05-12T03:34:03.000Z</time>
      </trkpt>
      <trkpt lat="48.74659" lon="2.22869">
        <ele>72</ele>
        <time>2019-05-12T03:34:09.000Z</time>
      </trkpt>
      <trkpt lat="48.74659" lon="2.22869">
        <ele>72</ele>
        <time>2019-05-12T03:34:11.000Z</time>
      </trkpt>
      <trkpt lat="48.74659" lon="2.22869">
        <ele>72</ele>
        <time>2019-05-12T03:34:13.000Z</time>
      </trkpt>
      <trkpt lat="48.74659" lon="2.22869">
        <ele>72</ele>
        <time>2019-05-12T03:34:15.000Z</time>
      </trkpt>
      <trkpt lat="48.74665" lon="2.22854">
        <ele>72</ele>
        <time>2019-05-12T03:34:19.000Z</time>
      </trkpt>
      <trkpt lat="48.7467" lon="2.22845">
        <ele>72</ele>
        <time>2019-05-12T03:34:21.000Z</time>
      </trkpt>
      <trkpt lat="48.7467" lon="2.22845">
        <ele>72</ele>
        <time>2019-05-12T03:34:23.000Z</time>
      </trkpt>
      <trkpt lat="48.74674" lon="2.22836">
        <ele>72</ele>
        <time>2019-05-12T03:34:25.000Z</time>
      </trkpt>
      <trkpt lat="48.74674" lon="2.22836">
        <ele>72</ele>
        <time>2019-05-12T03:34:27.000Z</time>
      </trkpt>
      <trkpt lat="48.74678" lon="2.22823">
        <ele>72</ele>
        <time>2019-05-12T03:34:33.000Z</time>
      </trkpt>
      <trkpt lat="48.74678" lon="2.22823">
        <ele>72</ele>
        <time>2019-05-12T03:34:35.000Z</time>
      </trkpt>
      <trkpt lat="48.74678" lon="2.22823">
        <ele>72</ele>
        <time>2019-05-12T03:34:37.000Z</time>
      </trkpt>
      <trkpt lat="48.74678" lon="2.22823">
        <ele>72</ele>
        <time>2019-05-12T03:34:41.000Z</time>
      </trkpt>
      <trkpt lat="48.74684" lon="2.22812">
        <ele>72</ele>
        <time>2019-05-12T03:34:43.000Z</time>
      </trkpt>
      <trkpt lat="48.7469" lon="2.22808">
        <ele>72</ele>
        <time>2019-05-12T03:34:47.000Z</time>
      </trkpt>
      <trkpt lat="48.7469" lon="2.22808">
        <ele>72</ele>
        <time>2019-05-12T03:34:51.000Z</time>
      </trkpt>
      <trkpt lat="48.74698" lon="2.22804">
        <ele>72</ele>
        <time>2019-05-12T03:34:53.000Z</time>
      </trkpt>
      <trkpt lat="48.74704" lon="2.22802">
        <ele>72</ele>
        <time>2019-05-12T03:34:57.000Z</time>
      </trkpt>
      <trkpt lat="48.74704" lon="2.22802">
        <ele>72</ele>
        <time>2019-05-12T03:34:59.000Z</time>
      </trkpt>
      <trkpt lat="48.74704" lon="2.22802">
        <ele>72</ele>
        <time>2019-05-12T03:35:01.000Z</time>
      </trkpt>
      <trkpt lat="48.74704" lon="2.22802">
        <ele>72</ele>
        <time>2019-05-12T03:35:03.000Z</time>
      </trkpt>
      <trkpt lat="48.74704" lon="2.22802">
        <ele>72</ele>
        <time>2019-05-12T03:35:05.000Z</time>
      </trkpt>
      <trkpt lat="48.74704" lon="2.22802">
        <ele>72</ele>
        <time>2019-05-12T03:35:07.000Z</time>
      </trkpt>
      <trkpt lat="48.74704" lon="2.22802">
        <ele>72</ele>
        <time>2019-05-12T03:35:09.000Z</time>
      </trkpt>
      <trkpt lat="48.74711" lon="2.22789">
        <ele>72</ele>
        <time>2019-05-12T03:35:11.000Z</time>
      </trkpt>
      <trkpt lat="48.74715" lon="2.2278">
        <ele>72</ele>
        <time>2019-05-12T03:35:13.000Z</time>
      </trkpt>
      <trkpt lat="48.74717" lon="2.2277">
        <ele>72</ele>
        <time>2019-05-12T03:35:19.000Z</time>
      </trkpt>
      <trkpt lat="48.74717" lon="2.2277">
        <ele>72</ele>
        <time>2019-05-12T03:35:21.000Z</time>
      </trkpt>
      <trkpt lat="48.74717" lon="2.2277">
        <ele>72</ele>
        <time>2019-05-12T03:35:23.000Z</time>
      </trkpt>
      <trkpt lat="48.74717" lon="2.2277">
        <ele>72</ele>
        <time>2019-05-12T03:35:25.000Z</time>
      </trkpt>
      <trkpt lat="48.74722" lon="2.22757">
        <ele>72</ele>
        <time>2019-05-12T03:35:29.000Z</time>
      </trkpt>
      <trkpt lat="48.74726" lon="2.22748">
        <ele>72</ele>
        <time>2019-05-12T03:35:31.000Z</time>
      </trkpt>
      <trkpt lat="48.74726" lon="2.22748">
        <ele>72</ele>
        <time>2019-05-12T03:35:33.000Z</time>
      </trkpt>
      <trkpt lat="48.7473" lon="2.22741">
        <ele>72</ele>
        <time>2019-05-12T03:35:35.000Z</time>
      </trkpt>
      <trkpt lat="48.7473" lon="2.22741">
        <ele>72</ele>
        <time>2019-05-12T03:35:37.000Z</time>
      </trkpt>
      <trkpt lat="48.7473" lon="2.22741">
        <ele>72</ele>
        <time>2019-05-12T03:35:39.000Z</time>
      </trkpt>
      <trkpt lat="48.7473" lon="2.22741">
        <ele>72</ele>
        <time>2019-05-12T03:35:41.000Z</time>
      </trkpt>
      <trkpt lat="48.74735" lon="2.22731">
        <ele>72</ele>
        <time>2019-05-12T03:37:07.000Z</time>
      </trkpt>
      <trkpt lat="48.74738" lon="2.22723">
        <ele>72</ele>
        <time>2019-05-12T03:37:09.000Z</time>
      </trkpt>
      <trkpt lat="48.74741" lon="2.22716">
        <ele>72</ele>
        <time>2019-05-12T03:37:13.000Z</time>
      </trkpt>
      <trkpt lat="48.74741" lon="2.22716">
        <ele>72</ele>
        <time>2019-05-12T03:37:15.000Z</time>
      </trkpt>
      <trkpt lat="48.74741" lon="2.22716">
        <ele>72</ele>
        <time>2019-05-12T03:37:17.000Z</time>
      </trkpt>
      <trkpt lat="48.74741" lon="2.22716">
        <ele>72</ele>
        <time>2019-05-12T03:37:25.000Z</time>
      </trkpt>
      <trkpt lat="48.74741" lon="2.22716">
        <ele>72</ele>
        <time>2019-05-12T03:37:27.000Z</time>
      </trkpt>
      <trkpt lat="48.74741" lon="2.22716">
        <ele>72</ele>
        <time>2019-05-12T03:37:29.000Z</time>
      </trkpt>
      <trkpt lat="48.74741" lon="2.22716">
        <ele>72</ele>
        <time>2019-05-12T03:37:31.000Z</time>
      </trkpt>
      <trkpt lat="48.74741" lon="2.22716">
        <ele>72</ele>
        <time>2019-05-12T03:37:33.000Z</time>
      </trkpt>
      <trkpt lat="48.74741" lon="2.22716">
        <ele>72</ele>
        <time>2019-05-12T03:37:35.000Z</time>
      </trkpt>
      <trkpt lat="48.74751" lon="2.22688">
        <ele>72</ele>
        <time>2019-05-12T03:37:39.000Z</time>
      </trkpt>
      <trkpt lat="48.74757" lon="2.22673">
        <ele>72</ele>
        <time>2019-05-12T03:37:41.000Z</time>
      </trkpt>
      <trkpt lat="48.74757" lon="2.22673">
        <ele>72</ele>
        <time>2019-05-12T03:37:43.000Z</time>
      </trkpt>
      <trkpt lat="48.74763" lon="2.22663">
        <ele>72</ele>
        <time>2019-05-12T03:37:45.000Z</time>
      </trkpt>
      <trkpt lat="48.74768" lon="2.22654">
        <ele>72</ele>
        <time>2019-05-12T03:37:49.000Z</time>
      </trkpt>
      <trkpt lat="48.74768" lon="2.22654">
        <ele>72</ele>
        <time>2019-05-12T03:37:51.000Z</time>
      </trkpt>
      <trkpt lat="48.74773" lon="2.22646">
        <ele>72</ele>
        <time>2019-05-12T03:37:53.000Z</time>
      </trkpt>
      <trkpt lat="48.74779" lon="2.2264">
        <ele>72</ele>
        <time>2019-05-12T03:37:57.000Z</time>
      </trkpt>
      <trkpt lat="48.74783" lon="2.22635">
        <ele>72</ele>
        <time>2019-05-12T03:37:59.000Z</time>
      </trkpt>
      <trkpt lat="48.74788" lon="2.22631">
        <ele>72</ele>
        <time>2019-05-12T03:38:03.000Z</time>
      </trkpt>
      <trkpt lat="48.74788" lon="2.22631">
        <ele>72</ele>
        <time>2019-05-12T03:38:05.000Z</time>
      </trkpt>
      <trkpt lat="48.74788" lon="2.22631">
        <ele>72</ele>
        <time>2019-05-12T03:38:07.000Z</time>
      </trkpt>
      <trkpt lat="48.74788" lon="2.22631">
        <ele>72</ele>
        <time>2019-05-12T03:38:09.000Z</time>
      </trkpt>
      <trkpt lat="48.74788" lon="2.22631">
        <ele>72</ele>
        <time>2019-05-12T03:38:11.000Z</time>
      </trkpt>
      <trkpt lat="48.74798" lon="2.22617">
        <ele>72</ele>
        <time>2019-05-12T03:38:29.000Z</time>
      </trkpt>
      <trkpt lat="48.74805" lon="2.22608">
        <ele>72</ele>
        <time>2019-05-12T03:38:31.000Z</time>
      </trkpt>
      <trkpt lat="48.74811" lon="2.22602">
        <ele>72</ele>
        <time>2019-05-12T03:38:33.000Z</time>
      </trkpt>
      <trkpt lat="48.74811" lon="2.22602">
        <ele>72</ele>
        <time>2019-05-12T03:38:35.000Z</time>
      </trkpt>
      <trkpt lat="48.74811" lon="2.22602">
        <ele>72</ele>
        <time>2019-05-12T03:38:37.000Z</time>
      </trkpt>
      <trkpt lat="48.74811" lon="2.22602">
        <ele>72</ele>
        <time>2019-05-12T03:38:39.000Z</time>
      </trkpt>
      <trkpt lat="48.74811" lon="2.22602">
        <ele>72</ele>
        <time>2019-05-12T03:38:41.000Z</time>
      </trkpt>
      <trkpt lat="48.7482" lon="2.22591">
        <ele>72</ele>
        <time>2019-05-12T03:38:43.000Z</time>
      </trkpt>
      <trkpt lat="48.74826" lon="2.22584">
        <ele>72</ele>
        <time>2019-05-12T03:38:45.000Z</time>
      </trkpt>
      <trkpt lat="48.74826" lon="2.22584">
        <ele>72</ele>
        <time>2019-05-12T03:38:47.000Z</time>
      </trkpt>
      <trkpt lat="48.74826" lon="2.22584">
        <ele>72</ele>
        <time>2019-05-12T03:38:49.000Z</time>
      </trkpt>
      <trkpt lat="48.74826" lon="2.22584">
        <ele>72</ele>
        <time>2019-05-12T03:38:51.000Z</time>
      </trkpt>
      <trkpt lat="48.74826" lon="2.22584">
        <ele>72</ele>
        <time>2019-05-12T03:38:53.000Z</time>
      </trkpt>
      <trkpt lat="48.74838" lon="2.22573">
        <ele>73</ele>
        <time>2019-05-12T03:38:57.000Z</time>
      </trkpt>
      <trkpt lat="48.74846" lon="2.22567">
        <ele>73</ele>
        <time>2019-05-12T03:38:59.000Z</time>
      </trkpt>
      <trkpt lat="48.74851" lon="2.22562">
        <ele>73</ele>
        <time>2019-05-12T03:39:01.000Z</time>
      </trkpt>
      <trkpt lat="48.74851" lon="2.22562">
        <ele>73</ele>
        <time>2019-05-12T03:39:03.000Z</time>
      </trkpt>
      <trkpt lat="48.74855" lon="2.22557">
        <ele>73</ele>
        <time>2019-05-12T03:39:05.000Z</time>
      </trkpt>
      <trkpt lat="48.74855" lon="2.22557">
        <ele>73</ele>
        <time>2019-05-12T03:39:07.000Z</time>
      </trkpt>
      <trkpt lat="48.74855" lon="2.22557">
        <ele>73</ele>
        <time>2019-05-12T03:39:09.000Z</time>
      </trkpt>
      <trkpt lat="48.74861" lon="2.22546">
        <ele>74</ele>
        <time>2019-05-12T03:39:13.000Z</time>
      </trkpt>
      <trkpt lat="48.74861" lon="2.22546">
        <ele>74</ele>
        <time>2019-05-12T03:39:15.000Z</time>
      </trkpt>
      <trkpt lat="48.74865" lon="2.22537">
        <ele>74</ele>
        <time>2019-05-12T03:39:17.000Z</time>
      </trkpt>
      <trkpt lat="48.74865" lon="2.22537">
        <ele>74</ele>
        <time>2019-05-12T03:39:19.000Z</time>
      </trkpt>
      <trkpt lat="48.74865" lon="2.22537">
        <ele>74</ele>
        <time>2019-05-12T03:39:21.000Z</time>
      </trkpt>
      <trkpt lat="48.74865" lon="2.22537">
        <ele>74</ele>
        <time>2019-05-12T03:39:23.000Z</time>
      </trkpt>
      <trkpt lat="48.74865" lon="2.22537">
        <ele>74</ele>
        <time>2019-05-12T03:39:25.000Z</time>
      </trkpt>
      <trkpt lat="48.74865" lon="2.22537">
        <ele>74</ele>
        <time>2019-05-12T03:39:27.000Z</time>
      </trkpt>
      <trkpt lat="48.74865" lon="2.22537">
        <ele>74</ele>
        <time>2019-05-12T03:39:29.000Z</time>
      </trkpt>
      <trkpt lat="48.74862" lon="2.2252">
        <ele>74</ele>
        <time>2019-05-12T03:39:33.000Z</time>
      </trkpt>
      <trkpt lat="48.7486" lon="2.22509">
        <ele>73</ele>
        <time>2019-05-12T03:39:35.000Z</time>
      </trkpt>
      <trkpt lat="48.74857" lon="2.22502">
        <ele>73</ele>
        <time>2019-05-12T03:39:37.000Z</time>
      </trkpt>
      <trkpt lat="48.74856" lon="2.22494">
        <ele>73</ele>
        <time>2019-05-12T03:39:41.000Z</time>
      </trkpt>
      <trkpt lat="48.74856" lon="2.22494">
        <ele>73</ele>
        <time>2019-05-12T03:39:43.000Z</time>
      </trkpt>
      <trkpt lat="48.74856" lon="2.22487">
        <ele>74</ele>
        <time>2019-05-12T03:39:45.000Z</time>
      </trkpt>
      <trkpt lat="48.74858" lon="2.2248">
        <ele>74</ele>
        <time>2019-05-12T03:39:49.000Z</time>
      </trkpt>
      <trkpt lat="48.74858" lon="2.2248">
        <ele>74</ele>
        <time>2019-05-12T03:39:51.000Z</time>
      </trkpt>
      <trkpt lat="48.74858" lon="2.2248">
        <ele>74</ele>
        <time>2019-05-12T03:39:53.000Z</time>
      </trkpt>
      <trkpt lat="48.74858" lon="2.2248">
        <ele>74</ele>
        <time>2019-05-12T03:39:55.000Z</time>
      </trkpt>
      <trkpt lat="48.74858" lon="2.2248">
        <ele>74</ele>
        <time>2019-05-12T03:39:57.000Z</time>
      </trkpt>
      <trkpt lat="48.74858" lon="2.2248">
        <ele>74</ele>
        <time>2019-05-12T03:39:59.000Z</time>
      </trkpt>
      <trkpt lat="48.74857" lon="2.22463">
        <ele>74</ele>
        <time>2019-05-12T03:40:03.000Z</time>
      </trkpt>
      <trkpt lat="48.74856" lon="2.22452">
        <ele>74</ele>
        <time>2019-05-12T03:40:05.000Z</time>
      </trkpt>
      <trkpt lat="48.74856" lon="2.22452">
        <ele>74</ele>
        <time>2019-05-12T03:40:09.000Z</time>
      </trkpt>
      <trkpt lat="48.74856" lon="2.22452">
        <ele>74</ele>
        <time>2019-05-12T03:40:11.000Z</time>
      </trkpt>
      <trkpt lat="48.74856" lon="2.22452">
        <ele>74</ele>
        <time>2019-05-12T03:40:13.000Z</time>
      </trkpt>
      <trkpt lat="48.74856" lon="2.22452">
        <ele>74</ele>
        <time>2019-05-12T03:40:17.000Z</time>
      </trkpt>
      <trkpt lat="48.74856" lon="2.22452">
        <ele>74</ele>
        <time>2019-05-12T03:40:19.000Z</time>
      </trkpt>
      <trkpt lat="48.74846" lon="2.22432">
        <ele>74</ele>
        <time>2019-05-12T03:40:23.000Z</time>
      </trkpt>
      <trkpt lat="48.74839" lon="2.2242">
        <ele>74</ele>
        <time>2019-05-12T03:40:25.000Z</time>
      </trkpt>
      <trkpt lat="48.74835" lon="2.22413">
        <ele>74</ele>
        <time>2019-05-12T03:40:27.000Z</time>
      </trkpt>
      <trkpt lat="48.74832" lon="2.22407">
        <ele>74</ele>
        <time>2019-05-12T03:40:29.000Z</time>
      </trkpt>
      <trkpt lat="48.74829" lon="2.22401">
        <ele>74</ele>
        <time>2019-05-12T03:40:33.000Z</time>
      </trkpt>
      <trkpt lat="48.74826" lon="2.22394">
        <ele>74</ele>
        <time>2019-05-12T03:40:37.000Z</time>
      </trkpt>
      <trkpt lat="48.74825" lon="2.22388">
        <ele>75</ele>
        <time>2019-05-12T03:40:39.000Z</time>
      </trkpt>
      <trkpt lat="48.74824" lon="2.22381">
        <ele>75</ele>
        <time>2019-05-12T03:40:41.000Z</time>
      </trkpt>
      <trkpt lat="48.74823" lon="2.2237">
        <ele>74</ele>
        <time>2019-05-12T03:40:45.000Z</time>
      </trkpt>
      <trkpt lat="48.74823" lon="2.22362">
        <ele>74</ele>
        <time>2019-05-12T03:40:47.000Z</time>
      </trkpt>
      <trkpt lat="48.74823" lon="2.22362">
        <ele>74</ele>
        <time>2019-05-12T03:40:49.000Z</time>
      </trkpt>
      <trkpt lat="48.74823" lon="2.22362">
        <ele>74</ele>
        <time>2019-05-12T03:40:51.000Z</time>
      </trkpt>
      <trkpt lat="48.74823" lon="2.22362">
        <ele>74</ele>
        <time>2019-05-12T03:40:53.000Z</time>
      </trkpt>
      <trkpt lat="48.74823" lon="2.22362">
        <ele>74</ele>
        <time>2019-05-12T03:40:55.000Z</time>
      </trkpt>
      <trkpt lat="48.74823" lon="2.22362">
        <ele>74</ele>
        <time>2019-05-12T03:40:57.000Z</time>
      </trkpt>
      <trkpt lat="48.74823" lon="2.22362">
        <ele>74</ele>
        <time>2019-05-12T03:40:59.000Z</time>
      </trkpt>
      <trkpt lat="48.74823" lon="2.22362">
        <ele>74</ele>
        <time>2019-05-12T03:41:01.000Z</time>
      </trkpt>
      <trkpt lat="48.74823" lon="2.22362">
        <ele>74</ele>
        <time>2019-05-12T03:41:03.000Z</time>
      </trkpt>
      <trkpt lat="48.74823" lon="2.22362">
        <ele>74</ele>
        <time>2019-05-12T03:41:07.000Z</time>
      </trkpt>
      <trkpt lat="48.74835" lon="2.22343">
        <ele>73</ele>
        <time>2019-05-12T03:41:11.000Z</time>
      </trkpt>
      <trkpt lat="48.74841" lon="2.22332">
        <ele>73</ele>
        <time>2019-05-12T03:41:13.000Z</time>
      </trkpt>
      <trkpt lat="48.74841" lon="2.22332">
        <ele>73</ele>
        <time>2019-05-12T03:41:15.000Z</time>
      </trkpt>
      <trkpt lat="48.74841" lon="2.22332">
        <ele>73</ele>
        <time>2019-05-12T03:41:17.000Z</time>
      </trkpt>
      <trkpt lat="48.74841" lon="2.22332">
        <ele>73</ele>
        <time>2019-05-12T03:41:19.000Z</time>
      </trkpt>
      <trkpt lat="48.74847" lon="2.22319">
        <ele>73</ele>
        <time>2019-05-12T03:41:23.000Z</time>
      </trkpt>
      <trkpt lat="48.7485" lon="2.2231">
        <ele>73</ele>
        <time>2019-05-12T03:41:25.000Z</time>
      </trkpt>
      <trkpt lat="48.74852" lon="2.22302">
        <ele>72</ele>
        <time>2019-05-12T03:41:29.000Z</time>
      </trkpt>
      <trkpt lat="48.74852" lon="2.22302">
        <ele>72</ele>
        <time>2019-05-12T03:41:31.000Z</time>
      </trkpt>
      <trkpt lat="48.74855" lon="2.22294">
        <ele>72</ele>
        <time>2019-05-12T03:41:33.000Z</time>
      </trkpt>
      <trkpt lat="48.74855" lon="2.22294">
        <ele>72</ele>
        <time>2019-05-12T03:41:35.000Z</time>
      </trkpt>
      <trkpt lat="48.74858" lon="2.22287">
        <ele>72</ele>
        <time>2019-05-12T03:41:37.000Z</time>
      </trkpt>
      <trkpt lat="48.74858" lon="2.22287">
        <ele>72</ele>
        <time>2019-05-12T03:41:39.000Z</time>
      </trkpt>
      <trkpt lat="48.74858" lon="2.22287">
        <ele>72</ele>
        <time>2019-05-12T03:41:41.000Z</time>
      </trkpt>
      <trkpt lat="48.74858" lon="2.22287">
        <ele>72</ele>
        <time>2019-05-12T03:41:43.000Z</time>
      </trkpt>
      <trkpt lat="48.74864" lon="2.22274">
        <ele>72</ele>
        <time>2019-05-12T03:41:47.000Z</time>
      </trkpt>
      <trkpt lat="48.74867" lon="2.22266">
        <ele>72</ele>
        <time>2019-05-12T03:41:49.000Z</time>
      </trkpt>
      <trkpt lat="48.74867" lon="2.22266">
        <ele>72</ele>
        <time>2019-05-12T03:41:51.000Z</time>
      </trkpt>
      <trkpt lat="48.74867" lon="2.22266">
        <ele>72</ele>
        <time>2019-05-12T03:41:53.000Z</time>
      </trkpt>
      <trkpt lat="48.7487" lon="2.22256">
        <ele>72</ele>
        <time>2019-05-12T03:41:55.000Z</time>
      </trkpt>
      <trkpt lat="48.7487" lon="2.22256">
        <ele>72</ele>
        <time>2019-05-12T03:41:59.000Z</time>
      </trkpt>
      <trkpt lat="48.7487" lon="2.22256">
        <ele>72</ele>
        <time>2019-05-12T03:42:01.000Z</time>
      </trkpt>
      <trkpt lat="48.7487" lon="2.22256">
        <ele>72</ele>
        <time>2019-05-12T03:42:05.000Z</time>
      </trkpt>
      <trkpt lat="48.74878" lon="2.22239">
        <ele>73</ele>
        <time>2019-05-12T03:42:09.000Z</time>
      </trkpt>
      <trkpt lat="48.74883" lon="2.22228">
        <ele>73</ele>
        <time>2019-05-12T03:42:11.000Z</time>
      </trkpt>
      <trkpt lat="48.74883" lon="2.22228">
        <ele>73</ele>
        <time>2019-05-12T03:42:13.000Z</time>
      </trkpt>
      <trkpt lat="48.74883" lon="2.22228">
        <ele>73</ele>
        <time>2019-05-12T03:42:15.000Z</time>
      </trkpt>
      <trkpt lat="48.74883" lon="2.22228">
        <ele>73</ele>
        <time>2019-05-12T03:42:17.000Z</time>
      </trkpt>
      <trkpt lat="48.74883" lon="2.22228">
        <ele>73</ele>
        <time>2019-05-12T03:42:19.000Z</time>
      </trkpt>
      <trkpt lat="48.74883" lon="2.22228">
        <ele>73</ele>
        <time>2019-05-12T03:42:21.000Z</time>
      </trkpt>
      <trkpt lat="48.74885" lon="2.22211">
        <ele>73</ele>
        <time>2019-05-12T03:42:25.000Z</time>
      </trkpt>
      <trkpt lat="48.74887" lon="2.222">
        <ele>73</ele>
        <time>2019-05-12T03:42:27.000Z</time>
      </trkpt>
      <trkpt lat="48.74891" lon="2.2219">
        <ele>73</ele>
        <time>2019-05-12T03:42:31.000Z</time>
      </trkpt>
      <trkpt lat="48.74895" lon="2.2218">
        <ele>73</ele>
        <time>2019-05-12T03:42:35.000Z</time>
      </trkpt>
      <trkpt lat="48.74895" lon="2.2218">
        <ele>73</ele>
        <time>2019-05-12T03:42:37.000Z</time>
      </trkpt>
      <trkpt lat="48.74895" lon="2.2218">
        <ele>73</ele>
        <time>2019-05-12T03:42:39.000Z</time>
      </trkpt>
      <trkpt lat="48.74895" lon="2.2218">
        <ele>73</ele>
        <time>2019-05-12T03:42:41.000Z</time>
      </trkpt>
      <trkpt lat="48.74895" lon="2.2218">
        <ele>73</ele>
        <time>2019-05-12T03:42:43.000Z</time>
      </trkpt>
      <trkpt lat="48.74895" lon="2.2218">
        <ele>73</ele>
        <time>2019-05-12T03:42:45.000Z</time>
      </trkpt>
      <trkpt lat="48.74902" lon="2.2216">
        <ele>74</ele>
        <time>2019-05-12T03:42:51.000Z</time>
      </trkpt>
      <trkpt lat="48.74906" lon="2.22149">
        <ele>75</ele>
        <time>2019-05-12T03:42:53.000Z</time>
      </trkpt>
      <trkpt lat="48.74906" lon="2.22149">
        <ele>75</ele>
        <time>2019-05-12T03:42:55.000Z</time>
      </trkpt>
      <trkpt lat="48.74906" lon="2.22149">
        <ele>75</ele>
        <time>2019-05-12T03:42:57.000Z</time>
      </trkpt>
      <trkpt lat="48.74908" lon="2.22135">
        <ele>75</ele>
        <time>2019-05-12T03:43:01.000Z</time>
      </trkpt>
      <trkpt lat="48.7491" lon="2.22126">
        <ele>75</ele>
        <time>2019-05-12T03:43:03.000Z</time>
      </trkpt>
      <trkpt lat="48.74909" lon="2.22117">
        <ele>76</ele>
        <time>2019-05-12T03:43:07.000Z</time>
      </trkpt>
      <trkpt lat="48.74909" lon="2.22117">
        <ele>76</ele>
        <time>2019-05-12T03:43:09.000Z</time>
      </trkpt>
      <trkpt lat="48.74909" lon="2.22108">
        <ele>76</ele>
        <time>2019-05-12T03:43:11.000Z</time>
      </trkpt>
      <trkpt lat="48.74908" lon="2.221">
        <ele>76</ele>
        <time>2019-05-12T03:43:13.000Z</time>
      </trkpt>
      <trkpt lat="48.74908" lon="2.22091">
        <ele>76</ele>
        <time>2019-05-12T03:43:17.000Z</time>
      </trkpt>
      <trkpt lat="48.74907" lon="2.22084">
        <ele>76</ele>
        <time>2019-05-12T03:43:19.000Z</time>
      </trkpt>
      <trkpt lat="48.74909" lon="2.22075">
        <ele>77</ele>
        <time>2019-05-12T03:43:23.000Z</time>
      </trkpt>
      <trkpt lat="48.74912" lon="2.2207">
        <ele>77</ele>
        <time>2019-05-12T03:43:25.000Z</time>
      </trkpt>
      <trkpt lat="48.74912" lon="2.2207">
        <ele>77</ele>
        <time>2019-05-12T03:43:27.000Z</time>
      </trkpt>
      <trkpt lat="48.74912" lon="2.2207">
        <ele>77</ele>
        <time>2019-05-12T03:43:29.000Z</time>
      </trkpt>
      <trkpt lat="48.74912" lon="2.2207">
        <ele>77</ele>
        <time>2019-05-12T03:43:31.000Z</time>
      </trkpt>
      <trkpt lat="48.74912" lon="2.2207">
        <ele>77</ele>
        <time>2019-05-12T03:43:33.000Z</time>
      </trkpt>
      <trkpt lat="48.74921" lon="2.22058">
        <ele>77</ele>
        <time>2019-05-12T03:43:39.000Z</time>
      </trkpt>
      <trkpt lat="48.74927" lon="2.22052">
        <ele>77</ele>
        <time>2019-05-12T03:43:41.000Z</time>
      </trkpt>
      <trkpt lat="48.74931" lon="2.22047">
        <ele>77</ele>
        <time>2019-05-12T03:43:43.000Z</time>
      </trkpt>
      <trkpt lat="48.74931" lon="2.22047">
        <ele>77</ele>
        <time>2019-05-12T03:43:45.000Z</time>
      </trkpt>
      <trkpt lat="48.74931" lon="2.22047">
        <ele>77</ele>
        <time>2019-05-12T03:43:47.000Z</time>
      </trkpt>
      <trkpt lat="48.74935" lon="2.22037">
        <ele>77</ele>
        <time>2019-05-12T03:43:51.000Z</time>
      </trkpt>
      <trkpt lat="48.74937" lon="2.22025">
        <ele>78</ele>
        <time>2019-05-12T03:43:57.000Z</time>
      </trkpt>
      <trkpt lat="48.74939" lon="2.22011">
        <ele>78</ele>
        <time>2019-05-12T03:44:03.000Z</time>
      </trkpt>
      <trkpt lat="48.74943" lon="2.22003">
        <ele>78</ele>
        <time>2019-05-12T03:44:07.000Z</time>
      </trkpt>
      <trkpt lat="48.74946" lon="2.21997">
        <ele>79</ele>
        <time>2019-05-12T03:44:09.000Z</time>
      </trkpt>
      <trkpt lat="48.74946" lon="2.21997">
        <ele>79</ele>
        <time>2019-05-12T03:44:11.000Z</time>
      </trkpt>
      <trkpt lat="48.7495" lon="2.21992">
        <ele>79</ele>
        <time>2019-05-12T03:44:13.000Z</time>
      </trkpt>
      <trkpt lat="48.74954" lon="2.21989">
        <ele>79</ele>
        <time>2019-05-12T03:44:15.000Z</time>
      </trkpt>
      <trkpt lat="48.74954" lon="2.21989">
        <ele>79</ele>
        <time>2019-05-12T03:44:17.000Z</time>
      </trkpt>
      <trkpt lat="48.74954" lon="2.21989">
        <ele>79</ele>
        <time>2019-05-12T03:44:19.000Z</time>
      </trkpt>
      <trkpt lat="48.74954" lon="2.21989">
        <ele>79</ele>
        <time>2019-05-12T03:44:21.000Z</time>
      </trkpt>
      <trkpt lat="48.74954" lon="2.21989">
        <ele>79</ele>
        <time>2019-05-12T03:44:23.000Z</time>
      </trkpt>
      <trkpt lat="48.74954" lon="2.21989">
        <ele>79</ele>
        <time>2019-05-12T03:44:25.000Z</time>
      </trkpt>
      <trkpt lat="48.74961" lon="2.21998">
        <ele>78</ele>
        <time>2019-05-12T03:44:27.000Z</time>
      </trkpt>
      <trkpt lat="48.74966" lon="2.22005">
        <ele>77</ele>
        <time>2019-05-12T03:44:29.000Z</time>
      </trkpt>
      <trkpt lat="48.74968" lon="2.22011">
        <ele>77</ele>
        <time>2019-05-12T03:44:31.000Z</time>
      </trkpt>
      <trkpt lat="48.74972" lon="2.22017">
        <ele>77</ele>
        <time>2019-05-12T03:44:35.000Z</time>
      </trkpt>
      <trkpt lat="48.74972" lon="2.22017">
        <ele>77</ele>
        <time>2019-05-12T03:44:37.000Z</time>
      </trkpt>
      <trkpt lat="48.74972" lon="2.22017">
        <ele>77</ele>
        <time>2019-05-12T03:44:39.000Z</time>
      </trkpt>
      <trkpt lat="48.74979" lon="2.22029">
        <ele>77</ele>
        <time>2019-05-12T03:44:45.000Z</time>
      </trkpt>
      <trkpt lat="48.74983" lon="2.22036">
        <ele>77</ele>
        <time>2019-05-12T03:44:47.000Z</time>
      </trkpt>
      <trkpt lat="48.74983" lon="2.22036">
        <ele>77</ele>
        <time>2019-05-12T03:44:49.000Z</time>
      </trkpt>
      <trkpt lat="48.74983" lon="2.22036">
        <ele>77</ele>
        <time>2019-05-12T03:44:51.000Z</time>
      </trkpt>
      <trkpt lat="48.74983" lon="2.22036">
        <ele>77</ele>
        <time>2019-05-12T03:44:53.000Z</time>
      </trkpt>
      <trkpt lat="48.74983" lon="2.22036">
        <ele>77</ele>
        <time>2019-05-12T03:44:55.000Z</time>
      </trkpt>
      <trkpt lat="48.74983" lon="2.22036">
        <ele>77</ele>
        <time>2019-05-12T03:44:57.000Z</time>
      </trkpt>
      <trkpt lat="48.74992" lon="2.22052">
        <ele>77</ele>
        <time>2019-05-12T03:45:03.000Z</time>
      </trkpt>
      <trkpt lat="48.74998" lon="2.22062">
        <ele>77</ele>
        <time>2019-05-12T03:45:05.000Z</time>
      </trkpt>
      <trkpt lat="48.75002" lon="2.22068">
        <ele>77</ele>
        <time>2019-05-12T03:45:07.000Z</time>
      </trkpt>
      <trkpt lat="48.75002" lon="2.22068">
        <ele>77</ele>
        <time>2019-05-12T03:45:09.000Z</time>
      </trkpt>
      <trkpt lat="48.75002" lon="2.22068">
        <ele>77</ele>
        <time>2019-05-12T03:45:11.000Z</time>
      </trkpt>
      <trkpt lat="48.75002" lon="2.22068">
        <ele>77</ele>
        <time>2019-05-12T03:45:13.000Z</time>
      </trkpt>
      <trkpt lat="48.75006" lon="2.22075">
        <ele>77</ele>
        <time>2019-05-12T03:45:15.000Z</time>
      </trkpt>
      <trkpt lat="48.7501" lon="2.2208">
        <ele>77</ele>
        <time>2019-05-12T03:45:17.000Z</time>
      </trkpt>
      <trkpt lat="48.75015" lon="2.22084">
        <ele>77</ele>
        <time>2019-05-12T03:45:21.000Z</time>
      </trkpt>
      <trkpt lat="48.75015" lon="2.22084">
        <ele>77</ele>
        <time>2019-05-12T03:45:25.000Z</time>
      </trkpt>
      <trkpt lat="48.75015" lon="2.22084">
        <ele>77</ele>
        <time>2019-05-12T03:45:27.000Z</time>
      </trkpt>
      <trkpt lat="48.75015" lon="2.22084">
        <ele>77</ele>
        <time>2019-05-12T03:45:29.000Z</time>
      </trkpt>
      <trkpt lat="48.75021" lon="2.22094">
        <ele>77</ele>
        <time>2019-05-12T03:45:35.000Z</time>
      </trkpt>
      <trkpt lat="48.75024" lon="2.221">
        <ele>77</ele>
        <time>2019-05-12T03:45:37.000Z</time>
      </trkpt>
      <trkpt lat="48.75024" lon="2.221">
        <ele>77</ele>
        <time>2019-05-12T03:45:39.000Z</time>
      </trkpt>
      <trkpt lat="48.75024" lon="2.221">
        <ele>77</ele>
        <time>2019-05-12T03:45:41.000Z</time>
      </trkpt>
      <trkpt lat="48.75024" lon="2.221">
        <ele>77</ele>
        <time>2019-05-12T03:45:43.000Z</time>
      </trkpt>
      <trkpt lat="48.7503" lon="2.2211">
        <ele>77</ele>
        <time>2019-05-12T03:45:51.000Z</time>
      </trkpt>
      <trkpt lat="48.75034" lon="2.22117">
        <ele>77</ele>
        <time>2019-05-12T03:45:53.000Z</time>
      </trkpt>
      <trkpt lat="48.75037" lon="2.22122">
        <ele>77</ele>
        <time>2019-05-12T03:45:55.000Z</time>
      </trkpt>
      <trkpt lat="48.75043" lon="2.2213">
        <ele>77</ele>
        <time>2019-05-12T03:46:01.000Z</time>
      </trkpt>
      <trkpt lat="48.75043" lon="2.2213">
        <ele>77</ele>
        <time>2019-05-12T03:46:05.000Z</time>
      </trkpt>
      <trkpt lat="48.75043" lon="2.2213">
        <ele>77</ele>
        <time>2019-05-12T03:46:07.000Z</time>
      </trkpt>
      <trkpt lat="48.75043" lon="2.2213">
        <ele>77</ele>
        <time>2019-05-12T03:46:09.000Z</time>
      </trkpt>
      <trkpt lat="48.75043" lon="2.2213">
        <ele>77</ele>
        <time>2019-05-12T03:46:11.000Z</time>
      </trkpt>
      <trkpt lat="48.75057" lon="2.22146">
        <ele>78</ele>
        <time>2019-05-12T03:46:17.000Z</time>
      </trkpt>
      <trkpt lat="48.75065" lon="2.22155">
        <ele>78</ele>
        <time>2019-05-12T03:46:19.000Z</time>
      </trkpt>
      <trkpt lat="48.7507" lon="2.22161">
        <ele>78</ele>
        <time>2019-05-12T03:46:21.000Z</time>
      </trkpt>
      <trkpt lat="48.7507" lon="2.22161">
        <ele>78</ele>
        <time>2019-05-12T03:46:23.000Z</time>
      </trkpt>
      <trkpt lat="48.7507" lon="2.22161">
        <ele>78</ele>
        <time>2019-05-12T03:46:25.000Z</time>
      </trkpt>
      <trkpt lat="48.7507" lon="2.22161">
        <ele>78</ele>
        <time>2019-05-12T03:46:27.000Z</time>
      </trkpt>
      <trkpt lat="48.75078" lon="2.22172">
        <ele>79</ele>
        <time>2019-05-12T03:46:33.000Z</time>
      </trkpt>
      <trkpt lat="48.75084" lon="2.22179">
        <ele>80</ele>
        <time>2019-05-12T03:46:35.000Z</time>
      </trkpt>
      <trkpt lat="48.75087" lon="2.22183">
        <ele>80</ele>
        <time>2019-05-12T03:46:37.000Z</time>
      </trkpt>
      <trkpt lat="48.75087" lon="2.22183">
        <ele>80</ele>
        <time>2019-05-12T03:46:39.000Z</time>
      </trkpt>
      <trkpt lat="48.75087" lon="2.22183">
        <ele>80</ele>
        <time>2019-05-12T03:46:41.000Z</time>
      </trkpt>
      <trkpt lat="48.75092" lon="2.2219">
        <ele>81</ele>
        <time>2019-05-12T03:46:45.000Z</time>
      </trkpt>
      <trkpt lat="48.75099" lon="2.22196">
        <ele>81</ele>
        <time>2019-05-12T03:46:51.000Z</time>
      </trkpt>
      <trkpt lat="48.75099" lon="2.22196">
        <ele>81</ele>
        <time>2019-05-12T03:46:53.000Z</time>
      </trkpt>
      <trkpt lat="48.75099" lon="2.22196">
        <ele>81</ele>
        <time>2019-05-12T03:46:57.000Z</time>
      </trkpt>
      <trkpt lat="48.75099" lon="2.22196">
        <ele>81</ele>
        <time>2019-05-12T03:47:01.000Z</time>
      </trkpt>
      <trkpt lat="48.75099" lon="2.22196">
        <ele>81</ele>
        <time>2019-05-12T03:47:03.000Z</time>
      </trkpt>
      <trkpt lat="48.75099" lon="2.22196">
        <ele>81</ele>
        <time>2019-05-12T03:47:05.000Z</time>
      </trkpt>
      <trkpt lat="48.75111" lon="2.22212">
        <ele>82</ele>
        <time>2019-05-12T03:47:11.000Z</time>
      </trkpt>
      <trkpt lat="48.75119" lon="2.22221">
        <ele>82</ele>
        <time>2019-05-12T03:47:13.000Z</time>
      </trkpt>
      <trkpt lat="48.75124" lon="2.22226">
        <ele>82</ele>
        <time>2019-05-12T03:47:15.000Z</time>
      </trkpt>
      <trkpt lat="48.7513" lon="2.22232">
        <ele>82</ele>
        <time>2019-05-12T03:47:19.000Z</time>
      </trkpt>
      <trkpt lat="48.75134" lon="2.22235">
        <ele>82</ele>
        <time>2019-05-12T03:47:21.000Z</time>
      </trkpt>
      <trkpt lat="48.75139" lon="2.22239">
        <ele>82</ele>
        <time>2019-05-12T03:47:25.000Z</time>
      </trkpt>
      <trkpt lat="48.75139" lon="2.22239">
        <ele>82</ele>
        <time>2019-05-12T03:47:27.000Z</time>
      </trkpt>
      <trkpt lat="48.75139" lon="2.22239">
        <ele>82</ele>
        <time>2019-05-12T03:47:29.000Z</time>
      </trkpt>
      <trkpt lat="48.75139" lon="2.22239">
        <ele>82</ele>
        <time>2019-05-12T03:47:31.000Z</time>
      </trkpt>
      <trkpt lat="48.75147" lon="2.22246">
        <ele>82</ele>
        <time>2019-05-12T03:47:37.000Z</time>
      </trkpt>
      <trkpt lat="48.75152" lon="2.2225">
        <ele>82</ele>
        <time>2019-05-12T03:47:39.000Z</time>
      </trkpt>
      <trkpt lat="48.75157" lon="2.22252">
        <ele>85</ele>
        <time>2019-05-12T03:47:43.000Z</time>
      </trkpt>
      <trkpt lat="48.75157" lon="2.22252">
        <ele>85</ele>
        <time>2019-05-12T03:47:45.000Z</time>
      </trkpt>
      <trkpt lat="48.75157" lon="2.22252">
        <ele>85</ele>
        <time>2019-05-12T03:47:47.000Z</time>
      </trkpt>
      <trkpt lat="48.75157" lon="2.22252">
        <ele>85</ele>
        <time>2019-05-12T03:47:49.000Z</time>
      </trkpt>
      <trkpt lat="48.75157" lon="2.22252">
        <ele>85</ele>
        <time>2019-05-12T03:47:51.000Z</time>
      </trkpt>
      <trkpt lat="48.75167" lon="2.22255">
        <ele>84</ele>
        <time>2019-05-12T03:47:55.000Z</time>
      </trkpt>
      <trkpt lat="48.75174" lon="2.22258">
        <ele>84</ele>
        <time>2019-05-12T03:47:57.000Z</time>
      </trkpt>
      <trkpt lat="48.75179" lon="2.22259">
        <ele>85</ele>
        <time>2019-05-12T03:47:59.000Z</time>
      </trkpt>
      <trkpt lat="48.75179" lon="2.22259">
        <ele>85</ele>
        <time>2019-05-12T03:48:01.000Z</time>
      </trkpt>
      <trkpt lat="48.75179" lon="2.22259">
        <ele>85</ele>
        <time>2019-05-12T03:48:03.000Z</time>
      </trkpt>
      <trkpt lat="48.75179" lon="2.22259">
        <ele>85</ele>
        <time>2019-05-12T03:48:05.000Z</time>
      </trkpt>
      <trkpt lat="48.75179" lon="2.22259">
        <ele>85</ele>
        <time>2019-05-12T03:48:07.000Z</time>
      </trkpt>
      <trkpt lat="48.75179" lon="2.22259">
        <ele>85</ele>
        <time>2019-05-12T03:48:09.000Z</time>
      </trkpt>
      <trkpt lat="48.75179" lon="2.22259">
        <ele>85</ele>
        <time>2019-05-12T03:48:11.000Z</time>
      </trkpt>
      <trkpt lat="48.75179" lon="2.22259">
        <ele>85</ele>
        <time>2019-05-12T03:48:13.000Z</time>
      </trkpt>
      <trkpt lat="48.7519" lon="2.22262">
        <ele>85</ele>
        <time>2019-05-12T03:48:17.000Z</time>
      </trkpt>
      <trkpt lat="48.75198" lon="2.22264">
        <ele>86</ele>
        <time>2019-05-12T03:48:19.000Z</time>
      </trkpt>
      <trkpt lat="48.75198" lon="2.22264">
        <ele>86</ele>
        <time>2019-05-12T03:48:21.000Z</time>
      </trkpt>
      <trkpt lat="48.75203" lon="2.22267">
        <ele>86</ele>
        <time>2019-05-12T03:48:23.000Z</time>
      </trkpt>
      <trkpt lat="48.75207" lon="2.22269">
        <ele>86</ele>
        <time>2019-05-12T03:48:25.000Z</time>
      </trkpt>
      <trkpt lat="48.75207" lon="2.22269">
        <ele>86</ele>
        <time>2019-05-12T03:48:27.000Z</time>
      </trkpt>
      <trkpt lat="48.75207" lon="2.22269">
        <ele>86</ele>
        <time>2019-05-12T03:48:29.000Z</time>
      </trkpt>
      <trkpt lat="48.75207" lon="2.22269">
        <ele>86</ele>
        <time>2019-05-12T03:48:31.000Z</time>
      </trkpt>
      <trkpt lat="48.75207" lon="2.22269">
        <ele>86</ele>
        <time>2019-05-12T03:48:33.000Z</time>
      </trkpt>
      <trkpt lat="48.75225" lon="2.22273">
        <ele>86</ele>
        <time>2019-05-12T03:48:57.000Z</time>
      </trkpt>
      <trkpt lat="48.75225" lon="2.22273">
        <ele>86</ele>
        <time>2019-05-12T03:48:59.000Z</time>
      </trkpt>
      <trkpt lat="48.75225" lon="2.22273">
        <ele>86</ele>
        <time>2019-05-12T03:49:01.000Z</time>
      </trkpt>
      <trkpt lat="48.75242" lon="2.22275">
        <ele>86</ele>
        <time>2019-05-12T03:49:07.000Z</time>
      </trkpt>
      <trkpt lat="48.75253" lon="2.22276">
        <ele>87</ele>
        <time>2019-05-12T03:49:09.000Z</time>
      </trkpt>
      <trkpt lat="48.75261" lon="2.22276">
        <ele>87</ele>
        <time>2019-05-12T03:49:11.000Z</time>
      </trkpt>
      <trkpt lat="48.75266" lon="2.22275">
        <ele>87</ele>
        <time>2019-05-12T03:49:13.000Z</time>
      </trkpt>
      <trkpt lat="48.75266" lon="2.22275">
        <ele>87</ele>
        <time>2019-05-12T03:49:15.000Z</time>
      </trkpt>
      <trkpt lat="48.75266" lon="2.22275">
        <ele>87</ele>
        <time>2019-05-12T03:49:17.000Z</time>
      </trkpt>
      <trkpt lat="48.75272" lon="2.2227">
        <ele>87</ele>
        <time>2019-05-12T03:49:19.000Z</time>
      </trkpt>
      <trkpt lat="48.75277" lon="2.22266">
        <ele>87</ele>
        <time>2019-05-12T03:49:21.000Z</time>
      </trkpt>
      <trkpt lat="48.7528" lon="2.22262">
        <ele>87</ele>
        <time>2019-05-12T03:49:25.000Z</time>
      </trkpt>
      <trkpt lat="48.75285" lon="2.22258">
        <ele>87</ele>
        <time>2019-05-12T03:49:29.000Z</time>
      </trkpt>
      <trkpt lat="48.75285" lon="2.22258">
        <ele>87</ele>
        <time>2019-05-12T03:49:31.000Z</time>
      </trkpt>
      <trkpt lat="48.75285" lon="2.22258">
        <ele>87</ele>
        <time>2019-05-12T03:49:33.000Z</time>
      </trkpt>
      <trkpt lat="48.75285" lon="2.22258">
        <ele>87</ele>
        <time>2019-05-12T03:49:35.000Z</time>
      </trkpt>
      <trkpt lat="48.75285" lon="2.22258">
        <ele>87</ele>
        <time>2019-05-12T03:49:37.000Z</time>
      </trkpt>
      <trkpt lat="48.75285" lon="2.22258">
        <ele>87</ele>
        <time>2019-05-12T03:49:39.000Z</time>
      </trkpt>
      <trkpt lat="48.75285" lon="2.22258">
        <ele>87</ele>
        <time>2019-05-12T03:49:41.000Z</time>
      </trkpt>
      <trkpt lat="48.75285" lon="2.22258">
        <ele>87</ele>
        <time>2019-05-12T03:49:43.000Z</time>
      </trkpt>
      <trkpt lat="48.75285" lon="2.22258">
        <ele>87</ele>
        <time>2019-05-12T03:49:45.000Z</time>
      </trkpt>
      <trkpt lat="48.75298" lon="2.22259">
        <ele>87</ele>
        <time>2019-05-12T03:49:49.000Z</time>
      </trkpt>
      <trkpt lat="48.75306" lon="2.2226">
        <ele>87</ele>
        <time>2019-05-12T03:49:51.000Z</time>
      </trkpt>
      <trkpt lat="48.75312" lon="2.2226">
        <ele>87</ele>
        <time>2019-05-12T03:49:53.000Z</time>
      </trkpt>
      <trkpt lat="48.75317" lon="2.2226">
        <ele>87</ele>
        <time>2019-05-12T03:49:55.000Z</time>
      </trkpt>
      <trkpt lat="48.75323" lon="2.22259">
        <ele>87</ele>
        <time>2019-05-12T03:49:59.000Z</time>
      </trkpt>
      <trkpt lat="48.75328" lon="2.22258">
        <ele>87</ele>
        <time>2019-05-12T03:50:01.000Z</time>
      </trkpt>
      <trkpt lat="48.75328" lon="2.22258">
        <ele>87</ele>
        <time>2019-05-12T03:50:03.000Z</time>
      </trkpt>
      <trkpt lat="48.75328" lon="2.22258">
        <ele>87</ele>
        <time>2019-05-12T03:50:05.000Z</time>
      </trkpt>
      <trkpt lat="48.75328" lon="2.22258">
        <ele>87</ele>
        <time>2019-05-12T03:50:07.000Z</time>
      </trkpt>
      <trkpt lat="48.75337" lon="2.22255">
        <ele>87</ele>
        <time>2019-05-12T03:50:11.000Z</time>
      </trkpt>
      <trkpt lat="48.75343" lon="2.22251">
        <ele>87</ele>
        <time>2019-05-12T03:50:13.000Z</time>
      </trkpt>
      <trkpt lat="48.75347" lon="2.22249">
        <ele>85</ele>
        <time>2019-05-12T03:50:15.000Z</time>
      </trkpt>
      <trkpt lat="48.75347" lon="2.22249">
        <ele>85</ele>
        <time>2019-05-12T03:50:17.000Z</time>
      </trkpt>
      <trkpt lat="48.75347" lon="2.22249">
        <ele>85</ele>
        <time>2019-05-12T03:50:19.000Z</time>
      </trkpt>
      <trkpt lat="48.75355" lon="2.22244">
        <ele>85</ele>
        <time>2019-05-12T03:50:21.000Z</time>
      </trkpt>
      <trkpt lat="48.7536" lon="2.22241">
        <ele>85</ele>
        <time>2019-05-12T03:50:23.000Z</time>
      </trkpt>
      <trkpt lat="48.75367" lon="2.22238">
        <ele>85</ele>
        <time>2019-05-12T03:50:27.000Z</time>
      </trkpt>
      <trkpt lat="48.75367" lon="2.22238">
        <ele>85</ele>
        <time>2019-05-12T03:50:29.000Z</time>
      </trkpt>
      <trkpt lat="48.75367" lon="2.22238">
        <ele>85</ele>
        <time>2019-05-12T03:50:31.000Z</time>
      </trkpt>
      <trkpt lat="48.75367" lon="2.22238">
        <ele>85</ele>
        <time>2019-05-12T03:50:33.000Z</time>
      </trkpt>
      <trkpt lat="48.75378" lon="2.22234">
        <ele>85</ele>
        <time>2019-05-12T03:50:37.000Z</time>
      </trkpt>
      <trkpt lat="48.75386" lon="2.22231">
        <ele>85</ele>
        <time>2019-05-12T03:50:39.000Z</time>
      </trkpt>
      <trkpt lat="48.75393" lon="2.2223">
        <ele>85</ele>
        <time>2019-05-12T03:50:41.000Z</time>
      </trkpt>
      <trkpt lat="48.75398" lon="2.2223">
        <ele>85</ele>
        <time>2019-05-12T03:50:43.000Z</time>
      </trkpt>
      <trkpt lat="48.75404" lon="2.2223">
        <ele>85</ele>
        <time>2019-05-12T03:50:45.000Z</time>
      </trkpt>
      <trkpt lat="48.75413" lon="2.2223">
        <ele>85</ele>
        <time>2019-05-12T03:50:47.000Z</time>
      </trkpt>
      <trkpt lat="48.75413" lon="2.2223">
        <ele>85</ele>
        <time>2019-05-12T03:50:49.000Z</time>
      </trkpt>
      <trkpt lat="48.75413" lon="2.2223">
        <ele>85</ele>
        <time>2019-05-12T03:50:51.000Z</time>
      </trkpt>
      <trkpt lat="48.75422" lon="2.22235">
        <ele>85</ele>
        <time>2019-05-12T03:50:59.000Z</time>
      </trkpt>
      <trkpt lat="48.75433" lon="2.22239">
        <ele>85</ele>
        <time>2019-05-12T03:51:05.000Z</time>
      </trkpt>
      <trkpt lat="48.75433" lon="2.22239">
        <ele>85</ele>
        <time>2019-05-12T03:51:07.000Z</time>
      </trkpt>
      <trkpt lat="48.75433" lon="2.22239">
        <ele>85</ele>
        <time>2019-05-12T03:51:09.000Z</time>
      </trkpt>
      <trkpt lat="48.75433" lon="2.22239">
        <ele>85</ele>
        <time>2019-05-12T03:51:11.000Z</time>
      </trkpt>
      <trkpt lat="48.75433" lon="2.22239">
        <ele>85</ele>
        <time>2019-05-12T03:51:13.000Z</time>
      </trkpt>
      <trkpt lat="48.75433" lon="2.22239">
        <ele>85</ele>
        <time>2019-05-12T03:51:15.000Z</time>
      </trkpt>
      <trkpt lat="48.75433" lon="2.22239">
        <ele>85</ele>
        <time>2019-05-12T03:51:17.000Z</time>
      </trkpt>
      <trkpt lat="48.75433" lon="2.22239">
        <ele>85</ele>
        <time>2019-05-12T03:51:19.000Z</time>
      </trkpt>
      <trkpt lat="48.75433" lon="2.22239">
        <ele>85</ele>
        <time>2019-05-12T03:51:21.000Z</time>
      </trkpt>
      <trkpt lat="48.75433" lon="2.22239">
        <ele>85</ele>
        <time>2019-05-12T03:51:23.000Z</time>
      </trkpt>
      <trkpt lat="48.75441" lon="2.22246">
        <ele>85</ele>
        <time>2019-05-12T03:52:09.000Z</time>
      </trkpt>
      <trkpt lat="48.75441" lon="2.22246">
        <ele>85</ele>
        <time>2019-05-12T03:52:11.000Z</time>
      </trkpt>
      <trkpt lat="48.75441" lon="2.22246">
        <ele>85</ele>
        <time>2019-05-12T03:52:13.000Z</time>
      </trkpt>
      <trkpt lat="48.75441" lon="2.22246">
        <ele>85</ele>
        <time>2019-05-12T03:52:15.000Z</time>
      </trkpt>
      <trkpt lat="48.7545" lon="2.22251">
        <ele>89</ele>
        <time>2019-05-12T03:52:19.000Z</time>
      </trkpt>
      <trkpt lat="48.7545" lon="2.22251">
        <ele>89</ele>
        <time>2019-05-12T03:52:21.000Z</time>
      </trkpt>
      <trkpt lat="48.7545" lon="2.22251">
        <ele>89</ele>
        <time>2019-05-12T03:52:23.000Z</time>
      </trkpt>
      <trkpt lat="48.75453" lon="2.22258">
        <ele>90</ele>
        <time>2019-05-12T03:58:53.000Z</time>
      </trkpt>
      <trkpt lat="48.75453" lon="2.22258">
        <ele>90</ele>
        <time>2019-05-12T04:02:17.000Z</time>
      </trkpt>
      <trkpt lat="48.75453" lon="2.22245">
        <ele>86</ele>
        <time>2019-05-12T04:04:51.000Z</time>
      </trkpt>
      <trkpt lat="48.75452" lon="2.22237">
        <ele>86</ele>
        <time>2019-05-12T04:04:53.000Z</time>
      </trkpt>
      <trkpt lat="48.7545" lon="2.22229">
        <ele>86</ele>
        <time>2019-05-12T04:04:57.000Z</time>
      </trkpt>
      <trkpt lat="48.7545" lon="2.22229">
        <ele>86</ele>
        <time>2019-05-12T04:04:59.000Z</time>
      </trkpt>
      <trkpt lat="48.75447" lon="2.22222">
        <ele>85</ele>
        <time>2019-05-12T04:05:01.000Z</time>
      </trkpt>
      <trkpt lat="48.75447" lon="2.22222">
        <ele>85</ele>
        <time>2019-05-12T04:05:03.000Z</time>
      </trkpt>
      <trkpt lat="48.75447" lon="2.22222">
        <ele>85</ele>
        <time>2019-05-12T04:05:05.000Z</time>
      </trkpt>
      <trkpt lat="48.75447" lon="2.22222">
        <ele>85</ele>
        <time>2019-05-12T04:05:07.000Z</time>
      </trkpt>
      <trkpt lat="48.75447" lon="2.22222">
        <ele>85</ele>
        <time>2019-05-12T04:05:09.000Z</time>
      </trkpt>
      <trkpt lat="48.7544" lon="2.22206">
        <ele>85</ele>
        <time>2019-05-12T04:05:13.000Z</time>
      </trkpt>
      <trkpt lat="48.75436" lon="2.22197">
        <ele>85</ele>
        <time>2019-05-12T04:05:15.000Z</time>
      </trkpt>
      <trkpt lat="48.75436" lon="2.22197">
        <ele>85</ele>
        <time>2019-05-12T04:05:17.000Z</time>
      </trkpt>
      <trkpt lat="48.75436" lon="2.22197">
        <ele>85</ele>
        <time>2019-05-12T04:05:19.000Z</time>
      </trkpt>
      <trkpt lat="48.75436" lon="2.22197">
        <ele>85</ele>
        <time>2019-05-12T04:05:21.000Z</time>
      </trkpt>
      <trkpt lat="48.75431" lon="2.22181">
        <ele>85</ele>
        <time>2019-05-12T04:05:29.000Z</time>
      </trkpt>
      <trkpt lat="48.75429" lon="2.22172">
        <ele>85</ele>
        <time>2019-05-12T04:05:31.000Z</time>
      </trkpt>
      <trkpt lat="48.75429" lon="2.22172">
        <ele>85</ele>
        <time>2019-05-12T04:05:33.000Z</time>
      </trkpt>
      <trkpt lat="48.75429" lon="2.22172">
        <ele>85</ele>
        <time>2019-05-12T04:05:35.000Z</time>
      </trkpt>
      <trkpt lat="48.75431" lon="2.22159">
        <ele>85</ele>
        <time>2019-05-12T04:05:41.000Z</time>
      </trkpt>
      <trkpt lat="48.75432" lon="2.2215">
        <ele>85</ele>
        <time>2019-05-12T04:05:43.000Z</time>
      </trkpt>
      <trkpt lat="48.75433" lon="2.22143">
        <ele>85</ele>
        <time>2019-05-12T04:05:45.000Z</time>
      </trkpt>
      <trkpt lat="48.75433" lon="2.22143">
        <ele>85</ele>
        <time>2019-05-12T04:05:47.000Z</time>
      </trkpt>
      <trkpt lat="48.75433" lon="2.22143">
        <ele>85</ele>
        <time>2019-05-12T04:05:49.000Z</time>
      </trkpt>
      <trkpt lat="48.75433" lon="2.22143">
        <ele>85</ele>
        <time>2019-05-12T04:05:55.000Z</time>
      </trkpt>
      <trkpt lat="48.75433" lon="2.22143">
        <ele>85</ele>
        <time>2019-05-12T04:05:57.000Z</time>
      </trkpt>
      <trkpt lat="48.75433" lon="2.22143">
        <ele>85</ele>
        <time>2019-05-12T04:05:59.000Z</time>
      </trkpt>
      <trkpt lat="48.75433" lon="2.22143">
        <ele>85</ele>
        <time>2019-05-12T04:06:01.000Z</time>
      </trkpt>
      <trkpt lat="48.75433" lon="2.22143">
        <ele>85</ele>
        <time>2019-05-12T04:06:05.000Z</time>
      </trkpt>
      <trkpt lat="48.75433" lon="2.22143">
        <ele>85</ele>
        <time>2019-05-12T04:06:09.000Z</time>
      </trkpt>
      <trkpt lat="48.75431" lon="2.22119">
        <ele>86</ele>
        <time>2019-05-12T04:06:11.000Z</time>
      </trkpt>
      <trkpt lat="48.7543" lon="2.22107">
        <ele>86</ele>
        <time>2019-05-12T04:06:13.000Z</time>
      </trkpt>
      <trkpt lat="48.75427" lon="2.221">
        <ele>86</ele>
        <time>2019-05-12T04:06:15.000Z</time>
      </trkpt>
      <trkpt lat="48.75427" lon="2.221">
        <ele>86</ele>
        <time>2019-05-12T04:06:17.000Z</time>
      </trkpt>
      <trkpt lat="48.75427" lon="2.221">
        <ele>86</ele>
        <time>2019-05-12T04:06:19.000Z</time>
      </trkpt>
      <trkpt lat="48.75427" lon="2.221">
        <ele>86</ele>
        <time>2019-05-12T04:06:21.000Z</time>
      </trkpt>
      <trkpt lat="48.75427" lon="2.221">
        <ele>86</ele>
        <time>2019-05-12T04:06:23.000Z</time>
      </trkpt>
      <trkpt lat="48.7542" lon="2.22094">
        <ele>87</ele>
        <time>2019-05-12T04:06:25.000Z</time>
      </trkpt>
      <trkpt lat="48.75414" lon="2.2209">
        <ele>86</ele>
        <time>2019-05-12T04:06:27.000Z</time>
      </trkpt>
      <trkpt lat="48.75409" lon="2.22087">
        <ele>86</ele>
        <time>2019-05-12T04:06:29.000Z</time>
      </trkpt>
      <trkpt lat="48.75404" lon="2.22084">
        <ele>86</ele>
        <time>2019-05-12T04:06:31.000Z</time>
      </trkpt>
      <trkpt lat="48.75404" lon="2.22084">
        <ele>86</ele>
        <time>2019-05-12T04:06:33.000Z</time>
      </trkpt>
      <trkpt lat="48.75404" lon="2.22084">
        <ele>86</ele>
        <time>2019-05-12T04:06:35.000Z</time>
      </trkpt>
      <trkpt lat="48.75404" lon="2.22084">
        <ele>86</ele>
        <time>2019-05-12T04:06:37.000Z</time>
      </trkpt>
      <trkpt lat="48.75404" lon="2.22084">
        <ele>86</ele>
        <time>2019-05-12T04:06:39.000Z</time>
      </trkpt>
      <trkpt lat="48.75404" lon="2.22084">
        <ele>86</ele>
        <time>2019-05-12T04:06:41.000Z</time>
      </trkpt>
      <trkpt lat="48.75404" lon="2.22084">
        <ele>86</ele>
        <time>2019-05-12T04:06:43.000Z</time>
      </trkpt>
      <trkpt lat="48.75404" lon="2.22084">
        <ele>86</ele>
        <time>2019-05-12T04:06:45.000Z</time>
      </trkpt>
      <trkpt lat="48.7539" lon="2.22084">
        <ele>85</ele>
        <time>2019-05-12T04:06:47.000Z</time>
      </trkpt>
      <trkpt lat="48.7539" lon="2.22084">
        <ele>85</ele>
        <time>2019-05-12T04:06:49.000Z</time>
      </trkpt>
      <trkpt lat="48.7539" lon="2.22084">
        <ele>85</ele>
        <time>2019-05-12T04:06:51.000Z</time>
      </trkpt>
      <trkpt lat="48.7539" lon="2.22084">
        <ele>85</ele>
        <time>2019-05-12T04:06:53.000Z</time>
      </trkpt>
      <trkpt lat="48.75378" lon="2.22082">
        <ele>85</ele>
        <time>2019-05-12T04:06:57.000Z</time>
      </trkpt>
      <trkpt lat="48.75369" lon="2.2208">
        <ele>85</ele>
        <time>2019-05-12T04:06:59.000Z</time>
      </trkpt>
      <trkpt lat="48.75369" lon="2.2208">
        <ele>85</ele>
        <time>2019-05-12T04:07:01.000Z</time>
      </trkpt>
      <trkpt lat="48.75369" lon="2.2208">
        <ele>85</ele>
        <time>2019-05-12T04:07:03.000Z</time>
      </trkpt>
      <trkpt lat="48.75358" lon="2.22078">
        <ele>85</ele>
        <time>2019-05-12T04:07:09.000Z</time>
      </trkpt>
      <trkpt lat="48.75351" lon="2.22075">
        <ele>84</ele>
        <time>2019-05-12T04:07:11.000Z</time>
      </trkpt>
      <trkpt lat="48.75347" lon="2.22073">
        <ele>84</ele>
        <time>2019-05-12T04:07:13.000Z</time>
      </trkpt>
      <trkpt lat="48.75347" lon="2.22073">
        <ele>84</ele>
        <time>2019-05-12T04:07:15.000Z</time>
      </trkpt>
      <trkpt lat="48.75347" lon="2.22073">
        <ele>84</ele>
        <time>2019-05-12T04:07:17.000Z</time>
      </trkpt>
      <trkpt lat="48.75343" lon="2.22067">
        <ele>84</ele>
        <time>2019-05-12T04:07:19.000Z</time>
      </trkpt>
      <trkpt lat="48.75339" lon="2.2206">
        <ele>84</ele>
        <time>2019-05-12T04:07:23.000Z</time>
      </trkpt>
      <trkpt lat="48.75339" lon="2.2206">
        <ele>84</ele>
        <time>2019-05-12T04:07:25.000Z</time>
      </trkpt>
      <trkpt lat="48.75339" lon="2.2206">
        <ele>84</ele>
        <time>2019-05-12T04:07:27.000Z</time>
      </trkpt>
      <trkpt lat="48.75338" lon="2.22053">
        <ele>84</ele>
        <time>2019-05-12T04:07:31.000Z</time>
      </trkpt>
      <trkpt lat="48.75338" lon="2.22053">
        <ele>84</ele>
        <time>2019-05-12T04:07:33.000Z</time>
      </trkpt>
      <trkpt lat="48.75338" lon="2.22053">
        <ele>84</ele>
        <time>2019-05-12T04:07:35.000Z</time>
      </trkpt>
      <trkpt lat="48.75338" lon="2.22053">
        <ele>84</ele>
        <time>2019-05-12T04:07:37.000Z</time>
      </trkpt>
      <trkpt lat="48.75338" lon="2.22053">
        <ele>84</ele>
        <time>2019-05-12T04:07:39.000Z</time>
      </trkpt>
      <trkpt lat="48.75335" lon="2.22034">
        <ele>85</ele>
        <time>2019-05-12T04:07:53.000Z</time>
      </trkpt>
      <trkpt lat="48.75332" lon="2.22021">
        <ele>82</ele>
        <time>2019-05-12T04:07:55.000Z</time>
      </trkpt>
      <trkpt lat="48.75329" lon="2.22013">
        <ele>82</ele>
        <time>2019-05-12T04:07:57.000Z</time>
      </trkpt>
      <trkpt lat="48.75326" lon="2.22008">
        <ele>82</ele>
        <time>2019-05-12T04:07:59.000Z</time>
      </trkpt>
      <trkpt lat="48.7532" lon="2.22004">
        <ele>82</ele>
        <time>2019-05-12T04:08:03.000Z</time>
      </trkpt>
      <trkpt lat="48.75315" lon="2.22001">
        <ele>82</ele>
        <time>2019-05-12T04:08:05.000Z</time>
      </trkpt>
      <trkpt lat="48.75311" lon="2.21999">
        <ele>82</ele>
        <time>2019-05-12T04:08:07.000Z</time>
      </trkpt>
      <trkpt lat="48.75306" lon="2.21997">
        <ele>81</ele>
        <time>2019-05-12T04:08:11.000Z</time>
      </trkpt>
      <trkpt lat="48.75306" lon="2.21997">
        <ele>81</ele>
        <time>2019-05-12T04:08:13.000Z</time>
      </trkpt>
      <trkpt lat="48.75306" lon="2.21997">
        <ele>81</ele>
        <time>2019-05-12T04:08:15.000Z</time>
      </trkpt>
      <trkpt lat="48.75306" lon="2.21997">
        <ele>81</ele>
        <time>2019-05-12T04:08:17.000Z</time>
      </trkpt>
      <trkpt lat="48.75306" lon="2.21997">
        <ele>81</ele>
        <time>2019-05-12T04:08:19.000Z</time>
      </trkpt>
      <trkpt lat="48.75306" lon="2.21997">
        <ele>81</ele>
        <time>2019-05-12T04:08:21.000Z</time>
      </trkpt>
      <trkpt lat="48.75296" lon="2.21992">
        <ele>81</ele>
        <time>2019-05-12T04:08:25.000Z</time>
      </trkpt>
      <trkpt lat="48.7529" lon="2.21987">
        <ele>81</ele>
        <time>2019-05-12T04:08:27.000Z</time>
      </trkpt>
      <trkpt lat="48.75287" lon="2.21983">
        <ele>80</ele>
        <time>2019-05-12T04:08:29.000Z</time>
      </trkpt>
      <trkpt lat="48.75283" lon="2.21976">
        <ele>80</ele>
        <time>2019-05-12T04:08:33.000Z</time>
      </trkpt>
      <trkpt lat="48.7528" lon="2.2197">
        <ele>80</ele>
        <time>2019-05-12T04:08:35.000Z</time>
      </trkpt>
      <trkpt lat="48.75275" lon="2.21965">
        <ele>80</ele>
        <time>2019-05-12T04:08:39.000Z</time>
      </trkpt>
      <trkpt lat="48.75275" lon="2.21965">
        <ele>80</ele>
        <time>2019-05-12T04:08:41.000Z</time>
      </trkpt>
      <trkpt lat="48.75275" lon="2.21965">
        <ele>80</ele>
        <time>2019-05-12T04:08:43.000Z</time>
      </trkpt>
      <trkpt lat="48.75275" lon="2.21965">
        <ele>80</ele>
        <time>2019-05-12T04:08:47.000Z</time>
      </trkpt>
      <trkpt lat="48.75275" lon="2.21965">
        <ele>80</ele>
        <time>2019-05-12T04:08:49.000Z</time>
      </trkpt>
      <trkpt lat="48.75268" lon="2.21955">
        <ele>80</ele>
        <time>2019-05-12T04:08:53.000Z</time>
      </trkpt>
      <trkpt lat="48.75264" lon="2.21949">
        <ele>80</ele>
        <time>2019-05-12T04:08:55.000Z</time>
      </trkpt>
      <trkpt lat="48.75261" lon="2.21943">
        <ele>79</ele>
        <time>2019-05-12T04:08:59.000Z</time>
      </trkpt>
      <trkpt lat="48.75261" lon="2.21943">
        <ele>79</ele>
        <time>2019-05-12T04:09:01.000Z</time>
      </trkpt>
      <trkpt lat="48.75261" lon="2.21943">
        <ele>79</ele>
        <time>2019-05-12T04:09:03.000Z</time>
      </trkpt>
      <trkpt lat="48.75261" lon="2.21943">
        <ele>79</ele>
        <time>2019-05-12T04:09:05.000Z</time>
      </trkpt>
      <trkpt lat="48.75261" lon="2.21943">
        <ele>79</ele>
        <time>2019-05-12T04:09:09.000Z</time>
      </trkpt>
      <trkpt lat="48.75261" lon="2.21943">
        <ele>79</ele>
        <time>2019-05-12T04:09:11.000Z</time>
      </trkpt>
      <trkpt lat="48.75253" lon="2.21932">
        <ele>79</ele>
        <time>2019-05-12T04:09:13.000Z</time>
      </trkpt>
      <trkpt lat="48.75253" lon="2.21932">
        <ele>79</ele>
        <time>2019-05-12T04:09:15.000Z</time>
      </trkpt>
      <trkpt lat="48.75253" lon="2.21932">
        <ele>79</ele>
        <time>2019-05-12T04:09:19.000Z</time>
      </trkpt>
      <trkpt lat="48.75253" lon="2.21932">
        <ele>79</ele>
        <time>2019-05-12T04:09:23.000Z</time>
      </trkpt>
      <trkpt lat="48.75253" lon="2.21932">
        <ele>79</ele>
        <time>2019-05-12T04:09:25.000Z</time>
      </trkpt>
      <trkpt lat="48.75243" lon="2.21908">
        <ele>77</ele>
        <time>2019-05-12T04:09:51.000Z</time>
      </trkpt>
      <trkpt lat="48.75239" lon="2.21895">
        <ele>77</ele>
        <time>2019-05-12T04:09:53.000Z</time>
      </trkpt>
      <trkpt lat="48.75238" lon="2.21888">
        <ele>78</ele>
        <time>2019-05-12T04:09:55.000Z</time>
      </trkpt>
      <trkpt lat="48.7524" lon="2.21881">
        <ele>78</ele>
        <time>2019-05-12T04:09:59.000Z</time>
      </trkpt>
      <trkpt lat="48.7524" lon="2.21881">
        <ele>78</ele>
        <time>2019-05-12T04:10:01.000Z</time>
      </trkpt>
      <trkpt lat="48.75242" lon="2.21875">
        <ele>78</ele>
        <time>2019-05-12T04:10:03.000Z</time>
      </trkpt>
      <trkpt lat="48.75242" lon="2.21875">
        <ele>78</ele>
        <time>2019-05-12T04:10:05.000Z</time>
      </trkpt>
      <trkpt lat="48.75242" lon="2.21875">
        <ele>78</ele>
        <time>2019-05-12T04:10:07.000Z</time>
      </trkpt>
      <trkpt lat="48.75242" lon="2.21875">
        <ele>78</ele>
        <time>2019-05-12T04:10:09.000Z</time>
      </trkpt>
      <trkpt lat="48.75242" lon="2.21875">
        <ele>78</ele>
        <time>2019-05-12T04:10:11.000Z</time>
      </trkpt>
      <trkpt lat="48.75249" lon="2.21855">
        <ele>79</ele>
        <time>2019-05-12T04:10:31.000Z</time>
      </trkpt>
      <trkpt lat="48.75254" lon="2.21843">
        <ele>80</ele>
        <time>2019-05-12T04:10:33.000Z</time>
      </trkpt>
      <trkpt lat="48.75258" lon="2.21834">
        <ele>80</ele>
        <time>2019-05-12T04:10:35.000Z</time>
      </trkpt>
      <trkpt lat="48.75258" lon="2.21834">
        <ele>80</ele>
        <time>2019-05-12T04:10:37.000Z</time>
      </trkpt>
      <trkpt lat="48.75262" lon="2.21825">
        <ele>81</ele>
        <time>2019-05-12T04:10:39.000Z</time>
      </trkpt>
      <trkpt lat="48.75262" lon="2.21825">
        <ele>81</ele>
        <time>2019-05-12T04:10:41.000Z</time>
      </trkpt>
      <trkpt lat="48.75262" lon="2.21825">
        <ele>81</ele>
        <time>2019-05-12T04:10:43.000Z</time>
      </trkpt>
      <trkpt lat="48.75262" lon="2.21825">
        <ele>81</ele>
        <time>2019-05-12T04:10:45.000Z</time>
      </trkpt>
      <trkpt lat="48.75262" lon="2.21825">
        <ele>81</ele>
        <time>2019-05-12T04:10:47.000Z</time>
      </trkpt>
      <trkpt lat="48.75262" lon="2.21825">
        <ele>81</ele>
        <time>2019-05-12T04:10:49.000Z</time>
      </trkpt>
      <trkpt lat="48.75262" lon="2.21825">
        <ele>81</ele>
        <time>2019-05-12T04:10:51.000Z</time>
      </trkpt>
      <trkpt lat="48.75262" lon="2.21825">
        <ele>81</ele>
        <time>2019-05-12T04:10:53.000Z</time>
      </trkpt>
      <trkpt lat="48.7526" lon="2.21804">
        <ele>81</ele>
        <time>2019-05-12T04:10:59.000Z</time>
      </trkpt>
      <trkpt lat="48.75257" lon="2.21793">
        <ele>80</ele>
        <time>2019-05-12T04:11:01.000Z</time>
      </trkpt>
      <trkpt lat="48.75254" lon="2.21783">
        <ele>80</ele>
        <time>2019-05-12T04:11:05.000Z</time>
      </trkpt>
      <trkpt lat="48.75254" lon="2.21783">
        <ele>80</ele>
        <time>2019-05-12T04:11:07.000Z</time>
      </trkpt>
      <trkpt lat="48.75254" lon="2.21783">
        <ele>80</ele>
        <time>2019-05-12T04:11:09.000Z</time>
      </trkpt>
      <trkpt lat="48.75248" lon="2.21774">
        <ele>79</ele>
        <time>2019-05-12T04:11:13.000Z</time>
      </trkpt>
      <trkpt lat="48.75248" lon="2.21774">
        <ele>79</ele>
        <time>2019-05-12T04:11:17.000Z</time>
      </trkpt>
      <trkpt lat="48.75248" lon="2.21774">
        <ele>79</ele>
        <time>2019-05-12T04:11:19.000Z</time>
      </trkpt>
      <trkpt lat="48.75248" lon="2.21774">
        <ele>79</ele>
        <time>2019-05-12T04:11:21.000Z</time>
      </trkpt>
      <trkpt lat="48.75248" lon="2.21774">
        <ele>79</ele>
        <time>2019-05-12T04:11:23.000Z</time>
      </trkpt>
      <trkpt lat="48.75236" lon="2.21756">
        <ele>79</ele>
        <time>2019-05-12T04:11:35.000Z</time>
      </trkpt>
      <trkpt lat="48.75227" lon="2.21746">
        <ele>78</ele>
        <time>2019-05-12T04:11:37.000Z</time>
      </trkpt>
      <trkpt lat="48.75222" lon="2.21738">
        <ele>78</ele>
        <time>2019-05-12T04:11:39.000Z</time>
      </trkpt>
      <trkpt lat="48.75222" lon="2.21738">
        <ele>78</ele>
        <time>2019-05-12T04:11:43.000Z</time>
      </trkpt>
      <trkpt lat="48.75222" lon="2.21738">
        <ele>78</ele>
        <time>2019-05-12T04:11:45.000Z</time>
      </trkpt>
      <trkpt lat="48.75219" lon="2.21723">
        <ele>78</ele>
        <time>2019-05-12T04:11:55.000Z</time>
      </trkpt>
      <trkpt lat="48.75219" lon="2.21713">
        <ele>77</ele>
        <time>2019-05-12T04:11:59.000Z</time>
      </trkpt>
      <trkpt lat="48.75219" lon="2.21706">
        <ele>77</ele>
        <time>2019-05-12T04:12:01.000Z</time>
      </trkpt>
      <trkpt lat="48.75221" lon="2.217">
        <ele>77</ele>
        <time>2019-05-12T04:12:05.000Z</time>
      </trkpt>
      <trkpt lat="48.75221" lon="2.217">
        <ele>77</ele>
        <time>2019-05-12T04:12:09.000Z</time>
      </trkpt>
      <trkpt lat="48.75221" lon="2.217">
        <ele>77</ele>
        <time>2019-05-12T04:12:11.000Z</time>
      </trkpt>
      <trkpt lat="48.75221" lon="2.217">
        <ele>77</ele>
        <time>2019-05-12T04:12:13.000Z</time>
      </trkpt>
      <trkpt lat="48.75225" lon="2.21686">
        <ele>77</ele>
        <time>2019-05-12T04:12:17.000Z</time>
      </trkpt>
      <trkpt lat="48.7523" lon="2.21677">
        <ele>77</ele>
        <time>2019-05-12T04:12:21.000Z</time>
      </trkpt>
      <trkpt lat="48.75233" lon="2.21671">
        <ele>77</ele>
        <time>2019-05-12T04:12:23.000Z</time>
      </trkpt>
      <trkpt lat="48.75235" lon="2.21665">
        <ele>77</ele>
        <time>2019-05-12T04:12:25.000Z</time>
      </trkpt>
      <trkpt lat="48.75237" lon="2.21657">
        <ele>77</ele>
        <time>2019-05-12T04:12:29.000Z</time>
      </trkpt>
      <trkpt lat="48.75237" lon="2.21657">
        <ele>77</ele>
        <time>2019-05-12T04:12:31.000Z</time>
      </trkpt>
      <trkpt lat="48.75237" lon="2.21657">
        <ele>77</ele>
        <time>2019-05-12T04:12:33.000Z</time>
      </trkpt>
      <trkpt lat="48.75241" lon="2.21646">
        <ele>77</ele>
        <time>2019-05-12T04:12:39.000Z</time>
      </trkpt>
      <trkpt lat="48.75243" lon="2.21639">
        <ele>77</ele>
        <time>2019-05-12T04:12:41.000Z</time>
      </trkpt>
      <trkpt lat="48.75243" lon="2.21639">
        <ele>77</ele>
        <time>2019-05-12T04:12:43.000Z</time>
      </trkpt>
      <trkpt lat="48.75243" lon="2.21639">
        <ele>77</ele>
        <time>2019-05-12T04:12:45.000Z</time>
      </trkpt>
      <trkpt lat="48.75243" lon="2.21639">
        <ele>77</ele>
        <time>2019-05-12T04:12:51.000Z</time>
      </trkpt>
      <trkpt lat="48.75249" lon="2.21626">
        <ele>77</ele>
        <time>2019-05-12T04:12:55.000Z</time>
      </trkpt>
      <trkpt lat="48.75253" lon="2.21617">
        <ele>78</ele>
        <time>2019-05-12T04:12:57.000Z</time>
      </trkpt>
      <trkpt lat="48.75255" lon="2.21611">
        <ele>78</ele>
        <time>2019-05-12T04:12:59.000Z</time>
      </trkpt>
      <trkpt lat="48.75255" lon="2.21611">
        <ele>78</ele>
        <time>2019-05-12T04:13:03.000Z</time>
      </trkpt>
      <trkpt lat="48.75255" lon="2.21611">
        <ele>78</ele>
        <time>2019-05-12T04:13:05.000Z</time>
      </trkpt>
      <trkpt lat="48.75258" lon="2.21601">
        <ele>78</ele>
        <time>2019-05-12T04:13:07.000Z</time>
      </trkpt>
      <trkpt lat="48.75261" lon="2.21595">
        <ele>78</ele>
        <time>2019-05-12T04:13:09.000Z</time>
      </trkpt>
      <trkpt lat="48.75261" lon="2.21595">
        <ele>78</ele>
        <time>2019-05-12T04:13:13.000Z</time>
      </trkpt>
      <trkpt lat="48.75261" lon="2.21595">
        <ele>78</ele>
        <time>2019-05-12T04:13:15.000Z</time>
      </trkpt>
      <trkpt lat="48.75261" lon="2.21595">
        <ele>78</ele>
        <time>2019-05-12T04:13:17.000Z</time>
      </trkpt>
      <trkpt lat="48.75267" lon="2.2158">
        <ele>78</ele>
        <time>2019-05-12T04:13:23.000Z</time>
      </trkpt>
      <trkpt lat="48.7527" lon="2.21572">
        <ele>78</ele>
        <time>2019-05-12T04:13:25.000Z</time>
      </trkpt>
      <trkpt lat="48.7527" lon="2.21572">
        <ele>78</ele>
        <time>2019-05-12T04:13:27.000Z</time>
      </trkpt>
      <trkpt lat="48.7527" lon="2.21572">
        <ele>78</ele>
        <time>2019-05-12T04:13:29.000Z</time>
      </trkpt>
      <trkpt lat="48.7527" lon="2.21572">
        <ele>78</ele>
        <time>2019-05-12T04:13:31.000Z</time>
      </trkpt>
      <trkpt lat="48.7527" lon="2.21572">
        <ele>78</ele>
        <time>2019-05-12T04:13:33.000Z</time>
      </trkpt>
      <trkpt lat="48.7527" lon="2.21572">
        <ele>78</ele>
        <time>2019-05-12T04:13:35.000Z</time>
      </trkpt>
      <trkpt lat="48.7527" lon="2.21572">
        <ele>78</ele>
        <time>2019-05-12T04:13:37.000Z</time>
      </trkpt>
      <trkpt lat="48.75274" lon="2.21551">
        <ele>78</ele>
        <time>2019-05-12T04:13:55.000Z</time>
      </trkpt>
      <trkpt lat="48.75274" lon="2.21539">
        <ele>78</ele>
        <time>2019-05-12T04:13:57.000Z</time>
      </trkpt>
      <trkpt lat="48.75274" lon="2.21539">
        <ele>78</ele>
        <time>2019-05-12T04:13:59.000Z</time>
      </trkpt>
      <trkpt lat="48.75274" lon="2.21539">
        <ele>78</ele>
        <time>2019-05-12T04:14:01.000Z</time>
      </trkpt>
      <trkpt lat="48.75272" lon="2.21528">
        <ele>78</ele>
        <time>2019-05-12T04:14:05.000Z</time>
      </trkpt>
      <trkpt lat="48.75269" lon="2.21521">
        <ele>78</ele>
        <time>2019-05-12T04:14:07.000Z</time>
      </trkpt>
      <trkpt lat="48.75269" lon="2.21521">
        <ele>78</ele>
        <time>2019-05-12T04:14:11.000Z</time>
      </trkpt>
      <trkpt lat="48.75269" lon="2.21521">
        <ele>78</ele>
        <time>2019-05-12T04:14:13.000Z</time>
      </trkpt>
      <trkpt lat="48.75269" lon="2.21521">
        <ele>78</ele>
        <time>2019-05-12T04:14:15.000Z</time>
      </trkpt>
      <trkpt lat="48.75268" lon="2.21514">
        <ele>78</ele>
        <time>2019-05-12T04:14:17.000Z</time>
      </trkpt>
      <trkpt lat="48.75269" lon="2.21506">
        <ele>78</ele>
        <time>2019-05-12T04:14:21.000Z</time>
      </trkpt>
      <trkpt lat="48.75269" lon="2.21499">
        <ele>77</ele>
        <time>2019-05-12T04:14:23.000Z</time>
      </trkpt>
      <trkpt lat="48.75269" lon="2.21499">
        <ele>77</ele>
        <time>2019-05-12T04:14:25.000Z</time>
      </trkpt>
      <trkpt lat="48.75272" lon="2.21489">
        <ele>77</ele>
        <time>2019-05-12T04:14:31.000Z</time>
      </trkpt>
      <trkpt lat="48.75273" lon="2.21481">
        <ele>78</ele>
        <time>2019-05-12T04:14:33.000Z</time>
      </trkpt>
      <trkpt lat="48.75274" lon="2.21474">
        <ele>78</ele>
        <time>2019-05-12T04:14:35.000Z</time>
      </trkpt>
      <trkpt lat="48.75274" lon="2.21474">
        <ele>78</ele>
        <time>2019-05-12T04:14:37.000Z</time>
      </trkpt>
      <trkpt lat="48.75274" lon="2.21474">
        <ele>78</ele>
        <time>2019-05-12T04:14:39.000Z</time>
      </trkpt>
      <trkpt lat="48.75274" lon="2.21474">
        <ele>78</ele>
        <time>2019-05-12T04:14:41.000Z</time>
      </trkpt>
      <trkpt lat="48.75277" lon="2.21461">
        <ele>78</ele>
        <time>2019-05-12T04:14:45.000Z</time>
      </trkpt>
      <trkpt lat="48.75278" lon="2.21452">
        <ele>78</ele>
        <time>2019-05-12T04:14:47.000Z</time>
      </trkpt>
      <trkpt lat="48.7528" lon="2.21444">
        <ele>78</ele>
        <time>2019-05-12T04:14:51.000Z</time>
      </trkpt>
      <trkpt lat="48.7528" lon="2.21444">
        <ele>78</ele>
        <time>2019-05-12T04:14:53.000Z</time>
      </trkpt>
      <trkpt lat="48.7528" lon="2.21444">
        <ele>78</ele>
        <time>2019-05-12T04:14:55.000Z</time>
      </trkpt>
      <trkpt lat="48.75283" lon="2.21434">
        <ele>77</ele>
        <time>2019-05-12T04:14:57.000Z</time>
      </trkpt>
      <trkpt lat="48.75285" lon="2.21427">
        <ele>77</ele>
        <time>2019-05-12T04:14:59.000Z</time>
      </trkpt>
      <trkpt lat="48.75285" lon="2.21427">
        <ele>77</ele>
        <time>2019-05-12T04:15:03.000Z</time>
      </trkpt>
      <trkpt lat="48.75285" lon="2.21427">
        <ele>77</ele>
        <time>2019-05-12T04:15:05.000Z</time>
      </trkpt>
      <trkpt lat="48.75285" lon="2.21427">
        <ele>77</ele>
        <time>2019-05-12T04:15:07.000Z</time>
      </trkpt>
      <trkpt lat="48.7529" lon="2.21417">
        <ele>78</ele>
        <time>2019-05-12T04:15:11.000Z</time>
      </trkpt>
      <trkpt lat="48.75292" lon="2.21409">
        <ele>78</ele>
        <time>2019-05-12T04:15:13.000Z</time>
      </trkpt>
      <trkpt lat="48.75292" lon="2.21409">
        <ele>78</ele>
        <time>2019-05-12T04:15:15.000Z</time>
      </trkpt>
      <trkpt lat="48.75292" lon="2.21409">
        <ele>78</ele>
        <time>2019-05-12T04:15:17.000Z</time>
      </trkpt>
      <trkpt lat="48.75297" lon="2.21396">
        <ele>78</ele>
        <time>2019-05-12T04:15:21.000Z</time>
      </trkpt>
      <trkpt lat="48.753" lon="2.21387">
        <ele>78</ele>
        <time>2019-05-12T04:15:23.000Z</time>
      </trkpt>
      <trkpt lat="48.75302" lon="2.2138">
        <ele>78</ele>
        <time>2019-05-12T04:15:25.000Z</time>
      </trkpt>
      <trkpt lat="48.75302" lon="2.2138">
        <ele>78</ele>
        <time>2019-05-12T04:15:27.000Z</time>
      </trkpt>
      <trkpt lat="48.75302" lon="2.2138">
        <ele>78</ele>
        <time>2019-05-12T04:15:29.000Z</time>
      </trkpt>
      <trkpt lat="48.75302" lon="2.2138">
        <ele>78</ele>
        <time>2019-05-12T04:15:31.000Z</time>
      </trkpt>
      <trkpt lat="48.75303" lon="2.21364">
        <ele>78</ele>
        <time>2019-05-12T04:15:37.000Z</time>
      </trkpt>
      <trkpt lat="48.75304" lon="2.21353">
        <ele>78</ele>
        <time>2019-05-12T04:15:39.000Z</time>
      </trkpt>
      <trkpt lat="48.75305" lon="2.21345">
        <ele>78</ele>
        <time>2019-05-12T04:15:41.000Z</time>
      </trkpt>
      <trkpt lat="48.75305" lon="2.21345">
        <ele>78</ele>
        <time>2019-05-12T04:15:43.000Z</time>
      </trkpt>
      <trkpt lat="48.75305" lon="2.21345">
        <ele>78</ele>
        <time>2019-05-12T04:15:45.000Z</time>
      </trkpt>
      <trkpt lat="48.75305" lon="2.21345">
        <ele>78</ele>
        <time>2019-05-12T04:15:47.000Z</time>
      </trkpt>
      <trkpt lat="48.75305" lon="2.21345">
        <ele>78</ele>
        <time>2019-05-12T04:15:49.000Z</time>
      </trkpt>
      <trkpt lat="48.75305" lon="2.21345">
        <ele>78</ele>
        <time>2019-05-12T04:15:51.000Z</time>
      </trkpt>
      <trkpt lat="48.7531" lon="2.2133">
        <ele>79</ele>
        <time>2019-05-12T04:15:55.000Z</time>
      </trkpt>
      <trkpt lat="48.75312" lon="2.21319">
        <ele>78</ele>
        <time>2019-05-12T04:15:57.000Z</time>
      </trkpt>
      <trkpt lat="48.75312" lon="2.21312">
        <ele>78</ele>
        <time>2019-05-12T04:15:59.000Z</time>
      </trkpt>
      <trkpt lat="48.75312" lon="2.21312">
        <ele>78</ele>
        <time>2019-05-12T04:16:01.000Z</time>
      </trkpt>
      <trkpt lat="48.75312" lon="2.21312">
        <ele>78</ele>
        <time>2019-05-12T04:16:03.000Z</time>
      </trkpt>
      <trkpt lat="48.75312" lon="2.21312">
        <ele>78</ele>
        <time>2019-05-12T04:16:05.000Z</time>
      </trkpt>
      <trkpt lat="48.7531" lon="2.21294">
        <ele>78</ele>
        <time>2019-05-12T04:16:11.000Z</time>
      </trkpt>
      <trkpt lat="48.75309" lon="2.21283">
        <ele>78</ele>
        <time>2019-05-12T04:16:13.000Z</time>
      </trkpt>
      <trkpt lat="48.75309" lon="2.21275">
        <ele>78</ele>
        <time>2019-05-12T04:16:15.000Z</time>
      </trkpt>
      <trkpt lat="48.75309" lon="2.21275">
        <ele>78</ele>
        <time>2019-05-12T04:16:17.000Z</time>
      </trkpt>
      <trkpt lat="48.75309" lon="2.21275">
        <ele>78</ele>
        <time>2019-05-12T04:16:19.000Z</time>
      </trkpt>
      <trkpt lat="48.75309" lon="2.21275">
        <ele>78</ele>
        <time>2019-05-12T04:16:21.000Z</time>
      </trkpt>
      <trkpt lat="48.75309" lon="2.21275">
        <ele>78</ele>
        <time>2019-05-12T04:16:23.000Z</time>
      </trkpt>
      <trkpt lat="48.75309" lon="2.21275">
        <ele>78</ele>
        <time>2019-05-12T04:16:25.000Z</time>
      </trkpt>
      <trkpt lat="48.75309" lon="2.21256">
        <ele>78</ele>
        <time>2019-05-12T04:16:31.000Z</time>
      </trkpt>
      <trkpt lat="48.75309" lon="2.21244">
        <ele>78</ele>
        <time>2019-05-12T04:16:33.000Z</time>
      </trkpt>
      <trkpt lat="48.7531" lon="2.21236">
        <ele>78</ele>
        <time>2019-05-12T04:16:35.000Z</time>
      </trkpt>
      <trkpt lat="48.7531" lon="2.21228">
        <ele>78</ele>
        <time>2019-05-12T04:16:39.000Z</time>
      </trkpt>
      <trkpt lat="48.7531" lon="2.21228">
        <ele>78</ele>
        <time>2019-05-12T04:16:43.000Z</time>
      </trkpt>
      <trkpt lat="48.7531" lon="2.21228">
        <ele>78</ele>
        <time>2019-05-12T04:16:45.000Z</time>
      </trkpt>
      <trkpt lat="48.7531" lon="2.21228">
        <ele>78</ele>
        <time>2019-05-12T04:16:47.000Z</time>
      </trkpt>
      <trkpt lat="48.75312" lon="2.21212">
        <ele>78</ele>
        <time>2019-05-12T04:16:53.000Z</time>
      </trkpt>
      <trkpt lat="48.75314" lon="2.21202">
        <ele>77</ele>
        <time>2019-05-12T04:16:55.000Z</time>
      </trkpt>
      <trkpt lat="48.75315" lon="2.21195">
        <ele>77</ele>
        <time>2019-05-12T04:16:57.000Z</time>
      </trkpt>
      <trkpt lat="48.75315" lon="2.21195">
        <ele>77</ele>
        <time>2019-05-12T04:16:59.000Z</time>
      </trkpt>
      <trkpt lat="48.75317" lon="2.21188">
        <ele>77</ele>
        <time>2019-05-12T04:17:01.000Z</time>
      </trkpt>
      <trkpt lat="48.75319" lon="2.21179">
        <ele>77</ele>
        <time>2019-05-12T04:17:05.000Z</time>
      </trkpt>
      <trkpt lat="48.75319" lon="2.21179">
        <ele>77</ele>
        <time>2019-05-12T04:17:07.000Z</time>
      </trkpt>
      <trkpt lat="48.75319" lon="2.21179">
        <ele>77</ele>
        <time>2019-05-12T04:17:09.000Z</time>
      </trkpt>
      <trkpt lat="48.75319" lon="2.21179">
        <ele>77</ele>
        <time>2019-05-12T04:17:11.000Z</time>
      </trkpt>
      <trkpt lat="48.75322" lon="2.21163">
        <ele>77</ele>
        <time>2019-05-12T04:17:15.000Z</time>
      </trkpt>
      <trkpt lat="48.75323" lon="2.21152">
        <ele>77</ele>
        <time>2019-05-12T04:17:17.000Z</time>
      </trkpt>
      <trkpt lat="48.75325" lon="2.21145">
        <ele>77</ele>
        <time>2019-05-12T04:17:19.000Z</time>
      </trkpt>
      <trkpt lat="48.75325" lon="2.21145">
        <ele>77</ele>
        <time>2019-05-12T04:17:21.000Z</time>
      </trkpt>
      <trkpt lat="48.75327" lon="2.21136">
        <ele>77</ele>
        <time>2019-05-12T04:17:23.000Z</time>
      </trkpt>
      <trkpt lat="48.75328" lon="2.21129">
        <ele>77</ele>
        <time>2019-05-12T04:17:25.000Z</time>
      </trkpt>
      <trkpt lat="48.75329" lon="2.21121">
        <ele>77</ele>
        <time>2019-05-12T04:17:29.000Z</time>
      </trkpt>
      <trkpt lat="48.7533" lon="2.21114">
        <ele>77</ele>
        <time>2019-05-12T04:17:31.000Z</time>
      </trkpt>
      <trkpt lat="48.7533" lon="2.21114">
        <ele>77</ele>
        <time>2019-05-12T04:17:39.000Z</time>
      </trkpt>
      <trkpt lat="48.7533" lon="2.21114">
        <ele>77</ele>
        <time>2019-05-12T04:17:41.000Z</time>
      </trkpt>
      <trkpt lat="48.7533" lon="2.21114">
        <ele>77</ele>
        <time>2019-05-12T04:17:43.000Z</time>
      </trkpt>
      <trkpt lat="48.7533" lon="2.21114">
        <ele>77</ele>
        <time>2019-05-12T04:17:45.000Z</time>
      </trkpt>
      <trkpt lat="48.75334" lon="2.21091">
        <ele>77</ele>
        <time>2019-05-12T04:17:47.000Z</time>
      </trkpt>
      <trkpt lat="48.75336" lon="2.21078">
        <ele>76</ele>
        <time>2019-05-12T04:17:49.000Z</time>
      </trkpt>
      <trkpt lat="48.75336" lon="2.21078">
        <ele>76</ele>
        <time>2019-05-12T04:17:51.000Z</time>
      </trkpt>
      <trkpt lat="48.75336" lon="2.21078">
        <ele>76</ele>
        <time>2019-05-12T04:17:53.000Z</time>
      </trkpt>
      <trkpt lat="48.75336" lon="2.21078">
        <ele>76</ele>
        <time>2019-05-12T04:17:55.000Z</time>
      </trkpt>
      <trkpt lat="48.75339" lon="2.21057">
        <ele>76</ele>
        <time>2019-05-12T04:18:01.000Z</time>
      </trkpt>
      <trkpt lat="48.75341" lon="2.21045">
        <ele>76</ele>
        <time>2019-05-12T04:18:03.000Z</time>
      </trkpt>
      <trkpt lat="48.75341" lon="2.21045">
        <ele>76</ele>
        <time>2019-05-12T04:18:05.000Z</time>
      </trkpt>
      <trkpt lat="48.75341" lon="2.21045">
        <ele>76</ele>
        <time>2019-05-12T04:18:07.000Z</time>
      </trkpt>
      <trkpt lat="48.75341" lon="2.21045">
        <ele>76</ele>
        <time>2019-05-12T04:18:09.000Z</time>
      </trkpt>
      <trkpt lat="48.75345" lon="2.21031">
        <ele>76</ele>
        <time>2019-05-12T04:18:13.000Z</time>
      </trkpt>
      <trkpt lat="48.75348" lon="2.21022">
        <ele>76</ele>
        <time>2019-05-12T04:18:15.000Z</time>
      </trkpt>
      <trkpt lat="48.75351" lon="2.21015">
        <ele>76</ele>
        <time>2019-05-12T04:18:19.000Z</time>
      </trkpt>
      <trkpt lat="48.75351" lon="2.21015">
        <ele>76</ele>
        <time>2019-05-12T04:18:21.000Z</time>
      </trkpt>
      <trkpt lat="48.75352" lon="2.21007">
        <ele>76</ele>
        <time>2019-05-12T04:18:23.000Z</time>
      </trkpt>
      <trkpt lat="48.75352" lon="2.21007">
        <ele>76</ele>
        <time>2019-05-12T04:18:25.000Z</time>
      </trkpt>
      <trkpt lat="48.75352" lon="2.21007">
        <ele>76</ele>
        <time>2019-05-12T04:18:31.000Z</time>
      </trkpt>
      <trkpt lat="48.75359" lon="2.20989">
        <ele>76</ele>
        <time>2019-05-12T04:18:37.000Z</time>
      </trkpt>
      <trkpt lat="48.75362" lon="2.20978">
        <ele>76</ele>
        <time>2019-05-12T04:18:39.000Z</time>
      </trkpt>
      <trkpt lat="48.75364" lon="2.20971">
        <ele>76</ele>
        <time>2019-05-12T04:18:41.000Z</time>
      </trkpt>
      <trkpt lat="48.75366" lon="2.20962">
        <ele>76</ele>
        <time>2019-05-12T04:18:45.000Z</time>
      </trkpt>
      <trkpt lat="48.75368" lon="2.20956">
        <ele>76</ele>
        <time>2019-05-12T04:18:47.000Z</time>
      </trkpt>
      <trkpt lat="48.75368" lon="2.20956">
        <ele>76</ele>
        <time>2019-05-12T04:18:49.000Z</time>
      </trkpt>
      <trkpt lat="48.75369" lon="2.20948">
        <ele>77</ele>
        <time>2019-05-12T04:18:51.000Z</time>
      </trkpt>
      <trkpt lat="48.7537" lon="2.20941">
        <ele>77</ele>
        <time>2019-05-12T04:18:53.000Z</time>
      </trkpt>
      <trkpt lat="48.7537" lon="2.20941">
        <ele>77</ele>
        <time>2019-05-12T04:18:55.000Z</time>
      </trkpt>
      <trkpt lat="48.7537" lon="2.20941">
        <ele>77</ele>
        <time>2019-05-12T04:18:57.000Z</time>
      </trkpt>
      <trkpt lat="48.7537" lon="2.20941">
        <ele>77</ele>
        <time>2019-05-12T04:18:59.000Z</time>
      </trkpt>
      <trkpt lat="48.7537" lon="2.20941">
        <ele>77</ele>
        <time>2019-05-12T04:19:01.000Z</time>
      </trkpt>
      <trkpt lat="48.75376" lon="2.20932">
        <ele>77</ele>
        <time>2019-05-12T04:19:05.000Z</time>
      </trkpt>
      <trkpt lat="48.75379" lon="2.20924">
        <ele>77</ele>
        <time>2019-05-12T04:19:07.000Z</time>
      </trkpt>
      <trkpt lat="48.75382" lon="2.20918">
        <ele>77</ele>
        <time>2019-05-12T04:19:09.000Z</time>
      </trkpt>
      <trkpt lat="48.75385" lon="2.20909">
        <ele>77</ele>
        <time>2019-05-12T04:19:13.000Z</time>
      </trkpt>
      <trkpt lat="48.75386" lon="2.20902">
        <ele>77</ele>
        <time>2019-05-12T04:19:15.000Z</time>
      </trkpt>
      <trkpt lat="48.75386" lon="2.20902">
        <ele>77</ele>
        <time>2019-05-12T04:19:17.000Z</time>
      </trkpt>
      <trkpt lat="48.75386" lon="2.20902">
        <ele>77</ele>
        <time>2019-05-12T04:19:19.000Z</time>
      </trkpt>
      <trkpt lat="48.75386" lon="2.20902">
        <ele>77</ele>
        <time>2019-05-12T04:19:21.000Z</time>
      </trkpt>
      <trkpt lat="48.75386" lon="2.20902">
        <ele>77</ele>
        <time>2019-05-12T04:19:23.000Z</time>
      </trkpt>
      <trkpt lat="48.75386" lon="2.20902">
        <ele>77</ele>
        <time>2019-05-12T04:19:25.000Z</time>
      </trkpt>
      <trkpt lat="48.75386" lon="2.20902">
        <ele>77</ele>
        <time>2019-05-12T04:19:27.000Z</time>
      </trkpt>
      <trkpt lat="48.75386" lon="2.20902">
        <ele>77</ele>
        <time>2019-05-12T04:19:29.000Z</time>
      </trkpt>
      <trkpt lat="48.75392" lon="2.20884">
        <ele>77</ele>
        <time>2019-05-12T04:19:33.000Z</time>
      </trkpt>
      <trkpt lat="48.75395" lon="2.20874">
        <ele>77</ele>
        <time>2019-05-12T04:19:35.000Z</time>
      </trkpt>
      <trkpt lat="48.75398" lon="2.20867">
        <ele>77</ele>
        <time>2019-05-12T04:19:37.000Z</time>
      </trkpt>
      <trkpt lat="48.75402" lon="2.2086">
        <ele>77</ele>
        <time>2019-05-12T04:19:41.000Z</time>
      </trkpt>
      <trkpt lat="48.75404" lon="2.20855">
        <ele>77</ele>
        <time>2019-05-12T04:19:43.000Z</time>
      </trkpt>
      <trkpt lat="48.75404" lon="2.20855">
        <ele>77</ele>
        <time>2019-05-12T04:19:45.000Z</time>
      </trkpt>
      <trkpt lat="48.75404" lon="2.20855">
        <ele>77</ele>
        <time>2019-05-12T04:19:47.000Z</time>
      </trkpt>
      <trkpt lat="48.75404" lon="2.20855">
        <ele>77</ele>
        <time>2019-05-12T04:19:49.000Z</time>
      </trkpt>
      <trkpt lat="48.75404" lon="2.20855">
        <ele>77</ele>
        <time>2019-05-12T04:19:51.000Z</time>
      </trkpt>
      <trkpt lat="48.75409" lon="2.20841">
        <ele>77</ele>
        <time>2019-05-12T04:19:55.000Z</time>
      </trkpt>
      <trkpt lat="48.75411" lon="2.20831">
        <ele>77</ele>
        <time>2019-05-12T04:19:57.000Z</time>
      </trkpt>
      <trkpt lat="48.75413" lon="2.20823">
        <ele>77</ele>
        <time>2019-05-12T04:19:59.000Z</time>
      </trkpt>
      <trkpt lat="48.75415" lon="2.20817">
        <ele>77</ele>
        <time>2019-05-12T04:20:01.000Z</time>
      </trkpt>
      <trkpt lat="48.75415" lon="2.20817">
        <ele>77</ele>
        <time>2019-05-12T04:20:03.000Z</time>
      </trkpt>
      <trkpt lat="48.75417" lon="2.2081">
        <ele>77</ele>
        <time>2019-05-12T04:20:05.000Z</time>
      </trkpt>
      <trkpt lat="48.75417" lon="2.2081">
        <ele>77</ele>
        <time>2019-05-12T04:20:07.000Z</time>
      </trkpt>
      <trkpt lat="48.75417" lon="2.2081">
        <ele>77</ele>
        <time>2019-05-12T04:20:09.000Z</time>
      </trkpt>
      <trkpt lat="48.75417" lon="2.2081">
        <ele>77</ele>
        <time>2019-05-12T04:20:11.000Z</time>
      </trkpt>
      <trkpt lat="48.75417" lon="2.2081">
        <ele>77</ele>
        <time>2019-05-12T04:20:13.000Z</time>
      </trkpt>
      <trkpt lat="48.75422" lon="2.20798">
        <ele>77</ele>
        <time>2019-05-12T04:20:17.000Z</time>
      </trkpt>
      <trkpt lat="48.75425" lon="2.2079">
        <ele>77</ele>
        <time>2019-05-12T04:20:19.000Z</time>
      </trkpt>
      <trkpt lat="48.75427" lon="2.20784">
        <ele>77</ele>
        <time>2019-05-12T04:20:21.000Z</time>
      </trkpt>
      <trkpt lat="48.75429" lon="2.20776">
        <ele>77</ele>
        <time>2019-05-12T04:20:25.000Z</time>
      </trkpt>
      <trkpt lat="48.7543" lon="2.20769">
        <ele>77</ele>
        <time>2019-05-12T04:20:27.000Z</time>
      </trkpt>
      <trkpt lat="48.7543" lon="2.20769">
        <ele>77</ele>
        <time>2019-05-12T04:20:29.000Z</time>
      </trkpt>
      <trkpt lat="48.75432" lon="2.20761">
        <ele>76</ele>
        <time>2019-05-12T04:20:31.000Z</time>
      </trkpt>
      <trkpt lat="48.75432" lon="2.20761">
        <ele>76</ele>
        <time>2019-05-12T04:20:33.000Z</time>
      </trkpt>
      <trkpt lat="48.75432" lon="2.20761">
        <ele>76</ele>
        <time>2019-05-12T04:20:35.000Z</time>
      </trkpt>
      <trkpt lat="48.75436" lon="2.20748">
        <ele>76</ele>
        <time>2019-05-12T04:20:41.000Z</time>
      </trkpt>
      <trkpt lat="48.75439" lon="2.20738">
        <ele>76</ele>
        <time>2019-05-12T04:20:43.000Z</time>
      </trkpt>
      <trkpt lat="48.75441" lon="2.20731">
        <ele>76</ele>
        <time>2019-05-12T04:20:45.000Z</time>
      </trkpt>
      <trkpt lat="48.75443" lon="2.20725">
        <ele>76</ele>
        <time>2019-05-12T04:20:47.000Z</time>
      </trkpt>
      <trkpt lat="48.75443" lon="2.20725">
        <ele>76</ele>
        <time>2019-05-12T04:20:49.000Z</time>
      </trkpt>
      <trkpt lat="48.75443" lon="2.20725">
        <ele>76</ele>
        <time>2019-05-12T04:20:51.000Z</time>
      </trkpt>
      <trkpt lat="48.75443" lon="2.20725">
        <ele>76</ele>
        <time>2019-05-12T04:20:53.000Z</time>
      </trkpt>
      <trkpt lat="48.75443" lon="2.20725">
        <ele>76</ele>
        <time>2019-05-12T04:20:55.000Z</time>
      </trkpt>
      <trkpt lat="48.75447" lon="2.20709">
        <ele>76</ele>
        <time>2019-05-12T04:21:01.000Z</time>
      </trkpt>
      <trkpt lat="48.75449" lon="2.20698">
        <ele>77</ele>
        <time>2019-05-12T04:21:03.000Z</time>
      </trkpt>
      <trkpt lat="48.75451" lon="2.2069">
        <ele>77</ele>
        <time>2019-05-12T04:21:05.000Z</time>
      </trkpt>
      <trkpt lat="48.75451" lon="2.2069">
        <ele>77</ele>
        <time>2019-05-12T04:21:07.000Z</time>
      </trkpt>
      <trkpt lat="48.75451" lon="2.2069">
        <ele>77</ele>
        <time>2019-05-12T04:21:09.000Z</time>
      </trkpt>
      <trkpt lat="48.75451" lon="2.2069">
        <ele>77</ele>
        <time>2019-05-12T04:21:11.000Z</time>
      </trkpt>
      <trkpt lat="48.75453" lon="2.20675">
        <ele>77</ele>
        <time>2019-05-12T04:21:15.000Z</time>
      </trkpt>
      <trkpt lat="48.75454" lon="2.20666">
        <ele>77</ele>
        <time>2019-05-12T04:21:17.000Z</time>
      </trkpt>
      <trkpt lat="48.75454" lon="2.20659">
        <ele>77</ele>
        <time>2019-05-12T04:21:19.000Z</time>
      </trkpt>
      <trkpt lat="48.75454" lon="2.20659">
        <ele>77</ele>
        <time>2019-05-12T04:21:25.000Z</time>
      </trkpt>
      <trkpt lat="48.75454" lon="2.20659">
        <ele>77</ele>
        <time>2019-05-12T04:21:27.000Z</time>
      </trkpt>
      <trkpt lat="48.75455" lon="2.20644">
        <ele>77</ele>
        <time>2019-05-12T04:21:31.000Z</time>
      </trkpt>
      <trkpt lat="48.75456" lon="2.20634">
        <ele>77</ele>
        <time>2019-05-12T04:21:33.000Z</time>
      </trkpt>
      <trkpt lat="48.75456" lon="2.20634">
        <ele>77</ele>
        <time>2019-05-12T04:21:35.000Z</time>
      </trkpt>
      <trkpt lat="48.75457" lon="2.20625">
        <ele>77</ele>
        <time>2019-05-12T04:21:37.000Z</time>
      </trkpt>
      <trkpt lat="48.75457" lon="2.20625">
        <ele>77</ele>
        <time>2019-05-12T04:21:39.000Z</time>
      </trkpt>
      <trkpt lat="48.75457" lon="2.20625">
        <ele>77</ele>
        <time>2019-05-12T04:21:41.000Z</time>
      </trkpt>
      <trkpt lat="48.75457" lon="2.20625">
        <ele>77</ele>
        <time>2019-05-12T04:21:43.000Z</time>
      </trkpt>
      <trkpt lat="48.75461" lon="2.2061">
        <ele>78</ele>
        <time>2019-05-12T04:21:47.000Z</time>
      </trkpt>
      <trkpt lat="48.75461" lon="2.2061">
        <ele>78</ele>
        <time>2019-05-12T04:21:49.000Z</time>
      </trkpt>
      <trkpt lat="48.75461" lon="2.2061">
        <ele>78</ele>
        <time>2019-05-12T04:21:51.000Z</time>
      </trkpt>
      <trkpt lat="48.75461" lon="2.2061">
        <ele>78</ele>
        <time>2019-05-12T04:21:53.000Z</time>
      </trkpt>
      <trkpt lat="48.75461" lon="2.2061">
        <ele>78</ele>
        <time>2019-05-12T04:21:55.000Z</time>
      </trkpt>
      <trkpt lat="48.75461" lon="2.2061">
        <ele>78</ele>
        <time>2019-05-12T04:21:57.000Z</time>
      </trkpt>
      <trkpt lat="48.75467" lon="2.20588">
        <ele>78</ele>
        <time>2019-05-12T04:22:03.000Z</time>
      </trkpt>
      <trkpt lat="48.7547" lon="2.20575">
        <ele>78</ele>
        <time>2019-05-12T04:22:05.000Z</time>
      </trkpt>
      <trkpt lat="48.75471" lon="2.20566">
        <ele>78</ele>
        <time>2019-05-12T04:22:07.000Z</time>
      </trkpt>
      <trkpt lat="48.75473" lon="2.2056">
        <ele>78</ele>
        <time>2019-05-12T04:22:09.000Z</time>
      </trkpt>
      <trkpt lat="48.75473" lon="2.2055">
        <ele>78</ele>
        <time>2019-05-12T04:22:13.000Z</time>
      </trkpt>
      <trkpt lat="48.75474" lon="2.20542">
        <ele>78</ele>
        <time>2019-05-12T04:22:15.000Z</time>
      </trkpt>
      <trkpt lat="48.75474" lon="2.20542">
        <ele>78</ele>
        <time>2019-05-12T04:22:17.000Z</time>
      </trkpt>
      <trkpt lat="48.75474" lon="2.20534">
        <ele>78</ele>
        <time>2019-05-12T04:22:19.000Z</time>
      </trkpt>
      <trkpt lat="48.75474" lon="2.20534">
        <ele>78</ele>
        <time>2019-05-12T04:22:31.000Z</time>
      </trkpt>
      <trkpt lat="48.75474" lon="2.20534">
        <ele>78</ele>
        <time>2019-05-12T04:22:33.000Z</time>
      </trkpt>
      <trkpt lat="48.75474" lon="2.20534">
        <ele>78</ele>
        <time>2019-05-12T04:22:35.000Z</time>
      </trkpt>
      <trkpt lat="48.75474" lon="2.20534">
        <ele>78</ele>
        <time>2019-05-12T04:22:37.000Z</time>
      </trkpt>
      <trkpt lat="48.75474" lon="2.20534">
        <ele>78</ele>
        <time>2019-05-12T04:22:39.000Z</time>
      </trkpt>
      <trkpt lat="48.75474" lon="2.20534">
        <ele>78</ele>
        <time>2019-05-12T04:22:41.000Z</time>
      </trkpt>
      <trkpt lat="48.75476" lon="2.20498">
        <ele>79</ele>
        <time>2019-05-12T04:22:49.000Z</time>
      </trkpt>
      <trkpt lat="48.75477" lon="2.20477">
        <ele>79</ele>
        <time>2019-05-12T04:22:51.000Z</time>
      </trkpt>
      <trkpt lat="48.75479" lon="2.20464">
        <ele>79</ele>
        <time>2019-05-12T04:22:53.000Z</time>
      </trkpt>
      <trkpt lat="48.75481" lon="2.20457">
        <ele>79</ele>
        <time>2019-05-12T04:22:55.000Z</time>
      </trkpt>
      <trkpt lat="48.75481" lon="2.20457">
        <ele>79</ele>
        <time>2019-05-12T04:22:57.000Z</time>
      </trkpt>
      <trkpt lat="48.75481" lon="2.20457">
        <ele>79</ele>
        <time>2019-05-12T04:22:59.000Z</time>
      </trkpt>
      <trkpt lat="48.75481" lon="2.20457">
        <ele>79</ele>
        <time>2019-05-12T04:23:01.000Z</time>
      </trkpt>
      <trkpt lat="48.75483" lon="2.20446">
        <ele>79</ele>
        <time>2019-05-12T04:23:05.000Z</time>
      </trkpt>
      <trkpt lat="48.75486" lon="2.20439">
        <ele>79</ele>
        <time>2019-05-12T04:23:07.000Z</time>
      </trkpt>
      <trkpt lat="48.75486" lon="2.20439">
        <ele>79</ele>
        <time>2019-05-12T04:23:09.000Z</time>
      </trkpt>
      <trkpt lat="48.75487" lon="2.20432">
        <ele>79</ele>
        <time>2019-05-12T04:23:11.000Z</time>
      </trkpt>
      <trkpt lat="48.75487" lon="2.20432">
        <ele>79</ele>
        <time>2019-05-12T04:23:13.000Z</time>
      </trkpt>
      <trkpt lat="48.75487" lon="2.20432">
        <ele>79</ele>
        <time>2019-05-12T04:23:15.000Z</time>
      </trkpt>
      <trkpt lat="48.75487" lon="2.20432">
        <ele>79</ele>
        <time>2019-05-12T04:23:17.000Z</time>
      </trkpt>
      <trkpt lat="48.75488" lon="2.20418">
        <ele>79</ele>
        <time>2019-05-12T04:23:19.000Z</time>
      </trkpt>
      <trkpt lat="48.75488" lon="2.20408">
        <ele>80</ele>
        <time>2019-05-12T04:23:21.000Z</time>
      </trkpt>
      <trkpt lat="48.75489" lon="2.20401">
        <ele>80</ele>
        <time>2019-05-12T04:23:23.000Z</time>
      </trkpt>
      <trkpt lat="48.75489" lon="2.20392">
        <ele>81</ele>
        <time>2019-05-12T04:23:27.000Z</time>
      </trkpt>
      <trkpt lat="48.75489" lon="2.20385">
        <ele>81</ele>
        <time>2019-05-12T04:23:29.000Z</time>
      </trkpt>
      <trkpt lat="48.75489" lon="2.20385">
        <ele>81</ele>
        <time>2019-05-12T04:23:31.000Z</time>
      </trkpt>
      <trkpt lat="48.75489" lon="2.20385">
        <ele>81</ele>
        <time>2019-05-12T04:23:33.000Z</time>
      </trkpt>
      <trkpt lat="48.75489" lon="2.20385">
        <ele>81</ele>
        <time>2019-05-12T04:23:35.000Z</time>
      </trkpt>
      <trkpt lat="48.7549" lon="2.2037">
        <ele>81</ele>
        <time>2019-05-12T04:23:39.000Z</time>
      </trkpt>
      <trkpt lat="48.7549" lon="2.2036">
        <ele>81</ele>
        <time>2019-05-12T04:23:41.000Z</time>
      </trkpt>
      <trkpt lat="48.7549" lon="2.20353">
        <ele>82</ele>
        <time>2019-05-12T04:23:43.000Z</time>
      </trkpt>
      <trkpt lat="48.7549" lon="2.20353">
        <ele>82</ele>
        <time>2019-05-12T04:23:45.000Z</time>
      </trkpt>
      <trkpt lat="48.7549" lon="2.20353">
        <ele>82</ele>
        <time>2019-05-12T04:23:47.000Z</time>
      </trkpt>
      <trkpt lat="48.7549" lon="2.20353">
        <ele>82</ele>
        <time>2019-05-12T04:23:49.000Z</time>
      </trkpt>
      <trkpt lat="48.7549" lon="2.20353">
        <ele>82</ele>
        <time>2019-05-12T04:23:51.000Z</time>
      </trkpt>
      <trkpt lat="48.75491" lon="2.20336">
        <ele>82</ele>
        <time>2019-05-12T04:23:57.000Z</time>
      </trkpt>
      <trkpt lat="48.75492" lon="2.20326">
        <ele>83</ele>
        <time>2019-05-12T04:23:59.000Z</time>
      </trkpt>
      <trkpt lat="48.75492" lon="2.20315">
        <ele>83</ele>
        <time>2019-05-12T04:24:03.000Z</time>
      </trkpt>
      <trkpt lat="48.75494" lon="2.20305">
        <ele>83</ele>
        <time>2019-05-12T04:24:07.000Z</time>
      </trkpt>
      <trkpt lat="48.75494" lon="2.20305">
        <ele>83</ele>
        <time>2019-05-12T04:24:09.000Z</time>
      </trkpt>
      <trkpt lat="48.75494" lon="2.20305">
        <ele>83</ele>
        <time>2019-05-12T04:24:11.000Z</time>
      </trkpt>
      <trkpt lat="48.75494" lon="2.20305">
        <ele>83</ele>
        <time>2019-05-12T04:24:13.000Z</time>
      </trkpt>
      <trkpt lat="48.75494" lon="2.20305">
        <ele>83</ele>
        <time>2019-05-12T04:24:15.000Z</time>
      </trkpt>
      <trkpt lat="48.75496" lon="2.2029">
        <ele>83</ele>
        <time>2019-05-12T04:24:19.000Z</time>
      </trkpt>
      <trkpt lat="48.75496" lon="2.2028">
        <ele>83</ele>
        <time>2019-05-12T04:24:21.000Z</time>
      </trkpt>
      <trkpt lat="48.75497" lon="2.20271">
        <ele>83</ele>
        <time>2019-05-12T04:24:23.000Z</time>
      </trkpt>
      <trkpt lat="48.75497" lon="2.20271">
        <ele>83</ele>
        <time>2019-05-12T04:24:25.000Z</time>
      </trkpt>
      <trkpt lat="48.75498" lon="2.20263">
        <ele>83</ele>
        <time>2019-05-12T04:24:27.000Z</time>
      </trkpt>
      <trkpt lat="48.75498" lon="2.20263">
        <ele>83</ele>
        <time>2019-05-12T04:24:29.000Z</time>
      </trkpt>
      <trkpt lat="48.75498" lon="2.20263">
        <ele>83</ele>
        <time>2019-05-12T04:24:31.000Z</time>
      </trkpt>
      <trkpt lat="48.75498" lon="2.20263">
        <ele>83</ele>
        <time>2019-05-12T04:24:33.000Z</time>
      </trkpt>
      <trkpt lat="48.75499" lon="2.20247">
        <ele>83</ele>
        <time>2019-05-12T04:24:37.000Z</time>
      </trkpt>
      <trkpt lat="48.75499" lon="2.20236">
        <ele>84</ele>
        <time>2019-05-12T04:24:39.000Z</time>
      </trkpt>
      <trkpt lat="48.75498" lon="2.20227">
        <ele>84</ele>
        <time>2019-05-12T04:24:41.000Z</time>
      </trkpt>
      <trkpt lat="48.75497" lon="2.20219">
        <ele>85</ele>
        <time>2019-05-12T04:24:43.000Z</time>
      </trkpt>
      <trkpt lat="48.75497" lon="2.20219">
        <ele>85</ele>
        <time>2019-05-12T04:24:45.000Z</time>
      </trkpt>
      <trkpt lat="48.75497" lon="2.20219">
        <ele>85</ele>
        <time>2019-05-12T04:24:47.000Z</time>
      </trkpt>
      <trkpt lat="48.75504" lon="2.20211">
        <ele>83</ele>
        <time>2019-05-12T04:24:55.000Z</time>
      </trkpt>
      <trkpt lat="48.75508" lon="2.20204">
        <ele>83</ele>
        <time>2019-05-12T04:24:57.000Z</time>
      </trkpt>
      <trkpt lat="48.75512" lon="2.20199">
        <ele>83</ele>
        <time>2019-05-12T04:24:59.000Z</time>
      </trkpt>
      <trkpt lat="48.75512" lon="2.20199">
        <ele>83</ele>
        <time>2019-05-12T04:25:01.000Z</time>
      </trkpt>
      <trkpt lat="48.75512" lon="2.20199">
        <ele>83</ele>
        <time>2019-05-12T04:25:03.000Z</time>
      </trkpt>
      <trkpt lat="48.75512" lon="2.20199">
        <ele>83</ele>
        <time>2019-05-12T04:25:05.000Z</time>
      </trkpt>
      <trkpt lat="48.75512" lon="2.20199">
        <ele>83</ele>
        <time>2019-05-12T04:25:07.000Z</time>
      </trkpt>
      <trkpt lat="48.75518" lon="2.20183">
        <ele>83</ele>
        <time>2019-05-12T04:25:13.000Z</time>
      </trkpt>
      <trkpt lat="48.75521" lon="2.20173">
        <ele>83</ele>
        <time>2019-05-12T04:25:15.000Z</time>
      </trkpt>
      <trkpt lat="48.75524" lon="2.20165">
        <ele>83</ele>
        <time>2019-05-12T04:25:17.000Z</time>
      </trkpt>
      <trkpt lat="48.75524" lon="2.20165">
        <ele>83</ele>
        <time>2019-05-12T04:25:19.000Z</time>
      </trkpt>
      <trkpt lat="48.75526" lon="2.20155">
        <ele>83</ele>
        <time>2019-05-12T04:25:23.000Z</time>
      </trkpt>
      <trkpt lat="48.75526" lon="2.20155">
        <ele>83</ele>
        <time>2019-05-12T04:25:25.000Z</time>
      </trkpt>
      <trkpt lat="48.75526" lon="2.20155">
        <ele>83</ele>
        <time>2019-05-12T04:25:27.000Z</time>
      </trkpt>
      <trkpt lat="48.75526" lon="2.20155">
        <ele>83</ele>
        <time>2019-05-12T04:25:29.000Z</time>
      </trkpt>
      <trkpt lat="48.75526" lon="2.20155">
        <ele>83</ele>
        <time>2019-05-12T04:25:31.000Z</time>
      </trkpt>
      <trkpt lat="48.75526" lon="2.20155">
        <ele>83</ele>
        <time>2019-05-12T04:25:33.000Z</time>
      </trkpt>
      <trkpt lat="48.75526" lon="2.20155">
        <ele>83</ele>
        <time>2019-05-12T04:25:35.000Z</time>
      </trkpt>
      <trkpt lat="48.7553" lon="2.20132">
        <ele>83</ele>
        <time>2019-05-12T04:25:41.000Z</time>
      </trkpt>
      <trkpt lat="48.75533" lon="2.20118">
        <ele>83</ele>
        <time>2019-05-12T04:25:43.000Z</time>
      </trkpt>
      <trkpt lat="48.75534" lon="2.20109">
        <ele>83</ele>
        <time>2019-05-12T04:25:45.000Z</time>
      </trkpt>
      <trkpt lat="48.75535" lon="2.20102">
        <ele>83</ele>
        <time>2019-05-12T04:25:47.000Z</time>
      </trkpt>
      <trkpt lat="48.75536" lon="2.20095">
        <ele>83</ele>
        <time>2019-05-12T04:25:51.000Z</time>
      </trkpt>
      <trkpt lat="48.75536" lon="2.20095">
        <ele>83</ele>
        <time>2019-05-12T04:25:53.000Z</time>
      </trkpt>
      <trkpt lat="48.75536" lon="2.20095">
        <ele>83</ele>
        <time>2019-05-12T04:25:55.000Z</time>
      </trkpt>
      <trkpt lat="48.75536" lon="2.20095">
        <ele>83</ele>
        <time>2019-05-12T04:25:57.000Z</time>
      </trkpt>
      <trkpt lat="48.75536" lon="2.20095">
        <ele>83</ele>
        <time>2019-05-12T04:25:59.000Z</time>
      </trkpt>
      <trkpt lat="48.75536" lon="2.20095">
        <ele>83</ele>
        <time>2019-05-12T04:26:01.000Z</time>
      </trkpt>
      <trkpt lat="48.75536" lon="2.20095">
        <ele>83</ele>
        <time>2019-05-12T04:26:03.000Z</time>
      </trkpt>
      <trkpt lat="48.75545" lon="2.20058">
        <ele>84</ele>
        <time>2019-05-12T04:26:07.000Z</time>
      </trkpt>
      <trkpt lat="48.75547" lon="2.20039">
        <ele>84</ele>
        <time>2019-05-12T04:26:13.000Z</time>
      </trkpt>
      <trkpt lat="48.75546" lon="2.20021">
        <ele>84</ele>
        <time>2019-05-12T04:26:19.000Z</time>
      </trkpt>
      <trkpt lat="48.75546" lon="2.20021">
        <ele>84</ele>
        <time>2019-05-12T04:26:21.000Z</time>
      </trkpt>
      <trkpt lat="48.75546" lon="2.20021">
        <ele>84</ele>
        <time>2019-05-12T04:26:23.000Z</time>
      </trkpt>
      <trkpt lat="48.75546" lon="2.20021">
        <ele>84</ele>
        <time>2019-05-12T04:26:25.000Z</time>
      </trkpt>
      <trkpt lat="48.75546" lon="2.20021">
        <ele>84</ele>
        <time>2019-05-12T04:26:27.000Z</time>
      </trkpt>
      <trkpt lat="48.75546" lon="2.20021">
        <ele>84</ele>
        <time>2019-05-12T04:26:29.000Z</time>
      </trkpt>
      <trkpt lat="48.75546" lon="2.20021">
        <ele>84</ele>
        <time>2019-05-12T04:26:31.000Z</time>
      </trkpt>
      <trkpt lat="48.75548" lon="2.19995">
        <ele>86</ele>
        <time>2019-05-12T04:26:33.000Z</time>
      </trkpt>
      <trkpt lat="48.75548" lon="2.19995">
        <ele>86</ele>
        <time>2019-05-12T04:26:43.000Z</time>
      </trkpt>
      <trkpt lat="48.75555" lon="2.19975">
        <ele>86</ele>
        <time>2019-05-12T04:26:47.000Z</time>
      </trkpt>
      <trkpt lat="48.7556" lon="2.1996">
        <ele>86</ele>
        <time>2019-05-12T04:26:53.000Z</time>
      </trkpt>
      <trkpt lat="48.7556" lon="2.1996">
        <ele>86</ele>
        <time>2019-05-12T04:26:55.000Z</time>
      </trkpt>
      <trkpt lat="48.7556" lon="2.1996">
        <ele>86</ele>
        <time>2019-05-12T04:26:57.000Z</time>
      </trkpt>
      <trkpt lat="48.7556" lon="2.1996">
        <ele>86</ele>
        <time>2019-05-12T04:26:59.000Z</time>
      </trkpt>
      <trkpt lat="48.7556" lon="2.1996">
        <ele>86</ele>
        <time>2019-05-12T04:27:01.000Z</time>
      </trkpt>
      <trkpt lat="48.75563" lon="2.19949">
        <ele>86</ele>
        <time>2019-05-12T04:27:05.000Z</time>
      </trkpt>
      <trkpt lat="48.75566" lon="2.19942">
        <ele>86</ele>
        <time>2019-05-12T04:27:07.000Z</time>
      </trkpt>
      <trkpt lat="48.75566" lon="2.19942">
        <ele>86</ele>
        <time>2019-05-12T04:27:09.000Z</time>
      </trkpt>
      <trkpt lat="48.75566" lon="2.19942">
        <ele>86</ele>
        <time>2019-05-12T04:27:11.000Z</time>
      </trkpt>
      <trkpt lat="48.75566" lon="2.19942">
        <ele>86</ele>
        <time>2019-05-12T04:27:13.000Z</time>
      </trkpt>
      <trkpt lat="48.75571" lon="2.19933">
        <ele>86</ele>
        <time>2019-05-12T04:27:17.000Z</time>
      </trkpt>
      <trkpt lat="48.75575" lon="2.19926">
        <ele>85</ele>
        <time>2019-05-12T04:27:19.000Z</time>
      </trkpt>
      <trkpt lat="48.75578" lon="2.19918">
        <ele>85</ele>
        <time>2019-05-12T04:27:23.000Z</time>
      </trkpt>
      <trkpt lat="48.75579" lon="2.19911">
        <ele>85</ele>
        <time>2019-05-12T04:27:25.000Z</time>
      </trkpt>
      <trkpt lat="48.75582" lon="2.19903">
        <ele>86</ele>
        <time>2019-05-12T04:27:29.000Z</time>
      </trkpt>
      <trkpt lat="48.75582" lon="2.19903">
        <ele>86</ele>
        <time>2019-05-12T04:27:31.000Z</time>
      </trkpt>
      <trkpt lat="48.75582" lon="2.19903">
        <ele>86</ele>
        <time>2019-05-12T04:27:33.000Z</time>
      </trkpt>
      <trkpt lat="48.75586" lon="2.19891">
        <ele>84</ele>
        <time>2019-05-12T04:27:39.000Z</time>
      </trkpt>
      <trkpt lat="48.75589" lon="2.19883">
        <ele>83</ele>
        <time>2019-05-12T04:27:41.000Z</time>
      </trkpt>
      <trkpt lat="48.75592" lon="2.19876">
        <ele>83</ele>
        <time>2019-05-12T04:27:43.000Z</time>
      </trkpt>
      <trkpt lat="48.75592" lon="2.19876">
        <ele>83</ele>
        <time>2019-05-12T04:27:45.000Z</time>
      </trkpt>
      <trkpt lat="48.75592" lon="2.19876">
        <ele>83</ele>
        <time>2019-05-12T04:27:47.000Z</time>
      </trkpt>
      <trkpt lat="48.75592" lon="2.19876">
        <ele>83</ele>
        <time>2019-05-12T04:27:49.000Z</time>
      </trkpt>
      <trkpt lat="48.75592" lon="2.19876">
        <ele>83</ele>
        <time>2019-05-12T04:27:51.000Z</time>
      </trkpt>
      <trkpt lat="48.75597" lon="2.19862">
        <ele>83</ele>
        <time>2019-05-12T04:27:55.000Z</time>
      </trkpt>
      <trkpt lat="48.75601" lon="2.19853">
        <ele>83</ele>
        <time>2019-05-12T04:27:57.000Z</time>
      </trkpt>
      <trkpt lat="48.75603" lon="2.19846">
        <ele>83</ele>
        <time>2019-05-12T04:27:59.000Z</time>
      </trkpt>
      <trkpt lat="48.75603" lon="2.19846">
        <ele>83</ele>
        <time>2019-05-12T04:28:01.000Z</time>
      </trkpt>
      <trkpt lat="48.75603" lon="2.19846">
        <ele>83</ele>
        <time>2019-05-12T04:28:03.000Z</time>
      </trkpt>
      <trkpt lat="48.75603" lon="2.19846">
        <ele>83</ele>
        <time>2019-05-12T04:28:07.000Z</time>
      </trkpt>
      <trkpt lat="48.75609" lon="2.19831">
        <ele>83</ele>
        <time>2019-05-12T04:28:13.000Z</time>
      </trkpt>
      <trkpt lat="48.75612" lon="2.19822">
        <ele>83</ele>
        <time>2019-05-12T04:28:15.000Z</time>
      </trkpt>
      <trkpt lat="48.75612" lon="2.19822">
        <ele>83</ele>
        <time>2019-05-12T04:28:17.000Z</time>
      </trkpt>
      <trkpt lat="48.75612" lon="2.19822">
        <ele>83</ele>
        <time>2019-05-12T04:28:19.000Z</time>
      </trkpt>
      <trkpt lat="48.75617" lon="2.19808">
        <ele>83</ele>
        <time>2019-05-12T04:28:25.000Z</time>
      </trkpt>
      <trkpt lat="48.75621" lon="2.19798">
        <ele>83</ele>
        <time>2019-05-12T04:28:27.000Z</time>
      </trkpt>
      <trkpt lat="48.75624" lon="2.19792">
        <ele>83</ele>
        <time>2019-05-12T04:28:29.000Z</time>
      </trkpt>
      <trkpt lat="48.75624" lon="2.19792">
        <ele>83</ele>
        <time>2019-05-12T04:28:31.000Z</time>
      </trkpt>
      <trkpt lat="48.75624" lon="2.19792">
        <ele>83</ele>
        <time>2019-05-12T04:28:33.000Z</time>
      </trkpt>
      <trkpt lat="48.75624" lon="2.19792">
        <ele>83</ele>
        <time>2019-05-12T04:28:35.000Z</time>
      </trkpt>
      <trkpt lat="48.7563" lon="2.19781">
        <ele>83</ele>
        <time>2019-05-12T04:28:39.000Z</time>
      </trkpt>
      <trkpt lat="48.75634" lon="2.19772">
        <ele>82</ele>
        <time>2019-05-12T04:28:41.000Z</time>
      </trkpt>
      <trkpt lat="48.75637" lon="2.19766">
        <ele>82</ele>
        <time>2019-05-12T04:28:43.000Z</time>
      </trkpt>
      <trkpt lat="48.75637" lon="2.19766">
        <ele>82</ele>
        <time>2019-05-12T04:28:45.000Z</time>
      </trkpt>
      <trkpt lat="48.75637" lon="2.19766">
        <ele>82</ele>
        <time>2019-05-12T04:28:47.000Z</time>
      </trkpt>
      <trkpt lat="48.75637" lon="2.19766">
        <ele>82</ele>
        <time>2019-05-12T04:28:49.000Z</time>
      </trkpt>
      <trkpt lat="48.75642" lon="2.19756">
        <ele>82</ele>
        <time>2019-05-12T04:28:53.000Z</time>
      </trkpt>
      <trkpt lat="48.75646" lon="2.19749">
        <ele>83</ele>
        <time>2019-05-12T04:28:55.000Z</time>
      </trkpt>
      <trkpt lat="48.75648" lon="2.19743">
        <ele>82</ele>
        <time>2019-05-12T04:28:57.000Z</time>
      </trkpt>
      <trkpt lat="48.75652" lon="2.19735">
        <ele>83</ele>
        <time>2019-05-12T04:29:01.000Z</time>
      </trkpt>
      <trkpt lat="48.75652" lon="2.19735">
        <ele>83</ele>
        <time>2019-05-12T04:29:03.000Z</time>
      </trkpt>
      <trkpt lat="48.75657" lon="2.19726">
        <ele>83</ele>
        <time>2019-05-12T04:29:09.000Z</time>
      </trkpt>
      <trkpt lat="48.75661" lon="2.19719">
        <ele>83</ele>
        <time>2019-05-12T04:29:11.000Z</time>
      </trkpt>
      <trkpt lat="48.75664" lon="2.19714">
        <ele>83</ele>
        <time>2019-05-12T04:29:13.000Z</time>
      </trkpt>
      <trkpt lat="48.75664" lon="2.19714">
        <ele>83</ele>
        <time>2019-05-12T04:29:15.000Z</time>
      </trkpt>
      <trkpt lat="48.75668" lon="2.19709">
        <ele>80</ele>
        <time>2019-05-12T04:29:17.000Z</time>
      </trkpt>
      <trkpt lat="48.75668" lon="2.19709">
        <ele>80</ele>
        <time>2019-05-12T04:29:19.000Z</time>
      </trkpt>
      <trkpt lat="48.75673" lon="2.19702">
        <ele>80</ele>
        <time>2019-05-12T04:29:23.000Z</time>
      </trkpt>
      <trkpt lat="48.75677" lon="2.19696">
        <ele>81</ele>
        <time>2019-05-12T04:29:25.000Z</time>
      </trkpt>
      <trkpt lat="48.75682" lon="2.1969">
        <ele>81</ele>
        <time>2019-05-12T04:29:29.000Z</time>
      </trkpt>
      <trkpt lat="48.75682" lon="2.1969">
        <ele>81</ele>
        <time>2019-05-12T04:29:31.000Z</time>
      </trkpt>
      <trkpt lat="48.75682" lon="2.1969">
        <ele>81</ele>
        <time>2019-05-12T04:29:33.000Z</time>
      </trkpt>
      <trkpt lat="48.75686" lon="2.1968">
        <ele>81</ele>
        <time>2019-05-12T04:29:37.000Z</time>
      </trkpt>
      <trkpt lat="48.7569" lon="2.19673">
        <ele>81</ele>
        <time>2019-05-12T04:29:39.000Z</time>
      </trkpt>
      <trkpt lat="48.75692" lon="2.19668">
        <ele>81</ele>
        <time>2019-05-12T04:29:41.000Z</time>
      </trkpt>
      <trkpt lat="48.75696" lon="2.19661">
        <ele>81</ele>
        <time>2019-05-12T04:29:45.000Z</time>
      </trkpt>
      <trkpt lat="48.75699" lon="2.19656">
        <ele>81</ele>
        <time>2019-05-12T04:29:47.000Z</time>
      </trkpt>
      <trkpt lat="48.75699" lon="2.19656">
        <ele>81</ele>
        <time>2019-05-12T04:29:49.000Z</time>
      </trkpt>
      <trkpt lat="48.75699" lon="2.19656">
        <ele>81</ele>
        <time>2019-05-12T04:29:51.000Z</time>
      </trkpt>
      <trkpt lat="48.75699" lon="2.19656">
        <ele>81</ele>
        <time>2019-05-12T04:29:53.000Z</time>
      </trkpt>
      <trkpt lat="48.75705" lon="2.19646">
        <ele>81</ele>
        <time>2019-05-12T04:29:59.000Z</time>
      </trkpt>
      <trkpt lat="48.75709" lon="2.19639">
        <ele>81</ele>
        <time>2019-05-12T04:30:01.000Z</time>
      </trkpt>
      <trkpt lat="48.75712" lon="2.19634">
        <ele>81</ele>
        <time>2019-05-12T04:30:03.000Z</time>
      </trkpt>
      <trkpt lat="48.75716" lon="2.19628">
        <ele>81</ele>
        <time>2019-05-12T04:30:07.000Z</time>
      </trkpt>
      <trkpt lat="48.75716" lon="2.19628">
        <ele>81</ele>
        <time>2019-05-12T04:30:09.000Z</time>
      </trkpt>
      <trkpt lat="48.75716" lon="2.19628">
        <ele>81</ele>
        <time>2019-05-12T04:30:11.000Z</time>
      </trkpt>
      <trkpt lat="48.75721" lon="2.19618">
        <ele>81</ele>
        <time>2019-05-12T04:30:15.000Z</time>
      </trkpt>
      <trkpt lat="48.75724" lon="2.19612">
        <ele>81</ele>
        <time>2019-05-12T04:30:17.000Z</time>
      </trkpt>
      <trkpt lat="48.75729" lon="2.19605">
        <ele>81</ele>
        <time>2019-05-12T04:30:21.000Z</time>
      </trkpt>
      <trkpt lat="48.75731" lon="2.19599">
        <ele>81</ele>
        <time>2019-05-12T04:30:23.000Z</time>
      </trkpt>
      <trkpt lat="48.75731" lon="2.19599">
        <ele>81</ele>
        <time>2019-05-12T04:30:25.000Z</time>
      </trkpt>
      <trkpt lat="48.75731" lon="2.19599">
        <ele>81</ele>
        <time>2019-05-12T04:30:27.000Z</time>
      </trkpt>
      <trkpt lat="48.75731" lon="2.19599">
        <ele>81</ele>
        <time>2019-05-12T04:30:29.000Z</time>
      </trkpt>
      <trkpt lat="48.75731" lon="2.19599">
        <ele>81</ele>
        <time>2019-05-12T04:30:31.000Z</time>
      </trkpt>
      <trkpt lat="48.75739" lon="2.19588">
        <ele>81</ele>
        <time>2019-05-12T04:30:37.000Z</time>
      </trkpt>
      <trkpt lat="48.75744" lon="2.19581">
        <ele>81</ele>
        <time>2019-05-12T04:30:39.000Z</time>
      </trkpt>
      <trkpt lat="48.75748" lon="2.19575">
        <ele>81</ele>
        <time>2019-05-12T04:30:41.000Z</time>
      </trkpt>
      <trkpt lat="48.75748" lon="2.19575">
        <ele>81</ele>
        <time>2019-05-12T04:30:43.000Z</time>
      </trkpt>
      <trkpt lat="48.75748" lon="2.19575">
        <ele>81</ele>
        <time>2019-05-12T04:30:45.000Z</time>
      </trkpt>
      <trkpt lat="48.75748" lon="2.19575">
        <ele>81</ele>
        <time>2019-05-12T04:30:47.000Z</time>
      </trkpt>
      <trkpt lat="48.75755" lon="2.19562">
        <ele>81</ele>
        <time>2019-05-12T04:30:53.000Z</time>
      </trkpt>
      <trkpt lat="48.7576" lon="2.19554">
        <ele>81</ele>
        <time>2019-05-12T04:30:55.000Z</time>
      </trkpt>
      <trkpt lat="48.75763" lon="2.19547">
        <ele>81</ele>
        <time>2019-05-12T04:30:57.000Z</time>
      </trkpt>
      <trkpt lat="48.75768" lon="2.19542">
        <ele>81</ele>
        <time>2019-05-12T04:31:01.000Z</time>
      </trkpt>
      <trkpt lat="48.75768" lon="2.19542">
        <ele>81</ele>
        <time>2019-05-12T04:31:03.000Z</time>
      </trkpt>
      <trkpt lat="48.75768" lon="2.19542">
        <ele>81</ele>
        <time>2019-05-12T04:31:05.000Z</time>
      </trkpt>
      <trkpt lat="48.75768" lon="2.19542">
        <ele>81</ele>
        <time>2019-05-12T04:31:09.000Z</time>
      </trkpt>
      <trkpt lat="48.75768" lon="2.19542">
        <ele>81</ele>
        <time>2019-05-12T04:31:11.000Z</time>
      </trkpt>
      <trkpt lat="48.75768" lon="2.19542">
        <ele>81</ele>
        <time>2019-05-12T04:31:13.000Z</time>
      </trkpt>
      <trkpt lat="48.75776" lon="2.19525">
        <ele>81</ele>
        <time>2019-05-12T04:31:17.000Z</time>
      </trkpt>
      <trkpt lat="48.75781" lon="2.19515">
        <ele>81</ele>
        <time>2019-05-12T04:31:19.000Z</time>
      </trkpt>
      <trkpt lat="48.75781" lon="2.19515">
        <ele>81</ele>
        <time>2019-05-12T04:31:21.000Z</time>
      </trkpt>
      <trkpt lat="48.75781" lon="2.19515">
        <ele>81</ele>
        <time>2019-05-12T04:31:23.000Z</time>
      </trkpt>
      <trkpt lat="48.75788" lon="2.19502">
        <ele>81</ele>
        <time>2019-05-12T04:31:29.000Z</time>
      </trkpt>
      <trkpt lat="48.75793" lon="2.19494">
        <ele>82</ele>
        <time>2019-05-12T04:31:31.000Z</time>
      </trkpt>
      <trkpt lat="48.75797" lon="2.19488">
        <ele>82</ele>
        <time>2019-05-12T04:31:33.000Z</time>
      </trkpt>
      <trkpt lat="48.75797" lon="2.19488">
        <ele>82</ele>
        <time>2019-05-12T04:31:35.000Z</time>
      </trkpt>
      <trkpt lat="48.75797" lon="2.19488">
        <ele>82</ele>
        <time>2019-05-12T04:31:37.000Z</time>
      </trkpt>
      <trkpt lat="48.75797" lon="2.19488">
        <ele>82</ele>
        <time>2019-05-12T04:31:39.000Z</time>
      </trkpt>
      <trkpt lat="48.75802" lon="2.19478">
        <ele>82</ele>
        <time>2019-05-12T04:31:43.000Z</time>
      </trkpt>
      <trkpt lat="48.75806" lon="2.19471">
        <ele>82</ele>
        <time>2019-05-12T04:31:45.000Z</time>
      </trkpt>
      <trkpt lat="48.75809" lon="2.19466">
        <ele>82</ele>
        <time>2019-05-12T04:31:47.000Z</time>
      </trkpt>
      <trkpt lat="48.75809" lon="2.19466">
        <ele>82</ele>
        <time>2019-05-12T04:31:51.000Z</time>
      </trkpt>
      <trkpt lat="48.75809" lon="2.19466">
        <ele>82</ele>
        <time>2019-05-12T04:31:53.000Z</time>
      </trkpt>
      <trkpt lat="48.75809" lon="2.19466">
        <ele>82</ele>
        <time>2019-05-12T04:31:55.000Z</time>
      </trkpt>
      <trkpt lat="48.75817" lon="2.19453">
        <ele>82</ele>
        <time>2019-05-12T04:32:01.000Z</time>
      </trkpt>
      <trkpt lat="48.75821" lon="2.19445">
        <ele>82</ele>
        <time>2019-05-12T04:32:03.000Z</time>
      </trkpt>
      <trkpt lat="48.75824" lon="2.19439">
        <ele>82</ele>
        <time>2019-05-12T04:32:05.000Z</time>
      </trkpt>
      <trkpt lat="48.75824" lon="2.19439">
        <ele>82</ele>
        <time>2019-05-12T04:32:07.000Z</time>
      </trkpt>
      <trkpt lat="48.75824" lon="2.19439">
        <ele>82</ele>
        <time>2019-05-12T04:32:09.000Z</time>
      </trkpt>
      <trkpt lat="48.75824" lon="2.19439">
        <ele>82</ele>
        <time>2019-05-12T04:32:11.000Z</time>
      </trkpt>
      <trkpt lat="48.75824" lon="2.19439">
        <ele>82</ele>
        <time>2019-05-12T04:32:13.000Z</time>
      </trkpt>
      <trkpt lat="48.75832" lon="2.19428">
        <ele>81</ele>
        <time>2019-05-12T04:32:17.000Z</time>
      </trkpt>
      <trkpt lat="48.75837" lon="2.19421">
        <ele>81</ele>
        <time>2019-05-12T04:32:19.000Z</time>
      </trkpt>
      <trkpt lat="48.7584" lon="2.19416">
        <ele>81</ele>
        <time>2019-05-12T04:32:21.000Z</time>
      </trkpt>
      <trkpt lat="48.7584" lon="2.19416">
        <ele>81</ele>
        <time>2019-05-12T04:32:23.000Z</time>
      </trkpt>
      <trkpt lat="48.7584" lon="2.19416">
        <ele>81</ele>
        <time>2019-05-12T04:32:25.000Z</time>
      </trkpt>
      <trkpt lat="48.75844" lon="2.19404">
        <ele>81</ele>
        <time>2019-05-12T04:32:31.000Z</time>
      </trkpt>
      <trkpt lat="48.75846" lon="2.19396">
        <ele>81</ele>
        <time>2019-05-12T04:32:33.000Z</time>
      </trkpt>
      <trkpt lat="48.75849" lon="2.1939">
        <ele>81</ele>
        <time>2019-05-12T04:32:35.000Z</time>
      </trkpt>
      <trkpt lat="48.75853" lon="2.19384">
        <ele>81</ele>
        <time>2019-05-12T04:32:39.000Z</time>
      </trkpt>
      <trkpt lat="48.75853" lon="2.19384">
        <ele>81</ele>
        <time>2019-05-12T04:32:41.000Z</time>
      </trkpt>
      <trkpt lat="48.75858" lon="2.19378">
        <ele>81</ele>
        <time>2019-05-12T04:32:43.000Z</time>
      </trkpt>
      <trkpt lat="48.75861" lon="2.19373">
        <ele>81</ele>
        <time>2019-05-12T04:32:45.000Z</time>
      </trkpt>
      <trkpt lat="48.75865" lon="2.19366">
        <ele>81</ele>
        <time>2019-05-12T04:32:49.000Z</time>
      </trkpt>
      <trkpt lat="48.75869" lon="2.19361">
        <ele>81</ele>
        <time>2019-05-12T04:32:51.000Z</time>
      </trkpt>
      <trkpt lat="48.75869" lon="2.19361">
        <ele>81</ele>
        <time>2019-05-12T04:32:53.000Z</time>
      </trkpt>
      <trkpt lat="48.75873" lon="2.19351">
        <ele>81</ele>
        <time>2019-05-12T04:32:57.000Z</time>
      </trkpt>
      <trkpt lat="48.75876" lon="2.19344">
        <ele>81</ele>
        <time>2019-05-12T04:32:59.000Z</time>
      </trkpt>
      <trkpt lat="48.75879" lon="2.19339">
        <ele>81</ele>
        <time>2019-05-12T04:33:01.000Z</time>
      </trkpt>
      <trkpt lat="48.75879" lon="2.19339">
        <ele>81</ele>
        <time>2019-05-12T04:33:05.000Z</time>
      </trkpt>
      <trkpt lat="48.75879" lon="2.19339">
        <ele>81</ele>
        <time>2019-05-12T04:33:07.000Z</time>
      </trkpt>
      <trkpt lat="48.75879" lon="2.19339">
        <ele>81</ele>
        <time>2019-05-12T04:33:09.000Z</time>
      </trkpt>
      <trkpt lat="48.75879" lon="2.19339">
        <ele>81</ele>
        <time>2019-05-12T04:33:11.000Z</time>
      </trkpt>
      <trkpt lat="48.75887" lon="2.19321">
        <ele>82</ele>
        <time>2019-05-12T04:33:19.000Z</time>
      </trkpt>
      <trkpt lat="48.75892" lon="2.19309">
        <ele>82</ele>
        <time>2019-05-12T04:33:21.000Z</time>
      </trkpt>
      <trkpt lat="48.75896" lon="2.19301">
        <ele>83</ele>
        <time>2019-05-12T04:33:23.000Z</time>
      </trkpt>
      <trkpt lat="48.75896" lon="2.19301">
        <ele>83</ele>
        <time>2019-05-12T04:33:25.000Z</time>
      </trkpt>
      <trkpt lat="48.75896" lon="2.19301">
        <ele>83</ele>
        <time>2019-05-12T04:33:27.000Z</time>
      </trkpt>
      <trkpt lat="48.75896" lon="2.19301">
        <ele>83</ele>
        <time>2019-05-12T04:33:29.000Z</time>
      </trkpt>
      <trkpt lat="48.75903" lon="2.19289">
        <ele>83</ele>
        <time>2019-05-12T04:33:35.000Z</time>
      </trkpt>
      <trkpt lat="48.75907" lon="2.19282">
        <ele>83</ele>
        <time>2019-05-12T04:33:37.000Z</time>
      </trkpt>
      <trkpt lat="48.7591" lon="2.19276">
        <ele>83</ele>
        <time>2019-05-12T04:33:39.000Z</time>
      </trkpt>
      <trkpt lat="48.7591" lon="2.19276">
        <ele>83</ele>
        <time>2019-05-12T04:33:41.000Z</time>
      </trkpt>
      <trkpt lat="48.7591" lon="2.19276">
        <ele>83</ele>
        <time>2019-05-12T04:33:43.000Z</time>
      </trkpt>
      <trkpt lat="48.7591" lon="2.19276">
        <ele>83</ele>
        <time>2019-05-12T04:33:45.000Z</time>
      </trkpt>
      <trkpt lat="48.7591" lon="2.19276">
        <ele>83</ele>
        <time>2019-05-12T04:33:49.000Z</time>
      </trkpt>
      <trkpt lat="48.7591" lon="2.19276">
        <ele>83</ele>
        <time>2019-05-12T04:33:51.000Z</time>
      </trkpt>
      <trkpt lat="48.7591" lon="2.19276">
        <ele>83</ele>
        <time>2019-05-12T04:33:53.000Z</time>
      </trkpt>
      <trkpt lat="48.7591" lon="2.19276">
        <ele>83</ele>
        <time>2019-05-12T04:33:55.000Z</time>
      </trkpt>
      <trkpt lat="48.7591" lon="2.19276">
        <ele>83</ele>
        <time>2019-05-12T04:33:57.000Z</time>
      </trkpt>
      <trkpt lat="48.7592" lon="2.1926">
        <ele>82</ele>
        <time>2019-05-12T04:33:59.000Z</time>
      </trkpt>
      <trkpt lat="48.75926" lon="2.19249">
        <ele>82</ele>
        <time>2019-05-12T04:34:01.000Z</time>
      </trkpt>
      <trkpt lat="48.75929" lon="2.19242">
        <ele>82</ele>
        <time>2019-05-12T04:34:03.000Z</time>
      </trkpt>
      <trkpt lat="48.75932" lon="2.19236">
        <ele>82</ele>
        <time>2019-05-12T04:34:05.000Z</time>
      </trkpt>
      <trkpt lat="48.75932" lon="2.19236">
        <ele>82</ele>
        <time>2019-05-12T04:34:09.000Z</time>
      </trkpt>
      <trkpt lat="48.75932" lon="2.19236">
        <ele>82</ele>
        <time>2019-05-12T04:34:11.000Z</time>
      </trkpt>
      <trkpt lat="48.75932" lon="2.19236">
        <ele>82</ele>
        <time>2019-05-12T04:34:13.000Z</time>
      </trkpt>
      <trkpt lat="48.75932" lon="2.19236">
        <ele>82</ele>
        <time>2019-05-12T04:34:15.000Z</time>
      </trkpt>
      <trkpt lat="48.75935" lon="2.19223">
        <ele>82</ele>
        <time>2019-05-12T04:34:17.000Z</time>
      </trkpt>
      <trkpt lat="48.75935" lon="2.19214">
        <ele>82</ele>
        <time>2019-05-12T04:34:19.000Z</time>
      </trkpt>
      <trkpt lat="48.75935" lon="2.19214">
        <ele>82</ele>
        <time>2019-05-12T04:34:21.000Z</time>
      </trkpt>
      <trkpt lat="48.75935" lon="2.19214">
        <ele>82</ele>
        <time>2019-05-12T04:34:23.000Z</time>
      </trkpt>
      <trkpt lat="48.75935" lon="2.19214">
        <ele>82</ele>
        <time>2019-05-12T04:34:25.000Z</time>
      </trkpt>
      <trkpt lat="48.75935" lon="2.19214">
        <ele>82</ele>
        <time>2019-05-12T04:34:27.000Z</time>
      </trkpt>
      <trkpt lat="48.75927" lon="2.19203">
        <ele>82</ele>
        <time>2019-05-12T04:34:33.000Z</time>
      </trkpt>
      <trkpt lat="48.75922" lon="2.19196">
        <ele>82</ele>
        <time>2019-05-12T04:34:35.000Z</time>
      </trkpt>
      <trkpt lat="48.75919" lon="2.19192">
        <ele>82</ele>
        <time>2019-05-12T04:34:37.000Z</time>
      </trkpt>
      <trkpt lat="48.75919" lon="2.19192">
        <ele>82</ele>
        <time>2019-05-12T04:34:39.000Z</time>
      </trkpt>
      <trkpt lat="48.75919" lon="2.19192">
        <ele>82</ele>
        <time>2019-05-12T04:34:41.000Z</time>
      </trkpt>
      <trkpt lat="48.75919" lon="2.19192">
        <ele>82</ele>
        <time>2019-05-12T04:34:43.000Z</time>
      </trkpt>
      <trkpt lat="48.7591" lon="2.1919">
        <ele>84</ele>
        <time>2019-05-12T04:34:47.000Z</time>
      </trkpt>
      <trkpt lat="48.75904" lon="2.1919">
        <ele>84</ele>
        <time>2019-05-12T04:34:49.000Z</time>
      </trkpt>
      <trkpt lat="48.75904" lon="2.1919">
        <ele>84</ele>
        <time>2019-05-12T04:34:53.000Z</time>
      </trkpt>
      <trkpt lat="48.75904" lon="2.1919">
        <ele>84</ele>
        <time>2019-05-12T04:34:55.000Z</time>
      </trkpt>
      <trkpt lat="48.75904" lon="2.1919">
        <ele>84</ele>
        <time>2019-05-12T04:34:57.000Z</time>
      </trkpt>
      <trkpt lat="48.75893" lon="2.19193">
        <ele>84</ele>
        <time>2019-05-12T04:35:01.000Z</time>
      </trkpt>
      <trkpt lat="48.75886" lon="2.19196">
        <ele>85</ele>
        <time>2019-05-12T04:35:03.000Z</time>
      </trkpt>
      <trkpt lat="48.75882" lon="2.19197">
        <ele>85</ele>
        <time>2019-05-12T04:35:05.000Z</time>
      </trkpt>
      <trkpt lat="48.75882" lon="2.19197">
        <ele>85</ele>
        <time>2019-05-12T04:35:07.000Z</time>
      </trkpt>
      <trkpt lat="48.75875" lon="2.192">
        <ele>85</ele>
        <time>2019-05-12T04:35:11.000Z</time>
      </trkpt>
      <trkpt lat="48.75871" lon="2.19202">
        <ele>85</ele>
        <time>2019-05-12T04:35:13.000Z</time>
      </trkpt>
      <trkpt lat="48.75871" lon="2.19202">
        <ele>85</ele>
        <time>2019-05-12T04:35:15.000Z</time>
      </trkpt>
      <trkpt lat="48.75866" lon="2.19203">
        <ele>85</ele>
        <time>2019-05-12T04:35:17.000Z</time>
      </trkpt>
      <trkpt lat="48.75866" lon="2.19203">
        <ele>85</ele>
        <time>2019-05-12T04:35:19.000Z</time>
      </trkpt>
      <trkpt lat="48.75866" lon="2.19203">
        <ele>85</ele>
        <time>2019-05-12T04:35:21.000Z</time>
      </trkpt>
      <trkpt lat="48.75858" lon="2.19204">
        <ele>85</ele>
        <time>2019-05-12T04:35:25.000Z</time>
      </trkpt>
      <trkpt lat="48.75852" lon="2.19205">
        <ele>85</ele>
        <time>2019-05-12T04:35:27.000Z</time>
      </trkpt>
      <trkpt lat="48.75852" lon="2.19205">
        <ele>85</ele>
        <time>2019-05-12T04:35:29.000Z</time>
      </trkpt>
      <trkpt lat="48.75852" lon="2.19205">
        <ele>85</ele>
        <time>2019-05-12T04:35:31.000Z</time>
      </trkpt>
      <trkpt lat="48.75852" lon="2.19205">
        <ele>85</ele>
        <time>2019-05-12T04:35:33.000Z</time>
      </trkpt>
      <trkpt lat="48.75852" lon="2.19205">
        <ele>85</ele>
        <time>2019-05-12T04:35:35.000Z</time>
      </trkpt>
      <trkpt lat="48.75841" lon="2.19205">
        <ele>86</ele>
        <time>2019-05-12T04:35:39.000Z</time>
      </trkpt>
      <trkpt lat="48.75834" lon="2.19204">
        <ele>86</ele>
        <time>2019-05-12T04:35:41.000Z</time>
      </trkpt>
      <trkpt lat="48.75829" lon="2.19203">
        <ele>88</ele>
        <time>2019-05-12T04:35:43.000Z</time>
      </trkpt>
      <trkpt lat="48.75829" lon="2.19203">
        <ele>88</ele>
        <time>2019-05-12T04:35:45.000Z</time>
      </trkpt>
      <trkpt lat="48.75829" lon="2.19203">
        <ele>88</ele>
        <time>2019-05-12T04:35:47.000Z</time>
      </trkpt>
      <trkpt lat="48.75829" lon="2.19203">
        <ele>88</ele>
        <time>2019-05-12T04:35:49.000Z</time>
      </trkpt>
      <trkpt lat="48.7582" lon="2.192">
        <ele>89</ele>
        <time>2019-05-12T04:35:53.000Z</time>
      </trkpt>
      <trkpt lat="48.75814" lon="2.19196">
        <ele>89</ele>
        <time>2019-05-12T04:35:55.000Z</time>
      </trkpt>
      <trkpt lat="48.75809" lon="2.19193">
        <ele>89</ele>
        <time>2019-05-12T04:35:57.000Z</time>
      </trkpt>
      <trkpt lat="48.75809" lon="2.19193">
        <ele>89</ele>
        <time>2019-05-12T04:35:59.000Z</time>
      </trkpt>
      <trkpt lat="48.75809" lon="2.19193">
        <ele>89</ele>
        <time>2019-05-12T04:36:01.000Z</time>
      </trkpt>
      <trkpt lat="48.75809" lon="2.19193">
        <ele>89</ele>
        <time>2019-05-12T04:36:03.000Z</time>
      </trkpt>
      <trkpt lat="48.75801" lon="2.19183">
        <ele>89</ele>
        <time>2019-05-12T04:36:09.000Z</time>
      </trkpt>
      <trkpt lat="48.75797" lon="2.19178">
        <ele>89</ele>
        <time>2019-05-12T04:36:11.000Z</time>
      </trkpt>
      <trkpt lat="48.75797" lon="2.19178">
        <ele>89</ele>
        <time>2019-05-12T04:36:13.000Z</time>
      </trkpt>
      <trkpt lat="48.75797" lon="2.19178">
        <ele>89</ele>
        <time>2019-05-12T04:36:15.000Z</time>
      </trkpt>
      <trkpt lat="48.75797" lon="2.19178">
        <ele>89</ele>
        <time>2019-05-12T04:36:21.000Z</time>
      </trkpt>
      <trkpt lat="48.75797" lon="2.19178">
        <ele>89</ele>
        <time>2019-05-12T04:36:23.000Z</time>
      </trkpt>
      <trkpt lat="48.75797" lon="2.19178">
        <ele>89</ele>
        <time>2019-05-12T04:36:29.000Z</time>
      </trkpt>
      <trkpt lat="48.75787" lon="2.19155">
        <ele>92</ele>
        <time>2019-05-12T04:36:33.000Z</time>
      </trkpt>
      <trkpt lat="48.75782" lon="2.19142">
        <ele>92</ele>
        <time>2019-05-12T04:36:35.000Z</time>
      </trkpt>
      <trkpt lat="48.7578" lon="2.19133">
        <ele>92</ele>
        <time>2019-05-12T04:36:37.000Z</time>
      </trkpt>
      <trkpt lat="48.75778" lon="2.19126">
        <ele>92</ele>
        <time>2019-05-12T04:36:39.000Z</time>
      </trkpt>
      <trkpt lat="48.75778" lon="2.19126">
        <ele>92</ele>
        <time>2019-05-12T04:36:41.000Z</time>
      </trkpt>
      <trkpt lat="48.75778" lon="2.19126">
        <ele>92</ele>
        <time>2019-05-12T04:36:43.000Z</time>
      </trkpt>
      <trkpt lat="48.75778" lon="2.19126">
        <ele>92</ele>
        <time>2019-05-12T04:36:45.000Z</time>
      </trkpt>
      <trkpt lat="48.75778" lon="2.19126">
        <ele>92</ele>
        <time>2019-05-12T04:36:47.000Z</time>
      </trkpt>
      <trkpt lat="48.75775" lon="2.19111">
        <ele>93</ele>
        <time>2019-05-12T04:36:51.000Z</time>
      </trkpt>
      <trkpt lat="48.75773" lon="2.19102">
        <ele>93</ele>
        <time>2019-05-12T04:36:53.000Z</time>
      </trkpt>
      <trkpt lat="48.75771" lon="2.19095">
        <ele>94</ele>
        <time>2019-05-12T04:36:55.000Z</time>
      </trkpt>
      <trkpt lat="48.7577" lon="2.19087">
        <ele>94</ele>
        <time>2019-05-12T04:36:59.000Z</time>
      </trkpt>
      <trkpt lat="48.7577" lon="2.19087">
        <ele>94</ele>
        <time>2019-05-12T04:37:01.000Z</time>
      </trkpt>
      <trkpt lat="48.7577" lon="2.19087">
        <ele>94</ele>
        <time>2019-05-12T04:37:03.000Z</time>
      </trkpt>
      <trkpt lat="48.7577" lon="2.19087">
        <ele>94</ele>
        <time>2019-05-12T04:37:05.000Z</time>
      </trkpt>
      <trkpt lat="48.7577" lon="2.19087">
        <ele>94</ele>
        <time>2019-05-12T04:37:07.000Z</time>
      </trkpt>
      <trkpt lat="48.7577" lon="2.19087">
        <ele>94</ele>
        <time>2019-05-12T04:37:09.000Z</time>
      </trkpt>
      <trkpt lat="48.7577" lon="2.19087">
        <ele>94</ele>
        <time>2019-05-12T04:37:11.000Z</time>
      </trkpt>
      <trkpt lat="48.7577" lon="2.19087">
        <ele>94</ele>
        <time>2019-05-12T04:37:13.000Z</time>
      </trkpt>
      <trkpt lat="48.7577" lon="2.19087">
        <ele>94</ele>
        <time>2019-05-12T04:37:15.000Z</time>
      </trkpt>
      <trkpt lat="48.7576" lon="2.19071">
        <ele>96</ele>
        <time>2019-05-12T04:37:21.000Z</time>
      </trkpt>
      <trkpt lat="48.75754" lon="2.19061">
        <ele>96</ele>
        <time>2019-05-12T04:37:23.000Z</time>
      </trkpt>
      <trkpt lat="48.7575" lon="2.19055">
        <ele>104</ele>
        <time>2019-05-12T04:37:25.000Z</time>
      </trkpt>
      <trkpt lat="48.75746" lon="2.1905">
        <ele>104</ele>
        <time>2019-05-12T04:37:29.000Z</time>
      </trkpt>
      <trkpt lat="48.75746" lon="2.1905">
        <ele>104</ele>
        <time>2019-05-12T04:37:31.000Z</time>
      </trkpt>
      <trkpt lat="48.75746" lon="2.1905">
        <ele>104</ele>
        <time>2019-05-12T04:37:33.000Z</time>
      </trkpt>
      <trkpt lat="48.75746" lon="2.1905">
        <ele>104</ele>
        <time>2019-05-12T04:37:41.000Z</time>
      </trkpt>
      <trkpt lat="48.75737" lon="2.1904">
        <ele>105</ele>
        <time>2019-05-12T04:37:43.000Z</time>
      </trkpt>
      <trkpt lat="48.75732" lon="2.19034">
        <ele>106</ele>
        <time>2019-05-12T04:37:45.000Z</time>
      </trkpt>
      <trkpt lat="48.75732" lon="2.19034">
        <ele>106</ele>
        <time>2019-05-12T04:37:47.000Z</time>
      </trkpt>
      <trkpt lat="48.75732" lon="2.19034">
        <ele>106</ele>
        <time>2019-05-12T04:37:49.000Z</time>
      </trkpt>
      <trkpt lat="48.75724" lon="2.19027">
        <ele>107</ele>
        <time>2019-05-12T04:37:53.000Z</time>
      </trkpt>
      <trkpt lat="48.7572" lon="2.19023">
        <ele>107</ele>
        <time>2019-05-12T04:37:55.000Z</time>
      </trkpt>
      <trkpt lat="48.7572" lon="2.19023">
        <ele>107</ele>
        <time>2019-05-12T04:37:57.000Z</time>
      </trkpt>
      <trkpt lat="48.7572" lon="2.19023">
        <ele>107</ele>
        <time>2019-05-12T04:37:59.000Z</time>
      </trkpt>
      <trkpt lat="48.75714" lon="2.19018">
        <ele>108</ele>
        <time>2019-05-12T04:38:01.000Z</time>
      </trkpt>
      <trkpt lat="48.75714" lon="2.19018">
        <ele>108</ele>
        <time>2019-05-12T04:38:03.000Z</time>
      </trkpt>
      <trkpt lat="48.75714" lon="2.19018">
        <ele>108</ele>
        <time>2019-05-12T04:38:05.000Z</time>
      </trkpt>
      <trkpt lat="48.75714" lon="2.19018">
        <ele>108</ele>
        <time>2019-05-12T04:38:07.000Z</time>
      </trkpt>
      <trkpt lat="48.75706" lon="2.19013">
        <ele>109</ele>
        <time>2019-05-12T04:38:09.000Z</time>
      </trkpt>
      <trkpt lat="48.757" lon="2.1901">
        <ele>110</ele>
        <time>2019-05-12T04:38:11.000Z</time>
      </trkpt>
      <trkpt lat="48.75695" lon="2.19007">
        <ele>111</ele>
        <time>2019-05-12T04:38:13.000Z</time>
      </trkpt>
      <trkpt lat="48.75695" lon="2.19007">
        <ele>111</ele>
        <time>2019-05-12T04:38:15.000Z</time>
      </trkpt>
      <trkpt lat="48.75695" lon="2.19007">
        <ele>111</ele>
        <time>2019-05-12T04:38:17.000Z</time>
      </trkpt>
      <trkpt lat="48.75686" lon="2.19008">
        <ele>114</ele>
        <time>2019-05-12T04:38:23.000Z</time>
      </trkpt>
      <trkpt lat="48.75679" lon="2.19009">
        <ele>115</ele>
        <time>2019-05-12T04:38:25.000Z</time>
      </trkpt>
      <trkpt lat="48.75675" lon="2.1901">
        <ele>116</ele>
        <time>2019-05-12T04:38:27.000Z</time>
      </trkpt>
      <trkpt lat="48.75675" lon="2.1901">
        <ele>116</ele>
        <time>2019-05-12T04:38:29.000Z</time>
      </trkpt>
      <trkpt lat="48.75675" lon="2.1901">
        <ele>116</ele>
        <time>2019-05-12T04:38:31.000Z</time>
      </trkpt>
      <trkpt lat="48.75675" lon="2.1901">
        <ele>116</ele>
        <time>2019-05-12T04:38:33.000Z</time>
      </trkpt>
      <trkpt lat="48.75675" lon="2.1901">
        <ele>116</ele>
        <time>2019-05-12T04:38:35.000Z</time>
      </trkpt>
      <trkpt lat="48.75675" lon="2.1901">
        <ele>116</ele>
        <time>2019-05-12T04:38:41.000Z</time>
      </trkpt>
      <trkpt lat="48.75675" lon="2.1901">
        <ele>116</ele>
        <time>2019-05-12T04:38:47.000Z</time>
      </trkpt>
      <trkpt lat="48.75673" lon="2.18987">
        <ele>119</ele>
        <time>2019-05-12T04:39:25.000Z</time>
      </trkpt>
      <trkpt lat="48.75674" lon="2.18974">
        <ele>118</ele>
        <time>2019-05-12T04:39:27.000Z</time>
      </trkpt>
      <trkpt lat="48.75674" lon="2.18974">
        <ele>118</ele>
        <time>2019-05-12T04:39:29.000Z</time>
      </trkpt>
      <trkpt lat="48.75674" lon="2.18974">
        <ele>118</ele>
        <time>2019-05-12T04:39:31.000Z</time>
      </trkpt>
      <trkpt lat="48.75674" lon="2.18974">
        <ele>118</ele>
        <time>2019-05-12T04:39:33.000Z</time>
      </trkpt>
      <trkpt lat="48.75674" lon="2.18974">
        <ele>118</ele>
        <time>2019-05-12T04:39:35.000Z</time>
      </trkpt>
      <trkpt lat="48.75674" lon="2.18974">
        <ele>118</ele>
        <time>2019-05-12T04:39:37.000Z</time>
      </trkpt>
      <trkpt lat="48.75682" lon="2.18967">
        <ele>118</ele>
        <time>2019-05-12T04:39:41.000Z</time>
      </trkpt>
      <trkpt lat="48.75687" lon="2.18963">
        <ele>118</ele>
        <time>2019-05-12T04:39:43.000Z</time>
      </trkpt>
      <trkpt lat="48.75687" lon="2.18963">
        <ele>118</ele>
        <time>2019-05-12T04:39:45.000Z</time>
      </trkpt>
      <trkpt lat="48.75687" lon="2.18963">
        <ele>118</ele>
        <time>2019-05-12T04:39:47.000Z</time>
      </trkpt>
      <trkpt lat="48.75687" lon="2.18963">
        <ele>118</ele>
        <time>2019-05-12T04:39:49.000Z</time>
      </trkpt>
      <trkpt lat="48.75687" lon="2.18963">
        <ele>118</ele>
        <time>2019-05-12T04:39:51.000Z</time>
      </trkpt>
      <trkpt lat="48.75687" lon="2.18963">
        <ele>118</ele>
        <time>2019-05-12T04:39:53.000Z</time>
      </trkpt>
      <trkpt lat="48.75735" lon="2.18949">
        <ele>113</ele>
        <time>2019-05-12T04:41:05.000Z</time>
      </trkpt>
      <trkpt lat="48.7576" lon="2.1894">
        <ele>103</ele>
        <time>2019-05-12T04:41:07.000Z</time>
      </trkpt>
      <trkpt lat="48.75773" lon="2.18934">
        <ele>102</ele>
        <time>2019-05-12T04:41:09.000Z</time>
      </trkpt>
      <trkpt lat="48.7578" lon="2.18929">
        <ele>102</ele>
        <time>2019-05-12T04:41:11.000Z</time>
      </trkpt>
      <trkpt lat="48.75784" lon="2.18924">
        <ele>101</ele>
        <time>2019-05-12T04:41:13.000Z</time>
      </trkpt>
      <trkpt lat="48.75784" lon="2.18924">
        <ele>101</ele>
        <time>2019-05-12T04:41:15.000Z</time>
      </trkpt>
      <trkpt lat="48.75791" lon="2.18911">
        <ele>104</ele>
        <time>2019-05-12T04:41:17.000Z</time>
      </trkpt>
      <trkpt lat="48.75791" lon="2.18911">
        <ele>104</ele>
        <time>2019-05-12T04:41:19.000Z</time>
      </trkpt>
      <trkpt lat="48.75791" lon="2.18911">
        <ele>104</ele>
        <time>2019-05-12T04:41:21.000Z</time>
      </trkpt>
      <trkpt lat="48.75791" lon="2.18911">
        <ele>104</ele>
        <time>2019-05-12T04:41:23.000Z</time>
      </trkpt>
      <trkpt lat="48.75791" lon="2.18911">
        <ele>104</ele>
        <time>2019-05-12T04:41:25.000Z</time>
      </trkpt>
      <trkpt lat="48.75791" lon="2.18911">
        <ele>104</ele>
        <time>2019-05-12T04:41:27.000Z</time>
      </trkpt>
      <trkpt lat="48.75791" lon="2.18911">
        <ele>104</ele>
        <time>2019-05-12T04:41:29.000Z</time>
      </trkpt>
      <trkpt lat="48.75791" lon="2.18911">
        <ele>104</ele>
        <time>2019-05-12T04:42:07.000Z</time>
      </trkpt>
      <trkpt lat="48.75791" lon="2.18911">
        <ele>104</ele>
        <time>2019-05-12T04:42:09.000Z</time>
      </trkpt>
      <trkpt lat="48.75791" lon="2.18911">
        <ele>104</ele>
        <time>2019-05-12T04:42:15.000Z</time>
      </trkpt>
      <trkpt lat="48.75792" lon="2.18855">
        <ele>105</ele>
        <time>2019-05-12T04:42:23.000Z</time>
      </trkpt>
      <trkpt lat="48.75792" lon="2.18826">
        <ele>107</ele>
        <time>2019-05-12T04:42:25.000Z</time>
      </trkpt>
      <trkpt lat="48.75792" lon="2.18809">
        <ele>107</ele>
        <time>2019-05-12T04:42:27.000Z</time>
      </trkpt>
      <trkpt lat="48.75792" lon="2.18809">
        <ele>107</ele>
        <time>2019-05-12T04:42:29.000Z</time>
      </trkpt>
      <trkpt lat="48.75792" lon="2.18809">
        <ele>107</ele>
        <time>2019-05-12T04:42:31.000Z</time>
      </trkpt>
      <trkpt lat="48.75792" lon="2.18809">
        <ele>107</ele>
        <time>2019-05-12T04:42:35.000Z</time>
      </trkpt>
      <trkpt lat="48.75792" lon="2.18809">
        <ele>107</ele>
        <time>2019-05-12T04:42:37.000Z</time>
      </trkpt>
      <trkpt lat="48.75787" lon="2.18765">
        <ele>108</ele>
        <time>2019-05-12T04:43:07.000Z</time>
      </trkpt>
      <trkpt lat="48.75787" lon="2.18765">
        <ele>108</ele>
        <time>2019-05-12T04:43:09.000Z</time>
      </trkpt>
      <trkpt lat="48.75787" lon="2.18765">
        <ele>108</ele>
        <time>2019-05-12T04:43:11.000Z</time>
      </trkpt>
      <trkpt lat="48.7578" lon="2.1873">
        <ele>108</ele>
        <time>2019-05-12T04:43:21.000Z</time>
      </trkpt>
      <trkpt lat="48.75776" lon="2.1871">
        <ele>108</ele>
        <time>2019-05-12T04:43:23.000Z</time>
      </trkpt>
      <trkpt lat="48.75773" lon="2.18699">
        <ele>108</ele>
        <time>2019-05-12T04:43:25.000Z</time>
      </trkpt>
      <trkpt lat="48.75773" lon="2.18699">
        <ele>108</ele>
        <time>2019-05-12T04:43:27.000Z</time>
      </trkpt>
      <trkpt lat="48.75773" lon="2.18699">
        <ele>108</ele>
        <time>2019-05-12T04:43:29.000Z</time>
      </trkpt>
      <trkpt lat="48.75773" lon="2.18699">
        <ele>108</ele>
        <time>2019-05-12T04:43:31.000Z</time>
      </trkpt>
      <trkpt lat="48.75768" lon="2.18682">
        <ele>108</ele>
        <time>2019-05-12T04:43:39.000Z</time>
      </trkpt>
      <trkpt lat="48.75764" lon="2.18673">
        <ele>108</ele>
        <time>2019-05-12T04:43:41.000Z</time>
      </trkpt>
      <trkpt lat="48.75762" lon="2.18666">
        <ele>107</ele>
        <time>2019-05-12T04:43:43.000Z</time>
      </trkpt>
      <trkpt lat="48.75762" lon="2.18666">
        <ele>107</ele>
        <time>2019-05-12T04:43:45.000Z</time>
      </trkpt>
      <trkpt lat="48.75762" lon="2.18666">
        <ele>107</ele>
        <time>2019-05-12T04:43:47.000Z</time>
      </trkpt>
      <trkpt lat="48.75758" lon="2.18658">
        <ele>107</ele>
        <time>2019-05-12T04:43:49.000Z</time>
      </trkpt>
      <trkpt lat="48.75755" lon="2.18653">
        <ele>107</ele>
        <time>2019-05-12T04:43:51.000Z</time>
      </trkpt>
      <trkpt lat="48.75755" lon="2.18653">
        <ele>107</ele>
        <time>2019-05-12T04:43:53.000Z</time>
      </trkpt>
      <trkpt lat="48.75755" lon="2.18653">
        <ele>107</ele>
        <time>2019-05-12T04:43:55.000Z</time>
      </trkpt>
      <trkpt lat="48.75755" lon="2.18653">
        <ele>107</ele>
        <time>2019-05-12T04:43:57.000Z</time>
      </trkpt>
      <trkpt lat="48.7575" lon="2.18644">
        <ele>111</ele>
        <time>2019-05-12T04:44:01.000Z</time>
      </trkpt>
      <trkpt lat="48.75745" lon="2.18638">
        <ele>112</ele>
        <time>2019-05-12T04:44:03.000Z</time>
      </trkpt>
      <trkpt lat="48.75742" lon="2.18632">
        <ele>112</ele>
        <time>2019-05-12T04:44:07.000Z</time>
      </trkpt>
      <trkpt lat="48.75739" lon="2.18626">
        <ele>112</ele>
        <time>2019-05-12T04:44:11.000Z</time>
      </trkpt>
      <trkpt lat="48.75739" lon="2.18626">
        <ele>112</ele>
        <time>2019-05-12T04:44:13.000Z</time>
      </trkpt>
      <trkpt lat="48.75739" lon="2.18626">
        <ele>112</ele>
        <time>2019-05-12T04:44:15.000Z</time>
      </trkpt>
      <trkpt lat="48.75737" lon="2.18615">
        <ele>111</ele>
        <time>2019-05-12T04:44:19.000Z</time>
      </trkpt>
      <trkpt lat="48.75735" lon="2.18608">
        <ele>111</ele>
        <time>2019-05-12T04:44:21.000Z</time>
      </trkpt>
      <trkpt lat="48.75733" lon="2.18601">
        <ele>111</ele>
        <time>2019-05-12T04:44:25.000Z</time>
      </trkpt>
      <trkpt lat="48.75731" lon="2.18594">
        <ele>110</ele>
        <time>2019-05-12T04:44:29.000Z</time>
      </trkpt>
      <trkpt lat="48.75731" lon="2.18594">
        <ele>110</ele>
        <time>2019-05-12T04:44:31.000Z</time>
      </trkpt>
      <trkpt lat="48.75729" lon="2.18586">
        <ele>110</ele>
        <time>2019-05-12T04:44:33.000Z</time>
      </trkpt>
      <trkpt lat="48.75729" lon="2.18586">
        <ele>110</ele>
        <time>2019-05-12T04:44:35.000Z</time>
      </trkpt>
      <trkpt lat="48.75729" lon="2.18574">
        <ele>108</ele>
        <time>2019-05-12T04:44:41.000Z</time>
      </trkpt>
      <trkpt lat="48.7573" lon="2.18566">
        <ele>108</ele>
        <time>2019-05-12T04:44:43.000Z</time>
      </trkpt>
      <trkpt lat="48.7573" lon="2.18566">
        <ele>108</ele>
        <time>2019-05-12T04:44:45.000Z</time>
      </trkpt>
      <trkpt lat="48.7573" lon="2.18566">
        <ele>108</ele>
        <time>2019-05-12T04:44:47.000Z</time>
      </trkpt>
      <trkpt lat="48.7573" lon="2.18566">
        <ele>108</ele>
        <time>2019-05-12T04:44:49.000Z</time>
      </trkpt>
      <trkpt lat="48.7573" lon="2.18566">
        <ele>108</ele>
        <time>2019-05-12T04:44:59.000Z</time>
      </trkpt>
      <trkpt lat="48.7573" lon="2.18566">
        <ele>108</ele>
        <time>2019-05-12T04:45:01.000Z</time>
      </trkpt>
      <trkpt lat="48.7573" lon="2.18566">
        <ele>108</ele>
        <time>2019-05-12T04:45:03.000Z</time>
      </trkpt>
      <trkpt lat="48.75743" lon="2.18549">
        <ele>108</ele>
        <time>2019-05-12T04:45:07.000Z</time>
      </trkpt>
      <trkpt lat="48.75751" lon="2.18539">
        <ele>103</ele>
        <time>2019-05-12T04:45:09.000Z</time>
      </trkpt>
      <trkpt lat="48.75756" lon="2.18533">
        <ele>103</ele>
        <time>2019-05-12T04:45:11.000Z</time>
      </trkpt>
      <trkpt lat="48.75761" lon="2.18528">
        <ele>103</ele>
        <time>2019-05-12T04:45:13.000Z</time>
      </trkpt>
      <trkpt lat="48.75761" lon="2.18528">
        <ele>103</ele>
        <time>2019-05-12T04:45:15.000Z</time>
      </trkpt>
      <trkpt lat="48.75761" lon="2.18528">
        <ele>103</ele>
        <time>2019-05-12T04:45:17.000Z</time>
      </trkpt>
      <trkpt lat="48.75761" lon="2.18528">
        <ele>103</ele>
        <time>2019-05-12T04:45:25.000Z</time>
      </trkpt>
      <trkpt lat="48.75761" lon="2.18528">
        <ele>103</ele>
        <time>2019-05-12T04:45:27.000Z</time>
      </trkpt>
      <trkpt lat="48.75761" lon="2.18528">
        <ele>103</ele>
        <time>2019-05-12T04:45:29.000Z</time>
      </trkpt>
      <trkpt lat="48.75761" lon="2.18528">
        <ele>103</ele>
        <time>2019-05-12T04:45:31.000Z</time>
      </trkpt>
      <trkpt lat="48.75774" lon="2.1851">
        <ele>103</ele>
        <time>2019-05-12T04:45:35.000Z</time>
      </trkpt>
      <trkpt lat="48.75782" lon="2.185">
        <ele>105</ele>
        <time>2019-05-12T04:45:37.000Z</time>
      </trkpt>
      <trkpt lat="48.75786" lon="2.18494">
        <ele>105</ele>
        <time>2019-05-12T04:45:39.000Z</time>
      </trkpt>
      <trkpt lat="48.75786" lon="2.18494">
        <ele>105</ele>
        <time>2019-05-12T04:45:41.000Z</time>
      </trkpt>
      <trkpt lat="48.75791" lon="2.18489">
        <ele>105</ele>
        <time>2019-05-12T04:45:43.000Z</time>
      </trkpt>
      <trkpt lat="48.75795" lon="2.18486">
        <ele>105</ele>
        <time>2019-05-12T04:45:45.000Z</time>
      </trkpt>
      <trkpt lat="48.75798" lon="2.18481">
        <ele>105</ele>
        <time>2019-05-12T04:45:49.000Z</time>
      </trkpt>
      <trkpt lat="48.75798" lon="2.18481">
        <ele>105</ele>
        <time>2019-05-12T04:45:51.000Z</time>
      </trkpt>
      <trkpt lat="48.75803" lon="2.18476">
        <ele>105</ele>
        <time>2019-05-12T04:45:55.000Z</time>
      </trkpt>
      <trkpt lat="48.75806" lon="2.18472">
        <ele>105</ele>
        <time>2019-05-12T04:45:57.000Z</time>
      </trkpt>
      <trkpt lat="48.75806" lon="2.18472">
        <ele>105</ele>
        <time>2019-05-12T04:45:59.000Z</time>
      </trkpt>
      <trkpt lat="48.7581" lon="2.18466">
        <ele>106</ele>
        <time>2019-05-12T04:46:01.000Z</time>
      </trkpt>
      <trkpt lat="48.7581" lon="2.18466">
        <ele>106</ele>
        <time>2019-05-12T04:46:03.000Z</time>
      </trkpt>
      <trkpt lat="48.7581" lon="2.18466">
        <ele>106</ele>
        <time>2019-05-12T04:46:05.000Z</time>
      </trkpt>
      <trkpt lat="48.7581" lon="2.18466">
        <ele>106</ele>
        <time>2019-05-12T04:46:07.000Z</time>
      </trkpt>
      <trkpt lat="48.7581" lon="2.18466">
        <ele>106</ele>
        <time>2019-05-12T04:46:09.000Z</time>
      </trkpt>
      <trkpt lat="48.75811" lon="2.18457">
        <ele>106</ele>
        <time>2019-05-12T04:46:13.000Z</time>
      </trkpt>
      <trkpt lat="48.75811" lon="2.18457">
        <ele>106</ele>
        <time>2019-05-12T04:46:15.000Z</time>
      </trkpt>
      <trkpt lat="48.75812" lon="2.18449">
        <ele>106</ele>
        <time>2019-05-12T04:46:17.000Z</time>
      </trkpt>
      <trkpt lat="48.75811" lon="2.18442">
        <ele>106</ele>
        <time>2019-05-12T04:46:21.000Z</time>
      </trkpt>
      <trkpt lat="48.75811" lon="2.18442">
        <ele>106</ele>
        <time>2019-05-12T04:46:23.000Z</time>
      </trkpt>
      <trkpt lat="48.75811" lon="2.18442">
        <ele>106</ele>
        <time>2019-05-12T04:46:25.000Z</time>
      </trkpt>
      <trkpt lat="48.75811" lon="2.18442">
        <ele>106</ele>
        <time>2019-05-12T04:46:27.000Z</time>
      </trkpt>
      <trkpt lat="48.75811" lon="2.18442">
        <ele>106</ele>
        <time>2019-05-12T04:46:29.000Z</time>
      </trkpt>
      <trkpt lat="48.75811" lon="2.18442">
        <ele>106</ele>
        <time>2019-05-12T04:46:31.000Z</time>
      </trkpt>
      <trkpt lat="48.75811" lon="2.18442">
        <ele>106</ele>
        <time>2019-05-12T04:46:33.000Z</time>
      </trkpt>
      <trkpt lat="48.75811" lon="2.18442">
        <ele>106</ele>
        <time>2019-05-12T04:46:53.000Z</time>
      </trkpt>
      <trkpt lat="48.75811" lon="2.18442">
        <ele>106</ele>
        <time>2019-05-12T04:46:55.000Z</time>
      </trkpt>
      <trkpt lat="48.75813" lon="2.18388">
        <ele>115</ele>
        <time>2019-05-12T04:47:59.000Z</time>
      </trkpt>
      <trkpt lat="48.75813" lon="2.18388">
        <ele>115</ele>
        <time>2019-05-12T04:48:01.000Z</time>
      </trkpt>
      <trkpt lat="48.75813" lon="2.18388">
        <ele>115</ele>
        <time>2019-05-12T04:48:03.000Z</time>
      </trkpt>
      <trkpt lat="48.75813" lon="2.18388">
        <ele>115</ele>
        <time>2019-05-12T04:48:05.000Z</time>
      </trkpt>
      <trkpt lat="48.75825" lon="2.18356">
        <ele>118</ele>
        <time>2019-05-12T04:48:17.000Z</time>
      </trkpt>
      <trkpt lat="48.75825" lon="2.18356">
        <ele>118</ele>
        <time>2019-05-12T04:48:19.000Z</time>
      </trkpt>
      <trkpt lat="48.75825" lon="2.18356">
        <ele>118</ele>
        <time>2019-05-12T04:48:21.000Z</time>
      </trkpt>
      <trkpt lat="48.75825" lon="2.18356">
        <ele>118</ele>
        <time>2019-05-12T04:48:23.000Z</time>
      </trkpt>
      <trkpt lat="48.7584" lon="2.18331">
        <ele>119</ele>
        <time>2019-05-12T04:48:33.000Z</time>
      </trkpt>
      <trkpt lat="48.75848" lon="2.18317">
        <ele>120</ele>
        <time>2019-05-12T04:48:35.000Z</time>
      </trkpt>
      <trkpt lat="48.75848" lon="2.18317">
        <ele>120</ele>
        <time>2019-05-12T04:48:37.000Z</time>
      </trkpt>
      <trkpt lat="48.75856" lon="2.18306">
        <ele>121</ele>
        <time>2019-05-12T04:48:41.000Z</time>
      </trkpt>
      <trkpt lat="48.75861" lon="2.18299">
        <ele>121</ele>
        <time>2019-05-12T04:48:43.000Z</time>
      </trkpt>
      <trkpt lat="48.75866" lon="2.18293">
        <ele>121</ele>
        <time>2019-05-12T04:48:47.000Z</time>
      </trkpt>
      <trkpt lat="48.75872" lon="2.18286">
        <ele>121</ele>
        <time>2019-05-12T04:48:53.000Z</time>
      </trkpt>
      <trkpt lat="48.75872" lon="2.18286">
        <ele>121</ele>
        <time>2019-05-12T04:48:55.000Z</time>
      </trkpt>
      <trkpt lat="48.75872" lon="2.18286">
        <ele>121</ele>
        <time>2019-05-12T04:48:57.000Z</time>
      </trkpt>
      <trkpt lat="48.75879" lon="2.18279">
        <ele>121</ele>
        <time>2019-05-12T04:48:59.000Z</time>
      </trkpt>
      <trkpt lat="48.75883" lon="2.18273">
        <ele>121</ele>
        <time>2019-05-12T04:49:01.000Z</time>
      </trkpt>
      <trkpt lat="48.75883" lon="2.18273">
        <ele>121</ele>
        <time>2019-05-12T04:49:03.000Z</time>
      </trkpt>
      <trkpt lat="48.75883" lon="2.18273">
        <ele>121</ele>
        <time>2019-05-12T04:49:05.000Z</time>
      </trkpt>
      <trkpt lat="48.75883" lon="2.18273">
        <ele>121</ele>
        <time>2019-05-12T04:49:07.000Z</time>
      </trkpt>
      <trkpt lat="48.75883" lon="2.18273">
        <ele>121</ele>
        <time>2019-05-12T04:49:09.000Z</time>
      </trkpt>
      <trkpt lat="48.75891" lon="2.18264">
        <ele>120</ele>
        <time>2019-05-12T04:49:17.000Z</time>
      </trkpt>
      <trkpt lat="48.75896" lon="2.18258">
        <ele>120</ele>
        <time>2019-05-12T04:49:19.000Z</time>
      </trkpt>
      <trkpt lat="48.759" lon="2.18254">
        <ele>119</ele>
        <time>2019-05-12T04:49:21.000Z</time>
      </trkpt>
      <trkpt lat="48.75903" lon="2.18249">
        <ele>124</ele>
        <time>2019-05-12T04:49:23.000Z</time>
      </trkpt>
      <trkpt lat="48.75907" lon="2.18241">
        <ele>124</ele>
        <time>2019-05-12T04:49:27.000Z</time>
      </trkpt>
      <trkpt lat="48.75907" lon="2.18241">
        <ele>124</ele>
        <time>2019-05-12T04:49:29.000Z</time>
      </trkpt>
      <trkpt lat="48.75911" lon="2.18234">
        <ele>125</ele>
        <time>2019-05-12T04:49:31.000Z</time>
      </trkpt>
      <trkpt lat="48.75911" lon="2.18234">
        <ele>125</ele>
        <time>2019-05-12T04:49:33.000Z</time>
      </trkpt>
      <trkpt lat="48.75911" lon="2.18234">
        <ele>125</ele>
        <time>2019-05-12T04:49:35.000Z</time>
      </trkpt>
      <trkpt lat="48.75911" lon="2.18234">
        <ele>125</ele>
        <time>2019-05-12T04:49:37.000Z</time>
      </trkpt>
      <trkpt lat="48.75911" lon="2.18234">
        <ele>125</ele>
        <time>2019-05-12T04:49:39.000Z</time>
      </trkpt>
      <trkpt lat="48.75918" lon="2.1822">
        <ele>118</ele>
        <time>2019-05-12T04:49:43.000Z</time>
      </trkpt>
      <trkpt lat="48.75923" lon="2.18211">
        <ele>119</ele>
        <time>2019-05-12T04:49:45.000Z</time>
      </trkpt>
      <trkpt lat="48.75925" lon="2.18205">
        <ele>119</ele>
        <time>2019-05-12T04:49:47.000Z</time>
      </trkpt>
      <trkpt lat="48.75925" lon="2.18205">
        <ele>119</ele>
        <time>2019-05-12T04:49:49.000Z</time>
      </trkpt>
      <trkpt lat="48.75925" lon="2.18205">
        <ele>119</ele>
        <time>2019-05-12T04:49:51.000Z</time>
      </trkpt>
      <trkpt lat="48.75932" lon="2.18193">
        <ele>120</ele>
        <time>2019-05-12T04:49:59.000Z</time>
      </trkpt>
      <trkpt lat="48.75936" lon="2.18184">
        <ele>121</ele>
        <time>2019-05-12T04:50:01.000Z</time>
      </trkpt>
      <trkpt lat="48.75939" lon="2.18179">
        <ele>121</ele>
        <time>2019-05-12T04:50:03.000Z</time>
      </trkpt>
      <trkpt lat="48.75939" lon="2.18179">
        <ele>121</ele>
        <time>2019-05-12T04:50:05.000Z</time>
      </trkpt>
      <trkpt lat="48.75939" lon="2.18179">
        <ele>121</ele>
        <time>2019-05-12T04:50:07.000Z</time>
      </trkpt>
      <trkpt lat="48.75939" lon="2.18179">
        <ele>121</ele>
        <time>2019-05-12T04:50:09.000Z</time>
      </trkpt>
      <trkpt lat="48.75943" lon="2.18166">
        <ele>127</ele>
        <time>2019-05-12T04:50:15.000Z</time>
      </trkpt>
      <trkpt lat="48.75945" lon="2.18157">
        <ele>126</ele>
        <time>2019-05-12T04:50:17.000Z</time>
      </trkpt>
      <trkpt lat="48.75945" lon="2.18157">
        <ele>126</ele>
        <time>2019-05-12T04:50:19.000Z</time>
      </trkpt>
      <trkpt lat="48.75945" lon="2.18157">
        <ele>126</ele>
        <time>2019-05-12T04:50:21.000Z</time>
      </trkpt>
      <trkpt lat="48.75947" lon="2.18149">
        <ele>126</ele>
        <time>2019-05-12T04:50:25.000Z</time>
      </trkpt>
      <trkpt lat="48.75948" lon="2.18142">
        <ele>126</ele>
        <time>2019-05-12T04:50:27.000Z</time>
      </trkpt>
      <trkpt lat="48.75949" lon="2.18135">
        <ele>126</ele>
        <time>2019-05-12T04:50:31.000Z</time>
      </trkpt>
      <trkpt lat="48.75949" lon="2.18135">
        <ele>126</ele>
        <time>2019-05-12T04:50:33.000Z</time>
      </trkpt>
      <trkpt lat="48.75949" lon="2.18135">
        <ele>126</ele>
        <time>2019-05-12T04:50:35.000Z</time>
      </trkpt>
      <trkpt lat="48.75951" lon="2.18126">
        <ele>126</ele>
        <time>2019-05-12T04:50:37.000Z</time>
      </trkpt>
      <trkpt lat="48.75953" lon="2.1812">
        <ele>126</ele>
        <time>2019-05-12T04:50:39.000Z</time>
      </trkpt>
      <trkpt lat="48.75955" lon="2.18113">
        <ele>126</ele>
        <time>2019-05-12T04:50:43.000Z</time>
      </trkpt>
      <trkpt lat="48.75955" lon="2.18113">
        <ele>126</ele>
        <time>2019-05-12T04:50:47.000Z</time>
      </trkpt>
      <trkpt lat="48.75955" lon="2.18113">
        <ele>126</ele>
        <time>2019-05-12T04:50:49.000Z</time>
      </trkpt>
      <trkpt lat="48.75955" lon="2.18113">
        <ele>126</ele>
        <time>2019-05-12T04:50:51.000Z</time>
      </trkpt>
      <trkpt lat="48.75955" lon="2.18113">
        <ele>126</ele>
        <time>2019-05-12T04:50:53.000Z</time>
      </trkpt>
      <trkpt lat="48.75955" lon="2.18113">
        <ele>126</ele>
        <time>2019-05-12T04:50:55.000Z</time>
      </trkpt>
      <trkpt lat="48.75955" lon="2.18113">
        <ele>126</ele>
        <time>2019-05-12T04:50:57.000Z</time>
      </trkpt>
      <trkpt lat="48.75955" lon="2.18113">
        <ele>126</ele>
        <time>2019-05-12T04:50:59.000Z</time>
      </trkpt>
      <trkpt lat="48.75959" lon="2.18099">
        <ele>126</ele>
        <time>2019-05-12T04:51:03.000Z</time>
      </trkpt>
      <trkpt lat="48.75962" lon="2.18089">
        <ele>126</ele>
        <time>2019-05-12T04:51:05.000Z</time>
      </trkpt>
      <trkpt lat="48.75964" lon="2.18083">
        <ele>130</ele>
        <time>2019-05-12T04:51:07.000Z</time>
      </trkpt>
      <trkpt lat="48.75964" lon="2.18083">
        <ele>130</ele>
        <time>2019-05-12T04:51:09.000Z</time>
      </trkpt>
      <trkpt lat="48.75964" lon="2.18083">
        <ele>130</ele>
        <time>2019-05-12T04:51:11.000Z</time>
      </trkpt>
      <trkpt lat="48.75964" lon="2.18083">
        <ele>130</ele>
        <time>2019-05-12T04:51:13.000Z</time>
      </trkpt>
      <trkpt lat="48.75967" lon="2.18072">
        <ele>130</ele>
        <time>2019-05-12T04:51:17.000Z</time>
      </trkpt>
      <trkpt lat="48.75969" lon="2.18065">
        <ele>130</ele>
        <time>2019-05-12T04:51:19.000Z</time>
      </trkpt>
      <trkpt lat="48.7597" lon="2.18057">
        <ele>130</ele>
        <time>2019-05-12T04:51:23.000Z</time>
      </trkpt>
      <trkpt lat="48.75973" lon="2.18047">
        <ele>130</ele>
        <time>2019-05-12T04:51:29.000Z</time>
      </trkpt>
      <trkpt lat="48.75973" lon="2.18047">
        <ele>130</ele>
        <time>2019-05-12T04:51:35.000Z</time>
      </trkpt>
      <trkpt lat="48.75973" lon="2.18047">
        <ele>130</ele>
        <time>2019-05-12T04:51:37.000Z</time>
      </trkpt>
      <trkpt lat="48.75973" lon="2.18047">
        <ele>130</ele>
        <time>2019-05-12T04:51:39.000Z</time>
      </trkpt>
      <trkpt lat="48.75973" lon="2.18047">
        <ele>130</ele>
        <time>2019-05-12T04:51:41.000Z</time>
      </trkpt>
      <trkpt lat="48.75973" lon="2.18047">
        <ele>130</ele>
        <time>2019-05-12T04:51:43.000Z</time>
      </trkpt>
      <trkpt lat="48.75983" lon="2.18028">
        <ele>130</ele>
        <time>2019-05-12T04:51:49.000Z</time>
      </trkpt>
      <trkpt lat="48.75988" lon="2.18017">
        <ele>130</ele>
        <time>2019-05-12T04:51:51.000Z</time>
      </trkpt>
      <trkpt lat="48.75992" lon="2.18012">
        <ele>130</ele>
        <time>2019-05-12T04:51:53.000Z</time>
      </trkpt>
      <trkpt lat="48.75992" lon="2.18012">
        <ele>130</ele>
        <time>2019-05-12T04:51:55.000Z</time>
      </trkpt>
      <trkpt lat="48.75994" lon="2.18005">
        <ele>129</ele>
        <time>2019-05-12T04:51:57.000Z</time>
      </trkpt>
      <trkpt lat="48.75997" lon="2.17997">
        <ele>129</ele>
        <time>2019-05-12T04:52:01.000Z</time>
      </trkpt>
      <trkpt lat="48.75997" lon="2.17997">
        <ele>129</ele>
        <time>2019-05-12T04:52:03.000Z</time>
      </trkpt>
      <trkpt lat="48.75997" lon="2.17997">
        <ele>129</ele>
        <time>2019-05-12T04:52:05.000Z</time>
      </trkpt>
      <trkpt lat="48.75997" lon="2.17997">
        <ele>129</ele>
        <time>2019-05-12T04:52:07.000Z</time>
      </trkpt>
      <trkpt lat="48.76" lon="2.17986">
        <ele>125</ele>
        <time>2019-05-12T04:52:09.000Z</time>
      </trkpt>
      <trkpt lat="48.76003" lon="2.17979">
        <ele>124</ele>
        <time>2019-05-12T04:52:11.000Z</time>
      </trkpt>
      <trkpt lat="48.76004" lon="2.17972">
        <ele>123</ele>
        <time>2019-05-12T04:52:13.000Z</time>
      </trkpt>
      <trkpt lat="48.76004" lon="2.17972">
        <ele>123</ele>
        <time>2019-05-12T04:52:15.000Z</time>
      </trkpt>
      <trkpt lat="48.76004" lon="2.17972">
        <ele>123</ele>
        <time>2019-05-12T04:52:17.000Z</time>
      </trkpt>
      <trkpt lat="48.76004" lon="2.17972">
        <ele>123</ele>
        <time>2019-05-12T04:52:19.000Z</time>
      </trkpt>
      <trkpt lat="48.76008" lon="2.17955">
        <ele>123</ele>
        <time>2019-05-12T04:52:25.000Z</time>
      </trkpt>
      <trkpt lat="48.7601" lon="2.17945">
        <ele>123</ele>
        <time>2019-05-12T04:52:27.000Z</time>
      </trkpt>
      <trkpt lat="48.7601" lon="2.17945">
        <ele>123</ele>
        <time>2019-05-12T04:52:29.000Z</time>
      </trkpt>
      <trkpt lat="48.7601" lon="2.17945">
        <ele>123</ele>
        <time>2019-05-12T04:52:31.000Z</time>
      </trkpt>
      <trkpt lat="48.76011" lon="2.17933">
        <ele>124</ele>
        <time>2019-05-12T04:52:33.000Z</time>
      </trkpt>
      <trkpt lat="48.76011" lon="2.17925">
        <ele>125</ele>
        <time>2019-05-12T04:52:35.000Z</time>
      </trkpt>
      <trkpt lat="48.76011" lon="2.17925">
        <ele>125</ele>
        <time>2019-05-12T04:52:37.000Z</time>
      </trkpt>
      <trkpt lat="48.76013" lon="2.17914">
        <ele>125</ele>
        <time>2019-05-12T04:52:45.000Z</time>
      </trkpt>
      <trkpt lat="48.76014" lon="2.17908">
        <ele>124</ele>
        <time>2019-05-12T04:52:47.000Z</time>
      </trkpt>
      <trkpt lat="48.76014" lon="2.17908">
        <ele>124</ele>
        <time>2019-05-12T04:52:49.000Z</time>
      </trkpt>
      <trkpt lat="48.76014" lon="2.17908">
        <ele>124</ele>
        <time>2019-05-12T04:52:51.000Z</time>
      </trkpt>
      <trkpt lat="48.76017" lon="2.17899">
        <ele>123</ele>
        <time>2019-05-12T04:52:55.000Z</time>
      </trkpt>
      <trkpt lat="48.76017" lon="2.17899">
        <ele>123</ele>
        <time>2019-05-12T04:52:57.000Z</time>
      </trkpt>
      <trkpt lat="48.76018" lon="2.17891">
        <ele>122</ele>
        <time>2019-05-12T04:52:59.000Z</time>
      </trkpt>
      <trkpt lat="48.76018" lon="2.17884">
        <ele>122</ele>
        <time>2019-05-12T04:53:03.000Z</time>
      </trkpt>
      <trkpt lat="48.76018" lon="2.17884">
        <ele>122</ele>
        <time>2019-05-12T04:53:05.000Z</time>
      </trkpt>
      <trkpt lat="48.76018" lon="2.17884">
        <ele>122</ele>
        <time>2019-05-12T04:53:07.000Z</time>
      </trkpt>
      <trkpt lat="48.76018" lon="2.17884">
        <ele>122</ele>
        <time>2019-05-12T04:53:11.000Z</time>
      </trkpt>
      <trkpt lat="48.76018" lon="2.17884">
        <ele>122</ele>
        <time>2019-05-12T04:53:15.000Z</time>
      </trkpt>
      <trkpt lat="48.76015" lon="2.17869">
        <ele>122</ele>
        <time>2019-05-12T04:53:19.000Z</time>
      </trkpt>
      <trkpt lat="48.76012" lon="2.17858">
        <ele>122</ele>
        <time>2019-05-12T04:53:21.000Z</time>
      </trkpt>
      <trkpt lat="48.7601" lon="2.17851">
        <ele>123</ele>
        <time>2019-05-12T04:53:23.000Z</time>
      </trkpt>
      <trkpt lat="48.7601" lon="2.17851">
        <ele>123</ele>
        <time>2019-05-12T04:53:25.000Z</time>
      </trkpt>
      <trkpt lat="48.7601" lon="2.17851">
        <ele>123</ele>
        <time>2019-05-12T04:53:27.000Z</time>
      </trkpt>
      <trkpt lat="48.7601" lon="2.17851">
        <ele>123</ele>
        <time>2019-05-12T04:53:29.000Z</time>
      </trkpt>
      <trkpt lat="48.76009" lon="2.17838">
        <ele>124</ele>
        <time>2019-05-12T04:53:33.000Z</time>
      </trkpt>
      <trkpt lat="48.76009" lon="2.17838">
        <ele>124</ele>
        <time>2019-05-12T04:53:35.000Z</time>
      </trkpt>
      <trkpt lat="48.76009" lon="2.17838">
        <ele>124</ele>
        <time>2019-05-12T04:53:37.000Z</time>
      </trkpt>
      <trkpt lat="48.76009" lon="2.17838">
        <ele>124</ele>
        <time>2019-05-12T04:53:39.000Z</time>
      </trkpt>
      <trkpt lat="48.76026" lon="2.17827">
        <ele>119</ele>
        <time>2019-05-12T04:54:17.000Z</time>
      </trkpt>
      <trkpt lat="48.76036" lon="2.1782">
        <ele>117</ele>
        <time>2019-05-12T04:54:19.000Z</time>
      </trkpt>
      <trkpt lat="48.76036" lon="2.1782">
        <ele>117</ele>
        <time>2019-05-12T04:54:21.000Z</time>
      </trkpt>
      <trkpt lat="48.76036" lon="2.1782">
        <ele>117</ele>
        <time>2019-05-12T04:54:23.000Z</time>
      </trkpt>
      <trkpt lat="48.76036" lon="2.1782">
        <ele>117</ele>
        <time>2019-05-12T04:54:25.000Z</time>
      </trkpt>
      <trkpt lat="48.76036" lon="2.1782">
        <ele>117</ele>
        <time>2019-05-12T04:54:27.000Z</time>
      </trkpt>
      <trkpt lat="48.76036" lon="2.1782">
        <ele>117</ele>
        <time>2019-05-12T04:54:29.000Z</time>
      </trkpt>
      <trkpt lat="48.76049" lon="2.17815">
        <ele>115</ele>
        <time>2019-05-12T04:54:31.000Z</time>
      </trkpt>
      <trkpt lat="48.76049" lon="2.17815">
        <ele>115</ele>
        <time>2019-05-12T04:54:35.000Z</time>
      </trkpt>
      <trkpt lat="48.76049" lon="2.17815">
        <ele>115</ele>
        <time>2019-05-12T04:54:37.000Z</time>
      </trkpt>
      <trkpt lat="48.76062" lon="2.17807">
        <ele>113</ele>
        <time>2019-05-12T04:54:39.000Z</time>
      </trkpt>
      <trkpt lat="48.7607" lon="2.17802">
        <ele>113</ele>
        <time>2019-05-12T04:54:41.000Z</time>
      </trkpt>
      <trkpt lat="48.76075" lon="2.17798">
        <ele>113</ele>
        <time>2019-05-12T04:54:43.000Z</time>
      </trkpt>
      <trkpt lat="48.7608" lon="2.17795">
        <ele>112</ele>
        <time>2019-05-12T04:54:47.000Z</time>
      </trkpt>
      <trkpt lat="48.76086" lon="2.17793">
        <ele>105</ele>
        <time>2019-05-12T04:54:51.000Z</time>
      </trkpt>
      <trkpt lat="48.76086" lon="2.17793">
        <ele>105</ele>
        <time>2019-05-12T04:54:53.000Z</time>
      </trkpt>
      <trkpt lat="48.76086" lon="2.17793">
        <ele>105</ele>
        <time>2019-05-12T04:54:55.000Z</time>
      </trkpt>
      <trkpt lat="48.76094" lon="2.17795">
        <ele>104</ele>
        <time>2019-05-12T04:55:01.000Z</time>
      </trkpt>
      <trkpt lat="48.761" lon="2.17797">
        <ele>104</ele>
        <time>2019-05-12T04:55:03.000Z</time>
      </trkpt>
      <trkpt lat="48.761" lon="2.17797">
        <ele>104</ele>
        <time>2019-05-12T04:55:05.000Z</time>
      </trkpt>
      <trkpt lat="48.76105" lon="2.178">
        <ele>104</ele>
        <time>2019-05-12T04:55:07.000Z</time>
      </trkpt>
      <trkpt lat="48.7611" lon="2.17803">
        <ele>104</ele>
        <time>2019-05-12T04:55:11.000Z</time>
      </trkpt>
      <trkpt lat="48.7611" lon="2.17803">
        <ele>104</ele>
        <time>2019-05-12T04:55:13.000Z</time>
      </trkpt>
      <trkpt lat="48.7611" lon="2.17803">
        <ele>104</ele>
        <time>2019-05-12T04:55:15.000Z</time>
      </trkpt>
      <trkpt lat="48.7611" lon="2.17803">
        <ele>104</ele>
        <time>2019-05-12T04:55:17.000Z</time>
      </trkpt>
      <trkpt lat="48.7611" lon="2.17803">
        <ele>104</ele>
        <time>2019-05-12T04:55:19.000Z</time>
      </trkpt>
      <trkpt lat="48.76122" lon="2.17806">
        <ele>103</ele>
        <time>2019-05-12T04:55:23.000Z</time>
      </trkpt>
      <trkpt lat="48.76128" lon="2.17806">
        <ele>103</ele>
        <time>2019-05-12T04:55:25.000Z</time>
      </trkpt>
      <trkpt lat="48.76133" lon="2.17804">
        <ele>102</ele>
        <time>2019-05-12T04:55:27.000Z</time>
      </trkpt>
      <trkpt lat="48.76133" lon="2.17804">
        <ele>102</ele>
        <time>2019-05-12T04:55:29.000Z</time>
      </trkpt>
      <trkpt lat="48.76133" lon="2.17804">
        <ele>102</ele>
        <time>2019-05-12T04:55:31.000Z</time>
      </trkpt>
      <trkpt lat="48.76133" lon="2.17804">
        <ele>102</ele>
        <time>2019-05-12T04:55:37.000Z</time>
      </trkpt>
      <trkpt lat="48.76133" lon="2.17804">
        <ele>102</ele>
        <time>2019-05-12T04:55:49.000Z</time>
      </trkpt>
      <trkpt lat="48.76155" lon="2.17789">
        <ele>102</ele>
        <time>2019-05-12T04:56:08.000Z</time>
      </trkpt>
      <trkpt lat="48.76166" lon="2.1778">
        <ele>101</ele>
        <time>2019-05-12T04:56:10.000Z</time>
      </trkpt>
      <trkpt lat="48.76171" lon="2.17774">
        <ele>97</ele>
        <time>2019-05-12T04:56:12.000Z</time>
      </trkpt>
      <trkpt lat="48.76171" lon="2.17774">
        <ele>97</ele>
        <time>2019-05-12T04:56:14.000Z</time>
      </trkpt>
      <trkpt lat="48.76171" lon="2.17774">
        <ele>97</ele>
        <time>2019-05-12T04:56:16.000Z</time>
      </trkpt>
      <trkpt lat="48.76171" lon="2.17774">
        <ele>97</ele>
        <time>2019-05-12T04:56:18.000Z</time>
      </trkpt>
      <trkpt lat="48.76171" lon="2.17774">
        <ele>97</ele>
        <time>2019-05-12T04:56:20.000Z</time>
      </trkpt>
      <trkpt lat="48.76175" lon="2.17762">
        <ele>98</ele>
        <time>2019-05-12T04:56:22.000Z</time>
      </trkpt>
      <trkpt lat="48.76178" lon="2.17753">
        <ele>98</ele>
        <time>2019-05-12T04:56:24.000Z</time>
      </trkpt>
      <trkpt lat="48.76179" lon="2.17746">
        <ele>99</ele>
        <time>2019-05-12T04:56:26.000Z</time>
      </trkpt>
      <trkpt lat="48.76179" lon="2.17746">
        <ele>99</ele>
        <time>2019-05-12T04:56:28.000Z</time>
      </trkpt>
      <trkpt lat="48.76181" lon="2.17738">
        <ele>98</ele>
        <time>2019-05-12T04:56:30.000Z</time>
      </trkpt>
      <trkpt lat="48.76181" lon="2.17738">
        <ele>98</ele>
        <time>2019-05-12T04:56:32.000Z</time>
      </trkpt>
      <trkpt lat="48.76181" lon="2.17738">
        <ele>98</ele>
        <time>2019-05-12T04:56:34.000Z</time>
      </trkpt>
      <trkpt lat="48.76182" lon="2.1772">
        <ele>98</ele>
        <time>2019-05-12T04:56:42.000Z</time>
      </trkpt>
      <trkpt lat="48.76183" lon="2.17709">
        <ele>98</ele>
        <time>2019-05-12T04:56:44.000Z</time>
      </trkpt>
      <trkpt lat="48.76183" lon="2.17709">
        <ele>98</ele>
        <time>2019-05-12T04:56:46.000Z</time>
      </trkpt>
      <trkpt lat="48.76183" lon="2.17709">
        <ele>98</ele>
        <time>2019-05-12T04:56:48.000Z</time>
      </trkpt>
      <trkpt lat="48.76183" lon="2.17709">
        <ele>98</ele>
        <time>2019-05-12T04:56:50.000Z</time>
      </trkpt>
      <trkpt lat="48.76177" lon="2.17677">
        <ele>100</ele>
        <time>2019-05-12T04:57:24.000Z</time>
      </trkpt>
      <trkpt lat="48.76177" lon="2.17677">
        <ele>100</ele>
        <time>2019-05-12T04:57:26.000Z</time>
      </trkpt>
      <trkpt lat="48.76174" lon="2.17656">
        <ele>101</ele>
        <time>2019-05-12T04:57:28.000Z</time>
      </trkpt>
      <trkpt lat="48.76173" lon="2.17643">
        <ele>100</ele>
        <time>2019-05-12T04:57:30.000Z</time>
      </trkpt>
      <trkpt lat="48.76173" lon="2.17633">
        <ele>100</ele>
        <time>2019-05-12T04:57:32.000Z</time>
      </trkpt>
      <trkpt lat="48.76173" lon="2.17626">
        <ele>100</ele>
        <time>2019-05-12T04:57:34.000Z</time>
      </trkpt>
      <trkpt lat="48.76173" lon="2.17626">
        <ele>100</ele>
        <time>2019-05-12T04:57:36.000Z</time>
      </trkpt>
      <trkpt lat="48.76173" lon="2.17626">
        <ele>100</ele>
        <time>2019-05-12T04:57:38.000Z</time>
      </trkpt>
      <trkpt lat="48.76173" lon="2.17626">
        <ele>100</ele>
        <time>2019-05-12T04:57:40.000Z</time>
      </trkpt>
      <trkpt lat="48.76173" lon="2.17626">
        <ele>100</ele>
        <time>2019-05-12T04:57:44.000Z</time>
      </trkpt>
      <trkpt lat="48.76173" lon="2.17626">
        <ele>100</ele>
        <time>2019-05-12T04:57:46.000Z</time>
      </trkpt>
      <trkpt lat="48.76184" lon="2.176">
        <ele>101</ele>
        <time>2019-05-12T04:58:04.000Z</time>
      </trkpt>
      <trkpt lat="48.76191" lon="2.17586">
        <ele>101</ele>
        <time>2019-05-12T04:58:06.000Z</time>
      </trkpt>
      <trkpt lat="48.76191" lon="2.17586">
        <ele>101</ele>
        <time>2019-05-12T04:58:08.000Z</time>
      </trkpt>
      <trkpt lat="48.76191" lon="2.17586">
        <ele>101</ele>
        <time>2019-05-12T04:58:10.000Z</time>
      </trkpt>
      <trkpt lat="48.76191" lon="2.17586">
        <ele>101</ele>
        <time>2019-05-12T04:58:12.000Z</time>
      </trkpt>
      <trkpt lat="48.76191" lon="2.17586">
        <ele>101</ele>
        <time>2019-05-12T04:58:14.000Z</time>
      </trkpt>
      <trkpt lat="48.76191" lon="2.17586">
        <ele>101</ele>
        <time>2019-05-12T04:58:16.000Z</time>
      </trkpt>
      <trkpt lat="48.76191" lon="2.17586">
        <ele>101</ele>
        <time>2019-05-12T04:58:18.000Z</time>
      </trkpt>
      <trkpt lat="48.76198" lon="2.17564">
        <ele>100</ele>
        <time>2019-05-12T04:58:20.000Z</time>
      </trkpt>
      <trkpt lat="48.76202" lon="2.17551">
        <ele>100</ele>
        <time>2019-05-12T04:58:22.000Z</time>
      </trkpt>
      <trkpt lat="48.76206" lon="2.17543">
        <ele>100</ele>
        <time>2019-05-12T04:58:24.000Z</time>
      </trkpt>
      <trkpt lat="48.76206" lon="2.17543">
        <ele>100</ele>
        <time>2019-05-12T04:58:26.000Z</time>
      </trkpt>
      <trkpt lat="48.76206" lon="2.17543">
        <ele>100</ele>
        <time>2019-05-12T04:58:28.000Z</time>
      </trkpt>
      <trkpt lat="48.76206" lon="2.17543">
        <ele>100</ele>
        <time>2019-05-12T04:58:30.000Z</time>
      </trkpt>
      <trkpt lat="48.76206" lon="2.17543">
        <ele>100</ele>
        <time>2019-05-12T04:58:34.000Z</time>
      </trkpt>
      <trkpt lat="48.76206" lon="2.17543">
        <ele>100</ele>
        <time>2019-05-12T04:58:36.000Z</time>
      </trkpt>
      <trkpt lat="48.7621" lon="2.17516">
        <ele>100</ele>
        <time>2019-05-12T04:58:48.000Z</time>
      </trkpt>
      <trkpt lat="48.76213" lon="2.175">
        <ele>100</ele>
        <time>2019-05-12T04:58:50.000Z</time>
      </trkpt>
      <trkpt lat="48.76216" lon="2.17489">
        <ele>100</ele>
        <time>2019-05-12T04:58:52.000Z</time>
      </trkpt>
      <trkpt lat="48.76216" lon="2.17489">
        <ele>100</ele>
        <time>2019-05-12T04:58:54.000Z</time>
      </trkpt>
      <trkpt lat="48.76216" lon="2.17489">
        <ele>100</ele>
        <time>2019-05-12T04:58:56.000Z</time>
      </trkpt>
      <trkpt lat="48.7622" lon="2.17476">
        <ele>100</ele>
        <time>2019-05-12T04:58:58.000Z</time>
      </trkpt>
      <trkpt lat="48.76222" lon="2.17467">
        <ele>100</ele>
        <time>2019-05-12T04:59:00.000Z</time>
      </trkpt>
      <trkpt lat="48.76222" lon="2.17467">
        <ele>100</ele>
        <time>2019-05-12T04:59:02.000Z</time>
      </trkpt>
      <trkpt lat="48.76222" lon="2.17467">
        <ele>100</ele>
        <time>2019-05-12T04:59:04.000Z</time>
      </trkpt>
      <trkpt lat="48.76222" lon="2.17467">
        <ele>100</ele>
        <time>2019-05-12T04:59:06.000Z</time>
      </trkpt>
      <trkpt lat="48.76222" lon="2.17467">
        <ele>100</ele>
        <time>2019-05-12T04:59:08.000Z</time>
      </trkpt>
      <trkpt lat="48.76222" lon="2.17467">
        <ele>100</ele>
        <time>2019-05-12T04:59:12.000Z</time>
      </trkpt>
      <trkpt lat="48.76222" lon="2.17467">
        <ele>100</ele>
        <time>2019-05-12T04:59:14.000Z</time>
      </trkpt>
      <trkpt lat="48.76228" lon="2.17449">
        <ele>100</ele>
        <time>2019-05-12T04:59:16.000Z</time>
      </trkpt>
      <trkpt lat="48.76231" lon="2.17438">
        <ele>99</ele>
        <time>2019-05-12T04:59:18.000Z</time>
      </trkpt>
      <trkpt lat="48.76234" lon="2.17431">
        <ele>99</ele>
        <time>2019-05-12T04:59:20.000Z</time>
      </trkpt>
      <trkpt lat="48.76234" lon="2.17431">
        <ele>99</ele>
        <time>2019-05-12T04:59:22.000Z</time>
      </trkpt>
      <trkpt lat="48.76237" lon="2.17425">
        <ele>99</ele>
        <time>2019-05-12T04:59:24.000Z</time>
      </trkpt>
      <trkpt lat="48.76237" lon="2.17425">
        <ele>99</ele>
        <time>2019-05-12T04:59:26.000Z</time>
      </trkpt>
      <trkpt lat="48.76242" lon="2.17419">
        <ele>98</ele>
        <time>2019-05-12T04:59:30.000Z</time>
      </trkpt>
      <trkpt lat="48.76245" lon="2.17414">
        <ele>98</ele>
        <time>2019-05-12T04:59:32.000Z</time>
      </trkpt>
      <trkpt lat="48.76249" lon="2.17408">
        <ele>98</ele>
        <time>2019-05-12T04:59:36.000Z</time>
      </trkpt>
      <trkpt lat="48.76252" lon="2.174">
        <ele>95</ele>
        <time>2019-05-12T04:59:40.000Z</time>
      </trkpt>
      <trkpt lat="48.76252" lon="2.174">
        <ele>95</ele>
        <time>2019-05-12T04:59:42.000Z</time>
      </trkpt>
      <trkpt lat="48.76252" lon="2.174">
        <ele>95</ele>
        <time>2019-05-12T04:59:44.000Z</time>
      </trkpt>
      <trkpt lat="48.76252" lon="2.174">
        <ele>95</ele>
        <time>2019-05-12T04:59:46.000Z</time>
      </trkpt>
      <trkpt lat="48.76252" lon="2.174">
        <ele>95</ele>
        <time>2019-05-12T04:59:48.000Z</time>
      </trkpt>
      <trkpt lat="48.76259" lon="2.17391">
        <ele>95</ele>
        <time>2019-05-12T04:59:54.000Z</time>
      </trkpt>
      <trkpt lat="48.76259" lon="2.17391">
        <ele>95</ele>
        <time>2019-05-12T04:59:56.000Z</time>
      </trkpt>
      <trkpt lat="48.76264" lon="2.17384">
        <ele>95</ele>
        <time>2019-05-12T04:59:58.000Z</time>
      </trkpt>
      <trkpt lat="48.76267" lon="2.17378">
        <ele>94</ele>
        <time>2019-05-12T05:00:00.000Z</time>
      </trkpt>
      <trkpt lat="48.7627" lon="2.17371">
        <ele>94</ele>
        <time>2019-05-12T05:00:04.000Z</time>
      </trkpt>
      <trkpt lat="48.7627" lon="2.17363">
        <ele>94</ele>
        <time>2019-05-12T05:00:08.000Z</time>
      </trkpt>
      <trkpt lat="48.7627" lon="2.17363">
        <ele>94</ele>
        <time>2019-05-12T05:00:10.000Z</time>
      </trkpt>
      <trkpt lat="48.7627" lon="2.17355">
        <ele>95</ele>
        <time>2019-05-12T05:00:12.000Z</time>
      </trkpt>
      <trkpt lat="48.7627" lon="2.17355">
        <ele>95</ele>
        <time>2019-05-12T05:00:14.000Z</time>
      </trkpt>
      <trkpt lat="48.7627" lon="2.17355">
        <ele>95</ele>
        <time>2019-05-12T05:00:16.000Z</time>
      </trkpt>
      <trkpt lat="48.7627" lon="2.17355">
        <ele>95</ele>
        <time>2019-05-12T05:00:18.000Z</time>
      </trkpt>
      <trkpt lat="48.76269" lon="2.17341">
        <ele>95</ele>
        <time>2019-05-12T05:00:22.000Z</time>
      </trkpt>
      <trkpt lat="48.76269" lon="2.17341">
        <ele>95</ele>
        <time>2019-05-12T05:00:24.000Z</time>
      </trkpt>
      <trkpt lat="48.76268" lon="2.17328">
        <ele>95</ele>
        <time>2019-05-12T05:00:30.000Z</time>
      </trkpt>
      <trkpt lat="48.76266" lon="2.1732">
        <ele>95</ele>
        <time>2019-05-12T05:00:32.000Z</time>
      </trkpt>
      <trkpt lat="48.76265" lon="2.17313">
        <ele>95</ele>
        <time>2019-05-12T05:00:36.000Z</time>
      </trkpt>
      <trkpt lat="48.76264" lon="2.17305">
        <ele>95</ele>
        <time>2019-05-12T05:00:40.000Z</time>
      </trkpt>
      <trkpt lat="48.76264" lon="2.17305">
        <ele>95</ele>
        <time>2019-05-12T05:00:42.000Z</time>
      </trkpt>
      <trkpt lat="48.76264" lon="2.17305">
        <ele>95</ele>
        <time>2019-05-12T05:00:44.000Z</time>
      </trkpt>
      <trkpt lat="48.76264" lon="2.17305">
        <ele>95</ele>
        <time>2019-05-12T05:00:46.000Z</time>
      </trkpt>
      <trkpt lat="48.76264" lon="2.17305">
        <ele>95</ele>
        <time>2019-05-12T05:00:48.000Z</time>
      </trkpt>
      <trkpt lat="48.76262" lon="2.17287">
        <ele>95</ele>
        <time>2019-05-12T05:00:54.000Z</time>
      </trkpt>
      <trkpt lat="48.76262" lon="2.17287">
        <ele>95</ele>
        <time>2019-05-12T05:00:56.000Z</time>
      </trkpt>
      <trkpt lat="48.76262" lon="2.17287">
        <ele>95</ele>
        <time>2019-05-12T05:00:58.000Z</time>
      </trkpt>
      <trkpt lat="48.76262" lon="2.17287">
        <ele>95</ele>
        <time>2019-05-12T05:01:00.000Z</time>
      </trkpt>
      <trkpt lat="48.76262" lon="2.17287">
        <ele>95</ele>
        <time>2019-05-12T05:01:02.000Z</time>
      </trkpt>
      <trkpt lat="48.76262" lon="2.17287">
        <ele>95</ele>
        <time>2019-05-12T05:01:04.000Z</time>
      </trkpt>
      <trkpt lat="48.7626" lon="2.17268">
        <ele>96</ele>
        <time>2019-05-12T05:01:06.000Z</time>
      </trkpt>
      <trkpt lat="48.76258" lon="2.17256">
        <ele>97</ele>
        <time>2019-05-12T05:01:08.000Z</time>
      </trkpt>
      <trkpt lat="48.76257" lon="2.17249">
        <ele>97</ele>
        <time>2019-05-12T05:01:10.000Z</time>
      </trkpt>
      <trkpt lat="48.76257" lon="2.17249">
        <ele>97</ele>
        <time>2019-05-12T05:01:12.000Z</time>
      </trkpt>
      <trkpt lat="48.76254" lon="2.1724">
        <ele>97</ele>
        <time>2019-05-12T05:01:16.000Z</time>
      </trkpt>
      <trkpt lat="48.76251" lon="2.17233">
        <ele>96</ele>
        <time>2019-05-12T05:01:18.000Z</time>
      </trkpt>
      <trkpt lat="48.76248" lon="2.17227">
        <ele>100</ele>
        <time>2019-05-12T05:01:20.000Z</time>
      </trkpt>
      <trkpt lat="48.76245" lon="2.17219">
        <ele>101</ele>
        <time>2019-05-12T05:01:24.000Z</time>
      </trkpt>
      <trkpt lat="48.76243" lon="2.17213">
        <ele>101</ele>
        <time>2019-05-12T05:01:26.000Z</time>
      </trkpt>
      <trkpt lat="48.76243" lon="2.17213">
        <ele>101</ele>
        <time>2019-05-12T05:01:28.000Z</time>
      </trkpt>
      <trkpt lat="48.76241" lon="2.17206">
        <ele>101</ele>
        <time>2019-05-12T05:01:30.000Z</time>
      </trkpt>
      <trkpt lat="48.7624" lon="2.17199">
        <ele>101</ele>
        <time>2019-05-12T05:01:32.000Z</time>
      </trkpt>
      <trkpt lat="48.76239" lon="2.17191">
        <ele>101</ele>
        <time>2019-05-12T05:01:36.000Z</time>
      </trkpt>
      <trkpt lat="48.76239" lon="2.17191">
        <ele>101</ele>
        <time>2019-05-12T05:01:38.000Z</time>
      </trkpt>
      <trkpt lat="48.76239" lon="2.17191">
        <ele>101</ele>
        <time>2019-05-12T05:01:40.000Z</time>
      </trkpt>
      <trkpt lat="48.76238" lon="2.17178">
        <ele>100</ele>
        <time>2019-05-12T05:01:46.000Z</time>
      </trkpt>
      <trkpt lat="48.76237" lon="2.17169">
        <ele>99</ele>
        <time>2019-05-12T05:01:48.000Z</time>
      </trkpt>
      <trkpt lat="48.76237" lon="2.17162">
        <ele>100</ele>
        <time>2019-05-12T05:01:50.000Z</time>
      </trkpt>
      <trkpt lat="48.76237" lon="2.17162">
        <ele>100</ele>
        <time>2019-05-12T05:01:52.000Z</time>
      </trkpt>
      <trkpt lat="48.76237" lon="2.17162">
        <ele>100</ele>
        <time>2019-05-12T05:01:54.000Z</time>
      </trkpt>
      <trkpt lat="48.76237" lon="2.17162">
        <ele>100</ele>
        <time>2019-05-12T05:01:56.000Z</time>
      </trkpt>
      <trkpt lat="48.76237" lon="2.17148">
        <ele>102</ele>
        <time>2019-05-12T05:02:00.000Z</time>
      </trkpt>
      <trkpt lat="48.76237" lon="2.17139">
        <ele>102</ele>
        <time>2019-05-12T05:02:02.000Z</time>
      </trkpt>
      <trkpt lat="48.76237" lon="2.17139">
        <ele>102</ele>
        <time>2019-05-12T05:02:04.000Z</time>
      </trkpt>
      <trkpt lat="48.76237" lon="2.17139">
        <ele>102</ele>
        <time>2019-05-12T05:02:06.000Z</time>
      </trkpt>
      <trkpt lat="48.76237" lon="2.17139">
        <ele>102</ele>
        <time>2019-05-12T05:02:08.000Z</time>
      </trkpt>
      <trkpt lat="48.76237" lon="2.17139">
        <ele>102</ele>
        <time>2019-05-12T05:02:10.000Z</time>
      </trkpt>
      <trkpt lat="48.76241" lon="2.17126">
        <ele>103</ele>
        <time>2019-05-12T05:02:16.000Z</time>
      </trkpt>
      <trkpt lat="48.76243" lon="2.17118">
        <ele>103</ele>
        <time>2019-05-12T05:02:18.000Z</time>
      </trkpt>
      <trkpt lat="48.76245" lon="2.17111">
        <ele>103</ele>
        <time>2019-05-12T05:02:20.000Z</time>
      </trkpt>
      <trkpt lat="48.76246" lon="2.17104">
        <ele>103</ele>
        <time>2019-05-12T05:02:24.000Z</time>
      </trkpt>
      <trkpt lat="48.76248" lon="2.17096">
        <ele>103</ele>
        <time>2019-05-12T05:02:28.000Z</time>
      </trkpt>
      <trkpt lat="48.7625" lon="2.17088">
        <ele>102</ele>
        <time>2019-05-12T05:02:32.000Z</time>
      </trkpt>
      <trkpt lat="48.7625" lon="2.17088">
        <ele>102</ele>
        <time>2019-05-12T05:02:34.000Z</time>
      </trkpt>
      <trkpt lat="48.7625" lon="2.17088">
        <ele>102</ele>
        <time>2019-05-12T05:02:36.000Z</time>
      </trkpt>
      <trkpt lat="48.7625" lon="2.17088">
        <ele>102</ele>
        <time>2019-05-12T05:02:38.000Z</time>
      </trkpt>
      <trkpt lat="48.76253" lon="2.17075">
        <ele>101</ele>
        <time>2019-05-12T05:02:42.000Z</time>
      </trkpt>
      <trkpt lat="48.76254" lon="2.17067">
        <ele>100</ele>
        <time>2019-05-12T05:02:44.000Z</time>
      </trkpt>
      <trkpt lat="48.76254" lon="2.17067">
        <ele>100</ele>
        <time>2019-05-12T05:02:46.000Z</time>
      </trkpt>
      <trkpt lat="48.76255" lon="2.1706">
        <ele>99</ele>
        <time>2019-05-12T05:02:48.000Z</time>
      </trkpt>
      <trkpt lat="48.76258" lon="2.17051">
        <ele>99</ele>
        <time>2019-05-12T05:02:52.000Z</time>
      </trkpt>
      <trkpt lat="48.7626" lon="2.17044">
        <ele>98</ele>
        <time>2019-05-12T05:02:54.000Z</time>
      </trkpt>
      <trkpt lat="48.7626" lon="2.17044">
        <ele>98</ele>
        <time>2019-05-12T05:02:58.000Z</time>
      </trkpt>
      <trkpt lat="48.7626" lon="2.17044">
        <ele>98</ele>
        <time>2019-05-12T05:03:00.000Z</time>
      </trkpt>
      <trkpt lat="48.76263" lon="2.17031">
        <ele>98</ele>
        <time>2019-05-12T05:03:04.000Z</time>
      </trkpt>
      <trkpt lat="48.76265" lon="2.17023">
        <ele>98</ele>
        <time>2019-05-12T05:03:06.000Z</time>
      </trkpt>
      <trkpt lat="48.76265" lon="2.17023">
        <ele>98</ele>
        <time>2019-05-12T05:03:08.000Z</time>
      </trkpt>
      <trkpt lat="48.76265" lon="2.17023">
        <ele>98</ele>
        <time>2019-05-12T05:03:10.000Z</time>
      </trkpt>
      <trkpt lat="48.76265" lon="2.17023">
        <ele>98</ele>
        <time>2019-05-12T05:03:12.000Z</time>
      </trkpt>
      <trkpt lat="48.76265" lon="2.17023">
        <ele>98</ele>
        <time>2019-05-12T05:03:14.000Z</time>
      </trkpt>
      <trkpt lat="48.76271" lon="2.17006">
        <ele>99</ele>
        <time>2019-05-12T05:03:20.000Z</time>
      </trkpt>
      <trkpt lat="48.76274" lon="2.16994">
        <ele>98</ele>
        <time>2019-05-12T05:03:22.000Z</time>
      </trkpt>
      <trkpt lat="48.76276" lon="2.16987">
        <ele>98</ele>
        <time>2019-05-12T05:03:24.000Z</time>
      </trkpt>
      <trkpt lat="48.76276" lon="2.16987">
        <ele>98</ele>
        <time>2019-05-12T05:03:26.000Z</time>
      </trkpt>
      <trkpt lat="48.76276" lon="2.16987">
        <ele>98</ele>
        <time>2019-05-12T05:03:28.000Z</time>
      </trkpt>
      <trkpt lat="48.76278" lon="2.16973">
        <ele>97</ele>
        <time>2019-05-12T05:03:34.000Z</time>
      </trkpt>
      <trkpt lat="48.7628" lon="2.16964">
        <ele>97</ele>
        <time>2019-05-12T05:03:36.000Z</time>
      </trkpt>
      <trkpt lat="48.76282" lon="2.16957">
        <ele>97</ele>
        <time>2019-05-12T05:03:38.000Z</time>
      </trkpt>
      <trkpt lat="48.76284" lon="2.16951">
        <ele>97</ele>
        <time>2019-05-12T05:03:42.000Z</time>
      </trkpt>
      <trkpt lat="48.76284" lon="2.16951">
        <ele>97</ele>
        <time>2019-05-12T05:03:44.000Z</time>
      </trkpt>
      <trkpt lat="48.76284" lon="2.16951">
        <ele>97</ele>
        <time>2019-05-12T05:03:46.000Z</time>
      </trkpt>
      <trkpt lat="48.76288" lon="2.16939">
        <ele>97</ele>
        <time>2019-05-12T05:03:52.000Z</time>
      </trkpt>
      <trkpt lat="48.76291" lon="2.16931">
        <ele>96</ele>
        <time>2019-05-12T05:03:54.000Z</time>
      </trkpt>
      <trkpt lat="48.76291" lon="2.16931">
        <ele>96</ele>
        <time>2019-05-12T05:03:56.000Z</time>
      </trkpt>
      <trkpt lat="48.76291" lon="2.16931">
        <ele>96</ele>
        <time>2019-05-12T05:03:58.000Z</time>
      </trkpt>
      <trkpt lat="48.76291" lon="2.16931">
        <ele>96</ele>
        <time>2019-05-12T05:04:00.000Z</time>
      </trkpt>
      <trkpt lat="48.76291" lon="2.16931">
        <ele>96</ele>
        <time>2019-05-12T05:04:02.000Z</time>
      </trkpt>
      <trkpt lat="48.76295" lon="2.16913">
        <ele>98</ele>
        <time>2019-05-12T05:04:06.000Z</time>
      </trkpt>
      <trkpt lat="48.76297" lon="2.16903">
        <ele>97</ele>
        <time>2019-05-12T05:04:08.000Z</time>
      </trkpt>
      <trkpt lat="48.76297" lon="2.16903">
        <ele>97</ele>
        <time>2019-05-12T05:04:10.000Z</time>
      </trkpt>
      <trkpt lat="48.76297" lon="2.16903">
        <ele>97</ele>
        <time>2019-05-12T05:04:12.000Z</time>
      </trkpt>
      <trkpt lat="48.76301" lon="2.16888">
        <ele>98</ele>
        <time>2019-05-12T05:04:16.000Z</time>
      </trkpt>
      <trkpt lat="48.76304" lon="2.16878">
        <ele>98</ele>
        <time>2019-05-12T05:04:18.000Z</time>
      </trkpt>
      <trkpt lat="48.76304" lon="2.16878">
        <ele>98</ele>
        <time>2019-05-12T05:04:20.000Z</time>
      </trkpt>
      <trkpt lat="48.76304" lon="2.16878">
        <ele>98</ele>
        <time>2019-05-12T05:04:22.000Z</time>
      </trkpt>
      <trkpt lat="48.76304" lon="2.16878">
        <ele>98</ele>
        <time>2019-05-12T05:04:24.000Z</time>
      </trkpt>
      <trkpt lat="48.76308" lon="2.16864">
        <ele>98</ele>
        <time>2019-05-12T05:04:28.000Z</time>
      </trkpt>
      <trkpt lat="48.7631" lon="2.16854">
        <ele>98</ele>
        <time>2019-05-12T05:04:30.000Z</time>
      </trkpt>
      <trkpt lat="48.7631" lon="2.16854">
        <ele>98</ele>
        <time>2019-05-12T05:04:32.000Z</time>
      </trkpt>
      <trkpt lat="48.7631" lon="2.16854">
        <ele>98</ele>
        <time>2019-05-12T05:04:34.000Z</time>
      </trkpt>
      <trkpt lat="48.76315" lon="2.16842">
        <ele>98</ele>
        <time>2019-05-12T05:04:38.000Z</time>
      </trkpt>
      <trkpt lat="48.76318" lon="2.16831">
        <ele>99</ele>
        <time>2019-05-12T05:04:44.000Z</time>
      </trkpt>
      <trkpt lat="48.76321" lon="2.16824">
        <ele>99</ele>
        <time>2019-05-12T05:04:45.000Z</time>
      </trkpt>
      <trkpt lat="48.76324" lon="2.16817">
        <ele>99</ele>
        <time>2019-05-12T05:04:49.000Z</time>
      </trkpt>
      <trkpt lat="48.76328" lon="2.16815">
        <ele>99</ele>
        <time>2019-05-12T05:04:53.000Z</time>
      </trkpt>
      <trkpt lat="48.76328" lon="2.16815">
        <ele>99</ele>
        <time>2019-05-12T05:05:01.000Z</time>
      </trkpt>
      <trkpt lat="48.76335" lon="2.16806">
        <ele>96</ele>
        <time>2019-05-12T05:05:07.000Z</time>
      </trkpt>
      <trkpt lat="48.76335" lon="2.16806">
        <ele>96</ele>
        <time>2019-05-12T05:05:09.000Z</time>
      </trkpt>
      <trkpt lat="48.76339" lon="2.16796">
        <ele>96</ele>
        <time>2019-05-12T05:05:11.000Z</time>
      </trkpt>
      <trkpt lat="48.7634" lon="2.16786">
        <ele>96</ele>
        <time>2019-05-12T05:05:15.000Z</time>
      </trkpt>
      <trkpt lat="48.7634" lon="2.16786">
        <ele>96</ele>
        <time>2019-05-12T05:05:17.000Z</time>
      </trkpt>
      <trkpt lat="48.7634" lon="2.16786">
        <ele>96</ele>
        <time>2019-05-12T05:05:19.000Z</time>
      </trkpt>
      <trkpt lat="48.7634" lon="2.16786">
        <ele>96</ele>
        <time>2019-05-12T05:05:21.000Z</time>
      </trkpt>
      <trkpt lat="48.76347" lon="2.16775">
        <ele>96</ele>
        <time>2019-05-12T05:05:25.000Z</time>
      </trkpt>
      <trkpt lat="48.76352" lon="2.16768">
        <ele>96</ele>
        <time>2019-05-12T05:05:27.000Z</time>
      </trkpt>
      <trkpt lat="48.76352" lon="2.16768">
        <ele>96</ele>
        <time>2019-05-12T05:05:29.000Z</time>
      </trkpt>
      <trkpt lat="48.76357" lon="2.16765">
        <ele>96</ele>
        <time>2019-05-12T05:05:31.000Z</time>
      </trkpt>
      <trkpt lat="48.76357" lon="2.16765">
        <ele>96</ele>
        <time>2019-05-12T05:05:33.000Z</time>
      </trkpt>
      <trkpt lat="48.76357" lon="2.16765">
        <ele>96</ele>
        <time>2019-05-12T05:05:35.000Z</time>
      </trkpt>
      <trkpt lat="48.76357" lon="2.16765">
        <ele>96</ele>
        <time>2019-05-12T05:05:37.000Z</time>
      </trkpt>
      <trkpt lat="48.76357" lon="2.16765">
        <ele>96</ele>
        <time>2019-05-12T05:05:39.000Z</time>
      </trkpt>
      <trkpt lat="48.76357" lon="2.16765">
        <ele>96</ele>
        <time>2019-05-12T05:05:41.000Z</time>
      </trkpt>
      <trkpt lat="48.76357" lon="2.16765">
        <ele>96</ele>
        <time>2019-05-12T05:05:43.000Z</time>
      </trkpt>
      <trkpt lat="48.76357" lon="2.16765">
        <ele>96</ele>
        <time>2019-05-12T05:05:45.000Z</time>
      </trkpt>
      <trkpt lat="48.76357" lon="2.16765">
        <ele>96</ele>
        <time>2019-05-12T05:05:47.000Z</time>
      </trkpt>
      <trkpt lat="48.76357" lon="2.16765">
        <ele>96</ele>
        <time>2019-05-12T05:05:49.000Z</time>
      </trkpt>
      <trkpt lat="48.76357" lon="2.16765">
        <ele>96</ele>
        <time>2019-05-12T05:05:53.000Z</time>
      </trkpt>
      <trkpt lat="48.76357" lon="2.16765">
        <ele>96</ele>
        <time>2019-05-12T05:05:55.000Z</time>
      </trkpt>
      <trkpt lat="48.76372" lon="2.16764">
        <ele>95</ele>
        <time>2019-05-12T05:05:59.000Z</time>
      </trkpt>
      <trkpt lat="48.76381" lon="2.16764">
        <ele>94</ele>
        <time>2019-05-12T05:06:01.000Z</time>
      </trkpt>
      <trkpt lat="48.76386" lon="2.16765">
        <ele>94</ele>
        <time>2019-05-12T05:06:03.000Z</time>
      </trkpt>
      <trkpt lat="48.76391" lon="2.16765">
        <ele>94</ele>
        <time>2019-05-12T05:06:05.000Z</time>
      </trkpt>
      <trkpt lat="48.76396" lon="2.16765">
        <ele>93</ele>
        <time>2019-05-12T05:06:07.000Z</time>
      </trkpt>
      <trkpt lat="48.76396" lon="2.16765">
        <ele>93</ele>
        <time>2019-05-12T05:06:09.000Z</time>
      </trkpt>
      <trkpt lat="48.76396" lon="2.16765">
        <ele>93</ele>
        <time>2019-05-12T05:06:11.000Z</time>
      </trkpt>
      <trkpt lat="48.76396" lon="2.16765">
        <ele>93</ele>
        <time>2019-05-12T05:06:13.000Z</time>
      </trkpt>
      <trkpt lat="48.76414" lon="2.16773">
        <ele>93</ele>
        <time>2019-05-12T05:06:17.000Z</time>
      </trkpt>
      <trkpt lat="48.76414" lon="2.16773">
        <ele>93</ele>
        <time>2019-05-12T05:06:19.000Z</time>
      </trkpt>
      <trkpt lat="48.76414" lon="2.16773">
        <ele>93</ele>
        <time>2019-05-12T05:06:21.000Z</time>
      </trkpt>
      <trkpt lat="48.76414" lon="2.16773">
        <ele>93</ele>
        <time>2019-05-12T05:06:23.000Z</time>
      </trkpt>
      <trkpt lat="48.76414" lon="2.16773">
        <ele>93</ele>
        <time>2019-05-12T05:06:25.000Z</time>
      </trkpt>
      <trkpt lat="48.76429" lon="2.16788">
        <ele>90</ele>
        <time>2019-05-12T05:06:31.000Z</time>
      </trkpt>
      <trkpt lat="48.76429" lon="2.16788">
        <ele>90</ele>
        <time>2019-05-12T05:06:37.000Z</time>
      </trkpt>
      <trkpt lat="48.76429" lon="2.16788">
        <ele>90</ele>
        <time>2019-05-12T05:06:39.000Z</time>
      </trkpt>
      <trkpt lat="48.76429" lon="2.16788">
        <ele>90</ele>
        <time>2019-05-12T05:06:41.000Z</time>
      </trkpt>
      <trkpt lat="48.76445" lon="2.16782">
        <ele>90</ele>
        <time>2019-05-12T05:06:45.000Z</time>
      </trkpt>
      <trkpt lat="48.76447" lon="2.16768">
        <ele>90</ele>
        <time>2019-05-12T05:06:51.000Z</time>
      </trkpt>
      <trkpt lat="48.76447" lon="2.16768">
        <ele>90</ele>
        <time>2019-05-12T05:06:53.000Z</time>
      </trkpt>
      <trkpt lat="48.76447" lon="2.16768">
        <ele>90</ele>
        <time>2019-05-12T05:06:55.000Z</time>
      </trkpt>
      <trkpt lat="48.76447" lon="2.16768">
        <ele>90</ele>
        <time>2019-05-12T05:06:57.000Z</time>
      </trkpt>
      <trkpt lat="48.76447" lon="2.16768">
        <ele>90</ele>
        <time>2019-05-12T05:06:59.000Z</time>
      </trkpt>
      <trkpt lat="48.76447" lon="2.16768">
        <ele>90</ele>
        <time>2019-05-12T05:07:01.000Z</time>
      </trkpt>
      <trkpt lat="48.76447" lon="2.16768">
        <ele>90</ele>
        <time>2019-05-12T05:07:03.000Z</time>
      </trkpt>
      <trkpt lat="48.76448" lon="2.16739">
        <ele>90</ele>
        <time>2019-05-12T05:07:07.000Z</time>
      </trkpt>
      <trkpt lat="48.76448" lon="2.16739">
        <ele>90</ele>
        <time>2019-05-12T05:07:09.000Z</time>
      </trkpt>
      <trkpt lat="48.76445" lon="2.16725">
        <ele>90</ele>
        <time>2019-05-12T05:07:17.000Z</time>
      </trkpt>
      <trkpt lat="48.76445" lon="2.16725">
        <ele>90</ele>
        <time>2019-05-12T05:07:19.000Z</time>
      </trkpt>
      <trkpt lat="48.76445" lon="2.16725">
        <ele>90</ele>
        <time>2019-05-12T05:07:21.000Z</time>
      </trkpt>
      <trkpt lat="48.76443" lon="2.16716">
        <ele>90</ele>
        <time>2019-05-12T05:07:33.000Z</time>
      </trkpt>
      <trkpt lat="48.76443" lon="2.16716">
        <ele>90</ele>
        <time>2019-05-12T05:07:35.000Z</time>
      </trkpt>
      <trkpt lat="48.76439" lon="2.16709">
        <ele>90</ele>
        <time>2019-05-12T05:07:37.000Z</time>
      </trkpt>
      <trkpt lat="48.76435" lon="2.16704">
        <ele>90</ele>
        <time>2019-05-12T05:07:39.000Z</time>
      </trkpt>
      <trkpt lat="48.76431" lon="2.16698">
        <ele>90</ele>
        <time>2019-05-12T05:07:43.000Z</time>
      </trkpt>
      <trkpt lat="48.76431" lon="2.16698">
        <ele>90</ele>
        <time>2019-05-12T05:07:45.000Z</time>
      </trkpt>
      <trkpt lat="48.76431" lon="2.16698">
        <ele>90</ele>
        <time>2019-05-12T05:07:47.000Z</time>
      </trkpt>
      <trkpt lat="48.76427" lon="2.16687">
        <ele>91</ele>
        <time>2019-05-12T05:07:49.000Z</time>
      </trkpt>
      <trkpt lat="48.76425" lon="2.16679">
        <ele>91</ele>
        <time>2019-05-12T05:07:51.000Z</time>
      </trkpt>
      <trkpt lat="48.76425" lon="2.16679">
        <ele>91</ele>
        <time>2019-05-12T05:07:53.000Z</time>
      </trkpt>
      <trkpt lat="48.76425" lon="2.16679">
        <ele>91</ele>
        <time>2019-05-12T05:07:55.000Z</time>
      </trkpt>
      <trkpt lat="48.76425" lon="2.16679">
        <ele>91</ele>
        <time>2019-05-12T05:07:57.000Z</time>
      </trkpt>
      <trkpt lat="48.76421" lon="2.16665">
        <ele>92</ele>
        <time>2019-05-12T05:08:01.000Z</time>
      </trkpt>
      <trkpt lat="48.76419" lon="2.16656">
        <ele>91</ele>
        <time>2019-05-12T05:08:03.000Z</time>
      </trkpt>
      <trkpt lat="48.76417" lon="2.1665">
        <ele>91</ele>
        <time>2019-05-12T05:08:05.000Z</time>
      </trkpt>
      <trkpt lat="48.76417" lon="2.1665">
        <ele>91</ele>
        <time>2019-05-12T05:08:07.000Z</time>
      </trkpt>
      <trkpt lat="48.76417" lon="2.1665">
        <ele>91</ele>
        <time>2019-05-12T05:08:09.000Z</time>
      </trkpt>
      <trkpt lat="48.76417" lon="2.1665">
        <ele>91</ele>
        <time>2019-05-12T05:08:11.000Z</time>
      </trkpt>
      <trkpt lat="48.76417" lon="2.1665">
        <ele>91</ele>
        <time>2019-05-12T05:08:19.000Z</time>
      </trkpt>
      <trkpt lat="48.76417" lon="2.1665">
        <ele>91</ele>
        <time>2019-05-12T05:08:21.000Z</time>
      </trkpt>
      <trkpt lat="48.76417" lon="2.1665">
        <ele>91</ele>
        <time>2019-05-12T05:08:23.000Z</time>
      </trkpt>
      <trkpt lat="48.76417" lon="2.1665">
        <ele>91</ele>
        <time>2019-05-12T05:08:25.000Z</time>
      </trkpt>
      <trkpt lat="48.76413" lon="2.16628">
        <ele>94</ele>
        <time>2019-05-12T05:08:27.000Z</time>
      </trkpt>
      <trkpt lat="48.76411" lon="2.16615">
        <ele>94</ele>
        <time>2019-05-12T05:08:29.000Z</time>
      </trkpt>
      <trkpt lat="48.7641" lon="2.16607">
        <ele>93</ele>
        <time>2019-05-12T05:08:31.000Z</time>
      </trkpt>
      <trkpt lat="48.76407" lon="2.16598">
        <ele>93</ele>
        <time>2019-05-12T05:08:35.000Z</time>
      </trkpt>
      <trkpt lat="48.76407" lon="2.16598">
        <ele>93</ele>
        <time>2019-05-12T05:08:37.000Z</time>
      </trkpt>
      <trkpt lat="48.76406" lon="2.16586">
        <ele>93</ele>
        <time>2019-05-12T05:08:43.000Z</time>
      </trkpt>
      <trkpt lat="48.76405" lon="2.16579">
        <ele>92</ele>
        <time>2019-05-12T05:08:45.000Z</time>
      </trkpt>
      <trkpt lat="48.76405" lon="2.16579">
        <ele>92</ele>
        <time>2019-05-12T05:08:47.000Z</time>
      </trkpt>
      <trkpt lat="48.76405" lon="2.16571">
        <ele>93</ele>
        <time>2019-05-12T05:08:49.000Z</time>
      </trkpt>
      <trkpt lat="48.76405" lon="2.16571">
        <ele>93</ele>
        <time>2019-05-12T05:08:51.000Z</time>
      </trkpt>
      <trkpt lat="48.76406" lon="2.16564">
        <ele>93</ele>
        <time>2019-05-12T05:08:53.000Z</time>
      </trkpt>
      <trkpt lat="48.76408" lon="2.16556">
        <ele>93</ele>
        <time>2019-05-12T05:08:57.000Z</time>
      </trkpt>
      <trkpt lat="48.76409" lon="2.16548">
        <ele>93</ele>
        <time>2019-05-12T05:08:59.000Z</time>
      </trkpt>
      <trkpt lat="48.76409" lon="2.16548">
        <ele>93</ele>
        <time>2019-05-12T05:09:01.000Z</time>
      </trkpt>
      <trkpt lat="48.76409" lon="2.1654">
        <ele>93</ele>
        <time>2019-05-12T05:09:03.000Z</time>
      </trkpt>
      <trkpt lat="48.76409" lon="2.1654">
        <ele>93</ele>
        <time>2019-05-12T05:09:05.000Z</time>
      </trkpt>
      <trkpt lat="48.76409" lon="2.1654">
        <ele>93</ele>
        <time>2019-05-12T05:09:07.000Z</time>
      </trkpt>
      <trkpt lat="48.76409" lon="2.1654">
        <ele>93</ele>
        <time>2019-05-12T05:09:09.000Z</time>
      </trkpt>
      <trkpt lat="48.76409" lon="2.1654">
        <ele>93</ele>
        <time>2019-05-12T05:09:11.000Z</time>
      </trkpt>
      <trkpt lat="48.7641" lon="2.1652">
        <ele>93</ele>
        <time>2019-05-12T05:09:17.000Z</time>
      </trkpt>
      <trkpt lat="48.7641" lon="2.1652">
        <ele>93</ele>
        <time>2019-05-12T05:09:19.000Z</time>
      </trkpt>
      <trkpt lat="48.7641" lon="2.1652">
        <ele>93</ele>
        <time>2019-05-12T05:09:21.000Z</time>
      </trkpt>
      <trkpt lat="48.7641" lon="2.1652">
        <ele>93</ele>
        <time>2019-05-12T05:09:23.000Z</time>
      </trkpt>
      <trkpt lat="48.7641" lon="2.1652">
        <ele>93</ele>
        <time>2019-05-12T05:09:27.000Z</time>
      </trkpt>
      <trkpt lat="48.7641" lon="2.1652">
        <ele>93</ele>
        <time>2019-05-12T05:09:29.000Z</time>
      </trkpt>
      <trkpt lat="48.7641" lon="2.1652">
        <ele>93</ele>
        <time>2019-05-12T05:09:31.000Z</time>
      </trkpt>
      <trkpt lat="48.7641" lon="2.1652">
        <ele>93</ele>
        <time>2019-05-12T05:09:35.000Z</time>
      </trkpt>
      <trkpt lat="48.7641" lon="2.1652">
        <ele>93</ele>
        <time>2019-05-12T05:09:39.000Z</time>
      </trkpt>
      <trkpt lat="48.76411" lon="2.16488">
        <ele>93</ele>
        <time>2019-05-12T05:09:43.000Z</time>
      </trkpt>
      <trkpt lat="48.76412" lon="2.1647">
        <ele>93</ele>
        <time>2019-05-12T05:09:45.000Z</time>
      </trkpt>
      <trkpt lat="48.76412" lon="2.16459">
        <ele>93</ele>
        <time>2019-05-12T05:09:47.000Z</time>
      </trkpt>
      <trkpt lat="48.76412" lon="2.16452">
        <ele>93</ele>
        <time>2019-05-12T05:09:49.000Z</time>
      </trkpt>
      <trkpt lat="48.76412" lon="2.16452">
        <ele>93</ele>
        <time>2019-05-12T05:09:51.000Z</time>
      </trkpt>
      <trkpt lat="48.76412" lon="2.16452">
        <ele>93</ele>
        <time>2019-05-12T05:09:57.000Z</time>
      </trkpt>
      <trkpt lat="48.76412" lon="2.16452">
        <ele>93</ele>
        <time>2019-05-12T05:09:59.000Z</time>
      </trkpt>
      <trkpt lat="48.76412" lon="2.16452">
        <ele>93</ele>
        <time>2019-05-12T05:10:01.000Z</time>
      </trkpt>
      <trkpt lat="48.76411" lon="2.16432">
        <ele>93</ele>
        <time>2019-05-12T05:10:03.000Z</time>
      </trkpt>
      <trkpt lat="48.7641" lon="2.16419">
        <ele>92</ele>
        <time>2019-05-12T05:10:05.000Z</time>
      </trkpt>
      <trkpt lat="48.7641" lon="2.1641">
        <ele>93</ele>
        <time>2019-05-12T05:10:07.000Z</time>
      </trkpt>
      <trkpt lat="48.7641" lon="2.1641">
        <ele>93</ele>
        <time>2019-05-12T05:10:09.000Z</time>
      </trkpt>
      <trkpt lat="48.7641" lon="2.16401">
        <ele>93</ele>
        <time>2019-05-12T05:10:11.000Z</time>
      </trkpt>
      <trkpt lat="48.76411" lon="2.16392">
        <ele>93</ele>
        <time>2019-05-12T05:10:15.000Z</time>
      </trkpt>
      <trkpt lat="48.76412" lon="2.16383">
        <ele>93</ele>
        <time>2019-05-12T05:10:19.000Z</time>
      </trkpt>
      <trkpt lat="48.76412" lon="2.16383">
        <ele>93</ele>
        <time>2019-05-12T05:10:21.000Z</time>
      </trkpt>
      <trkpt lat="48.76412" lon="2.16383">
        <ele>93</ele>
        <time>2019-05-12T05:10:23.000Z</time>
      </trkpt>
      <trkpt lat="48.76414" lon="2.16375">
        <ele>93</ele>
        <time>2019-05-12T05:10:25.000Z</time>
      </trkpt>
      <trkpt lat="48.76415" lon="2.16368">
        <ele>93</ele>
        <time>2019-05-12T05:10:27.000Z</time>
      </trkpt>
      <trkpt lat="48.76415" lon="2.16368">
        <ele>93</ele>
        <time>2019-05-12T05:10:29.000Z</time>
      </trkpt>
      <trkpt lat="48.76417" lon="2.16352">
        <ele>92</ele>
        <time>2019-05-12T05:10:39.000Z</time>
      </trkpt>
      <trkpt lat="48.76418" lon="2.16343">
        <ele>92</ele>
        <time>2019-05-12T05:10:41.000Z</time>
      </trkpt>
      <trkpt lat="48.76418" lon="2.16343">
        <ele>92</ele>
        <time>2019-05-12T05:10:43.000Z</time>
      </trkpt>
      <trkpt lat="48.76418" lon="2.16343">
        <ele>92</ele>
        <time>2019-05-12T05:10:45.000Z</time>
      </trkpt>
      <trkpt lat="48.76418" lon="2.16343">
        <ele>92</ele>
        <time>2019-05-12T05:10:47.000Z</time>
      </trkpt>
      <trkpt lat="48.7642" lon="2.16331">
        <ele>92</ele>
        <time>2019-05-12T05:10:49.000Z</time>
      </trkpt>
      <trkpt lat="48.7642" lon="2.16331">
        <ele>92</ele>
        <time>2019-05-12T05:10:51.000Z</time>
      </trkpt>
      <trkpt lat="48.7642" lon="2.16331">
        <ele>92</ele>
        <time>2019-05-12T05:10:53.000Z</time>
      </trkpt>
      <trkpt lat="48.7642" lon="2.16331">
        <ele>92</ele>
        <time>2019-05-12T05:10:55.000Z</time>
      </trkpt>
      <trkpt lat="48.76421" lon="2.16315">
        <ele>91</ele>
        <time>2019-05-12T05:10:59.000Z</time>
      </trkpt>
      <trkpt lat="48.76421" lon="2.16305">
        <ele>91</ele>
        <time>2019-05-12T05:11:01.000Z</time>
      </trkpt>
      <trkpt lat="48.76421" lon="2.16305">
        <ele>91</ele>
        <time>2019-05-12T05:11:03.000Z</time>
      </trkpt>
      <trkpt lat="48.76421" lon="2.16305">
        <ele>91</ele>
        <time>2019-05-12T05:11:05.000Z</time>
      </trkpt>
      <trkpt lat="48.76422" lon="2.16295">
        <ele>91</ele>
        <time>2019-05-12T05:11:07.000Z</time>
      </trkpt>
      <trkpt lat="48.76423" lon="2.16285">
        <ele>91</ele>
        <time>2019-05-12T05:11:11.000Z</time>
      </trkpt>
      <trkpt lat="48.76423" lon="2.16285">
        <ele>91</ele>
        <time>2019-05-12T05:11:13.000Z</time>
      </trkpt>
      <trkpt lat="48.76423" lon="2.16285">
        <ele>91</ele>
        <time>2019-05-12T05:11:15.000Z</time>
      </trkpt>
      <trkpt lat="48.76424" lon="2.16273">
        <ele>91</ele>
        <time>2019-05-12T05:11:19.000Z</time>
      </trkpt>
      <trkpt lat="48.76425" lon="2.16262">
        <ele>91</ele>
        <time>2019-05-12T05:11:23.000Z</time>
      </trkpt>
      <trkpt lat="48.76425" lon="2.16262">
        <ele>91</ele>
        <time>2019-05-12T05:11:25.000Z</time>
      </trkpt>
      <trkpt lat="48.76425" lon="2.16253">
        <ele>91</ele>
        <time>2019-05-12T05:11:27.000Z</time>
      </trkpt>
      <trkpt lat="48.76425" lon="2.16246">
        <ele>91</ele>
        <time>2019-05-12T05:11:29.000Z</time>
      </trkpt>
      <trkpt lat="48.76425" lon="2.16246">
        <ele>91</ele>
        <time>2019-05-12T05:11:31.000Z</time>
      </trkpt>
      <trkpt lat="48.76426" lon="2.16235">
        <ele>91</ele>
        <time>2019-05-12T05:11:35.000Z</time>
      </trkpt>
      <trkpt lat="48.76427" lon="2.16225">
        <ele>91</ele>
        <time>2019-05-12T05:11:39.000Z</time>
      </trkpt>
      <trkpt lat="48.76427" lon="2.16225">
        <ele>91</ele>
        <time>2019-05-12T05:11:41.000Z</time>
      </trkpt>
      <trkpt lat="48.76427" lon="2.16213">
        <ele>91</ele>
        <time>2019-05-12T05:11:45.000Z</time>
      </trkpt>
      <trkpt lat="48.76427" lon="2.16213">
        <ele>91</ele>
        <time>2019-05-12T05:11:47.000Z</time>
      </trkpt>
      <trkpt lat="48.76428" lon="2.16204">
        <ele>92</ele>
        <time>2019-05-12T05:11:49.000Z</time>
      </trkpt>
      <trkpt lat="48.76428" lon="2.16204">
        <ele>92</ele>
        <time>2019-05-12T05:11:51.000Z</time>
      </trkpt>
      <trkpt lat="48.76428" lon="2.16204">
        <ele>92</ele>
        <time>2019-05-12T05:11:53.000Z</time>
      </trkpt>
      <trkpt lat="48.76428" lon="2.16204">
        <ele>92</ele>
        <time>2019-05-12T05:11:55.000Z</time>
      </trkpt>
      <trkpt lat="48.76428" lon="2.16204">
        <ele>92</ele>
        <time>2019-05-12T05:11:59.000Z</time>
      </trkpt>
      <trkpt lat="48.76431" lon="2.16184">
        <ele>92</ele>
        <time>2019-05-12T05:12:03.000Z</time>
      </trkpt>
      <trkpt lat="48.76433" lon="2.16171">
        <ele>92</ele>
        <time>2019-05-12T05:12:05.000Z</time>
      </trkpt>
      <trkpt lat="48.76436" lon="2.16162">
        <ele>93</ele>
        <time>2019-05-12T05:12:09.000Z</time>
      </trkpt>
      <trkpt lat="48.76436" lon="2.16162">
        <ele>93</ele>
        <time>2019-05-12T05:12:11.000Z</time>
      </trkpt>
      <trkpt lat="48.76436" lon="2.16162">
        <ele>93</ele>
        <time>2019-05-12T05:12:13.000Z</time>
      </trkpt>
      <trkpt lat="48.76436" lon="2.16162">
        <ele>93</ele>
        <time>2019-05-12T05:12:15.000Z</time>
      </trkpt>
      <trkpt lat="48.76436" lon="2.16162">
        <ele>93</ele>
        <time>2019-05-12T05:12:17.000Z</time>
      </trkpt>
      <trkpt lat="48.76436" lon="2.16162">
        <ele>93</ele>
        <time>2019-05-12T05:12:23.000Z</time>
      </trkpt>
      <trkpt lat="48.76445" lon="2.16151">
        <ele>92</ele>
        <time>2019-05-12T05:12:25.000Z</time>
      </trkpt>
      <trkpt lat="48.76449" lon="2.16145">
        <ele>92</ele>
        <time>2019-05-12T05:12:27.000Z</time>
      </trkpt>
      <trkpt lat="48.76449" lon="2.16145">
        <ele>92</ele>
        <time>2019-05-12T05:12:31.000Z</time>
      </trkpt>
      <trkpt lat="48.76446" lon="2.16138">
        <ele>92</ele>
        <time>2019-05-12T05:12:35.000Z</time>
      </trkpt>
      <trkpt lat="48.76441" lon="2.16132">
        <ele>92</ele>
        <time>2019-05-12T05:12:39.000Z</time>
      </trkpt>
      <trkpt lat="48.76441" lon="2.16132">
        <ele>92</ele>
        <time>2019-05-12T05:12:41.000Z</time>
      </trkpt>
      <trkpt lat="48.76441" lon="2.16132">
        <ele>92</ele>
        <time>2019-05-12T05:12:43.000Z</time>
      </trkpt>
      <trkpt lat="48.76441" lon="2.16132">
        <ele>92</ele>
        <time>2019-05-12T05:12:49.000Z</time>
      </trkpt>
      <trkpt lat="48.76441" lon="2.16132">
        <ele>92</ele>
        <time>2019-05-12T05:12:51.000Z</time>
      </trkpt>
      <trkpt lat="48.76441" lon="2.16132">
        <ele>92</ele>
        <time>2019-05-12T05:12:53.000Z</time>
      </trkpt>
      <trkpt lat="48.76441" lon="2.16132">
        <ele>92</ele>
        <time>2019-05-12T05:12:55.000Z</time>
      </trkpt>
      <trkpt lat="48.76441" lon="2.16132">
        <ele>92</ele>
        <time>2019-05-12T05:12:57.000Z</time>
      </trkpt>
      <trkpt lat="48.76429" lon="2.16113">
        <ele>93</ele>
        <time>2019-05-12T05:13:03.000Z</time>
      </trkpt>
      <trkpt lat="48.76423" lon="2.16102">
        <ele>93</ele>
        <time>2019-05-12T05:13:05.000Z</time>
      </trkpt>
      <trkpt lat="48.76418" lon="2.16095">
        <ele>93</ele>
        <time>2019-05-12T05:13:07.000Z</time>
      </trkpt>
      <trkpt lat="48.76415" lon="2.16089">
        <ele>94</ele>
        <time>2019-05-12T05:13:11.000Z</time>
      </trkpt>
      <trkpt lat="48.76411" lon="2.16083">
        <ele>94</ele>
        <time>2019-05-12T05:13:15.000Z</time>
      </trkpt>
      <trkpt lat="48.76407" lon="2.16076">
        <ele>95</ele>
        <time>2019-05-12T05:13:19.000Z</time>
      </trkpt>
      <trkpt lat="48.76407" lon="2.16076">
        <ele>95</ele>
        <time>2019-05-12T05:13:21.000Z</time>
      </trkpt>
      <trkpt lat="48.76407" lon="2.16076">
        <ele>95</ele>
        <time>2019-05-12T05:13:23.000Z</time>
      </trkpt>
      <trkpt lat="48.76407" lon="2.16076">
        <ele>95</ele>
        <time>2019-05-12T05:13:25.000Z</time>
      </trkpt>
      <trkpt lat="48.76407" lon="2.16076">
        <ele>95</ele>
        <time>2019-05-12T05:13:27.000Z</time>
      </trkpt>
      <trkpt lat="48.764" lon="2.16065">
        <ele>97</ele>
        <time>2019-05-12T05:13:31.000Z</time>
      </trkpt>
      <trkpt lat="48.76395" lon="2.16058">
        <ele>97</ele>
        <time>2019-05-12T05:13:33.000Z</time>
      </trkpt>
      <trkpt lat="48.76391" lon="2.16053">
        <ele>98</ele>
        <time>2019-05-12T05:13:35.000Z</time>
      </trkpt>
      <trkpt lat="48.76388" lon="2.16047">
        <ele>98</ele>
        <time>2019-05-12T05:13:39.000Z</time>
      </trkpt>
      <trkpt lat="48.76388" lon="2.16047">
        <ele>98</ele>
        <time>2019-05-12T05:13:41.000Z</time>
      </trkpt>
      <trkpt lat="48.76388" lon="2.16047">
        <ele>98</ele>
        <time>2019-05-12T05:13:43.000Z</time>
      </trkpt>
      <trkpt lat="48.76388" lon="2.16047">
        <ele>98</ele>
        <time>2019-05-12T05:13:49.000Z</time>
      </trkpt>
      <trkpt lat="48.76388" lon="2.16047">
        <ele>98</ele>
        <time>2019-05-12T05:13:51.000Z</time>
      </trkpt>
      <trkpt lat="48.76388" lon="2.16047">
        <ele>98</ele>
        <time>2019-05-12T05:13:53.000Z</time>
      </trkpt>
      <trkpt lat="48.76388" lon="2.16047">
        <ele>98</ele>
        <time>2019-05-12T05:13:55.000Z</time>
      </trkpt>
      <trkpt lat="48.76388" lon="2.16047">
        <ele>98</ele>
        <time>2019-05-12T05:13:57.000Z</time>
      </trkpt>
      <trkpt lat="48.76382" lon="2.1603">
        <ele>99</ele>
        <time>2019-05-12T05:14:01.000Z</time>
      </trkpt>
      <trkpt lat="48.76379" lon="2.16015">
        <ele>99</ele>
        <time>2019-05-12T05:14:07.000Z</time>
      </trkpt>
      <trkpt lat="48.76378" lon="2.16005">
        <ele>99</ele>
        <time>2019-05-12T05:14:09.000Z</time>
      </trkpt>
      <trkpt lat="48.76378" lon="2.15998">
        <ele>103</ele>
        <time>2019-05-12T05:14:11.000Z</time>
      </trkpt>
      <trkpt lat="48.76378" lon="2.1599">
        <ele>104</ele>
        <time>2019-05-12T05:14:15.000Z</time>
      </trkpt>
      <trkpt lat="48.76378" lon="2.15981">
        <ele>104</ele>
        <time>2019-05-12T05:14:19.000Z</time>
      </trkpt>
      <trkpt lat="48.76378" lon="2.15981">
        <ele>104</ele>
        <time>2019-05-12T05:14:21.000Z</time>
      </trkpt>
      <trkpt lat="48.76378" lon="2.15981">
        <ele>104</ele>
        <time>2019-05-12T05:14:23.000Z</time>
      </trkpt>
      <trkpt lat="48.76377" lon="2.15967">
        <ele>105</ele>
        <time>2019-05-12T05:14:27.000Z</time>
      </trkpt>
      <trkpt lat="48.76377" lon="2.15958">
        <ele>105</ele>
        <time>2019-05-12T05:14:29.000Z</time>
      </trkpt>
      <trkpt lat="48.76377" lon="2.15958">
        <ele>105</ele>
        <time>2019-05-12T05:14:31.000Z</time>
      </trkpt>
      <trkpt lat="48.76378" lon="2.1595">
        <ele>106</ele>
        <time>2019-05-12T05:14:33.000Z</time>
      </trkpt>
      <trkpt lat="48.76378" lon="2.1595">
        <ele>106</ele>
        <time>2019-05-12T05:14:35.000Z</time>
      </trkpt>
      <trkpt lat="48.76378" lon="2.1595">
        <ele>106</ele>
        <time>2019-05-12T05:14:37.000Z</time>
      </trkpt>
      <trkpt lat="48.76378" lon="2.15939">
        <ele>106</ele>
        <time>2019-05-12T05:14:41.000Z</time>
      </trkpt>
      <trkpt lat="48.76379" lon="2.15931">
        <ele>106</ele>
        <time>2019-05-12T05:14:43.000Z</time>
      </trkpt>
      <trkpt lat="48.76379" lon="2.15931">
        <ele>106</ele>
        <time>2019-05-12T05:14:45.000Z</time>
      </trkpt>
      <trkpt lat="48.76379" lon="2.15931">
        <ele>106</ele>
        <time>2019-05-12T05:14:47.000Z</time>
      </trkpt>
      <trkpt lat="48.76379" lon="2.15931">
        <ele>106</ele>
        <time>2019-05-12T05:14:49.000Z</time>
      </trkpt>
      <trkpt lat="48.76379" lon="2.15931">
        <ele>106</ele>
        <time>2019-05-12T05:14:51.000Z</time>
      </trkpt>
      <trkpt lat="48.76377" lon="2.15916">
        <ele>111</ele>
        <time>2019-05-12T05:14:57.000Z</time>
      </trkpt>
      <trkpt lat="48.76377" lon="2.15916">
        <ele>111</ele>
        <time>2019-05-12T05:14:59.000Z</time>
      </trkpt>
      <trkpt lat="48.76377" lon="2.15916">
        <ele>111</ele>
        <time>2019-05-12T05:15:01.000Z</time>
      </trkpt>
      <trkpt lat="48.76377" lon="2.15916">
        <ele>111</ele>
        <time>2019-05-12T05:15:05.000Z</time>
      </trkpt>
      <trkpt lat="48.76377" lon="2.15916">
        <ele>111</ele>
        <time>2019-05-12T05:15:07.000Z</time>
      </trkpt>
      <trkpt lat="48.76377" lon="2.15916">
        <ele>111</ele>
        <time>2019-05-12T05:15:09.000Z</time>
      </trkpt>
      <trkpt lat="48.76377" lon="2.15916">
        <ele>111</ele>
        <time>2019-05-12T05:15:11.000Z</time>
      </trkpt>
      <trkpt lat="48.76377" lon="2.15891">
        <ele>112</ele>
        <time>2019-05-12T05:15:17.000Z</time>
      </trkpt>
      <trkpt lat="48.76376" lon="2.15876">
        <ele>113</ele>
        <time>2019-05-12T05:15:19.000Z</time>
      </trkpt>
      <trkpt lat="48.76376" lon="2.15876">
        <ele>113</ele>
        <time>2019-05-12T05:15:21.000Z</time>
      </trkpt>
      <trkpt lat="48.76376" lon="2.15876">
        <ele>113</ele>
        <time>2019-05-12T05:15:23.000Z</time>
      </trkpt>
      <trkpt lat="48.76376" lon="2.15876">
        <ele>113</ele>
        <time>2019-05-12T05:15:25.000Z</time>
      </trkpt>
      <trkpt lat="48.76376" lon="2.15876">
        <ele>113</ele>
        <time>2019-05-12T05:15:27.000Z</time>
      </trkpt>
      <trkpt lat="48.76376" lon="2.15876">
        <ele>113</ele>
        <time>2019-05-12T05:15:33.000Z</time>
      </trkpt>
      <trkpt lat="48.76376" lon="2.15876">
        <ele>113</ele>
        <time>2019-05-12T05:15:35.000Z</time>
      </trkpt>
      <trkpt lat="48.76376" lon="2.15876">
        <ele>113</ele>
        <time>2019-05-12T05:15:37.000Z</time>
      </trkpt>
      <trkpt lat="48.76376" lon="2.15876">
        <ele>113</ele>
        <time>2019-05-12T05:15:39.000Z</time>
      </trkpt>
      <trkpt lat="48.76376" lon="2.15876">
        <ele>113</ele>
        <time>2019-05-12T05:15:45.000Z</time>
      </trkpt>
      <trkpt lat="48.76369" lon="2.15842">
        <ele>115</ele>
        <time>2019-05-12T05:15:57.000Z</time>
      </trkpt>
      <trkpt lat="48.76369" lon="2.15842">
        <ele>115</ele>
        <time>2019-05-12T05:15:59.000Z</time>
      </trkpt>
      <trkpt lat="48.76369" lon="2.15842">
        <ele>115</ele>
        <time>2019-05-12T05:16:01.000Z</time>
      </trkpt>
      <trkpt lat="48.76369" lon="2.15842">
        <ele>115</ele>
        <time>2019-05-12T05:16:15.000Z</time>
      </trkpt>
      <trkpt lat="48.76365" lon="2.15794">
        <ele>119</ele>
        <time>2019-05-12T05:16:31.000Z</time>
      </trkpt>
      <trkpt lat="48.76363" lon="2.15769">
        <ele>120</ele>
        <time>2019-05-12T05:16:33.000Z</time>
      </trkpt>
      <trkpt lat="48.76363" lon="2.15769">
        <ele>120</ele>
        <time>2019-05-12T05:16:35.000Z</time>
      </trkpt>
      <trkpt lat="48.76363" lon="2.15769">
        <ele>120</ele>
        <time>2019-05-12T05:16:43.000Z</time>
      </trkpt>
      <trkpt lat="48.76363" lon="2.15769">
        <ele>120</ele>
        <time>2019-05-12T05:16:45.000Z</time>
      </trkpt>
      <trkpt lat="48.76363" lon="2.15769">
        <ele>120</ele>
        <time>2019-05-12T05:16:47.000Z</time>
      </trkpt>
      <trkpt lat="48.76359" lon="2.15744">
        <ele>124</ele>
        <time>2019-05-12T05:16:49.000Z</time>
      </trkpt>
      <trkpt lat="48.76357" lon="2.15728">
        <ele>124</ele>
        <time>2019-05-12T05:16:51.000Z</time>
      </trkpt>
      <trkpt lat="48.76357" lon="2.15728">
        <ele>124</ele>
        <time>2019-05-12T05:16:53.000Z</time>
      </trkpt>
      <trkpt lat="48.76356" lon="2.15717">
        <ele>124</ele>
        <time>2019-05-12T05:16:55.000Z</time>
      </trkpt>
      <trkpt lat="48.76356" lon="2.15717">
        <ele>124</ele>
        <time>2019-05-12T05:16:57.000Z</time>
      </trkpt>
      <trkpt lat="48.76356" lon="2.15717">
        <ele>124</ele>
        <time>2019-05-12T05:16:59.000Z</time>
      </trkpt>
      <trkpt lat="48.76356" lon="2.15717">
        <ele>124</ele>
        <time>2019-05-12T05:17:01.000Z</time>
      </trkpt>
      <trkpt lat="48.76356" lon="2.15704">
        <ele>124</ele>
        <time>2019-05-12T05:17:05.000Z</time>
      </trkpt>
      <trkpt lat="48.76355" lon="2.15695">
        <ele>124</ele>
        <time>2019-05-12T05:17:07.000Z</time>
      </trkpt>
      <trkpt lat="48.76355" lon="2.15695">
        <ele>124</ele>
        <time>2019-05-12T05:17:09.000Z</time>
      </trkpt>
      <trkpt lat="48.76355" lon="2.15695">
        <ele>124</ele>
        <time>2019-05-12T05:17:11.000Z</time>
      </trkpt>
      <trkpt lat="48.76355" lon="2.15695">
        <ele>124</ele>
        <time>2019-05-12T05:17:13.000Z</time>
      </trkpt>
      <trkpt lat="48.76355" lon="2.15695">
        <ele>124</ele>
        <time>2019-05-12T05:17:15.000Z</time>
      </trkpt>
      <trkpt lat="48.76355" lon="2.15695">
        <ele>124</ele>
        <time>2019-05-12T05:17:17.000Z</time>
      </trkpt>
      <trkpt lat="48.76355" lon="2.1568">
        <ele>125</ele>
        <time>2019-05-12T05:17:19.000Z</time>
      </trkpt>
      <trkpt lat="48.76355" lon="2.1568">
        <ele>125</ele>
        <time>2019-05-12T05:17:21.000Z</time>
      </trkpt>
      <trkpt lat="48.76355" lon="2.1568">
        <ele>125</ele>
        <time>2019-05-12T05:17:23.000Z</time>
      </trkpt>
      <trkpt lat="48.76355" lon="2.1568">
        <ele>125</ele>
        <time>2019-05-12T05:17:25.000Z</time>
      </trkpt>
      <trkpt lat="48.76355" lon="2.1568">
        <ele>125</ele>
        <time>2019-05-12T05:17:31.000Z</time>
      </trkpt>
      <trkpt lat="48.76355" lon="2.1568">
        <ele>125</ele>
        <time>2019-05-12T05:17:33.000Z</time>
      </trkpt>
      <trkpt lat="48.76355" lon="2.1568">
        <ele>125</ele>
        <time>2019-05-12T05:17:49.000Z</time>
      </trkpt>
      <trkpt lat="48.7635" lon="2.15648">
        <ele>128</ele>
        <time>2019-05-12T05:17:53.000Z</time>
      </trkpt>
      <trkpt lat="48.76347" lon="2.1563">
        <ele>127</ele>
        <time>2019-05-12T05:17:55.000Z</time>
      </trkpt>
      <trkpt lat="48.76345" lon="2.15619">
        <ele>128</ele>
        <time>2019-05-12T05:17:57.000Z</time>
      </trkpt>
      <trkpt lat="48.76345" lon="2.1561">
        <ele>128</ele>
        <time>2019-05-12T05:17:59.000Z</time>
      </trkpt>
      <trkpt lat="48.76342" lon="2.15603">
        <ele>130</ele>
        <time>2019-05-12T05:18:03.000Z</time>
      </trkpt>
      <trkpt lat="48.7634" lon="2.15596">
        <ele>131</ele>
        <time>2019-05-12T05:18:05.000Z</time>
      </trkpt>
      <trkpt lat="48.76338" lon="2.1559">
        <ele>132</ele>
        <time>2019-05-12T05:18:09.000Z</time>
      </trkpt>
      <trkpt lat="48.76338" lon="2.1559">
        <ele>132</ele>
        <time>2019-05-12T05:18:11.000Z</time>
      </trkpt>
      <trkpt lat="48.76338" lon="2.1559">
        <ele>132</ele>
        <time>2019-05-12T05:18:13.000Z</time>
      </trkpt>
      <trkpt lat="48.76338" lon="2.1559">
        <ele>132</ele>
        <time>2019-05-12T05:18:15.000Z</time>
      </trkpt>
      <trkpt lat="48.76338" lon="2.1559">
        <ele>132</ele>
        <time>2019-05-12T05:18:17.000Z</time>
      </trkpt>
      <trkpt lat="48.76338" lon="2.1559">
        <ele>132</ele>
        <time>2019-05-12T05:18:19.000Z</time>
      </trkpt>
      <trkpt lat="48.76338" lon="2.1559">
        <ele>132</ele>
        <time>2019-05-12T05:18:21.000Z</time>
      </trkpt>
      <trkpt lat="48.76332" lon="2.15572">
        <ele>137</ele>
        <time>2019-05-12T05:18:27.000Z</time>
      </trkpt>
      <trkpt lat="48.76328" lon="2.15561">
        <ele>138</ele>
        <time>2019-05-12T05:18:29.000Z</time>
      </trkpt>
      <trkpt lat="48.76326" lon="2.15555">
        <ele>139</ele>
        <time>2019-05-12T05:18:31.000Z</time>
      </trkpt>
      <trkpt lat="48.76324" lon="2.15549">
        <ele>139</ele>
        <time>2019-05-12T05:18:35.000Z</time>
      </trkpt>
      <trkpt lat="48.76324" lon="2.15549">
        <ele>139</ele>
        <time>2019-05-12T05:18:37.000Z</time>
      </trkpt>
      <trkpt lat="48.76321" lon="2.15538">
        <ele>140</ele>
        <time>2019-05-12T05:18:41.000Z</time>
      </trkpt>
      <trkpt lat="48.76319" lon="2.15529">
        <ele>140</ele>
        <time>2019-05-12T05:18:43.000Z</time>
      </trkpt>
      <trkpt lat="48.76319" lon="2.15529">
        <ele>140</ele>
        <time>2019-05-12T05:18:45.000Z</time>
      </trkpt>
      <trkpt lat="48.76319" lon="2.15529">
        <ele>140</ele>
        <time>2019-05-12T05:18:47.000Z</time>
      </trkpt>
      <trkpt lat="48.76319" lon="2.15529">
        <ele>140</ele>
        <time>2019-05-12T05:18:49.000Z</time>
      </trkpt>
      <trkpt lat="48.76319" lon="2.15529">
        <ele>140</ele>
        <time>2019-05-12T05:18:51.000Z</time>
      </trkpt>
      <trkpt lat="48.76319" lon="2.15529">
        <ele>140</ele>
        <time>2019-05-12T05:18:53.000Z</time>
      </trkpt>
      <trkpt lat="48.76319" lon="2.15529">
        <ele>140</ele>
        <time>2019-05-12T05:18:55.000Z</time>
      </trkpt>
      <trkpt lat="48.76319" lon="2.15529">
        <ele>140</ele>
        <time>2019-05-12T05:18:57.000Z</time>
      </trkpt>
      <trkpt lat="48.7632" lon="2.15498">
        <ele>141</ele>
        <time>2019-05-12T05:19:21.000Z</time>
      </trkpt>
      <trkpt lat="48.7632" lon="2.1548">
        <ele>141</ele>
        <time>2019-05-12T05:19:23.000Z</time>
      </trkpt>
      <trkpt lat="48.76321" lon="2.15468">
        <ele>142</ele>
        <time>2019-05-12T05:19:25.000Z</time>
      </trkpt>
      <trkpt lat="48.76321" lon="2.15468">
        <ele>142</ele>
        <time>2019-05-12T05:19:29.000Z</time>
      </trkpt>
      <trkpt lat="48.76321" lon="2.15468">
        <ele>142</ele>
        <time>2019-05-12T05:19:31.000Z</time>
      </trkpt>
      <trkpt lat="48.76321" lon="2.15468">
        <ele>142</ele>
        <time>2019-05-12T05:19:33.000Z</time>
      </trkpt>
      <trkpt lat="48.76321" lon="2.15468">
        <ele>142</ele>
        <time>2019-05-12T05:19:35.000Z</time>
      </trkpt>
      <trkpt lat="48.76321" lon="2.15468">
        <ele>142</ele>
        <time>2019-05-12T05:19:37.000Z</time>
      </trkpt>
      <trkpt lat="48.76325" lon="2.15447">
        <ele>142</ele>
        <time>2019-05-12T05:19:41.000Z</time>
      </trkpt>
      <trkpt lat="48.76328" lon="2.15433">
        <ele>142</ele>
        <time>2019-05-12T05:19:43.000Z</time>
      </trkpt>
      <trkpt lat="48.76329" lon="2.15423">
        <ele>141</ele>
        <time>2019-05-12T05:19:45.000Z</time>
      </trkpt>
      <trkpt lat="48.76329" lon="2.15423">
        <ele>141</ele>
        <time>2019-05-12T05:19:47.000Z</time>
      </trkpt>
      <trkpt lat="48.76329" lon="2.15423">
        <ele>141</ele>
        <time>2019-05-12T05:19:49.000Z</time>
      </trkpt>
      <trkpt lat="48.76329" lon="2.15423">
        <ele>141</ele>
        <time>2019-05-12T05:19:51.000Z</time>
      </trkpt>
      <trkpt lat="48.76329" lon="2.15423">
        <ele>141</ele>
        <time>2019-05-12T05:19:53.000Z</time>
      </trkpt>
      <trkpt lat="48.76329" lon="2.15405">
        <ele>142</ele>
        <time>2019-05-12T05:19:57.000Z</time>
      </trkpt>
      <trkpt lat="48.76328" lon="2.15395">
        <ele>143</ele>
        <time>2019-05-12T05:19:59.000Z</time>
      </trkpt>
      <trkpt lat="48.76328" lon="2.15395">
        <ele>143</ele>
        <time>2019-05-12T05:20:01.000Z</time>
      </trkpt>
      <trkpt lat="48.76327" lon="2.15387">
        <ele>143</ele>
        <time>2019-05-12T05:20:05.000Z</time>
      </trkpt>
      <trkpt lat="48.76324" lon="2.15382">
        <ele>144</ele>
        <time>2019-05-12T05:20:09.000Z</time>
      </trkpt>
      <trkpt lat="48.76318" lon="2.15378">
        <ele>144</ele>
        <time>2019-05-12T05:20:17.000Z</time>
      </trkpt>
      <trkpt lat="48.76318" lon="2.15378">
        <ele>144</ele>
        <time>2019-05-12T05:20:21.000Z</time>
      </trkpt>
      <trkpt lat="48.76311" lon="2.15374">
        <ele>144</ele>
        <time>2019-05-12T05:20:25.000Z</time>
      </trkpt>
      <trkpt lat="48.76304" lon="2.15372">
        <ele>144</ele>
        <time>2019-05-12T05:20:29.000Z</time>
      </trkpt>
      <trkpt lat="48.76297" lon="2.15371">
        <ele>144</ele>
        <time>2019-05-12T05:20:33.000Z</time>
      </trkpt>
      <trkpt lat="48.76297" lon="2.15371">
        <ele>144</ele>
        <time>2019-05-12T05:20:35.000Z</time>
      </trkpt>
      <trkpt lat="48.76297" lon="2.15371">
        <ele>144</ele>
        <time>2019-05-12T05:20:37.000Z</time>
      </trkpt>
      <trkpt lat="48.76297" lon="2.15371">
        <ele>144</ele>
        <time>2019-05-12T05:20:39.000Z</time>
      </trkpt>
      <trkpt lat="48.76286" lon="2.15371">
        <ele>144</ele>
        <time>2019-05-12T05:20:43.000Z</time>
      </trkpt>
      <trkpt lat="48.76279" lon="2.15371">
        <ele>144</ele>
        <time>2019-05-12T05:20:45.000Z</time>
      </trkpt>
      <trkpt lat="48.76279" lon="2.15371">
        <ele>144</ele>
        <time>2019-05-12T05:20:47.000Z</time>
      </trkpt>
      <trkpt lat="48.76279" lon="2.15371">
        <ele>144</ele>
        <time>2019-05-12T05:20:49.000Z</time>
      </trkpt>
      <trkpt lat="48.76279" lon="2.15371">
        <ele>144</ele>
        <time>2019-05-12T05:20:51.000Z</time>
      </trkpt>
      <trkpt lat="48.76269" lon="2.15366">
        <ele>144</ele>
        <time>2019-05-12T05:20:57.000Z</time>
      </trkpt>
      <trkpt lat="48.76262" lon="2.15363">
        <ele>144</ele>
        <time>2019-05-12T05:20:59.000Z</time>
      </trkpt>
      <trkpt lat="48.76257" lon="2.15362">
        <ele>144</ele>
        <time>2019-05-12T05:21:01.000Z</time>
      </trkpt>
      <trkpt lat="48.76251" lon="2.15361">
        <ele>144</ele>
        <time>2019-05-12T05:21:06.000Z</time>
      </trkpt>
      <trkpt lat="48.76243" lon="2.15361">
        <ele>145</ele>
        <time>2019-05-12T05:21:12.000Z</time>
      </trkpt>
      <trkpt lat="48.76243" lon="2.15361">
        <ele>145</ele>
        <time>2019-05-12T05:21:14.000Z</time>
      </trkpt>
      <trkpt lat="48.76243" lon="2.15361">
        <ele>145</ele>
        <time>2019-05-12T05:21:16.000Z</time>
      </trkpt>
      <trkpt lat="48.76243" lon="2.15361">
        <ele>145</ele>
        <time>2019-05-12T05:21:18.000Z</time>
      </trkpt>
      <trkpt lat="48.76233" lon="2.15359">
        <ele>145</ele>
        <time>2019-05-12T05:21:22.000Z</time>
      </trkpt>
      <trkpt lat="48.76233" lon="2.15359">
        <ele>145</ele>
        <time>2019-05-12T05:21:24.000Z</time>
      </trkpt>
      <trkpt lat="48.76233" lon="2.15359">
        <ele>145</ele>
        <time>2019-05-12T05:21:26.000Z</time>
      </trkpt>
      <trkpt lat="48.76233" lon="2.15359">
        <ele>145</ele>
        <time>2019-05-12T05:21:28.000Z</time>
      </trkpt>
      <trkpt lat="48.76233" lon="2.15359">
        <ele>145</ele>
        <time>2019-05-12T05:21:30.000Z</time>
      </trkpt>
      <trkpt lat="48.76233" lon="2.15359">
        <ele>145</ele>
        <time>2019-05-12T05:21:32.000Z</time>
      </trkpt>
      <trkpt lat="48.76233" lon="2.15359">
        <ele>145</ele>
        <time>2019-05-12T05:21:34.000Z</time>
      </trkpt>
      <trkpt lat="48.76233" lon="2.15359">
        <ele>145</ele>
        <time>2019-05-12T05:21:36.000Z</time>
      </trkpt>
      <trkpt lat="48.7622" lon="2.15353">
        <ele>145</ele>
        <time>2019-05-12T05:21:38.000Z</time>
      </trkpt>
      <trkpt lat="48.76213" lon="2.1535">
        <ele>145</ele>
        <time>2019-05-12T05:21:40.000Z</time>
      </trkpt>
      <trkpt lat="48.76205" lon="2.15347">
        <ele>145</ele>
        <time>2019-05-12T05:21:46.000Z</time>
      </trkpt>
      <trkpt lat="48.76205" lon="2.15347">
        <ele>145</ele>
        <time>2019-05-12T05:21:48.000Z</time>
      </trkpt>
      <trkpt lat="48.76205" lon="2.15347">
        <ele>145</ele>
        <time>2019-05-12T05:21:50.000Z</time>
      </trkpt>
      <trkpt lat="48.76205" lon="2.15347">
        <ele>145</ele>
        <time>2019-05-12T05:21:52.000Z</time>
      </trkpt>
      <trkpt lat="48.76197" lon="2.15346">
        <ele>145</ele>
        <time>2019-05-12T05:21:54.000Z</time>
      </trkpt>
      <trkpt lat="48.76197" lon="2.15346">
        <ele>145</ele>
        <time>2019-05-12T05:21:56.000Z</time>
      </trkpt>
      <trkpt lat="48.76197" lon="2.15346">
        <ele>145</ele>
        <time>2019-05-12T05:21:58.000Z</time>
      </trkpt>
      <trkpt lat="48.76197" lon="2.15346">
        <ele>145</ele>
        <time>2019-05-12T05:22:00.000Z</time>
      </trkpt>
      <trkpt lat="48.76197" lon="2.15346">
        <ele>145</ele>
        <time>2019-05-12T05:22:02.000Z</time>
      </trkpt>
      <trkpt lat="48.76187" lon="2.15344">
        <ele>145</ele>
        <time>2019-05-12T05:22:04.000Z</time>
      </trkpt>
      <trkpt lat="48.7618" lon="2.15343">
        <ele>145</ele>
        <time>2019-05-12T05:22:06.000Z</time>
      </trkpt>
      <trkpt lat="48.7618" lon="2.15343">
        <ele>145</ele>
        <time>2019-05-12T05:22:08.000Z</time>
      </trkpt>
      <trkpt lat="48.7618" lon="2.15343">
        <ele>145</ele>
        <time>2019-05-12T05:22:10.000Z</time>
      </trkpt>
      <trkpt lat="48.7618" lon="2.15343">
        <ele>145</ele>
        <time>2019-05-12T05:22:12.000Z</time>
      </trkpt>
      <trkpt lat="48.76171" lon="2.15342">
        <ele>145</ele>
        <time>2019-05-12T05:22:14.000Z</time>
      </trkpt>
      <trkpt lat="48.76171" lon="2.15342">
        <ele>145</ele>
        <time>2019-05-12T05:22:18.000Z</time>
      </trkpt>
      <trkpt lat="48.76171" lon="2.15342">
        <ele>145</ele>
        <time>2019-05-12T05:22:20.000Z</time>
      </trkpt>
      <trkpt lat="48.76171" lon="2.15342">
        <ele>145</ele>
        <time>2019-05-12T05:22:28.000Z</time>
      </trkpt>
      <trkpt lat="48.76159" lon="2.1534">
        <ele>144</ele>
        <time>2019-05-12T05:22:30.000Z</time>
      </trkpt>
      <trkpt lat="48.76159" lon="2.1534">
        <ele>144</ele>
        <time>2019-05-12T05:22:32.000Z</time>
      </trkpt>
      <trkpt lat="48.7615" lon="2.15339">
        <ele>144</ele>
        <time>2019-05-12T05:22:34.000Z</time>
      </trkpt>
      <trkpt lat="48.76144" lon="2.15339">
        <ele>144</ele>
        <time>2019-05-12T05:22:36.000Z</time>
      </trkpt>
      <trkpt lat="48.76144" lon="2.15339">
        <ele>144</ele>
        <time>2019-05-12T05:22:38.000Z</time>
      </trkpt>
      <trkpt lat="48.76144" lon="2.15339">
        <ele>144</ele>
        <time>2019-05-12T05:22:40.000Z</time>
      </trkpt>
      <trkpt lat="48.76144" lon="2.15339">
        <ele>144</ele>
        <time>2019-05-12T05:22:42.000Z</time>
      </trkpt>
      <trkpt lat="48.76133" lon="2.1534">
        <ele>143</ele>
        <time>2019-05-12T05:22:48.000Z</time>
      </trkpt>
      <trkpt lat="48.76125" lon="2.15339">
        <ele>143</ele>
        <time>2019-05-12T05:22:50.000Z</time>
      </trkpt>
      <trkpt lat="48.7612" lon="2.15338">
        <ele>143</ele>
        <time>2019-05-12T05:22:52.000Z</time>
      </trkpt>
      <trkpt lat="48.76115" lon="2.15335">
        <ele>143</ele>
        <time>2019-05-12T05:22:56.000Z</time>
      </trkpt>
      <trkpt lat="48.76115" lon="2.15335">
        <ele>143</ele>
        <time>2019-05-12T05:22:58.000Z</time>
      </trkpt>
      <trkpt lat="48.76115" lon="2.15335">
        <ele>143</ele>
        <time>2019-05-12T05:23:00.000Z</time>
      </trkpt>
      <trkpt lat="48.76108" lon="2.15332">
        <ele>145</ele>
        <time>2019-05-12T05:23:04.000Z</time>
      </trkpt>
      <trkpt lat="48.76103" lon="2.15329">
        <ele>145</ele>
        <time>2019-05-12T05:23:06.000Z</time>
      </trkpt>
      <trkpt lat="48.76103" lon="2.15329">
        <ele>145</ele>
        <time>2019-05-12T05:23:08.000Z</time>
      </trkpt>
      <trkpt lat="48.76103" lon="2.15329">
        <ele>145</ele>
        <time>2019-05-12T05:23:10.000Z</time>
      </trkpt>
      <trkpt lat="48.76097" lon="2.15322">
        <ele>144</ele>
        <time>2019-05-12T05:23:14.000Z</time>
      </trkpt>
      <trkpt lat="48.76094" lon="2.15317">
        <ele>145</ele>
        <time>2019-05-12T05:23:16.000Z</time>
      </trkpt>
      <trkpt lat="48.7609" lon="2.1531">
        <ele>145</ele>
        <time>2019-05-12T05:23:20.000Z</time>
      </trkpt>
      <trkpt lat="48.7609" lon="2.1531">
        <ele>145</ele>
        <time>2019-05-12T05:23:22.000Z</time>
      </trkpt>
      <trkpt lat="48.7609" lon="2.1531">
        <ele>145</ele>
        <time>2019-05-12T05:23:24.000Z</time>
      </trkpt>
      <trkpt lat="48.76084" lon="2.153">
        <ele>145</ele>
        <time>2019-05-12T05:23:30.000Z</time>
      </trkpt>
      <trkpt lat="48.7608" lon="2.15293">
        <ele>141</ele>
        <time>2019-05-12T05:23:32.000Z</time>
      </trkpt>
      <trkpt lat="48.7608" lon="2.15293">
        <ele>141</ele>
        <time>2019-05-12T05:23:34.000Z</time>
      </trkpt>
      <trkpt lat="48.7608" lon="2.15293">
        <ele>141</ele>
        <time>2019-05-12T05:23:36.000Z</time>
      </trkpt>
      <trkpt lat="48.7608" lon="2.15293">
        <ele>141</ele>
        <time>2019-05-12T05:23:38.000Z</time>
      </trkpt>
      <trkpt lat="48.7608" lon="2.15293">
        <ele>141</ele>
        <time>2019-05-12T05:23:40.000Z</time>
      </trkpt>
      <trkpt lat="48.7608" lon="2.15293">
        <ele>141</ele>
        <time>2019-05-12T05:23:42.000Z</time>
      </trkpt>
      <trkpt lat="48.7608" lon="2.15293">
        <ele>141</ele>
        <time>2019-05-12T05:23:44.000Z</time>
      </trkpt>
      <trkpt lat="48.7607" lon="2.15277">
        <ele>141</ele>
        <time>2019-05-12T05:23:48.000Z</time>
      </trkpt>
      <trkpt lat="48.7607" lon="2.15277">
        <ele>141</ele>
        <time>2019-05-12T05:23:50.000Z</time>
      </trkpt>
      <trkpt lat="48.7607" lon="2.15277">
        <ele>141</ele>
        <time>2019-05-12T05:23:52.000Z</time>
      </trkpt>
      <trkpt lat="48.7607" lon="2.15277">
        <ele>141</ele>
        <time>2019-05-12T05:23:54.000Z</time>
      </trkpt>
      <trkpt lat="48.76061" lon="2.15264">
        <ele>141</ele>
        <time>2019-05-12T05:23:56.000Z</time>
      </trkpt>
      <trkpt lat="48.76061" lon="2.15264">
        <ele>141</ele>
        <time>2019-05-12T05:23:58.000Z</time>
      </trkpt>
      <trkpt lat="48.76061" lon="2.15264">
        <ele>141</ele>
        <time>2019-05-12T05:24:00.000Z</time>
      </trkpt>
      <trkpt lat="48.76061" lon="2.15264">
        <ele>141</ele>
        <time>2019-05-12T05:24:02.000Z</time>
      </trkpt>
      <trkpt lat="48.76052" lon="2.1525">
        <ele>145</ele>
        <time>2019-05-12T05:24:06.000Z</time>
      </trkpt>
      <trkpt lat="48.76048" lon="2.15242">
        <ele>145</ele>
        <time>2019-05-12T05:24:08.000Z</time>
      </trkpt>
      <trkpt lat="48.76044" lon="2.15237">
        <ele>145</ele>
        <time>2019-05-12T05:24:10.000Z</time>
      </trkpt>
      <trkpt lat="48.76044" lon="2.15237">
        <ele>145</ele>
        <time>2019-05-12T05:24:12.000Z</time>
      </trkpt>
      <trkpt lat="48.76044" lon="2.15237">
        <ele>145</ele>
        <time>2019-05-12T05:24:14.000Z</time>
      </trkpt>
      <trkpt lat="48.76044" lon="2.15237">
        <ele>145</ele>
        <time>2019-05-12T05:24:16.000Z</time>
      </trkpt>
      <trkpt lat="48.76044" lon="2.15237">
        <ele>145</ele>
        <time>2019-05-12T05:24:18.000Z</time>
      </trkpt>
      <trkpt lat="48.76044" lon="2.15237">
        <ele>145</ele>
        <time>2019-05-12T05:24:22.000Z</time>
      </trkpt>
      <trkpt lat="48.76038" lon="2.15224">
        <ele>145</ele>
        <time>2019-05-12T05:24:24.000Z</time>
      </trkpt>
      <trkpt lat="48.76033" lon="2.15215">
        <ele>145</ele>
        <time>2019-05-12T05:24:26.000Z</time>
      </trkpt>
      <trkpt lat="48.76033" lon="2.15215">
        <ele>145</ele>
        <time>2019-05-12T05:24:30.000Z</time>
      </trkpt>
      <trkpt lat="48.76033" lon="2.15215">
        <ele>145</ele>
        <time>2019-05-12T05:24:32.000Z</time>
      </trkpt>
      <trkpt lat="48.76033" lon="2.15215">
        <ele>145</ele>
        <time>2019-05-12T05:24:34.000Z</time>
      </trkpt>
      <trkpt lat="48.76033" lon="2.15215">
        <ele>145</ele>
        <time>2019-05-12T05:24:36.000Z</time>
      </trkpt>
      <trkpt lat="48.76033" lon="2.15215">
        <ele>145</ele>
        <time>2019-05-12T05:24:44.000Z</time>
      </trkpt>
      <trkpt lat="48.76033" lon="2.15215">
        <ele>145</ele>
        <time>2019-05-12T05:24:46.000Z</time>
      </trkpt>
      <trkpt lat="48.76033" lon="2.15215">
        <ele>145</ele>
        <time>2019-05-12T05:24:48.000Z</time>
      </trkpt>
      <trkpt lat="48.76033" lon="2.15215">
        <ele>145</ele>
        <time>2019-05-12T05:24:50.000Z</time>
      </trkpt>
      <trkpt lat="48.76033" lon="2.15215">
        <ele>145</ele>
        <time>2019-05-12T05:24:52.000Z</time>
      </trkpt>
      <trkpt lat="48.76024" lon="2.15181">
        <ele>147</ele>
        <time>2019-05-12T05:24:56.000Z</time>
      </trkpt>
      <trkpt lat="48.76019" lon="2.15162">
        <ele>149</ele>
        <time>2019-05-12T05:24:58.000Z</time>
      </trkpt>
      <trkpt lat="48.76017" lon="2.1515">
        <ele>149</ele>
        <time>2019-05-12T05:25:00.000Z</time>
      </trkpt>
      <trkpt lat="48.76015" lon="2.15143">
        <ele>149</ele>
        <time>2019-05-12T05:25:02.000Z</time>
      </trkpt>
      <trkpt lat="48.76015" lon="2.15143">
        <ele>149</ele>
        <time>2019-05-12T05:25:04.000Z</time>
      </trkpt>
      <trkpt lat="48.76015" lon="2.15143">
        <ele>149</ele>
        <time>2019-05-12T05:25:06.000Z</time>
      </trkpt>
      <trkpt lat="48.76015" lon="2.15143">
        <ele>149</ele>
        <time>2019-05-12T05:25:08.000Z</time>
      </trkpt>
      <trkpt lat="48.76013" lon="2.15131">
        <ele>149</ele>
        <time>2019-05-12T05:25:12.000Z</time>
      </trkpt>
      <trkpt lat="48.76011" lon="2.15121">
        <ele>149</ele>
        <time>2019-05-12T05:25:16.000Z</time>
      </trkpt>
      <trkpt lat="48.76009" lon="2.15111">
        <ele>149</ele>
        <time>2019-05-12T05:25:20.000Z</time>
      </trkpt>
      <trkpt lat="48.76006" lon="2.15099">
        <ele>149</ele>
        <time>2019-05-12T05:25:26.000Z</time>
      </trkpt>
      <trkpt lat="48.76006" lon="2.15099">
        <ele>149</ele>
        <time>2019-05-12T05:25:32.000Z</time>
      </trkpt>
      <trkpt lat="48.76006" lon="2.15099">
        <ele>149</ele>
        <time>2019-05-12T05:25:34.000Z</time>
      </trkpt>
      <trkpt lat="48.76006" lon="2.15099">
        <ele>149</ele>
        <time>2019-05-12T05:25:36.000Z</time>
      </trkpt>
      <trkpt lat="48.76001" lon="2.15083">
        <ele>149</ele>
        <time>2019-05-12T05:25:42.000Z</time>
      </trkpt>
      <trkpt lat="48.75998" lon="2.15074">
        <ele>147</ele>
        <time>2019-05-12T05:25:44.000Z</time>
      </trkpt>
      <trkpt lat="48.75996" lon="2.15067">
        <ele>146</ele>
        <time>2019-05-12T05:25:46.000Z</time>
      </trkpt>
      <trkpt lat="48.75996" lon="2.15067">
        <ele>146</ele>
        <time>2019-05-12T05:25:48.000Z</time>
      </trkpt>
      <trkpt lat="48.75996" lon="2.15067">
        <ele>146</ele>
        <time>2019-05-12T05:25:50.000Z</time>
      </trkpt>
      <trkpt lat="48.75993" lon="2.15059">
        <ele>145</ele>
        <time>2019-05-12T05:25:52.000Z</time>
      </trkpt>
      <trkpt lat="48.75991" lon="2.15051">
        <ele>145</ele>
        <time>2019-05-12T05:25:56.000Z</time>
      </trkpt>
      <trkpt lat="48.75988" lon="2.15044">
        <ele>145</ele>
        <time>2019-05-12T05:26:00.000Z</time>
      </trkpt>
      <trkpt lat="48.75986" lon="2.15037">
        <ele>144</ele>
        <time>2019-05-12T05:26:02.000Z</time>
      </trkpt>
      <trkpt lat="48.75986" lon="2.15037">
        <ele>144</ele>
        <time>2019-05-12T05:26:04.000Z</time>
      </trkpt>
      <trkpt lat="48.75984" lon="2.15031">
        <ele>144</ele>
        <time>2019-05-12T05:26:06.000Z</time>
      </trkpt>
      <trkpt lat="48.75984" lon="2.15031">
        <ele>144</ele>
        <time>2019-05-12T05:26:08.000Z</time>
      </trkpt>
      <trkpt lat="48.75984" lon="2.15031">
        <ele>144</ele>
        <time>2019-05-12T05:26:10.000Z</time>
      </trkpt>
      <trkpt lat="48.75984" lon="2.15031">
        <ele>144</ele>
        <time>2019-05-12T05:26:14.000Z</time>
      </trkpt>
      <trkpt lat="48.75984" lon="2.15031">
        <ele>144</ele>
        <time>2019-05-12T05:26:16.000Z</time>
      </trkpt>
      <trkpt lat="48.75984" lon="2.15031">
        <ele>144</ele>
        <time>2019-05-12T05:26:18.000Z</time>
      </trkpt>
      <trkpt lat="48.7598" lon="2.15019">
        <ele>145</ele>
        <time>2019-05-12T05:26:20.000Z</time>
      </trkpt>
      <trkpt lat="48.75978" lon="2.1501">
        <ele>145</ele>
        <time>2019-05-12T05:26:22.000Z</time>
      </trkpt>
      <trkpt lat="48.75978" lon="2.1501">
        <ele>145</ele>
        <time>2019-05-12T05:26:24.000Z</time>
      </trkpt>
      <trkpt lat="48.75976" lon="2.15002">
        <ele>145</ele>
        <time>2019-05-12T05:26:26.000Z</time>
      </trkpt>
      <trkpt lat="48.75976" lon="2.15002">
        <ele>145</ele>
        <time>2019-05-12T05:26:28.000Z</time>
      </trkpt>
      <trkpt lat="48.75974" lon="2.14995">
        <ele>146</ele>
        <time>2019-05-12T05:26:30.000Z</time>
      </trkpt>
      <trkpt lat="48.75972" lon="2.14987">
        <ele>145</ele>
        <time>2019-05-12T05:26:34.000Z</time>
      </trkpt>
      <trkpt lat="48.75972" lon="2.14987">
        <ele>145</ele>
        <time>2019-05-12T05:26:36.000Z</time>
      </trkpt>
      <trkpt lat="48.7597" lon="2.14979">
        <ele>145</ele>
        <time>2019-05-12T05:26:38.000Z</time>
      </trkpt>
      <trkpt lat="48.75969" lon="2.14973">
        <ele>145</ele>
        <time>2019-05-12T05:26:40.000Z</time>
      </trkpt>
      <trkpt lat="48.75967" lon="2.14966">
        <ele>145</ele>
        <time>2019-05-12T05:26:44.000Z</time>
      </trkpt>
      <trkpt lat="48.75967" lon="2.14966">
        <ele>145</ele>
        <time>2019-05-12T05:26:46.000Z</time>
      </trkpt>
      <trkpt lat="48.75967" lon="2.14966">
        <ele>145</ele>
        <time>2019-05-12T05:26:48.000Z</time>
      </trkpt>
      <trkpt lat="48.75965" lon="2.14956">
        <ele>145</ele>
        <time>2019-05-12T05:26:50.000Z</time>
      </trkpt>
      <trkpt lat="48.75964" lon="2.14949">
        <ele>145</ele>
        <time>2019-05-12T05:26:52.000Z</time>
      </trkpt>
      <trkpt lat="48.75963" lon="2.14942">
        <ele>145</ele>
        <time>2019-05-12T05:26:56.000Z</time>
      </trkpt>
      <trkpt lat="48.75962" lon="2.14934">
        <ele>145</ele>
        <time>2019-05-12T05:27:00.000Z</time>
      </trkpt>
      <trkpt lat="48.75962" lon="2.14934">
        <ele>145</ele>
        <time>2019-05-12T05:27:02.000Z</time>
      </trkpt>
      <trkpt lat="48.75962" lon="2.14934">
        <ele>145</ele>
        <time>2019-05-12T05:27:04.000Z</time>
      </trkpt>
      <trkpt lat="48.75962" lon="2.14934">
        <ele>145</ele>
        <time>2019-05-12T05:27:06.000Z</time>
      </trkpt>
      <trkpt lat="48.7596" lon="2.14923">
        <ele>145</ele>
        <time>2019-05-12T05:27:10.000Z</time>
      </trkpt>
      <trkpt lat="48.7596" lon="2.14923">
        <ele>145</ele>
        <time>2019-05-12T05:27:12.000Z</time>
      </trkpt>
      <trkpt lat="48.7596" lon="2.14923">
        <ele>145</ele>
        <time>2019-05-12T05:27:14.000Z</time>
      </trkpt>
      <trkpt lat="48.7596" lon="2.14923">
        <ele>145</ele>
        <time>2019-05-12T05:27:16.000Z</time>
      </trkpt>
      <trkpt lat="48.75959" lon="2.14912">
        <ele>146</ele>
        <time>2019-05-12T05:27:18.000Z</time>
      </trkpt>
      <trkpt lat="48.75957" lon="2.14904">
        <ele>146</ele>
        <time>2019-05-12T05:27:20.000Z</time>
      </trkpt>
      <trkpt lat="48.75957" lon="2.14904">
        <ele>146</ele>
        <time>2019-05-12T05:27:22.000Z</time>
      </trkpt>
      <trkpt lat="48.75955" lon="2.14895">
        <ele>146</ele>
        <time>2019-05-12T05:27:24.000Z</time>
      </trkpt>
      <trkpt lat="48.75953" lon="2.14888">
        <ele>146</ele>
        <time>2019-05-12T05:27:26.000Z</time>
      </trkpt>
      <trkpt lat="48.75951" lon="2.14879">
        <ele>146</ele>
        <time>2019-05-12T05:27:30.000Z</time>
      </trkpt>
      <trkpt lat="48.7595" lon="2.14871">
        <ele>146</ele>
        <time>2019-05-12T05:27:32.000Z</time>
      </trkpt>
      <trkpt lat="48.75948" lon="2.14863">
        <ele>145</ele>
        <time>2019-05-12T05:27:36.000Z</time>
      </trkpt>
      <trkpt lat="48.75948" lon="2.14863">
        <ele>145</ele>
        <time>2019-05-12T05:27:40.000Z</time>
      </trkpt>
      <trkpt lat="48.75948" lon="2.14863">
        <ele>145</ele>
        <time>2019-05-12T05:27:42.000Z</time>
      </trkpt>
      <trkpt lat="48.75945" lon="2.14854">
        <ele>145</ele>
        <time>2019-05-12T05:27:46.000Z</time>
      </trkpt>
      <trkpt lat="48.75943" lon="2.14846">
        <ele>145</ele>
        <time>2019-05-12T05:27:50.000Z</time>
      </trkpt>
      <trkpt lat="48.75943" lon="2.14846">
        <ele>145</ele>
        <time>2019-05-12T05:27:52.000Z</time>
      </trkpt>
      <trkpt lat="48.75943" lon="2.14846">
        <ele>145</ele>
        <time>2019-05-12T05:27:54.000Z</time>
      </trkpt>
      <trkpt lat="48.75943" lon="2.14846">
        <ele>145</ele>
        <time>2019-05-12T05:27:56.000Z</time>
      </trkpt>
      <trkpt lat="48.75943" lon="2.14835">
        <ele>145</ele>
        <time>2019-05-12T05:28:00.000Z</time>
      </trkpt>
      <trkpt lat="48.75942" lon="2.14828">
        <ele>145</ele>
        <time>2019-05-12T05:28:02.000Z</time>
      </trkpt>
      <trkpt lat="48.75942" lon="2.14828">
        <ele>145</ele>
        <time>2019-05-12T05:28:04.000Z</time>
      </trkpt>
      <trkpt lat="48.75942" lon="2.14828">
        <ele>145</ele>
        <time>2019-05-12T05:28:06.000Z</time>
      </trkpt>
      <trkpt lat="48.75941" lon="2.14819">
        <ele>145</ele>
        <time>2019-05-12T05:28:08.000Z</time>
      </trkpt>
      <trkpt lat="48.75939" lon="2.14811">
        <ele>146</ele>
        <time>2019-05-12T05:28:12.000Z</time>
      </trkpt>
      <trkpt lat="48.75937" lon="2.14802">
        <ele>146</ele>
        <time>2019-05-12T05:28:16.000Z</time>
      </trkpt>
      <trkpt lat="48.75936" lon="2.14794">
        <ele>146</ele>
        <time>2019-05-12T05:28:18.000Z</time>
      </trkpt>
      <trkpt lat="48.75934" lon="2.14786">
        <ele>146</ele>
        <time>2019-05-12T05:28:22.000Z</time>
      </trkpt>
      <trkpt lat="48.75933" lon="2.14779">
        <ele>146</ele>
        <time>2019-05-12T05:28:24.000Z</time>
      </trkpt>
      <trkpt lat="48.75933" lon="2.14779">
        <ele>146</ele>
        <time>2019-05-12T05:28:28.000Z</time>
      </trkpt>
      <trkpt lat="48.75933" lon="2.14779">
        <ele>146</ele>
        <time>2019-05-12T05:28:30.000Z</time>
      </trkpt>
      <trkpt lat="48.75933" lon="2.14779">
        <ele>146</ele>
        <time>2019-05-12T05:28:32.000Z</time>
      </trkpt>
      <trkpt lat="48.75933" lon="2.14757">
        <ele>145</ele>
        <time>2019-05-12T05:28:52.000Z</time>
      </trkpt>
      <trkpt lat="48.75934" lon="2.14743">
        <ele>146</ele>
        <time>2019-05-12T05:28:54.000Z</time>
      </trkpt>
      <trkpt lat="48.75935" lon="2.14735">
        <ele>146</ele>
        <time>2019-05-12T05:28:56.000Z</time>
      </trkpt>
      <trkpt lat="48.75935" lon="2.14735">
        <ele>146</ele>
        <time>2019-05-12T05:28:58.000Z</time>
      </trkpt>
      <trkpt lat="48.75935" lon="2.14735">
        <ele>146</ele>
        <time>2019-05-12T05:29:00.000Z</time>
      </trkpt>
      <trkpt lat="48.7594" lon="2.14722">
        <ele>147</ele>
        <time>2019-05-12T05:29:08.000Z</time>
      </trkpt>
      <trkpt lat="48.7594" lon="2.14722">
        <ele>147</ele>
        <time>2019-05-12T05:29:10.000Z</time>
      </trkpt>
      <trkpt lat="48.7594" lon="2.14722">
        <ele>147</ele>
        <time>2019-05-12T05:29:12.000Z</time>
      </trkpt>
      <trkpt lat="48.7594" lon="2.14722">
        <ele>147</ele>
        <time>2019-05-12T05:29:14.000Z</time>
      </trkpt>
      <trkpt lat="48.7594" lon="2.14722">
        <ele>147</ele>
        <time>2019-05-12T05:29:18.000Z</time>
      </trkpt>
      <trkpt lat="48.7594" lon="2.14722">
        <ele>147</ele>
        <time>2019-05-12T05:29:20.000Z</time>
      </trkpt>
      <trkpt lat="48.75946" lon="2.14701">
        <ele>148</ele>
        <time>2019-05-12T05:29:24.000Z</time>
      </trkpt>
      <trkpt lat="48.75946" lon="2.14701">
        <ele>148</ele>
        <time>2019-05-12T05:29:26.000Z</time>
      </trkpt>
      <trkpt lat="48.75946" lon="2.14701">
        <ele>148</ele>
        <time>2019-05-12T05:29:28.000Z</time>
      </trkpt>
      <trkpt lat="48.75953" lon="2.14687">
        <ele>148</ele>
        <time>2019-05-12T05:29:30.000Z</time>
      </trkpt>
      <trkpt lat="48.75956" lon="2.14679">
        <ele>148</ele>
        <time>2019-05-12T05:29:32.000Z</time>
      </trkpt>
      <trkpt lat="48.75956" lon="2.14679">
        <ele>148</ele>
        <time>2019-05-12T05:29:34.000Z</time>
      </trkpt>
      <trkpt lat="48.75958" lon="2.14673">
        <ele>148</ele>
        <time>2019-05-12T05:29:36.000Z</time>
      </trkpt>
      <trkpt lat="48.75958" lon="2.14673">
        <ele>148</ele>
        <time>2019-05-12T05:29:38.000Z</time>
      </trkpt>
      <trkpt lat="48.75958" lon="2.14673">
        <ele>148</ele>
        <time>2019-05-12T05:29:40.000Z</time>
      </trkpt>
      <trkpt lat="48.75958" lon="2.14673">
        <ele>148</ele>
        <time>2019-05-12T05:29:42.000Z</time>
      </trkpt>
      <trkpt lat="48.75958" lon="2.14673">
        <ele>148</ele>
        <time>2019-05-12T05:30:00.000Z</time>
      </trkpt>
      <trkpt lat="48.75958" lon="2.14629">
        <ele>148</ele>
        <time>2019-05-12T05:30:28.000Z</time>
      </trkpt>
      <trkpt lat="48.75958" lon="2.14605">
        <ele>148</ele>
        <time>2019-05-12T05:30:30.000Z</time>
      </trkpt>
      <trkpt lat="48.75957" lon="2.1459">
        <ele>148</ele>
        <time>2019-05-12T05:30:32.000Z</time>
      </trkpt>
      <trkpt lat="48.75957" lon="2.1458">
        <ele>149</ele>
        <time>2019-05-12T05:30:34.000Z</time>
      </trkpt>
      <trkpt lat="48.75957" lon="2.14572">
        <ele>149</ele>
        <time>2019-05-12T05:30:36.000Z</time>
      </trkpt>
      <trkpt lat="48.75957" lon="2.14572">
        <ele>149</ele>
        <time>2019-05-12T05:30:38.000Z</time>
      </trkpt>
      <trkpt lat="48.75957" lon="2.14572">
        <ele>149</ele>
        <time>2019-05-12T05:30:40.000Z</time>
      </trkpt>
      <trkpt lat="48.75957" lon="2.14572">
        <ele>149</ele>
        <time>2019-05-12T05:30:42.000Z</time>
      </trkpt>
      <trkpt lat="48.75957" lon="2.14572">
        <ele>149</ele>
        <time>2019-05-12T05:30:44.000Z</time>
      </trkpt>
      <trkpt lat="48.75957" lon="2.14572">
        <ele>149</ele>
        <time>2019-05-12T05:30:46.000Z</time>
      </trkpt>
      <trkpt lat="48.75957" lon="2.14572">
        <ele>149</ele>
        <time>2019-05-12T05:30:48.000Z</time>
      </trkpt>
      <trkpt lat="48.75957" lon="2.14572">
        <ele>149</ele>
        <time>2019-05-12T05:30:50.000Z</time>
      </trkpt>
      <trkpt lat="48.75957" lon="2.14572">
        <ele>149</ele>
        <time>2019-05-12T05:30:52.000Z</time>
      </trkpt>
      <trkpt lat="48.75957" lon="2.14572">
        <ele>149</ele>
        <time>2019-05-12T05:30:54.000Z</time>
      </trkpt>
      <trkpt lat="48.75954" lon="2.14507">
        <ele>149</ele>
        <time>2019-05-12T05:31:08.000Z</time>
      </trkpt>
      <trkpt lat="48.75952" lon="2.14492">
        <ele>150</ele>
        <time>2019-05-12T05:31:12.000Z</time>
      </trkpt>
      <trkpt lat="48.75952" lon="2.14492">
        <ele>150</ele>
        <time>2019-05-12T05:31:14.000Z</time>
      </trkpt>
      <trkpt lat="48.75952" lon="2.14492">
        <ele>150</ele>
        <time>2019-05-12T05:31:16.000Z</time>
      </trkpt>
      <trkpt lat="48.75952" lon="2.14492">
        <ele>150</ele>
        <time>2019-05-12T05:31:18.000Z</time>
      </trkpt>
      <trkpt lat="48.75952" lon="2.14492">
        <ele>150</ele>
        <time>2019-05-12T05:31:20.000Z</time>
      </trkpt>
      <trkpt lat="48.7595" lon="2.14465">
        <ele>151</ele>
        <time>2019-05-12T05:31:48.000Z</time>
      </trkpt>
      <trkpt lat="48.75948" lon="2.14448">
        <ele>151</ele>
        <time>2019-05-12T05:31:50.000Z</time>
      </trkpt>
      <trkpt lat="48.75947" lon="2.14436">
        <ele>152</ele>
        <time>2019-05-12T05:31:52.000Z</time>
      </trkpt>
      <trkpt lat="48.75947" lon="2.14436">
        <ele>152</ele>
        <time>2019-05-12T05:31:54.000Z</time>
      </trkpt>
      <trkpt lat="48.75945" lon="2.14425">
        <ele>152</ele>
        <time>2019-05-12T05:31:56.000Z</time>
      </trkpt>
      <trkpt lat="48.75945" lon="2.14418">
        <ele>152</ele>
        <time>2019-05-12T05:31:58.000Z</time>
      </trkpt>
      <trkpt lat="48.75944" lon="2.1441">
        <ele>153</ele>
        <time>2019-05-12T05:32:02.000Z</time>
      </trkpt>
      <trkpt lat="48.75944" lon="2.1441">
        <ele>153</ele>
        <time>2019-05-12T05:32:04.000Z</time>
      </trkpt>
      <trkpt lat="48.75944" lon="2.1441">
        <ele>153</ele>
        <time>2019-05-12T05:32:06.000Z</time>
      </trkpt>
      <trkpt lat="48.75945" lon="2.14398">
        <ele>153</ele>
        <time>2019-05-12T05:32:08.000Z</time>
      </trkpt>
      <trkpt lat="48.75945" lon="2.14389">
        <ele>153</ele>
        <time>2019-05-12T05:32:10.000Z</time>
      </trkpt>
      <trkpt lat="48.75943" lon="2.14382">
        <ele>153</ele>
        <time>2019-05-12T05:32:12.000Z</time>
      </trkpt>
      <trkpt lat="48.75942" lon="2.14375">
        <ele>153</ele>
        <time>2019-05-12T05:32:14.000Z</time>
      </trkpt>
      <trkpt lat="48.75941" lon="2.14368">
        <ele>153</ele>
        <time>2019-05-12T05:32:16.000Z</time>
      </trkpt>
      <trkpt lat="48.75938" lon="2.14354">
        <ele>153</ele>
        <time>2019-05-12T05:32:18.000Z</time>
      </trkpt>
      <trkpt lat="48.75938" lon="2.14354">
        <ele>153</ele>
        <time>2019-05-12T05:32:20.000Z</time>
      </trkpt>
      <trkpt lat="48.75938" lon="2.14354">
        <ele>153</ele>
        <time>2019-05-12T05:32:22.000Z</time>
      </trkpt>
      <trkpt lat="48.75938" lon="2.14354">
        <ele>153</ele>
        <time>2019-05-12T05:32:24.000Z</time>
      </trkpt>
      <trkpt lat="48.75938" lon="2.14354">
        <ele>153</ele>
        <time>2019-05-12T05:32:26.000Z</time>
      </trkpt>
      <trkpt lat="48.75938" lon="2.14354">
        <ele>153</ele>
        <time>2019-05-12T05:32:30.000Z</time>
      </trkpt>
      <trkpt lat="48.75942" lon="2.14322">
        <ele>153</ele>
        <time>2019-05-12T05:32:38.000Z</time>
      </trkpt>
      <trkpt lat="48.75948" lon="2.14311">
        <ele>153</ele>
        <time>2019-05-12T05:32:44.000Z</time>
      </trkpt>
      <trkpt lat="48.75948" lon="2.14311">
        <ele>153</ele>
        <time>2019-05-12T05:32:46.000Z</time>
      </trkpt>
      <trkpt lat="48.75948" lon="2.14311">
        <ele>153</ele>
        <time>2019-05-12T05:32:48.000Z</time>
      </trkpt>
      <trkpt lat="48.75948" lon="2.14311">
        <ele>153</ele>
        <time>2019-05-12T05:32:50.000Z</time>
      </trkpt>
      <trkpt lat="48.75948" lon="2.14311">
        <ele>153</ele>
        <time>2019-05-12T05:32:52.000Z</time>
      </trkpt>
      <trkpt lat="48.75957" lon="2.14305">
        <ele>153</ele>
        <time>2019-05-12T05:32:54.000Z</time>
      </trkpt>
      <trkpt lat="48.75957" lon="2.14305">
        <ele>153</ele>
        <time>2019-05-12T05:32:58.000Z</time>
      </trkpt>
      <trkpt lat="48.75967" lon="2.14304">
        <ele>153</ele>
        <time>2019-05-12T05:33:00.000Z</time>
      </trkpt>
      <trkpt lat="48.75967" lon="2.14304">
        <ele>153</ele>
        <time>2019-05-12T05:33:02.000Z</time>
      </trkpt>
      <trkpt lat="48.75967" lon="2.14304">
        <ele>153</ele>
        <time>2019-05-12T05:33:04.000Z</time>
      </trkpt>
      <trkpt lat="48.75967" lon="2.14304">
        <ele>153</ele>
        <time>2019-05-12T05:33:06.000Z</time>
      </trkpt>
      <trkpt lat="48.75981" lon="2.14301">
        <ele>153</ele>
        <time>2019-05-12T05:33:12.000Z</time>
      </trkpt>
      <trkpt lat="48.75981" lon="2.14301">
        <ele>153</ele>
        <time>2019-05-12T05:33:14.000Z</time>
      </trkpt>
      <trkpt lat="48.7599" lon="2.14297">
        <ele>153</ele>
        <time>2019-05-12T05:33:18.000Z</time>
      </trkpt>
      <trkpt lat="48.7599" lon="2.14297">
        <ele>153</ele>
        <time>2019-05-12T05:33:20.000Z</time>
      </trkpt>
      <trkpt lat="48.7599" lon="2.14297">
        <ele>153</ele>
        <time>2019-05-12T05:33:22.000Z</time>
      </trkpt>
      <trkpt lat="48.7599" lon="2.14297">
        <ele>153</ele>
        <time>2019-05-12T05:33:24.000Z</time>
      </trkpt>
      <trkpt lat="48.75999" lon="2.14297">
        <ele>153</ele>
        <time>2019-05-12T05:33:26.000Z</time>
      </trkpt>
      <trkpt lat="48.75999" lon="2.14297">
        <ele>153</ele>
        <time>2019-05-12T05:33:34.000Z</time>
      </trkpt>
      <trkpt lat="48.75999" lon="2.14297">
        <ele>153</ele>
        <time>2019-05-12T05:33:36.000Z</time>
      </trkpt>
      <trkpt lat="48.76009" lon="2.14296">
        <ele>152</ele>
        <time>2019-05-12T05:33:42.000Z</time>
      </trkpt>
      <trkpt lat="48.76015" lon="2.14295">
        <ele>152</ele>
        <time>2019-05-12T05:33:44.000Z</time>
      </trkpt>
      <trkpt lat="48.76015" lon="2.14295">
        <ele>152</ele>
        <time>2019-05-12T05:33:46.000Z</time>
      </trkpt>
      <trkpt lat="48.7602" lon="2.14295">
        <ele>152</ele>
        <time>2019-05-12T05:33:48.000Z</time>
      </trkpt>
      <trkpt lat="48.76025" lon="2.14295">
        <ele>152</ele>
        <time>2019-05-12T05:33:52.000Z</time>
      </trkpt>
      <trkpt lat="48.76025" lon="2.14295">
        <ele>152</ele>
        <time>2019-05-12T05:33:56.000Z</time>
      </trkpt>
      <trkpt lat="48.76025" lon="2.14295">
        <ele>152</ele>
        <time>2019-05-12T05:33:58.000Z</time>
      </trkpt>
      <trkpt lat="48.76025" lon="2.14295">
        <ele>152</ele>
        <time>2019-05-12T05:34:00.000Z</time>
      </trkpt>
      <trkpt lat="48.76035" lon="2.14294">
        <ele>152</ele>
        <time>2019-05-12T05:34:02.000Z</time>
      </trkpt>
      <trkpt lat="48.76041" lon="2.14293">
        <ele>152</ele>
        <time>2019-05-12T05:34:04.000Z</time>
      </trkpt>
      <trkpt lat="48.76041" lon="2.14293">
        <ele>152</ele>
        <time>2019-05-12T05:34:06.000Z</time>
      </trkpt>
      <trkpt lat="48.76041" lon="2.14293">
        <ele>152</ele>
        <time>2019-05-12T05:34:08.000Z</time>
      </trkpt>
      <trkpt lat="48.76051" lon="2.14292">
        <ele>152</ele>
        <time>2019-05-12T05:34:14.000Z</time>
      </trkpt>
      <trkpt lat="48.76051" lon="2.14292">
        <ele>152</ele>
        <time>2019-05-12T05:34:16.000Z</time>
      </trkpt>
      <trkpt lat="48.76051" lon="2.14292">
        <ele>152</ele>
        <time>2019-05-12T05:34:18.000Z</time>
      </trkpt>
      <trkpt lat="48.76051" lon="2.14292">
        <ele>152</ele>
        <time>2019-05-12T05:34:20.000Z</time>
      </trkpt>
      <trkpt lat="48.76062" lon="2.14289">
        <ele>152</ele>
        <time>2019-05-12T05:34:24.000Z</time>
      </trkpt>
      <trkpt lat="48.76069" lon="2.14288">
        <ele>152</ele>
        <time>2019-05-12T05:34:26.000Z</time>
      </trkpt>
      <trkpt lat="48.76073" lon="2.14287">
        <ele>152</ele>
        <time>2019-05-12T05:34:28.000Z</time>
      </trkpt>
      <trkpt lat="48.76073" lon="2.14287">
        <ele>152</ele>
        <time>2019-05-12T05:34:30.000Z</time>
      </trkpt>
      <trkpt lat="48.7608" lon="2.14286">
        <ele>151</ele>
        <time>2019-05-12T05:34:34.000Z</time>
      </trkpt>
      <trkpt lat="48.7608" lon="2.14286">
        <ele>151</ele>
        <time>2019-05-12T05:34:38.000Z</time>
      </trkpt>
      <trkpt lat="48.7608" lon="2.14286">
        <ele>151</ele>
        <time>2019-05-12T05:34:44.000Z</time>
      </trkpt>
      <trkpt lat="48.7608" lon="2.14286">
        <ele>151</ele>
        <time>2019-05-12T05:34:46.000Z</time>
      </trkpt>
      <trkpt lat="48.76096" lon="2.14284">
        <ele>151</ele>
        <time>2019-05-12T05:34:58.000Z</time>
      </trkpt>
      <trkpt lat="48.76107" lon="2.14283">
        <ele>151</ele>
        <time>2019-05-12T05:35:00.000Z</time>
      </trkpt>
      <trkpt lat="48.76113" lon="2.14283">
        <ele>151</ele>
        <time>2019-05-12T05:35:02.000Z</time>
      </trkpt>
      <trkpt lat="48.76113" lon="2.14283">
        <ele>151</ele>
        <time>2019-05-12T05:35:04.000Z</time>
      </trkpt>
      <trkpt lat="48.76113" lon="2.14283">
        <ele>151</ele>
        <time>2019-05-12T05:35:06.000Z</time>
      </trkpt>
      <trkpt lat="48.76122" lon="2.1428">
        <ele>151</ele>
        <time>2019-05-12T05:35:10.000Z</time>
      </trkpt>
      <trkpt lat="48.76128" lon="2.14279">
        <ele>151</ele>
        <time>2019-05-12T05:35:12.000Z</time>
      </trkpt>
      <trkpt lat="48.76133" lon="2.14277">
        <ele>151</ele>
        <time>2019-05-12T05:35:14.000Z</time>
      </trkpt>
      <trkpt lat="48.76133" lon="2.14277">
        <ele>151</ele>
        <time>2019-05-12T05:35:16.000Z</time>
      </trkpt>
      <trkpt lat="48.76133" lon="2.14277">
        <ele>151</ele>
        <time>2019-05-12T05:35:18.000Z</time>
      </trkpt>
      <trkpt lat="48.76133" lon="2.14277">
        <ele>151</ele>
        <time>2019-05-12T05:35:20.000Z</time>
      </trkpt>
      <trkpt lat="48.76133" lon="2.14277">
        <ele>151</ele>
        <time>2019-05-12T05:35:22.000Z</time>
      </trkpt>
      <trkpt lat="48.76133" lon="2.14277">
        <ele>151</ele>
        <time>2019-05-12T05:35:26.000Z</time>
      </trkpt>
      <trkpt lat="48.76133" lon="2.14277">
        <ele>151</ele>
        <time>2019-05-12T05:35:28.000Z</time>
      </trkpt>
      <trkpt lat="48.76133" lon="2.14277">
        <ele>151</ele>
        <time>2019-05-12T05:35:30.000Z</time>
      </trkpt>
      <trkpt lat="48.76133" lon="2.14277">
        <ele>151</ele>
        <time>2019-05-12T05:35:32.000Z</time>
      </trkpt>
      <trkpt lat="48.76148" lon="2.14275">
        <ele>151</ele>
        <time>2019-05-12T05:35:36.000Z</time>
      </trkpt>
      <trkpt lat="48.76157" lon="2.14275">
        <ele>151</ele>
        <time>2019-05-12T05:35:38.000Z</time>
      </trkpt>
      <trkpt lat="48.76162" lon="2.14276">
        <ele>151</ele>
        <time>2019-05-12T05:35:40.000Z</time>
      </trkpt>
      <trkpt lat="48.76162" lon="2.14276">
        <ele>151</ele>
        <time>2019-05-12T05:35:42.000Z</time>
      </trkpt>
      <trkpt lat="48.76167" lon="2.14279">
        <ele>150</ele>
        <time>2019-05-12T05:35:44.000Z</time>
      </trkpt>
      <trkpt lat="48.76173" lon="2.1428">
        <ele>150</ele>
        <time>2019-05-12T05:35:48.000Z</time>
      </trkpt>
      <trkpt lat="48.76178" lon="2.14281">
        <ele>150</ele>
        <time>2019-05-12T05:35:50.000Z</time>
      </trkpt>
      <trkpt lat="48.76182" lon="2.14283">
        <ele>150</ele>
        <time>2019-05-12T05:35:52.000Z</time>
      </trkpt>
      <trkpt lat="48.76188" lon="2.14283">
        <ele>150</ele>
        <time>2019-05-12T05:35:56.000Z</time>
      </trkpt>
      <trkpt lat="48.76188" lon="2.14283">
        <ele>150</ele>
        <time>2019-05-12T05:35:58.000Z</time>
      </trkpt>
      <trkpt lat="48.76188" lon="2.14283">
        <ele>150</ele>
        <time>2019-05-12T05:36:00.000Z</time>
      </trkpt>
      <trkpt lat="48.76196" lon="2.14282">
        <ele>150</ele>
        <time>2019-05-12T05:36:04.000Z</time>
      </trkpt>
      <trkpt lat="48.76202" lon="2.14281">
        <ele>150</ele>
        <time>2019-05-12T05:36:06.000Z</time>
      </trkpt>
      <trkpt lat="48.76202" lon="2.14281">
        <ele>150</ele>
        <time>2019-05-12T05:36:08.000Z</time>
      </trkpt>
      <trkpt lat="48.76202" lon="2.14281">
        <ele>150</ele>
        <time>2019-05-12T05:36:10.000Z</time>
      </trkpt>
      <trkpt lat="48.76209" lon="2.1428">
        <ele>150</ele>
        <time>2019-05-12T05:36:14.000Z</time>
      </trkpt>
      <trkpt lat="48.76214" lon="2.14279">
        <ele>150</ele>
        <time>2019-05-12T05:36:16.000Z</time>
      </trkpt>
      <trkpt lat="48.7622" lon="2.14279">
        <ele>150</ele>
        <time>2019-05-12T05:36:20.000Z</time>
      </trkpt>
      <trkpt lat="48.7622" lon="2.14279">
        <ele>150</ele>
        <time>2019-05-12T05:36:22.000Z</time>
      </trkpt>
      <trkpt lat="48.7622" lon="2.14279">
        <ele>150</ele>
        <time>2019-05-12T05:36:24.000Z</time>
      </trkpt>
      <trkpt lat="48.76226" lon="2.14281">
        <ele>150</ele>
        <time>2019-05-12T05:36:28.000Z</time>
      </trkpt>
      <trkpt lat="48.76231" lon="2.14282">
        <ele>150</ele>
        <time>2019-05-12T05:36:30.000Z</time>
      </trkpt>
      <trkpt lat="48.76231" lon="2.14282">
        <ele>150</ele>
        <time>2019-05-12T05:36:32.000Z</time>
      </trkpt>
      <trkpt lat="48.76231" lon="2.14282">
        <ele>150</ele>
        <time>2019-05-12T05:36:34.000Z</time>
      </trkpt>
      <trkpt lat="48.76231" lon="2.14282">
        <ele>150</ele>
        <time>2019-05-12T05:36:36.000Z</time>
      </trkpt>
      <trkpt lat="48.76231" lon="2.14282">
        <ele>150</ele>
        <time>2019-05-12T05:36:38.000Z</time>
      </trkpt>
      <trkpt lat="48.76241" lon="2.14279">
        <ele>150</ele>
        <time>2019-05-12T05:36:42.000Z</time>
      </trkpt>
      <trkpt lat="48.76247" lon="2.14277">
        <ele>150</ele>
        <time>2019-05-12T05:36:44.000Z</time>
      </trkpt>
      <trkpt lat="48.76247" lon="2.14277">
        <ele>150</ele>
        <time>2019-05-12T05:36:46.000Z</time>
      </trkpt>
      <trkpt lat="48.7625" lon="2.14272">
        <ele>149</ele>
        <time>2019-05-12T05:36:48.000Z</time>
      </trkpt>
      <trkpt lat="48.76252" lon="2.14265">
        <ele>150</ele>
        <time>2019-05-12T05:36:52.000Z</time>
      </trkpt>
      <trkpt lat="48.76253" lon="2.14256">
        <ele>150</ele>
        <time>2019-05-12T05:36:56.000Z</time>
      </trkpt>
      <trkpt lat="48.76254" lon="2.14249">
        <ele>150</ele>
        <time>2019-05-12T05:36:58.000Z</time>
      </trkpt>
      <trkpt lat="48.76254" lon="2.14241">
        <ele>150</ele>
        <time>2019-05-12T05:37:02.000Z</time>
      </trkpt>
      <trkpt lat="48.76252" lon="2.14232">
        <ele>150</ele>
        <time>2019-05-12T05:37:06.000Z</time>
      </trkpt>
      <trkpt lat="48.76252" lon="2.14232">
        <ele>150</ele>
        <time>2019-05-12T05:37:08.000Z</time>
      </trkpt>
      <trkpt lat="48.76252" lon="2.14232">
        <ele>150</ele>
        <time>2019-05-12T05:37:10.000Z</time>
      </trkpt>
      <trkpt lat="48.76252" lon="2.14232">
        <ele>150</ele>
        <time>2019-05-12T05:37:12.000Z</time>
      </trkpt>
      <trkpt lat="48.76251" lon="2.14215">
        <ele>151</ele>
        <time>2019-05-12T05:37:18.000Z</time>
      </trkpt>
      <trkpt lat="48.7625" lon="2.14205">
        <ele>151</ele>
        <time>2019-05-12T05:37:20.000Z</time>
      </trkpt>
      <trkpt lat="48.7625" lon="2.14198">
        <ele>151</ele>
        <time>2019-05-12T05:37:22.000Z</time>
      </trkpt>
      <trkpt lat="48.7625" lon="2.14198">
        <ele>151</ele>
        <time>2019-05-12T05:37:24.000Z</time>
      </trkpt>
      <trkpt lat="48.7625" lon="2.14198">
        <ele>151</ele>
        <time>2019-05-12T05:37:26.000Z</time>
      </trkpt>
      <trkpt lat="48.7625" lon="2.14186">
        <ele>151</ele>
        <time>2019-05-12T05:37:32.000Z</time>
      </trkpt>
      <trkpt lat="48.7625" lon="2.14186">
        <ele>151</ele>
        <time>2019-05-12T05:37:34.000Z</time>
      </trkpt>
      <trkpt lat="48.7625" lon="2.14186">
        <ele>151</ele>
        <time>2019-05-12T05:37:36.000Z</time>
      </trkpt>
      <trkpt lat="48.7625" lon="2.14186">
        <ele>151</ele>
        <time>2019-05-12T05:37:38.000Z</time>
      </trkpt>
      <trkpt lat="48.76249" lon="2.14175">
        <ele>152</ele>
        <time>2019-05-12T05:37:40.000Z</time>
      </trkpt>
      <trkpt lat="48.76248" lon="2.14168">
        <ele>152</ele>
        <time>2019-05-12T05:37:42.000Z</time>
      </trkpt>
      <trkpt lat="48.76247" lon="2.1416">
        <ele>152</ele>
        <time>2019-05-12T05:37:46.000Z</time>
      </trkpt>
      <trkpt lat="48.76247" lon="2.1416">
        <ele>152</ele>
        <time>2019-05-12T05:37:48.000Z</time>
      </trkpt>
      <trkpt lat="48.76247" lon="2.1416">
        <ele>152</ele>
        <time>2019-05-12T05:37:50.000Z</time>
      </trkpt>
      <trkpt lat="48.76245" lon="2.14143">
        <ele>152</ele>
        <time>2019-05-12T05:37:58.000Z</time>
      </trkpt>
      <trkpt lat="48.76244" lon="2.14132">
        <ele>152</ele>
        <time>2019-05-12T05:38:00.000Z</time>
      </trkpt>
      <trkpt lat="48.76242" lon="2.14124">
        <ele>151</ele>
        <time>2019-05-12T05:38:02.000Z</time>
      </trkpt>
      <trkpt lat="48.76241" lon="2.14117">
        <ele>151</ele>
        <time>2019-05-12T05:38:04.000Z</time>
      </trkpt>
      <trkpt lat="48.76241" lon="2.14109">
        <ele>151</ele>
        <time>2019-05-12T05:38:08.000Z</time>
      </trkpt>
      <trkpt lat="48.76241" lon="2.14109">
        <ele>151</ele>
        <time>2019-05-12T05:38:10.000Z</time>
      </trkpt>
      <trkpt lat="48.76241" lon="2.14109">
        <ele>151</ele>
        <time>2019-05-12T05:38:12.000Z</time>
      </trkpt>
      <trkpt lat="48.76241" lon="2.14099">
        <ele>151</ele>
        <time>2019-05-12T05:38:16.000Z</time>
      </trkpt>
      <trkpt lat="48.76241" lon="2.14099">
        <ele>151</ele>
        <time>2019-05-12T05:38:18.000Z</time>
      </trkpt>
      <trkpt lat="48.76241" lon="2.14099">
        <ele>151</ele>
        <time>2019-05-12T05:38:20.000Z</time>
      </trkpt>
      <trkpt lat="48.76241" lon="2.14099">
        <ele>151</ele>
        <time>2019-05-12T05:38:22.000Z</time>
      </trkpt>
      <trkpt lat="48.76241" lon="2.14099">
        <ele>151</ele>
        <time>2019-05-12T05:38:24.000Z</time>
      </trkpt>
      <trkpt lat="48.76241" lon="2.14099">
        <ele>151</ele>
        <time>2019-05-12T05:38:26.000Z</time>
      </trkpt>
      <trkpt lat="48.76241" lon="2.14099">
        <ele>151</ele>
        <time>2019-05-12T05:38:28.000Z</time>
      </trkpt>
      <trkpt lat="48.76251" lon="2.14094">
        <ele>151</ele>
        <time>2019-05-12T05:38:30.000Z</time>
      </trkpt>
      <trkpt lat="48.76258" lon="2.14091">
        <ele>151</ele>
        <time>2019-05-12T05:38:32.000Z</time>
      </trkpt>
      <trkpt lat="48.76263" lon="2.1409">
        <ele>151</ele>
        <time>2019-05-12T05:38:34.000Z</time>
      </trkpt>
      <trkpt lat="48.76263" lon="2.1409">
        <ele>151</ele>
        <time>2019-05-12T05:38:36.000Z</time>
      </trkpt>
      <trkpt lat="48.76268" lon="2.14089">
        <ele>151</ele>
        <time>2019-05-12T05:38:38.000Z</time>
      </trkpt>
      <trkpt lat="48.76273" lon="2.14088">
        <ele>151</ele>
        <time>2019-05-12T05:38:42.000Z</time>
      </trkpt>
      <trkpt lat="48.76273" lon="2.14088">
        <ele>151</ele>
        <time>2019-05-12T05:38:44.000Z</time>
      </trkpt>
      <trkpt lat="48.76279" lon="2.14088">
        <ele>151</ele>
        <time>2019-05-12T05:38:46.000Z</time>
      </trkpt>
      <trkpt lat="48.76279" lon="2.14088">
        <ele>151</ele>
        <time>2019-05-12T05:38:48.000Z</time>
      </trkpt>
      <trkpt lat="48.76279" lon="2.14088">
        <ele>151</ele>
        <time>2019-05-12T05:38:50.000Z</time>
      </trkpt>
      <trkpt lat="48.76279" lon="2.14088">
        <ele>151</ele>
        <time>2019-05-12T05:38:54.000Z</time>
      </trkpt>
      <trkpt lat="48.76287" lon="2.14089">
        <ele>150</ele>
        <time>2019-05-12T05:38:56.000Z</time>
      </trkpt>
      <trkpt lat="48.76292" lon="2.14089">
        <ele>150</ele>
        <time>2019-05-12T05:38:58.000Z</time>
      </trkpt>
      <trkpt lat="48.76292" lon="2.14089">
        <ele>150</ele>
        <time>2019-05-12T05:39:02.000Z</time>
      </trkpt>
      <trkpt lat="48.763" lon="2.14087">
        <ele>150</ele>
        <time>2019-05-12T05:39:04.000Z</time>
      </trkpt>
      <trkpt lat="48.76305" lon="2.14086">
        <ele>150</ele>
        <time>2019-05-12T05:39:06.000Z</time>
      </trkpt>
      <trkpt lat="48.7631" lon="2.14085">
        <ele>150</ele>
        <time>2019-05-12T05:39:08.000Z</time>
      </trkpt>
      <trkpt lat="48.76316" lon="2.14085">
        <ele>150</ele>
        <time>2019-05-12T05:39:12.000Z</time>
      </trkpt>
      <trkpt lat="48.76316" lon="2.14085">
        <ele>150</ele>
        <time>2019-05-12T05:39:14.000Z</time>
      </trkpt>
      <trkpt lat="48.76316" lon="2.14085">
        <ele>150</ele>
        <time>2019-05-12T05:39:16.000Z</time>
      </trkpt>
      <trkpt lat="48.76316" lon="2.14085">
        <ele>150</ele>
        <time>2019-05-12T05:39:18.000Z</time>
      </trkpt>
      <trkpt lat="48.76316" lon="2.14085">
        <ele>150</ele>
        <time>2019-05-12T05:39:20.000Z</time>
      </trkpt>
      <trkpt lat="48.76316" lon="2.14085">
        <ele>150</ele>
        <time>2019-05-12T05:39:22.000Z</time>
      </trkpt>
      <trkpt lat="48.76316" lon="2.14085">
        <ele>150</ele>
        <time>2019-05-12T05:39:24.000Z</time>
      </trkpt>
      <trkpt lat="48.76329" lon="2.14086">
        <ele>149</ele>
        <time>2019-05-12T05:39:28.000Z</time>
      </trkpt>
      <trkpt lat="48.76336" lon="2.14086">
        <ele>149</ele>
        <time>2019-05-12T05:39:30.000Z</time>
      </trkpt>
      <trkpt lat="48.76341" lon="2.14087">
        <ele>149</ele>
        <time>2019-05-12T05:39:32.000Z</time>
      </trkpt>
      <trkpt lat="48.76341" lon="2.14087">
        <ele>149</ele>
        <time>2019-05-12T05:39:34.000Z</time>
      </trkpt>
      <trkpt lat="48.76341" lon="2.14087">
        <ele>149</ele>
        <time>2019-05-12T05:39:36.000Z</time>
      </trkpt>
      <trkpt lat="48.76348" lon="2.14087">
        <ele>149</ele>
        <time>2019-05-12T05:39:40.000Z</time>
      </trkpt>
      <trkpt lat="48.76353" lon="2.14089">
        <ele>149</ele>
        <time>2019-05-12T05:39:42.000Z</time>
      </trkpt>
      <trkpt lat="48.76353" lon="2.14089">
        <ele>149</ele>
        <time>2019-05-12T05:39:46.000Z</time>
      </trkpt>
      <trkpt lat="48.76353" lon="2.14089">
        <ele>149</ele>
        <time>2019-05-12T05:39:48.000Z</time>
      </trkpt>
      <trkpt lat="48.76353" lon="2.14089">
        <ele>149</ele>
        <time>2019-05-12T05:39:50.000Z</time>
      </trkpt>
      <trkpt lat="48.76353" lon="2.14089">
        <ele>149</ele>
        <time>2019-05-12T05:40:04.000Z</time>
      </trkpt>
      <trkpt lat="48.76353" lon="2.14089">
        <ele>149</ele>
        <time>2019-05-12T05:40:06.000Z</time>
      </trkpt>
      <trkpt lat="48.76353" lon="2.14089">
        <ele>149</ele>
        <time>2019-05-12T05:40:14.000Z</time>
      </trkpt>
      <trkpt lat="48.76353" lon="2.14089">
        <ele>149</ele>
        <time>2019-05-12T05:40:16.000Z</time>
      </trkpt>
      <trkpt lat="48.76353" lon="2.14089">
        <ele>149</ele>
        <time>2019-05-12T05:40:18.000Z</time>
      </trkpt>
      <trkpt lat="48.76355" lon="2.14102">
        <ele>149</ele>
        <time>2019-05-12T05:45:08.000Z</time>
      </trkpt>
      <trkpt lat="48.76358" lon="2.14128">
        <ele>149</ele>
        <time>2019-05-12T06:02:23.000Z</time>
      </trkpt>
      <trkpt lat="48.7636" lon="2.14143">
        <ele>149</ele>
        <time>2019-05-12T06:02:25.000Z</time>
      </trkpt>
      <trkpt lat="48.76361" lon="2.14152">
        <ele>149</ele>
        <time>2019-05-12T06:02:28.000Z</time>
      </trkpt>
      <trkpt lat="48.76361" lon="2.14152">
        <ele>149</ele>
        <time>2019-05-12T06:02:31.000Z</time>
      </trkpt>
      <trkpt lat="48.76361" lon="2.14152">
        <ele>149</ele>
        <time>2019-05-12T06:02:33.000Z</time>
      </trkpt>
      <trkpt lat="48.76361" lon="2.14152">
        <ele>149</ele>
        <time>2019-05-12T06:02:35.000Z</time>
      </trkpt>
      <trkpt lat="48.76362" lon="2.14164">
        <ele>149</ele>
        <time>2019-05-12T06:02:39.000Z</time>
      </trkpt>
      <trkpt lat="48.76363" lon="2.14172">
        <ele>150</ele>
        <time>2019-05-12T06:02:41.000Z</time>
      </trkpt>
      <trkpt lat="48.76363" lon="2.14172">
        <ele>150</ele>
        <time>2019-05-12T06:02:43.000Z</time>
      </trkpt>
      <trkpt lat="48.76363" lon="2.14172">
        <ele>150</ele>
        <time>2019-05-12T06:02:45.000Z</time>
      </trkpt>
      <trkpt lat="48.76363" lon="2.14172">
        <ele>150</ele>
        <time>2019-05-12T06:02:47.000Z</time>
      </trkpt>
      <trkpt lat="48.76363" lon="2.14172">
        <ele>150</ele>
        <time>2019-05-12T06:02:49.000Z</time>
      </trkpt>
      <trkpt lat="48.76363" lon="2.14172">
        <ele>150</ele>
        <time>2019-05-12T06:02:51.000Z</time>
      </trkpt>
      <trkpt lat="48.76366" lon="2.14188">
        <ele>150</ele>
        <time>2019-05-12T06:03:05.000Z</time>
      </trkpt>
      <trkpt lat="48.76368" lon="2.14198">
        <ele>150</ele>
        <time>2019-05-12T06:03:07.000Z</time>
      </trkpt>
      <trkpt lat="48.76369" lon="2.14206">
        <ele>150</ele>
        <time>2019-05-12T06:03:09.000Z</time>
      </trkpt>
      <trkpt lat="48.76369" lon="2.14212">
        <ele>150</ele>
        <time>2019-05-12T06:03:13.000Z</time>
      </trkpt>
      <trkpt lat="48.76369" lon="2.14212">
        <ele>150</ele>
        <time>2019-05-12T06:03:15.000Z</time>
      </trkpt>
      <trkpt lat="48.76369" lon="2.14212">
        <ele>150</ele>
        <time>2019-05-12T06:03:17.000Z</time>
      </trkpt>
      <trkpt lat="48.76369" lon="2.14212">
        <ele>150</ele>
        <time>2019-05-12T06:03:21.000Z</time>
      </trkpt>
      <trkpt lat="48.76369" lon="2.14212">
        <ele>150</ele>
        <time>2019-05-12T06:03:23.000Z</time>
      </trkpt>
      <trkpt lat="48.76374" lon="2.14223">
        <ele>150</ele>
        <time>2019-05-12T06:03:27.000Z</time>
      </trkpt>
      <trkpt lat="48.7638" lon="2.14231">
        <ele>150</ele>
        <time>2019-05-12T06:03:31.000Z</time>
      </trkpt>
      <trkpt lat="48.76387" lon="2.14237">
        <ele>150</ele>
        <time>2019-05-12T06:03:35.000Z</time>
      </trkpt>
      <trkpt lat="48.76387" lon="2.14237">
        <ele>150</ele>
        <time>2019-05-12T06:03:37.000Z</time>
      </trkpt>
      <trkpt lat="48.76387" lon="2.14237">
        <ele>150</ele>
        <time>2019-05-12T06:03:39.000Z</time>
      </trkpt>
      <trkpt lat="48.76387" lon="2.14237">
        <ele>150</ele>
        <time>2019-05-12T06:03:41.000Z</time>
      </trkpt>
      <trkpt lat="48.76387" lon="2.14237">
        <ele>150</ele>
        <time>2019-05-12T06:03:43.000Z</time>
      </trkpt>
      <trkpt lat="48.76395" lon="2.14245">
        <ele>150</ele>
        <time>2019-05-12T06:03:45.000Z</time>
      </trkpt>
      <trkpt lat="48.76399" lon="2.14255">
        <ele>150</ele>
        <time>2019-05-12T06:03:49.000Z</time>
      </trkpt>
      <trkpt lat="48.76401" lon="2.14262">
        <ele>150</ele>
        <time>2019-05-12T06:03:51.000Z</time>
      </trkpt>
      <trkpt lat="48.76401" lon="2.14262">
        <ele>150</ele>
        <time>2019-05-12T06:03:53.000Z</time>
      </trkpt>
      <trkpt lat="48.76401" lon="2.14262">
        <ele>150</ele>
        <time>2019-05-12T06:03:59.000Z</time>
      </trkpt>
      <trkpt lat="48.76401" lon="2.14262">
        <ele>150</ele>
        <time>2019-05-12T06:04:01.000Z</time>
      </trkpt>
      <trkpt lat="48.76401" lon="2.14262">
        <ele>150</ele>
        <time>2019-05-12T06:04:03.000Z</time>
      </trkpt>
      <trkpt lat="48.76403" lon="2.1428">
        <ele>149</ele>
        <time>2019-05-12T06:04:09.000Z</time>
      </trkpt>
      <trkpt lat="48.76406" lon="2.14289">
        <ele>149</ele>
        <time>2019-05-12T06:04:11.000Z</time>
      </trkpt>
      <trkpt lat="48.7641" lon="2.14293">
        <ele>149</ele>
        <time>2019-05-12T06:04:15.000Z</time>
      </trkpt>
      <trkpt lat="48.76415" lon="2.14293">
        <ele>149</ele>
        <time>2019-05-12T06:04:21.000Z</time>
      </trkpt>
      <trkpt lat="48.76415" lon="2.14293">
        <ele>149</ele>
        <time>2019-05-12T06:04:26.000Z</time>
      </trkpt>
      <trkpt lat="48.7642" lon="2.14289">
        <ele>149</ele>
        <time>2019-05-12T06:04:27.000Z</time>
      </trkpt>
      <trkpt lat="48.7642" lon="2.14289">
        <ele>149</ele>
        <time>2019-05-12T06:04:29.000Z</time>
      </trkpt>
      <trkpt lat="48.7642" lon="2.14289">
        <ele>149</ele>
        <time>2019-05-12T06:04:31.000Z</time>
      </trkpt>
      <trkpt lat="48.7642" lon="2.14289">
        <ele>149</ele>
        <time>2019-05-12T06:04:33.000Z</time>
      </trkpt>
      <trkpt lat="48.7642" lon="2.14289">
        <ele>149</ele>
        <time>2019-05-12T06:04:35.000Z</time>
      </trkpt>
      <trkpt lat="48.7642" lon="2.14289">
        <ele>149</ele>
        <time>2019-05-12T06:04:37.000Z</time>
      </trkpt>
      <trkpt lat="48.7642" lon="2.14289">
        <ele>149</ele>
        <time>2019-05-12T06:04:39.000Z</time>
      </trkpt>
      <trkpt lat="48.7642" lon="2.14289">
        <ele>149</ele>
        <time>2019-05-12T06:04:41.000Z</time>
      </trkpt>
      <trkpt lat="48.7643" lon="2.14293">
        <ele>148</ele>
        <time>2019-05-12T06:04:45.000Z</time>
      </trkpt>
      <trkpt lat="48.76434" lon="2.14297">
        <ele>148</ele>
        <time>2019-05-12T06:04:47.000Z</time>
      </trkpt>
      <trkpt lat="48.76434" lon="2.14297">
        <ele>148</ele>
        <time>2019-05-12T06:04:49.000Z</time>
      </trkpt>
      <trkpt lat="48.76436" lon="2.14305">
        <ele>148</ele>
        <time>2019-05-12T06:04:53.000Z</time>
      </trkpt>
      <trkpt lat="48.76436" lon="2.14305">
        <ele>148</ele>
        <time>2019-05-12T06:04:55.000Z</time>
      </trkpt>
      <trkpt lat="48.76436" lon="2.14305">
        <ele>148</ele>
        <time>2019-05-12T06:04:57.000Z</time>
      </trkpt>
      <trkpt lat="48.76439" lon="2.14315">
        <ele>148</ele>
        <time>2019-05-12T06:05:00.000Z</time>
      </trkpt>
      <trkpt lat="48.7644" lon="2.14322">
        <ele>148</ele>
        <time>2019-05-12T06:05:01.000Z</time>
      </trkpt>
      <trkpt lat="48.76442" lon="2.1433">
        <ele>148</ele>
        <time>2019-05-12T06:05:05.000Z</time>
      </trkpt>
      <trkpt lat="48.76442" lon="2.1433">
        <ele>148</ele>
        <time>2019-05-12T06:05:07.000Z</time>
      </trkpt>
      <trkpt lat="48.76442" lon="2.1433">
        <ele>148</ele>
        <time>2019-05-12T06:05:09.000Z</time>
      </trkpt>
      <trkpt lat="48.76444" lon="2.14339">
        <ele>147</ele>
        <time>2019-05-12T06:05:11.000Z</time>
      </trkpt>
      <trkpt lat="48.76445" lon="2.14346">
        <ele>147</ele>
        <time>2019-05-12T06:05:13.000Z</time>
      </trkpt>
      <trkpt lat="48.76446" lon="2.14353">
        <ele>146</ele>
        <time>2019-05-12T06:05:17.000Z</time>
      </trkpt>
      <trkpt lat="48.76446" lon="2.1436">
        <ele>146</ele>
        <time>2019-05-12T06:05:21.000Z</time>
      </trkpt>
      <trkpt lat="48.76446" lon="2.1436">
        <ele>146</ele>
        <time>2019-05-12T06:05:23.000Z</time>
      </trkpt>
      <trkpt lat="48.76446" lon="2.1436">
        <ele>146</ele>
        <time>2019-05-12T06:05:25.000Z</time>
      </trkpt>
      <trkpt lat="48.76446" lon="2.1436">
        <ele>146</ele>
        <time>2019-05-12T06:05:27.000Z</time>
      </trkpt>
      <trkpt lat="48.76446" lon="2.1436">
        <ele>146</ele>
        <time>2019-05-12T06:05:29.000Z</time>
      </trkpt>
      <trkpt lat="48.76446" lon="2.1436">
        <ele>146</ele>
        <time>2019-05-12T06:05:31.000Z</time>
      </trkpt>
      <trkpt lat="48.76446" lon="2.1436">
        <ele>146</ele>
        <time>2019-05-12T06:05:33.000Z</time>
      </trkpt>
      <trkpt lat="48.76446" lon="2.1436">
        <ele>146</ele>
        <time>2019-05-12T06:05:35.000Z</time>
      </trkpt>
      <trkpt lat="48.76446" lon="2.1436">
        <ele>146</ele>
        <time>2019-05-12T06:05:37.000Z</time>
      </trkpt>
      <trkpt lat="48.76446" lon="2.1436">
        <ele>146</ele>
        <time>2019-05-12T06:05:39.000Z</time>
      </trkpt>
      <trkpt lat="48.76446" lon="2.1436">
        <ele>146</ele>
        <time>2019-05-12T06:05:41.000Z</time>
      </trkpt>
      <trkpt lat="48.76453" lon="2.14379">
        <ele>146</ele>
        <time>2019-05-12T06:05:45.000Z</time>
      </trkpt>
      <trkpt lat="48.76458" lon="2.14388">
        <ele>145</ele>
        <time>2019-05-12T06:05:47.000Z</time>
      </trkpt>
      <trkpt lat="48.76461" lon="2.14394">
        <ele>145</ele>
        <time>2019-05-12T06:05:49.000Z</time>
      </trkpt>
      <trkpt lat="48.76466" lon="2.14398">
        <ele>145</ele>
        <time>2019-05-12T06:05:53.000Z</time>
      </trkpt>
      <trkpt lat="48.76466" lon="2.14398">
        <ele>145</ele>
        <time>2019-05-12T06:05:55.000Z</time>
      </trkpt>
      <trkpt lat="48.76466" lon="2.14398">
        <ele>145</ele>
        <time>2019-05-12T06:05:57.000Z</time>
      </trkpt>
      <trkpt lat="48.76466" lon="2.14398">
        <ele>145</ele>
        <time>2019-05-12T06:05:59.000Z</time>
      </trkpt>
      <trkpt lat="48.76476" lon="2.14403">
        <ele>145</ele>
        <time>2019-05-12T06:06:03.000Z</time>
      </trkpt>
      <trkpt lat="48.76482" lon="2.14406">
        <ele>145</ele>
        <time>2019-05-12T06:06:05.000Z</time>
      </trkpt>
      <trkpt lat="48.76487" lon="2.14406">
        <ele>144</ele>
        <time>2019-05-12T06:06:07.000Z</time>
      </trkpt>
      <trkpt lat="48.76491" lon="2.14405">
        <ele>144</ele>
        <time>2019-05-12T06:06:11.000Z</time>
      </trkpt>
      <trkpt lat="48.76491" lon="2.14405">
        <ele>144</ele>
        <time>2019-05-12T06:06:13.000Z</time>
      </trkpt>
      <trkpt lat="48.76491" lon="2.14405">
        <ele>144</ele>
        <time>2019-05-12T06:06:15.000Z</time>
      </trkpt>
      <trkpt lat="48.76491" lon="2.14405">
        <ele>144</ele>
        <time>2019-05-12T06:06:17.000Z</time>
      </trkpt>
      <trkpt lat="48.76491" lon="2.14405">
        <ele>144</ele>
        <time>2019-05-12T06:06:19.000Z</time>
      </trkpt>
      <trkpt lat="48.76491" lon="2.14405">
        <ele>144</ele>
        <time>2019-05-12T06:06:21.000Z</time>
      </trkpt>
      <trkpt lat="48.76497" lon="2.14397">
        <ele>145</ele>
        <time>2019-05-12T06:06:25.000Z</time>
      </trkpt>
      <trkpt lat="48.76497" lon="2.14397">
        <ele>145</ele>
        <time>2019-05-12T06:06:27.000Z</time>
      </trkpt>
      <trkpt lat="48.76503" lon="2.14393">
        <ele>143</ele>
        <time>2019-05-12T06:06:29.000Z</time>
      </trkpt>
      <trkpt lat="48.76503" lon="2.14393">
        <ele>143</ele>
        <time>2019-05-12T06:06:34.000Z</time>
      </trkpt>
      <trkpt lat="48.76503" lon="2.14393">
        <ele>143</ele>
        <time>2019-05-12T06:06:35.000Z</time>
      </trkpt>
      <trkpt lat="48.76503" lon="2.14393">
        <ele>143</ele>
        <time>2019-05-12T06:06:37.000Z</time>
      </trkpt>
      <trkpt lat="48.76523" lon="2.14396">
        <ele>143</ele>
        <time>2019-05-12T06:06:55.000Z</time>
      </trkpt>
      <trkpt lat="48.76534" lon="2.14399">
        <ele>143</ele>
        <time>2019-05-12T06:06:57.000Z</time>
      </trkpt>
      <trkpt lat="48.76541" lon="2.144">
        <ele>142</ele>
        <time>2019-05-12T06:06:59.000Z</time>
      </trkpt>
      <trkpt lat="48.76541" lon="2.144">
        <ele>142</ele>
        <time>2019-05-12T06:07:01.000Z</time>
      </trkpt>
      <trkpt lat="48.76541" lon="2.144">
        <ele>142</ele>
        <time>2019-05-12T06:07:03.000Z</time>
      </trkpt>
      <trkpt lat="48.76541" lon="2.144">
        <ele>142</ele>
        <time>2019-05-12T06:07:05.000Z</time>
      </trkpt>
      <trkpt lat="48.76549" lon="2.14405">
        <ele>142</ele>
        <time>2019-05-12T06:07:07.000Z</time>
      </trkpt>
      <trkpt lat="48.76549" lon="2.14405">
        <ele>142</ele>
        <time>2019-05-12T06:07:13.000Z</time>
      </trkpt>
      <trkpt lat="48.76549" lon="2.14405">
        <ele>142</ele>
        <time>2019-05-12T06:07:15.000Z</time>
      </trkpt>
      <trkpt lat="48.76549" lon="2.14405">
        <ele>142</ele>
        <time>2019-05-12T06:07:17.000Z</time>
      </trkpt>
      <trkpt lat="48.76549" lon="2.14405">
        <ele>142</ele>
        <time>2019-05-12T06:07:19.000Z</time>
      </trkpt>
      <trkpt lat="48.76563" lon="2.14415">
        <ele>141</ele>
        <time>2019-05-12T06:07:27.000Z</time>
      </trkpt>
      <trkpt lat="48.76572" lon="2.1442">
        <ele>138</ele>
        <time>2019-05-12T06:07:29.000Z</time>
      </trkpt>
      <trkpt lat="48.7658" lon="2.14422">
        <ele>139</ele>
        <time>2019-05-12T06:07:31.000Z</time>
      </trkpt>
      <trkpt lat="48.7658" lon="2.14422">
        <ele>139</ele>
        <time>2019-05-12T06:07:33.000Z</time>
      </trkpt>
      <trkpt lat="48.7658" lon="2.14422">
        <ele>139</ele>
        <time>2019-05-12T06:07:35.000Z</time>
      </trkpt>
      <trkpt lat="48.7658" lon="2.14422">
        <ele>139</ele>
        <time>2019-05-12T06:07:37.000Z</time>
      </trkpt>
      <trkpt lat="48.7658" lon="2.14422">
        <ele>139</ele>
        <time>2019-05-12T06:07:39.000Z</time>
      </trkpt>
      <trkpt lat="48.7658" lon="2.14422">
        <ele>139</ele>
        <time>2019-05-12T06:07:41.000Z</time>
      </trkpt>
      <trkpt lat="48.7658" lon="2.14422">
        <ele>139</ele>
        <time>2019-05-12T06:08:01.000Z</time>
      </trkpt>
      <trkpt lat="48.766" lon="2.14443">
        <ele>130</ele>
        <time>2019-05-12T06:08:23.000Z</time>
      </trkpt>
      <trkpt lat="48.76611" lon="2.14457">
        <ele>128</ele>
        <time>2019-05-12T06:08:25.000Z</time>
      </trkpt>
      <trkpt lat="48.76611" lon="2.14457">
        <ele>128</ele>
        <time>2019-05-12T06:08:27.000Z</time>
      </trkpt>
      <trkpt lat="48.76611" lon="2.14457">
        <ele>128</ele>
        <time>2019-05-12T06:08:29.000Z</time>
      </trkpt>
      <trkpt lat="48.76628" lon="2.14473">
        <ele>126</ele>
        <time>2019-05-12T06:08:51.000Z</time>
      </trkpt>
      <trkpt lat="48.76638" lon="2.14483">
        <ele>125</ele>
        <time>2019-05-12T06:08:53.000Z</time>
      </trkpt>
      <trkpt lat="48.76644" lon="2.14488">
        <ele>124</ele>
        <time>2019-05-12T06:08:55.000Z</time>
      </trkpt>
      <trkpt lat="48.7665" lon="2.14493">
        <ele>123</ele>
        <time>2019-05-12T06:08:58.000Z</time>
      </trkpt>
      <trkpt lat="48.7665" lon="2.14493">
        <ele>123</ele>
        <time>2019-05-12T06:09:00.000Z</time>
      </trkpt>
      <trkpt lat="48.7665" lon="2.14493">
        <ele>123</ele>
        <time>2019-05-12T06:09:02.000Z</time>
      </trkpt>
      <trkpt lat="48.76662" lon="2.14507">
        <ele>118</ele>
        <time>2019-05-12T06:09:15.000Z</time>
      </trkpt>
      <trkpt lat="48.7667" lon="2.14517">
        <ele>115</ele>
        <time>2019-05-12T06:09:17.000Z</time>
      </trkpt>
      <trkpt lat="48.76676" lon="2.14524">
        <ele>114</ele>
        <time>2019-05-12T06:09:19.000Z</time>
      </trkpt>
      <trkpt lat="48.76676" lon="2.14524">
        <ele>114</ele>
        <time>2019-05-12T06:09:21.000Z</time>
      </trkpt>
      <trkpt lat="48.76676" lon="2.14524">
        <ele>114</ele>
        <time>2019-05-12T06:09:23.000Z</time>
      </trkpt>
      <trkpt lat="48.76676" lon="2.14524">
        <ele>114</ele>
        <time>2019-05-12T06:09:25.000Z</time>
      </trkpt>
      <trkpt lat="48.76676" lon="2.14524">
        <ele>114</ele>
        <time>2019-05-12T06:09:27.000Z</time>
      </trkpt>
      <trkpt lat="48.76676" lon="2.14524">
        <ele>114</ele>
        <time>2019-05-12T06:09:29.000Z</time>
      </trkpt>
      <trkpt lat="48.76676" lon="2.14524">
        <ele>114</ele>
        <time>2019-05-12T06:09:31.000Z</time>
      </trkpt>
      <trkpt lat="48.76676" lon="2.14524">
        <ele>114</ele>
        <time>2019-05-12T06:09:33.000Z</time>
      </trkpt>
      <trkpt lat="48.76676" lon="2.14524">
        <ele>114</ele>
        <time>2019-05-12T06:09:35.000Z</time>
      </trkpt>
      <trkpt lat="48.76676" lon="2.14524">
        <ele>114</ele>
        <time>2019-05-12T06:09:37.000Z</time>
      </trkpt>
      <trkpt lat="48.76676" lon="2.14524">
        <ele>114</ele>
        <time>2019-05-12T06:09:39.000Z</time>
      </trkpt>
      <trkpt lat="48.76693" lon="2.14542">
        <ele>113</ele>
        <time>2019-05-12T06:09:43.000Z</time>
      </trkpt>
      <trkpt lat="48.76703" lon="2.14552">
        <ele>112</ele>
        <time>2019-05-12T06:09:45.000Z</time>
      </trkpt>
      <trkpt lat="48.76709" lon="2.14557">
        <ele>112</ele>
        <time>2019-05-12T06:09:47.000Z</time>
      </trkpt>
      <trkpt lat="48.76709" lon="2.14557">
        <ele>112</ele>
        <time>2019-05-12T06:09:49.000Z</time>
      </trkpt>
      <trkpt lat="48.76709" lon="2.14557">
        <ele>112</ele>
        <time>2019-05-12T06:09:51.000Z</time>
      </trkpt>
      <trkpt lat="48.76709" lon="2.14557">
        <ele>112</ele>
        <time>2019-05-12T06:09:53.000Z</time>
      </trkpt>
      <trkpt lat="48.76718" lon="2.14561">
        <ele>112</ele>
        <time>2019-05-12T06:09:55.000Z</time>
      </trkpt>
      <trkpt lat="48.76726" lon="2.14564">
        <ele>111</ele>
        <time>2019-05-12T06:09:59.000Z</time>
      </trkpt>
      <trkpt lat="48.76726" lon="2.14564">
        <ele>111</ele>
        <time>2019-05-12T06:10:01.000Z</time>
      </trkpt>
      <trkpt lat="48.76726" lon="2.14564">
        <ele>111</ele>
        <time>2019-05-12T06:10:03.000Z</time>
      </trkpt>
      <trkpt lat="48.76732" lon="2.14571">
        <ele>111</ele>
        <time>2019-05-12T06:10:09.000Z</time>
      </trkpt>
      <trkpt lat="48.76738" lon="2.14578">
        <ele>111</ele>
        <time>2019-05-12T06:10:13.000Z</time>
      </trkpt>
      <trkpt lat="48.76738" lon="2.14578">
        <ele>111</ele>
        <time>2019-05-12T06:10:15.000Z</time>
      </trkpt>
      <trkpt lat="48.76738" lon="2.14578">
        <ele>111</ele>
        <time>2019-05-12T06:10:17.000Z</time>
      </trkpt>
      <trkpt lat="48.76738" lon="2.14578">
        <ele>111</ele>
        <time>2019-05-12T06:10:19.000Z</time>
      </trkpt>
      <trkpt lat="48.76738" lon="2.14578">
        <ele>111</ele>
        <time>2019-05-12T06:10:21.000Z</time>
      </trkpt>
      <trkpt lat="48.76751" lon="2.14589">
        <ele>109</ele>
        <time>2019-05-12T06:10:27.000Z</time>
      </trkpt>
      <trkpt lat="48.76759" lon="2.14596">
        <ele>108</ele>
        <time>2019-05-12T06:10:29.000Z</time>
      </trkpt>
      <trkpt lat="48.76759" lon="2.14596">
        <ele>108</ele>
        <time>2019-05-12T06:10:31.000Z</time>
      </trkpt>
      <trkpt lat="48.76759" lon="2.14596">
        <ele>108</ele>
        <time>2019-05-12T06:10:33.000Z</time>
      </trkpt>
      <trkpt lat="48.76773" lon="2.14609">
        <ele>107</ele>
        <time>2019-05-12T06:10:45.000Z</time>
      </trkpt>
      <trkpt lat="48.76781" lon="2.14617">
        <ele>106</ele>
        <time>2019-05-12T06:10:47.000Z</time>
      </trkpt>
      <trkpt lat="48.76787" lon="2.14622">
        <ele>106</ele>
        <time>2019-05-12T06:10:49.000Z</time>
      </trkpt>
      <trkpt lat="48.76787" lon="2.14622">
        <ele>106</ele>
        <time>2019-05-12T06:10:51.000Z</time>
      </trkpt>
      <trkpt lat="48.76793" lon="2.14615">
        <ele>106</ele>
        <time>2019-05-12T06:11:01.000Z</time>
      </trkpt>
      <trkpt lat="48.76793" lon="2.14615">
        <ele>106</ele>
        <time>2019-05-12T06:11:03.000Z</time>
      </trkpt>
      <trkpt lat="48.76793" lon="2.14615">
        <ele>106</ele>
        <time>2019-05-12T06:11:05.000Z</time>
      </trkpt>
      <trkpt lat="48.76793" lon="2.14615">
        <ele>106</ele>
        <time>2019-05-12T06:11:07.000Z</time>
      </trkpt>
      <trkpt lat="48.76797" lon="2.14605">
        <ele>106</ele>
        <time>2019-05-12T06:11:11.000Z</time>
      </trkpt>
      <trkpt lat="48.76801" lon="2.14596">
        <ele>106</ele>
        <time>2019-05-12T06:11:15.000Z</time>
      </trkpt>
      <trkpt lat="48.76801" lon="2.14596">
        <ele>106</ele>
        <time>2019-05-12T06:11:17.000Z</time>
      </trkpt>
      <trkpt lat="48.76801" lon="2.14596">
        <ele>106</ele>
        <time>2019-05-12T06:11:19.000Z</time>
      </trkpt>
      <trkpt lat="48.76801" lon="2.14596">
        <ele>106</ele>
        <time>2019-05-12T06:11:21.000Z</time>
      </trkpt>
      <trkpt lat="48.76801" lon="2.14596">
        <ele>106</ele>
        <time>2019-05-12T06:11:23.000Z</time>
      </trkpt>
      <trkpt lat="48.76806" lon="2.14572">
        <ele>106</ele>
        <time>2019-05-12T06:11:35.000Z</time>
      </trkpt>
      <trkpt lat="48.76809" lon="2.14558">
        <ele>106</ele>
        <time>2019-05-12T06:11:37.000Z</time>
      </trkpt>
      <trkpt lat="48.7681" lon="2.14547">
        <ele>106</ele>
        <time>2019-05-12T06:11:41.000Z</time>
      </trkpt>
      <trkpt lat="48.76812" lon="2.14537">
        <ele>106</ele>
        <time>2019-05-12T06:11:45.000Z</time>
      </trkpt>
      <trkpt lat="48.76812" lon="2.14537">
        <ele>106</ele>
        <time>2019-05-12T06:11:47.000Z</time>
      </trkpt>
      <trkpt lat="48.76812" lon="2.14537">
        <ele>106</ele>
        <time>2019-05-12T06:11:49.000Z</time>
      </trkpt>
      <trkpt lat="48.76812" lon="2.14537">
        <ele>106</ele>
        <time>2019-05-12T06:11:51.000Z</time>
      </trkpt>
      <trkpt lat="48.76812" lon="2.14537">
        <ele>106</ele>
        <time>2019-05-12T06:11:53.000Z</time>
      </trkpt>
      <trkpt lat="48.76818" lon="2.14521">
        <ele>105</ele>
        <time>2019-05-12T06:11:59.000Z</time>
      </trkpt>
      <trkpt lat="48.76822" lon="2.1451">
        <ele>105</ele>
        <time>2019-05-12T06:12:01.000Z</time>
      </trkpt>
      <trkpt lat="48.76825" lon="2.14501">
        <ele>104</ele>
        <time>2019-05-12T06:12:05.000Z</time>
      </trkpt>
      <trkpt lat="48.76825" lon="2.14501">
        <ele>104</ele>
        <time>2019-05-12T06:12:07.000Z</time>
      </trkpt>
      <trkpt lat="48.76825" lon="2.14501">
        <ele>104</ele>
        <time>2019-05-12T06:12:09.000Z</time>
      </trkpt>
      <trkpt lat="48.76826" lon="2.14491">
        <ele>104</ele>
        <time>2019-05-12T06:12:11.000Z</time>
      </trkpt>
      <trkpt lat="48.76826" lon="2.14491">
        <ele>104</ele>
        <time>2019-05-12T06:12:13.000Z</time>
      </trkpt>
      <trkpt lat="48.76826" lon="2.14491">
        <ele>104</ele>
        <time>2019-05-12T06:12:15.000Z</time>
      </trkpt>
      <trkpt lat="48.76826" lon="2.14491">
        <ele>104</ele>
        <time>2019-05-12T06:12:17.000Z</time>
      </trkpt>
      <trkpt lat="48.76831" lon="2.14479">
        <ele>105</ele>
        <time>2019-05-12T06:12:23.000Z</time>
      </trkpt>
      <trkpt lat="48.76831" lon="2.14479">
        <ele>105</ele>
        <time>2019-05-12T06:12:25.000Z</time>
      </trkpt>
      <trkpt lat="48.76837" lon="2.14471">
        <ele>102</ele>
        <time>2019-05-12T06:12:29.000Z</time>
      </trkpt>
      <trkpt lat="48.76843" lon="2.14463">
        <ele>102</ele>
        <time>2019-05-12T06:12:33.000Z</time>
      </trkpt>
      <trkpt lat="48.76843" lon="2.14463">
        <ele>102</ele>
        <time>2019-05-12T06:12:35.000Z</time>
      </trkpt>
      <trkpt lat="48.76843" lon="2.14463">
        <ele>102</ele>
        <time>2019-05-12T06:12:37.000Z</time>
      </trkpt>
      <trkpt lat="48.76843" lon="2.14463">
        <ele>102</ele>
        <time>2019-05-12T06:12:39.000Z</time>
      </trkpt>
      <trkpt lat="48.76843" lon="2.14463">
        <ele>102</ele>
        <time>2019-05-12T06:12:41.000Z</time>
      </trkpt>
      <trkpt lat="48.76843" lon="2.14463">
        <ele>102</ele>
        <time>2019-05-12T06:12:43.000Z</time>
      </trkpt>
      <trkpt lat="48.76843" lon="2.14463">
        <ele>102</ele>
        <time>2019-05-12T06:12:49.000Z</time>
      </trkpt>
      <trkpt lat="48.76861" lon="2.1445">
        <ele>101</ele>
        <time>2019-05-12T06:12:55.000Z</time>
      </trkpt>
      <trkpt lat="48.76871" lon="2.14442">
        <ele>101</ele>
        <time>2019-05-12T06:12:57.000Z</time>
      </trkpt>
      <trkpt lat="48.76878" lon="2.14438">
        <ele>101</ele>
        <time>2019-05-12T06:12:59.000Z</time>
      </trkpt>
      <trkpt lat="48.76884" lon="2.14435">
        <ele>101</ele>
        <time>2019-05-12T06:13:01.000Z</time>
      </trkpt>
      <trkpt lat="48.76889" lon="2.14434">
        <ele>100</ele>
        <time>2019-05-12T06:13:03.000Z</time>
      </trkpt>
      <trkpt lat="48.76899" lon="2.14436">
        <ele>100</ele>
        <time>2019-05-12T06:13:07.000Z</time>
      </trkpt>
      <trkpt lat="48.76899" lon="2.14436">
        <ele>100</ele>
        <time>2019-05-12T06:13:09.000Z</time>
      </trkpt>
      <trkpt lat="48.76899" lon="2.14436">
        <ele>100</ele>
        <time>2019-05-12T06:13:17.000Z</time>
      </trkpt>
      <trkpt lat="48.76899" lon="2.14436">
        <ele>100</ele>
        <time>2019-05-12T06:13:19.000Z</time>
      </trkpt>
      <trkpt lat="48.76899" lon="2.14436">
        <ele>100</ele>
        <time>2019-05-12T06:13:21.000Z</time>
      </trkpt>
      <trkpt lat="48.76918" lon="2.14448">
        <ele>99</ele>
        <time>2019-05-12T06:13:25.000Z</time>
      </trkpt>
      <trkpt lat="48.76918" lon="2.14448">
        <ele>99</ele>
        <time>2019-05-12T06:13:29.000Z</time>
      </trkpt>
      <trkpt lat="48.76918" lon="2.14448">
        <ele>99</ele>
        <time>2019-05-12T06:13:31.000Z</time>
      </trkpt>
      <trkpt lat="48.76918" lon="2.14448">
        <ele>99</ele>
        <time>2019-05-12T06:13:33.000Z</time>
      </trkpt>
      <trkpt lat="48.76924" lon="2.14463">
        <ele>99</ele>
        <time>2019-05-12T06:13:37.000Z</time>
      </trkpt>
      <trkpt lat="48.76934" lon="2.14471">
        <ele>99</ele>
        <time>2019-05-12T06:13:43.000Z</time>
      </trkpt>
      <trkpt lat="48.76934" lon="2.14471">
        <ele>99</ele>
        <time>2019-05-12T06:13:45.000Z</time>
      </trkpt>
      <trkpt lat="48.76934" lon="2.14471">
        <ele>99</ele>
        <time>2019-05-12T06:13:47.000Z</time>
      </trkpt>
      <trkpt lat="48.76934" lon="2.14471">
        <ele>99</ele>
        <time>2019-05-12T06:13:49.000Z</time>
      </trkpt>
      <trkpt lat="48.76934" lon="2.14471">
        <ele>99</ele>
        <time>2019-05-12T06:13:51.000Z</time>
      </trkpt>
      <trkpt lat="48.76934" lon="2.14471">
        <ele>99</ele>
        <time>2019-05-12T06:13:53.000Z</time>
      </trkpt>
      <trkpt lat="48.76934" lon="2.14471">
        <ele>99</ele>
        <time>2019-05-12T06:13:55.000Z</time>
      </trkpt>
      <trkpt lat="48.76934" lon="2.14471">
        <ele>99</ele>
        <time>2019-05-12T06:13:57.000Z</time>
      </trkpt>
      <trkpt lat="48.76934" lon="2.14471">
        <ele>99</ele>
        <time>2019-05-12T06:13:59.000Z</time>
      </trkpt>
      <trkpt lat="48.76954" lon="2.14494">
        <ele>99</ele>
        <time>2019-05-12T06:14:03.000Z</time>
      </trkpt>
      <trkpt lat="48.76962" lon="2.14502">
        <ele>99</ele>
        <time>2019-05-12T06:14:09.000Z</time>
      </trkpt>
      <trkpt lat="48.76962" lon="2.14502">
        <ele>99</ele>
        <time>2019-05-12T06:14:11.000Z</time>
      </trkpt>
      <trkpt lat="48.76962" lon="2.14502">
        <ele>99</ele>
        <time>2019-05-12T06:14:13.000Z</time>
      </trkpt>
      <trkpt lat="48.76962" lon="2.14502">
        <ele>99</ele>
        <time>2019-05-12T06:14:15.000Z</time>
      </trkpt>
      <trkpt lat="48.76962" lon="2.14502">
        <ele>99</ele>
        <time>2019-05-12T06:14:17.000Z</time>
      </trkpt>
      <trkpt lat="48.76962" lon="2.14502">
        <ele>99</ele>
        <time>2019-05-12T06:14:19.000Z</time>
      </trkpt>
      <trkpt lat="48.76962" lon="2.14502">
        <ele>99</ele>
        <time>2019-05-12T06:14:21.000Z</time>
      </trkpt>
      <trkpt lat="48.76962" lon="2.14502">
        <ele>99</ele>
        <time>2019-05-12T06:14:23.000Z</time>
      </trkpt>
      <trkpt lat="48.76962" lon="2.14502">
        <ele>99</ele>
        <time>2019-05-12T06:14:25.000Z</time>
      </trkpt>
      <trkpt lat="48.7697" lon="2.14515">
        <ele>99</ele>
        <time>2019-05-12T06:14:29.000Z</time>
      </trkpt>
      <trkpt lat="48.76975" lon="2.14523">
        <ele>99</ele>
        <time>2019-05-12T06:14:31.000Z</time>
      </trkpt>
      <trkpt lat="48.76979" lon="2.14528">
        <ele>99</ele>
        <time>2019-05-12T06:14:33.000Z</time>
      </trkpt>
      <trkpt lat="48.76979" lon="2.14528">
        <ele>99</ele>
        <time>2019-05-12T06:14:35.000Z</time>
      </trkpt>
      <trkpt lat="48.76979" lon="2.14528">
        <ele>99</ele>
        <time>2019-05-12T06:14:37.000Z</time>
      </trkpt>
      <trkpt lat="48.76979" lon="2.14528">
        <ele>99</ele>
        <time>2019-05-12T06:14:39.000Z</time>
      </trkpt>
      <trkpt lat="48.76984" lon="2.14536">
        <ele>99</ele>
        <time>2019-05-12T06:14:41.000Z</time>
      </trkpt>
      <trkpt lat="48.76989" lon="2.14541">
        <ele>99</ele>
        <time>2019-05-12T06:14:43.000Z</time>
      </trkpt>
      <trkpt lat="48.76992" lon="2.14545">
        <ele>99</ele>
        <time>2019-05-12T06:14:45.000Z</time>
      </trkpt>
      <trkpt lat="48.76992" lon="2.14545">
        <ele>99</ele>
        <time>2019-05-12T06:14:47.000Z</time>
      </trkpt>
      <trkpt lat="48.76992" lon="2.14545">
        <ele>99</ele>
        <time>2019-05-12T06:14:49.000Z</time>
      </trkpt>
      <trkpt lat="48.77001" lon="2.14553">
        <ele>105</ele>
        <time>2019-05-12T06:14:55.000Z</time>
      </trkpt>
      <trkpt lat="48.77001" lon="2.14553">
        <ele>105</ele>
        <time>2019-05-12T06:14:57.000Z</time>
      </trkpt>
      <trkpt lat="48.77007" lon="2.1456">
        <ele>105</ele>
        <time>2019-05-12T06:14:59.000Z</time>
      </trkpt>
      <trkpt lat="48.7701" lon="2.14567">
        <ele>104</ele>
        <time>2019-05-12T06:15:03.000Z</time>
      </trkpt>
      <trkpt lat="48.7701" lon="2.14567">
        <ele>104</ele>
        <time>2019-05-12T06:15:05.000Z</time>
      </trkpt>
      <trkpt lat="48.77013" lon="2.14573">
        <ele>104</ele>
        <time>2019-05-12T06:15:07.000Z</time>
      </trkpt>
      <trkpt lat="48.77013" lon="2.14573">
        <ele>104</ele>
        <time>2019-05-12T06:15:09.000Z</time>
      </trkpt>
      <trkpt lat="48.77016" lon="2.14579">
        <ele>104</ele>
        <time>2019-05-12T06:15:11.000Z</time>
      </trkpt>
      <trkpt lat="48.77016" lon="2.14579">
        <ele>104</ele>
        <time>2019-05-12T06:15:13.000Z</time>
      </trkpt>
      <trkpt lat="48.77016" lon="2.14579">
        <ele>104</ele>
        <time>2019-05-12T06:15:15.000Z</time>
      </trkpt>
      <trkpt lat="48.77016" lon="2.14579">
        <ele>104</ele>
        <time>2019-05-12T06:15:17.000Z</time>
      </trkpt>
      <trkpt lat="48.77016" lon="2.14579">
        <ele>104</ele>
        <time>2019-05-12T06:15:23.000Z</time>
      </trkpt>
      <trkpt lat="48.77016" lon="2.14579">
        <ele>104</ele>
        <time>2019-05-12T06:15:25.000Z</time>
      </trkpt>
      <trkpt lat="48.77029" lon="2.1459">
        <ele>104</ele>
        <time>2019-05-12T06:15:29.000Z</time>
      </trkpt>
      <trkpt lat="48.77037" lon="2.14597">
        <ele>105</ele>
        <time>2019-05-12T06:15:31.000Z</time>
      </trkpt>
      <trkpt lat="48.77042" lon="2.14602">
        <ele>106</ele>
        <time>2019-05-12T06:15:33.000Z</time>
      </trkpt>
      <trkpt lat="48.77042" lon="2.14602">
        <ele>106</ele>
        <time>2019-05-12T06:15:35.000Z</time>
      </trkpt>
      <trkpt lat="48.77042" lon="2.14602">
        <ele>106</ele>
        <time>2019-05-12T06:15:37.000Z</time>
      </trkpt>
      <trkpt lat="48.77042" lon="2.14602">
        <ele>106</ele>
        <time>2019-05-12T06:15:42.000Z</time>
      </trkpt>
      <trkpt lat="48.77042" lon="2.14602">
        <ele>106</ele>
        <time>2019-05-12T06:15:43.000Z</time>
      </trkpt>
      <trkpt lat="48.77042" lon="2.14602">
        <ele>106</ele>
        <time>2019-05-12T06:15:45.000Z</time>
      </trkpt>
      <trkpt lat="48.77042" lon="2.14602">
        <ele>106</ele>
        <time>2019-05-12T06:15:53.000Z</time>
      </trkpt>
      <trkpt lat="48.77053" lon="2.1462">
        <ele>106</ele>
        <time>2019-05-12T06:15:55.000Z</time>
      </trkpt>
      <trkpt lat="48.77053" lon="2.1462">
        <ele>106</ele>
        <time>2019-05-12T06:15:57.000Z</time>
      </trkpt>
      <trkpt lat="48.77053" lon="2.1462">
        <ele>106</ele>
        <time>2019-05-12T06:15:59.000Z</time>
      </trkpt>
      <trkpt lat="48.77053" lon="2.1462">
        <ele>106</ele>
        <time>2019-05-12T06:16:01.000Z</time>
      </trkpt>
      <trkpt lat="48.77053" lon="2.1462">
        <ele>106</ele>
        <time>2019-05-12T06:16:03.000Z</time>
      </trkpt>
      <trkpt lat="48.77053" lon="2.1462">
        <ele>106</ele>
        <time>2019-05-12T06:16:07.000Z</time>
      </trkpt>
      <trkpt lat="48.77061" lon="2.14609">
        <ele>107</ele>
        <time>2019-05-12T06:16:42.000Z</time>
      </trkpt>
      <trkpt lat="48.77061" lon="2.14609">
        <ele>107</ele>
        <time>2019-05-12T06:16:50.000Z</time>
      </trkpt>
      <trkpt lat="48.77061" lon="2.14609">
        <ele>107</ele>
        <time>2019-05-12T06:16:52.000Z</time>
      </trkpt>
      <trkpt lat="48.77061" lon="2.14609">
        <ele>107</ele>
        <time>2019-05-12T06:16:54.000Z</time>
      </trkpt>
      <trkpt lat="48.77065" lon="2.14587">
        <ele>110</ele>
        <time>2019-05-12T06:16:56.000Z</time>
      </trkpt>
      <trkpt lat="48.77068" lon="2.14576">
        <ele>112</ele>
        <time>2019-05-12T06:16:58.000Z</time>
      </trkpt>
      <trkpt lat="48.77068" lon="2.14576">
        <ele>112</ele>
        <time>2019-05-12T06:17:00.000Z</time>
      </trkpt>
      <trkpt lat="48.77068" lon="2.14576">
        <ele>112</ele>
        <time>2019-05-12T06:17:02.000Z</time>
      </trkpt>
      <trkpt lat="48.77068" lon="2.14576">
        <ele>112</ele>
        <time>2019-05-12T06:17:04.000Z</time>
      </trkpt>
      <trkpt lat="48.77068" lon="2.14576">
        <ele>112</ele>
        <time>2019-05-12T06:17:06.000Z</time>
      </trkpt>
      <trkpt lat="48.77074" lon="2.14571">
        <ele>112</ele>
        <time>2019-05-12T06:17:12.000Z</time>
      </trkpt>
      <trkpt lat="48.77074" lon="2.14571">
        <ele>112</ele>
        <time>2019-05-12T06:17:14.000Z</time>
      </trkpt>
      <trkpt lat="48.77074" lon="2.14571">
        <ele>112</ele>
        <time>2019-05-12T06:17:16.000Z</time>
      </trkpt>
      <trkpt lat="48.77074" lon="2.14571">
        <ele>112</ele>
        <time>2019-05-12T06:17:18.000Z</time>
      </trkpt>
      <trkpt lat="48.77074" lon="2.14571">
        <ele>112</ele>
        <time>2019-05-12T06:17:20.000Z</time>
      </trkpt>
      <trkpt lat="48.77074" lon="2.14571">
        <ele>112</ele>
        <time>2019-05-12T06:17:22.000Z</time>
      </trkpt>
      <trkpt lat="48.77074" lon="2.14571">
        <ele>112</ele>
        <time>2019-05-12T06:17:34.000Z</time>
      </trkpt>
      <trkpt lat="48.77074" lon="2.14571">
        <ele>112</ele>
        <time>2019-05-12T06:17:36.000Z</time>
      </trkpt>
      <trkpt lat="48.77074" lon="2.14571">
        <ele>112</ele>
        <time>2019-05-12T06:17:50.000Z</time>
      </trkpt>
      <trkpt lat="48.77098" lon="2.14576">
        <ele>121</ele>
        <time>2019-05-12T06:18:03.000Z</time>
      </trkpt>
      <trkpt lat="48.7711" lon="2.14577">
        <ele>124</ele>
        <time>2019-05-12T06:18:05.000Z</time>
      </trkpt>
      <trkpt lat="48.7711" lon="2.14577">
        <ele>124</ele>
        <time>2019-05-12T06:18:07.000Z</time>
      </trkpt>
      <trkpt lat="48.7711" lon="2.14577">
        <ele>124</ele>
        <time>2019-05-12T06:18:09.000Z</time>
      </trkpt>
      <trkpt lat="48.7711" lon="2.14577">
        <ele>124</ele>
        <time>2019-05-12T06:18:11.000Z</time>
      </trkpt>
      <trkpt lat="48.77116" lon="2.1457">
        <ele>125</ele>
        <time>2019-05-12T06:18:15.000Z</time>
      </trkpt>
      <trkpt lat="48.77116" lon="2.1457">
        <ele>125</ele>
        <time>2019-05-12T06:18:17.000Z</time>
      </trkpt>
      <trkpt lat="48.77118" lon="2.1456">
        <ele>126</ele>
        <time>2019-05-12T06:18:21.000Z</time>
      </trkpt>
      <trkpt lat="48.77118" lon="2.1456">
        <ele>126</ele>
        <time>2019-05-12T06:18:23.000Z</time>
      </trkpt>
      <trkpt lat="48.77118" lon="2.1456">
        <ele>126</ele>
        <time>2019-05-12T06:18:25.000Z</time>
      </trkpt>
      <trkpt lat="48.77118" lon="2.1456">
        <ele>126</ele>
        <time>2019-05-12T06:18:27.000Z</time>
      </trkpt>
      <trkpt lat="48.77118" lon="2.1456">
        <ele>126</ele>
        <time>2019-05-12T06:18:29.000Z</time>
      </trkpt>
      <trkpt lat="48.77118" lon="2.1455">
        <ele>126</ele>
        <time>2019-05-12T06:18:33.000Z</time>
      </trkpt>
      <trkpt lat="48.77118" lon="2.1455">
        <ele>126</ele>
        <time>2019-05-12T06:18:37.000Z</time>
      </trkpt>
      <trkpt lat="48.77118" lon="2.1455">
        <ele>126</ele>
        <time>2019-05-12T06:18:39.000Z</time>
      </trkpt>
      <trkpt lat="48.77118" lon="2.1455">
        <ele>126</ele>
        <time>2019-05-12T06:18:41.000Z</time>
      </trkpt>
      <trkpt lat="48.77118" lon="2.1455">
        <ele>126</ele>
        <time>2019-05-12T06:18:43.000Z</time>
      </trkpt>
      <trkpt lat="48.77116" lon="2.14538">
        <ele>126</ele>
        <time>2019-05-12T06:18:45.000Z</time>
      </trkpt>
      <trkpt lat="48.77117" lon="2.14527">
        <ele>127</ele>
        <time>2019-05-12T06:18:49.000Z</time>
      </trkpt>
      <trkpt lat="48.77117" lon="2.14527">
        <ele>127</ele>
        <time>2019-05-12T06:18:51.000Z</time>
      </trkpt>
      <trkpt lat="48.77117" lon="2.14527">
        <ele>127</ele>
        <time>2019-05-12T06:18:53.000Z</time>
      </trkpt>
      <trkpt lat="48.77117" lon="2.14527">
        <ele>127</ele>
        <time>2019-05-12T06:18:55.000Z</time>
      </trkpt>
      <trkpt lat="48.77117" lon="2.14527">
        <ele>127</ele>
        <time>2019-05-12T06:18:57.000Z</time>
      </trkpt>
      <trkpt lat="48.77117" lon="2.14527">
        <ele>127</ele>
        <time>2019-05-12T06:19:01.000Z</time>
      </trkpt>
      <trkpt lat="48.77116" lon="2.14512">
        <ele>127</ele>
        <time>2019-05-12T06:19:05.000Z</time>
      </trkpt>
      <trkpt lat="48.77116" lon="2.14512">
        <ele>127</ele>
        <time>2019-05-12T06:19:09.000Z</time>
      </trkpt>
      <trkpt lat="48.77116" lon="2.14512">
        <ele>127</ele>
        <time>2019-05-12T06:19:11.000Z</time>
      </trkpt>
      <trkpt lat="48.77116" lon="2.14512">
        <ele>127</ele>
        <time>2019-05-12T06:19:13.000Z</time>
      </trkpt>
      <trkpt lat="48.77116" lon="2.14512">
        <ele>127</ele>
        <time>2019-05-12T06:19:15.000Z</time>
      </trkpt>
      <trkpt lat="48.77116" lon="2.14512">
        <ele>127</ele>
        <time>2019-05-12T06:19:17.000Z</time>
      </trkpt>
      <trkpt lat="48.77116" lon="2.14512">
        <ele>127</ele>
        <time>2019-05-12T06:19:19.000Z</time>
      </trkpt>
      <trkpt lat="48.77121" lon="2.14495">
        <ele>128</ele>
        <time>2019-05-12T06:19:27.000Z</time>
      </trkpt>
      <trkpt lat="48.77121" lon="2.14495">
        <ele>128</ele>
        <time>2019-05-12T06:19:29.000Z</time>
      </trkpt>
      <trkpt lat="48.77125" lon="2.14483">
        <ele>129</ele>
        <time>2019-05-12T06:19:31.000Z</time>
      </trkpt>
      <trkpt lat="48.77128" lon="2.14474">
        <ele>129</ele>
        <time>2019-05-12T06:19:35.000Z</time>
      </trkpt>
      <trkpt lat="48.77128" lon="2.14474">
        <ele>129</ele>
        <time>2019-05-12T06:19:37.000Z</time>
      </trkpt>
      <trkpt lat="48.77128" lon="2.14474">
        <ele>129</ele>
        <time>2019-05-12T06:19:39.000Z</time>
      </trkpt>
      <trkpt lat="48.77128" lon="2.14474">
        <ele>129</ele>
        <time>2019-05-12T06:19:41.000Z</time>
      </trkpt>
      <trkpt lat="48.77128" lon="2.14474">
        <ele>129</ele>
        <time>2019-05-12T06:19:43.000Z</time>
      </trkpt>
      <trkpt lat="48.77128" lon="2.14474">
        <ele>129</ele>
        <time>2019-05-12T06:19:45.000Z</time>
      </trkpt>
      <trkpt lat="48.77128" lon="2.14474">
        <ele>129</ele>
        <time>2019-05-12T06:19:53.000Z</time>
      </trkpt>
      <trkpt lat="48.77138" lon="2.14458">
        <ele>130</ele>
        <time>2019-05-12T06:19:58.000Z</time>
      </trkpt>
      <trkpt lat="48.77144" lon="2.1445">
        <ele>131</ele>
        <time>2019-05-12T06:20:00.000Z</time>
      </trkpt>
      <trkpt lat="48.77144" lon="2.1445">
        <ele>131</ele>
        <time>2019-05-12T06:20:02.000Z</time>
      </trkpt>
      <trkpt lat="48.7715" lon="2.14442">
        <ele>132</ele>
        <time>2019-05-12T06:20:04.000Z</time>
      </trkpt>
      <trkpt lat="48.7715" lon="2.14442">
        <ele>132</ele>
        <time>2019-05-12T06:20:06.000Z</time>
      </trkpt>
      <trkpt lat="48.7715" lon="2.14442">
        <ele>132</ele>
        <time>2019-05-12T06:20:12.000Z</time>
      </trkpt>
      <trkpt lat="48.7715" lon="2.14442">
        <ele>132</ele>
        <time>2019-05-12T06:20:14.000Z</time>
      </trkpt>
      <trkpt lat="48.7715" lon="2.14442">
        <ele>132</ele>
        <time>2019-05-12T06:20:16.000Z</time>
      </trkpt>
      <trkpt lat="48.7715" lon="2.14442">
        <ele>132</ele>
        <time>2019-05-12T06:20:20.000Z</time>
      </trkpt>
      <trkpt lat="48.7715" lon="2.14442">
        <ele>132</ele>
        <time>2019-05-12T06:20:22.000Z</time>
      </trkpt>
      <trkpt lat="48.7715" lon="2.14442">
        <ele>132</ele>
        <time>2019-05-12T06:20:24.000Z</time>
      </trkpt>
      <trkpt lat="48.7715" lon="2.14442">
        <ele>132</ele>
        <time>2019-05-12T06:20:28.000Z</time>
      </trkpt>
      <trkpt lat="48.7715" lon="2.14442">
        <ele>132</ele>
        <time>2019-05-12T06:20:30.000Z</time>
      </trkpt>
      <trkpt lat="48.77167" lon="2.14418">
        <ele>138</ele>
        <time>2019-05-12T06:20:36.000Z</time>
      </trkpt>
      <trkpt lat="48.77177" lon="2.14406">
        <ele>139</ele>
        <time>2019-05-12T06:20:38.000Z</time>
      </trkpt>
      <trkpt lat="48.77183" lon="2.14398">
        <ele>139</ele>
        <time>2019-05-12T06:20:40.000Z</time>
      </trkpt>
      <trkpt lat="48.77188" lon="2.14392">
        <ele>139</ele>
        <time>2019-05-12T06:20:44.000Z</time>
      </trkpt>
      <trkpt lat="48.77188" lon="2.14392">
        <ele>139</ele>
        <time>2019-05-12T06:20:46.000Z</time>
      </trkpt>
      <trkpt lat="48.77188" lon="2.14392">
        <ele>139</ele>
        <time>2019-05-12T06:20:48.000Z</time>
      </trkpt>
      <trkpt lat="48.77188" lon="2.14392">
        <ele>139</ele>
        <time>2019-05-12T06:20:50.000Z</time>
      </trkpt>
      <trkpt lat="48.77188" lon="2.14392">
        <ele>139</ele>
        <time>2019-05-12T06:20:56.000Z</time>
      </trkpt>
      <trkpt lat="48.77188" lon="2.14392">
        <ele>139</ele>
        <time>2019-05-12T06:20:58.000Z</time>
      </trkpt>
      <trkpt lat="48.77188" lon="2.14392">
        <ele>139</ele>
        <time>2019-05-12T06:21:00.000Z</time>
      </trkpt>
      <trkpt lat="48.77199" lon="2.14372">
        <ele>139</ele>
        <time>2019-05-12T06:21:10.000Z</time>
      </trkpt>
      <trkpt lat="48.77205" lon="2.14361">
        <ele>139</ele>
        <time>2019-05-12T06:21:12.000Z</time>
      </trkpt>
      <trkpt lat="48.77205" lon="2.14361">
        <ele>139</ele>
        <time>2019-05-12T06:21:14.000Z</time>
      </trkpt>
      <trkpt lat="48.77205" lon="2.14361">
        <ele>139</ele>
        <time>2019-05-12T06:21:16.000Z</time>
      </trkpt>
      <trkpt lat="48.77205" lon="2.14361">
        <ele>139</ele>
        <time>2019-05-12T06:21:18.000Z</time>
      </trkpt>
      <trkpt lat="48.77205" lon="2.14361">
        <ele>139</ele>
        <time>2019-05-12T06:21:20.000Z</time>
      </trkpt>
      <trkpt lat="48.77205" lon="2.14361">
        <ele>139</ele>
        <time>2019-05-12T06:21:22.000Z</time>
      </trkpt>
      <trkpt lat="48.77216" lon="2.14348">
        <ele>140</ele>
        <time>2019-05-12T06:21:30.000Z</time>
      </trkpt>
      <trkpt lat="48.77222" lon="2.14341">
        <ele>140</ele>
        <time>2019-05-12T06:21:32.000Z</time>
      </trkpt>
      <trkpt lat="48.77222" lon="2.14341">
        <ele>140</ele>
        <time>2019-05-12T06:21:34.000Z</time>
      </trkpt>
      <trkpt lat="48.77235" lon="2.14334">
        <ele>142</ele>
        <time>2019-05-12T06:21:48.000Z</time>
      </trkpt>
      <trkpt lat="48.77244" lon="2.1433">
        <ele>141</ele>
        <time>2019-05-12T06:21:50.000Z</time>
      </trkpt>
      <trkpt lat="48.7725" lon="2.14327">
        <ele>142</ele>
        <time>2019-05-12T06:21:52.000Z</time>
      </trkpt>
      <trkpt lat="48.7725" lon="2.14327">
        <ele>142</ele>
        <time>2019-05-12T06:21:56.000Z</time>
      </trkpt>
      <trkpt lat="48.7725" lon="2.14327">
        <ele>142</ele>
        <time>2019-05-12T06:21:58.000Z</time>
      </trkpt>
      <trkpt lat="48.7725" lon="2.14327">
        <ele>142</ele>
        <time>2019-05-12T06:22:02.000Z</time>
      </trkpt>
      <trkpt lat="48.7725" lon="2.14327">
        <ele>142</ele>
        <time>2019-05-12T06:22:04.000Z</time>
      </trkpt>
      <trkpt lat="48.7725" lon="2.14327">
        <ele>142</ele>
        <time>2019-05-12T06:22:06.000Z</time>
      </trkpt>
      <trkpt lat="48.7725" lon="2.14327">
        <ele>142</ele>
        <time>2019-05-12T06:22:08.000Z</time>
      </trkpt>
      <trkpt lat="48.77265" lon="2.14323">
        <ele>141</ele>
        <time>2019-05-12T06:22:14.000Z</time>
      </trkpt>
      <trkpt lat="48.77274" lon="2.14321">
        <ele>140</ele>
        <time>2019-05-12T06:22:16.000Z</time>
      </trkpt>
      <trkpt lat="48.7728" lon="2.14319">
        <ele>140</ele>
        <time>2019-05-12T06:22:18.000Z</time>
      </trkpt>
      <trkpt lat="48.7728" lon="2.14319">
        <ele>140</ele>
        <time>2019-05-12T06:22:20.000Z</time>
      </trkpt>
      <trkpt lat="48.7728" lon="2.14319">
        <ele>140</ele>
        <time>2019-05-12T06:22:22.000Z</time>
      </trkpt>
      <trkpt lat="48.77288" lon="2.14318">
        <ele>139</ele>
        <time>2019-05-12T06:22:28.000Z</time>
      </trkpt>
      <trkpt lat="48.77288" lon="2.14318">
        <ele>139</ele>
        <time>2019-05-12T06:22:30.000Z</time>
      </trkpt>
      <trkpt lat="48.77296" lon="2.14319">
        <ele>139</ele>
        <time>2019-05-12T06:22:34.000Z</time>
      </trkpt>
      <trkpt lat="48.77296" lon="2.14319">
        <ele>139</ele>
        <time>2019-05-12T06:22:38.000Z</time>
      </trkpt>
      <trkpt lat="48.77296" lon="2.14319">
        <ele>139</ele>
        <time>2019-05-12T06:22:44.000Z</time>
      </trkpt>
      <trkpt lat="48.77309" lon="2.14321">
        <ele>140</ele>
        <time>2019-05-12T06:22:48.000Z</time>
      </trkpt>
      <trkpt lat="48.77317" lon="2.14322">
        <ele>141</ele>
        <time>2019-05-12T06:22:50.000Z</time>
      </trkpt>
      <trkpt lat="48.77323" lon="2.14323">
        <ele>142</ele>
        <time>2019-05-12T06:22:52.000Z</time>
      </trkpt>
      <trkpt lat="48.77323" lon="2.14323">
        <ele>142</ele>
        <time>2019-05-12T06:22:54.000Z</time>
      </trkpt>
      <trkpt lat="48.77323" lon="2.14323">
        <ele>142</ele>
        <time>2019-05-12T06:22:56.000Z</time>
      </trkpt>
      <trkpt lat="48.77323" lon="2.14323">
        <ele>142</ele>
        <time>2019-05-12T06:22:58.000Z</time>
      </trkpt>
      <trkpt lat="48.77332" lon="2.14327">
        <ele>143</ele>
        <time>2019-05-12T06:23:02.000Z</time>
      </trkpt>
      <trkpt lat="48.77337" lon="2.14329">
        <ele>143</ele>
        <time>2019-05-12T06:23:04.000Z</time>
      </trkpt>
      <trkpt lat="48.77337" lon="2.14329">
        <ele>143</ele>
        <time>2019-05-12T06:23:06.000Z</time>
      </trkpt>
      <trkpt lat="48.77337" lon="2.14329">
        <ele>143</ele>
        <time>2019-05-12T06:23:08.000Z</time>
      </trkpt>
      <trkpt lat="48.77337" lon="2.14329">
        <ele>143</ele>
        <time>2019-05-12T06:23:10.000Z</time>
      </trkpt>
      <trkpt lat="48.77337" lon="2.14329">
        <ele>143</ele>
        <time>2019-05-12T06:23:12.000Z</time>
      </trkpt>
      <trkpt lat="48.77337" lon="2.14329">
        <ele>143</ele>
        <time>2019-05-12T06:23:14.000Z</time>
      </trkpt>
      <trkpt lat="48.77337" lon="2.14329">
        <ele>143</ele>
        <time>2019-05-12T06:23:16.000Z</time>
      </trkpt>
      <trkpt lat="48.77349" lon="2.14337">
        <ele>147</ele>
        <time>2019-05-12T06:23:22.000Z</time>
      </trkpt>
      <trkpt lat="48.77356" lon="2.14342">
        <ele>147</ele>
        <time>2019-05-12T06:23:24.000Z</time>
      </trkpt>
      <trkpt lat="48.77356" lon="2.14342">
        <ele>147</ele>
        <time>2019-05-12T06:23:26.000Z</time>
      </trkpt>
      <trkpt lat="48.77363" lon="2.14346">
        <ele>147</ele>
        <time>2019-05-12T06:23:28.000Z</time>
      </trkpt>
      <trkpt lat="48.77363" lon="2.14346">
        <ele>147</ele>
        <time>2019-05-12T06:23:30.000Z</time>
      </trkpt>
      <trkpt lat="48.77369" lon="2.14351">
        <ele>148</ele>
        <time>2019-05-12T06:23:32.000Z</time>
      </trkpt>
      <trkpt lat="48.77369" lon="2.14351">
        <ele>148</ele>
        <time>2019-05-12T06:23:38.000Z</time>
      </trkpt>
      <trkpt lat="48.77369" lon="2.14351">
        <ele>148</ele>
        <time>2019-05-12T06:23:40.000Z</time>
      </trkpt>
      <trkpt lat="48.77369" lon="2.14351">
        <ele>148</ele>
        <time>2019-05-12T06:23:42.000Z</time>
      </trkpt>
      <trkpt lat="48.77369" lon="2.14351">
        <ele>148</ele>
        <time>2019-05-12T06:23:44.000Z</time>
      </trkpt>
      <trkpt lat="48.77385" lon="2.14368">
        <ele>148</ele>
        <time>2019-05-12T06:24:00.000Z</time>
      </trkpt>
      <trkpt lat="48.77395" lon="2.14378">
        <ele>149</ele>
        <time>2019-05-12T06:24:02.000Z</time>
      </trkpt>
      <trkpt lat="48.77401" lon="2.14384">
        <ele>149</ele>
        <time>2019-05-12T06:24:04.000Z</time>
      </trkpt>
      <trkpt lat="48.77401" lon="2.14384">
        <ele>149</ele>
        <time>2019-05-12T06:24:06.000Z</time>
      </trkpt>
      <trkpt lat="48.77407" lon="2.14389">
        <ele>150</ele>
        <time>2019-05-12T06:24:08.000Z</time>
      </trkpt>
      <trkpt lat="48.77407" lon="2.14389">
        <ele>150</ele>
        <time>2019-05-12T06:24:10.000Z</time>
      </trkpt>
      <trkpt lat="48.77407" lon="2.14389">
        <ele>150</ele>
        <time>2019-05-12T06:24:12.000Z</time>
      </trkpt>
      <trkpt lat="48.77407" lon="2.14389">
        <ele>150</ele>
        <time>2019-05-12T06:24:14.000Z</time>
      </trkpt>
      <trkpt lat="48.77415" lon="2.14397">
        <ele>150</ele>
        <time>2019-05-12T06:24:18.000Z</time>
      </trkpt>
      <trkpt lat="48.7742" lon="2.14403">
        <ele>151</ele>
        <time>2019-05-12T06:24:22.000Z</time>
      </trkpt>
      <trkpt lat="48.7742" lon="2.14403">
        <ele>151</ele>
        <time>2019-05-12T06:24:24.000Z</time>
      </trkpt>
      <trkpt lat="48.7742" lon="2.14403">
        <ele>151</ele>
        <time>2019-05-12T06:24:28.000Z</time>
      </trkpt>
      <trkpt lat="48.7742" lon="2.14403">
        <ele>151</ele>
        <time>2019-05-12T06:24:30.000Z</time>
      </trkpt>
      <trkpt lat="48.7743" lon="2.14413">
        <ele>151</ele>
        <time>2019-05-12T06:24:34.000Z</time>
      </trkpt>
      <trkpt lat="48.77438" lon="2.1442">
        <ele>153</ele>
        <time>2019-05-12T06:24:39.000Z</time>
      </trkpt>
      <trkpt lat="48.77446" lon="2.14426">
        <ele>153</ele>
        <time>2019-05-12T06:24:42.000Z</time>
      </trkpt>
      <trkpt lat="48.77452" lon="2.14431">
        <ele>153</ele>
        <time>2019-05-12T06:24:44.000Z</time>
      </trkpt>
      <trkpt lat="48.7746" lon="2.14436">
        <ele>153</ele>
        <time>2019-05-12T06:24:48.000Z</time>
      </trkpt>
      <trkpt lat="48.7746" lon="2.14436">
        <ele>153</ele>
        <time>2019-05-12T06:24:50.000Z</time>
      </trkpt>
      <trkpt lat="48.7746" lon="2.14436">
        <ele>153</ele>
        <time>2019-05-12T06:24:52.000Z</time>
      </trkpt>
      <trkpt lat="48.7746" lon="2.14436">
        <ele>153</ele>
        <time>2019-05-12T06:24:54.000Z</time>
      </trkpt>
      <trkpt lat="48.7746" lon="2.14436">
        <ele>153</ele>
        <time>2019-05-12T06:25:02.000Z</time>
      </trkpt>
      <trkpt lat="48.77471" lon="2.1445">
        <ele>153</ele>
        <time>2019-05-12T06:25:10.000Z</time>
      </trkpt>
      <trkpt lat="48.77478" lon="2.14458">
        <ele>153</ele>
        <time>2019-05-12T06:25:12.000Z</time>
      </trkpt>
      <trkpt lat="48.77482" lon="2.14462">
        <ele>154</ele>
        <time>2019-05-12T06:25:14.000Z</time>
      </trkpt>
      <trkpt lat="48.77482" lon="2.14462">
        <ele>154</ele>
        <time>2019-05-12T06:25:16.000Z</time>
      </trkpt>
      <trkpt lat="48.77482" lon="2.14462">
        <ele>154</ele>
        <time>2019-05-12T06:25:18.000Z</time>
      </trkpt>
      <trkpt lat="48.77482" lon="2.14462">
        <ele>154</ele>
        <time>2019-05-12T06:25:20.000Z</time>
      </trkpt>
      <trkpt lat="48.77482" lon="2.14462">
        <ele>154</ele>
        <time>2019-05-12T06:25:22.000Z</time>
      </trkpt>
      <trkpt lat="48.77482" lon="2.14462">
        <ele>154</ele>
        <time>2019-05-12T06:25:28.000Z</time>
      </trkpt>
      <trkpt lat="48.77482" lon="2.14462">
        <ele>154</ele>
        <time>2019-05-12T06:25:30.000Z</time>
      </trkpt>
      <trkpt lat="48.77503" lon="2.14462">
        <ele>154</ele>
        <time>2019-05-12T06:25:56.000Z</time>
      </trkpt>
      <trkpt lat="48.77514" lon="2.14462">
        <ele>155</ele>
        <time>2019-05-12T06:25:58.000Z</time>
      </trkpt>
      <trkpt lat="48.77521" lon="2.14462">
        <ele>155</ele>
        <time>2019-05-12T06:26:00.000Z</time>
      </trkpt>
      <trkpt lat="48.77521" lon="2.14462">
        <ele>155</ele>
        <time>2019-05-12T06:26:02.000Z</time>
      </trkpt>
      <trkpt lat="48.77528" lon="2.14461">
        <ele>155</ele>
        <time>2019-05-12T06:26:06.000Z</time>
      </trkpt>
      <trkpt lat="48.77528" lon="2.14461">
        <ele>155</ele>
        <time>2019-05-12T06:26:10.000Z</time>
      </trkpt>
      <trkpt lat="48.77528" lon="2.14461">
        <ele>155</ele>
        <time>2019-05-12T06:26:12.000Z</time>
      </trkpt>
      <trkpt lat="48.77528" lon="2.14461">
        <ele>155</ele>
        <time>2019-05-12T06:26:14.000Z</time>
      </trkpt>
      <trkpt lat="48.77528" lon="2.14461">
        <ele>155</ele>
        <time>2019-05-12T06:26:16.000Z</time>
      </trkpt>
      <trkpt lat="48.77537" lon="2.14456">
        <ele>155</ele>
        <time>2019-05-12T06:26:20.000Z</time>
      </trkpt>
      <trkpt lat="48.77543" lon="2.14451">
        <ele>155</ele>
        <time>2019-05-12T06:26:22.000Z</time>
      </trkpt>
      <trkpt lat="48.77547" lon="2.14442">
        <ele>155</ele>
        <time>2019-05-12T06:26:28.000Z</time>
      </trkpt>
      <trkpt lat="48.77547" lon="2.14442">
        <ele>155</ele>
        <time>2019-05-12T06:26:30.000Z</time>
      </trkpt>
      <trkpt lat="48.77547" lon="2.14442">
        <ele>155</ele>
        <time>2019-05-12T06:26:32.000Z</time>
      </trkpt>
      <trkpt lat="48.77547" lon="2.14442">
        <ele>155</ele>
        <time>2019-05-12T06:26:34.000Z</time>
      </trkpt>
      <trkpt lat="48.77547" lon="2.14442">
        <ele>155</ele>
        <time>2019-05-12T06:26:36.000Z</time>
      </trkpt>
      <trkpt lat="48.77547" lon="2.14442">
        <ele>155</ele>
        <time>2019-05-12T06:26:38.000Z</time>
      </trkpt>
      <trkpt lat="48.77547" lon="2.14442">
        <ele>155</ele>
        <time>2019-05-12T06:26:46.000Z</time>
      </trkpt>
      <trkpt lat="48.77546" lon="2.14399">
        <ele>153</ele>
        <time>2019-05-12T06:27:17.000Z</time>
      </trkpt>
      <trkpt lat="48.77545" lon="2.14375">
        <ele>152</ele>
        <time>2019-05-12T06:27:19.000Z</time>
      </trkpt>
      <trkpt lat="48.77544" lon="2.1436">
        <ele>152</ele>
        <time>2019-05-12T06:27:22.000Z</time>
      </trkpt>
      <trkpt lat="48.77544" lon="2.1436">
        <ele>152</ele>
        <time>2019-05-12T06:27:23.000Z</time>
      </trkpt>
      <trkpt lat="48.77543" lon="2.14349">
        <ele>152</ele>
        <time>2019-05-12T06:27:25.000Z</time>
      </trkpt>
      <trkpt lat="48.77542" lon="2.14339">
        <ele>152</ele>
        <time>2019-05-12T06:27:29.000Z</time>
      </trkpt>
      <trkpt lat="48.77542" lon="2.14328">
        <ele>153</ele>
        <time>2019-05-12T06:27:35.000Z</time>
      </trkpt>
      <trkpt lat="48.77541" lon="2.14317">
        <ele>153</ele>
        <time>2019-05-12T06:27:41.000Z</time>
      </trkpt>
      <trkpt lat="48.77541" lon="2.14317">
        <ele>153</ele>
        <time>2019-05-12T06:27:43.000Z</time>
      </trkpt>
      <trkpt lat="48.77541" lon="2.14317">
        <ele>153</ele>
        <time>2019-05-12T06:27:45.000Z</time>
      </trkpt>
      <trkpt lat="48.77541" lon="2.14317">
        <ele>153</ele>
        <time>2019-05-12T06:27:47.000Z</time>
      </trkpt>
      <trkpt lat="48.7754" lon="2.14303">
        <ele>153</ele>
        <time>2019-05-12T06:27:53.000Z</time>
      </trkpt>
      <trkpt lat="48.77539" lon="2.14292">
        <ele>153</ele>
        <time>2019-05-12T06:27:57.000Z</time>
      </trkpt>
      <trkpt lat="48.77539" lon="2.14292">
        <ele>153</ele>
        <time>2019-05-12T06:27:59.000Z</time>
      </trkpt>
      <trkpt lat="48.77539" lon="2.14292">
        <ele>153</ele>
        <time>2019-05-12T06:28:01.000Z</time>
      </trkpt>
      <trkpt lat="48.77539" lon="2.14292">
        <ele>153</ele>
        <time>2019-05-12T06:28:03.000Z</time>
      </trkpt>
      <trkpt lat="48.77538" lon="2.14278">
        <ele>153</ele>
        <time>2019-05-12T06:28:07.000Z</time>
      </trkpt>
      <trkpt lat="48.77538" lon="2.14269">
        <ele>154</ele>
        <time>2019-05-12T06:28:09.000Z</time>
      </trkpt>
      <trkpt lat="48.77538" lon="2.14269">
        <ele>154</ele>
        <time>2019-05-12T06:28:11.000Z</time>
      </trkpt>
      <trkpt lat="48.77538" lon="2.14269">
        <ele>154</ele>
        <time>2019-05-12T06:28:13.000Z</time>
      </trkpt>
      <trkpt lat="48.77538" lon="2.14269">
        <ele>154</ele>
        <time>2019-05-12T06:28:15.000Z</time>
      </trkpt>
      <trkpt lat="48.77538" lon="2.14269">
        <ele>154</ele>
        <time>2019-05-12T06:28:17.000Z</time>
      </trkpt>
      <trkpt lat="48.77537" lon="2.14254">
        <ele>154</ele>
        <time>2019-05-12T06:28:21.000Z</time>
      </trkpt>
      <trkpt lat="48.77536" lon="2.14245">
        <ele>156</ele>
        <time>2019-05-12T06:28:23.000Z</time>
      </trkpt>
      <trkpt lat="48.77536" lon="2.14245">
        <ele>156</ele>
        <time>2019-05-12T06:28:25.000Z</time>
      </trkpt>
      <trkpt lat="48.77537" lon="2.14237">
        <ele>156</ele>
        <time>2019-05-12T06:28:27.000Z</time>
      </trkpt>
      <trkpt lat="48.77537" lon="2.14237">
        <ele>156</ele>
        <time>2019-05-12T06:28:29.000Z</time>
      </trkpt>
      <trkpt lat="48.77537" lon="2.14237">
        <ele>156</ele>
        <time>2019-05-12T06:28:31.000Z</time>
      </trkpt>
      <trkpt lat="48.77537" lon="2.14237">
        <ele>156</ele>
        <time>2019-05-12T06:28:33.000Z</time>
      </trkpt>
      <trkpt lat="48.77536" lon="2.14225">
        <ele>156</ele>
        <time>2019-05-12T06:28:37.000Z</time>
      </trkpt>
      <trkpt lat="48.77534" lon="2.14216">
        <ele>156</ele>
        <time>2019-05-12T06:28:41.000Z</time>
      </trkpt>
      <trkpt lat="48.77534" lon="2.14216">
        <ele>156</ele>
        <time>2019-05-12T06:28:45.000Z</time>
      </trkpt>
      <trkpt lat="48.77534" lon="2.14216">
        <ele>156</ele>
        <time>2019-05-12T06:28:47.000Z</time>
      </trkpt>
      <trkpt lat="48.77529" lon="2.14202">
        <ele>156</ele>
        <time>2019-05-12T06:28:51.000Z</time>
      </trkpt>
      <trkpt lat="48.77525" lon="2.14193">
        <ele>156</ele>
        <time>2019-05-12T06:28:53.000Z</time>
      </trkpt>
      <trkpt lat="48.77522" lon="2.14185">
        <ele>156</ele>
        <time>2019-05-12T06:28:57.000Z</time>
      </trkpt>
      <trkpt lat="48.77519" lon="2.14179">
        <ele>156</ele>
        <time>2019-05-12T06:28:59.000Z</time>
      </trkpt>
      <trkpt lat="48.77515" lon="2.14174">
        <ele>156</ele>
        <time>2019-05-12T06:29:03.000Z</time>
      </trkpt>
      <trkpt lat="48.77515" lon="2.14174">
        <ele>156</ele>
        <time>2019-05-12T06:29:05.000Z</time>
      </trkpt>
      <trkpt lat="48.77515" lon="2.14174">
        <ele>156</ele>
        <time>2019-05-12T06:29:07.000Z</time>
      </trkpt>
      <trkpt lat="48.77515" lon="2.14174">
        <ele>156</ele>
        <time>2019-05-12T06:29:09.000Z</time>
      </trkpt>
      <trkpt lat="48.77515" lon="2.14174">
        <ele>156</ele>
        <time>2019-05-12T06:29:11.000Z</time>
      </trkpt>
      <trkpt lat="48.77515" lon="2.14174">
        <ele>156</ele>
        <time>2019-05-12T06:29:15.000Z</time>
      </trkpt>
      <trkpt lat="48.77515" lon="2.14174">
        <ele>156</ele>
        <time>2019-05-12T06:29:17.000Z</time>
      </trkpt>
      <trkpt lat="48.77515" lon="2.14174">
        <ele>156</ele>
        <time>2019-05-12T06:29:19.000Z</time>
      </trkpt>
      <trkpt lat="48.77505" lon="2.14159">
        <ele>157</ele>
        <time>2019-05-12T06:29:21.000Z</time>
      </trkpt>
      <trkpt lat="48.77498" lon="2.1415">
        <ele>153</ele>
        <time>2019-05-12T06:29:23.000Z</time>
      </trkpt>
      <trkpt lat="48.77493" lon="2.14141">
        <ele>152</ele>
        <time>2019-05-12T06:29:28.000Z</time>
      </trkpt>
      <trkpt lat="48.77493" lon="2.14141">
        <ele>152</ele>
        <time>2019-05-12T06:29:30.000Z</time>
      </trkpt>
      <trkpt lat="48.77493" lon="2.14141">
        <ele>152</ele>
        <time>2019-05-12T06:29:36.000Z</time>
      </trkpt>
      <trkpt lat="48.77493" lon="2.14141">
        <ele>152</ele>
        <time>2019-05-12T06:29:38.000Z</time>
      </trkpt>
      <trkpt lat="48.77493" lon="2.14141">
        <ele>152</ele>
        <time>2019-05-12T06:29:40.000Z</time>
      </trkpt>
      <trkpt lat="48.77493" lon="2.14141">
        <ele>152</ele>
        <time>2019-05-12T06:29:42.000Z</time>
      </trkpt>
      <trkpt lat="48.77493" lon="2.14141">
        <ele>152</ele>
        <time>2019-05-12T06:29:45.000Z</time>
      </trkpt>
      <trkpt lat="48.7748" lon="2.14122">
        <ele>152</ele>
        <time>2019-05-12T06:29:54.000Z</time>
      </trkpt>
      <trkpt lat="48.77473" lon="2.14111">
        <ele>152</ele>
        <time>2019-05-12T06:29:56.000Z</time>
      </trkpt>
      <trkpt lat="48.77468" lon="2.14103">
        <ele>152</ele>
        <time>2019-05-12T06:29:58.000Z</time>
      </trkpt>
      <trkpt lat="48.77465" lon="2.14099">
        <ele>152</ele>
        <time>2019-05-12T06:30:00.000Z</time>
      </trkpt>
      <trkpt lat="48.77465" lon="2.14099">
        <ele>152</ele>
        <time>2019-05-12T06:30:02.000Z</time>
      </trkpt>
      <trkpt lat="48.77465" lon="2.14099">
        <ele>152</ele>
        <time>2019-05-12T06:30:04.000Z</time>
      </trkpt>
      <trkpt lat="48.7746" lon="2.1409">
        <ele>151</ele>
        <time>2019-05-12T06:30:10.000Z</time>
      </trkpt>
      <trkpt lat="48.7746" lon="2.1409">
        <ele>151</ele>
        <time>2019-05-12T06:30:12.000Z</time>
      </trkpt>
      <trkpt lat="48.77457" lon="2.14085">
        <ele>151</ele>
        <time>2019-05-12T06:30:14.000Z</time>
      </trkpt>
      <trkpt lat="48.77457" lon="2.14085">
        <ele>151</ele>
        <time>2019-05-12T06:30:16.000Z</time>
      </trkpt>
      <trkpt lat="48.77454" lon="2.1408">
        <ele>153</ele>
        <time>2019-05-12T06:30:18.000Z</time>
      </trkpt>
      <trkpt lat="48.77451" lon="2.14072">
        <ele>153</ele>
        <time>2019-05-12T06:30:22.000Z</time>
      </trkpt>
      <trkpt lat="48.77448" lon="2.14067">
        <ele>153</ele>
        <time>2019-05-12T06:30:26.000Z</time>
      </trkpt>
      <trkpt lat="48.77444" lon="2.1406">
        <ele>153</ele>
        <time>2019-05-12T06:30:32.000Z</time>
      </trkpt>
      <trkpt lat="48.77442" lon="2.14053">
        <ele>153</ele>
        <time>2019-05-12T06:30:36.000Z</time>
      </trkpt>
      <trkpt lat="48.77442" lon="2.14053">
        <ele>153</ele>
        <time>2019-05-12T06:30:38.000Z</time>
      </trkpt>
      <trkpt lat="48.77442" lon="2.14053">
        <ele>153</ele>
        <time>2019-05-12T06:30:40.000Z</time>
      </trkpt>
      <trkpt lat="48.77442" lon="2.14053">
        <ele>153</ele>
        <time>2019-05-12T06:30:42.000Z</time>
      </trkpt>
      <trkpt lat="48.77442" lon="2.14053">
        <ele>153</ele>
        <time>2019-05-12T06:30:44.000Z</time>
      </trkpt>
      <trkpt lat="48.77442" lon="2.14053">
        <ele>153</ele>
        <time>2019-05-12T06:30:46.000Z</time>
      </trkpt>
      <trkpt lat="48.77442" lon="2.14053">
        <ele>153</ele>
        <time>2019-05-12T06:30:48.000Z</time>
      </trkpt>
      <trkpt lat="48.77442" lon="2.14053">
        <ele>153</ele>
        <time>2019-05-12T06:30:50.000Z</time>
      </trkpt>
      <trkpt lat="48.77442" lon="2.14053">
        <ele>153</ele>
        <time>2019-05-12T06:30:52.000Z</time>
      </trkpt>
      <trkpt lat="48.77443" lon="2.14038">
        <ele>153</ele>
        <time>2019-05-12T06:30:54.000Z</time>
      </trkpt>
      <trkpt lat="48.77445" lon="2.1403">
        <ele>153</ele>
        <time>2019-05-12T06:30:56.000Z</time>
      </trkpt>
      <trkpt lat="48.77449" lon="2.14024">
        <ele>154</ele>
        <time>2019-05-12T06:31:00.000Z</time>
      </trkpt>
      <trkpt lat="48.77453" lon="2.1402">
        <ele>154</ele>
        <time>2019-05-12T06:31:02.000Z</time>
      </trkpt>
      <trkpt lat="48.77453" lon="2.1402">
        <ele>154</ele>
        <time>2019-05-12T06:31:04.000Z</time>
      </trkpt>
      <trkpt lat="48.77457" lon="2.14015">
        <ele>154</ele>
        <time>2019-05-12T06:31:06.000Z</time>
      </trkpt>
      <trkpt lat="48.7746" lon="2.14011">
        <ele>154</ele>
        <time>2019-05-12T06:31:10.000Z</time>
      </trkpt>
      <trkpt lat="48.7746" lon="2.14011">
        <ele>154</ele>
        <time>2019-05-12T06:31:12.000Z</time>
      </trkpt>
      <trkpt lat="48.7746" lon="2.14011">
        <ele>154</ele>
        <time>2019-05-12T06:31:14.000Z</time>
      </trkpt>
      <trkpt lat="48.7746" lon="2.14011">
        <ele>154</ele>
        <time>2019-05-12T06:31:16.000Z</time>
      </trkpt>
      <trkpt lat="48.7746" lon="2.14011">
        <ele>154</ele>
        <time>2019-05-12T06:31:22.000Z</time>
      </trkpt>
      <trkpt lat="48.7746" lon="2.14011">
        <ele>154</ele>
        <time>2019-05-12T06:31:24.000Z</time>
      </trkpt>
      <trkpt lat="48.77468" lon="2.13995">
        <ele>154</ele>
        <time>2019-05-12T06:31:28.000Z</time>
      </trkpt>
      <trkpt lat="48.77472" lon="2.13986">
        <ele>154</ele>
        <time>2019-05-12T06:31:30.000Z</time>
      </trkpt>
      <trkpt lat="48.77475" lon="2.13981">
        <ele>154</ele>
        <time>2019-05-12T06:31:32.000Z</time>
      </trkpt>
      <trkpt lat="48.77475" lon="2.13981">
        <ele>154</ele>
        <time>2019-05-12T06:31:34.000Z</time>
      </trkpt>
      <trkpt lat="48.77475" lon="2.13981">
        <ele>154</ele>
        <time>2019-05-12T06:31:36.000Z</time>
      </trkpt>
      <trkpt lat="48.77475" lon="2.13981">
        <ele>154</ele>
        <time>2019-05-12T06:31:38.000Z</time>
      </trkpt>
      <trkpt lat="48.77482" lon="2.13973">
        <ele>154</ele>
        <time>2019-05-12T06:31:42.000Z</time>
      </trkpt>
      <trkpt lat="48.77482" lon="2.13973">
        <ele>154</ele>
        <time>2019-05-12T06:31:44.000Z</time>
      </trkpt>
      <trkpt lat="48.77482" lon="2.13973">
        <ele>154</ele>
        <time>2019-05-12T06:31:46.000Z</time>
      </trkpt>
      <trkpt lat="48.77487" lon="2.13965">
        <ele>154</ele>
        <time>2019-05-12T06:31:48.000Z</time>
      </trkpt>
      <trkpt lat="48.77492" lon="2.13958">
        <ele>154</ele>
        <time>2019-05-12T06:31:52.000Z</time>
      </trkpt>
      <trkpt lat="48.77492" lon="2.13958">
        <ele>154</ele>
        <time>2019-05-12T06:31:56.000Z</time>
      </trkpt>
      <trkpt lat="48.77496" lon="2.13949">
        <ele>155</ele>
        <time>2019-05-12T06:31:58.000Z</time>
      </trkpt>
      <trkpt lat="48.775" lon="2.13939">
        <ele>155</ele>
        <time>2019-05-12T06:32:02.000Z</time>
      </trkpt>
      <trkpt lat="48.775" lon="2.13939">
        <ele>155</ele>
        <time>2019-05-12T06:32:04.000Z</time>
      </trkpt>
      <trkpt lat="48.77504" lon="2.13931">
        <ele>159</ele>
        <time>2019-05-12T06:32:06.000Z</time>
      </trkpt>
      <trkpt lat="48.77504" lon="2.13931">
        <ele>159</ele>
        <time>2019-05-12T06:32:08.000Z</time>
      </trkpt>
      <trkpt lat="48.77504" lon="2.13931">
        <ele>159</ele>
        <time>2019-05-12T06:32:10.000Z</time>
      </trkpt>
      <trkpt lat="48.77504" lon="2.13931">
        <ele>159</ele>
        <time>2019-05-12T06:32:12.000Z</time>
      </trkpt>
      <trkpt lat="48.77504" lon="2.13931">
        <ele>159</ele>
        <time>2019-05-12T06:32:16.000Z</time>
      </trkpt>
      <trkpt lat="48.77504" lon="2.13931">
        <ele>159</ele>
        <time>2019-05-12T06:32:18.000Z</time>
      </trkpt>
      <trkpt lat="48.77504" lon="2.13931">
        <ele>159</ele>
        <time>2019-05-12T06:32:20.000Z</time>
      </trkpt>
      <trkpt lat="48.77504" lon="2.13931">
        <ele>159</ele>
        <time>2019-05-12T06:32:22.000Z</time>
      </trkpt>
      <trkpt lat="48.77504" lon="2.13931">
        <ele>159</ele>
        <time>2019-05-12T06:32:24.000Z</time>
      </trkpt>
      <trkpt lat="48.77504" lon="2.13931">
        <ele>159</ele>
        <time>2019-05-12T06:32:26.000Z</time>
      </trkpt>
      <trkpt lat="48.77509" lon="2.13904">
        <ele>158</ele>
        <time>2019-05-12T06:32:30.000Z</time>
      </trkpt>
      <trkpt lat="48.77512" lon="2.13889">
        <ele>158</ele>
        <time>2019-05-12T06:32:32.000Z</time>
      </trkpt>
      <trkpt lat="48.77513" lon="2.13879">
        <ele>157</ele>
        <time>2019-05-12T06:32:34.000Z</time>
      </trkpt>
      <trkpt lat="48.77514" lon="2.13872">
        <ele>157</ele>
        <time>2019-05-12T06:32:36.000Z</time>
      </trkpt>
      <trkpt lat="48.77514" lon="2.13872">
        <ele>157</ele>
        <time>2019-05-12T06:32:38.000Z</time>
      </trkpt>
      <trkpt lat="48.77514" lon="2.13872">
        <ele>157</ele>
        <time>2019-05-12T06:32:40.000Z</time>
      </trkpt>
      <trkpt lat="48.77514" lon="2.13872">
        <ele>157</ele>
        <time>2019-05-12T06:32:42.000Z</time>
      </trkpt>
      <trkpt lat="48.77514" lon="2.13872">
        <ele>157</ele>
        <time>2019-05-12T06:32:44.000Z</time>
      </trkpt>
      <trkpt lat="48.77514" lon="2.13872">
        <ele>157</ele>
        <time>2019-05-12T06:32:46.000Z</time>
      </trkpt>
      <trkpt lat="48.77514" lon="2.13872">
        <ele>157</ele>
        <time>2019-05-12T06:32:48.000Z</time>
      </trkpt>
      <trkpt lat="48.77514" lon="2.13872">
        <ele>157</ele>
        <time>2019-05-12T06:32:50.000Z</time>
      </trkpt>
      <trkpt lat="48.77514" lon="2.13872">
        <ele>157</ele>
        <time>2019-05-12T06:32:52.000Z</time>
      </trkpt>
      <trkpt lat="48.77514" lon="2.13872">
        <ele>157</ele>
        <time>2019-05-12T06:32:54.000Z</time>
      </trkpt>
      <trkpt lat="48.77514" lon="2.13872">
        <ele>157</ele>
        <time>2019-05-12T06:32:56.000Z</time>
      </trkpt>
      <trkpt lat="48.7752" lon="2.13848">
        <ele>156</ele>
        <time>2019-05-12T06:33:00.000Z</time>
      </trkpt>
      <trkpt lat="48.77523" lon="2.13834">
        <ele>156</ele>
        <time>2019-05-12T06:33:02.000Z</time>
      </trkpt>
      <trkpt lat="48.77526" lon="2.13824">
        <ele>155</ele>
        <time>2019-05-12T06:33:04.000Z</time>
      </trkpt>
      <trkpt lat="48.77526" lon="2.13824">
        <ele>155</ele>
        <time>2019-05-12T06:33:06.000Z</time>
      </trkpt>
      <trkpt lat="48.77526" lon="2.13824">
        <ele>155</ele>
        <time>2019-05-12T06:33:08.000Z</time>
      </trkpt>
      <trkpt lat="48.77526" lon="2.13824">
        <ele>155</ele>
        <time>2019-05-12T06:33:10.000Z</time>
      </trkpt>
      <trkpt lat="48.77526" lon="2.13824">
        <ele>155</ele>
        <time>2019-05-12T06:33:12.000Z</time>
      </trkpt>
      <trkpt lat="48.77526" lon="2.13824">
        <ele>155</ele>
        <time>2019-05-12T06:33:14.000Z</time>
      </trkpt>
      <trkpt lat="48.77526" lon="2.13824">
        <ele>155</ele>
        <time>2019-05-12T06:33:16.000Z</time>
      </trkpt>
      <trkpt lat="48.77526" lon="2.13824">
        <ele>155</ele>
        <time>2019-05-12T06:33:18.000Z</time>
      </trkpt>
      <trkpt lat="48.77526" lon="2.13824">
        <ele>155</ele>
        <time>2019-05-12T06:33:20.000Z</time>
      </trkpt>
      <trkpt lat="48.77529" lon="2.13801">
        <ele>155</ele>
        <time>2019-05-12T06:33:26.000Z</time>
      </trkpt>
      <trkpt lat="48.7753" lon="2.13788">
        <ele>155</ele>
        <time>2019-05-12T06:33:28.000Z</time>
      </trkpt>
      <trkpt lat="48.77533" lon="2.13775">
        <ele>156</ele>
        <time>2019-05-12T06:33:33.000Z</time>
      </trkpt>
      <trkpt lat="48.77533" lon="2.13775">
        <ele>156</ele>
        <time>2019-05-12T06:33:35.000Z</time>
      </trkpt>
      <trkpt lat="48.77533" lon="2.13775">
        <ele>156</ele>
        <time>2019-05-12T06:33:37.000Z</time>
      </trkpt>
      <trkpt lat="48.77533" lon="2.13775">
        <ele>156</ele>
        <time>2019-05-12T06:33:39.000Z</time>
      </trkpt>
      <trkpt lat="48.77533" lon="2.13775">
        <ele>156</ele>
        <time>2019-05-12T06:33:41.000Z</time>
      </trkpt>
      <trkpt lat="48.77536" lon="2.13756">
        <ele>156</ele>
        <time>2019-05-12T06:33:45.000Z</time>
      </trkpt>
      <trkpt lat="48.77539" lon="2.13744">
        <ele>155</ele>
        <time>2019-05-12T06:33:47.000Z</time>
      </trkpt>
      <trkpt lat="48.77541" lon="2.13734">
        <ele>155</ele>
        <time>2019-05-12T06:33:51.000Z</time>
      </trkpt>
      <trkpt lat="48.77541" lon="2.13734">
        <ele>155</ele>
        <time>2019-05-12T06:33:55.000Z</time>
      </trkpt>
      <trkpt lat="48.77541" lon="2.13734">
        <ele>155</ele>
        <time>2019-05-12T06:33:57.000Z</time>
      </trkpt>
      <trkpt lat="48.77541" lon="2.13734">
        <ele>155</ele>
        <time>2019-05-12T06:34:05.000Z</time>
      </trkpt>
      <trkpt lat="48.77545" lon="2.13716">
        <ele>155</ele>
        <time>2019-05-12T06:34:07.000Z</time>
      </trkpt>
      <trkpt lat="48.77547" lon="2.13704">
        <ele>155</ele>
        <time>2019-05-12T06:34:09.000Z</time>
      </trkpt>
      <trkpt lat="48.77548" lon="2.13697">
        <ele>155</ele>
        <time>2019-05-12T06:34:11.000Z</time>
      </trkpt>
      <trkpt lat="48.77548" lon="2.13697">
        <ele>155</ele>
        <time>2019-05-12T06:34:13.000Z</time>
      </trkpt>
      <trkpt lat="48.77548" lon="2.13697">
        <ele>155</ele>
        <time>2019-05-12T06:34:17.000Z</time>
      </trkpt>
      <trkpt lat="48.77548" lon="2.13697">
        <ele>155</ele>
        <time>2019-05-12T06:34:19.000Z</time>
      </trkpt>
      <trkpt lat="48.77548" lon="2.13697">
        <ele>155</ele>
        <time>2019-05-12T06:34:21.000Z</time>
      </trkpt>
      <trkpt lat="48.77551" lon="2.13678">
        <ele>156</ele>
        <time>2019-05-12T06:34:31.000Z</time>
      </trkpt>
      <trkpt lat="48.77552" lon="2.13666">
        <ele>154</ele>
        <time>2019-05-12T06:34:33.000Z</time>
      </trkpt>
      <trkpt lat="48.77554" lon="2.13655">
        <ele>154</ele>
        <time>2019-05-12T06:34:37.000Z</time>
      </trkpt>
      <trkpt lat="48.77556" lon="2.13647">
        <ele>154</ele>
        <time>2019-05-12T06:34:39.000Z</time>
      </trkpt>
      <trkpt lat="48.77556" lon="2.13647">
        <ele>154</ele>
        <time>2019-05-12T06:34:41.000Z</time>
      </trkpt>
      <trkpt lat="48.77556" lon="2.13647">
        <ele>154</ele>
        <time>2019-05-12T06:34:43.000Z</time>
      </trkpt>
      <trkpt lat="48.77556" lon="2.13647">
        <ele>154</ele>
        <time>2019-05-12T06:34:45.000Z</time>
      </trkpt>
      <trkpt lat="48.77556" lon="2.13647">
        <ele>154</ele>
        <time>2019-05-12T06:34:47.000Z</time>
      </trkpt>
      <trkpt lat="48.77556" lon="2.13647">
        <ele>154</ele>
        <time>2019-05-12T06:34:49.000Z</time>
      </trkpt>
      <trkpt lat="48.77556" lon="2.13647">
        <ele>154</ele>
        <time>2019-05-12T06:34:51.000Z</time>
      </trkpt>
      <trkpt lat="48.77556" lon="2.13647">
        <ele>154</ele>
        <time>2019-05-12T06:34:53.000Z</time>
      </trkpt>
      <trkpt lat="48.77556" lon="2.13647">
        <ele>154</ele>
        <time>2019-05-12T06:34:55.000Z</time>
      </trkpt>
      <trkpt lat="48.7756" lon="2.1363">
        <ele>154</ele>
        <time>2019-05-12T06:34:57.000Z</time>
      </trkpt>
      <trkpt lat="48.77564" lon="2.13619">
        <ele>154</ele>
        <time>2019-05-12T06:34:59.000Z</time>
      </trkpt>
      <trkpt lat="48.77567" lon="2.13609">
        <ele>154</ele>
        <time>2019-05-12T06:35:03.000Z</time>
      </trkpt>
      <trkpt lat="48.77567" lon="2.13609">
        <ele>154</ele>
        <time>2019-05-12T06:35:05.000Z</time>
      </trkpt>
      <trkpt lat="48.77567" lon="2.13609">
        <ele>154</ele>
        <time>2019-05-12T06:35:07.000Z</time>
      </trkpt>
      <trkpt lat="48.77567" lon="2.13609">
        <ele>154</ele>
        <time>2019-05-12T06:35:09.000Z</time>
      </trkpt>
      <trkpt lat="48.77569" lon="2.13596">
        <ele>154</ele>
        <time>2019-05-12T06:35:13.000Z</time>
      </trkpt>
      <trkpt lat="48.7757" lon="2.13587">
        <ele>154</ele>
        <time>2019-05-12T06:35:17.000Z</time>
      </trkpt>
      <trkpt lat="48.77571" lon="2.13576">
        <ele>153</ele>
        <time>2019-05-12T06:35:23.000Z</time>
      </trkpt>
      <trkpt lat="48.77571" lon="2.13576">
        <ele>153</ele>
        <time>2019-05-12T06:35:25.000Z</time>
      </trkpt>
      <trkpt lat="48.77571" lon="2.13576">
        <ele>153</ele>
        <time>2019-05-12T06:35:27.000Z</time>
      </trkpt>
      <trkpt lat="48.77573" lon="2.13564">
        <ele>152</ele>
        <time>2019-05-12T06:35:29.000Z</time>
      </trkpt>
      <trkpt lat="48.77573" lon="2.13564">
        <ele>152</ele>
        <time>2019-05-12T06:35:34.000Z</time>
      </trkpt>
      <trkpt lat="48.77573" lon="2.13564">
        <ele>152</ele>
        <time>2019-05-12T06:35:36.000Z</time>
      </trkpt>
      <trkpt lat="48.77573" lon="2.13564">
        <ele>152</ele>
        <time>2019-05-12T06:35:38.000Z</time>
      </trkpt>
      <trkpt lat="48.77573" lon="2.13564">
        <ele>152</ele>
        <time>2019-05-12T06:35:40.000Z</time>
      </trkpt>
      <trkpt lat="48.77573" lon="2.13564">
        <ele>152</ele>
        <time>2019-05-12T06:35:42.000Z</time>
      </trkpt>
      <trkpt lat="48.77575" lon="2.13542">
        <ele>152</ele>
        <time>2019-05-12T06:35:44.000Z</time>
      </trkpt>
      <trkpt lat="48.77576" lon="2.1353">
        <ele>152</ele>
        <time>2019-05-12T06:35:46.000Z</time>
      </trkpt>
      <trkpt lat="48.77576" lon="2.1353">
        <ele>152</ele>
        <time>2019-05-12T06:35:48.000Z</time>
      </trkpt>
      <trkpt lat="48.77578" lon="2.13521">
        <ele>152</ele>
        <time>2019-05-12T06:35:50.000Z</time>
      </trkpt>
      <trkpt lat="48.77578" lon="2.13521">
        <ele>152</ele>
        <time>2019-05-12T06:35:52.000Z</time>
      </trkpt>
      <trkpt lat="48.77581" lon="2.13512">
        <ele>153</ele>
        <time>2019-05-12T06:35:56.000Z</time>
      </trkpt>
      <trkpt lat="48.77583" lon="2.13505">
        <ele>155</ele>
        <time>2019-05-12T06:35:58.000Z</time>
      </trkpt>
      <trkpt lat="48.77583" lon="2.13505">
        <ele>155</ele>
        <time>2019-05-12T06:36:00.000Z</time>
      </trkpt>
      <trkpt lat="48.77583" lon="2.13505">
        <ele>155</ele>
        <time>2019-05-12T06:36:02.000Z</time>
      </trkpt>
      <trkpt lat="48.77585" lon="2.13494">
        <ele>157</ele>
        <time>2019-05-12T06:36:06.000Z</time>
      </trkpt>
      <trkpt lat="48.77588" lon="2.13483">
        <ele>158</ele>
        <time>2019-05-12T06:36:12.000Z</time>
      </trkpt>
      <trkpt lat="48.77588" lon="2.13483">
        <ele>158</ele>
        <time>2019-05-12T06:36:14.000Z</time>
      </trkpt>
      <trkpt lat="48.77588" lon="2.13483">
        <ele>158</ele>
        <time>2019-05-12T06:36:16.000Z</time>
      </trkpt>
      <trkpt lat="48.77588" lon="2.13483">
        <ele>158</ele>
        <time>2019-05-12T06:36:18.000Z</time>
      </trkpt>
      <trkpt lat="48.77588" lon="2.13483">
        <ele>158</ele>
        <time>2019-05-12T06:36:20.000Z</time>
      </trkpt>
      <trkpt lat="48.77591" lon="2.1347">
        <ele>159</ele>
        <time>2019-05-12T06:36:22.000Z</time>
      </trkpt>
      <trkpt lat="48.77594" lon="2.1346">
        <ele>159</ele>
        <time>2019-05-12T06:36:26.000Z</time>
      </trkpt>
      <trkpt lat="48.77594" lon="2.1346">
        <ele>159</ele>
        <time>2019-05-12T06:36:28.000Z</time>
      </trkpt>
      <trkpt lat="48.77594" lon="2.1346">
        <ele>159</ele>
        <time>2019-05-12T06:36:30.000Z</time>
      </trkpt>
      <trkpt lat="48.77594" lon="2.1346">
        <ele>159</ele>
        <time>2019-05-12T06:36:32.000Z</time>
      </trkpt>
      <trkpt lat="48.77594" lon="2.1346">
        <ele>159</ele>
        <time>2019-05-12T06:36:34.000Z</time>
      </trkpt>
      <trkpt lat="48.77594" lon="2.1346">
        <ele>159</ele>
        <time>2019-05-12T06:36:36.000Z</time>
      </trkpt>
      <trkpt lat="48.77601" lon="2.1345">
        <ele>160</ele>
        <time>2019-05-12T06:36:40.000Z</time>
      </trkpt>
      <trkpt lat="48.77608" lon="2.1345">
        <ele>160</ele>
        <time>2019-05-12T06:36:48.000Z</time>
      </trkpt>
      <trkpt lat="48.77615" lon="2.13453">
        <ele>160</ele>
        <time>2019-05-12T06:36:52.000Z</time>
      </trkpt>
      <trkpt lat="48.77615" lon="2.13453">
        <ele>160</ele>
        <time>2019-05-12T06:36:54.000Z</time>
      </trkpt>
      <trkpt lat="48.77615" lon="2.13453">
        <ele>160</ele>
        <time>2019-05-12T06:36:56.000Z</time>
      </trkpt>
      <trkpt lat="48.77615" lon="2.13453">
        <ele>160</ele>
        <time>2019-05-12T06:36:58.000Z</time>
      </trkpt>
      <trkpt lat="48.77615" lon="2.13453">
        <ele>160</ele>
        <time>2019-05-12T06:37:00.000Z</time>
      </trkpt>
      <trkpt lat="48.77615" lon="2.13453">
        <ele>160</ele>
        <time>2019-05-12T06:37:02.000Z</time>
      </trkpt>
      <trkpt lat="48.77615" lon="2.13453">
        <ele>160</ele>
        <time>2019-05-12T06:37:08.000Z</time>
      </trkpt>
      <trkpt lat="48.77615" lon="2.13453">
        <ele>160</ele>
        <time>2019-05-12T06:37:10.000Z</time>
      </trkpt>
      <trkpt lat="48.7763" lon="2.13464">
        <ele>161</ele>
        <time>2019-05-12T06:37:12.000Z</time>
      </trkpt>
      <trkpt lat="48.77639" lon="2.1347">
        <ele>161</ele>
        <time>2019-05-12T06:37:14.000Z</time>
      </trkpt>
      <trkpt lat="48.77646" lon="2.13474">
        <ele>162</ele>
        <time>2019-05-12T06:37:16.000Z</time>
      </trkpt>
      <trkpt lat="48.77646" lon="2.13474">
        <ele>162</ele>
        <time>2019-05-12T06:37:18.000Z</time>
      </trkpt>
      <trkpt lat="48.77652" lon="2.13478">
        <ele>162</ele>
        <time>2019-05-12T06:37:20.000Z</time>
      </trkpt>
      <trkpt lat="48.77652" lon="2.13478">
        <ele>162</ele>
        <time>2019-05-12T06:37:22.000Z</time>
      </trkpt>
      <trkpt lat="48.77652" lon="2.13478">
        <ele>162</ele>
        <time>2019-05-12T06:37:24.000Z</time>
      </trkpt>
      <trkpt lat="48.77652" lon="2.13478">
        <ele>162</ele>
        <time>2019-05-12T06:37:26.000Z</time>
      </trkpt>
      <trkpt lat="48.77652" lon="2.13478">
        <ele>162</ele>
        <time>2019-05-12T06:37:28.000Z</time>
      </trkpt>
      <trkpt lat="48.77661" lon="2.13487">
        <ele>163</ele>
        <time>2019-05-12T06:37:34.000Z</time>
      </trkpt>
      <trkpt lat="48.77666" lon="2.13492">
        <ele>163</ele>
        <time>2019-05-12T06:37:36.000Z</time>
      </trkpt>
      <trkpt lat="48.77666" lon="2.13492">
        <ele>163</ele>
        <time>2019-05-12T06:37:42.000Z</time>
      </trkpt>
      <trkpt lat="48.77673" lon="2.13501">
        <ele>164</ele>
        <time>2019-05-12T06:37:46.000Z</time>
      </trkpt>
      <trkpt lat="48.77678" lon="2.13506">
        <ele>165</ele>
        <time>2019-05-12T06:37:50.000Z</time>
      </trkpt>
      <trkpt lat="48.77678" lon="2.13506">
        <ele>165</ele>
        <time>2019-05-12T06:37:52.000Z</time>
      </trkpt>
      <trkpt lat="48.77678" lon="2.13506">
        <ele>165</ele>
        <time>2019-05-12T06:37:54.000Z</time>
      </trkpt>
      <trkpt lat="48.77678" lon="2.13506">
        <ele>165</ele>
        <time>2019-05-12T06:37:56.000Z</time>
      </trkpt>
      <trkpt lat="48.77678" lon="2.13506">
        <ele>165</ele>
        <time>2019-05-12T06:37:58.000Z</time>
      </trkpt>
      <trkpt lat="48.77678" lon="2.13506">
        <ele>165</ele>
        <time>2019-05-12T06:38:02.000Z</time>
      </trkpt>
      <trkpt lat="48.77686" lon="2.13519">
        <ele>165</ele>
        <time>2019-05-12T06:38:06.000Z</time>
      </trkpt>
      <trkpt lat="48.77692" lon="2.13527">
        <ele>165</ele>
        <time>2019-05-12T06:38:08.000Z</time>
      </trkpt>
      <trkpt lat="48.77692" lon="2.13527">
        <ele>165</ele>
        <time>2019-05-12T06:38:12.000Z</time>
      </trkpt>
      <trkpt lat="48.77692" lon="2.13527">
        <ele>165</ele>
        <time>2019-05-12T06:38:14.000Z</time>
      </trkpt>
      <trkpt lat="48.77692" lon="2.13527">
        <ele>165</ele>
        <time>2019-05-12T06:38:16.000Z</time>
      </trkpt>
      <trkpt lat="48.777" lon="2.13537">
        <ele>166</ele>
        <time>2019-05-12T06:38:20.000Z</time>
      </trkpt>
      <trkpt lat="48.77705" lon="2.13544">
        <ele>166</ele>
        <time>2019-05-12T06:38:22.000Z</time>
      </trkpt>
      <trkpt lat="48.77713" lon="2.13551">
        <ele>166</ele>
        <time>2019-05-12T06:38:28.000Z</time>
      </trkpt>
      <trkpt lat="48.77713" lon="2.13551">
        <ele>166</ele>
        <time>2019-05-12T06:38:30.000Z</time>
      </trkpt>
      <trkpt lat="48.77713" lon="2.13551">
        <ele>166</ele>
        <time>2019-05-12T06:38:36.000Z</time>
      </trkpt>
      <trkpt lat="48.77722" lon="2.1356">
        <ele>166</ele>
        <time>2019-05-12T06:38:40.000Z</time>
      </trkpt>
      <trkpt lat="48.77729" lon="2.13566">
        <ele>166</ele>
        <time>2019-05-12T06:38:42.000Z</time>
      </trkpt>
      <trkpt lat="48.77736" lon="2.1357">
        <ele>167</ele>
        <time>2019-05-12T06:38:46.000Z</time>
      </trkpt>
      <trkpt lat="48.77736" lon="2.1357">
        <ele>167</ele>
        <time>2019-05-12T06:38:48.000Z</time>
      </trkpt>
      <trkpt lat="48.77736" lon="2.1357">
        <ele>167</ele>
        <time>2019-05-12T06:38:50.000Z</time>
      </trkpt>
      <trkpt lat="48.77736" lon="2.1357">
        <ele>167</ele>
        <time>2019-05-12T06:38:52.000Z</time>
      </trkpt>
      <trkpt lat="48.77736" lon="2.1357">
        <ele>167</ele>
        <time>2019-05-12T06:38:54.000Z</time>
      </trkpt>
      <trkpt lat="48.77744" lon="2.13579">
        <ele>167</ele>
        <time>2019-05-12T06:38:56.000Z</time>
      </trkpt>
      <trkpt lat="48.77749" lon="2.13585">
        <ele>168</ele>
        <time>2019-05-12T06:38:58.000Z</time>
      </trkpt>
      <trkpt lat="48.77749" lon="2.13585">
        <ele>168</ele>
        <time>2019-05-12T06:39:00.000Z</time>
      </trkpt>
      <trkpt lat="48.77749" lon="2.13585">
        <ele>168</ele>
        <time>2019-05-12T06:39:02.000Z</time>
      </trkpt>
      <trkpt lat="48.77749" lon="2.13585">
        <ele>168</ele>
        <time>2019-05-12T06:39:04.000Z</time>
      </trkpt>
      <trkpt lat="48.77749" lon="2.13585">
        <ele>168</ele>
        <time>2019-05-12T06:39:06.000Z</time>
      </trkpt>
      <trkpt lat="48.77749" lon="2.13585">
        <ele>168</ele>
        <time>2019-05-12T06:39:08.000Z</time>
      </trkpt>
      <trkpt lat="48.77758" lon="2.13598">
        <ele>168</ele>
        <time>2019-05-12T06:39:12.000Z</time>
      </trkpt>
      <trkpt lat="48.77758" lon="2.13598">
        <ele>168</ele>
        <time>2019-05-12T06:39:14.000Z</time>
      </trkpt>
      <trkpt lat="48.77758" lon="2.13598">
        <ele>168</ele>
        <time>2019-05-12T06:39:16.000Z</time>
      </trkpt>
      <trkpt lat="48.77758" lon="2.13598">
        <ele>168</ele>
        <time>2019-05-12T06:39:18.000Z</time>
      </trkpt>
      <trkpt lat="48.77758" lon="2.13598">
        <ele>168</ele>
        <time>2019-05-12T06:39:20.000Z</time>
      </trkpt>
      <trkpt lat="48.77758" lon="2.13598">
        <ele>168</ele>
        <time>2019-05-12T06:39:22.000Z</time>
      </trkpt>
      <trkpt lat="48.77765" lon="2.1361">
        <ele>168</ele>
        <time>2019-05-12T06:39:26.000Z</time>
      </trkpt>
      <trkpt lat="48.77765" lon="2.1361">
        <ele>168</ele>
        <time>2019-05-12T06:39:28.000Z</time>
      </trkpt>
      <trkpt lat="48.77765" lon="2.1361">
        <ele>168</ele>
        <time>2019-05-12T06:39:30.000Z</time>
      </trkpt>
      <trkpt lat="48.77765" lon="2.1361">
        <ele>168</ele>
        <time>2019-05-12T06:39:32.000Z</time>
      </trkpt>
      <trkpt lat="48.77774" lon="2.13622">
        <ele>168</ele>
        <time>2019-05-12T06:39:36.000Z</time>
      </trkpt>
      <trkpt lat="48.77774" lon="2.13622">
        <ele>168</ele>
        <time>2019-05-12T06:39:38.000Z</time>
      </trkpt>
      <trkpt lat="48.77774" lon="2.13622">
        <ele>168</ele>
        <time>2019-05-12T06:39:40.000Z</time>
      </trkpt>
      <trkpt lat="48.77774" lon="2.13622">
        <ele>168</ele>
        <time>2019-05-12T06:39:42.000Z</time>
      </trkpt>
      <trkpt lat="48.77782" lon="2.13636">
        <ele>168</ele>
        <time>2019-05-12T06:39:46.000Z</time>
      </trkpt>
      <trkpt lat="48.77787" lon="2.13643">
        <ele>168</ele>
        <time>2019-05-12T06:39:48.000Z</time>
      </trkpt>
      <trkpt lat="48.77793" lon="2.13649">
        <ele>168</ele>
        <time>2019-05-12T06:39:52.000Z</time>
      </trkpt>
      <trkpt lat="48.77793" lon="2.13649">
        <ele>168</ele>
        <time>2019-05-12T06:39:54.000Z</time>
      </trkpt>
      <trkpt lat="48.77793" lon="2.13649">
        <ele>168</ele>
        <time>2019-05-12T06:39:56.000Z</time>
      </trkpt>
      <trkpt lat="48.77801" lon="2.13656">
        <ele>168</ele>
        <time>2019-05-12T06:40:00.000Z</time>
      </trkpt>
      <trkpt lat="48.77806" lon="2.13661">
        <ele>168</ele>
        <time>2019-05-12T06:40:02.000Z</time>
      </trkpt>
      <trkpt lat="48.77806" lon="2.13661">
        <ele>168</ele>
        <time>2019-05-12T06:40:08.000Z</time>
      </trkpt>
      <trkpt lat="48.77806" lon="2.13661">
        <ele>168</ele>
        <time>2019-05-12T06:40:10.000Z</time>
      </trkpt>
      <trkpt lat="48.77806" lon="2.13661">
        <ele>168</ele>
        <time>2019-05-12T06:40:12.000Z</time>
      </trkpt>
      <trkpt lat="48.77806" lon="2.13661">
        <ele>168</ele>
        <time>2019-05-12T06:40:14.000Z</time>
      </trkpt>
      <trkpt lat="48.77806" lon="2.13661">
        <ele>168</ele>
        <time>2019-05-12T06:40:26.000Z</time>
      </trkpt>
      <trkpt lat="48.77806" lon="2.13661">
        <ele>168</ele>
        <time>2019-05-12T06:40:28.000Z</time>
      </trkpt>
      <trkpt lat="48.77806" lon="2.13661">
        <ele>168</ele>
        <time>2019-05-12T06:40:30.000Z</time>
      </trkpt>
      <trkpt lat="48.77824" lon="2.13679">
        <ele>169</ele>
        <time>2019-05-12T06:40:34.000Z</time>
      </trkpt>
      <trkpt lat="48.77833" lon="2.1369">
        <ele>169</ele>
        <time>2019-05-12T06:40:36.000Z</time>
      </trkpt>
      <trkpt lat="48.7784" lon="2.13696">
        <ele>171</ele>
        <time>2019-05-12T06:40:38.000Z</time>
      </trkpt>
      <trkpt lat="48.7784" lon="2.13696">
        <ele>171</ele>
        <time>2019-05-12T06:40:40.000Z</time>
      </trkpt>
      <trkpt lat="48.77845" lon="2.13702">
        <ele>172</ele>
        <time>2019-05-12T06:40:42.000Z</time>
      </trkpt>
      <trkpt lat="48.77849" lon="2.13706">
        <ele>172</ele>
        <time>2019-05-12T06:40:44.000Z</time>
      </trkpt>
      <trkpt lat="48.77849" lon="2.13706">
        <ele>172</ele>
        <time>2019-05-12T06:40:46.000Z</time>
      </trkpt>
      <trkpt lat="48.77849" lon="2.13706">
        <ele>172</ele>
        <time>2019-05-12T06:40:48.000Z</time>
      </trkpt>
      <trkpt lat="48.77849" lon="2.13706">
        <ele>172</ele>
        <time>2019-05-12T06:40:50.000Z</time>
      </trkpt>
      <trkpt lat="48.77855" lon="2.13713">
        <ele>172</ele>
        <time>2019-05-12T06:40:52.000Z</time>
      </trkpt>
      <trkpt lat="48.77861" lon="2.13718">
        <ele>172</ele>
        <time>2019-05-12T06:40:56.000Z</time>
      </trkpt>
      <trkpt lat="48.77867" lon="2.13723">
        <ele>172</ele>
        <time>2019-05-12T06:41:00.000Z</time>
      </trkpt>
      <trkpt lat="48.77867" lon="2.13723">
        <ele>172</ele>
        <time>2019-05-12T06:41:02.000Z</time>
      </trkpt>
      <trkpt lat="48.77867" lon="2.13723">
        <ele>172</ele>
        <time>2019-05-12T06:41:05.000Z</time>
      </trkpt>
      <trkpt lat="48.77867" lon="2.13723">
        <ele>172</ele>
        <time>2019-05-12T06:41:07.000Z</time>
      </trkpt>
      <trkpt lat="48.77867" lon="2.13723">
        <ele>172</ele>
        <time>2019-05-12T06:41:09.000Z</time>
      </trkpt>
      <trkpt lat="48.77875" lon="2.13735">
        <ele>173</ele>
        <time>2019-05-12T06:41:13.000Z</time>
      </trkpt>
      <trkpt lat="48.7788" lon="2.13742">
        <ele>173</ele>
        <time>2019-05-12T06:41:15.000Z</time>
      </trkpt>
      <trkpt lat="48.77884" lon="2.13746">
        <ele>173</ele>
        <time>2019-05-12T06:41:17.000Z</time>
      </trkpt>
      <trkpt lat="48.7789" lon="2.13751">
        <ele>174</ele>
        <time>2019-05-12T06:41:23.000Z</time>
      </trkpt>
      <trkpt lat="48.7789" lon="2.13751">
        <ele>174</ele>
        <time>2019-05-12T06:41:25.000Z</time>
      </trkpt>
      <trkpt lat="48.7789" lon="2.13751">
        <ele>174</ele>
        <time>2019-05-12T06:41:30.000Z</time>
      </trkpt>
      <trkpt lat="48.77896" lon="2.13758">
        <ele>174</ele>
        <time>2019-05-12T06:41:34.000Z</time>
      </trkpt>
      <trkpt lat="48.77901" lon="2.13763">
        <ele>174</ele>
        <time>2019-05-12T06:41:36.000Z</time>
      </trkpt>
      <trkpt lat="48.77906" lon="2.13768">
        <ele>174</ele>
        <time>2019-05-12T06:41:40.000Z</time>
      </trkpt>
      <trkpt lat="48.77906" lon="2.13768">
        <ele>174</ele>
        <time>2019-05-12T06:41:42.000Z</time>
      </trkpt>
      <trkpt lat="48.77912" lon="2.13772">
        <ele>174</ele>
        <time>2019-05-12T06:41:47.000Z</time>
      </trkpt>
      <trkpt lat="48.77917" lon="2.13775">
        <ele>176</ele>
        <time>2019-05-12T06:41:48.000Z</time>
      </trkpt>
      <trkpt lat="48.77917" lon="2.13775">
        <ele>176</ele>
        <time>2019-05-12T06:41:54.000Z</time>
      </trkpt>
      <trkpt lat="48.77917" lon="2.13775">
        <ele>176</ele>
        <time>2019-05-12T06:41:56.000Z</time>
      </trkpt>
      <trkpt lat="48.77917" lon="2.13775">
        <ele>176</ele>
        <time>2019-05-12T06:42:04.000Z</time>
      </trkpt>
      <trkpt lat="48.77917" lon="2.13775">
        <ele>176</ele>
        <time>2019-05-12T06:42:06.000Z</time>
      </trkpt>
      <trkpt lat="48.77917" lon="2.13775">
        <ele>176</ele>
        <time>2019-05-12T06:42:08.000Z</time>
      </trkpt>
      <trkpt lat="48.77917" lon="2.13775">
        <ele>176</ele>
        <time>2019-05-12T06:42:10.000Z</time>
      </trkpt>
      <trkpt lat="48.77927" lon="2.13768">
        <ele>176</ele>
        <time>2019-05-12T06:42:12.000Z</time>
      </trkpt>
      <trkpt lat="48.77933" lon="2.13763">
        <ele>176</ele>
        <time>2019-05-12T06:42:14.000Z</time>
      </trkpt>
      <trkpt lat="48.77933" lon="2.13763">
        <ele>176</ele>
        <time>2019-05-12T06:42:16.000Z</time>
      </trkpt>
      <trkpt lat="48.77933" lon="2.13763">
        <ele>176</ele>
        <time>2019-05-12T06:42:18.000Z</time>
      </trkpt>
      <trkpt lat="48.77939" lon="2.1376">
        <ele>176</ele>
        <time>2019-05-12T06:42:20.000Z</time>
      </trkpt>
      <trkpt lat="48.77943" lon="2.13758">
        <ele>176</ele>
        <time>2019-05-12T06:42:22.000Z</time>
      </trkpt>
      <trkpt lat="48.77943" lon="2.13758">
        <ele>176</ele>
        <time>2019-05-12T06:42:24.000Z</time>
      </trkpt>
      <trkpt lat="48.77943" lon="2.13758">
        <ele>176</ele>
        <time>2019-05-12T06:42:26.000Z</time>
      </trkpt>
      <trkpt lat="48.77943" lon="2.13758">
        <ele>176</ele>
        <time>2019-05-12T06:42:28.000Z</time>
      </trkpt>
      <trkpt lat="48.77943" lon="2.13758">
        <ele>176</ele>
        <time>2019-05-12T06:42:32.000Z</time>
      </trkpt>
      <trkpt lat="48.77943" lon="2.13758">
        <ele>176</ele>
        <time>2019-05-12T06:42:34.000Z</time>
      </trkpt>
      <trkpt lat="48.77943" lon="2.13758">
        <ele>176</ele>
        <time>2019-05-12T06:42:40.000Z</time>
      </trkpt>
      <trkpt lat="48.77943" lon="2.13758">
        <ele>176</ele>
        <time>2019-05-12T06:42:42.000Z</time>
      </trkpt>
      <trkpt lat="48.77958" lon="2.1375">
        <ele>176</ele>
        <time>2019-05-12T06:42:44.000Z</time>
      </trkpt>
      <trkpt lat="48.77967" lon="2.13745">
        <ele>176</ele>
        <time>2019-05-12T06:42:46.000Z</time>
      </trkpt>
      <trkpt lat="48.77967" lon="2.13745">
        <ele>176</ele>
        <time>2019-05-12T06:42:50.000Z</time>
      </trkpt>
      <trkpt lat="48.77967" lon="2.13745">
        <ele>176</ele>
        <time>2019-05-12T06:42:52.000Z</time>
      </trkpt>
      <trkpt lat="48.77967" lon="2.13745">
        <ele>176</ele>
        <time>2019-05-12T06:42:54.000Z</time>
      </trkpt>
      <trkpt lat="48.77981" lon="2.13738">
        <ele>176</ele>
        <time>2019-05-12T06:43:06.000Z</time>
      </trkpt>
      <trkpt lat="48.77991" lon="2.13732">
        <ele>176</ele>
        <time>2019-05-12T06:43:08.000Z</time>
      </trkpt>
      <trkpt lat="48.77998" lon="2.13728">
        <ele>176</ele>
        <time>2019-05-12T06:43:10.000Z</time>
      </trkpt>
      <trkpt lat="48.77998" lon="2.13728">
        <ele>176</ele>
        <time>2019-05-12T06:43:12.000Z</time>
      </trkpt>
      <trkpt lat="48.77998" lon="2.13728">
        <ele>176</ele>
        <time>2019-05-12T06:43:14.000Z</time>
      </trkpt>
      <trkpt lat="48.77998" lon="2.13728">
        <ele>176</ele>
        <time>2019-05-12T06:43:16.000Z</time>
      </trkpt>
      <trkpt lat="48.77998" lon="2.13728">
        <ele>176</ele>
        <time>2019-05-12T06:43:18.000Z</time>
      </trkpt>
      <trkpt lat="48.77998" lon="2.13728">
        <ele>176</ele>
        <time>2019-05-12T06:43:20.000Z</time>
      </trkpt>
      <trkpt lat="48.78012" lon="2.13723">
        <ele>177</ele>
        <time>2019-05-12T06:43:32.000Z</time>
      </trkpt>
      <trkpt lat="48.7802" lon="2.13719">
        <ele>177</ele>
        <time>2019-05-12T06:43:34.000Z</time>
      </trkpt>
      <trkpt lat="48.78029" lon="2.13714">
        <ele>177</ele>
        <time>2019-05-12T06:43:41.000Z</time>
      </trkpt>
      <trkpt lat="48.78035" lon="2.1371">
        <ele>177</ele>
        <time>2019-05-12T06:43:43.000Z</time>
      </trkpt>
      <trkpt lat="48.78042" lon="2.13706">
        <ele>178</ele>
        <time>2019-05-12T06:43:47.000Z</time>
      </trkpt>
      <trkpt lat="48.78042" lon="2.13706">
        <ele>178</ele>
        <time>2019-05-12T06:43:51.000Z</time>
      </trkpt>
      <trkpt lat="48.78042" lon="2.13706">
        <ele>178</ele>
        <time>2019-05-12T06:43:53.000Z</time>
      </trkpt>
      <trkpt lat="48.78042" lon="2.13706">
        <ele>178</ele>
        <time>2019-05-12T06:43:55.000Z</time>
      </trkpt>
      <trkpt lat="48.78042" lon="2.13706">
        <ele>178</ele>
        <time>2019-05-12T06:43:57.000Z</time>
      </trkpt>
      <trkpt lat="48.78042" lon="2.13706">
        <ele>178</ele>
        <time>2019-05-12T06:43:59.000Z</time>
      </trkpt>
      <trkpt lat="48.78042" lon="2.13706">
        <ele>178</ele>
        <time>2019-05-12T06:44:01.000Z</time>
      </trkpt>
      <trkpt lat="48.78042" lon="2.13706">
        <ele>178</ele>
        <time>2019-05-12T06:44:03.000Z</time>
      </trkpt>
      <trkpt lat="48.78055" lon="2.13696">
        <ele>178</ele>
        <time>2019-05-12T06:44:07.000Z</time>
      </trkpt>
      <trkpt lat="48.78062" lon="2.13691">
        <ele>178</ele>
        <time>2019-05-12T06:44:09.000Z</time>
      </trkpt>
      <trkpt lat="48.78062" lon="2.13691">
        <ele>178</ele>
        <time>2019-05-12T06:44:11.000Z</time>
      </trkpt>
      <trkpt lat="48.78062" lon="2.13691">
        <ele>178</ele>
        <time>2019-05-12T06:44:13.000Z</time>
      </trkpt>
      <trkpt lat="48.78062" lon="2.13691">
        <ele>178</ele>
        <time>2019-05-12T06:44:15.000Z</time>
      </trkpt>
      <trkpt lat="48.78071" lon="2.13687">
        <ele>178</ele>
        <time>2019-05-12T06:44:19.000Z</time>
      </trkpt>
      <trkpt lat="48.78078" lon="2.13684">
        <ele>178</ele>
        <time>2019-05-12T06:44:23.000Z</time>
      </trkpt>
      <trkpt lat="48.78085" lon="2.1368">
        <ele>179</ele>
        <time>2019-05-12T06:44:27.000Z</time>
      </trkpt>
      <trkpt lat="48.7809" lon="2.13674">
        <ele>179</ele>
        <time>2019-05-12T06:44:31.000Z</time>
      </trkpt>
      <trkpt lat="48.7809" lon="2.13674">
        <ele>179</ele>
        <time>2019-05-12T06:44:35.000Z</time>
      </trkpt>
      <trkpt lat="48.78097" lon="2.1367">
        <ele>179</ele>
        <time>2019-05-12T06:44:37.000Z</time>
      </trkpt>
      <trkpt lat="48.78097" lon="2.1367">
        <ele>179</ele>
        <time>2019-05-12T06:44:39.000Z</time>
      </trkpt>
      <trkpt lat="48.78097" lon="2.1367">
        <ele>179</ele>
        <time>2019-05-12T06:44:41.000Z</time>
      </trkpt>
      <trkpt lat="48.78097" lon="2.1367">
        <ele>179</ele>
        <time>2019-05-12T06:44:43.000Z</time>
      </trkpt>
      <trkpt lat="48.78097" lon="2.1367">
        <ele>179</ele>
        <time>2019-05-12T06:44:45.000Z</time>
      </trkpt>
      <trkpt lat="48.78109" lon="2.13664">
        <ele>179</ele>
        <time>2019-05-12T06:44:51.000Z</time>
      </trkpt>
      <trkpt lat="48.78116" lon="2.13661">
        <ele>179</ele>
        <time>2019-05-12T06:44:53.000Z</time>
      </trkpt>
      <trkpt lat="48.78121" lon="2.13655">
        <ele>179</ele>
        <time>2019-05-12T06:44:57.000Z</time>
      </trkpt>
      <trkpt lat="48.78121" lon="2.13655">
        <ele>179</ele>
        <time>2019-05-12T06:44:59.000Z</time>
      </trkpt>
      <trkpt lat="48.78121" lon="2.13655">
        <ele>179</ele>
        <time>2019-05-12T06:45:01.000Z</time>
      </trkpt>
      <trkpt lat="48.78121" lon="2.13655">
        <ele>179</ele>
        <time>2019-05-12T06:45:03.000Z</time>
      </trkpt>
      <trkpt lat="48.78121" lon="2.13655">
        <ele>179</ele>
        <time>2019-05-12T06:45:05.000Z</time>
      </trkpt>
      <trkpt lat="48.78131" lon="2.1365">
        <ele>179</ele>
        <time>2019-05-12T06:45:09.000Z</time>
      </trkpt>
      <trkpt lat="48.78137" lon="2.13647">
        <ele>179</ele>
        <time>2019-05-12T06:45:13.000Z</time>
      </trkpt>
      <trkpt lat="48.78141" lon="2.13643">
        <ele>179</ele>
        <time>2019-05-12T06:45:15.000Z</time>
      </trkpt>
      <trkpt lat="48.78141" lon="2.13643">
        <ele>179</ele>
        <time>2019-05-12T06:45:19.000Z</time>
      </trkpt>
      <trkpt lat="48.78141" lon="2.13643">
        <ele>179</ele>
        <time>2019-05-12T06:45:21.000Z</time>
      </trkpt>
      <trkpt lat="48.78156" lon="2.13631">
        <ele>179</ele>
        <time>2019-05-12T06:45:45.000Z</time>
      </trkpt>
      <trkpt lat="48.78156" lon="2.13631">
        <ele>179</ele>
        <time>2019-05-12T06:45:47.000Z</time>
      </trkpt>
      <trkpt lat="48.7817" lon="2.13621">
        <ele>179</ele>
        <time>2019-05-12T06:45:53.000Z</time>
      </trkpt>
      <trkpt lat="48.78179" lon="2.13615">
        <ele>179</ele>
        <time>2019-05-12T06:45:55.000Z</time>
      </trkpt>
      <trkpt lat="48.78185" lon="2.13611">
        <ele>179</ele>
        <time>2019-05-12T06:45:57.000Z</time>
      </trkpt>
      <trkpt lat="48.78185" lon="2.13611">
        <ele>179</ele>
        <time>2019-05-12T06:46:03.000Z</time>
      </trkpt>
      <trkpt lat="48.78194" lon="2.13605">
        <ele>179</ele>
        <time>2019-05-12T06:46:07.000Z</time>
      </trkpt>
      <trkpt lat="48.78201" lon="2.136">
        <ele>179</ele>
        <time>2019-05-12T06:46:09.000Z</time>
      </trkpt>
      <trkpt lat="48.78201" lon="2.136">
        <ele>179</ele>
        <time>2019-05-12T06:46:14.000Z</time>
      </trkpt>
      <trkpt lat="48.78201" lon="2.136">
        <ele>179</ele>
        <time>2019-05-12T06:46:16.000Z</time>
      </trkpt>
      <trkpt lat="48.78201" lon="2.136">
        <ele>179</ele>
        <time>2019-05-12T06:46:18.000Z</time>
      </trkpt>
      <trkpt lat="48.7821" lon="2.13593">
        <ele>180</ele>
        <time>2019-05-12T06:46:22.000Z</time>
      </trkpt>
      <trkpt lat="48.78216" lon="2.13588">
        <ele>180</ele>
        <time>2019-05-12T06:46:24.000Z</time>
      </trkpt>
      <trkpt lat="48.7822" lon="2.13585">
        <ele>180</ele>
        <time>2019-05-12T06:46:26.000Z</time>
      </trkpt>
      <trkpt lat="48.78225" lon="2.13581">
        <ele>177</ele>
        <time>2019-05-12T06:46:30.000Z</time>
      </trkpt>
      <trkpt lat="48.78225" lon="2.13581">
        <ele>177</ele>
        <time>2019-05-12T06:46:32.000Z</time>
      </trkpt>
      <trkpt lat="48.78225" lon="2.13581">
        <ele>177</ele>
        <time>2019-05-12T06:46:34.000Z</time>
      </trkpt>
      <trkpt lat="48.78231" lon="2.13578">
        <ele>178</ele>
        <time>2019-05-12T06:46:38.000Z</time>
      </trkpt>
      <trkpt lat="48.78231" lon="2.13578">
        <ele>178</ele>
        <time>2019-05-12T06:46:40.000Z</time>
      </trkpt>
      <trkpt lat="48.78236" lon="2.13576">
        <ele>178</ele>
        <time>2019-05-12T06:46:42.000Z</time>
      </trkpt>
      <trkpt lat="48.78241" lon="2.13573">
        <ele>179</ele>
        <time>2019-05-12T06:46:44.000Z</time>
      </trkpt>
      <trkpt lat="48.78241" lon="2.13573">
        <ele>179</ele>
        <time>2019-05-12T06:46:46.000Z</time>
      </trkpt>
      <trkpt lat="48.78246" lon="2.1357">
        <ele>179</ele>
        <time>2019-05-12T06:46:48.000Z</time>
      </trkpt>
      <trkpt lat="48.78246" lon="2.1357">
        <ele>179</ele>
        <time>2019-05-12T06:46:50.000Z</time>
      </trkpt>
      <trkpt lat="48.78246" lon="2.1357">
        <ele>179</ele>
        <time>2019-05-12T06:46:52.000Z</time>
      </trkpt>
      <trkpt lat="48.78246" lon="2.1357">
        <ele>179</ele>
        <time>2019-05-12T06:47:00.000Z</time>
      </trkpt>
      <trkpt lat="48.78258" lon="2.13562">
        <ele>179</ele>
        <time>2019-05-12T06:47:06.000Z</time>
      </trkpt>
      <trkpt lat="48.78258" lon="2.13562">
        <ele>179</ele>
        <time>2019-05-12T06:47:08.000Z</time>
      </trkpt>
      <trkpt lat="48.78258" lon="2.13562">
        <ele>179</ele>
        <time>2019-05-12T06:47:10.000Z</time>
      </trkpt>
      <trkpt lat="48.78269" lon="2.13554">
        <ele>179</ele>
        <time>2019-05-12T06:47:16.000Z</time>
      </trkpt>
      <trkpt lat="48.78276" lon="2.13549">
        <ele>179</ele>
        <time>2019-05-12T06:47:18.000Z</time>
      </trkpt>
      <trkpt lat="48.78281" lon="2.13546">
        <ele>179</ele>
        <time>2019-05-12T06:47:20.000Z</time>
      </trkpt>
      <trkpt lat="48.78286" lon="2.13542">
        <ele>179</ele>
        <time>2019-05-12T06:47:24.000Z</time>
      </trkpt>
      <trkpt lat="48.78286" lon="2.13542">
        <ele>179</ele>
        <time>2019-05-12T06:47:26.000Z</time>
      </trkpt>
      <trkpt lat="48.78286" lon="2.13542">
        <ele>179</ele>
        <time>2019-05-12T06:47:28.000Z</time>
      </trkpt>
      <trkpt lat="48.78293" lon="2.13535">
        <ele>179</ele>
        <time>2019-05-12T06:47:36.000Z</time>
      </trkpt>
      <trkpt lat="48.78299" lon="2.1353">
        <ele>179</ele>
        <time>2019-05-12T06:47:38.000Z</time>
      </trkpt>
      <trkpt lat="48.78304" lon="2.13526">
        <ele>178</ele>
        <time>2019-05-12T06:47:40.000Z</time>
      </trkpt>
      <trkpt lat="48.78308" lon="2.13524">
        <ele>178</ele>
        <time>2019-05-12T06:47:42.000Z</time>
      </trkpt>
      <trkpt lat="48.78313" lon="2.13521">
        <ele>178</ele>
        <time>2019-05-12T06:47:44.000Z</time>
      </trkpt>
      <trkpt lat="48.78313" lon="2.13521">
        <ele>178</ele>
        <time>2019-05-12T06:47:46.000Z</time>
      </trkpt>
      <trkpt lat="48.78324" lon="2.13516">
        <ele>178</ele>
        <time>2019-05-12T06:47:48.000Z</time>
      </trkpt>
      <trkpt lat="48.78324" lon="2.13516">
        <ele>178</ele>
        <time>2019-05-12T06:47:50.000Z</time>
      </trkpt>
      <trkpt lat="48.78324" lon="2.13516">
        <ele>178</ele>
        <time>2019-05-12T06:47:52.000Z</time>
      </trkpt>
      <trkpt lat="48.78324" lon="2.13516">
        <ele>178</ele>
        <time>2019-05-12T06:47:54.000Z</time>
      </trkpt>
      <trkpt lat="48.78324" lon="2.13516">
        <ele>178</ele>
        <time>2019-05-12T06:47:56.000Z</time>
      </trkpt>
      <trkpt lat="48.78324" lon="2.13516">
        <ele>178</ele>
        <time>2019-05-12T06:47:58.000Z</time>
      </trkpt>
      <trkpt lat="48.78324" lon="2.13516">
        <ele>178</ele>
        <time>2019-05-12T06:48:00.000Z</time>
      </trkpt>
      <trkpt lat="48.78338" lon="2.13501">
        <ele>178</ele>
        <time>2019-05-12T06:48:04.000Z</time>
      </trkpt>
      <trkpt lat="48.78338" lon="2.13501">
        <ele>178</ele>
        <time>2019-05-12T06:48:06.000Z</time>
      </trkpt>
      <trkpt lat="48.78338" lon="2.13501">
        <ele>178</ele>
        <time>2019-05-12T06:48:08.000Z</time>
      </trkpt>
      <trkpt lat="48.78338" lon="2.13501">
        <ele>178</ele>
        <time>2019-05-12T06:48:10.000Z</time>
      </trkpt>
      <trkpt lat="48.78338" lon="2.13501">
        <ele>178</ele>
        <time>2019-05-12T06:48:12.000Z</time>
      </trkpt>
      <trkpt lat="48.78347" lon="2.13495">
        <ele>173</ele>
        <time>2019-05-12T06:48:14.000Z</time>
      </trkpt>
      <trkpt lat="48.78347" lon="2.13495">
        <ele>173</ele>
        <time>2019-05-12T06:48:16.000Z</time>
      </trkpt>
      <trkpt lat="48.78347" lon="2.13495">
        <ele>173</ele>
        <time>2019-05-12T06:48:18.000Z</time>
      </trkpt>
      <trkpt lat="48.78347" lon="2.13495">
        <ele>173</ele>
        <time>2019-05-12T06:48:20.000Z</time>
      </trkpt>
      <trkpt lat="48.78357" lon="2.13491">
        <ele>172</ele>
        <time>2019-05-12T06:48:22.000Z</time>
      </trkpt>
      <trkpt lat="48.78366" lon="2.13487">
        <ele>170</ele>
        <time>2019-05-12T06:48:28.000Z</time>
      </trkpt>
      <trkpt lat="48.78366" lon="2.13487">
        <ele>170</ele>
        <time>2019-05-12T06:48:30.000Z</time>
      </trkpt>
      <trkpt lat="48.78366" lon="2.13487">
        <ele>170</ele>
        <time>2019-05-12T06:48:32.000Z</time>
      </trkpt>
      <trkpt lat="48.78374" lon="2.13479">
        <ele>169</ele>
        <time>2019-05-12T06:48:36.000Z</time>
      </trkpt>
      <trkpt lat="48.78383" lon="2.13472">
        <ele>168</ele>
        <time>2019-05-12T06:48:42.000Z</time>
      </trkpt>
      <trkpt lat="48.78383" lon="2.13472">
        <ele>168</ele>
        <time>2019-05-12T06:48:44.000Z</time>
      </trkpt>
      <trkpt lat="48.78383" lon="2.13472">
        <ele>168</ele>
        <time>2019-05-12T06:48:46.000Z</time>
      </trkpt>
      <trkpt lat="48.78383" lon="2.13472">
        <ele>168</ele>
        <time>2019-05-12T06:48:48.000Z</time>
      </trkpt>
      <trkpt lat="48.78383" lon="2.13472">
        <ele>168</ele>
        <time>2019-05-12T06:48:50.000Z</time>
      </trkpt>
      <trkpt lat="48.78397" lon="2.13465">
        <ele>167</ele>
        <time>2019-05-12T06:48:54.000Z</time>
      </trkpt>
      <trkpt lat="48.78397" lon="2.13465">
        <ele>167</ele>
        <time>2019-05-12T06:49:02.000Z</time>
      </trkpt>
      <trkpt lat="48.78397" lon="2.13465">
        <ele>167</ele>
        <time>2019-05-12T06:49:04.000Z</time>
      </trkpt>
      <trkpt lat="48.78397" lon="2.13465">
        <ele>167</ele>
        <time>2019-05-12T06:49:06.000Z</time>
      </trkpt>
      <trkpt lat="48.78397" lon="2.13465">
        <ele>167</ele>
        <time>2019-05-12T06:49:08.000Z</time>
      </trkpt>
      <trkpt lat="48.78404" lon="2.13458">
        <ele>167</ele>
        <time>2019-05-12T06:49:12.000Z</time>
      </trkpt>
      <trkpt lat="48.78409" lon="2.13455">
        <ele>166</ele>
        <time>2019-05-12T06:49:14.000Z</time>
      </trkpt>
      <trkpt lat="48.78415" lon="2.13454">
        <ele>166</ele>
        <time>2019-05-12T06:49:18.000Z</time>
      </trkpt>
      <trkpt lat="48.78415" lon="2.13454">
        <ele>166</ele>
        <time>2019-05-12T06:49:20.000Z</time>
      </trkpt>
      <trkpt lat="48.78415" lon="2.13454">
        <ele>166</ele>
        <time>2019-05-12T06:49:22.000Z</time>
      </trkpt>
      <trkpt lat="48.78415" lon="2.13454">
        <ele>166</ele>
        <time>2019-05-12T06:49:24.000Z</time>
      </trkpt>
      <trkpt lat="48.78415" lon="2.13454">
        <ele>166</ele>
        <time>2019-05-12T06:49:26.000Z</time>
      </trkpt>
      <trkpt lat="48.78415" lon="2.13454">
        <ele>166</ele>
        <time>2019-05-12T06:49:28.000Z</time>
      </trkpt>
      <trkpt lat="48.78423" lon="2.13449">
        <ele>162</ele>
        <time>2019-05-12T06:49:36.000Z</time>
      </trkpt>
      <trkpt lat="48.78428" lon="2.13446">
        <ele>161</ele>
        <time>2019-05-12T06:49:38.000Z</time>
      </trkpt>
      <trkpt lat="48.78428" lon="2.13446">
        <ele>161</ele>
        <time>2019-05-12T06:49:40.000Z</time>
      </trkpt>
      <trkpt lat="48.78428" lon="2.13446">
        <ele>161</ele>
        <time>2019-05-12T06:49:42.000Z</time>
      </trkpt>
      <trkpt lat="48.78428" lon="2.13446">
        <ele>161</ele>
        <time>2019-05-12T06:49:44.000Z</time>
      </trkpt>
      <trkpt lat="48.78428" lon="2.13446">
        <ele>161</ele>
        <time>2019-05-12T06:49:46.000Z</time>
      </trkpt>
      <trkpt lat="48.78428" lon="2.13446">
        <ele>161</ele>
        <time>2019-05-12T06:49:48.000Z</time>
      </trkpt>
      <trkpt lat="48.78428" lon="2.13446">
        <ele>161</ele>
        <time>2019-05-12T06:49:50.000Z</time>
      </trkpt>
      <trkpt lat="48.78428" lon="2.13446">
        <ele>161</ele>
        <time>2019-05-12T06:49:52.000Z</time>
      </trkpt>
      <trkpt lat="48.78428" lon="2.13446">
        <ele>161</ele>
        <time>2019-05-12T06:50:02.000Z</time>
      </trkpt>
      <trkpt lat="48.78428" lon="2.13446">
        <ele>161</ele>
        <time>2019-05-12T06:50:04.000Z</time>
      </trkpt>
      <trkpt lat="48.78447" lon="2.13433">
        <ele>161</ele>
        <time>2019-05-12T06:50:10.000Z</time>
      </trkpt>
      <trkpt lat="48.78458" lon="2.13425">
        <ele>160</ele>
        <time>2019-05-12T06:50:12.000Z</time>
      </trkpt>
      <trkpt lat="48.78463" lon="2.13419">
        <ele>160</ele>
        <time>2019-05-12T06:50:14.000Z</time>
      </trkpt>
      <trkpt lat="48.78463" lon="2.13419">
        <ele>160</ele>
        <time>2019-05-12T06:50:16.000Z</time>
      </trkpt>
      <trkpt lat="48.78463" lon="2.13419">
        <ele>160</ele>
        <time>2019-05-12T06:50:18.000Z</time>
      </trkpt>
      <trkpt lat="48.78463" lon="2.13419">
        <ele>160</ele>
        <time>2019-05-12T06:50:20.000Z</time>
      </trkpt>
      <trkpt lat="48.78473" lon="2.13408">
        <ele>156</ele>
        <time>2019-05-12T06:50:38.000Z</time>
      </trkpt>
      <trkpt lat="48.78481" lon="2.13402">
        <ele>156</ele>
        <time>2019-05-12T06:50:40.000Z</time>
      </trkpt>
      <trkpt lat="48.78487" lon="2.13399">
        <ele>156</ele>
        <time>2019-05-12T06:50:42.000Z</time>
      </trkpt>
      <trkpt lat="48.78491" lon="2.13398">
        <ele>156</ele>
        <time>2019-05-12T06:50:44.000Z</time>
      </trkpt>
      <trkpt lat="48.78491" lon="2.13398">
        <ele>156</ele>
        <time>2019-05-12T06:50:46.000Z</time>
      </trkpt>
      <trkpt lat="48.78491" lon="2.13398">
        <ele>156</ele>
        <time>2019-05-12T06:50:48.000Z</time>
      </trkpt>
      <trkpt lat="48.78498" lon="2.13398">
        <ele>156</ele>
        <time>2019-05-12T06:50:50.000Z</time>
      </trkpt>
      <trkpt lat="48.78503" lon="2.13398">
        <ele>157</ele>
        <time>2019-05-12T06:50:52.000Z</time>
      </trkpt>
      <trkpt lat="48.78508" lon="2.13401">
        <ele>157</ele>
        <time>2019-05-12T06:50:56.000Z</time>
      </trkpt>
      <trkpt lat="48.78508" lon="2.13401">
        <ele>157</ele>
        <time>2019-05-12T06:50:58.000Z</time>
      </trkpt>
      <trkpt lat="48.78513" lon="2.13403">
        <ele>157</ele>
        <time>2019-05-12T06:51:00.000Z</time>
      </trkpt>
      <trkpt lat="48.78513" lon="2.13403">
        <ele>157</ele>
        <time>2019-05-12T06:51:02.000Z</time>
      </trkpt>
      <trkpt lat="48.78518" lon="2.13404">
        <ele>157</ele>
        <time>2019-05-12T06:51:04.000Z</time>
      </trkpt>
      <trkpt lat="48.78518" lon="2.13404">
        <ele>157</ele>
        <time>2019-05-12T06:51:06.000Z</time>
      </trkpt>
      <trkpt lat="48.78518" lon="2.13404">
        <ele>157</ele>
        <time>2019-05-12T06:51:08.000Z</time>
      </trkpt>
      <trkpt lat="48.78518" lon="2.13404">
        <ele>157</ele>
        <time>2019-05-12T06:51:10.000Z</time>
      </trkpt>
      <trkpt lat="48.78535" lon="2.134">
        <ele>157</ele>
        <time>2019-05-12T06:51:26.000Z</time>
      </trkpt>
      <trkpt lat="48.78545" lon="2.13397">
        <ele>157</ele>
        <time>2019-05-12T06:51:28.000Z</time>
      </trkpt>
      <trkpt lat="48.78553" lon="2.13396">
        <ele>157</ele>
        <time>2019-05-12T06:51:30.000Z</time>
      </trkpt>
      <trkpt lat="48.78558" lon="2.13395">
        <ele>157</ele>
        <time>2019-05-12T06:51:32.000Z</time>
      </trkpt>
      <trkpt lat="48.78558" lon="2.13395">
        <ele>157</ele>
        <time>2019-05-12T06:51:34.000Z</time>
      </trkpt>
      <trkpt lat="48.78558" lon="2.13395">
        <ele>157</ele>
        <time>2019-05-12T06:51:36.000Z</time>
      </trkpt>
      <trkpt lat="48.78569" lon="2.13393">
        <ele>157</ele>
        <time>2019-05-12T06:51:42.000Z</time>
      </trkpt>
      <trkpt lat="48.78575" lon="2.13392">
        <ele>157</ele>
        <time>2019-05-12T06:51:44.000Z</time>
      </trkpt>
      <trkpt lat="48.78575" lon="2.13392">
        <ele>157</ele>
        <time>2019-05-12T06:51:46.000Z</time>
      </trkpt>
      <trkpt lat="48.7858" lon="2.13392">
        <ele>157</ele>
        <time>2019-05-12T06:51:48.000Z</time>
      </trkpt>
      <trkpt lat="48.7858" lon="2.13392">
        <ele>157</ele>
        <time>2019-05-12T06:51:50.000Z</time>
      </trkpt>
      <trkpt lat="48.78587" lon="2.1339">
        <ele>158</ele>
        <time>2019-05-12T06:51:54.000Z</time>
      </trkpt>
      <trkpt lat="48.78591" lon="2.13389">
        <ele>158</ele>
        <time>2019-05-12T06:51:56.000Z</time>
      </trkpt>
      <trkpt lat="48.78591" lon="2.13389">
        <ele>158</ele>
        <time>2019-05-12T06:51:58.000Z</time>
      </trkpt>
      <trkpt lat="48.78591" lon="2.13389">
        <ele>158</ele>
        <time>2019-05-12T06:52:00.000Z</time>
      </trkpt>
      <trkpt lat="48.786" lon="2.13388">
        <ele>158</ele>
        <time>2019-05-12T06:52:08.000Z</time>
      </trkpt>
      <trkpt lat="48.78606" lon="2.13388">
        <ele>158</ele>
        <time>2019-05-12T06:52:10.000Z</time>
      </trkpt>
      <trkpt lat="48.78606" lon="2.13388">
        <ele>158</ele>
        <time>2019-05-12T06:52:12.000Z</time>
      </trkpt>
      <trkpt lat="48.78606" lon="2.13388">
        <ele>158</ele>
        <time>2019-05-12T06:52:14.000Z</time>
      </trkpt>
      <trkpt lat="48.78613" lon="2.13388">
        <ele>158</ele>
        <time>2019-05-12T06:52:16.000Z</time>
      </trkpt>
      <trkpt lat="48.7862" lon="2.13388">
        <ele>158</ele>
        <time>2019-05-12T06:52:22.000Z</time>
      </trkpt>
      <trkpt lat="48.78625" lon="2.13388">
        <ele>158</ele>
        <time>2019-05-12T06:52:24.000Z</time>
      </trkpt>
      <trkpt lat="48.78625" lon="2.13388">
        <ele>158</ele>
        <time>2019-05-12T06:52:26.000Z</time>
      </trkpt>
      <trkpt lat="48.78625" lon="2.13388">
        <ele>158</ele>
        <time>2019-05-12T06:52:30.000Z</time>
      </trkpt>
      <trkpt lat="48.78625" lon="2.13388">
        <ele>158</ele>
        <time>2019-05-12T06:52:32.000Z</time>
      </trkpt>
      <trkpt lat="48.78625" lon="2.13388">
        <ele>158</ele>
        <time>2019-05-12T06:52:34.000Z</time>
      </trkpt>
      <trkpt lat="48.78625" lon="2.13388">
        <ele>158</ele>
        <time>2019-05-12T06:52:36.000Z</time>
      </trkpt>
      <trkpt lat="48.78638" lon="2.13388">
        <ele>159</ele>
        <time>2019-05-12T06:52:40.000Z</time>
      </trkpt>
      <trkpt lat="48.78646" lon="2.13389">
        <ele>159</ele>
        <time>2019-05-12T06:52:42.000Z</time>
      </trkpt>
      <trkpt lat="48.78652" lon="2.1339">
        <ele>159</ele>
        <time>2019-05-12T06:52:44.000Z</time>
      </trkpt>
      <trkpt lat="48.78652" lon="2.1339">
        <ele>159</ele>
        <time>2019-05-12T06:52:46.000Z</time>
      </trkpt>
      <trkpt lat="48.78657" lon="2.13391">
        <ele>160</ele>
        <time>2019-05-12T06:52:48.000Z</time>
      </trkpt>
      <trkpt lat="48.78657" lon="2.13391">
        <ele>160</ele>
        <time>2019-05-12T06:52:50.000Z</time>
      </trkpt>
      <trkpt lat="48.78657" lon="2.13391">
        <ele>160</ele>
        <time>2019-05-12T06:52:52.000Z</time>
      </trkpt>
      <trkpt lat="48.78657" lon="2.13391">
        <ele>160</ele>
        <time>2019-05-12T06:52:54.000Z</time>
      </trkpt>
      <trkpt lat="48.78664" lon="2.1339">
        <ele>160</ele>
        <time>2019-05-12T06:52:58.000Z</time>
      </trkpt>
      <trkpt lat="48.7867" lon="2.13389">
        <ele>161</ele>
        <time>2019-05-12T06:53:00.000Z</time>
      </trkpt>
      <trkpt lat="48.7867" lon="2.13389">
        <ele>161</ele>
        <time>2019-05-12T06:53:02.000Z</time>
      </trkpt>
      <trkpt lat="48.7867" lon="2.13389">
        <ele>161</ele>
        <time>2019-05-12T06:53:04.000Z</time>
      </trkpt>
      <trkpt lat="48.7867" lon="2.13389">
        <ele>161</ele>
        <time>2019-05-12T06:53:06.000Z</time>
      </trkpt>
      <trkpt lat="48.7867" lon="2.13389">
        <ele>161</ele>
        <time>2019-05-12T06:53:08.000Z</time>
      </trkpt>
      <trkpt lat="48.7867" lon="2.13389">
        <ele>161</ele>
        <time>2019-05-12T06:53:10.000Z</time>
      </trkpt>
      <trkpt lat="48.78682" lon="2.13389">
        <ele>160</ele>
        <time>2019-05-12T06:53:14.000Z</time>
      </trkpt>
      <trkpt lat="48.78689" lon="2.13389">
        <ele>160</ele>
        <time>2019-05-12T06:53:16.000Z</time>
      </trkpt>
      <trkpt lat="48.78693" lon="2.13389">
        <ele>160</ele>
        <time>2019-05-12T06:53:18.000Z</time>
      </trkpt>
      <trkpt lat="48.78693" lon="2.13389">
        <ele>160</ele>
        <time>2019-05-12T06:53:20.000Z</time>
      </trkpt>
      <trkpt lat="48.78693" lon="2.13389">
        <ele>160</ele>
        <time>2019-05-12T06:53:22.000Z</time>
      </trkpt>
      <trkpt lat="48.78693" lon="2.13389">
        <ele>160</ele>
        <time>2019-05-12T06:53:30.000Z</time>
      </trkpt>
      <trkpt lat="48.78693" lon="2.13389">
        <ele>160</ele>
        <time>2019-05-12T06:53:34.000Z</time>
      </trkpt>
      <trkpt lat="48.78706" lon="2.13391">
        <ele>160</ele>
        <time>2019-05-12T06:53:38.000Z</time>
      </trkpt>
      <trkpt lat="48.78713" lon="2.13392">
        <ele>161</ele>
        <time>2019-05-12T06:53:40.000Z</time>
      </trkpt>
      <trkpt lat="48.78718" lon="2.13393">
        <ele>161</ele>
        <time>2019-05-12T06:53:42.000Z</time>
      </trkpt>
      <trkpt lat="48.78724" lon="2.13396">
        <ele>161</ele>
        <time>2019-05-12T06:53:46.000Z</time>
      </trkpt>
      <trkpt lat="48.78724" lon="2.13396">
        <ele>161</ele>
        <time>2019-05-12T06:53:52.000Z</time>
      </trkpt>
      <trkpt lat="48.78732" lon="2.13397">
        <ele>161</ele>
        <time>2019-05-12T06:53:54.000Z</time>
      </trkpt>
      <trkpt lat="48.78738" lon="2.13398">
        <ele>162</ele>
        <time>2019-05-12T06:53:56.000Z</time>
      </trkpt>
      <trkpt lat="48.78743" lon="2.13399">
        <ele>162</ele>
        <time>2019-05-12T06:54:00.000Z</time>
      </trkpt>
      <trkpt lat="48.78743" lon="2.13399">
        <ele>162</ele>
        <time>2019-05-12T06:54:02.000Z</time>
      </trkpt>
      <trkpt lat="48.78743" lon="2.13399">
        <ele>162</ele>
        <time>2019-05-12T06:54:04.000Z</time>
      </trkpt>
      <trkpt lat="48.78743" lon="2.13399">
        <ele>162</ele>
        <time>2019-05-12T06:54:08.000Z</time>
      </trkpt>
      <trkpt lat="48.78743" lon="2.13399">
        <ele>162</ele>
        <time>2019-05-12T06:54:10.000Z</time>
      </trkpt>
      <trkpt lat="48.78743" lon="2.13399">
        <ele>162</ele>
        <time>2019-05-12T06:54:12.000Z</time>
      </trkpt>
      <trkpt lat="48.78743" lon="2.13399">
        <ele>162</ele>
        <time>2019-05-12T06:54:14.000Z</time>
      </trkpt>
      <trkpt lat="48.78743" lon="2.13399">
        <ele>162</ele>
        <time>2019-05-12T06:54:16.000Z</time>
      </trkpt>
      <trkpt lat="48.78757" lon="2.13392">
        <ele>163</ele>
        <time>2019-05-12T06:54:22.000Z</time>
      </trkpt>
      <trkpt lat="48.78764" lon="2.13386">
        <ele>162</ele>
        <time>2019-05-12T06:54:24.000Z</time>
      </trkpt>
      <trkpt lat="48.78767" lon="2.1338">
        <ele>162</ele>
        <time>2019-05-12T06:54:26.000Z</time>
      </trkpt>
      <trkpt lat="48.78765" lon="2.13371">
        <ele>161</ele>
        <time>2019-05-12T06:54:30.000Z</time>
      </trkpt>
      <trkpt lat="48.78765" lon="2.13371">
        <ele>161</ele>
        <time>2019-05-12T06:54:32.000Z</time>
      </trkpt>
      <trkpt lat="48.78765" lon="2.13371">
        <ele>161</ele>
        <time>2019-05-12T06:54:34.000Z</time>
      </trkpt>
      <trkpt lat="48.78765" lon="2.13371">
        <ele>161</ele>
        <time>2019-05-12T06:54:36.000Z</time>
      </trkpt>
      <trkpt lat="48.78765" lon="2.13371">
        <ele>161</ele>
        <time>2019-05-12T06:54:38.000Z</time>
      </trkpt>
      <trkpt lat="48.78765" lon="2.13371">
        <ele>161</ele>
        <time>2019-05-12T06:54:40.000Z</time>
      </trkpt>
      <trkpt lat="48.78765" lon="2.13371">
        <ele>161</ele>
        <time>2019-05-12T06:54:44.000Z</time>
      </trkpt>
      <trkpt lat="48.78765" lon="2.13371">
        <ele>161</ele>
        <time>2019-05-12T06:54:46.000Z</time>
      </trkpt>
      <trkpt lat="48.78765" lon="2.13371">
        <ele>161</ele>
        <time>2019-05-12T06:54:48.000Z</time>
      </trkpt>
      <trkpt lat="48.78762" lon="2.13352">
        <ele>160</ele>
        <time>2019-05-12T06:54:50.000Z</time>
      </trkpt>
      <trkpt lat="48.78761" lon="2.1334">
        <ele>158</ele>
        <time>2019-05-12T06:54:52.000Z</time>
      </trkpt>
      <trkpt lat="48.7876" lon="2.13331">
        <ele>157</ele>
        <time>2019-05-12T06:54:54.000Z</time>
      </trkpt>
      <trkpt lat="48.7876" lon="2.13331">
        <ele>157</ele>
        <time>2019-05-12T06:54:56.000Z</time>
      </trkpt>
      <trkpt lat="48.7876" lon="2.13331">
        <ele>157</ele>
        <time>2019-05-12T06:54:58.000Z</time>
      </trkpt>
      <trkpt lat="48.7876" lon="2.13331">
        <ele>157</ele>
        <time>2019-05-12T06:55:00.000Z</time>
      </trkpt>
      <trkpt lat="48.7876" lon="2.13331">
        <ele>157</ele>
        <time>2019-05-12T06:55:02.000Z</time>
      </trkpt>
      <trkpt lat="48.7876" lon="2.13331">
        <ele>157</ele>
        <time>2019-05-12T06:55:04.000Z</time>
      </trkpt>
      <trkpt lat="48.7876" lon="2.13331">
        <ele>157</ele>
        <time>2019-05-12T06:55:06.000Z</time>
      </trkpt>
      <trkpt lat="48.7876" lon="2.13331">
        <ele>157</ele>
        <time>2019-05-12T06:55:08.000Z</time>
      </trkpt>
      <trkpt lat="48.78763" lon="2.13316">
        <ele>158</ele>
        <time>2019-05-12T06:55:10.000Z</time>
      </trkpt>
      <trkpt lat="48.78764" lon="2.13307">
        <ele>158</ele>
        <time>2019-05-12T06:55:12.000Z</time>
      </trkpt>
      <trkpt lat="48.78764" lon="2.13299">
        <ele>158</ele>
        <time>2019-05-12T06:55:14.000Z</time>
      </trkpt>
      <trkpt lat="48.78764" lon="2.13292">
        <ele>158</ele>
        <time>2019-05-12T06:55:18.000Z</time>
      </trkpt>
      <trkpt lat="48.78764" lon="2.13292">
        <ele>158</ele>
        <time>2019-05-12T06:55:20.000Z</time>
      </trkpt>
      <trkpt lat="48.78764" lon="2.13292">
        <ele>158</ele>
        <time>2019-05-12T06:55:22.000Z</time>
      </trkpt>
      <trkpt lat="48.78764" lon="2.13292">
        <ele>158</ele>
        <time>2019-05-12T06:55:24.000Z</time>
      </trkpt>
      <trkpt lat="48.78764" lon="2.13292">
        <ele>158</ele>
        <time>2019-05-12T06:55:28.000Z</time>
      </trkpt>
      <trkpt lat="48.78764" lon="2.13292">
        <ele>158</ele>
        <time>2019-05-12T06:55:30.000Z</time>
      </trkpt>
      <trkpt lat="48.78772" lon="2.13276">
        <ele>158</ele>
        <time>2019-05-12T06:55:36.000Z</time>
      </trkpt>
      <trkpt lat="48.78775" lon="2.13266">
        <ele>158</ele>
        <time>2019-05-12T06:55:38.000Z</time>
      </trkpt>
      <trkpt lat="48.78776" lon="2.13259">
        <ele>158</ele>
        <time>2019-05-12T06:55:40.000Z</time>
      </trkpt>
      <trkpt lat="48.78776" lon="2.13259">
        <ele>158</ele>
        <time>2019-05-12T06:55:42.000Z</time>
      </trkpt>
      <trkpt lat="48.78776" lon="2.13259">
        <ele>158</ele>
        <time>2019-05-12T06:55:44.000Z</time>
      </trkpt>
      <trkpt lat="48.78776" lon="2.13259">
        <ele>158</ele>
        <time>2019-05-12T06:55:48.000Z</time>
      </trkpt>
      <trkpt lat="48.78776" lon="2.13259">
        <ele>158</ele>
        <time>2019-05-12T06:55:50.000Z</time>
      </trkpt>
      <trkpt lat="48.78776" lon="2.13259">
        <ele>158</ele>
        <time>2019-05-12T06:55:52.000Z</time>
      </trkpt>
      <trkpt lat="48.78776" lon="2.13242">
        <ele>159</ele>
        <time>2019-05-12T06:55:56.000Z</time>
      </trkpt>
      <trkpt lat="48.78775" lon="2.13231">
        <ele>159</ele>
        <time>2019-05-12T06:55:58.000Z</time>
      </trkpt>
      <trkpt lat="48.78773" lon="2.13223">
        <ele>160</ele>
        <time>2019-05-12T06:56:00.000Z</time>
      </trkpt>
      <trkpt lat="48.78773" lon="2.13223">
        <ele>160</ele>
        <time>2019-05-12T06:56:02.000Z</time>
      </trkpt>
      <trkpt lat="48.78771" lon="2.13213">
        <ele>160</ele>
        <time>2019-05-12T06:56:06.000Z</time>
      </trkpt>
      <trkpt lat="48.78769" lon="2.13206">
        <ele>160</ele>
        <time>2019-05-12T06:56:08.000Z</time>
      </trkpt>
      <trkpt lat="48.78767" lon="2.13199">
        <ele>160</ele>
        <time>2019-05-12T06:56:12.000Z</time>
      </trkpt>
      <trkpt lat="48.78767" lon="2.13199">
        <ele>160</ele>
        <time>2019-05-12T06:56:14.000Z</time>
      </trkpt>
      <trkpt lat="48.78767" lon="2.13199">
        <ele>160</ele>
        <time>2019-05-12T06:56:16.000Z</time>
      </trkpt>
      <trkpt lat="48.78765" lon="2.13188">
        <ele>160</ele>
        <time>2019-05-12T06:56:20.000Z</time>
      </trkpt>
      <trkpt lat="48.78764" lon="2.1318">
        <ele>160</ele>
        <time>2019-05-12T06:56:22.000Z</time>
      </trkpt>
      <trkpt lat="48.78764" lon="2.1318">
        <ele>160</ele>
        <time>2019-05-12T06:56:24.000Z</time>
      </trkpt>
      <trkpt lat="48.78763" lon="2.13171">
        <ele>160</ele>
        <time>2019-05-12T06:56:26.000Z</time>
      </trkpt>
      <trkpt lat="48.78763" lon="2.13171">
        <ele>160</ele>
        <time>2019-05-12T06:56:28.000Z</time>
      </trkpt>
      <trkpt lat="48.78763" lon="2.13171">
        <ele>160</ele>
        <time>2019-05-12T06:56:32.000Z</time>
      </trkpt>
      <trkpt lat="48.78763" lon="2.13171">
        <ele>160</ele>
        <time>2019-05-12T06:56:36.000Z</time>
      </trkpt>
      <trkpt lat="48.78761" lon="2.13156">
        <ele>162</ele>
        <time>2019-05-12T06:56:38.000Z</time>
      </trkpt>
      <trkpt lat="48.78758" lon="2.13146">
        <ele>162</ele>
        <time>2019-05-12T06:56:40.000Z</time>
      </trkpt>
      <trkpt lat="48.78758" lon="2.13139">
        <ele>162</ele>
        <time>2019-05-12T06:56:42.000Z</time>
      </trkpt>
      <trkpt lat="48.78758" lon="2.13139">
        <ele>162</ele>
        <time>2019-05-12T06:56:44.000Z</time>
      </trkpt>
      <trkpt lat="48.78758" lon="2.13139">
        <ele>162</ele>
        <time>2019-05-12T06:56:46.000Z</time>
      </trkpt>
      <trkpt lat="48.78758" lon="2.13139">
        <ele>162</ele>
        <time>2019-05-12T06:56:48.000Z</time>
      </trkpt>
      <trkpt lat="48.78758" lon="2.13139">
        <ele>162</ele>
        <time>2019-05-12T06:56:50.000Z</time>
      </trkpt>
      <trkpt lat="48.78758" lon="2.13139">
        <ele>162</ele>
        <time>2019-05-12T06:56:52.000Z</time>
      </trkpt>
      <trkpt lat="48.78759" lon="2.13122">
        <ele>163</ele>
        <time>2019-05-12T06:56:58.000Z</time>
      </trkpt>
      <trkpt lat="48.7876" lon="2.13111">
        <ele>163</ele>
        <time>2019-05-12T06:57:00.000Z</time>
      </trkpt>
      <trkpt lat="48.78761" lon="2.13102">
        <ele>163</ele>
        <time>2019-05-12T06:57:04.000Z</time>
      </trkpt>
      <trkpt lat="48.78759" lon="2.13093">
        <ele>162</ele>
        <time>2019-05-12T06:57:08.000Z</time>
      </trkpt>
      <trkpt lat="48.78759" lon="2.13093">
        <ele>162</ele>
        <time>2019-05-12T06:57:10.000Z</time>
      </trkpt>
      <trkpt lat="48.78759" lon="2.13093">
        <ele>162</ele>
        <time>2019-05-12T06:57:12.000Z</time>
      </trkpt>
      <trkpt lat="48.78757" lon="2.13082">
        <ele>162</ele>
        <time>2019-05-12T06:57:16.000Z</time>
      </trkpt>
      <trkpt lat="48.78756" lon="2.13075">
        <ele>162</ele>
        <time>2019-05-12T06:57:18.000Z</time>
      </trkpt>
      <trkpt lat="48.78754" lon="2.13066">
        <ele>163</ele>
        <time>2019-05-12T06:57:22.000Z</time>
      </trkpt>
      <trkpt lat="48.78754" lon="2.13066">
        <ele>163</ele>
        <time>2019-05-12T06:57:24.000Z</time>
      </trkpt>
      <trkpt lat="48.78754" lon="2.13066">
        <ele>163</ele>
        <time>2019-05-12T06:57:26.000Z</time>
      </trkpt>
      <trkpt lat="48.78753" lon="2.13053">
        <ele>163</ele>
        <time>2019-05-12T06:57:32.000Z</time>
      </trkpt>
      <trkpt lat="48.78753" lon="2.13044">
        <ele>164</ele>
        <time>2019-05-12T06:57:34.000Z</time>
      </trkpt>
      <trkpt lat="48.78753" lon="2.13044">
        <ele>164</ele>
        <time>2019-05-12T06:57:36.000Z</time>
      </trkpt>
      <trkpt lat="48.78753" lon="2.13044">
        <ele>164</ele>
        <time>2019-05-12T06:57:38.000Z</time>
      </trkpt>
      <trkpt lat="48.78753" lon="2.13044">
        <ele>164</ele>
        <time>2019-05-12T06:57:40.000Z</time>
      </trkpt>
      <trkpt lat="48.78753" lon="2.13044">
        <ele>164</ele>
        <time>2019-05-12T06:57:44.000Z</time>
      </trkpt>
      <trkpt lat="48.78753" lon="2.13044">
        <ele>164</ele>
        <time>2019-05-12T06:57:46.000Z</time>
      </trkpt>
      <trkpt lat="48.78753" lon="2.13044">
        <ele>164</ele>
        <time>2019-05-12T06:57:49.000Z</time>
      </trkpt>
      <trkpt lat="48.78754" lon="2.13022">
        <ele>163</ele>
        <time>2019-05-12T06:57:51.000Z</time>
      </trkpt>
      <trkpt lat="48.78755" lon="2.1301">
        <ele>162</ele>
        <time>2019-05-12T06:57:53.000Z</time>
      </trkpt>
      <trkpt lat="48.78754" lon="2.13">
        <ele>162</ele>
        <time>2019-05-12T06:57:57.000Z</time>
      </trkpt>
      <trkpt lat="48.78751" lon="2.12988">
        <ele>162</ele>
        <time>2019-05-12T06:58:03.000Z</time>
      </trkpt>
      <trkpt lat="48.78751" lon="2.12988">
        <ele>162</ele>
        <time>2019-05-12T06:58:07.000Z</time>
      </trkpt>
      <trkpt lat="48.78751" lon="2.12988">
        <ele>162</ele>
        <time>2019-05-12T06:58:09.000Z</time>
      </trkpt>
      <trkpt lat="48.78751" lon="2.12988">
        <ele>162</ele>
        <time>2019-05-12T06:58:13.000Z</time>
      </trkpt>
      <trkpt lat="48.78751" lon="2.12988">
        <ele>162</ele>
        <time>2019-05-12T06:58:17.000Z</time>
      </trkpt>
      <trkpt lat="48.78748" lon="2.12967">
        <ele>160</ele>
        <time>2019-05-12T06:58:21.000Z</time>
      </trkpt>
      <trkpt lat="48.78746" lon="2.12955">
        <ele>160</ele>
        <time>2019-05-12T06:58:23.000Z</time>
      </trkpt>
      <trkpt lat="48.78746" lon="2.12955">
        <ele>160</ele>
        <time>2019-05-12T06:58:27.000Z</time>
      </trkpt>
      <trkpt lat="48.78746" lon="2.12955">
        <ele>160</ele>
        <time>2019-05-12T06:58:29.000Z</time>
      </trkpt>
      <trkpt lat="48.78746" lon="2.12955">
        <ele>160</ele>
        <time>2019-05-12T06:58:31.000Z</time>
      </trkpt>
      <trkpt lat="48.78746" lon="2.12955">
        <ele>160</ele>
        <time>2019-05-12T06:58:33.000Z</time>
      </trkpt>
      <trkpt lat="48.78734" lon="2.1294">
        <ele>160</ele>
        <time>2019-05-12T06:58:49.000Z</time>
      </trkpt>
      <trkpt lat="48.78734" lon="2.1294">
        <ele>160</ele>
        <time>2019-05-12T06:58:51.000Z</time>
      </trkpt>
      <trkpt lat="48.78734" lon="2.1294">
        <ele>160</ele>
        <time>2019-05-12T06:58:53.000Z</time>
      </trkpt>
      <trkpt lat="48.78722" lon="2.1293">
        <ele>160</ele>
        <time>2019-05-12T06:59:01.000Z</time>
      </trkpt>
      <trkpt lat="48.78714" lon="2.12924">
        <ele>160</ele>
        <time>2019-05-12T06:59:03.000Z</time>
      </trkpt>
      <trkpt lat="48.78709" lon="2.1292">
        <ele>160</ele>
        <time>2019-05-12T06:59:05.000Z</time>
      </trkpt>
      <trkpt lat="48.78709" lon="2.1292">
        <ele>160</ele>
        <time>2019-05-12T06:59:07.000Z</time>
      </trkpt>
      <trkpt lat="48.78709" lon="2.1292">
        <ele>160</ele>
        <time>2019-05-12T06:59:09.000Z</time>
      </trkpt>
      <trkpt lat="48.78709" lon="2.1292">
        <ele>160</ele>
        <time>2019-05-12T06:59:11.000Z</time>
      </trkpt>
      <trkpt lat="48.78705" lon="2.12916">
        <ele>162</ele>
        <time>2019-05-12T06:59:13.000Z</time>
      </trkpt>
      <trkpt lat="48.787" lon="2.12912">
        <ele>162</ele>
        <time>2019-05-12T06:59:17.000Z</time>
      </trkpt>
      <trkpt lat="48.78695" lon="2.12909">
        <ele>162</ele>
        <time>2019-05-12T06:59:21.000Z</time>
      </trkpt>
      <trkpt lat="48.7869" lon="2.12906">
        <ele>161</ele>
        <time>2019-05-12T06:59:23.000Z</time>
      </trkpt>
      <trkpt lat="48.7869" lon="2.12906">
        <ele>161</ele>
        <time>2019-05-12T06:59:25.000Z</time>
      </trkpt>
      <trkpt lat="48.7869" lon="2.12906">
        <ele>161</ele>
        <time>2019-05-12T06:59:27.000Z</time>
      </trkpt>
      <trkpt lat="48.7869" lon="2.12906">
        <ele>161</ele>
        <time>2019-05-12T06:59:29.000Z</time>
      </trkpt>
      <trkpt lat="48.78679" lon="2.129">
        <ele>161</ele>
        <time>2019-05-12T06:59:39.000Z</time>
      </trkpt>
      <trkpt lat="48.78671" lon="2.12896">
        <ele>161</ele>
        <time>2019-05-12T06:59:41.000Z</time>
      </trkpt>
      <trkpt lat="48.78666" lon="2.12894">
        <ele>163</ele>
        <time>2019-05-12T06:59:43.000Z</time>
      </trkpt>
      <trkpt lat="48.78666" lon="2.12894">
        <ele>163</ele>
        <time>2019-05-12T06:59:45.000Z</time>
      </trkpt>
      <trkpt lat="48.78666" lon="2.12894">
        <ele>163</ele>
        <time>2019-05-12T06:59:47.000Z</time>
      </trkpt>
      <trkpt lat="48.78666" lon="2.12894">
        <ele>163</ele>
        <time>2019-05-12T06:59:49.000Z</time>
      </trkpt>
      <trkpt lat="48.78666" lon="2.12894">
        <ele>163</ele>
        <time>2019-05-12T06:59:55.000Z</time>
      </trkpt>
      <trkpt lat="48.78666" lon="2.12894">
        <ele>163</ele>
        <time>2019-05-12T07:00:03.000Z</time>
      </trkpt>
      <trkpt lat="48.78666" lon="2.12894">
        <ele>163</ele>
        <time>2019-05-12T07:00:05.000Z</time>
      </trkpt>
      <trkpt lat="48.78666" lon="2.12894">
        <ele>163</ele>
        <time>2019-05-12T07:00:07.000Z</time>
      </trkpt>
      <trkpt lat="48.78639" lon="2.12883">
        <ele>165</ele>
        <time>2019-05-12T07:00:29.000Z</time>
      </trkpt>
      <trkpt lat="48.78625" lon="2.12876">
        <ele>166</ele>
        <time>2019-05-12T07:00:31.000Z</time>
      </trkpt>
      <trkpt lat="48.78616" lon="2.12872">
        <ele>167</ele>
        <time>2019-05-12T07:00:33.000Z</time>
      </trkpt>
      <trkpt lat="48.78611" lon="2.1287">
        <ele>167</ele>
        <time>2019-05-12T07:00:35.000Z</time>
      </trkpt>
      <trkpt lat="48.78611" lon="2.1287">
        <ele>167</ele>
        <time>2019-05-12T07:00:37.000Z</time>
      </trkpt>
      <trkpt lat="48.78611" lon="2.1287">
        <ele>167</ele>
        <time>2019-05-12T07:00:39.000Z</time>
      </trkpt>
      <trkpt lat="48.78611" lon="2.1287">
        <ele>167</ele>
        <time>2019-05-12T07:00:41.000Z</time>
      </trkpt>
      <trkpt lat="48.78611" lon="2.1287">
        <ele>167</ele>
        <time>2019-05-12T07:00:43.000Z</time>
      </trkpt>
      <trkpt lat="48.78598" lon="2.12865">
        <ele>168</ele>
        <time>2019-05-12T07:01:01.000Z</time>
      </trkpt>
      <trkpt lat="48.78591" lon="2.12862">
        <ele>168</ele>
        <time>2019-05-12T07:01:03.000Z</time>
      </trkpt>
      <trkpt lat="48.78585" lon="2.1286">
        <ele>169</ele>
        <time>2019-05-12T07:01:05.000Z</time>
      </trkpt>
      <trkpt lat="48.78585" lon="2.1286">
        <ele>169</ele>
        <time>2019-05-12T07:01:07.000Z</time>
      </trkpt>
      <trkpt lat="48.7858" lon="2.12857">
        <ele>173</ele>
        <time>2019-05-12T07:01:09.000Z</time>
      </trkpt>
      <trkpt lat="48.7858" lon="2.12857">
        <ele>173</ele>
        <time>2019-05-12T07:01:11.000Z</time>
      </trkpt>
      <trkpt lat="48.7858" lon="2.12857">
        <ele>173</ele>
        <time>2019-05-12T07:01:13.000Z</time>
      </trkpt>
      <trkpt lat="48.78576" lon="2.12855">
        <ele>173</ele>
        <time>2019-05-12T07:01:15.000Z</time>
      </trkpt>
      <trkpt lat="48.78576" lon="2.12855">
        <ele>173</ele>
        <time>2019-05-12T07:01:17.000Z</time>
      </trkpt>
      <trkpt lat="48.78569" lon="2.12852">
        <ele>173</ele>
        <time>2019-05-12T07:01:21.000Z</time>
      </trkpt>
      <trkpt lat="48.78564" lon="2.1285">
        <ele>173</ele>
        <time>2019-05-12T07:01:23.000Z</time>
      </trkpt>
      <trkpt lat="48.78564" lon="2.1285">
        <ele>173</ele>
        <time>2019-05-12T07:01:25.000Z</time>
      </trkpt>
      <trkpt lat="48.78564" lon="2.1285">
        <ele>173</ele>
        <time>2019-05-12T07:01:27.000Z</time>
      </trkpt>
      <trkpt lat="48.78558" lon="2.12847">
        <ele>174</ele>
        <time>2019-05-12T07:01:29.000Z</time>
      </trkpt>
      <trkpt lat="48.78554" lon="2.12845">
        <ele>174</ele>
        <time>2019-05-12T07:01:31.000Z</time>
      </trkpt>
      <trkpt lat="48.78554" lon="2.12845">
        <ele>174</ele>
        <time>2019-05-12T07:01:33.000Z</time>
      </trkpt>
      <trkpt lat="48.78548" lon="2.12843">
        <ele>174</ele>
        <time>2019-05-12T07:01:35.000Z</time>
      </trkpt>
      <trkpt lat="48.78543" lon="2.12841">
        <ele>174</ele>
        <time>2019-05-12T07:01:39.000Z</time>
      </trkpt>
      <trkpt lat="48.78543" lon="2.12841">
        <ele>174</ele>
        <time>2019-05-12T07:01:41.000Z</time>
      </trkpt>
      <trkpt lat="48.78543" lon="2.12841">
        <ele>174</ele>
        <time>2019-05-12T07:01:43.000Z</time>
      </trkpt>
      <trkpt lat="48.78543" lon="2.12841">
        <ele>174</ele>
        <time>2019-05-12T07:01:45.000Z</time>
      </trkpt>
      <trkpt lat="48.78543" lon="2.12841">
        <ele>174</ele>
        <time>2019-05-12T07:01:47.000Z</time>
      </trkpt>
      <trkpt lat="48.78543" lon="2.12841">
        <ele>174</ele>
        <time>2019-05-12T07:01:49.000Z</time>
      </trkpt>
      <trkpt lat="48.78543" lon="2.12841">
        <ele>174</ele>
        <time>2019-05-12T07:01:51.000Z</time>
      </trkpt>
      <trkpt lat="48.78525" lon="2.12836">
        <ele>175</ele>
        <time>2019-05-12T07:02:04.000Z</time>
      </trkpt>
      <trkpt lat="48.78515" lon="2.12833">
        <ele>177</ele>
        <time>2019-05-12T07:02:06.000Z</time>
      </trkpt>
      <trkpt lat="48.78509" lon="2.12831">
        <ele>177</ele>
        <time>2019-05-12T07:02:08.000Z</time>
      </trkpt>
      <trkpt lat="48.78509" lon="2.12831">
        <ele>177</ele>
        <time>2019-05-12T07:02:10.000Z</time>
      </trkpt>
      <trkpt lat="48.78509" lon="2.12831">
        <ele>177</ele>
        <time>2019-05-12T07:02:12.000Z</time>
      </trkpt>
      <trkpt lat="48.78509" lon="2.12831">
        <ele>177</ele>
        <time>2019-05-12T07:02:15.000Z</time>
      </trkpt>
      <trkpt lat="48.78501" lon="2.12825">
        <ele>177</ele>
        <time>2019-05-12T07:02:23.000Z</time>
      </trkpt>
      <trkpt lat="48.78496" lon="2.12822">
        <ele>178</ele>
        <time>2019-05-12T07:02:25.000Z</time>
      </trkpt>
      <trkpt lat="48.78496" lon="2.12822">
        <ele>178</ele>
        <time>2019-05-12T07:02:27.000Z</time>
      </trkpt>
      <trkpt lat="48.7849" lon="2.12819">
        <ele>178</ele>
        <time>2019-05-12T07:02:29.000Z</time>
      </trkpt>
      <trkpt lat="48.78486" lon="2.12816">
        <ele>178</ele>
        <time>2019-05-12T07:02:31.000Z</time>
      </trkpt>
      <trkpt lat="48.78486" lon="2.12816">
        <ele>178</ele>
        <time>2019-05-12T07:02:33.000Z</time>
      </trkpt>
      <trkpt lat="48.78486" lon="2.12816">
        <ele>178</ele>
        <time>2019-05-12T07:02:35.000Z</time>
      </trkpt>
      <trkpt lat="48.78478" lon="2.12812">
        <ele>178</ele>
        <time>2019-05-12T07:02:39.000Z</time>
      </trkpt>
      <trkpt lat="48.78473" lon="2.1281">
        <ele>178</ele>
        <time>2019-05-12T07:02:41.000Z</time>
      </trkpt>
      <trkpt lat="48.78466" lon="2.12809">
        <ele>178</ele>
        <time>2019-05-12T07:02:45.000Z</time>
      </trkpt>
      <trkpt lat="48.78461" lon="2.12807">
        <ele>178</ele>
        <time>2019-05-12T07:02:47.000Z</time>
      </trkpt>
      <trkpt lat="48.78461" lon="2.12807">
        <ele>178</ele>
        <time>2019-05-12T07:02:49.000Z</time>
      </trkpt>
      <trkpt lat="48.78461" lon="2.12807">
        <ele>178</ele>
        <time>2019-05-12T07:02:51.000Z</time>
      </trkpt>
      <trkpt lat="48.78461" lon="2.12807">
        <ele>178</ele>
        <time>2019-05-12T07:02:53.000Z</time>
      </trkpt>
      <trkpt lat="48.78461" lon="2.12807">
        <ele>178</ele>
        <time>2019-05-12T07:02:55.000Z</time>
      </trkpt>
      <trkpt lat="48.78461" lon="2.12807">
        <ele>178</ele>
        <time>2019-05-12T07:02:57.000Z</time>
      </trkpt>
      <trkpt lat="48.78444" lon="2.12797">
        <ele>179</ele>
        <time>2019-05-12T07:03:19.000Z</time>
      </trkpt>
      <trkpt lat="48.78433" lon="2.12791">
        <ele>179</ele>
        <time>2019-05-12T07:03:21.000Z</time>
      </trkpt>
      <trkpt lat="48.78427" lon="2.12787">
        <ele>179</ele>
        <time>2019-05-12T07:03:23.000Z</time>
      </trkpt>
      <trkpt lat="48.78423" lon="2.12783">
        <ele>179</ele>
        <time>2019-05-12T07:03:25.000Z</time>
      </trkpt>
      <trkpt lat="48.78419" lon="2.12779">
        <ele>179</ele>
        <time>2019-05-12T07:03:29.000Z</time>
      </trkpt>
      <trkpt lat="48.78419" lon="2.12779">
        <ele>179</ele>
        <time>2019-05-12T07:03:31.000Z</time>
      </trkpt>
      <trkpt lat="48.78419" lon="2.12779">
        <ele>179</ele>
        <time>2019-05-12T07:03:33.000Z</time>
      </trkpt>
      <trkpt lat="48.78413" lon="2.12775">
        <ele>180</ele>
        <time>2019-05-12T07:03:37.000Z</time>
      </trkpt>
      <trkpt lat="48.78408" lon="2.12773">
        <ele>180</ele>
        <time>2019-05-12T07:03:39.000Z</time>
      </trkpt>
      <trkpt lat="48.78404" lon="2.1277">
        <ele>180</ele>
        <time>2019-05-12T07:03:41.000Z</time>
      </trkpt>
      <trkpt lat="48.78404" lon="2.1277">
        <ele>180</ele>
        <time>2019-05-12T07:03:43.000Z</time>
      </trkpt>
      <trkpt lat="48.78399" lon="2.12769">
        <ele>180</ele>
        <time>2019-05-12T07:03:45.000Z</time>
      </trkpt>
      <trkpt lat="48.78399" lon="2.12769">
        <ele>180</ele>
        <time>2019-05-12T07:03:47.000Z</time>
      </trkpt>
      <trkpt lat="48.78399" lon="2.12769">
        <ele>180</ele>
        <time>2019-05-12T07:03:49.000Z</time>
      </trkpt>
      <trkpt lat="48.78387" lon="2.12763">
        <ele>180</ele>
        <time>2019-05-12T07:04:03.000Z</time>
      </trkpt>
      <trkpt lat="48.78379" lon="2.12759">
        <ele>180</ele>
        <time>2019-05-12T07:04:05.000Z</time>
      </trkpt>
      <trkpt lat="48.78374" lon="2.12755">
        <ele>180</ele>
        <time>2019-05-12T07:04:07.000Z</time>
      </trkpt>
      <trkpt lat="48.7837" lon="2.12751">
        <ele>180</ele>
        <time>2019-05-12T07:04:09.000Z</time>
      </trkpt>
      <trkpt lat="48.78365" lon="2.12745">
        <ele>180</ele>
        <time>2019-05-12T07:04:13.000Z</time>
      </trkpt>
      <trkpt lat="48.78361" lon="2.1274">
        <ele>181</ele>
        <time>2019-05-12T07:04:15.000Z</time>
      </trkpt>
      <trkpt lat="48.78361" lon="2.1274">
        <ele>181</ele>
        <time>2019-05-12T07:04:17.000Z</time>
      </trkpt>
      <trkpt lat="48.78361" lon="2.1274">
        <ele>181</ele>
        <time>2019-05-12T07:04:19.000Z</time>
      </trkpt>
      <trkpt lat="48.78361" lon="2.1274">
        <ele>181</ele>
        <time>2019-05-12T07:04:21.000Z</time>
      </trkpt>
      <trkpt lat="48.78361" lon="2.1274">
        <ele>181</ele>
        <time>2019-05-12T07:04:23.000Z</time>
      </trkpt>
      <trkpt lat="48.78361" lon="2.1274">
        <ele>181</ele>
        <time>2019-05-12T07:04:27.000Z</time>
      </trkpt>
      <trkpt lat="48.78361" lon="2.1274">
        <ele>181</ele>
        <time>2019-05-12T07:04:29.000Z</time>
      </trkpt>
      <trkpt lat="48.78361" lon="2.1274">
        <ele>181</ele>
        <time>2019-05-12T07:04:31.000Z</time>
      </trkpt>
      <trkpt lat="48.78349" lon="2.12721">
        <ele>181</ele>
        <time>2019-05-12T07:04:38.000Z</time>
      </trkpt>
      <trkpt lat="48.78343" lon="2.1271">
        <ele>181</ele>
        <time>2019-05-12T07:04:39.000Z</time>
      </trkpt>
      <trkpt lat="48.78343" lon="2.1271">
        <ele>181</ele>
        <time>2019-05-12T07:04:41.000Z</time>
      </trkpt>
      <trkpt lat="48.78337" lon="2.127">
        <ele>181</ele>
        <time>2019-05-12T07:04:45.000Z</time>
      </trkpt>
      <trkpt lat="48.78333" lon="2.12692">
        <ele>180</ele>
        <time>2019-05-12T07:04:49.000Z</time>
      </trkpt>
      <trkpt lat="48.7833" lon="2.12686">
        <ele>180</ele>
        <time>2019-05-12T07:04:51.000Z</time>
      </trkpt>
      <trkpt lat="48.7833" lon="2.12686">
        <ele>180</ele>
        <time>2019-05-12T07:04:53.000Z</time>
      </trkpt>
      <trkpt lat="48.7833" lon="2.12686">
        <ele>180</ele>
        <time>2019-05-12T07:04:55.000Z</time>
      </trkpt>
      <trkpt lat="48.78326" lon="2.12678">
        <ele>181</ele>
        <time>2019-05-12T07:04:59.000Z</time>
      </trkpt>
      <trkpt lat="48.78326" lon="2.12678">
        <ele>181</ele>
        <time>2019-05-12T07:05:03.000Z</time>
      </trkpt>
      <trkpt lat="48.7832" lon="2.12662">
        <ele>180</ele>
        <time>2019-05-12T07:05:15.000Z</time>
      </trkpt>
      <trkpt lat="48.78315" lon="2.12653">
        <ele>180</ele>
        <time>2019-05-12T07:05:17.000Z</time>
      </trkpt>
      <trkpt lat="48.78315" lon="2.12653">
        <ele>180</ele>
        <time>2019-05-12T07:05:19.000Z</time>
      </trkpt>
      <trkpt lat="48.7831" lon="2.12643">
        <ele>180</ele>
        <time>2019-05-12T07:05:21.000Z</time>
      </trkpt>
      <trkpt lat="48.78306" lon="2.12636">
        <ele>180</ele>
        <time>2019-05-12T07:05:23.000Z</time>
      </trkpt>
      <trkpt lat="48.78301" lon="2.12628">
        <ele>180</ele>
        <time>2019-05-12T07:05:27.000Z</time>
      </trkpt>
      <trkpt lat="48.78301" lon="2.12628">
        <ele>180</ele>
        <time>2019-05-12T07:05:29.000Z</time>
      </trkpt>
      <trkpt lat="48.78301" lon="2.12628">
        <ele>180</ele>
        <time>2019-05-12T07:05:31.000Z</time>
      </trkpt>
      <trkpt lat="48.78301" lon="2.12628">
        <ele>180</ele>
        <time>2019-05-12T07:05:33.000Z</time>
      </trkpt>
      <trkpt lat="48.78301" lon="2.12628">
        <ele>180</ele>
        <time>2019-05-12T07:05:35.000Z</time>
      </trkpt>
      <trkpt lat="48.78301" lon="2.12628">
        <ele>180</ele>
        <time>2019-05-12T07:05:37.000Z</time>
      </trkpt>
      <trkpt lat="48.78301" lon="2.12628">
        <ele>180</ele>
        <time>2019-05-12T07:05:39.000Z</time>
      </trkpt>
      <trkpt lat="48.78301" lon="2.12628">
        <ele>180</ele>
        <time>2019-05-12T07:05:41.000Z</time>
      </trkpt>
      <trkpt lat="48.78292" lon="2.12612">
        <ele>180</ele>
        <time>2019-05-12T07:05:45.000Z</time>
      </trkpt>
      <trkpt lat="48.78287" lon="2.12602">
        <ele>180</ele>
        <time>2019-05-12T07:05:47.000Z</time>
      </trkpt>
      <trkpt lat="48.78287" lon="2.12602">
        <ele>180</ele>
        <time>2019-05-12T07:05:49.000Z</time>
      </trkpt>
      <trkpt lat="48.78287" lon="2.12602">
        <ele>180</ele>
        <time>2019-05-12T07:05:51.000Z</time>
      </trkpt>
      <trkpt lat="48.78273" lon="2.12579">
        <ele>179</ele>
        <time>2019-05-12T07:06:17.000Z</time>
      </trkpt>
      <trkpt lat="48.78265" lon="2.12565">
        <ele>179</ele>
        <time>2019-05-12T07:06:19.000Z</time>
      </trkpt>
      <trkpt lat="48.7826" lon="2.12556">
        <ele>179</ele>
        <time>2019-05-12T07:06:21.000Z</time>
      </trkpt>
      <trkpt lat="48.7826" lon="2.12556">
        <ele>179</ele>
        <time>2019-05-12T07:06:23.000Z</time>
      </trkpt>
      <trkpt lat="48.7826" lon="2.12556">
        <ele>179</ele>
        <time>2019-05-12T07:06:25.000Z</time>
      </trkpt>
      <trkpt lat="48.7826" lon="2.12556">
        <ele>179</ele>
        <time>2019-05-12T07:06:27.000Z</time>
      </trkpt>
      <trkpt lat="48.78251" lon="2.12541">
        <ele>178</ele>
        <time>2019-05-12T07:06:33.000Z</time>
      </trkpt>
      <trkpt lat="48.78246" lon="2.12531">
        <ele>178</ele>
        <time>2019-05-12T07:06:35.000Z</time>
      </trkpt>
      <trkpt lat="48.78246" lon="2.12531">
        <ele>178</ele>
        <time>2019-05-12T07:06:37.000Z</time>
      </trkpt>
      <trkpt lat="48.78246" lon="2.12531">
        <ele>178</ele>
        <time>2019-05-12T07:06:39.000Z</time>
      </trkpt>
      <trkpt lat="48.78246" lon="2.12531">
        <ele>178</ele>
        <time>2019-05-12T07:06:41.000Z</time>
      </trkpt>
      <trkpt lat="48.78242" lon="2.12525">
        <ele>178</ele>
        <time>2019-05-12T07:06:43.000Z</time>
      </trkpt>
      <trkpt lat="48.78239" lon="2.12519">
        <ele>177</ele>
        <time>2019-05-12T07:06:45.000Z</time>
      </trkpt>
      <trkpt lat="48.78234" lon="2.12512">
        <ele>177</ele>
        <time>2019-05-12T07:06:51.000Z</time>
      </trkpt>
      <trkpt lat="48.78234" lon="2.12512">
        <ele>177</ele>
        <time>2019-05-12T07:06:53.000Z</time>
      </trkpt>
      <trkpt lat="48.78234" lon="2.12512">
        <ele>177</ele>
        <time>2019-05-12T07:06:55.000Z</time>
      </trkpt>
      <trkpt lat="48.78234" lon="2.12512">
        <ele>177</ele>
        <time>2019-05-12T07:06:59.000Z</time>
      </trkpt>
      <trkpt lat="48.78227" lon="2.12497">
        <ele>177</ele>
        <time>2019-05-12T07:07:05.000Z</time>
      </trkpt>
      <trkpt lat="48.78227" lon="2.12497">
        <ele>177</ele>
        <time>2019-05-12T07:07:07.000Z</time>
      </trkpt>
      <trkpt lat="48.7822" lon="2.12465">
        <ele>177</ele>
        <time>2019-05-12T07:07:38.000Z</time>
      </trkpt>
      <trkpt lat="48.78215" lon="2.12448">
        <ele>177</ele>
        <time>2019-05-12T07:07:40.000Z</time>
      </trkpt>
      <trkpt lat="48.78212" lon="2.12437">
        <ele>177</ele>
        <time>2019-05-12T07:07:42.000Z</time>
      </trkpt>
      <trkpt lat="48.78212" lon="2.12437">
        <ele>177</ele>
        <time>2019-05-12T07:07:44.000Z</time>
      </trkpt>
      <trkpt lat="48.78209" lon="2.12427">
        <ele>177</ele>
        <time>2019-05-12T07:07:46.000Z</time>
      </trkpt>
      <trkpt lat="48.78206" lon="2.12419">
        <ele>177</ele>
        <time>2019-05-12T07:07:48.000Z</time>
      </trkpt>
      <trkpt lat="48.78204" lon="2.12412">
        <ele>176</ele>
        <time>2019-05-12T07:07:50.000Z</time>
      </trkpt>
      <trkpt lat="48.78204" lon="2.12412">
        <ele>176</ele>
        <time>2019-05-12T07:07:52.000Z</time>
      </trkpt>
      <trkpt lat="48.78204" lon="2.12412">
        <ele>176</ele>
        <time>2019-05-12T07:07:54.000Z</time>
      </trkpt>
      <trkpt lat="48.78204" lon="2.12412">
        <ele>176</ele>
        <time>2019-05-12T07:07:56.000Z</time>
      </trkpt>
      <trkpt lat="48.78204" lon="2.12412">
        <ele>176</ele>
        <time>2019-05-12T07:07:58.000Z</time>
      </trkpt>
      <trkpt lat="48.78199" lon="2.12399">
        <ele>176</ele>
        <time>2019-05-12T07:08:04.000Z</time>
      </trkpt>
      <trkpt lat="48.78199" lon="2.12399">
        <ele>176</ele>
        <time>2019-05-12T07:08:06.000Z</time>
      </trkpt>
      <trkpt lat="48.78191" lon="2.1239">
        <ele>176</ele>
        <time>2019-05-12T07:08:10.000Z</time>
      </trkpt>
      <trkpt lat="48.78186" lon="2.12385">
        <ele>176</ele>
        <time>2019-05-12T07:08:12.000Z</time>
      </trkpt>
      <trkpt lat="48.78186" lon="2.12385">
        <ele>176</ele>
        <time>2019-05-12T07:08:14.000Z</time>
      </trkpt>
      <trkpt lat="48.7818" lon="2.12381">
        <ele>176</ele>
        <time>2019-05-12T07:08:16.000Z</time>
      </trkpt>
      <trkpt lat="48.78175" lon="2.12378">
        <ele>176</ele>
        <time>2019-05-12T07:08:18.000Z</time>
      </trkpt>
      <trkpt lat="48.7817" lon="2.12375">
        <ele>176</ele>
        <time>2019-05-12T07:08:20.000Z</time>
      </trkpt>
      <trkpt lat="48.7817" lon="2.12375">
        <ele>176</ele>
        <time>2019-05-12T07:08:22.000Z</time>
      </trkpt>
      <trkpt lat="48.7817" lon="2.12375">
        <ele>176</ele>
        <time>2019-05-12T07:08:24.000Z</time>
      </trkpt>
      <trkpt lat="48.7817" lon="2.12375">
        <ele>176</ele>
        <time>2019-05-12T07:08:26.000Z</time>
      </trkpt>
      <trkpt lat="48.7817" lon="2.12375">
        <ele>176</ele>
        <time>2019-05-12T07:08:28.000Z</time>
      </trkpt>
      <trkpt lat="48.7817" lon="2.12375">
        <ele>176</ele>
        <time>2019-05-12T07:08:30.000Z</time>
      </trkpt>
      <trkpt lat="48.7817" lon="2.12375">
        <ele>176</ele>
        <time>2019-05-12T07:08:38.000Z</time>
      </trkpt>
      <trkpt lat="48.7817" lon="2.12375">
        <ele>176</ele>
        <time>2019-05-12T07:08:40.000Z</time>
      </trkpt>
      <trkpt lat="48.7817" lon="2.12375">
        <ele>176</ele>
        <time>2019-05-12T07:08:42.000Z</time>
      </trkpt>
      <trkpt lat="48.7817" lon="2.12375">
        <ele>176</ele>
        <time>2019-05-12T07:08:46.000Z</time>
      </trkpt>
      <trkpt lat="48.78157" lon="2.12361">
        <ele>172</ele>
        <time>2019-05-12T07:08:48.000Z</time>
      </trkpt>
      <trkpt lat="48.78148" lon="2.12351">
        <ele>172</ele>
        <time>2019-05-12T07:08:50.000Z</time>
      </trkpt>
      <trkpt lat="48.78143" lon="2.12344">
        <ele>172</ele>
        <time>2019-05-12T07:08:52.000Z</time>
      </trkpt>
      <trkpt lat="48.78139" lon="2.12339">
        <ele>172</ele>
        <time>2019-05-12T07:08:54.000Z</time>
      </trkpt>
      <trkpt lat="48.78139" lon="2.12339">
        <ele>172</ele>
        <time>2019-05-12T07:08:56.000Z</time>
      </trkpt>
      <trkpt lat="48.78139" lon="2.12339">
        <ele>172</ele>
        <time>2019-05-12T07:08:58.000Z</time>
      </trkpt>
      <trkpt lat="48.78139" lon="2.12339">
        <ele>172</ele>
        <time>2019-05-12T07:09:00.000Z</time>
      </trkpt>
      <trkpt lat="48.78139" lon="2.12339">
        <ele>172</ele>
        <time>2019-05-12T07:09:02.000Z</time>
      </trkpt>
      <trkpt lat="48.78139" lon="2.12339">
        <ele>172</ele>
        <time>2019-05-12T07:09:04.000Z</time>
      </trkpt>
      <trkpt lat="48.78139" lon="2.12339">
        <ele>172</ele>
        <time>2019-05-12T07:09:06.000Z</time>
      </trkpt>
      <trkpt lat="48.78139" lon="2.12339">
        <ele>172</ele>
        <time>2019-05-12T07:09:08.000Z</time>
      </trkpt>
      <trkpt lat="48.78139" lon="2.12339">
        <ele>172</ele>
        <time>2019-05-12T07:09:10.000Z</time>
      </trkpt>
      <trkpt lat="48.7812" lon="2.12334">
        <ele>170</ele>
        <time>2019-05-12T07:09:24.000Z</time>
      </trkpt>
      <trkpt lat="48.78109" lon="2.1233">
        <ele>170</ele>
        <time>2019-05-12T07:09:26.000Z</time>
      </trkpt>
      <trkpt lat="48.78102" lon="2.12328">
        <ele>170</ele>
        <time>2019-05-12T07:09:28.000Z</time>
      </trkpt>
      <trkpt lat="48.78102" lon="2.12328">
        <ele>170</ele>
        <time>2019-05-12T07:09:30.000Z</time>
      </trkpt>
      <trkpt lat="48.78088" lon="2.12323">
        <ele>169</ele>
        <time>2019-05-12T07:09:44.000Z</time>
      </trkpt>
      <trkpt lat="48.78088" lon="2.12323">
        <ele>169</ele>
        <time>2019-05-12T07:09:46.000Z</time>
      </trkpt>
      <trkpt lat="48.78077" lon="2.1232">
        <ele>166</ele>
        <time>2019-05-12T07:09:54.000Z</time>
      </trkpt>
      <trkpt lat="48.78069" lon="2.12319">
        <ele>166</ele>
        <time>2019-05-12T07:09:56.000Z</time>
      </trkpt>
      <trkpt lat="48.78063" lon="2.12317">
        <ele>166</ele>
        <time>2019-05-12T07:09:58.000Z</time>
      </trkpt>
      <trkpt lat="48.78057" lon="2.12315">
        <ele>166</ele>
        <time>2019-05-12T07:10:00.000Z</time>
      </trkpt>
      <trkpt lat="48.78057" lon="2.12315">
        <ele>166</ele>
        <time>2019-05-12T07:10:02.000Z</time>
      </trkpt>
      <trkpt lat="48.78057" lon="2.12315">
        <ele>166</ele>
        <time>2019-05-12T07:10:04.000Z</time>
      </trkpt>
      <trkpt lat="48.78057" lon="2.12315">
        <ele>166</ele>
        <time>2019-05-12T07:10:06.000Z</time>
      </trkpt>
      <trkpt lat="48.78057" lon="2.12315">
        <ele>166</ele>
        <time>2019-05-12T07:10:08.000Z</time>
      </trkpt>
      <trkpt lat="48.78057" lon="2.12315">
        <ele>166</ele>
        <time>2019-05-12T07:10:10.000Z</time>
      </trkpt>
      <trkpt lat="48.78057" lon="2.12315">
        <ele>166</ele>
        <time>2019-05-12T07:10:12.000Z</time>
      </trkpt>
      <trkpt lat="48.78057" lon="2.12315">
        <ele>166</ele>
        <time>2019-05-12T07:10:14.000Z</time>
      </trkpt>
      <trkpt lat="48.78057" lon="2.12315">
        <ele>166</ele>
        <time>2019-05-12T07:10:16.000Z</time>
      </trkpt>
      <trkpt lat="48.78057" lon="2.12315">
        <ele>166</ele>
        <time>2019-05-12T07:10:18.000Z</time>
      </trkpt>
      <trkpt lat="48.78038" lon="2.12309">
        <ele>165</ele>
        <time>2019-05-12T07:10:32.000Z</time>
      </trkpt>
      <trkpt lat="48.78027" lon="2.12305">
        <ele>164</ele>
        <time>2019-05-12T07:10:34.000Z</time>
      </trkpt>
      <trkpt lat="48.78021" lon="2.12302">
        <ele>164</ele>
        <time>2019-05-12T07:10:36.000Z</time>
      </trkpt>
      <trkpt lat="48.78016" lon="2.12299">
        <ele>164</ele>
        <time>2019-05-12T07:10:38.000Z</time>
      </trkpt>
      <trkpt lat="48.78012" lon="2.12295">
        <ele>164</ele>
        <time>2019-05-12T07:10:42.000Z</time>
      </trkpt>
      <trkpt lat="48.78008" lon="2.12291">
        <ele>164</ele>
        <time>2019-05-12T07:10:46.000Z</time>
      </trkpt>
      <trkpt lat="48.78008" lon="2.12291">
        <ele>164</ele>
        <time>2019-05-12T07:10:50.000Z</time>
      </trkpt>
      <trkpt lat="48.78008" lon="2.12291">
        <ele>164</ele>
        <time>2019-05-12T07:10:52.000Z</time>
      </trkpt>
      <trkpt lat="48.78008" lon="2.12291">
        <ele>164</ele>
        <time>2019-05-12T07:10:54.000Z</time>
      </trkpt>
      <trkpt lat="48.78008" lon="2.12291">
        <ele>164</ele>
        <time>2019-05-12T07:10:56.000Z</time>
      </trkpt>
      <trkpt lat="48.78003" lon="2.12275">
        <ele>164</ele>
        <time>2019-05-12T07:11:14.000Z</time>
      </trkpt>
      <trkpt lat="48.78" lon="2.12264">
        <ele>164</ele>
        <time>2019-05-12T07:11:16.000Z</time>
      </trkpt>
      <trkpt lat="48.77998" lon="2.12257">
        <ele>162</ele>
        <time>2019-05-12T07:11:18.000Z</time>
      </trkpt>
      <trkpt lat="48.77998" lon="2.12257">
        <ele>162</ele>
        <time>2019-05-12T07:11:20.000Z</time>
      </trkpt>
      <trkpt lat="48.77995" lon="2.12247">
        <ele>163</ele>
        <time>2019-05-12T07:11:24.000Z</time>
      </trkpt>
      <trkpt lat="48.77995" lon="2.12247">
        <ele>163</ele>
        <time>2019-05-12T07:11:26.000Z</time>
      </trkpt>
      <trkpt lat="48.77995" lon="2.12247">
        <ele>163</ele>
        <time>2019-05-12T07:11:28.000Z</time>
      </trkpt>
      <trkpt lat="48.77995" lon="2.12247">
        <ele>163</ele>
        <time>2019-05-12T07:11:30.000Z</time>
      </trkpt>
      <trkpt lat="48.77995" lon="2.12247">
        <ele>163</ele>
        <time>2019-05-12T07:11:38.000Z</time>
      </trkpt>
      <trkpt lat="48.77995" lon="2.12247">
        <ele>163</ele>
        <time>2019-05-12T07:11:40.000Z</time>
      </trkpt>
      <trkpt lat="48.77984" lon="2.12228">
        <ele>161</ele>
        <time>2019-05-12T07:11:44.000Z</time>
      </trkpt>
      <trkpt lat="48.77977" lon="2.12218">
        <ele>160</ele>
        <time>2019-05-12T07:11:46.000Z</time>
      </trkpt>
      <trkpt lat="48.77972" lon="2.12213">
        <ele>160</ele>
        <time>2019-05-12T07:11:48.000Z</time>
      </trkpt>
      <trkpt lat="48.77972" lon="2.12213">
        <ele>160</ele>
        <time>2019-05-12T07:11:50.000Z</time>
      </trkpt>
      <trkpt lat="48.77972" lon="2.12213">
        <ele>160</ele>
        <time>2019-05-12T07:11:56.000Z</time>
      </trkpt>
      <trkpt lat="48.77966" lon="2.12209">
        <ele>160</ele>
        <time>2019-05-12T07:11:58.000Z</time>
      </trkpt>
      <trkpt lat="48.77962" lon="2.12206">
        <ele>159</ele>
        <time>2019-05-12T07:12:00.000Z</time>
      </trkpt>
      <trkpt lat="48.77957" lon="2.12202">
        <ele>159</ele>
        <time>2019-05-12T07:12:04.000Z</time>
      </trkpt>
      <trkpt lat="48.77951" lon="2.12198">
        <ele>159</ele>
        <time>2019-05-12T07:12:08.000Z</time>
      </trkpt>
      <trkpt lat="48.77947" lon="2.12195">
        <ele>159</ele>
        <time>2019-05-12T07:12:10.000Z</time>
      </trkpt>
      <trkpt lat="48.77947" lon="2.12195">
        <ele>159</ele>
        <time>2019-05-12T07:12:12.000Z</time>
      </trkpt>
      <trkpt lat="48.77947" lon="2.12195">
        <ele>159</ele>
        <time>2019-05-12T07:12:14.000Z</time>
      </trkpt>
      <trkpt lat="48.77942" lon="2.12192">
        <ele>158</ele>
        <time>2019-05-12T07:12:16.000Z</time>
      </trkpt>
      <trkpt lat="48.77937" lon="2.12189">
        <ele>158</ele>
        <time>2019-05-12T07:12:20.000Z</time>
      </trkpt>
      <trkpt lat="48.77937" lon="2.12189">
        <ele>158</ele>
        <time>2019-05-12T07:12:22.000Z</time>
      </trkpt>
      <trkpt lat="48.7793" lon="2.12186">
        <ele>158</ele>
        <time>2019-05-12T07:12:24.000Z</time>
      </trkpt>
      <trkpt lat="48.7793" lon="2.12186">
        <ele>158</ele>
        <time>2019-05-12T07:12:26.000Z</time>
      </trkpt>
      <trkpt lat="48.7793" lon="2.12186">
        <ele>158</ele>
        <time>2019-05-12T07:12:28.000Z</time>
      </trkpt>
      <trkpt lat="48.7793" lon="2.12186">
        <ele>158</ele>
        <time>2019-05-12T07:12:30.000Z</time>
      </trkpt>
      <trkpt lat="48.7793" lon="2.12186">
        <ele>158</ele>
        <time>2019-05-12T07:12:32.000Z</time>
      </trkpt>
      <trkpt lat="48.7793" lon="2.12186">
        <ele>158</ele>
        <time>2019-05-12T07:12:34.000Z</time>
      </trkpt>
      <trkpt lat="48.7793" lon="2.12186">
        <ele>158</ele>
        <time>2019-05-12T07:12:38.000Z</time>
      </trkpt>
      <trkpt lat="48.7793" lon="2.12186">
        <ele>158</ele>
        <time>2019-05-12T07:12:40.000Z</time>
      </trkpt>
      <trkpt lat="48.7793" lon="2.12186">
        <ele>158</ele>
        <time>2019-05-12T07:12:42.000Z</time>
      </trkpt>
      <trkpt lat="48.7793" lon="2.12186">
        <ele>158</ele>
        <time>2019-05-12T07:12:44.000Z</time>
      </trkpt>
      <trkpt lat="48.77914" lon="2.12173">
        <ele>153</ele>
        <time>2019-05-12T07:12:48.000Z</time>
      </trkpt>
      <trkpt lat="48.77905" lon="2.12165">
        <ele>152</ele>
        <time>2019-05-12T07:12:50.000Z</time>
      </trkpt>
      <trkpt lat="48.77899" lon="2.12159">
        <ele>151</ele>
        <time>2019-05-12T07:12:52.000Z</time>
      </trkpt>
      <trkpt lat="48.77899" lon="2.12159">
        <ele>151</ele>
        <time>2019-05-12T07:12:54.000Z</time>
      </trkpt>
      <trkpt lat="48.77899" lon="2.12159">
        <ele>151</ele>
        <time>2019-05-12T07:12:56.000Z</time>
      </trkpt>
      <trkpt lat="48.77892" lon="2.1215">
        <ele>149</ele>
        <time>2019-05-12T07:13:02.000Z</time>
      </trkpt>
      <trkpt lat="48.77888" lon="2.12143">
        <ele>148</ele>
        <time>2019-05-12T07:13:04.000Z</time>
      </trkpt>
      <trkpt lat="48.77884" lon="2.12138">
        <ele>148</ele>
        <time>2019-05-12T07:13:06.000Z</time>
      </trkpt>
      <trkpt lat="48.77884" lon="2.12138">
        <ele>148</ele>
        <time>2019-05-12T07:13:08.000Z</time>
      </trkpt>
      <trkpt lat="48.77884" lon="2.12138">
        <ele>148</ele>
        <time>2019-05-12T07:13:10.000Z</time>
      </trkpt>
      <trkpt lat="48.77884" lon="2.12138">
        <ele>148</ele>
        <time>2019-05-12T07:13:12.000Z</time>
      </trkpt>
      <trkpt lat="48.77884" lon="2.12138">
        <ele>148</ele>
        <time>2019-05-12T07:13:14.000Z</time>
      </trkpt>
      <trkpt lat="48.77884" lon="2.12138">
        <ele>148</ele>
        <time>2019-05-12T07:13:16.000Z</time>
      </trkpt>
      <trkpt lat="48.77884" lon="2.12138">
        <ele>148</ele>
        <time>2019-05-12T07:13:18.000Z</time>
      </trkpt>
      <trkpt lat="48.77878" lon="2.12124">
        <ele>147</ele>
        <time>2019-05-12T07:13:20.000Z</time>
      </trkpt>
      <trkpt lat="48.77878" lon="2.12124">
        <ele>147</ele>
        <time>2019-05-12T07:13:22.000Z</time>
      </trkpt>
      <trkpt lat="48.77878" lon="2.12124">
        <ele>147</ele>
        <time>2019-05-12T07:13:24.000Z</time>
      </trkpt>
      <trkpt lat="48.77878" lon="2.12124">
        <ele>147</ele>
        <time>2019-05-12T07:13:26.000Z</time>
      </trkpt>
      <trkpt lat="48.77878" lon="2.12124">
        <ele>147</ele>
        <time>2019-05-12T07:13:44.000Z</time>
      </trkpt>
      <trkpt lat="48.77878" lon="2.12124">
        <ele>147</ele>
        <time>2019-05-12T07:13:52.000Z</time>
      </trkpt>
      <trkpt lat="48.77866" lon="2.12082">
        <ele>145</ele>
        <time>2019-05-12T07:14:17.000Z</time>
      </trkpt>
      <trkpt lat="48.7786" lon="2.12059">
        <ele>144</ele>
        <time>2019-05-12T07:14:19.000Z</time>
      </trkpt>
      <trkpt lat="48.7786" lon="2.12059">
        <ele>144</ele>
        <time>2019-05-12T07:14:21.000Z</time>
      </trkpt>
      <trkpt lat="48.77855" lon="2.12043">
        <ele>143</ele>
        <time>2019-05-12T07:14:23.000Z</time>
      </trkpt>
      <trkpt lat="48.77855" lon="2.12043">
        <ele>143</ele>
        <time>2019-05-12T07:14:25.000Z</time>
      </trkpt>
      <trkpt lat="48.77855" lon="2.12043">
        <ele>143</ele>
        <time>2019-05-12T07:14:27.000Z</time>
      </trkpt>
      <trkpt lat="48.77851" lon="2.12031">
        <ele>143</ele>
        <time>2019-05-12T07:14:29.000Z</time>
      </trkpt>
      <trkpt lat="48.77848" lon="2.12023">
        <ele>142</ele>
        <time>2019-05-12T07:14:31.000Z</time>
      </trkpt>
      <trkpt lat="48.77846" lon="2.12017">
        <ele>141</ele>
        <time>2019-05-12T07:14:33.000Z</time>
      </trkpt>
      <trkpt lat="48.77843" lon="2.12009">
        <ele>139</ele>
        <time>2019-05-12T07:14:37.000Z</time>
      </trkpt>
      <trkpt lat="48.77841" lon="2.12003">
        <ele>138</ele>
        <time>2019-05-12T07:14:39.000Z</time>
      </trkpt>
      <trkpt lat="48.77841" lon="2.12003">
        <ele>138</ele>
        <time>2019-05-12T07:14:41.000Z</time>
      </trkpt>
      <trkpt lat="48.77841" lon="2.12003">
        <ele>138</ele>
        <time>2019-05-12T07:14:43.000Z</time>
      </trkpt>
      <trkpt lat="48.77841" lon="2.12003">
        <ele>138</ele>
        <time>2019-05-12T07:14:45.000Z</time>
      </trkpt>
      <trkpt lat="48.77841" lon="2.12003">
        <ele>138</ele>
        <time>2019-05-12T07:14:47.000Z</time>
      </trkpt>
      <trkpt lat="48.77841" lon="2.12003">
        <ele>138</ele>
        <time>2019-05-12T07:14:53.000Z</time>
      </trkpt>
      <trkpt lat="48.77833" lon="2.1198">
        <ele>130</ele>
        <time>2019-05-12T07:15:05.000Z</time>
      </trkpt>
      <trkpt lat="48.77829" lon="2.11967">
        <ele>128</ele>
        <time>2019-05-12T07:15:07.000Z</time>
      </trkpt>
      <trkpt lat="48.77829" lon="2.11967">
        <ele>128</ele>
        <time>2019-05-12T07:15:09.000Z</time>
      </trkpt>
      <trkpt lat="48.77829" lon="2.11967">
        <ele>128</ele>
        <time>2019-05-12T07:15:11.000Z</time>
      </trkpt>
      <trkpt lat="48.77829" lon="2.11967">
        <ele>128</ele>
        <time>2019-05-12T07:15:13.000Z</time>
      </trkpt>
      <trkpt lat="48.77827" lon="2.11954">
        <ele>128</ele>
        <time>2019-05-12T07:15:15.000Z</time>
      </trkpt>
      <trkpt lat="48.77827" lon="2.11954">
        <ele>128</ele>
        <time>2019-05-12T07:15:17.000Z</time>
      </trkpt>
      <trkpt lat="48.77827" lon="2.11954">
        <ele>128</ele>
        <time>2019-05-12T07:15:19.000Z</time>
      </trkpt>
      <trkpt lat="48.77827" lon="2.11954">
        <ele>128</ele>
        <time>2019-05-12T07:15:21.000Z</time>
      </trkpt>
      <trkpt lat="48.77822" lon="2.11948">
        <ele>128</ele>
        <time>2019-05-12T07:15:23.000Z</time>
      </trkpt>
      <trkpt lat="48.77822" lon="2.11948">
        <ele>128</ele>
        <time>2019-05-12T07:15:27.000Z</time>
      </trkpt>
      <trkpt lat="48.77822" lon="2.11948">
        <ele>128</ele>
        <time>2019-05-12T07:15:29.000Z</time>
      </trkpt>
      <trkpt lat="48.77822" lon="2.11948">
        <ele>128</ele>
        <time>2019-05-12T07:15:31.000Z</time>
      </trkpt>
      <trkpt lat="48.77816" lon="2.11942">
        <ele>127</ele>
        <time>2019-05-12T07:15:33.000Z</time>
      </trkpt>
      <trkpt lat="48.77811" lon="2.11937">
        <ele>127</ele>
        <time>2019-05-12T07:15:35.000Z</time>
      </trkpt>
      <trkpt lat="48.77811" lon="2.11937">
        <ele>127</ele>
        <time>2019-05-12T07:15:39.000Z</time>
      </trkpt>
      <trkpt lat="48.77811" lon="2.11937">
        <ele>127</ele>
        <time>2019-05-12T07:15:41.000Z</time>
      </trkpt>
      <trkpt lat="48.77811" lon="2.11937">
        <ele>127</ele>
        <time>2019-05-12T07:15:43.000Z</time>
      </trkpt>
      <trkpt lat="48.77805" lon="2.11932">
        <ele>126</ele>
        <time>2019-05-12T07:15:45.000Z</time>
      </trkpt>
      <trkpt lat="48.77801" lon="2.11928">
        <ele>126</ele>
        <time>2019-05-12T07:15:47.000Z</time>
      </trkpt>
      <trkpt lat="48.77797" lon="2.11924">
        <ele>125</ele>
        <time>2019-05-12T07:15:53.000Z</time>
      </trkpt>
      <trkpt lat="48.77797" lon="2.11924">
        <ele>125</ele>
        <time>2019-05-12T07:15:55.000Z</time>
      </trkpt>
      <trkpt lat="48.77792" lon="2.11921">
        <ele>125</ele>
        <time>2019-05-12T07:15:57.000Z</time>
      </trkpt>
      <trkpt lat="48.77792" lon="2.11921">
        <ele>125</ele>
        <time>2019-05-12T07:15:59.000Z</time>
      </trkpt>
      <trkpt lat="48.77792" lon="2.11921">
        <ele>125</ele>
        <time>2019-05-12T07:16:01.000Z</time>
      </trkpt>
      <trkpt lat="48.77792" lon="2.11921">
        <ele>125</ele>
        <time>2019-05-12T07:16:03.000Z</time>
      </trkpt>
      <trkpt lat="48.77792" lon="2.11921">
        <ele>125</ele>
        <time>2019-05-12T07:16:07.000Z</time>
      </trkpt>
      <trkpt lat="48.77792" lon="2.11921">
        <ele>125</ele>
        <time>2019-05-12T07:16:09.000Z</time>
      </trkpt>
      <trkpt lat="48.77784" lon="2.11917">
        <ele>123</ele>
        <time>2019-05-12T07:16:13.000Z</time>
      </trkpt>
      <trkpt lat="48.77778" lon="2.11914">
        <ele>122</ele>
        <time>2019-05-12T07:16:15.000Z</time>
      </trkpt>
      <trkpt lat="48.77773" lon="2.11912">
        <ele>121</ele>
        <time>2019-05-12T07:16:17.000Z</time>
      </trkpt>
      <trkpt lat="48.77773" lon="2.11912">
        <ele>121</ele>
        <time>2019-05-12T07:16:19.000Z</time>
      </trkpt>
      <trkpt lat="48.77769" lon="2.1191">
        <ele>120</ele>
        <time>2019-05-12T07:16:21.000Z</time>
      </trkpt>
      <trkpt lat="48.77769" lon="2.1191">
        <ele>120</ele>
        <time>2019-05-12T07:16:23.000Z</time>
      </trkpt>
      <trkpt lat="48.77769" lon="2.1191">
        <ele>120</ele>
        <time>2019-05-12T07:16:29.000Z</time>
      </trkpt>
      <trkpt lat="48.77765" lon="2.11898">
        <ele>121</ele>
        <time>2019-05-12T07:16:35.000Z</time>
      </trkpt>
      <trkpt lat="48.77762" lon="2.1189">
        <ele>121</ele>
        <time>2019-05-12T07:16:36.000Z</time>
      </trkpt>
      <trkpt lat="48.77761" lon="2.11883">
        <ele>121</ele>
        <time>2019-05-12T07:16:38.000Z</time>
      </trkpt>
      <trkpt lat="48.77761" lon="2.11883">
        <ele>121</ele>
        <time>2019-05-12T07:16:40.000Z</time>
      </trkpt>
      <trkpt lat="48.77761" lon="2.11883">
        <ele>121</ele>
        <time>2019-05-12T07:16:42.000Z</time>
      </trkpt>
      <trkpt lat="48.77761" lon="2.11883">
        <ele>121</ele>
        <time>2019-05-12T07:16:44.000Z</time>
      </trkpt>
      <trkpt lat="48.77759" lon="2.11869">
        <ele>121</ele>
        <time>2019-05-12T07:16:48.000Z</time>
      </trkpt>
      <trkpt lat="48.77758" lon="2.11861">
        <ele>121</ele>
        <time>2019-05-12T07:16:50.000Z</time>
      </trkpt>
      <trkpt lat="48.77759" lon="2.11852">
        <ele>121</ele>
        <time>2019-05-12T07:16:54.000Z</time>
      </trkpt>
      <trkpt lat="48.77759" lon="2.11852">
        <ele>121</ele>
        <time>2019-05-12T07:16:56.000Z</time>
      </trkpt>
      <trkpt lat="48.77759" lon="2.11852">
        <ele>121</ele>
        <time>2019-05-12T07:16:58.000Z</time>
      </trkpt>
      <trkpt lat="48.77759" lon="2.11841">
        <ele>119</ele>
        <time>2019-05-12T07:17:02.000Z</time>
      </trkpt>
      <trkpt lat="48.77759" lon="2.11841">
        <ele>119</ele>
        <time>2019-05-12T07:17:04.000Z</time>
      </trkpt>
      <trkpt lat="48.77759" lon="2.11841">
        <ele>119</ele>
        <time>2019-05-12T07:17:06.000Z</time>
      </trkpt>
      <trkpt lat="48.77759" lon="2.11841">
        <ele>119</ele>
        <time>2019-05-12T07:17:08.000Z</time>
      </trkpt>
      <trkpt lat="48.77759" lon="2.11841">
        <ele>119</ele>
        <time>2019-05-12T07:17:12.000Z</time>
      </trkpt>
      <trkpt lat="48.7776" lon="2.11825">
        <ele>120</ele>
        <time>2019-05-12T07:17:14.000Z</time>
      </trkpt>
      <trkpt lat="48.7776" lon="2.11816">
        <ele>121</ele>
        <time>2019-05-12T07:17:16.000Z</time>
      </trkpt>
      <trkpt lat="48.7776" lon="2.11816">
        <ele>121</ele>
        <time>2019-05-12T07:17:20.000Z</time>
      </trkpt>
      <trkpt lat="48.7776" lon="2.11816">
        <ele>121</ele>
        <time>2019-05-12T07:17:22.000Z</time>
      </trkpt>
      <trkpt lat="48.7776" lon="2.11816">
        <ele>121</ele>
        <time>2019-05-12T07:17:24.000Z</time>
      </trkpt>
      <trkpt lat="48.7776" lon="2.11816">
        <ele>121</ele>
        <time>2019-05-12T07:17:26.000Z</time>
      </trkpt>
      <trkpt lat="48.77758" lon="2.118">
        <ele>123</ele>
        <time>2019-05-12T07:17:28.000Z</time>
      </trkpt>
      <trkpt lat="48.77756" lon="2.11789">
        <ele>123</ele>
        <time>2019-05-12T07:17:30.000Z</time>
      </trkpt>
      <trkpt lat="48.77755" lon="2.11781">
        <ele>122</ele>
        <time>2019-05-12T07:17:32.000Z</time>
      </trkpt>
      <trkpt lat="48.77755" lon="2.11781">
        <ele>122</ele>
        <time>2019-05-12T07:17:34.000Z</time>
      </trkpt>
      <trkpt lat="48.77755" lon="2.11781">
        <ele>122</ele>
        <time>2019-05-12T07:17:36.000Z</time>
      </trkpt>
      <trkpt lat="48.77755" lon="2.11781">
        <ele>122</ele>
        <time>2019-05-12T07:17:38.000Z</time>
      </trkpt>
      <trkpt lat="48.77752" lon="2.1177">
        <ele>121</ele>
        <time>2019-05-12T07:17:42.000Z</time>
      </trkpt>
      <trkpt lat="48.77749" lon="2.11762">
        <ele>116</ele>
        <time>2019-05-12T07:17:44.000Z</time>
      </trkpt>
      <trkpt lat="48.77749" lon="2.11762">
        <ele>116</ele>
        <time>2019-05-12T07:17:46.000Z</time>
      </trkpt>
      <trkpt lat="48.77749" lon="2.11762">
        <ele>116</ele>
        <time>2019-05-12T07:17:48.000Z</time>
      </trkpt>
      <trkpt lat="48.77749" lon="2.11762">
        <ele>116</ele>
        <time>2019-05-12T07:17:50.000Z</time>
      </trkpt>
      <trkpt lat="48.77745" lon="2.11749">
        <ele>116</ele>
        <time>2019-05-12T07:17:54.000Z</time>
      </trkpt>
      <trkpt lat="48.77744" lon="2.11739">
        <ele>116</ele>
        <time>2019-05-12T07:17:56.000Z</time>
      </trkpt>
      <trkpt lat="48.77742" lon="2.11732">
        <ele>115</ele>
        <time>2019-05-12T07:17:58.000Z</time>
      </trkpt>
      <trkpt lat="48.77742" lon="2.11732">
        <ele>115</ele>
        <time>2019-05-12T07:18:00.000Z</time>
      </trkpt>
      <trkpt lat="48.7774" lon="2.11725">
        <ele>115</ele>
        <time>2019-05-12T07:18:02.000Z</time>
      </trkpt>
      <trkpt lat="48.77739" lon="2.11717">
        <ele>115</ele>
        <time>2019-05-12T07:18:06.000Z</time>
      </trkpt>
      <trkpt lat="48.77737" lon="2.11709">
        <ele>114</ele>
        <time>2019-05-12T07:18:10.000Z</time>
      </trkpt>
      <trkpt lat="48.77735" lon="2.11702">
        <ele>114</ele>
        <time>2019-05-12T07:18:12.000Z</time>
      </trkpt>
      <trkpt lat="48.77735" lon="2.11702">
        <ele>114</ele>
        <time>2019-05-12T07:18:14.000Z</time>
      </trkpt>
      <trkpt lat="48.77735" lon="2.11702">
        <ele>114</ele>
        <time>2019-05-12T07:18:16.000Z</time>
      </trkpt>
      <trkpt lat="48.77734" lon="2.11689">
        <ele>115</ele>
        <time>2019-05-12T07:18:22.000Z</time>
      </trkpt>
      <trkpt lat="48.77733" lon="2.1168">
        <ele>115</ele>
        <time>2019-05-12T07:18:24.000Z</time>
      </trkpt>
      <trkpt lat="48.77733" lon="2.1168">
        <ele>115</ele>
        <time>2019-05-12T07:18:26.000Z</time>
      </trkpt>
      <trkpt lat="48.77734" lon="2.11671">
        <ele>115</ele>
        <time>2019-05-12T07:18:28.000Z</time>
      </trkpt>
      <trkpt lat="48.77734" lon="2.11671">
        <ele>115</ele>
        <time>2019-05-12T07:18:30.000Z</time>
      </trkpt>
      <trkpt lat="48.77734" lon="2.11671">
        <ele>115</ele>
        <time>2019-05-12T07:18:32.000Z</time>
      </trkpt>
      <trkpt lat="48.77734" lon="2.11658">
        <ele>117</ele>
        <time>2019-05-12T07:18:38.000Z</time>
      </trkpt>
      <trkpt lat="48.77734" lon="2.11649">
        <ele>117</ele>
        <time>2019-05-12T07:18:40.000Z</time>
      </trkpt>
      <trkpt lat="48.77734" lon="2.11649">
        <ele>117</ele>
        <time>2019-05-12T07:18:42.000Z</time>
      </trkpt>
      <trkpt lat="48.77734" lon="2.11649">
        <ele>117</ele>
        <time>2019-05-12T07:18:44.000Z</time>
      </trkpt>
      <trkpt lat="48.77734" lon="2.11649">
        <ele>117</ele>
        <time>2019-05-12T07:18:46.000Z</time>
      </trkpt>
      <trkpt lat="48.77734" lon="2.11649">
        <ele>117</ele>
        <time>2019-05-12T07:18:49.000Z</time>
      </trkpt>
      <trkpt lat="48.77734" lon="2.11649">
        <ele>117</ele>
        <time>2019-05-12T07:18:51.000Z</time>
      </trkpt>
      <trkpt lat="48.77734" lon="2.11649">
        <ele>117</ele>
        <time>2019-05-12T07:18:55.000Z</time>
      </trkpt>
      <trkpt lat="48.77734" lon="2.11649">
        <ele>117</ele>
        <time>2019-05-12T07:18:57.000Z</time>
      </trkpt>
      <trkpt lat="48.77734" lon="2.11649">
        <ele>117</ele>
        <time>2019-05-12T07:18:59.000Z</time>
      </trkpt>
      <trkpt lat="48.77726" lon="2.11633">
        <ele>117</ele>
        <time>2019-05-12T07:19:23.000Z</time>
      </trkpt>
      <trkpt lat="48.77722" lon="2.11623">
        <ele>117</ele>
        <time>2019-05-12T07:19:25.000Z</time>
      </trkpt>
      <trkpt lat="48.77719" lon="2.11616">
        <ele>117</ele>
        <time>2019-05-12T07:19:28.000Z</time>
      </trkpt>
      <trkpt lat="48.77717" lon="2.11608">
        <ele>118</ele>
        <time>2019-05-12T07:19:31.000Z</time>
      </trkpt>
      <trkpt lat="48.77717" lon="2.11608">
        <ele>118</ele>
        <time>2019-05-12T07:19:33.000Z</time>
      </trkpt>
      <trkpt lat="48.77717" lon="2.11608">
        <ele>118</ele>
        <time>2019-05-12T07:19:35.000Z</time>
      </trkpt>
      <trkpt lat="48.77717" lon="2.11608">
        <ele>118</ele>
        <time>2019-05-12T07:19:37.000Z</time>
      </trkpt>
      <trkpt lat="48.77717" lon="2.11608">
        <ele>118</ele>
        <time>2019-05-12T07:19:39.000Z</time>
      </trkpt>
      <trkpt lat="48.77717" lon="2.11608">
        <ele>118</ele>
        <time>2019-05-12T07:19:45.000Z</time>
      </trkpt>
      <trkpt lat="48.77717" lon="2.11608">
        <ele>118</ele>
        <time>2019-05-12T07:19:47.000Z</time>
      </trkpt>
      <trkpt lat="48.77717" lon="2.11608">
        <ele>118</ele>
        <time>2019-05-12T07:19:49.000Z</time>
      </trkpt>
      <trkpt lat="48.77711" lon="2.11585">
        <ele>118</ele>
        <time>2019-05-12T07:20:11.000Z</time>
      </trkpt>
      <trkpt lat="48.77707" lon="2.11572">
        <ele>121</ele>
        <time>2019-05-12T07:20:13.000Z</time>
      </trkpt>
      <trkpt lat="48.77704" lon="2.11564">
        <ele>121</ele>
        <time>2019-05-12T07:20:15.000Z</time>
      </trkpt>
      <trkpt lat="48.777" lon="2.11558">
        <ele>121</ele>
        <time>2019-05-12T07:20:19.000Z</time>
      </trkpt>
      <trkpt lat="48.777" lon="2.11558">
        <ele>121</ele>
        <time>2019-05-12T07:20:21.000Z</time>
      </trkpt>
      <trkpt lat="48.777" lon="2.11558">
        <ele>121</ele>
        <time>2019-05-12T07:20:23.000Z</time>
      </trkpt>
      <trkpt lat="48.777" lon="2.11558">
        <ele>121</ele>
        <time>2019-05-12T07:20:25.000Z</time>
      </trkpt>
      <trkpt lat="48.777" lon="2.11558">
        <ele>121</ele>
        <time>2019-05-12T07:20:27.000Z</time>
      </trkpt>
      <trkpt lat="48.777" lon="2.11558">
        <ele>121</ele>
        <time>2019-05-12T07:20:29.000Z</time>
      </trkpt>
      <trkpt lat="48.777" lon="2.11558">
        <ele>121</ele>
        <time>2019-05-12T07:20:31.000Z</time>
      </trkpt>
      <trkpt lat="48.77696" lon="2.11543">
        <ele>121</ele>
        <time>2019-05-12T07:20:35.000Z</time>
      </trkpt>
      <trkpt lat="48.77694" lon="2.11534">
        <ele>121</ele>
        <time>2019-05-12T07:20:37.000Z</time>
      </trkpt>
      <trkpt lat="48.77692" lon="2.11527">
        <ele>121</ele>
        <time>2019-05-12T07:20:39.000Z</time>
      </trkpt>
      <trkpt lat="48.77692" lon="2.11527">
        <ele>121</ele>
        <time>2019-05-12T07:20:41.000Z</time>
      </trkpt>
      <trkpt lat="48.77692" lon="2.11527">
        <ele>121</ele>
        <time>2019-05-12T07:20:43.000Z</time>
      </trkpt>
      <trkpt lat="48.77692" lon="2.11527">
        <ele>121</ele>
        <time>2019-05-12T07:20:45.000Z</time>
      </trkpt>
      <trkpt lat="48.7769" lon="2.11517">
        <ele>121</ele>
        <time>2019-05-12T07:20:47.000Z</time>
      </trkpt>
      <trkpt lat="48.77688" lon="2.11511">
        <ele>121</ele>
        <time>2019-05-12T07:20:49.000Z</time>
      </trkpt>
      <trkpt lat="48.77687" lon="2.11503">
        <ele>121</ele>
        <time>2019-05-12T07:20:53.000Z</time>
      </trkpt>
      <trkpt lat="48.77687" lon="2.11503">
        <ele>121</ele>
        <time>2019-05-12T07:20:55.000Z</time>
      </trkpt>
      <trkpt lat="48.77687" lon="2.11503">
        <ele>121</ele>
        <time>2019-05-12T07:20:57.000Z</time>
      </trkpt>
      <trkpt lat="48.77686" lon="2.11494">
        <ele>121</ele>
        <time>2019-05-12T07:20:59.000Z</time>
      </trkpt>
      <trkpt lat="48.77686" lon="2.11487">
        <ele>121</ele>
        <time>2019-05-12T07:21:01.000Z</time>
      </trkpt>
      <trkpt lat="48.77686" lon="2.11487">
        <ele>121</ele>
        <time>2019-05-12T07:21:03.000Z</time>
      </trkpt>
      <trkpt lat="48.77685" lon="2.11478">
        <ele>121</ele>
        <time>2019-05-12T07:21:05.000Z</time>
      </trkpt>
      <trkpt lat="48.77685" lon="2.11478">
        <ele>121</ele>
        <time>2019-05-12T07:21:07.000Z</time>
      </trkpt>
      <trkpt lat="48.77685" lon="2.11478">
        <ele>121</ele>
        <time>2019-05-12T07:21:09.000Z</time>
      </trkpt>
      <trkpt lat="48.77686" lon="2.11463">
        <ele>121</ele>
        <time>2019-05-12T07:21:15.000Z</time>
      </trkpt>
      <trkpt lat="48.77686" lon="2.11463">
        <ele>121</ele>
        <time>2019-05-12T07:21:17.000Z</time>
      </trkpt>
      <trkpt lat="48.77686" lon="2.11463">
        <ele>121</ele>
        <time>2019-05-12T07:21:22.000Z</time>
      </trkpt>
      <trkpt lat="48.77686" lon="2.11463">
        <ele>121</ele>
        <time>2019-05-12T07:21:26.000Z</time>
      </trkpt>
      <trkpt lat="48.77686" lon="2.11463">
        <ele>121</ele>
        <time>2019-05-12T07:21:28.000Z</time>
      </trkpt>
      <trkpt lat="48.77693" lon="2.11446">
        <ele>121</ele>
        <time>2019-05-12T07:21:32.000Z</time>
      </trkpt>
      <trkpt lat="48.77697" lon="2.11436">
        <ele>121</ele>
        <time>2019-05-12T07:21:34.000Z</time>
      </trkpt>
      <trkpt lat="48.777" lon="2.11429">
        <ele>121</ele>
        <time>2019-05-12T07:21:36.000Z</time>
      </trkpt>
      <trkpt lat="48.777" lon="2.11429">
        <ele>121</ele>
        <time>2019-05-12T07:21:38.000Z</time>
      </trkpt>
      <trkpt lat="48.77704" lon="2.11423">
        <ele>121</ele>
        <time>2019-05-12T07:21:40.000Z</time>
      </trkpt>
      <trkpt lat="48.77707" lon="2.11418">
        <ele>121</ele>
        <time>2019-05-12T07:21:42.000Z</time>
      </trkpt>
      <trkpt lat="48.77707" lon="2.11418">
        <ele>121</ele>
        <time>2019-05-12T07:21:44.000Z</time>
      </trkpt>
      <trkpt lat="48.77707" lon="2.11418">
        <ele>121</ele>
        <time>2019-05-12T07:21:46.000Z</time>
      </trkpt>
      <trkpt lat="48.77707" lon="2.11418">
        <ele>121</ele>
        <time>2019-05-12T07:21:48.000Z</time>
      </trkpt>
      <trkpt lat="48.77712" lon="2.1141">
        <ele>120</ele>
        <time>2019-05-12T07:21:50.000Z</time>
      </trkpt>
      <trkpt lat="48.77712" lon="2.1141">
        <ele>120</ele>
        <time>2019-05-12T07:21:52.000Z</time>
      </trkpt>
      <trkpt lat="48.77712" lon="2.1141">
        <ele>120</ele>
        <time>2019-05-12T07:21:54.000Z</time>
      </trkpt>
      <trkpt lat="48.77712" lon="2.1141">
        <ele>120</ele>
        <time>2019-05-12T07:21:56.000Z</time>
      </trkpt>
      <trkpt lat="48.7771" lon="2.11392">
        <ele>120</ele>
        <time>2019-05-12T07:22:04.000Z</time>
      </trkpt>
      <trkpt lat="48.77708" lon="2.1138">
        <ele>119</ele>
        <time>2019-05-12T07:22:06.000Z</time>
      </trkpt>
      <trkpt lat="48.77707" lon="2.11372">
        <ele>119</ele>
        <time>2019-05-12T07:22:08.000Z</time>
      </trkpt>
      <trkpt lat="48.77707" lon="2.11372">
        <ele>119</ele>
        <time>2019-05-12T07:22:10.000Z</time>
      </trkpt>
      <trkpt lat="48.77707" lon="2.11372">
        <ele>119</ele>
        <time>2019-05-12T07:22:12.000Z</time>
      </trkpt>
      <trkpt lat="48.77707" lon="2.11372">
        <ele>119</ele>
        <time>2019-05-12T07:22:14.000Z</time>
      </trkpt>
      <trkpt lat="48.77707" lon="2.11372">
        <ele>119</ele>
        <time>2019-05-12T07:22:16.000Z</time>
      </trkpt>
      <trkpt lat="48.77707" lon="2.11372">
        <ele>119</ele>
        <time>2019-05-12T07:22:18.000Z</time>
      </trkpt>
      <trkpt lat="48.77707" lon="2.11372">
        <ele>119</ele>
        <time>2019-05-12T07:22:20.000Z</time>
      </trkpt>
      <trkpt lat="48.77707" lon="2.11372">
        <ele>119</ele>
        <time>2019-05-12T07:22:22.000Z</time>
      </trkpt>
      <trkpt lat="48.77707" lon="2.11372">
        <ele>119</ele>
        <time>2019-05-12T07:22:24.000Z</time>
      </trkpt>
      <trkpt lat="48.77705" lon="2.11347">
        <ele>119</ele>
        <time>2019-05-12T07:22:28.000Z</time>
      </trkpt>
      <trkpt lat="48.77705" lon="2.11333">
        <ele>118</ele>
        <time>2019-05-12T07:22:30.000Z</time>
      </trkpt>
      <trkpt lat="48.77705" lon="2.11324">
        <ele>118</ele>
        <time>2019-05-12T07:22:32.000Z</time>
      </trkpt>
      <trkpt lat="48.77705" lon="2.11324">
        <ele>118</ele>
        <time>2019-05-12T07:22:34.000Z</time>
      </trkpt>
      <trkpt lat="48.77705" lon="2.11324">
        <ele>118</ele>
        <time>2019-05-12T07:22:36.000Z</time>
      </trkpt>
      <trkpt lat="48.77705" lon="2.11324">
        <ele>118</ele>
        <time>2019-05-12T07:22:38.000Z</time>
      </trkpt>
      <trkpt lat="48.77706" lon="2.1131">
        <ele>118</ele>
        <time>2019-05-12T07:22:42.000Z</time>
      </trkpt>
      <trkpt lat="48.77707" lon="2.11301">
        <ele>119</ele>
        <time>2019-05-12T07:22:44.000Z</time>
      </trkpt>
      <trkpt lat="48.77708" lon="2.11294">
        <ele>119</ele>
        <time>2019-05-12T07:22:46.000Z</time>
      </trkpt>
      <trkpt lat="48.77708" lon="2.11294">
        <ele>119</ele>
        <time>2019-05-12T07:22:48.000Z</time>
      </trkpt>
      <trkpt lat="48.77709" lon="2.11288">
        <ele>119</ele>
        <time>2019-05-12T07:22:50.000Z</time>
      </trkpt>
      <trkpt lat="48.77709" lon="2.11288">
        <ele>119</ele>
        <time>2019-05-12T07:22:52.000Z</time>
      </trkpt>
      <trkpt lat="48.77709" lon="2.11288">
        <ele>119</ele>
        <time>2019-05-12T07:22:54.000Z</time>
      </trkpt>
      <trkpt lat="48.77709" lon="2.11288">
        <ele>119</ele>
        <time>2019-05-12T07:22:56.000Z</time>
      </trkpt>
      <trkpt lat="48.77709" lon="2.11288">
        <ele>119</ele>
        <time>2019-05-12T07:22:58.000Z</time>
      </trkpt>
      <trkpt lat="48.77709" lon="2.11271">
        <ele>119</ele>
        <time>2019-05-12T07:23:04.000Z</time>
      </trkpt>
      <trkpt lat="48.77709" lon="2.11271">
        <ele>119</ele>
        <time>2019-05-12T07:23:06.000Z</time>
      </trkpt>
      <trkpt lat="48.77708" lon="2.11258">
        <ele>119</ele>
        <time>2019-05-12T07:23:10.000Z</time>
      </trkpt>
      <trkpt lat="48.77707" lon="2.11248">
        <ele>119</ele>
        <time>2019-05-12T07:23:12.000Z</time>
      </trkpt>
      <trkpt lat="48.77706" lon="2.11241">
        <ele>119</ele>
        <time>2019-05-12T07:23:14.000Z</time>
      </trkpt>
      <trkpt lat="48.77706" lon="2.11232">
        <ele>119</ele>
        <time>2019-05-12T07:23:18.000Z</time>
      </trkpt>
      <trkpt lat="48.77706" lon="2.11232">
        <ele>119</ele>
        <time>2019-05-12T07:23:20.000Z</time>
      </trkpt>
      <trkpt lat="48.77706" lon="2.11232">
        <ele>119</ele>
        <time>2019-05-12T07:23:27.000Z</time>
      </trkpt>
      <trkpt lat="48.77706" lon="2.11232">
        <ele>119</ele>
        <time>2019-05-12T07:23:29.000Z</time>
      </trkpt>
      <trkpt lat="48.77706" lon="2.11232">
        <ele>119</ele>
        <time>2019-05-12T07:23:31.000Z</time>
      </trkpt>
      <trkpt lat="48.77706" lon="2.11232">
        <ele>119</ele>
        <time>2019-05-12T07:23:49.000Z</time>
      </trkpt>
      <trkpt lat="48.77706" lon="2.11232">
        <ele>119</ele>
        <time>2019-05-12T07:23:51.000Z</time>
      </trkpt>
      <trkpt lat="48.77705" lon="2.11192">
        <ele>119</ele>
        <time>2019-05-12T07:24:03.000Z</time>
      </trkpt>
      <trkpt lat="48.77703" lon="2.11171">
        <ele>119</ele>
        <time>2019-05-12T07:24:05.000Z</time>
      </trkpt>
      <trkpt lat="48.77702" lon="2.11157">
        <ele>121</ele>
        <time>2019-05-12T07:24:07.000Z</time>
      </trkpt>
      <trkpt lat="48.77702" lon="2.11148">
        <ele>122</ele>
        <time>2019-05-12T07:24:09.000Z</time>
      </trkpt>
      <trkpt lat="48.77701" lon="2.11141">
        <ele>122</ele>
        <time>2019-05-12T07:24:11.000Z</time>
      </trkpt>
      <trkpt lat="48.77698" lon="2.11126">
        <ele>122</ele>
        <time>2019-05-12T07:24:15.000Z</time>
      </trkpt>
      <trkpt lat="48.77698" lon="2.11126">
        <ele>122</ele>
        <time>2019-05-12T07:24:17.000Z</time>
      </trkpt>
      <trkpt lat="48.77698" lon="2.11126">
        <ele>122</ele>
        <time>2019-05-12T07:24:19.000Z</time>
      </trkpt>
      <trkpt lat="48.77695" lon="2.11109">
        <ele>122</ele>
        <time>2019-05-12T07:24:23.000Z</time>
      </trkpt>
      <trkpt lat="48.77695" lon="2.11109">
        <ele>122</ele>
        <time>2019-05-12T07:24:25.000Z</time>
      </trkpt>
      <trkpt lat="48.77695" lon="2.11109">
        <ele>122</ele>
        <time>2019-05-12T07:24:29.000Z</time>
      </trkpt>
      <trkpt lat="48.77695" lon="2.11109">
        <ele>122</ele>
        <time>2019-05-12T07:24:33.000Z</time>
      </trkpt>
      <trkpt lat="48.77686" lon="2.11093">
        <ele>121</ele>
        <time>2019-05-12T07:24:35.000Z</time>
      </trkpt>
      <trkpt lat="48.77682" lon="2.1108">
        <ele>123</ele>
        <time>2019-05-12T07:24:43.000Z</time>
      </trkpt>
      <trkpt lat="48.77682" lon="2.1108">
        <ele>123</ele>
        <time>2019-05-12T07:24:45.000Z</time>
      </trkpt>
      <trkpt lat="48.77682" lon="2.1108">
        <ele>123</ele>
        <time>2019-05-12T07:24:49.000Z</time>
      </trkpt>
      <trkpt lat="48.77678" lon="2.11066">
        <ele>124</ele>
        <time>2019-05-12T07:24:51.000Z</time>
      </trkpt>
      <trkpt lat="48.77672" lon="2.11054">
        <ele>125</ele>
        <time>2019-05-12T07:24:57.000Z</time>
      </trkpt>
      <trkpt lat="48.77672" lon="2.11054">
        <ele>125</ele>
        <time>2019-05-12T07:25:03.000Z</time>
      </trkpt>
      <trkpt lat="48.77668" lon="2.11035">
        <ele>126</ele>
        <time>2019-05-12T07:25:09.000Z</time>
      </trkpt>
      <trkpt lat="48.77667" lon="2.11021">
        <ele>126</ele>
        <time>2019-05-12T07:25:15.000Z</time>
      </trkpt>
      <trkpt lat="48.77667" lon="2.11021">
        <ele>126</ele>
        <time>2019-05-12T07:25:17.000Z</time>
      </trkpt>
      <trkpt lat="48.77667" lon="2.11021">
        <ele>126</ele>
        <time>2019-05-12T07:25:19.000Z</time>
      </trkpt>
      <trkpt lat="48.77667" lon="2.11021">
        <ele>126</ele>
        <time>2019-05-12T07:25:25.000Z</time>
      </trkpt>
      <trkpt lat="48.77667" lon="2.11021">
        <ele>126</ele>
        <time>2019-05-12T07:25:27.000Z</time>
      </trkpt>
      <trkpt lat="48.77667" lon="2.11021">
        <ele>126</ele>
        <time>2019-05-12T07:25:29.000Z</time>
      </trkpt>
      <trkpt lat="48.77667" lon="2.11021">
        <ele>126</ele>
        <time>2019-05-12T07:25:35.000Z</time>
      </trkpt>
      <trkpt lat="48.77667" lon="2.11021">
        <ele>126</ele>
        <time>2019-05-12T07:25:37.000Z</time>
      </trkpt>
      <trkpt lat="48.77656" lon="2.10998">
        <ele>122</ele>
        <time>2019-05-12T07:25:49.000Z</time>
      </trkpt>
      <trkpt lat="48.7765" lon="2.10985">
        <ele>121</ele>
        <time>2019-05-12T07:25:51.000Z</time>
      </trkpt>
      <trkpt lat="48.77646" lon="2.10977">
        <ele>121</ele>
        <time>2019-05-12T07:25:53.000Z</time>
      </trkpt>
      <trkpt lat="48.77643" lon="2.1097">
        <ele>121</ele>
        <time>2019-05-12T07:25:55.000Z</time>
      </trkpt>
      <trkpt lat="48.77641" lon="2.10964">
        <ele>121</ele>
        <time>2019-05-12T07:25:57.000Z</time>
      </trkpt>
      <trkpt lat="48.77641" lon="2.10964">
        <ele>121</ele>
        <time>2019-05-12T07:25:59.000Z</time>
      </trkpt>
      <trkpt lat="48.77641" lon="2.10964">
        <ele>121</ele>
        <time>2019-05-12T07:26:01.000Z</time>
      </trkpt>
      <trkpt lat="48.77641" lon="2.10964">
        <ele>121</ele>
        <time>2019-05-12T07:26:03.000Z</time>
      </trkpt>
      <trkpt lat="48.7763" lon="2.10937">
        <ele>121</ele>
        <time>2019-05-12T07:26:09.000Z</time>
      </trkpt>
      <trkpt lat="48.7763" lon="2.10937">
        <ele>121</ele>
        <time>2019-05-12T07:26:11.000Z</time>
      </trkpt>
      <trkpt lat="48.7763" lon="2.10937">
        <ele>121</ele>
        <time>2019-05-12T07:26:13.000Z</time>
      </trkpt>
      <trkpt lat="48.7763" lon="2.10937">
        <ele>121</ele>
        <time>2019-05-12T07:26:15.000Z</time>
      </trkpt>
      <trkpt lat="48.7763" lon="2.10937">
        <ele>121</ele>
        <time>2019-05-12T07:26:17.000Z</time>
      </trkpt>
      <trkpt lat="48.7763" lon="2.10937">
        <ele>121</ele>
        <time>2019-05-12T07:26:19.000Z</time>
      </trkpt>
      <trkpt lat="48.7763" lon="2.10937">
        <ele>121</ele>
        <time>2019-05-12T07:26:21.000Z</time>
      </trkpt>
      <trkpt lat="48.7763" lon="2.10937">
        <ele>121</ele>
        <time>2019-05-12T07:26:23.000Z</time>
      </trkpt>
      <trkpt lat="48.7763" lon="2.10937">
        <ele>121</ele>
        <time>2019-05-12T07:26:25.000Z</time>
      </trkpt>
      <trkpt lat="48.77614" lon="2.10892">
        <ele>122</ele>
        <time>2019-05-12T07:26:37.000Z</time>
      </trkpt>
      <trkpt lat="48.77614" lon="2.10892">
        <ele>122</ele>
        <time>2019-05-12T07:26:39.000Z</time>
      </trkpt>
      <trkpt lat="48.77614" lon="2.10892">
        <ele>122</ele>
        <time>2019-05-12T07:26:43.000Z</time>
      </trkpt>
      <trkpt lat="48.77606" lon="2.10878">
        <ele>122</ele>
        <time>2019-05-12T07:26:45.000Z</time>
      </trkpt>
      <trkpt lat="48.77606" lon="2.10878">
        <ele>122</ele>
        <time>2019-05-12T07:26:47.000Z</time>
      </trkpt>
      <trkpt lat="48.77602" lon="2.10863">
        <ele>122</ele>
        <time>2019-05-12T07:26:53.000Z</time>
      </trkpt>
      <trkpt lat="48.77602" lon="2.10863">
        <ele>122</ele>
        <time>2019-05-12T07:26:55.000Z</time>
      </trkpt>
      <trkpt lat="48.77602" lon="2.10863">
        <ele>122</ele>
        <time>2019-05-12T07:26:59.000Z</time>
      </trkpt>
      <trkpt lat="48.77596" lon="2.1085">
        <ele>121</ele>
        <time>2019-05-12T07:27:01.000Z</time>
      </trkpt>
      <trkpt lat="48.77593" lon="2.10844">
        <ele>121</ele>
        <time>2019-05-12T07:27:09.000Z</time>
      </trkpt>
      <trkpt lat="48.77593" lon="2.10844">
        <ele>121</ele>
        <time>2019-05-12T07:27:13.000Z</time>
      </trkpt>
      <trkpt lat="48.77593" lon="2.10844">
        <ele>121</ele>
        <time>2019-05-12T07:27:15.000Z</time>
      </trkpt>
      <trkpt lat="48.77593" lon="2.10844">
        <ele>121</ele>
        <time>2019-05-12T07:27:17.000Z</time>
      </trkpt>
      <trkpt lat="48.77587" lon="2.10831">
        <ele>121</ele>
        <time>2019-05-12T07:27:21.000Z</time>
      </trkpt>
      <trkpt lat="48.77583" lon="2.10822">
        <ele>119</ele>
        <time>2019-05-12T07:27:23.000Z</time>
      </trkpt>
      <trkpt lat="48.7758" lon="2.10816">
        <ele>119</ele>
        <time>2019-05-12T07:27:25.000Z</time>
      </trkpt>
      <trkpt lat="48.77576" lon="2.10809">
        <ele>119</ele>
        <time>2019-05-12T07:27:29.000Z</time>
      </trkpt>
      <trkpt lat="48.77576" lon="2.10809">
        <ele>119</ele>
        <time>2019-05-12T07:27:31.000Z</time>
      </trkpt>
      <trkpt lat="48.77576" lon="2.10809">
        <ele>119</ele>
        <time>2019-05-12T07:27:33.000Z</time>
      </trkpt>
      <trkpt lat="48.77572" lon="2.10796">
        <ele>119</ele>
        <time>2019-05-12T07:27:38.000Z</time>
      </trkpt>
      <trkpt lat="48.7757" lon="2.10786">
        <ele>119</ele>
        <time>2019-05-12T07:27:40.000Z</time>
      </trkpt>
      <trkpt lat="48.7757" lon="2.10786">
        <ele>119</ele>
        <time>2019-05-12T07:27:42.000Z</time>
      </trkpt>
      <trkpt lat="48.7757" lon="2.10786">
        <ele>119</ele>
        <time>2019-05-12T07:27:44.000Z</time>
      </trkpt>
      <trkpt lat="48.7757" lon="2.10786">
        <ele>119</ele>
        <time>2019-05-12T07:27:46.000Z</time>
      </trkpt>
      <trkpt lat="48.7757" lon="2.10786">
        <ele>119</ele>
        <time>2019-05-12T07:27:48.000Z</time>
      </trkpt>
      <trkpt lat="48.7757" lon="2.10786">
        <ele>119</ele>
        <time>2019-05-12T07:27:58.000Z</time>
      </trkpt>
      <trkpt lat="48.7757" lon="2.10786">
        <ele>119</ele>
        <time>2019-05-12T07:28:00.000Z</time>
      </trkpt>
      <trkpt lat="48.7757" lon="2.10786">
        <ele>119</ele>
        <time>2019-05-12T07:28:02.000Z</time>
      </trkpt>
      <trkpt lat="48.7757" lon="2.10786">
        <ele>119</ele>
        <time>2019-05-12T07:28:04.000Z</time>
      </trkpt>
      <trkpt lat="48.7757" lon="2.10786">
        <ele>119</ele>
        <time>2019-05-12T07:28:10.000Z</time>
      </trkpt>
      <trkpt lat="48.7756" lon="2.10755">
        <ele>120</ele>
        <time>2019-05-12T07:28:18.000Z</time>
      </trkpt>
      <trkpt lat="48.77554" lon="2.10737">
        <ele>120</ele>
        <time>2019-05-12T07:28:20.000Z</time>
      </trkpt>
      <trkpt lat="48.77554" lon="2.10737">
        <ele>120</ele>
        <time>2019-05-12T07:28:22.000Z</time>
      </trkpt>
      <trkpt lat="48.77554" lon="2.10737">
        <ele>120</ele>
        <time>2019-05-12T07:28:24.000Z</time>
      </trkpt>
      <trkpt lat="48.77554" lon="2.10737">
        <ele>120</ele>
        <time>2019-05-12T07:28:26.000Z</time>
      </trkpt>
      <trkpt lat="48.77549" lon="2.10714">
        <ele>120</ele>
        <time>2019-05-12T07:28:40.000Z</time>
      </trkpt>
      <trkpt lat="48.77546" lon="2.10702">
        <ele>120</ele>
        <time>2019-05-12T07:28:42.000Z</time>
      </trkpt>
      <trkpt lat="48.77546" lon="2.10693">
        <ele>120</ele>
        <time>2019-05-12T07:28:44.000Z</time>
      </trkpt>
      <trkpt lat="48.77546" lon="2.10693">
        <ele>120</ele>
        <time>2019-05-12T07:28:46.000Z</time>
      </trkpt>
      <trkpt lat="48.77548" lon="2.10685">
        <ele>120</ele>
        <time>2019-05-12T07:28:48.000Z</time>
      </trkpt>
      <trkpt lat="48.7755" lon="2.10679">
        <ele>120</ele>
        <time>2019-05-12T07:28:50.000Z</time>
      </trkpt>
      <trkpt lat="48.77552" lon="2.10671">
        <ele>120</ele>
        <time>2019-05-12T07:28:54.000Z</time>
      </trkpt>
      <trkpt lat="48.77553" lon="2.10661">
        <ele>120</ele>
        <time>2019-05-12T07:28:58.000Z</time>
      </trkpt>
      <trkpt lat="48.77553" lon="2.10661">
        <ele>120</ele>
        <time>2019-05-12T07:29:00.000Z</time>
      </trkpt>
      <trkpt lat="48.77553" lon="2.10661">
        <ele>120</ele>
        <time>2019-05-12T07:29:02.000Z</time>
      </trkpt>
      <trkpt lat="48.77553" lon="2.10661">
        <ele>120</ele>
        <time>2019-05-12T07:29:04.000Z</time>
      </trkpt>
      <trkpt lat="48.77553" lon="2.10661">
        <ele>120</ele>
        <time>2019-05-12T07:29:06.000Z</time>
      </trkpt>
      <trkpt lat="48.77553" lon="2.10661">
        <ele>120</ele>
        <time>2019-05-12T07:29:08.000Z</time>
      </trkpt>
      <trkpt lat="48.77556" lon="2.1065">
        <ele>120</ele>
        <time>2019-05-12T07:29:10.000Z</time>
      </trkpt>
      <trkpt lat="48.77559" lon="2.10639">
        <ele>120</ele>
        <time>2019-05-12T07:29:14.000Z</time>
      </trkpt>
      <trkpt lat="48.7756" lon="2.10632">
        <ele>120</ele>
        <time>2019-05-12T07:29:16.000Z</time>
      </trkpt>
      <trkpt lat="48.7756" lon="2.10632">
        <ele>120</ele>
        <time>2019-05-12T07:29:18.000Z</time>
      </trkpt>
      <trkpt lat="48.7756" lon="2.10632">
        <ele>120</ele>
        <time>2019-05-12T07:29:20.000Z</time>
      </trkpt>
      <trkpt lat="48.7756" lon="2.10632">
        <ele>120</ele>
        <time>2019-05-12T07:29:22.000Z</time>
      </trkpt>
      <trkpt lat="48.7756" lon="2.10632">
        <ele>120</ele>
        <time>2019-05-12T07:29:24.000Z</time>
      </trkpt>
      <trkpt lat="48.7756" lon="2.10632">
        <ele>120</ele>
        <time>2019-05-12T07:29:26.000Z</time>
      </trkpt>
      <trkpt lat="48.7756" lon="2.10632">
        <ele>120</ele>
        <time>2019-05-12T07:29:30.000Z</time>
      </trkpt>
      <trkpt lat="48.7756" lon="2.10632">
        <ele>120</ele>
        <time>2019-05-12T07:29:38.000Z</time>
      </trkpt>
      <trkpt lat="48.7756" lon="2.10632">
        <ele>120</ele>
        <time>2019-05-12T07:29:40.000Z</time>
      </trkpt>
      <trkpt lat="48.77575" lon="2.10598">
        <ele>121</ele>
        <time>2019-05-12T07:29:56.000Z</time>
      </trkpt>
      <trkpt lat="48.77583" lon="2.10579">
        <ele>122</ele>
        <time>2019-05-12T07:29:58.000Z</time>
      </trkpt>
      <trkpt lat="48.77588" lon="2.10567">
        <ele>127</ele>
        <time>2019-05-12T07:30:00.000Z</time>
      </trkpt>
      <trkpt lat="48.77591" lon="2.1056">
        <ele>128</ele>
        <time>2019-05-12T07:30:02.000Z</time>
      </trkpt>
      <trkpt lat="48.77594" lon="2.10554">
        <ele>129</ele>
        <time>2019-05-12T07:30:04.000Z</time>
      </trkpt>
      <trkpt lat="48.77594" lon="2.10554">
        <ele>129</ele>
        <time>2019-05-12T07:30:06.000Z</time>
      </trkpt>
      <trkpt lat="48.77594" lon="2.10554">
        <ele>129</ele>
        <time>2019-05-12T07:30:08.000Z</time>
      </trkpt>
      <trkpt lat="48.77594" lon="2.10554">
        <ele>129</ele>
        <time>2019-05-12T07:30:10.000Z</time>
      </trkpt>
      <trkpt lat="48.77594" lon="2.10554">
        <ele>129</ele>
        <time>2019-05-12T07:30:12.000Z</time>
      </trkpt>
      <trkpt lat="48.77594" lon="2.10554">
        <ele>129</ele>
        <time>2019-05-12T07:30:14.000Z</time>
      </trkpt>
      <trkpt lat="48.77594" lon="2.10554">
        <ele>129</ele>
        <time>2019-05-12T07:30:16.000Z</time>
      </trkpt>
      <trkpt lat="48.77602" lon="2.10517">
        <ele>128</ele>
        <time>2019-05-12T07:30:34.000Z</time>
      </trkpt>
      <trkpt lat="48.77606" lon="2.10505">
        <ele>128</ele>
        <time>2019-05-12T07:30:40.000Z</time>
      </trkpt>
      <trkpt lat="48.77606" lon="2.10505">
        <ele>128</ele>
        <time>2019-05-12T07:30:42.000Z</time>
      </trkpt>
      <trkpt lat="48.77606" lon="2.10505">
        <ele>128</ele>
        <time>2019-05-12T07:30:48.000Z</time>
      </trkpt>
      <trkpt lat="48.7761" lon="2.1048">
        <ele>127</ele>
        <time>2019-05-12T07:30:54.000Z</time>
      </trkpt>
      <trkpt lat="48.7761" lon="2.1048">
        <ele>127</ele>
        <time>2019-05-12T07:30:56.000Z</time>
      </trkpt>
      <trkpt lat="48.7761" lon="2.1048">
        <ele>127</ele>
        <time>2019-05-12T07:30:58.000Z</time>
      </trkpt>
      <trkpt lat="48.7761" lon="2.1048">
        <ele>127</ele>
        <time>2019-05-12T07:31:00.000Z</time>
      </trkpt>
      <trkpt lat="48.77611" lon="2.10462">
        <ele>128</ele>
        <time>2019-05-12T07:31:06.000Z</time>
      </trkpt>
      <trkpt lat="48.77611" lon="2.10462">
        <ele>128</ele>
        <time>2019-05-12T07:31:12.000Z</time>
      </trkpt>
      <trkpt lat="48.77611" lon="2.10462">
        <ele>128</ele>
        <time>2019-05-12T07:31:15.000Z</time>
      </trkpt>
      <trkpt lat="48.77615" lon="2.10453">
        <ele>128</ele>
        <time>2019-05-12T07:31:20.000Z</time>
      </trkpt>
      <trkpt lat="48.77618" lon="2.10447">
        <ele>128</ele>
        <time>2019-05-12T07:31:22.000Z</time>
      </trkpt>
      <trkpt lat="48.77618" lon="2.10447">
        <ele>128</ele>
        <time>2019-05-12T07:31:24.000Z</time>
      </trkpt>
      <trkpt lat="48.77618" lon="2.10447">
        <ele>128</ele>
        <time>2019-05-12T07:31:26.000Z</time>
      </trkpt>
      <trkpt lat="48.77621" lon="2.10422">
        <ele>128</ele>
        <time>2019-05-12T07:31:48.000Z</time>
      </trkpt>
      <trkpt lat="48.77621" lon="2.10422">
        <ele>128</ele>
        <time>2019-05-12T07:31:50.000Z</time>
      </trkpt>
      <trkpt lat="48.77621" lon="2.10422">
        <ele>128</ele>
        <time>2019-05-12T07:31:52.000Z</time>
      </trkpt>
      <trkpt lat="48.77621" lon="2.10422">
        <ele>128</ele>
        <time>2019-05-12T07:31:54.000Z</time>
      </trkpt>
      <trkpt lat="48.77621" lon="2.10422">
        <ele>128</ele>
        <time>2019-05-12T07:31:58.000Z</time>
      </trkpt>
      <trkpt lat="48.77623" lon="2.10397">
        <ele>127</ele>
        <time>2019-05-12T07:32:00.000Z</time>
      </trkpt>
      <trkpt lat="48.77623" lon="2.10397">
        <ele>127</ele>
        <time>2019-05-12T07:32:02.000Z</time>
      </trkpt>
      <trkpt lat="48.77623" lon="2.10397">
        <ele>127</ele>
        <time>2019-05-12T07:32:04.000Z</time>
      </trkpt>
      <trkpt lat="48.77627" lon="2.10378">
        <ele>127</ele>
        <time>2019-05-12T07:32:10.000Z</time>
      </trkpt>
      <trkpt lat="48.77629" lon="2.10366">
        <ele>127</ele>
        <time>2019-05-12T07:32:12.000Z</time>
      </trkpt>
      <trkpt lat="48.77631" lon="2.10358">
        <ele>127</ele>
        <time>2019-05-12T07:32:14.000Z</time>
      </trkpt>
      <trkpt lat="48.77631" lon="2.10358">
        <ele>127</ele>
        <time>2019-05-12T07:32:16.000Z</time>
      </trkpt>
      <trkpt lat="48.77631" lon="2.10351">
        <ele>127</ele>
        <time>2019-05-12T07:32:18.000Z</time>
      </trkpt>
      <trkpt lat="48.77631" lon="2.10351">
        <ele>127</ele>
        <time>2019-05-12T07:32:20.000Z</time>
      </trkpt>
      <trkpt lat="48.77631" lon="2.10351">
        <ele>127</ele>
        <time>2019-05-12T07:32:22.000Z</time>
      </trkpt>
      <trkpt lat="48.77631" lon="2.10341">
        <ele>127</ele>
        <time>2019-05-12T07:32:24.000Z</time>
      </trkpt>
      <trkpt lat="48.77631" lon="2.10334">
        <ele>127</ele>
        <time>2019-05-12T07:32:26.000Z</time>
      </trkpt>
      <trkpt lat="48.77631" lon="2.10334">
        <ele>127</ele>
        <time>2019-05-12T07:32:28.000Z</time>
      </trkpt>
      <trkpt lat="48.77631" lon="2.10334">
        <ele>127</ele>
        <time>2019-05-12T07:32:30.000Z</time>
      </trkpt>
      <trkpt lat="48.77631" lon="2.10334">
        <ele>127</ele>
        <time>2019-05-12T07:32:32.000Z</time>
      </trkpt>
      <trkpt lat="48.77631" lon="2.10334">
        <ele>127</ele>
        <time>2019-05-12T07:32:34.000Z</time>
      </trkpt>
      <trkpt lat="48.77631" lon="2.10334">
        <ele>127</ele>
        <time>2019-05-12T07:32:36.000Z</time>
      </trkpt>
      <trkpt lat="48.77631" lon="2.10334">
        <ele>127</ele>
        <time>2019-05-12T07:32:38.000Z</time>
      </trkpt>
      <trkpt lat="48.77629" lon="2.10314">
        <ele>126</ele>
        <time>2019-05-12T07:32:40.000Z</time>
      </trkpt>
      <trkpt lat="48.77629" lon="2.10301">
        <ele>125</ele>
        <time>2019-05-12T07:32:42.000Z</time>
      </trkpt>
      <trkpt lat="48.77628" lon="2.10292">
        <ele>125</ele>
        <time>2019-05-12T07:32:44.000Z</time>
      </trkpt>
      <trkpt lat="48.77628" lon="2.10292">
        <ele>125</ele>
        <time>2019-05-12T07:32:46.000Z</time>
      </trkpt>
      <trkpt lat="48.77628" lon="2.10292">
        <ele>125</ele>
        <time>2019-05-12T07:32:48.000Z</time>
      </trkpt>
      <trkpt lat="48.77628" lon="2.10292">
        <ele>125</ele>
        <time>2019-05-12T07:32:52.000Z</time>
      </trkpt>
      <trkpt lat="48.77626" lon="2.10281">
        <ele>125</ele>
        <time>2019-05-12T07:32:54.000Z</time>
      </trkpt>
      <trkpt lat="48.77625" lon="2.10268">
        <ele>125</ele>
        <time>2019-05-12T07:33:00.000Z</time>
      </trkpt>
      <trkpt lat="48.77624" lon="2.10258">
        <ele>125</ele>
        <time>2019-05-12T07:33:02.000Z</time>
      </trkpt>
      <trkpt lat="48.77624" lon="2.10258">
        <ele>125</ele>
        <time>2019-05-12T07:33:04.000Z</time>
      </trkpt>
      <trkpt lat="48.77622" lon="2.10246">
        <ele>124</ele>
        <time>2019-05-12T07:33:10.000Z</time>
      </trkpt>
      <trkpt lat="48.77622" lon="2.10246">
        <ele>124</ele>
        <time>2019-05-12T07:33:12.000Z</time>
      </trkpt>
      <trkpt lat="48.77622" lon="2.10246">
        <ele>124</ele>
        <time>2019-05-12T07:33:14.000Z</time>
      </trkpt>
      <trkpt lat="48.7762" lon="2.10229">
        <ele>124</ele>
        <time>2019-05-12T07:33:18.000Z</time>
      </trkpt>
      <trkpt lat="48.77619" lon="2.10219">
        <ele>124</ele>
        <time>2019-05-12T07:33:20.000Z</time>
      </trkpt>
      <trkpt lat="48.77619" lon="2.10219">
        <ele>124</ele>
        <time>2019-05-12T07:33:22.000Z</time>
      </trkpt>
      <trkpt lat="48.77619" lon="2.10219">
        <ele>124</ele>
        <time>2019-05-12T07:33:24.000Z</time>
      </trkpt>
      <trkpt lat="48.77619" lon="2.10219">
        <ele>124</ele>
        <time>2019-05-12T07:33:26.000Z</time>
      </trkpt>
      <trkpt lat="48.77617" lon="2.10207">
        <ele>124</ele>
        <time>2019-05-12T07:33:30.000Z</time>
      </trkpt>
      <trkpt lat="48.77617" lon="2.10198">
        <ele>124</ele>
        <time>2019-05-12T07:33:32.000Z</time>
      </trkpt>
      <trkpt lat="48.77617" lon="2.10198">
        <ele>124</ele>
        <time>2019-05-12T07:33:34.000Z</time>
      </trkpt>
      <trkpt lat="48.77617" lon="2.10198">
        <ele>124</ele>
        <time>2019-05-12T07:33:36.000Z</time>
      </trkpt>
      <trkpt lat="48.77618" lon="2.10184">
        <ele>124</ele>
        <time>2019-05-12T07:33:44.000Z</time>
      </trkpt>
      <trkpt lat="48.7762" lon="2.10175">
        <ele>124</ele>
        <time>2019-05-12T07:33:46.000Z</time>
      </trkpt>
      <trkpt lat="48.77621" lon="2.10168">
        <ele>124</ele>
        <time>2019-05-12T07:33:48.000Z</time>
      </trkpt>
      <trkpt lat="48.77623" lon="2.10161">
        <ele>123</ele>
        <time>2019-05-12T07:33:52.000Z</time>
      </trkpt>
      <trkpt lat="48.77623" lon="2.10161">
        <ele>123</ele>
        <time>2019-05-12T07:33:54.000Z</time>
      </trkpt>
      <trkpt lat="48.77623" lon="2.10161">
        <ele>123</ele>
        <time>2019-05-12T07:33:56.000Z</time>
      </trkpt>
      <trkpt lat="48.77623" lon="2.10161">
        <ele>123</ele>
        <time>2019-05-12T07:33:58.000Z</time>
      </trkpt>
      <trkpt lat="48.77624" lon="2.10147">
        <ele>123</ele>
        <time>2019-05-12T07:34:02.000Z</time>
      </trkpt>
      <trkpt lat="48.77625" lon="2.10139">
        <ele>123</ele>
        <time>2019-05-12T07:34:04.000Z</time>
      </trkpt>
      <trkpt lat="48.77625" lon="2.10139">
        <ele>123</ele>
        <time>2019-05-12T07:34:06.000Z</time>
      </trkpt>
      <trkpt lat="48.77625" lon="2.10139">
        <ele>123</ele>
        <time>2019-05-12T07:34:08.000Z</time>
      </trkpt>
      <trkpt lat="48.77625" lon="2.10139">
        <ele>123</ele>
        <time>2019-05-12T07:34:10.000Z</time>
      </trkpt>
      <trkpt lat="48.77625" lon="2.10139">
        <ele>123</ele>
        <time>2019-05-12T07:34:12.000Z</time>
      </trkpt>
      <trkpt lat="48.77625" lon="2.10139">
        <ele>123</ele>
        <time>2019-05-12T07:34:14.000Z</time>
      </trkpt>
      <trkpt lat="48.77626" lon="2.10124">
        <ele>123</ele>
        <time>2019-05-12T07:34:16.000Z</time>
      </trkpt>
      <trkpt lat="48.77627" lon="2.10114">
        <ele>123</ele>
        <time>2019-05-12T07:34:18.000Z</time>
      </trkpt>
      <trkpt lat="48.77628" lon="2.10106">
        <ele>123</ele>
        <time>2019-05-12T07:34:20.000Z</time>
      </trkpt>
      <trkpt lat="48.77628" lon="2.10106">
        <ele>123</ele>
        <time>2019-05-12T07:34:22.000Z</time>
      </trkpt>
      <trkpt lat="48.77628" lon="2.10099">
        <ele>123</ele>
        <time>2019-05-12T07:34:24.000Z</time>
      </trkpt>
      <trkpt lat="48.77628" lon="2.10091">
        <ele>123</ele>
        <time>2019-05-12T07:34:28.000Z</time>
      </trkpt>
      <trkpt lat="48.77628" lon="2.10091">
        <ele>123</ele>
        <time>2019-05-12T07:34:30.000Z</time>
      </trkpt>
      <trkpt lat="48.77628" lon="2.10091">
        <ele>123</ele>
        <time>2019-05-12T07:34:32.000Z</time>
      </trkpt>
      <trkpt lat="48.77629" lon="2.10082">
        <ele>121</ele>
        <time>2019-05-12T07:34:34.000Z</time>
      </trkpt>
      <trkpt lat="48.77629" lon="2.10082">
        <ele>121</ele>
        <time>2019-05-12T07:34:36.000Z</time>
      </trkpt>
      <trkpt lat="48.7763" lon="2.10075">
        <ele>121</ele>
        <time>2019-05-12T07:34:38.000Z</time>
      </trkpt>
      <trkpt lat="48.7763" lon="2.10075">
        <ele>121</ele>
        <time>2019-05-12T07:34:40.000Z</time>
      </trkpt>
      <trkpt lat="48.7763" lon="2.10075">
        <ele>121</ele>
        <time>2019-05-12T07:34:42.000Z</time>
      </trkpt>
      <trkpt lat="48.7763" lon="2.10075">
        <ele>121</ele>
        <time>2019-05-12T07:34:44.000Z</time>
      </trkpt>
      <trkpt lat="48.77634" lon="2.10064">
        <ele>121</ele>
        <time>2019-05-12T07:34:50.000Z</time>
      </trkpt>
      <trkpt lat="48.77636" lon="2.10057">
        <ele>120</ele>
        <time>2019-05-12T07:34:52.000Z</time>
      </trkpt>
      <trkpt lat="48.77636" lon="2.10057">
        <ele>120</ele>
        <time>2019-05-12T07:34:56.000Z</time>
      </trkpt>
      <trkpt lat="48.77636" lon="2.10057">
        <ele>120</ele>
        <time>2019-05-12T07:34:58.000Z</time>
      </trkpt>
      <trkpt lat="48.77642" lon="2.10046">
        <ele>120</ele>
        <time>2019-05-12T07:35:02.000Z</time>
      </trkpt>
      <trkpt lat="48.77645" lon="2.10038">
        <ele>120</ele>
        <time>2019-05-12T07:35:04.000Z</time>
      </trkpt>
      <trkpt lat="48.77649" lon="2.10031">
        <ele>120</ele>
        <time>2019-05-12T07:35:08.000Z</time>
      </trkpt>
      <trkpt lat="48.77654" lon="2.10027">
        <ele>119</ele>
        <time>2019-05-12T07:35:12.000Z</time>
      </trkpt>
      <trkpt lat="48.77658" lon="2.10023">
        <ele>119</ele>
        <time>2019-05-12T07:35:14.000Z</time>
      </trkpt>
      <trkpt lat="48.77658" lon="2.10023">
        <ele>119</ele>
        <time>2019-05-12T07:35:16.000Z</time>
      </trkpt>
      <trkpt lat="48.77658" lon="2.10023">
        <ele>119</ele>
        <time>2019-05-12T07:35:18.000Z</time>
      </trkpt>
      <trkpt lat="48.77658" lon="2.10023">
        <ele>119</ele>
        <time>2019-05-12T07:35:20.000Z</time>
      </trkpt>
      <trkpt lat="48.77666" lon="2.10022">
        <ele>119</ele>
        <time>2019-05-12T07:35:24.000Z</time>
      </trkpt>
      <trkpt lat="48.77671" lon="2.10021">
        <ele>121</ele>
        <time>2019-05-12T07:35:26.000Z</time>
      </trkpt>
      <trkpt lat="48.77677" lon="2.10022">
        <ele>122</ele>
        <time>2019-05-12T07:35:30.000Z</time>
      </trkpt>
      <trkpt lat="48.77677" lon="2.10022">
        <ele>122</ele>
        <time>2019-05-12T07:35:32.000Z</time>
      </trkpt>
      <trkpt lat="48.77677" lon="2.10022">
        <ele>122</ele>
        <time>2019-05-12T07:35:34.000Z</time>
      </trkpt>
      <trkpt lat="48.77684" lon="2.10024">
        <ele>122</ele>
        <time>2019-05-12T07:35:36.000Z</time>
      </trkpt>
      <trkpt lat="48.77689" lon="2.10025">
        <ele>123</ele>
        <time>2019-05-12T07:35:38.000Z</time>
      </trkpt>
      <trkpt lat="48.77694" lon="2.10026">
        <ele>123</ele>
        <time>2019-05-12T07:35:40.000Z</time>
      </trkpt>
      <trkpt lat="48.77694" lon="2.10026">
        <ele>123</ele>
        <time>2019-05-12T07:35:42.000Z</time>
      </trkpt>
      <trkpt lat="48.77701" lon="2.1003">
        <ele>123</ele>
        <time>2019-05-12T07:35:46.000Z</time>
      </trkpt>
      <trkpt lat="48.77701" lon="2.1003">
        <ele>123</ele>
        <time>2019-05-12T07:35:48.000Z</time>
      </trkpt>
      <trkpt lat="48.77701" lon="2.1003">
        <ele>123</ele>
        <time>2019-05-12T07:35:50.000Z</time>
      </trkpt>
      <trkpt lat="48.77701" lon="2.1003">
        <ele>123</ele>
        <time>2019-05-12T07:35:52.000Z</time>
      </trkpt>
      <trkpt lat="48.77701" lon="2.1003">
        <ele>123</ele>
        <time>2019-05-12T07:35:54.000Z</time>
      </trkpt>
      <trkpt lat="48.77701" lon="2.1003">
        <ele>123</ele>
        <time>2019-05-12T07:35:56.000Z</time>
      </trkpt>
      <trkpt lat="48.77701" lon="2.1003">
        <ele>123</ele>
        <time>2019-05-12T07:35:58.000Z</time>
      </trkpt>
      <trkpt lat="48.77701" lon="2.1003">
        <ele>123</ele>
        <time>2019-05-12T07:36:00.000Z</time>
      </trkpt>
      <trkpt lat="48.77701" lon="2.1003">
        <ele>123</ele>
        <time>2019-05-12T07:36:04.000Z</time>
      </trkpt>
      <trkpt lat="48.77701" lon="2.1003">
        <ele>123</ele>
        <time>2019-05-12T07:36:06.000Z</time>
      </trkpt>
      <trkpt lat="48.77701" lon="2.1003">
        <ele>123</ele>
        <time>2019-05-12T07:36:08.000Z</time>
      </trkpt>
      <trkpt lat="48.77701" lon="2.1003">
        <ele>123</ele>
        <time>2019-05-12T07:36:10.000Z</time>
      </trkpt>
      <trkpt lat="48.77717" lon="2.10028">
        <ele>124</ele>
        <time>2019-05-12T07:36:12.000Z</time>
      </trkpt>
      <trkpt lat="48.77727" lon="2.10028">
        <ele>124</ele>
        <time>2019-05-12T07:36:14.000Z</time>
      </trkpt>
      <trkpt lat="48.77734" lon="2.10027">
        <ele>124</ele>
        <time>2019-05-12T07:36:18.000Z</time>
      </trkpt>
      <trkpt lat="48.7774" lon="2.10025">
        <ele>123</ele>
        <time>2019-05-12T07:36:22.000Z</time>
      </trkpt>
      <trkpt lat="48.77745" lon="2.10024">
        <ele>123</ele>
        <time>2019-05-12T07:36:26.000Z</time>
      </trkpt>
      <trkpt lat="48.77745" lon="2.10024">
        <ele>123</ele>
        <time>2019-05-12T07:36:28.000Z</time>
      </trkpt>
      <trkpt lat="48.77745" lon="2.10024">
        <ele>123</ele>
        <time>2019-05-12T07:36:30.000Z</time>
      </trkpt>
      <trkpt lat="48.77745" lon="2.10024">
        <ele>123</ele>
        <time>2019-05-12T07:36:32.000Z</time>
      </trkpt>
      <trkpt lat="48.77745" lon="2.10024">
        <ele>123</ele>
        <time>2019-05-12T07:36:34.000Z</time>
      </trkpt>
      <trkpt lat="48.77745" lon="2.10024">
        <ele>123</ele>
        <time>2019-05-12T07:36:36.000Z</time>
      </trkpt>
      <trkpt lat="48.77755" lon="2.10024">
        <ele>128</ele>
        <time>2019-05-12T07:36:40.000Z</time>
      </trkpt>
      <trkpt lat="48.77763" lon="2.10024">
        <ele>128</ele>
        <time>2019-05-12T07:36:42.000Z</time>
      </trkpt>
      <trkpt lat="48.7777" lon="2.10025">
        <ele>129</ele>
        <time>2019-05-12T07:36:46.000Z</time>
      </trkpt>
      <trkpt lat="48.7777" lon="2.10025">
        <ele>129</ele>
        <time>2019-05-12T07:36:48.000Z</time>
      </trkpt>
      <trkpt lat="48.77777" lon="2.10024">
        <ele>130</ele>
        <time>2019-05-12T07:36:50.000Z</time>
      </trkpt>
      <trkpt lat="48.77784" lon="2.10024">
        <ele>130</ele>
        <time>2019-05-12T07:36:54.000Z</time>
      </trkpt>
      <trkpt lat="48.77784" lon="2.10024">
        <ele>130</ele>
        <time>2019-05-12T07:36:56.000Z</time>
      </trkpt>
      <trkpt lat="48.77784" lon="2.10024">
        <ele>130</ele>
        <time>2019-05-12T07:36:58.000Z</time>
      </trkpt>
      <trkpt lat="48.77791" lon="2.10021">
        <ele>131</ele>
        <time>2019-05-12T07:37:00.000Z</time>
      </trkpt>
      <trkpt lat="48.77791" lon="2.10021">
        <ele>131</ele>
        <time>2019-05-12T07:37:04.000Z</time>
      </trkpt>
      <trkpt lat="48.77791" lon="2.10021">
        <ele>131</ele>
        <time>2019-05-12T07:37:06.000Z</time>
      </trkpt>
      <trkpt lat="48.77791" lon="2.10021">
        <ele>131</ele>
        <time>2019-05-12T07:37:08.000Z</time>
      </trkpt>
      <trkpt lat="48.77791" lon="2.10021">
        <ele>131</ele>
        <time>2019-05-12T07:37:10.000Z</time>
      </trkpt>
      <trkpt lat="48.77791" lon="2.10021">
        <ele>131</ele>
        <time>2019-05-12T07:37:12.000Z</time>
      </trkpt>
      <trkpt lat="48.77791" lon="2.10021">
        <ele>131</ele>
        <time>2019-05-12T07:37:14.000Z</time>
      </trkpt>
      <trkpt lat="48.77791" lon="2.10021">
        <ele>131</ele>
        <time>2019-05-12T07:37:16.000Z</time>
      </trkpt>
      <trkpt lat="48.77799" lon="2.10004">
        <ele>131</ele>
        <time>2019-05-12T07:37:20.000Z</time>
      </trkpt>
      <trkpt lat="48.77799" lon="2.10004">
        <ele>131</ele>
        <time>2019-05-12T07:37:22.000Z</time>
      </trkpt>
      <trkpt lat="48.77799" lon="2.10004">
        <ele>131</ele>
        <time>2019-05-12T07:37:24.000Z</time>
      </trkpt>
      <trkpt lat="48.77799" lon="2.10004">
        <ele>131</ele>
        <time>2019-05-12T07:37:43.000Z</time>
      </trkpt>
      <trkpt lat="48.77808" lon="2.09969">
        <ele>125</ele>
        <time>2019-05-12T07:37:55.000Z</time>
      </trkpt>
      <trkpt lat="48.77813" lon="2.09949">
        <ele>124</ele>
        <time>2019-05-12T07:37:57.000Z</time>
      </trkpt>
      <trkpt lat="48.77813" lon="2.09949">
        <ele>124</ele>
        <time>2019-05-12T07:37:59.000Z</time>
      </trkpt>
      <trkpt lat="48.77817" lon="2.09935">
        <ele>124</ele>
        <time>2019-05-12T07:38:01.000Z</time>
      </trkpt>
      <trkpt lat="48.77819" lon="2.09925">
        <ele>124</ele>
        <time>2019-05-12T07:38:03.000Z</time>
      </trkpt>
      <trkpt lat="48.77822" lon="2.09918">
        <ele>124</ele>
        <time>2019-05-12T07:38:05.000Z</time>
      </trkpt>
      <trkpt lat="48.77822" lon="2.09918">
        <ele>124</ele>
        <time>2019-05-12T07:38:07.000Z</time>
      </trkpt>
      <trkpt lat="48.77822" lon="2.09918">
        <ele>124</ele>
        <time>2019-05-12T07:38:09.000Z</time>
      </trkpt>
      <trkpt lat="48.77822" lon="2.09918">
        <ele>124</ele>
        <time>2019-05-12T07:38:11.000Z</time>
      </trkpt>
      <trkpt lat="48.77826" lon="2.0991">
        <ele>123</ele>
        <time>2019-05-12T07:38:13.000Z</time>
      </trkpt>
      <trkpt lat="48.77829" lon="2.09904">
        <ele>123</ele>
        <time>2019-05-12T07:38:15.000Z</time>
      </trkpt>
      <trkpt lat="48.77829" lon="2.09904">
        <ele>123</ele>
        <time>2019-05-12T07:38:17.000Z</time>
      </trkpt>
      <trkpt lat="48.77833" lon="2.09899">
        <ele>122</ele>
        <time>2019-05-12T07:38:19.000Z</time>
      </trkpt>
      <trkpt lat="48.77833" lon="2.09899">
        <ele>122</ele>
        <time>2019-05-12T07:38:21.000Z</time>
      </trkpt>
      <trkpt lat="48.77833" lon="2.09899">
        <ele>122</ele>
        <time>2019-05-12T07:38:23.000Z</time>
      </trkpt>
      <trkpt lat="48.77833" lon="2.09899">
        <ele>122</ele>
        <time>2019-05-12T07:38:25.000Z</time>
      </trkpt>
      <trkpt lat="48.77833" lon="2.09899">
        <ele>122</ele>
        <time>2019-05-12T07:38:27.000Z</time>
      </trkpt>
      <trkpt lat="48.77833" lon="2.09899">
        <ele>122</ele>
        <time>2019-05-12T07:38:29.000Z</time>
      </trkpt>
      <trkpt lat="48.77833" lon="2.09899">
        <ele>122</ele>
        <time>2019-05-12T07:38:31.000Z</time>
      </trkpt>
      <trkpt lat="48.77833" lon="2.09899">
        <ele>122</ele>
        <time>2019-05-12T07:38:33.000Z</time>
      </trkpt>
      <trkpt lat="48.77833" lon="2.09899">
        <ele>122</ele>
        <time>2019-05-12T07:38:35.000Z</time>
      </trkpt>
      <trkpt lat="48.77833" lon="2.09899">
        <ele>122</ele>
        <time>2019-05-12T07:38:37.000Z</time>
      </trkpt>
      <trkpt lat="48.77833" lon="2.09899">
        <ele>122</ele>
        <time>2019-05-12T07:38:41.000Z</time>
      </trkpt>
      <trkpt lat="48.77833" lon="2.09899">
        <ele>122</ele>
        <time>2019-05-12T07:38:43.000Z</time>
      </trkpt>
      <trkpt lat="48.77851" lon="2.09884">
        <ele>123</ele>
        <time>2019-05-12T07:38:53.000Z</time>
      </trkpt>
      <trkpt lat="48.77851" lon="2.09884">
        <ele>123</ele>
        <time>2019-05-12T07:38:55.000Z</time>
      </trkpt>
      <trkpt lat="48.77851" lon="2.09884">
        <ele>123</ele>
        <time>2019-05-12T07:38:57.000Z</time>
      </trkpt>
      <trkpt lat="48.77851" lon="2.09884">
        <ele>123</ele>
        <time>2019-05-12T07:38:59.000Z</time>
      </trkpt>
      <trkpt lat="48.77867" lon="2.09879">
        <ele>123</ele>
        <time>2019-05-12T07:39:03.000Z</time>
      </trkpt>
      <trkpt lat="48.77876" lon="2.09878">
        <ele>123</ele>
        <time>2019-05-12T07:39:05.000Z</time>
      </trkpt>
      <trkpt lat="48.77882" lon="2.09878">
        <ele>124</ele>
        <time>2019-05-12T07:39:07.000Z</time>
      </trkpt>
      <trkpt lat="48.77887" lon="2.09878">
        <ele>124</ele>
        <time>2019-05-12T07:39:09.000Z</time>
      </trkpt>
      <trkpt lat="48.77893" lon="2.09882">
        <ele>124</ele>
        <time>2019-05-12T07:39:13.000Z</time>
      </trkpt>
      <trkpt lat="48.779" lon="2.09884">
        <ele>125</ele>
        <time>2019-05-12T07:39:15.000Z</time>
      </trkpt>
      <trkpt lat="48.77906" lon="2.09884">
        <ele>125</ele>
        <time>2019-05-12T07:39:17.000Z</time>
      </trkpt>
      <trkpt lat="48.77906" lon="2.09884">
        <ele>125</ele>
        <time>2019-05-12T07:39:19.000Z</time>
      </trkpt>
      <trkpt lat="48.77906" lon="2.09884">
        <ele>125</ele>
        <time>2019-05-12T07:39:21.000Z</time>
      </trkpt>
      <trkpt lat="48.77906" lon="2.09884">
        <ele>125</ele>
        <time>2019-05-12T07:39:23.000Z</time>
      </trkpt>
      <trkpt lat="48.77916" lon="2.0989">
        <ele>126</ele>
        <time>2019-05-12T07:39:29.000Z</time>
      </trkpt>
      <trkpt lat="48.77924" lon="2.09894">
        <ele>128</ele>
        <time>2019-05-12T07:39:33.000Z</time>
      </trkpt>
      <trkpt lat="48.77929" lon="2.09898">
        <ele>129</ele>
        <time>2019-05-12T07:39:35.000Z</time>
      </trkpt>
      <trkpt lat="48.77929" lon="2.09898">
        <ele>129</ele>
        <time>2019-05-12T07:39:37.000Z</time>
      </trkpt>
      <trkpt lat="48.77929" lon="2.09898">
        <ele>129</ele>
        <time>2019-05-12T07:39:39.000Z</time>
      </trkpt>
      <trkpt lat="48.77929" lon="2.09898">
        <ele>129</ele>
        <time>2019-05-12T07:39:41.000Z</time>
      </trkpt>
      <trkpt lat="48.77938" lon="2.09904">
        <ele>129</ele>
        <time>2019-05-12T07:39:45.000Z</time>
      </trkpt>
      <trkpt lat="48.77943" lon="2.09907">
        <ele>129</ele>
        <time>2019-05-12T07:39:47.000Z</time>
      </trkpt>
      <trkpt lat="48.77943" lon="2.09907">
        <ele>129</ele>
        <time>2019-05-12T07:39:49.000Z</time>
      </trkpt>
      <trkpt lat="48.77943" lon="2.09907">
        <ele>129</ele>
        <time>2019-05-12T07:39:51.000Z</time>
      </trkpt>
      <trkpt lat="48.77952" lon="2.09912">
        <ele>129</ele>
        <time>2019-05-12T07:39:57.000Z</time>
      </trkpt>
      <trkpt lat="48.77958" lon="2.09915">
        <ele>129</ele>
        <time>2019-05-12T07:39:59.000Z</time>
      </trkpt>
      <trkpt lat="48.77958" lon="2.09915">
        <ele>129</ele>
        <time>2019-05-12T07:40:01.000Z</time>
      </trkpt>
      <trkpt lat="48.77958" lon="2.09915">
        <ele>129</ele>
        <time>2019-05-12T07:40:03.000Z</time>
      </trkpt>
      <trkpt lat="48.77958" lon="2.09915">
        <ele>129</ele>
        <time>2019-05-12T07:40:05.000Z</time>
      </trkpt>
      <trkpt lat="48.77968" lon="2.09918">
        <ele>139</ele>
        <time>2019-05-12T07:40:09.000Z</time>
      </trkpt>
      <trkpt lat="48.77975" lon="2.0992">
        <ele>138</ele>
        <time>2019-05-12T07:40:11.000Z</time>
      </trkpt>
      <trkpt lat="48.77982" lon="2.09921">
        <ele>138</ele>
        <time>2019-05-12T07:40:17.000Z</time>
      </trkpt>
      <trkpt lat="48.77989" lon="2.0992">
        <ele>137</ele>
        <time>2019-05-12T07:40:23.000Z</time>
      </trkpt>
      <trkpt lat="48.77989" lon="2.0992">
        <ele>137</ele>
        <time>2019-05-12T07:40:25.000Z</time>
      </trkpt>
      <trkpt lat="48.77989" lon="2.0992">
        <ele>137</ele>
        <time>2019-05-12T07:40:27.000Z</time>
      </trkpt>
      <trkpt lat="48.77989" lon="2.0992">
        <ele>137</ele>
        <time>2019-05-12T07:40:29.000Z</time>
      </trkpt>
      <trkpt lat="48.77989" lon="2.0992">
        <ele>137</ele>
        <time>2019-05-12T07:40:31.000Z</time>
      </trkpt>
      <trkpt lat="48.77989" lon="2.0992">
        <ele>137</ele>
        <time>2019-05-12T07:40:33.000Z</time>
      </trkpt>
      <trkpt lat="48.77989" lon="2.0992">
        <ele>137</ele>
        <time>2019-05-12T07:40:35.000Z</time>
      </trkpt>
      <trkpt lat="48.77989" lon="2.0992">
        <ele>137</ele>
        <time>2019-05-12T07:40:37.000Z</time>
      </trkpt>
      <trkpt lat="48.78003" lon="2.09915">
        <ele>134</ele>
        <time>2019-05-12T07:40:43.000Z</time>
      </trkpt>
      <trkpt lat="48.7801" lon="2.09912">
        <ele>134</ele>
        <time>2019-05-12T07:40:45.000Z</time>
      </trkpt>
      <trkpt lat="48.7801" lon="2.09912">
        <ele>134</ele>
        <time>2019-05-12T07:40:49.000Z</time>
      </trkpt>
      <trkpt lat="48.78017" lon="2.09909">
        <ele>134</ele>
        <time>2019-05-12T07:40:51.000Z</time>
      </trkpt>
      <trkpt lat="48.78024" lon="2.09906">
        <ele>134</ele>
        <time>2019-05-12T07:40:55.000Z</time>
      </trkpt>
      <trkpt lat="48.78024" lon="2.09906">
        <ele>134</ele>
        <time>2019-05-12T07:40:57.000Z</time>
      </trkpt>
      <trkpt lat="48.78024" lon="2.09906">
        <ele>134</ele>
        <time>2019-05-12T07:40:59.000Z</time>
      </trkpt>
      <trkpt lat="48.78024" lon="2.09906">
        <ele>134</ele>
        <time>2019-05-12T07:41:01.000Z</time>
      </trkpt>
      <trkpt lat="48.78032" lon="2.099">
        <ele>135</ele>
        <time>2019-05-12T07:41:03.000Z</time>
      </trkpt>
      <trkpt lat="48.78032" lon="2.099">
        <ele>135</ele>
        <time>2019-05-12T07:41:05.000Z</time>
      </trkpt>
      <trkpt lat="48.78037" lon="2.09893">
        <ele>135</ele>
        <time>2019-05-12T07:41:07.000Z</time>
      </trkpt>
      <trkpt lat="48.78043" lon="2.09884">
        <ele>135</ele>
        <time>2019-05-12T07:41:11.000Z</time>
      </trkpt>
      <trkpt lat="48.78048" lon="2.09878">
        <ele>135</ele>
        <time>2019-05-12T07:41:16.000Z</time>
      </trkpt>
      <trkpt lat="48.78048" lon="2.09878">
        <ele>135</ele>
        <time>2019-05-12T07:41:17.000Z</time>
      </trkpt>
      <trkpt lat="48.78048" lon="2.09878">
        <ele>135</ele>
        <time>2019-05-12T07:41:19.000Z</time>
      </trkpt>
      <trkpt lat="48.78048" lon="2.09878">
        <ele>135</ele>
        <time>2019-05-12T07:41:21.000Z</time>
      </trkpt>
      <trkpt lat="48.78048" lon="2.09878">
        <ele>135</ele>
        <time>2019-05-12T07:41:23.000Z</time>
      </trkpt>
      <trkpt lat="48.78048" lon="2.09878">
        <ele>135</ele>
        <time>2019-05-12T07:41:25.000Z</time>
      </trkpt>
      <trkpt lat="48.78048" lon="2.09878">
        <ele>135</ele>
        <time>2019-05-12T07:41:27.000Z</time>
      </trkpt>
      <trkpt lat="48.78057" lon="2.09861">
        <ele>134</ele>
        <time>2019-05-12T07:41:33.000Z</time>
      </trkpt>
      <trkpt lat="48.78062" lon="2.09852">
        <ele>134</ele>
        <time>2019-05-12T07:41:35.000Z</time>
      </trkpt>
      <trkpt lat="48.78062" lon="2.09852">
        <ele>134</ele>
        <time>2019-05-12T07:41:37.000Z</time>
      </trkpt>
      <trkpt lat="48.78062" lon="2.09852">
        <ele>134</ele>
        <time>2019-05-12T07:41:39.000Z</time>
      </trkpt>
      <trkpt lat="48.78062" lon="2.09852">
        <ele>134</ele>
        <time>2019-05-12T07:41:41.000Z</time>
      </trkpt>
      <trkpt lat="48.78062" lon="2.09852">
        <ele>134</ele>
        <time>2019-05-12T07:41:43.000Z</time>
      </trkpt>
      <trkpt lat="48.78062" lon="2.09852">
        <ele>134</ele>
        <time>2019-05-12T07:42:15.000Z</time>
      </trkpt>
      <trkpt lat="48.7806" lon="2.09778">
        <ele>128</ele>
        <time>2019-05-12T07:44:07.000Z</time>
      </trkpt>
      <trkpt lat="48.78058" lon="2.09739">
        <ele>128</ele>
        <time>2019-05-12T07:44:09.000Z</time>
      </trkpt>
      <trkpt lat="48.78057" lon="2.09716">
        <ele>127</ele>
        <time>2019-05-12T07:44:11.000Z</time>
      </trkpt>
      <trkpt lat="48.78056" lon="2.09703">
        <ele>127</ele>
        <time>2019-05-12T07:44:13.000Z</time>
      </trkpt>
      <trkpt lat="48.78056" lon="2.09703">
        <ele>127</ele>
        <time>2019-05-12T07:44:15.000Z</time>
      </trkpt>
      <trkpt lat="48.78056" lon="2.09703">
        <ele>127</ele>
        <time>2019-05-12T07:44:17.000Z</time>
      </trkpt>
      <trkpt lat="48.78052" lon="2.09692">
        <ele>127</ele>
        <time>2019-05-12T07:44:19.000Z</time>
      </trkpt>
      <trkpt lat="48.7805" lon="2.09685">
        <ele>127</ele>
        <time>2019-05-12T07:44:21.000Z</time>
      </trkpt>
      <trkpt lat="48.7805" lon="2.09685">
        <ele>127</ele>
        <time>2019-05-12T07:44:25.000Z</time>
      </trkpt>
      <trkpt lat="48.7805" lon="2.09685">
        <ele>127</ele>
        <time>2019-05-12T07:44:27.000Z</time>
      </trkpt>
      <trkpt lat="48.7805" lon="2.09685">
        <ele>127</ele>
        <time>2019-05-12T07:44:29.000Z</time>
      </trkpt>
      <trkpt lat="48.7805" lon="2.09685">
        <ele>127</ele>
        <time>2019-05-12T07:44:34.000Z</time>
      </trkpt>
      <trkpt lat="48.78046" lon="2.09672">
        <ele>127</ele>
        <time>2019-05-12T07:44:36.000Z</time>
      </trkpt>
      <trkpt lat="48.78043" lon="2.09664">
        <ele>129</ele>
        <time>2019-05-12T07:44:38.000Z</time>
      </trkpt>
      <trkpt lat="48.78043" lon="2.09664">
        <ele>129</ele>
        <time>2019-05-12T07:44:44.000Z</time>
      </trkpt>
      <trkpt lat="48.78043" lon="2.09664">
        <ele>129</ele>
        <time>2019-05-12T07:44:46.000Z</time>
      </trkpt>
      <trkpt lat="48.78043" lon="2.09664">
        <ele>129</ele>
        <time>2019-05-12T07:44:48.000Z</time>
      </trkpt>
      <trkpt lat="48.78043" lon="2.09664">
        <ele>129</ele>
        <time>2019-05-12T07:44:50.000Z</time>
      </trkpt>
      <trkpt lat="48.78043" lon="2.09664">
        <ele>129</ele>
        <time>2019-05-12T07:44:52.000Z</time>
      </trkpt>
      <trkpt lat="48.7804" lon="2.09632">
        <ele>129</ele>
        <time>2019-05-12T07:45:23.000Z</time>
      </trkpt>
      <trkpt lat="48.78037" lon="2.09613">
        <ele>130</ele>
        <time>2019-05-12T07:45:25.000Z</time>
      </trkpt>
      <trkpt lat="48.78037" lon="2.09613">
        <ele>130</ele>
        <time>2019-05-12T07:45:27.000Z</time>
      </trkpt>
      <trkpt lat="48.78037" lon="2.09613">
        <ele>130</ele>
        <time>2019-05-12T07:45:29.000Z</time>
      </trkpt>
      <trkpt lat="48.78037" lon="2.09613">
        <ele>130</ele>
        <time>2019-05-12T07:45:31.000Z</time>
      </trkpt>
      <trkpt lat="48.78037" lon="2.09613">
        <ele>130</ele>
        <time>2019-05-12T07:45:33.000Z</time>
      </trkpt>
      <trkpt lat="48.78037" lon="2.09613">
        <ele>130</ele>
        <time>2019-05-12T07:45:37.000Z</time>
      </trkpt>
      <trkpt lat="48.7804" lon="2.09586">
        <ele>130</ele>
        <time>2019-05-12T07:45:51.000Z</time>
      </trkpt>
      <trkpt lat="48.78041" lon="2.09571">
        <ele>133</ele>
        <time>2019-05-12T07:45:53.000Z</time>
      </trkpt>
      <trkpt lat="48.78043" lon="2.09561">
        <ele>133</ele>
        <time>2019-05-12T07:45:55.000Z</time>
      </trkpt>
      <trkpt lat="48.78045" lon="2.09553">
        <ele>133</ele>
        <time>2019-05-12T07:45:59.000Z</time>
      </trkpt>
      <trkpt lat="48.78045" lon="2.09553">
        <ele>133</ele>
        <time>2019-05-12T07:46:01.000Z</time>
      </trkpt>
      <trkpt lat="48.78045" lon="2.09553">
        <ele>133</ele>
        <time>2019-05-12T07:46:03.000Z</time>
      </trkpt>
      <trkpt lat="48.78045" lon="2.09553">
        <ele>133</ele>
        <time>2019-05-12T07:46:05.000Z</time>
      </trkpt>
      <trkpt lat="48.78045" lon="2.09553">
        <ele>133</ele>
        <time>2019-05-12T07:46:07.000Z</time>
      </trkpt>
      <trkpt lat="48.78045" lon="2.09539">
        <ele>133</ele>
        <time>2019-05-12T07:46:11.000Z</time>
      </trkpt>
      <trkpt lat="48.78044" lon="2.0953">
        <ele>134</ele>
        <time>2019-05-12T07:46:13.000Z</time>
      </trkpt>
      <trkpt lat="48.78042" lon="2.09523">
        <ele>133</ele>
        <time>2019-05-12T07:46:17.000Z</time>
      </trkpt>
      <trkpt lat="48.78042" lon="2.09523">
        <ele>133</ele>
        <time>2019-05-12T07:46:19.000Z</time>
      </trkpt>
      <trkpt lat="48.78042" lon="2.09523">
        <ele>133</ele>
        <time>2019-05-12T07:46:21.000Z</time>
      </trkpt>
      <trkpt lat="48.7804" lon="2.09516">
        <ele>133</ele>
        <time>2019-05-12T07:46:23.000Z</time>
      </trkpt>
      <trkpt lat="48.7804" lon="2.09516">
        <ele>133</ele>
        <time>2019-05-12T07:46:25.000Z</time>
      </trkpt>
      <trkpt lat="48.78038" lon="2.09509">
        <ele>133</ele>
        <time>2019-05-12T07:46:27.000Z</time>
      </trkpt>
      <trkpt lat="48.78038" lon="2.09509">
        <ele>133</ele>
        <time>2019-05-12T07:46:29.000Z</time>
      </trkpt>
      <trkpt lat="48.78038" lon="2.09509">
        <ele>133</ele>
        <time>2019-05-12T07:46:31.000Z</time>
      </trkpt>
      <trkpt lat="48.78035" lon="2.095">
        <ele>133</ele>
        <time>2019-05-12T07:46:35.000Z</time>
      </trkpt>
      <trkpt lat="48.78033" lon="2.09493">
        <ele>133</ele>
        <time>2019-05-12T07:46:37.000Z</time>
      </trkpt>
      <trkpt lat="48.78032" lon="2.09486">
        <ele>133</ele>
        <time>2019-05-12T07:46:41.000Z</time>
      </trkpt>
      <trkpt lat="48.78032" lon="2.09486">
        <ele>133</ele>
        <time>2019-05-12T07:46:43.000Z</time>
      </trkpt>
      <trkpt lat="48.78032" lon="2.09486">
        <ele>133</ele>
        <time>2019-05-12T07:46:45.000Z</time>
      </trkpt>
      <trkpt lat="48.78032" lon="2.09486">
        <ele>133</ele>
        <time>2019-05-12T07:46:47.000Z</time>
      </trkpt>
      <trkpt lat="48.78032" lon="2.09486">
        <ele>133</ele>
        <time>2019-05-12T07:46:49.000Z</time>
      </trkpt>
      <trkpt lat="48.78032" lon="2.09486">
        <ele>133</ele>
        <time>2019-05-12T07:46:51.000Z</time>
      </trkpt>
      <trkpt lat="48.78032" lon="2.09486">
        <ele>133</ele>
        <time>2019-05-12T07:46:53.000Z</time>
      </trkpt>
      <trkpt lat="48.78031" lon="2.09475">
        <ele>133</ele>
        <time>2019-05-12T07:46:55.000Z</time>
      </trkpt>
      <trkpt lat="48.7803" lon="2.09467">
        <ele>133</ele>
        <time>2019-05-12T07:46:57.000Z</time>
      </trkpt>
      <trkpt lat="48.7803" lon="2.09467">
        <ele>133</ele>
        <time>2019-05-12T07:46:59.000Z</time>
      </trkpt>
      <trkpt lat="48.78029" lon="2.09459">
        <ele>133</ele>
        <time>2019-05-12T07:47:01.000Z</time>
      </trkpt>
      <trkpt lat="48.78029" lon="2.09459">
        <ele>133</ele>
        <time>2019-05-12T07:47:03.000Z</time>
      </trkpt>
      <trkpt lat="48.78028" lon="2.09451">
        <ele>133</ele>
        <time>2019-05-12T07:47:05.000Z</time>
      </trkpt>
      <trkpt lat="48.78028" lon="2.09451">
        <ele>133</ele>
        <time>2019-05-12T07:47:07.000Z</time>
      </trkpt>
      <trkpt lat="48.78028" lon="2.09451">
        <ele>133</ele>
        <time>2019-05-12T07:47:09.000Z</time>
      </trkpt>
      <trkpt lat="48.78028" lon="2.09451">
        <ele>133</ele>
        <time>2019-05-12T07:47:11.000Z</time>
      </trkpt>
      <trkpt lat="48.78027" lon="2.09441">
        <ele>133</ele>
        <time>2019-05-12T07:47:13.000Z</time>
      </trkpt>
      <trkpt lat="48.78027" lon="2.09433">
        <ele>133</ele>
        <time>2019-05-12T07:47:15.000Z</time>
      </trkpt>
      <trkpt lat="48.78027" lon="2.09433">
        <ele>133</ele>
        <time>2019-05-12T07:47:17.000Z</time>
      </trkpt>
      <trkpt lat="48.78027" lon="2.09433">
        <ele>133</ele>
        <time>2019-05-12T07:47:19.000Z</time>
      </trkpt>
      <trkpt lat="48.78029" lon="2.09421">
        <ele>133</ele>
        <time>2019-05-12T07:47:23.000Z</time>
      </trkpt>
      <trkpt lat="48.7803" lon="2.09414">
        <ele>133</ele>
        <time>2019-05-12T07:47:25.000Z</time>
      </trkpt>
      <trkpt lat="48.7803" lon="2.09414">
        <ele>133</ele>
        <time>2019-05-12T07:47:27.000Z</time>
      </trkpt>
      <trkpt lat="48.7803" lon="2.09414">
        <ele>133</ele>
        <time>2019-05-12T07:47:29.000Z</time>
      </trkpt>
      <trkpt lat="48.78031" lon="2.09405">
        <ele>133</ele>
        <time>2019-05-12T07:47:31.000Z</time>
      </trkpt>
      <trkpt lat="48.78031" lon="2.09405">
        <ele>133</ele>
        <time>2019-05-12T07:47:35.000Z</time>
      </trkpt>
      <trkpt lat="48.78031" lon="2.09405">
        <ele>133</ele>
        <time>2019-05-12T07:47:37.000Z</time>
      </trkpt>
      <trkpt lat="48.78031" lon="2.09405">
        <ele>133</ele>
        <time>2019-05-12T07:47:39.000Z</time>
      </trkpt>
      <trkpt lat="48.78031" lon="2.09405">
        <ele>133</ele>
        <time>2019-05-12T07:47:41.000Z</time>
      </trkpt>
      <trkpt lat="48.78033" lon="2.09387">
        <ele>134</ele>
        <time>2019-05-12T07:47:45.000Z</time>
      </trkpt>
      <trkpt lat="48.78035" lon="2.09376">
        <ele>134</ele>
        <time>2019-05-12T07:47:47.000Z</time>
      </trkpt>
      <trkpt lat="48.78035" lon="2.09369">
        <ele>134</ele>
        <time>2019-05-12T07:47:49.000Z</time>
      </trkpt>
      <trkpt lat="48.78035" lon="2.09369">
        <ele>134</ele>
        <time>2019-05-12T07:47:51.000Z</time>
      </trkpt>
      <trkpt lat="48.78036" lon="2.09362">
        <ele>134</ele>
        <time>2019-05-12T07:47:53.000Z</time>
      </trkpt>
      <trkpt lat="48.78036" lon="2.09362">
        <ele>134</ele>
        <time>2019-05-12T07:47:55.000Z</time>
      </trkpt>
      <trkpt lat="48.78036" lon="2.09354">
        <ele>134</ele>
        <time>2019-05-12T07:47:57.000Z</time>
      </trkpt>
      <trkpt lat="48.78036" lon="2.09346">
        <ele>134</ele>
        <time>2019-05-12T07:48:01.000Z</time>
      </trkpt>
      <trkpt lat="48.78036" lon="2.09346">
        <ele>134</ele>
        <time>2019-05-12T07:48:05.000Z</time>
      </trkpt>
      <trkpt lat="48.78036" lon="2.09346">
        <ele>134</ele>
        <time>2019-05-12T07:48:07.000Z</time>
      </trkpt>
      <trkpt lat="48.78036" lon="2.09346">
        <ele>134</ele>
        <time>2019-05-12T07:48:11.000Z</time>
      </trkpt>
      <trkpt lat="48.78037" lon="2.09328">
        <ele>133</ele>
        <time>2019-05-12T07:48:17.000Z</time>
      </trkpt>
      <trkpt lat="48.78038" lon="2.09317">
        <ele>133</ele>
        <time>2019-05-12T07:48:18.000Z</time>
      </trkpt>
      <trkpt lat="48.78038" lon="2.0931">
        <ele>134</ele>
        <time>2019-05-12T07:48:20.000Z</time>
      </trkpt>
      <trkpt lat="48.78038" lon="2.0931">
        <ele>134</ele>
        <time>2019-05-12T07:48:22.000Z</time>
      </trkpt>
      <trkpt lat="48.78038" lon="2.0931">
        <ele>134</ele>
        <time>2019-05-12T07:48:24.000Z</time>
      </trkpt>
      <trkpt lat="48.78038" lon="2.0931">
        <ele>134</ele>
        <time>2019-05-12T07:48:26.000Z</time>
      </trkpt>
      <trkpt lat="48.78038" lon="2.0931">
        <ele>134</ele>
        <time>2019-05-12T07:48:28.000Z</time>
      </trkpt>
      <trkpt lat="48.78039" lon="2.09295">
        <ele>133</ele>
        <time>2019-05-12T07:48:32.000Z</time>
      </trkpt>
      <trkpt lat="48.78039" lon="2.09287">
        <ele>133</ele>
        <time>2019-05-12T07:48:34.000Z</time>
      </trkpt>
      <trkpt lat="48.78037" lon="2.09278">
        <ele>133</ele>
        <time>2019-05-12T07:48:38.000Z</time>
      </trkpt>
      <trkpt lat="48.78037" lon="2.09268">
        <ele>133</ele>
        <time>2019-05-12T07:48:42.000Z</time>
      </trkpt>
      <trkpt lat="48.78037" lon="2.09268">
        <ele>133</ele>
        <time>2019-05-12T07:48:44.000Z</time>
      </trkpt>
      <trkpt lat="48.78037" lon="2.09268">
        <ele>133</ele>
        <time>2019-05-12T07:48:46.000Z</time>
      </trkpt>
      <trkpt lat="48.78037" lon="2.09268">
        <ele>133</ele>
        <time>2019-05-12T07:48:48.000Z</time>
      </trkpt>
      <trkpt lat="48.78037" lon="2.09268">
        <ele>133</ele>
        <time>2019-05-12T07:48:52.000Z</time>
      </trkpt>
      <trkpt lat="48.78037" lon="2.09268">
        <ele>133</ele>
        <time>2019-05-12T07:48:54.000Z</time>
      </trkpt>
      <trkpt lat="48.78037" lon="2.09268">
        <ele>133</ele>
        <time>2019-05-12T07:48:56.000Z</time>
      </trkpt>
      <trkpt lat="48.78039" lon="2.09252">
        <ele>133</ele>
        <time>2019-05-12T07:48:58.000Z</time>
      </trkpt>
      <trkpt lat="48.7804" lon="2.09242">
        <ele>132</ele>
        <time>2019-05-12T07:49:00.000Z</time>
      </trkpt>
      <trkpt lat="48.7804" lon="2.09242">
        <ele>132</ele>
        <time>2019-05-12T07:49:02.000Z</time>
      </trkpt>
      <trkpt lat="48.78043" lon="2.09234">
        <ele>133</ele>
        <time>2019-05-12T07:49:04.000Z</time>
      </trkpt>
      <trkpt lat="48.78043" lon="2.09234">
        <ele>133</ele>
        <time>2019-05-12T07:49:06.000Z</time>
      </trkpt>
      <trkpt lat="48.78043" lon="2.09234">
        <ele>133</ele>
        <time>2019-05-12T07:49:08.000Z</time>
      </trkpt>
      <trkpt lat="48.78048" lon="2.09223">
        <ele>133</ele>
        <time>2019-05-12T07:49:14.000Z</time>
      </trkpt>
      <trkpt lat="48.7805" lon="2.09215">
        <ele>133</ele>
        <time>2019-05-12T07:49:16.000Z</time>
      </trkpt>
      <trkpt lat="48.78052" lon="2.09207">
        <ele>133</ele>
        <time>2019-05-12T07:49:20.000Z</time>
      </trkpt>
      <trkpt lat="48.78054" lon="2.09198">
        <ele>133</ele>
        <time>2019-05-12T07:49:24.000Z</time>
      </trkpt>
      <trkpt lat="48.78054" lon="2.09198">
        <ele>133</ele>
        <time>2019-05-12T07:49:26.000Z</time>
      </trkpt>
      <trkpt lat="48.78057" lon="2.09191">
        <ele>133</ele>
        <time>2019-05-12T07:49:28.000Z</time>
      </trkpt>
      <trkpt lat="48.7806" lon="2.09184">
        <ele>133</ele>
        <time>2019-05-12T07:49:32.000Z</time>
      </trkpt>
      <trkpt lat="48.7806" lon="2.09184">
        <ele>133</ele>
        <time>2019-05-12T07:49:34.000Z</time>
      </trkpt>
      <trkpt lat="48.7806" lon="2.09184">
        <ele>133</ele>
        <time>2019-05-12T07:49:36.000Z</time>
      </trkpt>
      <trkpt lat="48.7806" lon="2.09184">
        <ele>133</ele>
        <time>2019-05-12T07:49:38.000Z</time>
      </trkpt>
      <trkpt lat="48.7806" lon="2.09184">
        <ele>133</ele>
        <time>2019-05-12T07:49:40.000Z</time>
      </trkpt>
      <trkpt lat="48.78065" lon="2.09173">
        <ele>134</ele>
        <time>2019-05-12T07:49:44.000Z</time>
      </trkpt>
      <trkpt lat="48.78069" lon="2.09166">
        <ele>134</ele>
        <time>2019-05-12T07:49:46.000Z</time>
      </trkpt>
      <trkpt lat="48.78069" lon="2.09166">
        <ele>134</ele>
        <time>2019-05-12T07:49:48.000Z</time>
      </trkpt>
      <trkpt lat="48.78072" lon="2.09161">
        <ele>134</ele>
        <time>2019-05-12T07:49:50.000Z</time>
      </trkpt>
      <trkpt lat="48.78072" lon="2.09161">
        <ele>134</ele>
        <time>2019-05-12T07:49:52.000Z</time>
      </trkpt>
      <trkpt lat="48.78072" lon="2.09161">
        <ele>134</ele>
        <time>2019-05-12T07:49:54.000Z</time>
      </trkpt>
      <trkpt lat="48.78078" lon="2.09153">
        <ele>134</ele>
        <time>2019-05-12T07:49:58.000Z</time>
      </trkpt>
      <trkpt lat="48.78082" lon="2.09147">
        <ele>133</ele>
        <time>2019-05-12T07:50:00.000Z</time>
      </trkpt>
      <trkpt lat="48.78082" lon="2.09147">
        <ele>133</ele>
        <time>2019-05-12T07:50:02.000Z</time>
      </trkpt>
      <trkpt lat="48.78082" lon="2.09147">
        <ele>133</ele>
        <time>2019-05-12T07:50:04.000Z</time>
      </trkpt>
      <trkpt lat="48.78082" lon="2.09147">
        <ele>133</ele>
        <time>2019-05-12T07:50:06.000Z</time>
      </trkpt>
      <trkpt lat="48.78082" lon="2.09147">
        <ele>133</ele>
        <time>2019-05-12T07:50:08.000Z</time>
      </trkpt>
      <trkpt lat="48.78089" lon="2.09135">
        <ele>137</ele>
        <time>2019-05-12T07:50:12.000Z</time>
      </trkpt>
      <trkpt lat="48.78094" lon="2.09129">
        <ele>138</ele>
        <time>2019-05-12T07:50:14.000Z</time>
      </trkpt>
      <trkpt lat="48.78098" lon="2.09125">
        <ele>138</ele>
        <time>2019-05-12T07:50:16.000Z</time>
      </trkpt>
      <trkpt lat="48.78102" lon="2.09121">
        <ele>138</ele>
        <time>2019-05-12T07:50:20.000Z</time>
      </trkpt>
      <trkpt lat="48.78107" lon="2.09117">
        <ele>138</ele>
        <time>2019-05-12T07:50:24.000Z</time>
      </trkpt>
      <trkpt lat="48.78107" lon="2.09117">
        <ele>138</ele>
        <time>2019-05-12T07:50:28.000Z</time>
      </trkpt>
      <trkpt lat="48.78113" lon="2.09113">
        <ele>138</ele>
        <time>2019-05-12T07:50:30.000Z</time>
      </trkpt>
      <trkpt lat="48.78113" lon="2.09113">
        <ele>138</ele>
        <time>2019-05-12T07:50:32.000Z</time>
      </trkpt>
      <trkpt lat="48.78113" lon="2.09113">
        <ele>138</ele>
        <time>2019-05-12T07:50:34.000Z</time>
      </trkpt>
      <trkpt lat="48.78113" lon="2.09113">
        <ele>138</ele>
        <time>2019-05-12T07:50:36.000Z</time>
      </trkpt>
      <trkpt lat="48.78113" lon="2.09113">
        <ele>138</ele>
        <time>2019-05-12T07:50:38.000Z</time>
      </trkpt>
      <trkpt lat="48.78122" lon="2.09108">
        <ele>138</ele>
        <time>2019-05-12T07:50:42.000Z</time>
      </trkpt>
      <trkpt lat="48.78128" lon="2.09104">
        <ele>139</ele>
        <time>2019-05-12T07:50:44.000Z</time>
      </trkpt>
      <trkpt lat="48.78133" lon="2.09101">
        <ele>139</ele>
        <time>2019-05-12T07:50:46.000Z</time>
      </trkpt>
      <trkpt lat="48.78133" lon="2.09101">
        <ele>139</ele>
        <time>2019-05-12T07:50:48.000Z</time>
      </trkpt>
      <trkpt lat="48.78133" lon="2.09101">
        <ele>139</ele>
        <time>2019-05-12T07:50:50.000Z</time>
      </trkpt>
      <trkpt lat="48.7814" lon="2.09096">
        <ele>139</ele>
        <time>2019-05-12T07:50:54.000Z</time>
      </trkpt>
      <trkpt lat="48.78145" lon="2.09092">
        <ele>139</ele>
        <time>2019-05-12T07:50:56.000Z</time>
      </trkpt>
      <trkpt lat="48.78145" lon="2.09092">
        <ele>139</ele>
        <time>2019-05-12T07:50:58.000Z</time>
      </trkpt>
      <trkpt lat="48.78145" lon="2.09092">
        <ele>139</ele>
        <time>2019-05-12T07:51:00.000Z</time>
      </trkpt>
      <trkpt lat="48.78151" lon="2.09083">
        <ele>136</ele>
        <time>2019-05-12T07:51:06.000Z</time>
      </trkpt>
      <trkpt lat="48.78156" lon="2.09078">
        <ele>136</ele>
        <time>2019-05-12T07:51:08.000Z</time>
      </trkpt>
      <trkpt lat="48.7816" lon="2.09073">
        <ele>136</ele>
        <time>2019-05-12T07:51:14.000Z</time>
      </trkpt>
      <trkpt lat="48.78168" lon="2.09065">
        <ele>141</ele>
        <time>2019-05-12T07:51:24.000Z</time>
      </trkpt>
      <trkpt lat="48.78174" lon="2.0906">
        <ele>141</ele>
        <time>2019-05-12T07:51:25.000Z</time>
      </trkpt>
      <trkpt lat="48.7818" lon="2.09053">
        <ele>141</ele>
        <time>2019-05-12T07:51:29.000Z</time>
      </trkpt>
      <trkpt lat="48.7818" lon="2.09053">
        <ele>141</ele>
        <time>2019-05-12T07:51:31.000Z</time>
      </trkpt>
      <trkpt lat="48.7818" lon="2.09053">
        <ele>141</ele>
        <time>2019-05-12T07:51:33.000Z</time>
      </trkpt>
      <trkpt lat="48.7818" lon="2.09053">
        <ele>141</ele>
        <time>2019-05-12T07:51:35.000Z</time>
      </trkpt>
      <trkpt lat="48.7818" lon="2.09053">
        <ele>141</ele>
        <time>2019-05-12T07:51:37.000Z</time>
      </trkpt>
      <trkpt lat="48.7818" lon="2.09053">
        <ele>141</ele>
        <time>2019-05-12T07:51:39.000Z</time>
      </trkpt>
      <trkpt lat="48.78189" lon="2.09043">
        <ele>142</ele>
        <time>2019-05-12T07:51:43.000Z</time>
      </trkpt>
      <trkpt lat="48.78196" lon="2.09037">
        <ele>142</ele>
        <time>2019-05-12T07:51:45.000Z</time>
      </trkpt>
      <trkpt lat="48.78196" lon="2.09037">
        <ele>142</ele>
        <time>2019-05-12T07:51:47.000Z</time>
      </trkpt>
      <trkpt lat="48.782" lon="2.09028">
        <ele>142</ele>
        <time>2019-05-12T07:51:51.000Z</time>
      </trkpt>
      <trkpt lat="48.78203" lon="2.09019">
        <ele>142</ele>
        <time>2019-05-12T07:51:55.000Z</time>
      </trkpt>
      <trkpt lat="48.78203" lon="2.09019">
        <ele>142</ele>
        <time>2019-05-12T07:51:57.000Z</time>
      </trkpt>
      <trkpt lat="48.78203" lon="2.09019">
        <ele>142</ele>
        <time>2019-05-12T07:51:59.000Z</time>
      </trkpt>
      <trkpt lat="48.78204" lon="2.09003">
        <ele>141</ele>
        <time>2019-05-12T07:52:07.000Z</time>
      </trkpt>
      <trkpt lat="48.78202" lon="2.08993">
        <ele>136</ele>
        <time>2019-05-12T07:52:09.000Z</time>
      </trkpt>
      <trkpt lat="48.782" lon="2.08986">
        <ele>136</ele>
        <time>2019-05-12T07:52:11.000Z</time>
      </trkpt>
      <trkpt lat="48.78196" lon="2.08979">
        <ele>135</ele>
        <time>2019-05-12T07:52:15.000Z</time>
      </trkpt>
      <trkpt lat="48.78192" lon="2.08975">
        <ele>135</ele>
        <time>2019-05-12T07:52:17.000Z</time>
      </trkpt>
      <trkpt lat="48.78187" lon="2.08969">
        <ele>134</ele>
        <time>2019-05-12T07:52:21.000Z</time>
      </trkpt>
      <trkpt lat="48.78183" lon="2.08964">
        <ele>134</ele>
        <time>2019-05-12T07:52:23.000Z</time>
      </trkpt>
      <trkpt lat="48.7818" lon="2.08959">
        <ele>134</ele>
        <time>2019-05-12T07:52:27.000Z</time>
      </trkpt>
      <trkpt lat="48.7818" lon="2.08959">
        <ele>134</ele>
        <time>2019-05-12T07:52:29.000Z</time>
      </trkpt>
      <trkpt lat="48.78173" lon="2.08952">
        <ele>133</ele>
        <time>2019-05-12T07:52:35.000Z</time>
      </trkpt>
      <trkpt lat="48.78173" lon="2.08952">
        <ele>133</ele>
        <time>2019-05-12T07:52:37.000Z</time>
      </trkpt>
      <trkpt lat="48.78173" lon="2.08952">
        <ele>133</ele>
        <time>2019-05-12T07:52:39.000Z</time>
      </trkpt>
      <trkpt lat="48.78173" lon="2.08952">
        <ele>133</ele>
        <time>2019-05-12T07:52:41.000Z</time>
      </trkpt>
      <trkpt lat="48.78173" lon="2.08952">
        <ele>133</ele>
        <time>2019-05-12T07:52:43.000Z</time>
      </trkpt>
      <trkpt lat="48.78164" lon="2.08942">
        <ele>127</ele>
        <time>2019-05-12T07:52:47.000Z</time>
      </trkpt>
      <trkpt lat="48.78158" lon="2.08936">
        <ele>127</ele>
        <time>2019-05-12T07:52:49.000Z</time>
      </trkpt>
      <trkpt lat="48.78158" lon="2.08936">
        <ele>127</ele>
        <time>2019-05-12T07:52:51.000Z</time>
      </trkpt>
      <trkpt lat="48.78158" lon="2.08936">
        <ele>127</ele>
        <time>2019-05-12T07:52:53.000Z</time>
      </trkpt>
      <trkpt lat="48.78158" lon="2.08936">
        <ele>127</ele>
        <time>2019-05-12T07:52:55.000Z</time>
      </trkpt>
      <trkpt lat="48.78148" lon="2.08929">
        <ele>127</ele>
        <time>2019-05-12T07:53:01.000Z</time>
      </trkpt>
      <trkpt lat="48.78141" lon="2.08925">
        <ele>127</ele>
        <time>2019-05-12T07:53:03.000Z</time>
      </trkpt>
      <trkpt lat="48.78138" lon="2.08922">
        <ele>127</ele>
        <time>2019-05-12T07:53:05.000Z</time>
      </trkpt>
      <trkpt lat="48.78138" lon="2.08922">
        <ele>127</ele>
        <time>2019-05-12T07:53:09.000Z</time>
      </trkpt>
      <trkpt lat="48.78138" lon="2.08922">
        <ele>127</ele>
        <time>2019-05-12T07:53:11.000Z</time>
      </trkpt>
      <trkpt lat="48.78138" lon="2.08922">
        <ele>127</ele>
        <time>2019-05-12T07:53:13.000Z</time>
      </trkpt>
      <trkpt lat="48.78138" lon="2.08922">
        <ele>127</ele>
        <time>2019-05-12T07:53:15.000Z</time>
      </trkpt>
      <trkpt lat="48.78138" lon="2.08922">
        <ele>127</ele>
        <time>2019-05-12T07:53:17.000Z</time>
      </trkpt>
      <trkpt lat="48.78129" lon="2.08912">
        <ele>127</ele>
        <time>2019-05-12T07:53:23.000Z</time>
      </trkpt>
      <trkpt lat="48.78123" lon="2.08907">
        <ele>128</ele>
        <time>2019-05-12T07:53:24.000Z</time>
      </trkpt>
      <trkpt lat="48.78119" lon="2.08902">
        <ele>128</ele>
        <time>2019-05-12T07:53:26.000Z</time>
      </trkpt>
      <trkpt lat="48.78115" lon="2.08897">
        <ele>128</ele>
        <time>2019-05-12T07:53:30.000Z</time>
      </trkpt>
      <trkpt lat="48.78115" lon="2.08897">
        <ele>128</ele>
        <time>2019-05-12T07:53:32.000Z</time>
      </trkpt>
      <trkpt lat="48.7811" lon="2.08891">
        <ele>128</ele>
        <time>2019-05-12T07:53:38.000Z</time>
      </trkpt>
      <trkpt lat="48.78106" lon="2.08887">
        <ele>128</ele>
        <time>2019-05-12T07:53:40.000Z</time>
      </trkpt>
      <trkpt lat="48.78102" lon="2.08883">
        <ele>128</ele>
        <time>2019-05-12T07:53:44.000Z</time>
      </trkpt>
      <trkpt lat="48.78102" lon="2.08883">
        <ele>128</ele>
        <time>2019-05-12T07:53:46.000Z</time>
      </trkpt>
      <trkpt lat="48.78102" lon="2.08883">
        <ele>128</ele>
        <time>2019-05-12T07:53:48.000Z</time>
      </trkpt>
      <trkpt lat="48.78096" lon="2.08879">
        <ele>128</ele>
        <time>2019-05-12T07:53:52.000Z</time>
      </trkpt>
      <trkpt lat="48.7809" lon="2.08877">
        <ele>128</ele>
        <time>2019-05-12T07:53:56.000Z</time>
      </trkpt>
      <trkpt lat="48.7809" lon="2.08877">
        <ele>128</ele>
        <time>2019-05-12T07:53:58.000Z</time>
      </trkpt>
      <trkpt lat="48.7809" lon="2.08877">
        <ele>128</ele>
        <time>2019-05-12T07:54:00.000Z</time>
      </trkpt>
      <trkpt lat="48.7809" lon="2.08877">
        <ele>128</ele>
        <time>2019-05-12T07:54:04.000Z</time>
      </trkpt>
      <trkpt lat="48.78083" lon="2.0887">
        <ele>129</ele>
        <time>2019-05-12T07:54:10.000Z</time>
      </trkpt>
      <trkpt lat="48.78079" lon="2.08865">
        <ele>133</ele>
        <time>2019-05-12T07:54:12.000Z</time>
      </trkpt>
      <trkpt lat="48.78079" lon="2.08865">
        <ele>133</ele>
        <time>2019-05-12T07:54:14.000Z</time>
      </trkpt>
      <trkpt lat="48.78079" lon="2.08865">
        <ele>133</ele>
        <time>2019-05-12T07:54:16.000Z</time>
      </trkpt>
      <trkpt lat="48.78079" lon="2.08865">
        <ele>133</ele>
        <time>2019-05-12T07:54:18.000Z</time>
      </trkpt>
      <trkpt lat="48.78079" lon="2.08865">
        <ele>133</ele>
        <time>2019-05-12T07:54:26.000Z</time>
      </trkpt>
      <trkpt lat="48.78079" lon="2.08865">
        <ele>133</ele>
        <time>2019-05-12T07:54:30.000Z</time>
      </trkpt>
      <trkpt lat="48.7807" lon="2.08846">
        <ele>133</ele>
        <time>2019-05-12T07:54:38.000Z</time>
      </trkpt>
      <trkpt lat="48.7807" lon="2.08846">
        <ele>133</ele>
        <time>2019-05-12T07:54:40.000Z</time>
      </trkpt>
      <trkpt lat="48.7807" lon="2.08846">
        <ele>133</ele>
        <time>2019-05-12T07:54:42.000Z</time>
      </trkpt>
      <trkpt lat="48.7807" lon="2.08846">
        <ele>133</ele>
        <time>2019-05-12T07:54:54.000Z</time>
      </trkpt>
      <trkpt lat="48.7807" lon="2.08846">
        <ele>133</ele>
        <time>2019-05-12T07:54:56.000Z</time>
      </trkpt>
      <trkpt lat="48.7807" lon="2.08846">
        <ele>133</ele>
        <time>2019-05-12T07:55:08.000Z</time>
      </trkpt>
      <trkpt lat="48.7807" lon="2.08846">
        <ele>133</ele>
        <time>2019-05-12T07:55:10.000Z</time>
      </trkpt>
      <trkpt lat="48.7807" lon="2.08846">
        <ele>133</ele>
        <time>2019-05-12T07:55:12.000Z</time>
      </trkpt>
      <trkpt lat="48.78051" lon="2.08799">
        <ele>137</ele>
        <time>2019-05-12T07:55:40.000Z</time>
      </trkpt>
      <trkpt lat="48.78043" lon="2.08774">
        <ele>138</ele>
        <time>2019-05-12T07:55:42.000Z</time>
      </trkpt>
      <trkpt lat="48.78039" lon="2.0876">
        <ele>139</ele>
        <time>2019-05-12T07:55:44.000Z</time>
      </trkpt>
      <trkpt lat="48.78038" lon="2.08749">
        <ele>142</ele>
        <time>2019-05-12T07:55:48.000Z</time>
      </trkpt>
      <trkpt lat="48.78038" lon="2.08749">
        <ele>142</ele>
        <time>2019-05-12T07:55:50.000Z</time>
      </trkpt>
      <trkpt lat="48.78038" lon="2.08749">
        <ele>142</ele>
        <time>2019-05-12T07:55:52.000Z</time>
      </trkpt>
      <trkpt lat="48.78038" lon="2.08749">
        <ele>142</ele>
        <time>2019-05-12T07:55:54.000Z</time>
      </trkpt>
      <trkpt lat="48.78039" lon="2.08737">
        <ele>142</ele>
        <time>2019-05-12T07:55:56.000Z</time>
      </trkpt>
      <trkpt lat="48.78041" lon="2.08726">
        <ele>142</ele>
        <time>2019-05-12T07:56:00.000Z</time>
      </trkpt>
      <trkpt lat="48.78044" lon="2.08713">
        <ele>142</ele>
        <time>2019-05-12T07:56:04.000Z</time>
      </trkpt>
      <trkpt lat="48.78046" lon="2.08702">
        <ele>142</ele>
        <time>2019-05-12T07:56:06.000Z</time>
      </trkpt>
      <trkpt lat="48.78046" lon="2.08702">
        <ele>142</ele>
        <time>2019-05-12T07:56:08.000Z</time>
      </trkpt>
      <trkpt lat="48.78046" lon="2.08702">
        <ele>142</ele>
        <time>2019-05-12T07:56:10.000Z</time>
      </trkpt>
      <trkpt lat="48.78046" lon="2.08702">
        <ele>142</ele>
        <time>2019-05-12T07:56:12.000Z</time>
      </trkpt>
      <trkpt lat="48.78046" lon="2.08702">
        <ele>142</ele>
        <time>2019-05-12T07:56:14.000Z</time>
      </trkpt>
      <trkpt lat="48.78046" lon="2.08702">
        <ele>142</ele>
        <time>2019-05-12T07:56:16.000Z</time>
      </trkpt>
      <trkpt lat="48.78046" lon="2.08702">
        <ele>142</ele>
        <time>2019-05-12T07:56:18.000Z</time>
      </trkpt>
      <trkpt lat="48.78051" lon="2.0868">
        <ele>142</ele>
        <time>2019-05-12T07:56:22.000Z</time>
      </trkpt>
      <trkpt lat="48.78055" lon="2.08667">
        <ele>142</ele>
        <time>2019-05-12T07:56:24.000Z</time>
      </trkpt>
      <trkpt lat="48.78057" lon="2.08659">
        <ele>145</ele>
        <time>2019-05-12T07:56:26.000Z</time>
      </trkpt>
      <trkpt lat="48.78057" lon="2.08659">
        <ele>145</ele>
        <time>2019-05-12T07:56:28.000Z</time>
      </trkpt>
      <trkpt lat="48.78057" lon="2.08659">
        <ele>145</ele>
        <time>2019-05-12T07:56:30.000Z</time>
      </trkpt>
      <trkpt lat="48.78057" lon="2.08659">
        <ele>145</ele>
        <time>2019-05-12T07:56:38.000Z</time>
      </trkpt>
      <trkpt lat="48.78057" lon="2.08659">
        <ele>145</ele>
        <time>2019-05-12T07:56:40.000Z</time>
      </trkpt>
      <trkpt lat="48.78064" lon="2.08644">
        <ele>145</ele>
        <time>2019-05-12T07:56:44.000Z</time>
      </trkpt>
      <trkpt lat="48.78068" lon="2.08635">
        <ele>146</ele>
        <time>2019-05-12T07:56:46.000Z</time>
      </trkpt>
      <trkpt lat="48.78072" lon="2.08626">
        <ele>146</ele>
        <time>2019-05-12T07:56:50.000Z</time>
      </trkpt>
      <trkpt lat="48.78072" lon="2.08626">
        <ele>146</ele>
        <time>2019-05-12T07:56:52.000Z</time>
      </trkpt>
      <trkpt lat="48.78072" lon="2.08626">
        <ele>146</ele>
        <time>2019-05-12T07:56:54.000Z</time>
      </trkpt>
      <trkpt lat="48.78072" lon="2.08626">
        <ele>146</ele>
        <time>2019-05-12T07:56:56.000Z</time>
      </trkpt>
      <trkpt lat="48.78072" lon="2.08626">
        <ele>146</ele>
        <time>2019-05-12T07:56:58.000Z</time>
      </trkpt>
      <trkpt lat="48.78072" lon="2.08626">
        <ele>146</ele>
        <time>2019-05-12T07:57:00.000Z</time>
      </trkpt>
      <trkpt lat="48.78072" lon="2.08626">
        <ele>146</ele>
        <time>2019-05-12T07:57:02.000Z</time>
      </trkpt>
      <trkpt lat="48.78072" lon="2.08626">
        <ele>146</ele>
        <time>2019-05-12T07:57:04.000Z</time>
      </trkpt>
      <trkpt lat="48.78072" lon="2.08626">
        <ele>146</ele>
        <time>2019-05-12T07:57:06.000Z</time>
      </trkpt>
      <trkpt lat="48.78083" lon="2.08602">
        <ele>140</ele>
        <time>2019-05-12T07:57:16.000Z</time>
      </trkpt>
      <trkpt lat="48.78091" lon="2.0859">
        <ele>142</ele>
        <time>2019-05-12T07:57:18.000Z</time>
      </trkpt>
      <trkpt lat="48.78096" lon="2.08582">
        <ele>143</ele>
        <time>2019-05-12T07:57:20.000Z</time>
      </trkpt>
      <trkpt lat="48.781" lon="2.08576">
        <ele>143</ele>
        <time>2019-05-12T07:57:22.000Z</time>
      </trkpt>
      <trkpt lat="48.781" lon="2.08576">
        <ele>143</ele>
        <time>2019-05-12T07:57:24.000Z</time>
      </trkpt>
      <trkpt lat="48.781" lon="2.08576">
        <ele>143</ele>
        <time>2019-05-12T07:57:26.000Z</time>
      </trkpt>
      <trkpt lat="48.781" lon="2.08576">
        <ele>143</ele>
        <time>2019-05-12T07:57:28.000Z</time>
      </trkpt>
      <trkpt lat="48.78106" lon="2.08564">
        <ele>142</ele>
        <time>2019-05-12T07:57:32.000Z</time>
      </trkpt>
      <trkpt lat="48.78106" lon="2.08564">
        <ele>142</ele>
        <time>2019-05-12T07:57:34.000Z</time>
      </trkpt>
      <trkpt lat="48.7811" lon="2.08555">
        <ele>141</ele>
        <time>2019-05-12T07:57:36.000Z</time>
      </trkpt>
      <trkpt lat="48.78114" lon="2.08547">
        <ele>141</ele>
        <time>2019-05-12T07:57:40.000Z</time>
      </trkpt>
      <trkpt lat="48.78114" lon="2.08547">
        <ele>141</ele>
        <time>2019-05-12T07:57:44.000Z</time>
      </trkpt>
      <trkpt lat="48.78114" lon="2.08547">
        <ele>141</ele>
        <time>2019-05-12T07:57:46.000Z</time>
      </trkpt>
      <trkpt lat="48.78114" lon="2.08547">
        <ele>141</ele>
        <time>2019-05-12T07:57:48.000Z</time>
      </trkpt>
      <trkpt lat="48.78119" lon="2.08533">
        <ele>141</ele>
        <time>2019-05-12T07:57:52.000Z</time>
      </trkpt>
      <trkpt lat="48.78119" lon="2.08533">
        <ele>141</ele>
        <time>2019-05-12T07:57:54.000Z</time>
      </trkpt>
      <trkpt lat="48.78119" lon="2.08533">
        <ele>141</ele>
        <time>2019-05-12T07:57:56.000Z</time>
      </trkpt>
      <trkpt lat="48.78119" lon="2.08533">
        <ele>141</ele>
        <time>2019-05-12T07:57:58.000Z</time>
      </trkpt>
      <trkpt lat="48.78119" lon="2.08533">
        <ele>141</ele>
        <time>2019-05-12T07:58:00.000Z</time>
      </trkpt>
      <trkpt lat="48.7812" lon="2.08512">
        <ele>142</ele>
        <time>2019-05-12T07:58:06.000Z</time>
      </trkpt>
      <trkpt lat="48.78121" lon="2.08499">
        <ele>144</ele>
        <time>2019-05-12T07:58:08.000Z</time>
      </trkpt>
      <trkpt lat="48.78121" lon="2.08491">
        <ele>144</ele>
        <time>2019-05-12T07:58:10.000Z</time>
      </trkpt>
      <trkpt lat="48.78121" lon="2.08491">
        <ele>144</ele>
        <time>2019-05-12T07:58:12.000Z</time>
      </trkpt>
      <trkpt lat="48.78121" lon="2.08491">
        <ele>144</ele>
        <time>2019-05-12T07:58:14.000Z</time>
      </trkpt>
      <trkpt lat="48.78121" lon="2.08491">
        <ele>144</ele>
        <time>2019-05-12T07:58:16.000Z</time>
      </trkpt>
      <trkpt lat="48.78121" lon="2.08491">
        <ele>144</ele>
        <time>2019-05-12T07:58:18.000Z</time>
      </trkpt>
      <trkpt lat="48.7812" lon="2.08477">
        <ele>145</ele>
        <time>2019-05-12T07:58:24.000Z</time>
      </trkpt>
      <trkpt lat="48.7812" lon="2.08477">
        <ele>145</ele>
        <time>2019-05-12T07:58:26.000Z</time>
      </trkpt>
      <trkpt lat="48.7812" lon="2.08477">
        <ele>145</ele>
        <time>2019-05-12T07:58:28.000Z</time>
      </trkpt>
      <trkpt lat="48.7812" lon="2.08477">
        <ele>145</ele>
        <time>2019-05-12T07:58:30.000Z</time>
      </trkpt>
      <trkpt lat="48.7812" lon="2.08477">
        <ele>145</ele>
        <time>2019-05-12T07:58:32.000Z</time>
      </trkpt>
      <trkpt lat="48.7812" lon="2.08477">
        <ele>145</ele>
        <time>2019-05-12T07:58:36.000Z</time>
      </trkpt>
      <trkpt lat="48.7812" lon="2.08477">
        <ele>145</ele>
        <time>2019-05-12T07:58:38.000Z</time>
      </trkpt>
      <trkpt lat="48.78128" lon="2.0844">
        <ele>144</ele>
        <time>2019-05-12T07:59:02.000Z</time>
      </trkpt>
      <trkpt lat="48.78128" lon="2.0844">
        <ele>144</ele>
        <time>2019-05-12T07:59:04.000Z</time>
      </trkpt>
      <trkpt lat="48.78128" lon="2.0844">
        <ele>144</ele>
        <time>2019-05-12T07:59:08.000Z</time>
      </trkpt>
      <trkpt lat="48.78131" lon="2.08413">
        <ele>147</ele>
        <time>2019-05-12T07:59:14.000Z</time>
      </trkpt>
      <trkpt lat="48.78133" lon="2.08399">
        <ele>147</ele>
        <time>2019-05-12T07:59:16.000Z</time>
      </trkpt>
      <trkpt lat="48.78131" lon="2.08392">
        <ele>147</ele>
        <time>2019-05-12T07:59:20.000Z</time>
      </trkpt>
      <trkpt lat="48.78131" lon="2.08392">
        <ele>147</ele>
        <time>2019-05-12T07:59:24.000Z</time>
      </trkpt>
      <trkpt lat="48.78131" lon="2.08392">
        <ele>147</ele>
        <time>2019-05-12T07:59:26.000Z</time>
      </trkpt>
      <trkpt lat="48.78131" lon="2.08392">
        <ele>147</ele>
        <time>2019-05-12T07:59:28.000Z</time>
      </trkpt>
      <trkpt lat="48.78131" lon="2.08392">
        <ele>147</ele>
        <time>2019-05-12T07:59:30.000Z</time>
      </trkpt>
      <trkpt lat="48.78131" lon="2.08392">
        <ele>147</ele>
        <time>2019-05-12T07:59:32.000Z</time>
      </trkpt>
      <trkpt lat="48.78131" lon="2.08392">
        <ele>147</ele>
        <time>2019-05-12T07:59:34.000Z</time>
      </trkpt>
      <trkpt lat="48.78131" lon="2.08392">
        <ele>147</ele>
        <time>2019-05-12T07:59:36.000Z</time>
      </trkpt>
      <trkpt lat="48.78131" lon="2.08392">
        <ele>147</ele>
        <time>2019-05-12T07:59:38.000Z</time>
      </trkpt>
      <trkpt lat="48.78131" lon="2.08392">
        <ele>147</ele>
        <time>2019-05-12T07:59:40.000Z</time>
      </trkpt>
      <trkpt lat="48.78118" lon="2.08381">
        <ele>149</ele>
        <time>2019-05-12T07:59:44.000Z</time>
      </trkpt>
      <trkpt lat="48.7811" lon="2.08375">
        <ele>149</ele>
        <time>2019-05-12T07:59:46.000Z</time>
      </trkpt>
      <trkpt lat="48.78105" lon="2.08371">
        <ele>150</ele>
        <time>2019-05-12T07:59:48.000Z</time>
      </trkpt>
      <trkpt lat="48.78105" lon="2.08371">
        <ele>150</ele>
        <time>2019-05-12T07:59:52.000Z</time>
      </trkpt>
      <trkpt lat="48.78105" lon="2.08371">
        <ele>150</ele>
        <time>2019-05-12T07:59:54.000Z</time>
      </trkpt>
      <trkpt lat="48.78105" lon="2.08371">
        <ele>150</ele>
        <time>2019-05-12T07:59:56.000Z</time>
      </trkpt>
      <trkpt lat="48.78105" lon="2.08371">
        <ele>150</ele>
        <time>2019-05-12T07:59:58.000Z</time>
      </trkpt>
      <trkpt lat="48.78105" lon="2.08371">
        <ele>150</ele>
        <time>2019-05-12T08:00:00.000Z</time>
      </trkpt>
      <trkpt lat="48.78105" lon="2.08371">
        <ele>150</ele>
        <time>2019-05-12T08:00:02.000Z</time>
      </trkpt>
      <trkpt lat="48.78099" lon="2.0836">
        <ele>150</ele>
        <time>2019-05-12T08:00:06.000Z</time>
      </trkpt>
      <trkpt lat="48.78094" lon="2.08354">
        <ele>151</ele>
        <time>2019-05-12T08:00:08.000Z</time>
      </trkpt>
      <trkpt lat="48.78091" lon="2.08349">
        <ele>152</ele>
        <time>2019-05-12T08:00:12.000Z</time>
      </trkpt>
      <trkpt lat="48.78086" lon="2.08343">
        <ele>152</ele>
        <time>2019-05-12T08:00:16.000Z</time>
      </trkpt>
      <trkpt lat="48.78083" lon="2.08339">
        <ele>154</ele>
        <time>2019-05-12T08:00:18.000Z</time>
      </trkpt>
      <trkpt lat="48.78083" lon="2.08339">
        <ele>154</ele>
        <time>2019-05-12T08:00:20.000Z</time>
      </trkpt>
      <trkpt lat="48.78083" lon="2.08339">
        <ele>154</ele>
        <time>2019-05-12T08:00:22.000Z</time>
      </trkpt>
      <trkpt lat="48.78074" lon="2.08332">
        <ele>155</ele>
        <time>2019-05-12T08:00:32.000Z</time>
      </trkpt>
      <trkpt lat="48.78069" lon="2.08327">
        <ele>155</ele>
        <time>2019-05-12T08:00:34.000Z</time>
      </trkpt>
      <trkpt lat="48.78065" lon="2.0832">
        <ele>155</ele>
        <time>2019-05-12T08:00:38.000Z</time>
      </trkpt>
      <trkpt lat="48.78065" lon="2.0832">
        <ele>155</ele>
        <time>2019-05-12T08:00:40.000Z</time>
      </trkpt>
      <trkpt lat="48.78062" lon="2.08315">
        <ele>155</ele>
        <time>2019-05-12T08:00:42.000Z</time>
      </trkpt>
      <trkpt lat="48.78057" lon="2.0831">
        <ele>155</ele>
        <time>2019-05-12T08:00:46.000Z</time>
      </trkpt>
      <trkpt lat="48.78057" lon="2.0831">
        <ele>155</ele>
        <time>2019-05-12T08:00:48.000Z</time>
      </trkpt>
      <trkpt lat="48.78053" lon="2.08305">
        <ele>155</ele>
        <time>2019-05-12T08:00:50.000Z</time>
      </trkpt>
      <trkpt lat="48.78053" lon="2.08305">
        <ele>155</ele>
        <time>2019-05-12T08:00:52.000Z</time>
      </trkpt>
      <trkpt lat="48.78048" lon="2.08301">
        <ele>155</ele>
        <time>2019-05-12T08:00:54.000Z</time>
      </trkpt>
      <trkpt lat="48.78045" lon="2.08296">
        <ele>155</ele>
        <time>2019-05-12T08:00:56.000Z</time>
      </trkpt>
      <trkpt lat="48.7804" lon="2.08292">
        <ele>156</ele>
        <time>2019-05-12T08:01:00.000Z</time>
      </trkpt>
      <trkpt lat="48.7804" lon="2.08292">
        <ele>156</ele>
        <time>2019-05-12T08:01:02.000Z</time>
      </trkpt>
      <trkpt lat="48.78033" lon="2.08286">
        <ele>156</ele>
        <time>2019-05-12T08:01:06.000Z</time>
      </trkpt>
      <trkpt lat="48.78028" lon="2.08282">
        <ele>156</ele>
        <time>2019-05-12T08:01:08.000Z</time>
      </trkpt>
      <trkpt lat="48.78028" lon="2.08282">
        <ele>156</ele>
        <time>2019-05-12T08:01:10.000Z</time>
      </trkpt>
      <trkpt lat="48.78028" lon="2.08282">
        <ele>156</ele>
        <time>2019-05-12T08:01:12.000Z</time>
      </trkpt>
      <trkpt lat="48.78019" lon="2.08274">
        <ele>156</ele>
        <time>2019-05-12T08:01:20.000Z</time>
      </trkpt>
      <trkpt lat="48.78014" lon="2.08268">
        <ele>156</ele>
        <time>2019-05-12T08:01:22.000Z</time>
      </trkpt>
      <trkpt lat="48.78014" lon="2.08268">
        <ele>156</ele>
        <time>2019-05-12T08:01:24.000Z</time>
      </trkpt>
      <trkpt lat="48.78009" lon="2.08261">
        <ele>156</ele>
        <time>2019-05-12T08:01:26.000Z</time>
      </trkpt>
      <trkpt lat="48.78006" lon="2.08256">
        <ele>157</ele>
        <time>2019-05-12T08:01:28.000Z</time>
      </trkpt>
      <trkpt lat="48.78006" lon="2.08256">
        <ele>157</ele>
        <time>2019-05-12T08:01:30.000Z</time>
      </trkpt>
      <trkpt lat="48.78006" lon="2.08256">
        <ele>157</ele>
        <time>2019-05-12T08:01:32.000Z</time>
      </trkpt>
      <trkpt lat="48.78006" lon="2.08256">
        <ele>157</ele>
        <time>2019-05-12T08:01:34.000Z</time>
      </trkpt>
      <trkpt lat="48.78" lon="2.08248">
        <ele>157</ele>
        <time>2019-05-12T08:01:38.000Z</time>
      </trkpt>
      <trkpt lat="48.78" lon="2.08248">
        <ele>157</ele>
        <time>2019-05-12T08:01:40.000Z</time>
      </trkpt>
      <trkpt lat="48.78" lon="2.08248">
        <ele>157</ele>
        <time>2019-05-12T08:01:42.000Z</time>
      </trkpt>
      <trkpt lat="48.78" lon="2.08248">
        <ele>157</ele>
        <time>2019-05-12T08:01:44.000Z</time>
      </trkpt>
      <trkpt lat="48.77994" lon="2.08239">
        <ele>158</ele>
        <time>2019-05-12T08:01:46.000Z</time>
      </trkpt>
      <trkpt lat="48.7799" lon="2.08233">
        <ele>158</ele>
        <time>2019-05-12T08:01:48.000Z</time>
      </trkpt>
      <trkpt lat="48.7799" lon="2.08233">
        <ele>158</ele>
        <time>2019-05-12T08:01:50.000Z</time>
      </trkpt>
      <trkpt lat="48.77988" lon="2.08226">
        <ele>158</ele>
        <time>2019-05-12T08:01:52.000Z</time>
      </trkpt>
      <trkpt lat="48.77988" lon="2.08226">
        <ele>158</ele>
        <time>2019-05-12T08:01:54.000Z</time>
      </trkpt>
      <trkpt lat="48.77988" lon="2.08226">
        <ele>158</ele>
        <time>2019-05-12T08:01:56.000Z</time>
      </trkpt>
      <trkpt lat="48.77983" lon="2.08221">
        <ele>158</ele>
        <time>2019-05-12T08:02:00.000Z</time>
      </trkpt>
      <trkpt lat="48.7798" lon="2.08216">
        <ele>158</ele>
        <time>2019-05-12T08:02:02.000Z</time>
      </trkpt>
      <trkpt lat="48.7798" lon="2.08216">
        <ele>158</ele>
        <time>2019-05-12T08:02:04.000Z</time>
      </trkpt>
      <trkpt lat="48.77975" lon="2.0821">
        <ele>158</ele>
        <time>2019-05-12T08:02:06.000Z</time>
      </trkpt>
      <trkpt lat="48.77971" lon="2.08205">
        <ele>158</ele>
        <time>2019-05-12T08:02:08.000Z</time>
      </trkpt>
      <trkpt lat="48.77967" lon="2.08201">
        <ele>158</ele>
        <time>2019-05-12T08:02:10.000Z</time>
      </trkpt>
      <trkpt lat="48.77962" lon="2.08194">
        <ele>159</ele>
        <time>2019-05-12T08:02:14.000Z</time>
      </trkpt>
      <trkpt lat="48.77962" lon="2.08194">
        <ele>159</ele>
        <time>2019-05-12T08:02:16.000Z</time>
      </trkpt>
      <trkpt lat="48.77962" lon="2.08194">
        <ele>159</ele>
        <time>2019-05-12T08:02:18.000Z</time>
      </trkpt>
      <trkpt lat="48.77962" lon="2.08194">
        <ele>159</ele>
        <time>2019-05-12T08:02:20.000Z</time>
      </trkpt>
      <trkpt lat="48.77956" lon="2.08186">
        <ele>159</ele>
        <time>2019-05-12T08:02:24.000Z</time>
      </trkpt>
      <trkpt lat="48.77951" lon="2.0818">
        <ele>159</ele>
        <time>2019-05-12T08:02:26.000Z</time>
      </trkpt>
      <trkpt lat="48.77951" lon="2.0818">
        <ele>159</ele>
        <time>2019-05-12T08:02:28.000Z</time>
      </trkpt>
      <trkpt lat="48.77951" lon="2.0818">
        <ele>159</ele>
        <time>2019-05-12T08:02:30.000Z</time>
      </trkpt>
      <trkpt lat="48.77945" lon="2.08172">
        <ele>159</ele>
        <time>2019-05-12T08:02:34.000Z</time>
      </trkpt>
      <trkpt lat="48.77939" lon="2.08167">
        <ele>160</ele>
        <time>2019-05-12T08:02:36.000Z</time>
      </trkpt>
      <trkpt lat="48.77935" lon="2.08165">
        <ele>159</ele>
        <time>2019-05-12T08:02:38.000Z</time>
      </trkpt>
      <trkpt lat="48.77935" lon="2.08165">
        <ele>159</ele>
        <time>2019-05-12T08:02:40.000Z</time>
      </trkpt>
      <trkpt lat="48.77935" lon="2.08165">
        <ele>159</ele>
        <time>2019-05-12T08:02:42.000Z</time>
      </trkpt>
      <trkpt lat="48.7793" lon="2.08161">
        <ele>160</ele>
        <time>2019-05-12T08:02:46.000Z</time>
      </trkpt>
      <trkpt lat="48.7793" lon="2.08161">
        <ele>160</ele>
        <time>2019-05-12T08:02:48.000Z</time>
      </trkpt>
      <trkpt lat="48.77925" lon="2.08157">
        <ele>160</ele>
        <time>2019-05-12T08:02:50.000Z</time>
      </trkpt>
      <trkpt lat="48.77925" lon="2.08157">
        <ele>160</ele>
        <time>2019-05-12T08:02:52.000Z</time>
      </trkpt>
      <trkpt lat="48.7792" lon="2.08152">
        <ele>160</ele>
        <time>2019-05-12T08:02:54.000Z</time>
      </trkpt>
      <trkpt lat="48.77916" lon="2.08147">
        <ele>160</ele>
        <time>2019-05-12T08:02:56.000Z</time>
      </trkpt>
      <trkpt lat="48.77916" lon="2.08147">
        <ele>160</ele>
        <time>2019-05-12T08:02:58.000Z</time>
      </trkpt>
      <trkpt lat="48.77916" lon="2.08147">
        <ele>160</ele>
        <time>2019-05-12T08:03:00.000Z</time>
      </trkpt>
      <trkpt lat="48.77916" lon="2.08147">
        <ele>160</ele>
        <time>2019-05-12T08:03:02.000Z</time>
      </trkpt>
      <trkpt lat="48.77908" lon="2.08137">
        <ele>160</ele>
        <time>2019-05-12T08:03:06.000Z</time>
      </trkpt>
      <trkpt lat="48.77903" lon="2.08131">
        <ele>160</ele>
        <time>2019-05-12T08:03:08.000Z</time>
      </trkpt>
      <trkpt lat="48.779" lon="2.08127">
        <ele>160</ele>
        <time>2019-05-12T08:03:10.000Z</time>
      </trkpt>
      <trkpt lat="48.779" lon="2.08127">
        <ele>160</ele>
        <time>2019-05-12T08:03:12.000Z</time>
      </trkpt>
      <trkpt lat="48.779" lon="2.08127">
        <ele>160</ele>
        <time>2019-05-12T08:03:14.000Z</time>
      </trkpt>
      <trkpt lat="48.779" lon="2.08127">
        <ele>160</ele>
        <time>2019-05-12T08:03:18.000Z</time>
      </trkpt>
      <trkpt lat="48.779" lon="2.08127">
        <ele>160</ele>
        <time>2019-05-12T08:03:22.000Z</time>
      </trkpt>
      <trkpt lat="48.779" lon="2.08127">
        <ele>160</ele>
        <time>2019-05-12T08:03:24.000Z</time>
      </trkpt>
      <trkpt lat="48.779" lon="2.08127">
        <ele>160</ele>
        <time>2019-05-12T08:03:26.000Z</time>
      </trkpt>
      <trkpt lat="48.77888" lon="2.08116">
        <ele>160</ele>
        <time>2019-05-12T08:03:30.000Z</time>
      </trkpt>
      <trkpt lat="48.7788" lon="2.0811">
        <ele>160</ele>
        <time>2019-05-12T08:03:32.000Z</time>
      </trkpt>
      <trkpt lat="48.77874" lon="2.08104">
        <ele>160</ele>
        <time>2019-05-12T08:03:37.000Z</time>
      </trkpt>
      <trkpt lat="48.7787" lon="2.081">
        <ele>160</ele>
        <time>2019-05-12T08:03:38.000Z</time>
      </trkpt>
      <trkpt lat="48.77866" lon="2.08095">
        <ele>160</ele>
        <time>2019-05-12T08:03:42.000Z</time>
      </trkpt>
      <trkpt lat="48.77866" lon="2.08095">
        <ele>160</ele>
        <time>2019-05-12T08:03:44.000Z</time>
      </trkpt>
      <trkpt lat="48.77866" lon="2.08095">
        <ele>160</ele>
        <time>2019-05-12T08:03:46.000Z</time>
      </trkpt>
      <trkpt lat="48.77866" lon="2.08095">
        <ele>160</ele>
        <time>2019-05-12T08:03:48.000Z</time>
      </trkpt>
      <trkpt lat="48.77859" lon="2.08088">
        <ele>160</ele>
        <time>2019-05-12T08:03:50.000Z</time>
      </trkpt>
      <trkpt lat="48.77855" lon="2.08084">
        <ele>160</ele>
        <time>2019-05-12T08:03:52.000Z</time>
      </trkpt>
      <trkpt lat="48.7785" lon="2.0808">
        <ele>160</ele>
        <time>2019-05-12T08:03:56.000Z</time>
      </trkpt>
      <trkpt lat="48.7785" lon="2.0808">
        <ele>160</ele>
        <time>2019-05-12T08:03:58.000Z</time>
      </trkpt>
      <trkpt lat="48.77846" lon="2.08076">
        <ele>160</ele>
        <time>2019-05-12T08:04:00.000Z</time>
      </trkpt>
      <trkpt lat="48.77846" lon="2.08076">
        <ele>160</ele>
        <time>2019-05-12T08:04:02.000Z</time>
      </trkpt>
      <trkpt lat="48.77846" lon="2.08076">
        <ele>160</ele>
        <time>2019-05-12T08:04:04.000Z</time>
      </trkpt>
      <trkpt lat="48.77846" lon="2.08076">
        <ele>160</ele>
        <time>2019-05-12T08:04:06.000Z</time>
      </trkpt>
      <trkpt lat="48.77846" lon="2.08076">
        <ele>160</ele>
        <time>2019-05-12T08:04:08.000Z</time>
      </trkpt>
      <trkpt lat="48.7784" lon="2.08068">
        <ele>160</ele>
        <time>2019-05-12T08:04:10.000Z</time>
      </trkpt>
      <trkpt lat="48.77836" lon="2.08062">
        <ele>160</ele>
        <time>2019-05-12T08:04:12.000Z</time>
      </trkpt>
      <trkpt lat="48.77836" lon="2.08062">
        <ele>160</ele>
        <time>2019-05-12T08:04:14.000Z</time>
      </trkpt>
      <trkpt lat="48.77832" lon="2.08058">
        <ele>161</ele>
        <time>2019-05-12T08:04:16.000Z</time>
      </trkpt>
      <trkpt lat="48.77829" lon="2.08053">
        <ele>162</ele>
        <time>2019-05-12T08:04:20.000Z</time>
      </trkpt>
      <trkpt lat="48.77829" lon="2.08053">
        <ele>162</ele>
        <time>2019-05-12T08:04:22.000Z</time>
      </trkpt>
      <trkpt lat="48.77829" lon="2.08053">
        <ele>162</ele>
        <time>2019-05-12T08:04:24.000Z</time>
      </trkpt>
      <trkpt lat="48.77829" lon="2.08053">
        <ele>162</ele>
        <time>2019-05-12T08:04:26.000Z</time>
      </trkpt>
      <trkpt lat="48.77822" lon="2.08045">
        <ele>162</ele>
        <time>2019-05-12T08:04:30.000Z</time>
      </trkpt>
      <trkpt lat="48.77818" lon="2.0804">
        <ele>162</ele>
        <time>2019-05-12T08:04:32.000Z</time>
      </trkpt>
      <trkpt lat="48.77818" lon="2.0804">
        <ele>162</ele>
        <time>2019-05-12T08:04:34.000Z</time>
      </trkpt>
      <trkpt lat="48.77818" lon="2.0804">
        <ele>162</ele>
        <time>2019-05-12T08:04:36.000Z</time>
      </trkpt>
      <trkpt lat="48.77818" lon="2.0804">
        <ele>162</ele>
        <time>2019-05-12T08:04:38.000Z</time>
      </trkpt>
      <trkpt lat="48.77811" lon="2.08034">
        <ele>162</ele>
        <time>2019-05-12T08:04:40.000Z</time>
      </trkpt>
      <trkpt lat="48.77806" lon="2.08029">
        <ele>162</ele>
        <time>2019-05-12T08:04:42.000Z</time>
      </trkpt>
      <trkpt lat="48.77806" lon="2.08029">
        <ele>162</ele>
        <time>2019-05-12T08:04:44.000Z</time>
      </trkpt>
      <trkpt lat="48.77806" lon="2.08029">
        <ele>162</ele>
        <time>2019-05-12T08:04:46.000Z</time>
      </trkpt>
      <trkpt lat="48.77806" lon="2.08029">
        <ele>162</ele>
        <time>2019-05-12T08:04:48.000Z</time>
      </trkpt>
      <trkpt lat="48.77797" lon="2.08021">
        <ele>162</ele>
        <time>2019-05-12T08:04:56.000Z</time>
      </trkpt>
      <trkpt lat="48.77791" lon="2.08017">
        <ele>162</ele>
        <time>2019-05-12T08:04:58.000Z</time>
      </trkpt>
      <trkpt lat="48.77787" lon="2.08013">
        <ele>162</ele>
        <time>2019-05-12T08:05:00.000Z</time>
      </trkpt>
      <trkpt lat="48.77782" lon="2.08009">
        <ele>162</ele>
        <time>2019-05-12T08:05:04.000Z</time>
      </trkpt>
      <trkpt lat="48.77782" lon="2.08009">
        <ele>162</ele>
        <time>2019-05-12T08:05:06.000Z</time>
      </trkpt>
      <trkpt lat="48.77782" lon="2.08009">
        <ele>162</ele>
        <time>2019-05-12T08:05:08.000Z</time>
      </trkpt>
      <trkpt lat="48.77782" lon="2.08009">
        <ele>162</ele>
        <time>2019-05-12T08:05:10.000Z</time>
      </trkpt>
      <trkpt lat="48.77772" lon="2.08001">
        <ele>163</ele>
        <time>2019-05-12T08:05:14.000Z</time>
      </trkpt>
      <trkpt lat="48.77766" lon="2.07995">
        <ele>163</ele>
        <time>2019-05-12T08:05:16.000Z</time>
      </trkpt>
      <trkpt lat="48.77761" lon="2.0799">
        <ele>163</ele>
        <time>2019-05-12T08:05:18.000Z</time>
      </trkpt>
      <trkpt lat="48.77761" lon="2.0799">
        <ele>163</ele>
        <time>2019-05-12T08:05:20.000Z</time>
      </trkpt>
      <trkpt lat="48.77761" lon="2.0799">
        <ele>163</ele>
        <time>2019-05-12T08:05:22.000Z</time>
      </trkpt>
      <trkpt lat="48.77761" lon="2.0799">
        <ele>163</ele>
        <time>2019-05-12T08:05:24.000Z</time>
      </trkpt>
      <trkpt lat="48.77755" lon="2.07983">
        <ele>163</ele>
        <time>2019-05-12T08:05:28.000Z</time>
      </trkpt>
      <trkpt lat="48.7775" lon="2.07978">
        <ele>163</ele>
        <time>2019-05-12T08:05:30.000Z</time>
      </trkpt>
      <trkpt lat="48.77746" lon="2.07974">
        <ele>163</ele>
        <time>2019-05-12T08:05:34.000Z</time>
      </trkpt>
      <trkpt lat="48.77746" lon="2.07974">
        <ele>163</ele>
        <time>2019-05-12T08:05:36.000Z</time>
      </trkpt>
      <trkpt lat="48.77746" lon="2.07974">
        <ele>163</ele>
        <time>2019-05-12T08:05:38.000Z</time>
      </trkpt>
      <trkpt lat="48.77746" lon="2.07974">
        <ele>163</ele>
        <time>2019-05-12T08:05:40.000Z</time>
      </trkpt>
      <trkpt lat="48.77738" lon="2.07965">
        <ele>163</ele>
        <time>2019-05-12T08:05:44.000Z</time>
      </trkpt>
      <trkpt lat="48.77732" lon="2.0796">
        <ele>163</ele>
        <time>2019-05-12T08:05:46.000Z</time>
      </trkpt>
      <trkpt lat="48.77732" lon="2.0796">
        <ele>163</ele>
        <time>2019-05-12T08:05:48.000Z</time>
      </trkpt>
      <trkpt lat="48.77732" lon="2.0796">
        <ele>163</ele>
        <time>2019-05-12T08:05:50.000Z</time>
      </trkpt>
      <trkpt lat="48.77732" lon="2.0796">
        <ele>163</ele>
        <time>2019-05-12T08:05:52.000Z</time>
      </trkpt>
      <trkpt lat="48.77723" lon="2.0795">
        <ele>163</ele>
        <time>2019-05-12T08:05:58.000Z</time>
      </trkpt>
      <trkpt lat="48.77717" lon="2.07944">
        <ele>163</ele>
        <time>2019-05-12T08:06:00.000Z</time>
      </trkpt>
      <trkpt lat="48.77713" lon="2.07939">
        <ele>163</ele>
        <time>2019-05-12T08:06:02.000Z</time>
      </trkpt>
      <trkpt lat="48.77713" lon="2.07939">
        <ele>163</ele>
        <time>2019-05-12T08:06:04.000Z</time>
      </trkpt>
      <trkpt lat="48.77713" lon="2.07939">
        <ele>163</ele>
        <time>2019-05-12T08:06:06.000Z</time>
      </trkpt>
      <trkpt lat="48.77707" lon="2.07933">
        <ele>163</ele>
        <time>2019-05-12T08:06:10.000Z</time>
      </trkpt>
      <trkpt lat="48.77703" lon="2.07927">
        <ele>163</ele>
        <time>2019-05-12T08:06:12.000Z</time>
      </trkpt>
      <trkpt lat="48.77699" lon="2.07923">
        <ele>163</ele>
        <time>2019-05-12T08:06:16.000Z</time>
      </trkpt>
      <trkpt lat="48.77699" lon="2.07923">
        <ele>163</ele>
        <time>2019-05-12T08:06:18.000Z</time>
      </trkpt>
      <trkpt lat="48.77699" lon="2.07923">
        <ele>163</ele>
        <time>2019-05-12T08:06:20.000Z</time>
      </trkpt>
      <trkpt lat="48.77692" lon="2.07916">
        <ele>162</ele>
        <time>2019-05-12T08:06:24.000Z</time>
      </trkpt>
      <trkpt lat="48.77687" lon="2.07911">
        <ele>162</ele>
        <time>2019-05-12T08:06:26.000Z</time>
      </trkpt>
      <trkpt lat="48.77687" lon="2.07911">
        <ele>162</ele>
        <time>2019-05-12T08:06:28.000Z</time>
      </trkpt>
      <trkpt lat="48.77687" lon="2.07911">
        <ele>162</ele>
        <time>2019-05-12T08:06:30.000Z</time>
      </trkpt>
      <trkpt lat="48.77687" lon="2.07911">
        <ele>162</ele>
        <time>2019-05-12T08:06:32.000Z</time>
      </trkpt>
      <trkpt lat="48.7768" lon="2.07902">
        <ele>162</ele>
        <time>2019-05-12T08:06:36.000Z</time>
      </trkpt>
      <trkpt lat="48.77675" lon="2.07896">
        <ele>162</ele>
        <time>2019-05-12T08:06:38.000Z</time>
      </trkpt>
      <trkpt lat="48.7767" lon="2.07892">
        <ele>162</ele>
        <time>2019-05-12T08:06:42.000Z</time>
      </trkpt>
      <trkpt lat="48.7767" lon="2.07892">
        <ele>162</ele>
        <time>2019-05-12T08:06:44.000Z</time>
      </trkpt>
      <trkpt lat="48.7767" lon="2.07892">
        <ele>162</ele>
        <time>2019-05-12T08:06:46.000Z</time>
      </trkpt>
      <trkpt lat="48.7767" lon="2.07892">
        <ele>162</ele>
        <time>2019-05-12T08:06:48.000Z</time>
      </trkpt>
      <trkpt lat="48.7767" lon="2.07892">
        <ele>162</ele>
        <time>2019-05-12T08:06:50.000Z</time>
      </trkpt>
      <trkpt lat="48.77663" lon="2.07883">
        <ele>161</ele>
        <time>2019-05-12T08:06:56.000Z</time>
      </trkpt>
      <trkpt lat="48.77658" lon="2.07877">
        <ele>161</ele>
        <time>2019-05-12T08:06:58.000Z</time>
      </trkpt>
      <trkpt lat="48.77658" lon="2.07877">
        <ele>161</ele>
        <time>2019-05-12T08:07:00.000Z</time>
      </trkpt>
      <trkpt lat="48.77655" lon="2.07871">
        <ele>161</ele>
        <time>2019-05-12T08:07:02.000Z</time>
      </trkpt>
      <trkpt lat="48.77655" lon="2.07871">
        <ele>161</ele>
        <time>2019-05-12T08:07:04.000Z</time>
      </trkpt>
      <trkpt lat="48.7765" lon="2.07866">
        <ele>161</ele>
        <time>2019-05-12T08:07:08.000Z</time>
      </trkpt>
      <trkpt lat="48.77645" lon="2.07862">
        <ele>161</ele>
        <time>2019-05-12T08:07:12.000Z</time>
      </trkpt>
      <trkpt lat="48.77645" lon="2.07862">
        <ele>161</ele>
        <time>2019-05-12T08:07:14.000Z</time>
      </trkpt>
      <trkpt lat="48.77641" lon="2.07858">
        <ele>161</ele>
        <time>2019-05-12T08:07:16.000Z</time>
      </trkpt>
      <trkpt lat="48.77635" lon="2.07854">
        <ele>161</ele>
        <time>2019-05-12T08:07:20.000Z</time>
      </trkpt>
      <trkpt lat="48.77629" lon="2.07853">
        <ele>162</ele>
        <time>2019-05-12T08:07:24.000Z</time>
      </trkpt>
      <trkpt lat="48.77629" lon="2.07853">
        <ele>162</ele>
        <time>2019-05-12T08:07:28.000Z</time>
      </trkpt>
      <trkpt lat="48.77629" lon="2.07853">
        <ele>162</ele>
        <time>2019-05-12T08:07:32.000Z</time>
      </trkpt>
      <trkpt lat="48.77629" lon="2.07853">
        <ele>162</ele>
        <time>2019-05-12T08:07:34.000Z</time>
      </trkpt>
      <trkpt lat="48.77618" lon="2.07846">
        <ele>162</ele>
        <time>2019-05-12T08:07:44.000Z</time>
      </trkpt>
      <trkpt lat="48.77618" lon="2.07846">
        <ele>162</ele>
        <time>2019-05-12T08:07:46.000Z</time>
      </trkpt>
      <trkpt lat="48.77618" lon="2.07846">
        <ele>162</ele>
        <time>2019-05-12T08:07:50.000Z</time>
      </trkpt>
      <trkpt lat="48.77618" lon="2.07846">
        <ele>162</ele>
        <time>2019-05-12T08:07:52.000Z</time>
      </trkpt>
      <trkpt lat="48.77603" lon="2.07834">
        <ele>162</ele>
        <time>2019-05-12T08:08:04.000Z</time>
      </trkpt>
      <trkpt lat="48.77594" lon="2.07827">
        <ele>162</ele>
        <time>2019-05-12T08:08:06.000Z</time>
      </trkpt>
      <trkpt lat="48.77587" lon="2.07823">
        <ele>163</ele>
        <time>2019-05-12T08:08:08.000Z</time>
      </trkpt>
      <trkpt lat="48.77587" lon="2.07823">
        <ele>163</ele>
        <time>2019-05-12T08:08:10.000Z</time>
      </trkpt>
      <trkpt lat="48.77587" lon="2.07823">
        <ele>163</ele>
        <time>2019-05-12T08:08:12.000Z</time>
      </trkpt>
      <trkpt lat="48.77587" lon="2.07823">
        <ele>163</ele>
        <time>2019-05-12T08:08:14.000Z</time>
      </trkpt>
      <trkpt lat="48.77587" lon="2.07823">
        <ele>163</ele>
        <time>2019-05-12T08:08:22.000Z</time>
      </trkpt>
      <trkpt lat="48.77587" lon="2.07823">
        <ele>163</ele>
        <time>2019-05-12T08:08:24.000Z</time>
      </trkpt>
      <trkpt lat="48.77587" lon="2.07823">
        <ele>163</ele>
        <time>2019-05-12T08:08:32.000Z</time>
      </trkpt>
      <trkpt lat="48.77565" lon="2.07805">
        <ele>162</ele>
        <time>2019-05-12T08:08:44.000Z</time>
      </trkpt>
      <trkpt lat="48.77565" lon="2.07805">
        <ele>162</ele>
        <time>2019-05-12T08:08:46.000Z</time>
      </trkpt>
      <trkpt lat="48.77565" lon="2.07805">
        <ele>162</ele>
        <time>2019-05-12T08:08:48.000Z</time>
      </trkpt>
      <trkpt lat="48.7755" lon="2.07791">
        <ele>162</ele>
        <time>2019-05-12T08:08:52.000Z</time>
      </trkpt>
      <trkpt lat="48.77541" lon="2.07782">
        <ele>162</ele>
        <time>2019-05-12T08:08:54.000Z</time>
      </trkpt>
      <trkpt lat="48.77536" lon="2.07777">
        <ele>162</ele>
        <time>2019-05-12T08:08:56.000Z</time>
      </trkpt>
      <trkpt lat="48.77536" lon="2.07777">
        <ele>162</ele>
        <time>2019-05-12T08:08:58.000Z</time>
      </trkpt>
      <trkpt lat="48.77532" lon="2.07773">
        <ele>162</ele>
        <time>2019-05-12T08:09:00.000Z</time>
      </trkpt>
      <trkpt lat="48.77528" lon="2.07769">
        <ele>162</ele>
        <time>2019-05-12T08:09:02.000Z</time>
      </trkpt>
      <trkpt lat="48.77523" lon="2.07766">
        <ele>162</ele>
        <time>2019-05-12T08:09:04.000Z</time>
      </trkpt>
      <trkpt lat="48.77518" lon="2.07763">
        <ele>162</ele>
        <time>2019-05-12T08:09:08.000Z</time>
      </trkpt>
      <trkpt lat="48.77518" lon="2.07763">
        <ele>162</ele>
        <time>2019-05-12T08:09:10.000Z</time>
      </trkpt>
      <trkpt lat="48.77518" lon="2.07763">
        <ele>162</ele>
        <time>2019-05-12T08:09:12.000Z</time>
      </trkpt>
      <trkpt lat="48.77518" lon="2.07763">
        <ele>162</ele>
        <time>2019-05-12T08:09:14.000Z</time>
      </trkpt>
      <trkpt lat="48.77518" lon="2.07763">
        <ele>162</ele>
        <time>2019-05-12T08:09:16.000Z</time>
      </trkpt>
      <trkpt lat="48.77518" lon="2.07763">
        <ele>162</ele>
        <time>2019-05-12T08:09:18.000Z</time>
      </trkpt>
      <trkpt lat="48.77506" lon="2.07757">
        <ele>161</ele>
        <time>2019-05-12T08:09:22.000Z</time>
      </trkpt>
      <trkpt lat="48.77498" lon="2.07752">
        <ele>161</ele>
        <time>2019-05-12T08:09:24.000Z</time>
      </trkpt>
      <trkpt lat="48.77493" lon="2.07748">
        <ele>161</ele>
        <time>2019-05-12T08:09:26.000Z</time>
      </trkpt>
      <trkpt lat="48.77493" lon="2.07748">
        <ele>161</ele>
        <time>2019-05-12T08:09:28.000Z</time>
      </trkpt>
      <trkpt lat="48.77493" lon="2.07748">
        <ele>161</ele>
        <time>2019-05-12T08:09:30.000Z</time>
      </trkpt>
      <trkpt lat="48.77493" lon="2.07748">
        <ele>161</ele>
        <time>2019-05-12T08:09:32.000Z</time>
      </trkpt>
      <trkpt lat="48.77483" lon="2.0774">
        <ele>161</ele>
        <time>2019-05-12T08:09:38.000Z</time>
      </trkpt>
      <trkpt lat="48.77478" lon="2.07736">
        <ele>161</ele>
        <time>2019-05-12T08:09:40.000Z</time>
      </trkpt>
      <trkpt lat="48.77478" lon="2.07736">
        <ele>161</ele>
        <time>2019-05-12T08:09:42.000Z</time>
      </trkpt>
      <trkpt lat="48.77478" lon="2.07736">
        <ele>161</ele>
        <time>2019-05-12T08:09:44.000Z</time>
      </trkpt>
      <trkpt lat="48.77478" lon="2.07736">
        <ele>161</ele>
        <time>2019-05-12T08:09:46.000Z</time>
      </trkpt>
      <trkpt lat="48.77469" lon="2.07728">
        <ele>161</ele>
        <time>2019-05-12T08:09:52.000Z</time>
      </trkpt>
      <trkpt lat="48.77469" lon="2.07728">
        <ele>161</ele>
        <time>2019-05-12T08:09:53.000Z</time>
      </trkpt>
      <trkpt lat="48.77463" lon="2.07721">
        <ele>161</ele>
        <time>2019-05-12T08:09:55.000Z</time>
      </trkpt>
      <trkpt lat="48.77463" lon="2.07721">
        <ele>161</ele>
        <time>2019-05-12T08:09:57.000Z</time>
      </trkpt>
      <trkpt lat="48.77463" lon="2.07721">
        <ele>161</ele>
        <time>2019-05-12T08:09:59.000Z</time>
      </trkpt>
      <trkpt lat="48.77463" lon="2.07721">
        <ele>161</ele>
        <time>2019-05-12T08:10:01.000Z</time>
      </trkpt>
      <trkpt lat="48.77457" lon="2.07712">
        <ele>161</ele>
        <time>2019-05-12T08:10:03.000Z</time>
      </trkpt>
      <trkpt lat="48.77453" lon="2.07706">
        <ele>162</ele>
        <time>2019-05-12T08:10:05.000Z</time>
      </trkpt>
      <trkpt lat="48.77449" lon="2.077">
        <ele>162</ele>
        <time>2019-05-12T08:10:09.000Z</time>
      </trkpt>
      <trkpt lat="48.77449" lon="2.077">
        <ele>162</ele>
        <time>2019-05-12T08:10:11.000Z</time>
      </trkpt>
      <trkpt lat="48.77449" lon="2.077">
        <ele>162</ele>
        <time>2019-05-12T08:10:13.000Z</time>
      </trkpt>
      <trkpt lat="48.77443" lon="2.0769">
        <ele>162</ele>
        <time>2019-05-12T08:10:17.000Z</time>
      </trkpt>
      <trkpt lat="48.77438" lon="2.07684">
        <ele>162</ele>
        <time>2019-05-12T08:10:19.000Z</time>
      </trkpt>
      <trkpt lat="48.77438" lon="2.07684">
        <ele>162</ele>
        <time>2019-05-12T08:10:21.000Z</time>
      </trkpt>
      <trkpt lat="48.77438" lon="2.07684">
        <ele>162</ele>
        <time>2019-05-12T08:10:23.000Z</time>
      </trkpt>
      <trkpt lat="48.77438" lon="2.07684">
        <ele>162</ele>
        <time>2019-05-12T08:10:25.000Z</time>
      </trkpt>
      <trkpt lat="48.77432" lon="2.07674">
        <ele>162</ele>
        <time>2019-05-12T08:10:29.000Z</time>
      </trkpt>
      <trkpt lat="48.77428" lon="2.07667">
        <ele>162</ele>
        <time>2019-05-12T08:10:31.000Z</time>
      </trkpt>
      <trkpt lat="48.77428" lon="2.07667">
        <ele>162</ele>
        <time>2019-05-12T08:10:33.000Z</time>
      </trkpt>
      <trkpt lat="48.77428" lon="2.07667">
        <ele>162</ele>
        <time>2019-05-12T08:10:35.000Z</time>
      </trkpt>
      <trkpt lat="48.77423" lon="2.07663">
        <ele>162</ele>
        <time>2019-05-12T08:10:39.000Z</time>
      </trkpt>
      <trkpt lat="48.77423" lon="2.07663">
        <ele>162</ele>
        <time>2019-05-12T08:10:41.000Z</time>
      </trkpt>
      <trkpt lat="48.77419" lon="2.07659">
        <ele>162</ele>
        <time>2019-05-12T08:10:43.000Z</time>
      </trkpt>
      <trkpt lat="48.77419" lon="2.07659">
        <ele>162</ele>
        <time>2019-05-12T08:10:45.000Z</time>
      </trkpt>
      <trkpt lat="48.77419" lon="2.07659">
        <ele>162</ele>
        <time>2019-05-12T08:10:47.000Z</time>
      </trkpt>
      <trkpt lat="48.77411" lon="2.07652">
        <ele>162</ele>
        <time>2019-05-12T08:10:59.000Z</time>
      </trkpt>
      <trkpt lat="48.77406" lon="2.07646">
        <ele>162</ele>
        <time>2019-05-12T08:11:01.000Z</time>
      </trkpt>
      <trkpt lat="48.77406" lon="2.07646">
        <ele>162</ele>
        <time>2019-05-12T08:11:03.000Z</time>
      </trkpt>
      <trkpt lat="48.77406" lon="2.07646">
        <ele>162</ele>
        <time>2019-05-12T08:11:05.000Z</time>
      </trkpt>
      <trkpt lat="48.77406" lon="2.07646">
        <ele>162</ele>
        <time>2019-05-12T08:11:07.000Z</time>
      </trkpt>
      <trkpt lat="48.77406" lon="2.07646">
        <ele>162</ele>
        <time>2019-05-12T08:11:09.000Z</time>
      </trkpt>
      <trkpt lat="48.77406" lon="2.07646">
        <ele>162</ele>
        <time>2019-05-12T08:11:11.000Z</time>
      </trkpt>
      <trkpt lat="48.774" lon="2.07629">
        <ele>162</ele>
        <time>2019-05-12T08:12:17.000Z</time>
      </trkpt>
      <trkpt lat="48.77397" lon="2.0762">
        <ele>162</ele>
        <time>2019-05-12T08:12:19.000Z</time>
      </trkpt>
      <trkpt lat="48.77396" lon="2.07613">
        <ele>162</ele>
        <time>2019-05-12T08:12:21.000Z</time>
      </trkpt>
      <trkpt lat="48.77397" lon="2.07606">
        <ele>162</ele>
        <time>2019-05-12T08:12:25.000Z</time>
      </trkpt>
      <trkpt lat="48.77397" lon="2.07597">
        <ele>161</ele>
        <time>2019-05-12T08:12:29.000Z</time>
      </trkpt>
      <trkpt lat="48.77396" lon="2.0759">
        <ele>161</ele>
        <time>2019-05-12T08:12:31.000Z</time>
      </trkpt>
      <trkpt lat="48.77396" lon="2.0759">
        <ele>161</ele>
        <time>2019-05-12T08:12:33.000Z</time>
      </trkpt>
      <trkpt lat="48.77396" lon="2.0759">
        <ele>161</ele>
        <time>2019-05-12T08:12:35.000Z</time>
      </trkpt>
      <trkpt lat="48.77396" lon="2.0759">
        <ele>161</ele>
        <time>2019-05-12T08:12:37.000Z</time>
      </trkpt>
      <trkpt lat="48.7739" lon="2.07583">
        <ele>161</ele>
        <time>2019-05-12T08:12:41.000Z</time>
      </trkpt>
      <trkpt lat="48.77385" lon="2.07578">
        <ele>161</ele>
        <time>2019-05-12T08:12:43.000Z</time>
      </trkpt>
      <trkpt lat="48.77385" lon="2.07578">
        <ele>161</ele>
        <time>2019-05-12T08:12:45.000Z</time>
      </trkpt>
      <trkpt lat="48.77385" lon="2.07578">
        <ele>161</ele>
        <time>2019-05-12T08:12:47.000Z</time>
      </trkpt>
      <trkpt lat="48.7738" lon="2.07571">
        <ele>161</ele>
        <time>2019-05-12T08:12:53.000Z</time>
      </trkpt>
      <trkpt lat="48.77377" lon="2.07565">
        <ele>161</ele>
        <time>2019-05-12T08:12:54.000Z</time>
      </trkpt>
      <trkpt lat="48.77373" lon="2.07559">
        <ele>161</ele>
        <time>2019-05-12T08:12:58.000Z</time>
      </trkpt>
      <trkpt lat="48.77373" lon="2.07559">
        <ele>161</ele>
        <time>2019-05-12T08:13:00.000Z</time>
      </trkpt>
      <trkpt lat="48.77373" lon="2.07559">
        <ele>161</ele>
        <time>2019-05-12T08:13:02.000Z</time>
      </trkpt>
      <trkpt lat="48.77373" lon="2.07559">
        <ele>161</ele>
        <time>2019-05-12T08:13:04.000Z</time>
      </trkpt>
      <trkpt lat="48.77365" lon="2.07542">
        <ele>161</ele>
        <time>2019-05-12T08:13:12.000Z</time>
      </trkpt>
      <trkpt lat="48.77365" lon="2.07542">
        <ele>161</ele>
        <time>2019-05-12T08:13:14.000Z</time>
      </trkpt>
      <trkpt lat="48.77365" lon="2.07542">
        <ele>161</ele>
        <time>2019-05-12T08:13:16.000Z</time>
      </trkpt>
      <trkpt lat="48.77365" lon="2.07542">
        <ele>161</ele>
        <time>2019-05-12T08:13:18.000Z</time>
      </trkpt>
      <trkpt lat="48.77357" lon="2.07528">
        <ele>161</ele>
        <time>2019-05-12T08:13:22.000Z</time>
      </trkpt>
      <trkpt lat="48.77353" lon="2.07519">
        <ele>161</ele>
        <time>2019-05-12T08:13:24.000Z</time>
      </trkpt>
      <trkpt lat="48.77349" lon="2.07513">
        <ele>161</ele>
        <time>2019-05-12T08:13:26.000Z</time>
      </trkpt>
      <trkpt lat="48.77349" lon="2.07513">
        <ele>161</ele>
        <time>2019-05-12T08:13:28.000Z</time>
      </trkpt>
      <trkpt lat="48.77349" lon="2.07513">
        <ele>161</ele>
        <time>2019-05-12T08:13:30.000Z</time>
      </trkpt>
      <trkpt lat="48.77345" lon="2.07505">
        <ele>162</ele>
        <time>2019-05-12T08:13:34.000Z</time>
      </trkpt>
      <trkpt lat="48.77342" lon="2.075">
        <ele>162</ele>
        <time>2019-05-12T08:13:36.000Z</time>
      </trkpt>
      <trkpt lat="48.77339" lon="2.07493">
        <ele>162</ele>
        <time>2019-05-12T08:13:40.000Z</time>
      </trkpt>
      <trkpt lat="48.77339" lon="2.07493">
        <ele>162</ele>
        <time>2019-05-12T08:13:42.000Z</time>
      </trkpt>
      <trkpt lat="48.77339" lon="2.07493">
        <ele>162</ele>
        <time>2019-05-12T08:13:44.000Z</time>
      </trkpt>
      <trkpt lat="48.77334" lon="2.07483">
        <ele>162</ele>
        <time>2019-05-12T08:13:50.000Z</time>
      </trkpt>
      <trkpt lat="48.7733" lon="2.07477">
        <ele>161</ele>
        <time>2019-05-12T08:13:52.000Z</time>
      </trkpt>
      <trkpt lat="48.77326" lon="2.07473">
        <ele>161</ele>
        <time>2019-05-12T08:13:54.000Z</time>
      </trkpt>
      <trkpt lat="48.77326" lon="2.07473">
        <ele>161</ele>
        <time>2019-05-12T08:13:56.000Z</time>
      </trkpt>
      <trkpt lat="48.77326" lon="2.07473">
        <ele>161</ele>
        <time>2019-05-12T08:13:58.000Z</time>
      </trkpt>
      <trkpt lat="48.77326" lon="2.07473">
        <ele>161</ele>
        <time>2019-05-12T08:14:00.000Z</time>
      </trkpt>
      <trkpt lat="48.77326" lon="2.07473">
        <ele>161</ele>
        <time>2019-05-12T08:14:08.000Z</time>
      </trkpt>
      <trkpt lat="48.77326" lon="2.07473">
        <ele>161</ele>
        <time>2019-05-12T08:14:10.000Z</time>
      </trkpt>
      <trkpt lat="48.77317" lon="2.07456">
        <ele>161</ele>
        <time>2019-05-12T08:14:14.000Z</time>
      </trkpt>
      <trkpt lat="48.77311" lon="2.07447">
        <ele>161</ele>
        <time>2019-05-12T08:14:16.000Z</time>
      </trkpt>
      <trkpt lat="48.77307" lon="2.07441">
        <ele>161</ele>
        <time>2019-05-12T08:14:18.000Z</time>
      </trkpt>
      <trkpt lat="48.77307" lon="2.07441">
        <ele>161</ele>
        <time>2019-05-12T08:14:20.000Z</time>
      </trkpt>
      <trkpt lat="48.77301" lon="2.07443">
        <ele>161</ele>
        <time>2019-05-12T08:14:28.000Z</time>
      </trkpt>
      <trkpt lat="48.77301" lon="2.07443">
        <ele>161</ele>
        <time>2019-05-12T08:14:30.000Z</time>
      </trkpt>
      <trkpt lat="48.77301" lon="2.07443">
        <ele>161</ele>
        <time>2019-05-12T08:14:32.000Z</time>
      </trkpt>
      <trkpt lat="48.77301" lon="2.07443">
        <ele>161</ele>
        <time>2019-05-12T08:14:34.000Z</time>
      </trkpt>
      <trkpt lat="48.77293" lon="2.07449">
        <ele>161</ele>
        <time>2019-05-12T08:14:36.000Z</time>
      </trkpt>
      <trkpt lat="48.77288" lon="2.07453">
        <ele>161</ele>
        <time>2019-05-12T08:14:38.000Z</time>
      </trkpt>
      <trkpt lat="48.77283" lon="2.07455">
        <ele>161</ele>
        <time>2019-05-12T08:14:40.000Z</time>
      </trkpt>
      <trkpt lat="48.77277" lon="2.07455">
        <ele>161</ele>
        <time>2019-05-12T08:14:44.000Z</time>
      </trkpt>
      <trkpt lat="48.77277" lon="2.07455">
        <ele>161</ele>
        <time>2019-05-12T08:14:46.000Z</time>
      </trkpt>
      <trkpt lat="48.77277" lon="2.07455">
        <ele>161</ele>
        <time>2019-05-12T08:14:48.000Z</time>
      </trkpt>
      <trkpt lat="48.77271" lon="2.07458">
        <ele>161</ele>
        <time>2019-05-12T08:14:52.000Z</time>
      </trkpt>
      <trkpt lat="48.77271" lon="2.07458">
        <ele>161</ele>
        <time>2019-05-12T08:14:54.000Z</time>
      </trkpt>
      <trkpt lat="48.77271" lon="2.07458">
        <ele>161</ele>
        <time>2019-05-12T08:14:56.000Z</time>
      </trkpt>
      <trkpt lat="48.77271" lon="2.07458">
        <ele>161</ele>
        <time>2019-05-12T08:14:58.000Z</time>
      </trkpt>
      <trkpt lat="48.7726" lon="2.07466">
        <ele>161</ele>
        <time>2019-05-12T08:15:06.000Z</time>
      </trkpt>
      <trkpt lat="48.77253" lon="2.07472">
        <ele>161</ele>
        <time>2019-05-12T08:15:08.000Z</time>
      </trkpt>
      <trkpt lat="48.77249" lon="2.07476">
        <ele>160</ele>
        <time>2019-05-12T08:15:10.000Z</time>
      </trkpt>
      <trkpt lat="48.77249" lon="2.07476">
        <ele>160</ele>
        <time>2019-05-12T08:15:12.000Z</time>
      </trkpt>
      <trkpt lat="48.77249" lon="2.07476">
        <ele>160</ele>
        <time>2019-05-12T08:15:14.000Z</time>
      </trkpt>
      <trkpt lat="48.77243" lon="2.07484">
        <ele>160</ele>
        <time>2019-05-12T08:15:16.000Z</time>
      </trkpt>
      <trkpt lat="48.77238" lon="2.07491">
        <ele>161</ele>
        <time>2019-05-12T08:15:18.000Z</time>
      </trkpt>
      <trkpt lat="48.77235" lon="2.07496">
        <ele>161</ele>
        <time>2019-05-12T08:15:20.000Z</time>
      </trkpt>
      <trkpt lat="48.77235" lon="2.07496">
        <ele>161</ele>
        <time>2019-05-12T08:15:22.000Z</time>
      </trkpt>
      <trkpt lat="48.77235" lon="2.07496">
        <ele>161</ele>
        <time>2019-05-12T08:15:24.000Z</time>
      </trkpt>
      <trkpt lat="48.77226" lon="2.07509">
        <ele>161</ele>
        <time>2019-05-12T08:15:30.000Z</time>
      </trkpt>
      <trkpt lat="48.77221" lon="2.07516">
        <ele>161</ele>
        <time>2019-05-12T08:15:32.000Z</time>
      </trkpt>
      <trkpt lat="48.77217" lon="2.07521">
        <ele>161</ele>
        <time>2019-05-12T08:15:34.000Z</time>
      </trkpt>
      <trkpt lat="48.77217" lon="2.07521">
        <ele>161</ele>
        <time>2019-05-12T08:15:36.000Z</time>
      </trkpt>
      <trkpt lat="48.77217" lon="2.07521">
        <ele>161</ele>
        <time>2019-05-12T08:15:38.000Z</time>
      </trkpt>
      <trkpt lat="48.7721" lon="2.0753">
        <ele>161</ele>
        <time>2019-05-12T08:15:43.000Z</time>
      </trkpt>
      <trkpt lat="48.77205" lon="2.07535">
        <ele>161</ele>
        <time>2019-05-12T08:15:45.000Z</time>
      </trkpt>
      <trkpt lat="48.77201" lon="2.07539">
        <ele>161</ele>
        <time>2019-05-12T08:15:47.000Z</time>
      </trkpt>
      <trkpt lat="48.77201" lon="2.07539">
        <ele>161</ele>
        <time>2019-05-12T08:15:49.000Z</time>
      </trkpt>
      <trkpt lat="48.77201" lon="2.07539">
        <ele>161</ele>
        <time>2019-05-12T08:15:51.000Z</time>
      </trkpt>
      <trkpt lat="48.77201" lon="2.07539">
        <ele>161</ele>
        <time>2019-05-12T08:15:53.000Z</time>
      </trkpt>
      <trkpt lat="48.77192" lon="2.07542">
        <ele>161</ele>
        <time>2019-05-12T08:16:01.000Z</time>
      </trkpt>
      <trkpt lat="48.77188" lon="2.07542">
        <ele>161</ele>
        <time>2019-05-12T08:16:03.000Z</time>
      </trkpt>
      <trkpt lat="48.77188" lon="2.07542">
        <ele>161</ele>
        <time>2019-05-12T08:16:05.000Z</time>
      </trkpt>
      <trkpt lat="48.77188" lon="2.07542">
        <ele>161</ele>
        <time>2019-05-12T08:16:07.000Z</time>
      </trkpt>
      <trkpt lat="48.77188" lon="2.07542">
        <ele>161</ele>
        <time>2019-05-12T08:16:09.000Z</time>
      </trkpt>
      <trkpt lat="48.77188" lon="2.07542">
        <ele>161</ele>
        <time>2019-05-12T08:16:11.000Z</time>
      </trkpt>
      <trkpt lat="48.77188" lon="2.07542">
        <ele>161</ele>
        <time>2019-05-12T08:16:15.000Z</time>
      </trkpt>
      <trkpt lat="48.77179" lon="2.07532">
        <ele>161</ele>
        <time>2019-05-12T08:16:17.000Z</time>
      </trkpt>
      <trkpt lat="48.77174" lon="2.07527">
        <ele>161</ele>
        <time>2019-05-12T08:16:19.000Z</time>
      </trkpt>
      <trkpt lat="48.77169" lon="2.07526">
        <ele>161</ele>
        <time>2019-05-12T08:16:23.000Z</time>
      </trkpt>
      <trkpt lat="48.77169" lon="2.07526">
        <ele>161</ele>
        <time>2019-05-12T08:16:25.000Z</time>
      </trkpt>
      <trkpt lat="48.77169" lon="2.07526">
        <ele>161</ele>
        <time>2019-05-12T08:16:27.000Z</time>
      </trkpt>
      <trkpt lat="48.77169" lon="2.07526">
        <ele>161</ele>
        <time>2019-05-12T08:16:29.000Z</time>
      </trkpt>
      <trkpt lat="48.77169" lon="2.07526">
        <ele>161</ele>
        <time>2019-05-12T08:16:33.000Z</time>
      </trkpt>
      <trkpt lat="48.77169" lon="2.07526">
        <ele>161</ele>
        <time>2019-05-12T08:16:35.000Z</time>
      </trkpt>
      <trkpt lat="48.77169" lon="2.07526">
        <ele>161</ele>
        <time>2019-05-12T08:16:37.000Z</time>
      </trkpt>
      <trkpt lat="48.77169" lon="2.07526">
        <ele>161</ele>
        <time>2019-05-12T08:16:39.000Z</time>
      </trkpt>
      <trkpt lat="48.77169" lon="2.07526">
        <ele>161</ele>
        <time>2019-05-12T08:16:41.000Z</time>
      </trkpt>
      <trkpt lat="48.77163" lon="2.07539">
        <ele>160</ele>
        <time>2019-05-12T08:16:43.000Z</time>
      </trkpt>
      <trkpt lat="48.7716" lon="2.07548">
        <ele>160</ele>
        <time>2019-05-12T08:16:45.000Z</time>
      </trkpt>
      <trkpt lat="48.77156" lon="2.07555">
        <ele>160</ele>
        <time>2019-05-12T08:16:47.000Z</time>
      </trkpt>
      <trkpt lat="48.77156" lon="2.07555">
        <ele>160</ele>
        <time>2019-05-12T08:16:49.000Z</time>
      </trkpt>
      <trkpt lat="48.77156" lon="2.07555">
        <ele>160</ele>
        <time>2019-05-12T08:16:51.000Z</time>
      </trkpt>
      <trkpt lat="48.77156" lon="2.07555">
        <ele>160</ele>
        <time>2019-05-12T08:16:53.000Z</time>
      </trkpt>
      <trkpt lat="48.77156" lon="2.07555">
        <ele>160</ele>
        <time>2019-05-12T08:17:01.000Z</time>
      </trkpt>
      <trkpt lat="48.77152" lon="2.07576">
        <ele>160</ele>
        <time>2019-05-12T08:17:07.000Z</time>
      </trkpt>
      <trkpt lat="48.77152" lon="2.07576">
        <ele>160</ele>
        <time>2019-05-12T08:17:09.000Z</time>
      </trkpt>
      <trkpt lat="48.77152" lon="2.07576">
        <ele>160</ele>
        <time>2019-05-12T08:17:11.000Z</time>
      </trkpt>
      <trkpt lat="48.77152" lon="2.07576">
        <ele>160</ele>
        <time>2019-05-12T08:17:13.000Z</time>
      </trkpt>
      <trkpt lat="48.77148" lon="2.07599">
        <ele>160</ele>
        <time>2019-05-12T08:17:21.000Z</time>
      </trkpt>
      <trkpt lat="48.77145" lon="2.07613">
        <ele>160</ele>
        <time>2019-05-12T08:17:23.000Z</time>
      </trkpt>
      <trkpt lat="48.77143" lon="2.07624">
        <ele>160</ele>
        <time>2019-05-12T08:17:25.000Z</time>
      </trkpt>
      <trkpt lat="48.77142" lon="2.07632">
        <ele>160</ele>
        <time>2019-05-12T08:17:27.000Z</time>
      </trkpt>
      <trkpt lat="48.77141" lon="2.07639">
        <ele>160</ele>
        <time>2019-05-12T08:17:29.000Z</time>
      </trkpt>
      <trkpt lat="48.77141" lon="2.07639">
        <ele>160</ele>
        <time>2019-05-12T08:17:31.000Z</time>
      </trkpt>
      <trkpt lat="48.77141" lon="2.07639">
        <ele>160</ele>
        <time>2019-05-12T08:17:33.000Z</time>
      </trkpt>
      <trkpt lat="48.77141" lon="2.07639">
        <ele>160</ele>
        <time>2019-05-12T08:17:35.000Z</time>
      </trkpt>
      <trkpt lat="48.77141" lon="2.07639">
        <ele>160</ele>
        <time>2019-05-12T08:17:37.000Z</time>
      </trkpt>
      <trkpt lat="48.77141" lon="2.07639">
        <ele>160</ele>
        <time>2019-05-12T08:17:43.000Z</time>
      </trkpt>
      <trkpt lat="48.77141" lon="2.07639">
        <ele>160</ele>
        <time>2019-05-12T08:17:45.000Z</time>
      </trkpt>
      <trkpt lat="48.77135" lon="2.07677">
        <ele>160</ele>
        <time>2019-05-12T08:17:47.000Z</time>
      </trkpt>
      <trkpt lat="48.77128" lon="2.07694">
        <ele>160</ele>
        <time>2019-05-12T08:17:53.000Z</time>
      </trkpt>
      <trkpt lat="48.77128" lon="2.07694">
        <ele>160</ele>
        <time>2019-05-12T08:17:55.000Z</time>
      </trkpt>
      <trkpt lat="48.77128" lon="2.07694">
        <ele>160</ele>
        <time>2019-05-12T08:17:57.000Z</time>
      </trkpt>
      <trkpt lat="48.77128" lon="2.07694">
        <ele>160</ele>
        <time>2019-05-12T08:17:59.000Z</time>
      </trkpt>
      <trkpt lat="48.77126" lon="2.07712">
        <ele>161</ele>
        <time>2019-05-12T08:18:03.000Z</time>
      </trkpt>
      <trkpt lat="48.77119" lon="2.07727">
        <ele>161</ele>
        <time>2019-05-12T08:18:09.000Z</time>
      </trkpt>
      <trkpt lat="48.77119" lon="2.07727">
        <ele>161</ele>
        <time>2019-05-12T08:18:11.000Z</time>
      </trkpt>
      <trkpt lat="48.77119" lon="2.07727">
        <ele>161</ele>
        <time>2019-05-12T08:18:13.000Z</time>
      </trkpt>
      <trkpt lat="48.77119" lon="2.07727">
        <ele>161</ele>
        <time>2019-05-12T08:18:15.000Z</time>
      </trkpt>
      <trkpt lat="48.77119" lon="2.07727">
        <ele>161</ele>
        <time>2019-05-12T08:18:17.000Z</time>
      </trkpt>
      <trkpt lat="48.77119" lon="2.07727">
        <ele>161</ele>
        <time>2019-05-12T08:18:19.000Z</time>
      </trkpt>
      <trkpt lat="48.77119" lon="2.07727">
        <ele>161</ele>
        <time>2019-05-12T08:18:21.000Z</time>
      </trkpt>
      <trkpt lat="48.77114" lon="2.07751">
        <ele>160</ele>
        <time>2019-05-12T08:18:23.000Z</time>
      </trkpt>
      <trkpt lat="48.77114" lon="2.07751">
        <ele>160</ele>
        <time>2019-05-12T08:18:27.000Z</time>
      </trkpt>
      <trkpt lat="48.77114" lon="2.07751">
        <ele>160</ele>
        <time>2019-05-12T08:18:29.000Z</time>
      </trkpt>
      <trkpt lat="48.77114" lon="2.07751">
        <ele>160</ele>
        <time>2019-05-12T08:18:31.000Z</time>
      </trkpt>
      <trkpt lat="48.77114" lon="2.07751">
        <ele>160</ele>
        <time>2019-05-12T08:18:33.000Z</time>
      </trkpt>
      <trkpt lat="48.77109" lon="2.07776">
        <ele>160</ele>
        <time>2019-05-12T08:18:37.000Z</time>
      </trkpt>
      <trkpt lat="48.77109" lon="2.07776">
        <ele>160</ele>
        <time>2019-05-12T08:18:45.000Z</time>
      </trkpt>
      <trkpt lat="48.77109" lon="2.07776">
        <ele>160</ele>
        <time>2019-05-12T08:18:47.000Z</time>
      </trkpt>
      <trkpt lat="48.77105" lon="2.07788">
        <ele>160</ele>
        <time>2019-05-12T08:18:51.000Z</time>
      </trkpt>
      <trkpt lat="48.77103" lon="2.07796">
        <ele>160</ele>
        <time>2019-05-12T08:18:53.000Z</time>
      </trkpt>
      <trkpt lat="48.77101" lon="2.07803">
        <ele>160</ele>
        <time>2019-05-12T08:18:57.000Z</time>
      </trkpt>
      <trkpt lat="48.77101" lon="2.07803">
        <ele>160</ele>
        <time>2019-05-12T08:19:01.000Z</time>
      </trkpt>
      <trkpt lat="48.771" lon="2.07812">
        <ele>159</ele>
        <time>2019-05-12T08:19:05.000Z</time>
      </trkpt>
      <trkpt lat="48.771" lon="2.07812">
        <ele>159</ele>
        <time>2019-05-12T08:19:07.000Z</time>
      </trkpt>
      <trkpt lat="48.77098" lon="2.07819">
        <ele>159</ele>
        <time>2019-05-12T08:19:11.000Z</time>
      </trkpt>
      <trkpt lat="48.77097" lon="2.07827">
        <ele>159</ele>
        <time>2019-05-12T08:19:15.000Z</time>
      </trkpt>
      <trkpt lat="48.77097" lon="2.07827">
        <ele>159</ele>
        <time>2019-05-12T08:19:17.000Z</time>
      </trkpt>
      <trkpt lat="48.77097" lon="2.07834">
        <ele>159</ele>
        <time>2019-05-12T08:19:19.000Z</time>
      </trkpt>
      <trkpt lat="48.77097" lon="2.07834">
        <ele>159</ele>
        <time>2019-05-12T08:19:21.000Z</time>
      </trkpt>
      <trkpt lat="48.77097" lon="2.07834">
        <ele>159</ele>
        <time>2019-05-12T08:19:23.000Z</time>
      </trkpt>
      <trkpt lat="48.771" lon="2.07839">
        <ele>159</ele>
        <time>2019-05-12T08:19:27.000Z</time>
      </trkpt>
      <trkpt lat="48.77105" lon="2.07842">
        <ele>159</ele>
        <time>2019-05-12T08:19:31.000Z</time>
      </trkpt>
      <trkpt lat="48.77109" lon="2.07845">
        <ele>159</ele>
        <time>2019-05-12T08:19:35.000Z</time>
      </trkpt>
      <trkpt lat="48.77114" lon="2.07848">
        <ele>159</ele>
        <time>2019-05-12T08:19:39.000Z</time>
      </trkpt>
      <trkpt lat="48.77114" lon="2.07848">
        <ele>159</ele>
        <time>2019-05-12T08:19:43.000Z</time>
      </trkpt>
      <trkpt lat="48.77114" lon="2.07848">
        <ele>159</ele>
        <time>2019-05-12T08:19:45.000Z</time>
      </trkpt>
      <trkpt lat="48.77121" lon="2.0785">
        <ele>159</ele>
        <time>2019-05-12T08:19:47.000Z</time>
      </trkpt>
      <trkpt lat="48.77121" lon="2.0785">
        <ele>159</ele>
        <time>2019-05-12T08:19:49.000Z</time>
      </trkpt>
      <trkpt lat="48.77121" lon="2.0785">
        <ele>159</ele>
        <time>2019-05-12T08:19:51.000Z</time>
      </trkpt>
      <trkpt lat="48.77121" lon="2.0785">
        <ele>159</ele>
        <time>2019-05-12T08:19:53.000Z</time>
      </trkpt>
      <trkpt lat="48.77132" lon="2.07852">
        <ele>160</ele>
        <time>2019-05-12T08:19:59.000Z</time>
      </trkpt>
      <trkpt lat="48.77138" lon="2.07853">
        <ele>160</ele>
        <time>2019-05-12T08:20:01.000Z</time>
      </trkpt>
      <trkpt lat="48.77144" lon="2.07855">
        <ele>160</ele>
        <time>2019-05-12T08:20:05.000Z</time>
      </trkpt>
      <trkpt lat="48.77149" lon="2.07857">
        <ele>160</ele>
        <time>2019-05-12T08:20:09.000Z</time>
      </trkpt>
      <trkpt lat="48.77149" lon="2.07857">
        <ele>160</ele>
        <time>2019-05-12T08:20:11.000Z</time>
      </trkpt>
      <trkpt lat="48.77149" lon="2.07857">
        <ele>160</ele>
        <time>2019-05-12T08:20:13.000Z</time>
      </trkpt>
      <trkpt lat="48.77149" lon="2.07857">
        <ele>160</ele>
        <time>2019-05-12T08:20:17.000Z</time>
      </trkpt>
      <trkpt lat="48.77149" lon="2.07857">
        <ele>160</ele>
        <time>2019-05-12T08:20:19.000Z</time>
      </trkpt>
      <trkpt lat="48.77149" lon="2.07857">
        <ele>160</ele>
        <time>2019-05-12T08:20:21.000Z</time>
      </trkpt>
      <trkpt lat="48.77149" lon="2.07857">
        <ele>160</ele>
        <time>2019-05-12T08:20:23.000Z</time>
      </trkpt>
      <trkpt lat="48.77153" lon="2.07868">
        <ele>160</ele>
        <time>2019-05-12T08:20:29.000Z</time>
      </trkpt>
      <trkpt lat="48.77153" lon="2.07868">
        <ele>160</ele>
        <time>2019-05-12T08:20:30.000Z</time>
      </trkpt>
      <trkpt lat="48.77153" lon="2.07868">
        <ele>160</ele>
        <time>2019-05-12T08:20:32.000Z</time>
      </trkpt>
      <trkpt lat="48.77153" lon="2.07868">
        <ele>160</ele>
        <time>2019-05-12T08:20:52.000Z</time>
      </trkpt>
      <trkpt lat="48.77153" lon="2.07868">
        <ele>160</ele>
        <time>2019-05-12T08:21:00.000Z</time>
      </trkpt>
    </trkseg>
  </trk>
</gpx>